<?xml version="1.0" encoding="UTF-8"?>
<gpx version="1.1" creator="2bulu-scraper" xmlns="http://www.topografix.com/GPX/1/1">
  <metadata><name>宜宾蜀南竹海</name><desc>source: 2bulu.com trackId=86055055; exported 2026-08-31T01:44:39.364Z</desc>
    <bounds minlat="28.454791" minlon="104.962468" maxlat="28.490846" maxlon="105.0061"/>
    <link href="https://www.2bulu.com/track/t-dnpJBj%252BIJzfp%252FR2KBg5Tzw%253D%253D.htm"><text>2bulu 源页面</text></link>
  </metadata>
  <wpt lat="28.468895" lon="104.962713"><ele>440</ele><name></name></wpt>
  <wpt lat="28.468687" lon="104.963997"><ele>443</ele><name></name></wpt>
  <wpt lat="28.470162" lon="104.973703"><ele>506</ele><name></name></wpt>
  <wpt lat="28.469938" lon="104.977137"><ele>506</ele><name></name></wpt>
  <wpt lat="28.464147" lon="104.977195"><ele>563</ele><name></name></wpt>
  <wpt lat="28.461047" lon="104.974708"><ele>603</ele><name></name></wpt>
  <wpt lat="28.46392" lon="104.996537"><ele>850</ele><name></name></wpt>
  <wpt lat="28.470172" lon="105.002992"><ele>894</ele><name></name></wpt>
  <wpt lat="28.471312" lon="105.005797"><ele>876</ele><name></name></wpt>
  <wpt lat="28.473667" lon="105.004081"><ele>892</ele><name></name></wpt>
  <wpt lat="28.485963" lon="104.999695"><ele>879</ele><name></name></wpt>
  <wpt lat="28.489545" lon="104.995553"><ele>815</ele><name></name></wpt>
  <wpt lat="28.48955" lon="104.995445"><ele>821</ele><name></name></wpt>
  <wpt lat="28.48958" lon="104.990595"><ele>794</ele><name></name></wpt>
  <wpt lat="28.488497" lon="104.984728"><ele>779</ele><name></name></wpt>
  <wpt lat="28.488038" lon="104.983055"><ele>765</ele><name></name></wpt>
  <wpt lat="28.472405" lon="104.974587"><ele>541</ele><name></name></wpt>
  <wpt lat="28.471138" lon="104.973945"><ele>521</ele><name></name></wpt>
  <trk><name>宜宾蜀南竹海</name>
      <trkseg>
        <trkpt lat="28.469005" lon="104.96257"><ele>447.90363</ele><time>2026-06-18T17:58:47.000Z</time></trkpt>
        <trkpt lat="28.468941" lon="104.962523"><ele>443.0379</ele><time>2026-06-18T17:58:58.000Z</time></trkpt>
        <trkpt lat="28.468917" lon="104.962497"><ele>443.0379</ele><time>2026-06-18T17:59:00.000Z</time></trkpt>
        <trkpt lat="28.468887" lon="104.962479"><ele>442.86514</ele><time>2026-06-18T17:59:02.000Z</time></trkpt>
        <trkpt lat="28.468867" lon="104.962468"><ele>442.6924</ele><time>2026-06-18T17:59:04.000Z</time></trkpt>
        <trkpt lat="28.468853" lon="104.962495"><ele>442.49258</ele><time>2026-06-18T17:59:06.000Z</time></trkpt>
        <trkpt lat="28.468841" lon="104.962533"><ele>442.2928</ele><time>2026-06-18T17:59:08.000Z</time></trkpt>
        <trkpt lat="28.468833" lon="104.962568"><ele>442.15573</ele><time>2026-06-18T17:59:10.000Z</time></trkpt>
        <trkpt lat="28.468832" lon="104.962593"><ele>442.01868</ele><time>2026-06-18T17:59:12.000Z</time></trkpt>
        <trkpt lat="28.468834" lon="104.962606"><ele>440.79263</ele><time>2026-06-18T17:59:14.000Z</time></trkpt>
        <trkpt lat="28.468832" lon="104.962608"><ele>438.55502</ele><time>2026-06-18T17:59:16.000Z</time></trkpt>
        <trkpt lat="28.468897" lon="104.962556"><ele>438.55502</ele><time>2026-06-18T17:59:41.000Z</time></trkpt>
        <trkpt lat="28.468897" lon="104.962556"><ele>438.55502</ele><time>2026-06-18T17:59:43.000Z</time></trkpt>
        <trkpt lat="28.468903" lon="104.962559"><ele>438.55502</ele><time>2026-06-18T17:59:45.000Z</time></trkpt>
        <trkpt lat="28.468983" lon="104.962602"><ele>438.55502</ele><time>2026-06-18T18:00:35.000Z</time></trkpt>
        <trkpt lat="28.468977" lon="104.962634"><ele>438.81744</ele><time>2026-06-18T18:00:43.000Z</time></trkpt>
        <trkpt lat="28.468939" lon="104.962648"><ele>439.99014</ele><time>2026-06-18T18:00:45.000Z</time></trkpt>
        <trkpt lat="28.468923" lon="104.962684"><ele>440.02182</ele><time>2026-06-18T18:00:51.000Z</time></trkpt>
        <trkpt lat="28.46891" lon="104.962703"><ele>440.02182</ele><time>2026-06-18T18:00:53.000Z</time></trkpt>
        <trkpt lat="28.468894" lon="104.962733"><ele>440.02182</ele><time>2026-06-18T18:00:57.000Z</time></trkpt>
        <trkpt lat="28.468874" lon="104.962775"><ele>440.02182</ele><time>2026-06-18T18:01:03.000Z</time></trkpt>
        <trkpt lat="28.468866" lon="104.962796"><ele>439.9374</ele><time>2026-06-18T18:01:05.000Z</time></trkpt>
        <trkpt lat="28.468858" lon="104.962818"><ele>439.90573</ele><time>2026-06-18T18:01:07.000Z</time></trkpt>
        <trkpt lat="28.468845" lon="104.962849"><ele>439.75235</ele><time>2026-06-18T18:01:09.000Z</time></trkpt>
        <trkpt lat="28.468832" lon="104.96288"><ele>439.35544</ele><time>2026-06-18T18:01:11.000Z</time></trkpt>
        <trkpt lat="28.468818" lon="104.962912"><ele>439.08405</ele><time>2026-06-18T18:01:13.000Z</time></trkpt>
        <trkpt lat="28.468809" lon="104.962935"><ele>439.00357</ele><time>2026-06-18T18:01:15.000Z</time></trkpt>
        <trkpt lat="28.468805" lon="104.962955"><ele>438.90457</ele><time>2026-06-18T18:01:17.000Z</time></trkpt>
        <trkpt lat="28.468804" lon="104.962983"><ele>438.8516</ele><time>2026-06-18T18:01:19.000Z</time></trkpt>
        <trkpt lat="28.468804" lon="104.963009"><ele>438.681</ele><time>2026-06-18T18:01:21.000Z</time></trkpt>
        <trkpt lat="28.468807" lon="104.963039"><ele>438.29428</ele><time>2026-06-18T18:01:23.000Z</time></trkpt>
        <trkpt lat="28.468814" lon="104.963064"><ele>437.8785</ele><time>2026-06-18T18:01:25.000Z</time></trkpt>
        <trkpt lat="28.468821" lon="104.963093"><ele>437.53537</ele><time>2026-06-18T18:01:27.000Z</time></trkpt>
        <trkpt lat="28.468828" lon="104.963118"><ele>437.33792</ele><time>2026-06-18T18:01:29.000Z</time></trkpt>
        <trkpt lat="28.468835" lon="104.963141"><ele>437.29947</ele><time>2026-06-18T18:01:31.000Z</time></trkpt>
        <trkpt lat="28.468845" lon="104.963168"><ele>437.27728</ele><time>2026-06-18T18:01:33.000Z</time></trkpt>
        <trkpt lat="28.468851" lon="104.96319"><ele>437.21527</ele><time>2026-06-18T18:01:35.000Z</time></trkpt>
        <trkpt lat="28.468856" lon="104.963214"><ele>437.15927</ele><time>2026-06-18T18:01:37.000Z</time></trkpt>
        <trkpt lat="28.468861" lon="104.963236"><ele>437.10333</ele><time>2026-06-18T18:01:39.000Z</time></trkpt>
        <trkpt lat="28.468866" lon="104.963256"><ele>437.0197</ele><time>2026-06-18T18:01:41.000Z</time></trkpt>
        <trkpt lat="28.468872" lon="104.963278"><ele>436.95892</ele><time>2026-06-18T18:01:43.000Z</time></trkpt>
        <trkpt lat="28.46888" lon="104.963303"><ele>436.95892</ele><time>2026-06-18T18:01:45.000Z</time></trkpt>
        <trkpt lat="28.468885" lon="104.963326"><ele>436.95892</ele><time>2026-06-18T18:01:47.000Z</time></trkpt>
        <trkpt lat="28.468887" lon="104.963349"><ele>436.95892</ele><time>2026-06-18T18:01:49.000Z</time></trkpt>
        <trkpt lat="28.468888" lon="104.963372"><ele>437.0197</ele><time>2026-06-18T18:01:51.000Z</time></trkpt>
        <trkpt lat="28.468888" lon="104.963394"><ele>437.06473</ele><time>2026-06-18T18:01:53.000Z</time></trkpt>
        <trkpt lat="28.468887" lon="104.963418"><ele>437.06473</ele><time>2026-06-18T18:01:55.000Z</time></trkpt>
        <trkpt lat="28.468887" lon="104.963442"><ele>437.14944</ele><time>2026-06-18T18:01:57.000Z</time></trkpt>
        <trkpt lat="28.468886" lon="104.963467"><ele>437.2452</ele><time>2026-06-18T18:01:59.000Z</time></trkpt>
        <trkpt lat="28.468887" lon="104.963498"><ele>437.28436</ele><time>2026-06-18T18:02:01.000Z</time></trkpt>
        <trkpt lat="28.46889" lon="104.963526"><ele>437.32605</ele><time>2026-06-18T18:02:03.000Z</time></trkpt>
        <trkpt lat="28.468893" lon="104.963551"><ele>437.32605</ele><time>2026-06-18T18:02:05.000Z</time></trkpt>
        <trkpt lat="28.468897" lon="104.963582"><ele>437.4119</ele><time>2026-06-18T18:02:07.000Z</time></trkpt>
        <trkpt lat="28.468898" lon="104.963607"><ele>437.5666</ele><time>2026-06-18T18:02:09.000Z</time></trkpt>
        <trkpt lat="28.468897" lon="104.96363"><ele>437.72235</ele><time>2026-06-18T18:02:11.000Z</time></trkpt>
        <trkpt lat="28.468893" lon="104.963655"><ele>437.8062</ele><time>2026-06-18T18:02:13.000Z</time></trkpt>
        <trkpt lat="28.468887" lon="104.963679"><ele>437.84393</ele><time>2026-06-18T18:02:15.000Z</time></trkpt>
        <trkpt lat="28.468876" lon="104.963708"><ele>438.13617</ele><time>2026-06-18T18:02:17.000Z</time></trkpt>
        <trkpt lat="28.468869" lon="104.963738"><ele>438.53598</ele><time>2026-06-18T18:02:19.000Z</time></trkpt>
        <trkpt lat="28.468866" lon="104.963762"><ele>438.87073</ele><time>2026-06-18T18:02:21.000Z</time></trkpt>
        <trkpt lat="28.46887" lon="104.963781"><ele>439.1575</ele><time>2026-06-18T18:02:23.000Z</time></trkpt>
        <trkpt lat="28.468877" lon="104.9638"><ele>439.53186</ele><time>2026-06-18T18:02:24.000Z</time></trkpt>
        <trkpt lat="28.468884" lon="104.963817"><ele>440.12082</ele><time>2026-06-18T18:02:26.000Z</time></trkpt>
        <trkpt lat="28.468613" lon="104.963863"><ele>440.12082</ele><time>2026-06-18T18:03:05.000Z</time></trkpt>
        <trkpt lat="28.468613" lon="104.963863"><ele>440.12082</ele><time>2026-06-18T18:03:08.000Z</time></trkpt>
        <trkpt lat="28.468616" lon="104.963858"><ele>440.12082</ele><time>2026-06-18T18:03:11.000Z</time></trkpt>
        <trkpt lat="28.468708" lon="104.963745"><ele>440.44876</ele><time>2026-06-18T18:05:33.000Z</time></trkpt>
        <trkpt lat="28.468812" lon="104.963817"><ele>440.5636</ele><time>2026-06-18T18:05:38.000Z</time></trkpt>
        <trkpt lat="28.468812" lon="104.963817"><ele>440.6439</ele><time>2026-06-18T18:05:40.000Z</time></trkpt>
        <trkpt lat="28.468784" lon="104.963837"><ele>440.93</ele><time>2026-06-18T18:05:43.000Z</time></trkpt>
        <trkpt lat="28.468743" lon="104.963866"><ele>440.98328</ele><time>2026-06-18T18:05:51.000Z</time></trkpt>
        <trkpt lat="28.468718" lon="104.963899"><ele>440.98328</ele><time>2026-06-18T18:05:53.000Z</time></trkpt>
        <trkpt lat="28.468702" lon="104.963931"><ele>440.98328</ele><time>2026-06-18T18:05:55.000Z</time></trkpt>
        <trkpt lat="28.468687" lon="104.963968"><ele>441.516</ele><time>2026-06-18T18:05:57.000Z</time></trkpt>
        <trkpt lat="28.468677" lon="104.963995"><ele>441.79202</ele><time>2026-06-18T18:05:59.000Z</time></trkpt>
        <trkpt lat="28.46867" lon="104.96401"><ele>442.08603</ele><time>2026-06-18T18:06:01.000Z</time></trkpt>
        <trkpt lat="28.46866" lon="104.964025"><ele>442.08603</ele><time>2026-06-18T18:06:03.000Z</time></trkpt>
        <trkpt lat="28.468648" lon="104.96404"><ele>442.45035</ele><time>2026-06-18T18:06:05.000Z</time></trkpt>
        <trkpt lat="28.46864" lon="104.964049"><ele>442.6681</ele><time>2026-06-18T18:06:07.000Z</time></trkpt>
        <trkpt lat="28.468632" lon="104.96406"><ele>442.6681</ele><time>2026-06-18T18:06:09.000Z</time></trkpt>
        <trkpt lat="28.468623" lon="104.964079"><ele>442.6681</ele><time>2026-06-18T18:06:11.000Z</time></trkpt>
        <trkpt lat="28.468616" lon="104.964097"><ele>442.6681</ele><time>2026-06-18T18:06:13.000Z</time></trkpt>
        <trkpt lat="28.468608" lon="104.964118"><ele>442.6681</ele><time>2026-06-18T18:06:16.000Z</time></trkpt>
        <trkpt lat="28.468599" lon="104.964133"><ele>442.52686</ele><time>2026-06-18T18:06:18.000Z</time></trkpt>
        <trkpt lat="28.468595" lon="104.964133"><ele>442.12796</ele><time>2026-06-18T18:06:20.000Z</time></trkpt>
        <trkpt lat="28.468569" lon="104.964143"><ele>441.90198</ele><time>2026-06-18T18:06:24.000Z</time></trkpt>
        <trkpt lat="28.468642" lon="104.964118"><ele>441.83636</ele><time>2026-06-18T18:06:44.000Z</time></trkpt>
        <trkpt lat="28.468642" lon="104.964118"><ele>441.83636</ele><time>2026-06-18T18:06:46.000Z</time></trkpt>
        <trkpt lat="28.468644" lon="104.964116"><ele>441.83636</ele><time>2026-06-18T18:06:48.000Z</time></trkpt>
        <trkpt lat="28.46856" lon="104.96419"><ele>441.83636</ele><time>2026-06-18T18:07:57.000Z</time></trkpt>
        <trkpt lat="28.468527" lon="104.964219"><ele>441.75116</ele><time>2026-06-18T18:08:00.000Z</time></trkpt>
        <trkpt lat="28.468527" lon="104.964219"><ele>441.6838</ele><time>2026-06-18T18:08:02.000Z</time></trkpt>
        <trkpt lat="28.468491" lon="104.964312"><ele>441.6844</ele><time>2026-06-18T18:08:10.000Z</time></trkpt>
        <trkpt lat="28.468437" lon="104.964446"><ele>441.73822</ele><time>2026-06-18T18:08:17.000Z</time></trkpt>
        <trkpt lat="28.468437" lon="104.964447"><ele>441.91394</ele><time>2026-06-18T18:08:19.000Z</time></trkpt>
        <trkpt lat="28.468436" lon="104.964451"><ele>442.1436</ele><time>2026-06-18T18:08:21.000Z</time></trkpt>
        <trkpt lat="28.468404" lon="104.964538"><ele>442.35303</ele><time>2026-06-18T18:08:27.000Z</time></trkpt>
        <trkpt lat="28.468392" lon="104.964571"><ele>442.59708</ele><time>2026-06-18T18:08:29.000Z</time></trkpt>
        <trkpt lat="28.468376" lon="104.964614"><ele>442.7582</ele><time>2026-06-18T18:08:31.000Z</time></trkpt>
        <trkpt lat="28.468367" lon="104.964647"><ele>442.76584</ele><time>2026-06-18T18:08:33.000Z</time></trkpt>
        <trkpt lat="28.46837" lon="104.964666"><ele>443.15524</ele><time>2026-06-18T18:08:35.000Z</time></trkpt>
        <trkpt lat="28.468377" lon="104.964691"><ele>443.59625</ele><time>2026-06-18T18:08:37.000Z</time></trkpt>
        <trkpt lat="28.468384" lon="104.96472"><ele>443.76407</ele><time>2026-06-18T18:08:39.000Z</time></trkpt>
        <trkpt lat="28.468387" lon="104.964751"><ele>444.05844</ele><time>2026-06-18T18:08:41.000Z</time></trkpt>
        <trkpt lat="28.468387" lon="104.964789"><ele>444.3757</ele><time>2026-06-18T18:08:43.000Z</time></trkpt>
        <trkpt lat="28.468385" lon="104.964828"><ele>444.64197</ele><time>2026-06-18T18:08:45.000Z</time></trkpt>
        <trkpt lat="28.468384" lon="104.964856"><ele>445.02924</ele><time>2026-06-18T18:08:47.000Z</time></trkpt>
        <trkpt lat="28.46838" lon="104.964875"><ele>445.636</ele><time>2026-06-18T18:08:49.000Z</time></trkpt>
        <trkpt lat="28.468372" lon="104.964894"><ele>446.3534</ele><time>2026-06-18T18:08:51.000Z</time></trkpt>
        <trkpt lat="28.468361" lon="104.964916"><ele>447.097</ele><time>2026-06-18T18:08:53.000Z</time></trkpt>
        <trkpt lat="28.468346" lon="104.964944"><ele>447.6231</ele><time>2026-06-18T18:08:55.000Z</time></trkpt>
        <trkpt lat="28.468334" lon="104.96497"><ele>447.95013</ele><time>2026-06-18T18:08:57.000Z</time></trkpt>
        <trkpt lat="28.468317" lon="104.964998"><ele>448.20538</ele><time>2026-06-18T18:08:59.000Z</time></trkpt>
        <trkpt lat="28.468296" lon="104.965027"><ele>448.3053</ele><time>2026-06-18T18:09:01.000Z</time></trkpt>
        <trkpt lat="28.468275" lon="104.965053"><ele>448.3682</ele><time>2026-06-18T18:09:03.000Z</time></trkpt>
        <trkpt lat="28.468259" lon="104.965075"><ele>448.53903</ele><time>2026-06-18T18:09:05.000Z</time></trkpt>
        <trkpt lat="28.468245" lon="104.965093"><ele>448.83066</ele><time>2026-06-18T18:09:07.000Z</time></trkpt>
        <trkpt lat="28.46823" lon="104.965109"><ele>449.17944</ele><time>2026-06-18T18:09:09.000Z</time></trkpt>
        <trkpt lat="28.468218" lon="104.965119"><ele>449.59576</ele><time>2026-06-18T18:09:11.000Z</time></trkpt>
        <trkpt lat="28.468202" lon="104.965129"><ele>450.02008</ele><time>2026-06-18T18:09:13.000Z</time></trkpt>
        <trkpt lat="28.468189" lon="104.965139"><ele>450.36884</ele><time>2026-06-18T18:09:15.000Z</time></trkpt>
        <trkpt lat="28.468174" lon="104.965151"><ele>450.53058</ele><time>2026-06-18T18:09:17.000Z</time></trkpt>
        <trkpt lat="28.468158" lon="104.965163"><ele>450.61563</ele><time>2026-06-18T18:09:19.000Z</time></trkpt>
        <trkpt lat="28.468141" lon="104.96518"><ele>450.69794</ele><time>2026-06-18T18:09:21.000Z</time></trkpt>
        <trkpt lat="28.468122" lon="104.965201"><ele>450.7136</ele><time>2026-06-18T18:09:23.000Z</time></trkpt>
        <trkpt lat="28.468103" lon="104.965222"><ele>450.76007</ele><time>2026-06-18T18:09:25.000Z</time></trkpt>
        <trkpt lat="28.468086" lon="104.965236"><ele>450.81372</ele><time>2026-06-18T18:09:27.000Z</time></trkpt>
        <trkpt lat="28.468065" lon="104.965248"><ele>450.81372</ele><time>2026-06-18T18:09:29.000Z</time></trkpt>
        <trkpt lat="28.468043" lon="104.965261"><ele>450.9121</ele><time>2026-06-18T18:09:31.000Z</time></trkpt>
        <trkpt lat="28.468026" lon="104.965275"><ele>451.12238</ele><time>2026-06-18T18:09:33.000Z</time></trkpt>
        <trkpt lat="28.468009" lon="104.965295"><ele>451.3028</ele><time>2026-06-18T18:09:35.000Z</time></trkpt>
        <trkpt lat="28.467994" lon="104.965317"><ele>451.3043</ele><time>2026-06-18T18:09:37.000Z</time></trkpt>
        <trkpt lat="28.467983" lon="104.965336"><ele>451.3043</ele><time>2026-06-18T18:09:39.000Z</time></trkpt>
        <trkpt lat="28.467973" lon="104.965357"><ele>451.3043</ele><time>2026-06-18T18:09:41.000Z</time></trkpt>
        <trkpt lat="28.467966" lon="104.965377"><ele>451.3043</ele><time>2026-06-18T18:09:43.000Z</time></trkpt>
        <trkpt lat="28.467961" lon="104.965396"><ele>451.3043</ele><time>2026-06-18T18:09:45.000Z</time></trkpt>
        <trkpt lat="28.467954" lon="104.965413"><ele>451.2268</ele><time>2026-06-18T18:09:47.000Z</time></trkpt>
        <trkpt lat="28.467941" lon="104.965436"><ele>451.14752</ele><time>2026-06-18T18:09:49.000Z</time></trkpt>
        <trkpt lat="28.467928" lon="104.96546"><ele>451.087</ele><time>2026-06-18T18:09:50.000Z</time></trkpt>
        <trkpt lat="28.467914" lon="104.965485"><ele>451.087</ele><time>2026-06-18T18:09:52.000Z</time></trkpt>
        <trkpt lat="28.467899" lon="104.965508"><ele>451.087</ele><time>2026-06-18T18:09:54.000Z</time></trkpt>
        <trkpt lat="28.467881" lon="104.965539"><ele>451.087</ele><time>2026-06-18T18:09:56.000Z</time></trkpt>
        <trkpt lat="28.467867" lon="104.965565"><ele>451.087</ele><time>2026-06-18T18:09:58.000Z</time></trkpt>
        <trkpt lat="28.467854" lon="104.965593"><ele>451.09235</ele><time>2026-06-18T18:10:00.000Z</time></trkpt>
        <trkpt lat="28.467845" lon="104.965619"><ele>451.20956</ele><time>2026-06-18T18:10:03.000Z</time></trkpt>
        <trkpt lat="28.46784" lon="104.965645"><ele>451.52045</ele><time>2026-06-18T18:10:05.000Z</time></trkpt>
        <trkpt lat="28.46784" lon="104.96567"><ele>451.95352</ele><time>2026-06-18T18:10:07.000Z</time></trkpt>
        <trkpt lat="28.467841" lon="104.965694"><ele>452.3487</ele><time>2026-06-18T18:10:09.000Z</time></trkpt>
        <trkpt lat="28.467842" lon="104.965712"><ele>452.6335</ele><time>2026-06-18T18:10:11.000Z</time></trkpt>
        <trkpt lat="28.467842" lon="104.965728"><ele>452.72787</ele><time>2026-06-18T18:10:13.000Z</time></trkpt>
        <trkpt lat="28.467841" lon="104.96574"><ele>452.72787</ele><time>2026-06-18T18:10:15.000Z</time></trkpt>
        <trkpt lat="28.46784" lon="104.96576"><ele>452.72787</ele><time>2026-06-18T18:10:17.000Z</time></trkpt>
        <trkpt lat="28.467838" lon="104.965784"><ele>452.72787</ele><time>2026-06-18T18:10:19.000Z</time></trkpt>
        <trkpt lat="28.467837" lon="104.965811"><ele>452.72787</ele><time>2026-06-18T18:10:21.000Z</time></trkpt>
        <trkpt lat="28.467835" lon="104.965838"><ele>452.47345</ele><time>2026-06-18T18:10:23.000Z</time></trkpt>
        <trkpt lat="28.46783" lon="104.965869"><ele>452.1381</ele><time>2026-06-18T18:10:25.000Z</time></trkpt>
        <trkpt lat="28.467824" lon="104.965899"><ele>451.91135</ele><time>2026-06-18T18:10:27.000Z</time></trkpt>
        <trkpt lat="28.467821" lon="104.965925"><ele>451.6617</ele><time>2026-06-18T18:10:29.000Z</time></trkpt>
        <trkpt lat="28.467817" lon="104.965954"><ele>451.42886</ele><time>2026-06-18T18:10:31.000Z</time></trkpt>
        <trkpt lat="28.467813" lon="104.96598"><ele>451.1141</ele><time>2026-06-18T18:10:33.000Z</time></trkpt>
        <trkpt lat="28.46781" lon="104.966002"><ele>450.69318</ele><time>2026-06-18T18:10:35.000Z</time></trkpt>
        <trkpt lat="28.467809" lon="104.966025"><ele>450.4752</ele><time>2026-06-18T18:10:37.000Z</time></trkpt>
        <trkpt lat="28.46781" lon="104.96605"><ele>450.44608</ele><time>2026-06-18T18:10:39.000Z</time></trkpt>
        <trkpt lat="28.467813" lon="104.966074"><ele>450.44608</ele><time>2026-06-18T18:10:41.000Z</time></trkpt>
        <trkpt lat="28.467815" lon="104.966098"><ele>450.44608</ele><time>2026-06-18T18:10:43.000Z</time></trkpt>
        <trkpt lat="28.467819" lon="104.966124"><ele>450.44608</ele><time>2026-06-18T18:10:45.000Z</time></trkpt>
        <trkpt lat="28.467825" lon="104.96615"><ele>450.44608</ele><time>2026-06-18T18:10:47.000Z</time></trkpt>
        <trkpt lat="28.467831" lon="104.966174"><ele>450.4851</ele><time>2026-06-18T18:10:49.000Z</time></trkpt>
        <trkpt lat="28.467837" lon="104.966198"><ele>450.52533</ele><time>2026-06-18T18:10:51.000Z</time></trkpt>
        <trkpt lat="28.46784" lon="104.966222"><ele>450.6814</ele><time>2026-06-18T18:10:53.000Z</time></trkpt>
        <trkpt lat="28.467845" lon="104.966247"><ele>450.90836</ele><time>2026-06-18T18:10:55.000Z</time></trkpt>
        <trkpt lat="28.467853" lon="104.966273"><ele>451.05612</ele><time>2026-06-18T18:10:57.000Z</time></trkpt>
        <trkpt lat="28.467864" lon="104.966298"><ele>451.10785</ele><time>2026-06-18T18:10:59.000Z</time></trkpt>
        <trkpt lat="28.467877" lon="104.966326"><ele>451.1392</ele><time>2026-06-18T18:11:01.000Z</time></trkpt>
        <trkpt lat="28.46789" lon="104.966356"><ele>451.22388</ele><time>2026-06-18T18:11:03.000Z</time></trkpt>
        <trkpt lat="28.467899" lon="104.966384"><ele>451.35373</ele><time>2026-06-18T18:11:05.000Z</time></trkpt>
        <trkpt lat="28.467906" lon="104.96641"><ele>451.5558</ele><time>2026-06-18T18:11:07.000Z</time></trkpt>
        <trkpt lat="28.467913" lon="104.966435"><ele>451.80017</ele><time>2026-06-18T18:11:09.000Z</time></trkpt>
        <trkpt lat="28.46792" lon="104.96646"><ele>452.0824</ele><time>2026-06-18T18:11:11.000Z</time></trkpt>
        <trkpt lat="28.467927" lon="104.966485"><ele>452.43372</ele><time>2026-06-18T18:11:13.000Z</time></trkpt>
        <trkpt lat="28.467934" lon="104.966512"><ele>452.79138</ele><time>2026-06-18T18:11:15.000Z</time></trkpt>
        <trkpt lat="28.467942" lon="104.966537"><ele>453.0615</ele><time>2026-06-18T18:11:17.000Z</time></trkpt>
        <trkpt lat="28.467951" lon="104.966559"><ele>453.24615</ele><time>2026-06-18T18:11:19.000Z</time></trkpt>
        <trkpt lat="28.467959" lon="104.96658"><ele>453.46527</ele><time>2026-06-18T18:11:21.000Z</time></trkpt>
        <trkpt lat="28.467968" lon="104.966603"><ele>453.75592</ele><time>2026-06-18T18:11:23.000Z</time></trkpt>
        <trkpt lat="28.467976" lon="104.966628"><ele>453.92462</ele><time>2026-06-18T18:11:25.000Z</time></trkpt>
        <trkpt lat="28.467981" lon="104.966655"><ele>454.02698</ele><time>2026-06-18T18:11:27.000Z</time></trkpt>
        <trkpt lat="28.467984" lon="104.966679"><ele>454.2609</ele><time>2026-06-18T18:11:29.000Z</time></trkpt>
        <trkpt lat="28.467987" lon="104.966707"><ele>454.56818</ele><time>2026-06-18T18:11:31.000Z</time></trkpt>
        <trkpt lat="28.46799" lon="104.966735"><ele>454.8575</ele><time>2026-06-18T18:11:33.000Z</time></trkpt>
        <trkpt lat="28.467993" lon="104.966765"><ele>455.15356</ele><time>2026-06-18T18:11:35.000Z</time></trkpt>
        <trkpt lat="28.467997" lon="104.966794"><ele>455.5087</ele><time>2026-06-18T18:11:37.000Z</time></trkpt>
        <trkpt lat="28.468001" lon="104.966821"><ele>455.81033</ele><time>2026-06-18T18:11:39.000Z</time></trkpt>
        <trkpt lat="28.468003" lon="104.966842"><ele>456.14825</ele><time>2026-06-18T18:11:41.000Z</time></trkpt>
        <trkpt lat="28.468008" lon="104.966867"><ele>456.62598</ele><time>2026-06-18T18:11:43.000Z</time></trkpt>
        <trkpt lat="28.468015" lon="104.966894"><ele>457.0301</ele><time>2026-06-18T18:11:45.000Z</time></trkpt>
        <trkpt lat="28.468023" lon="104.966923"><ele>457.34308</ele><time>2026-06-18T18:11:47.000Z</time></trkpt>
        <trkpt lat="28.468028" lon="104.966951"><ele>457.64853</ele><time>2026-06-18T18:11:49.000Z</time></trkpt>
        <trkpt lat="28.468032" lon="104.966981"><ele>457.95575</ele><time>2026-06-18T18:11:51.000Z</time></trkpt>
        <trkpt lat="28.468035" lon="104.96701"><ele>458.17575</ele><time>2026-06-18T18:11:53.000Z</time></trkpt>
        <trkpt lat="28.468038" lon="104.967037"><ele>458.22815</ele><time>2026-06-18T18:11:55.000Z</time></trkpt>
        <trkpt lat="28.468041" lon="104.967065"><ele>458.23428</ele><time>2026-06-18T18:11:57.000Z</time></trkpt>
        <trkpt lat="28.468044" lon="104.967094"><ele>458.3548</ele><time>2026-06-18T18:11:59.000Z</time></trkpt>
        <trkpt lat="28.468047" lon="104.967123"><ele>458.54022</ele><time>2026-06-18T18:12:01.000Z</time></trkpt>
        <trkpt lat="28.468049" lon="104.967154"><ele>458.75464</ele><time>2026-06-18T18:12:03.000Z</time></trkpt>
        <trkpt lat="28.46805" lon="104.967182"><ele>459.04153</ele><time>2026-06-18T18:12:05.000Z</time></trkpt>
        <trkpt lat="28.468052" lon="104.967212"><ele>459.2543</ele><time>2026-06-18T18:12:07.000Z</time></trkpt>
        <trkpt lat="28.468054" lon="104.96724"><ele>459.44556</ele><time>2026-06-18T18:12:09.000Z</time></trkpt>
        <trkpt lat="28.468056" lon="104.967267"><ele>459.73483</ele><time>2026-06-18T18:12:11.000Z</time></trkpt>
        <trkpt lat="28.468056" lon="104.967293"><ele>459.97217</ele><time>2026-06-18T18:12:13.000Z</time></trkpt>
        <trkpt lat="28.468057" lon="104.967314"><ele>460.06247</ele><time>2026-06-18T18:12:15.000Z</time></trkpt>
        <trkpt lat="28.468058" lon="104.967336"><ele>460.15585</ele><time>2026-06-18T18:12:17.000Z</time></trkpt>
        <trkpt lat="28.468061" lon="104.967359"><ele>460.26254</ele><time>2026-06-18T18:12:19.000Z</time></trkpt>
        <trkpt lat="28.468066" lon="104.967381"><ele>460.29898</ele><time>2026-06-18T18:12:21.000Z</time></trkpt>
        <trkpt lat="28.468073" lon="104.967408"><ele>460.3223</ele><time>2026-06-18T18:12:23.000Z</time></trkpt>
        <trkpt lat="28.468079" lon="104.967437"><ele>460.34778</ele><time>2026-06-18T18:12:25.000Z</time></trkpt>
        <trkpt lat="28.468082" lon="104.967464"><ele>460.35944</ele><time>2026-06-18T18:12:27.000Z</time></trkpt>
        <trkpt lat="28.468083" lon="104.967493"><ele>460.37057</ele><time>2026-06-18T18:12:29.000Z</time></trkpt>
        <trkpt lat="28.468082" lon="104.967524"><ele>460.40283</ele><time>2026-06-18T18:12:31.000Z</time></trkpt>
        <trkpt lat="28.468079" lon="104.967554"><ele>460.56546</ele><time>2026-06-18T18:12:33.000Z</time></trkpt>
        <trkpt lat="28.468077" lon="104.967584"><ele>460.91016</ele><time>2026-06-18T18:12:35.000Z</time></trkpt>
        <trkpt lat="28.468077" lon="104.967613"><ele>461.27893</ele><time>2026-06-18T18:12:37.000Z</time></trkpt>
        <trkpt lat="28.468077" lon="104.96764"><ele>461.57642</ele><time>2026-06-18T18:12:39.000Z</time></trkpt>
        <trkpt lat="28.468078" lon="104.967664"><ele>461.86368</ele><time>2026-06-18T18:12:41.000Z</time></trkpt>
        <trkpt lat="28.468079" lon="104.967689"><ele>462.09464</ele><time>2026-06-18T18:12:43.000Z</time></trkpt>
        <trkpt lat="28.46808" lon="104.967714"><ele>462.20544</ele><time>2026-06-18T18:12:45.000Z</time></trkpt>
        <trkpt lat="28.46808" lon="104.967741"><ele>462.25833</ele><time>2026-06-18T18:12:47.000Z</time></trkpt>
        <trkpt lat="28.468082" lon="104.967769"><ele>462.37646</ele><time>2026-06-18T18:12:49.000Z</time></trkpt>
        <trkpt lat="28.468084" lon="104.9678"><ele>462.5615</ele><time>2026-06-18T18:12:51.000Z</time></trkpt>
        <trkpt lat="28.468088" lon="104.967834"><ele>462.78574</ele><time>2026-06-18T18:12:53.000Z</time></trkpt>
        <trkpt lat="28.468086" lon="104.967868"><ele>463.0066</ele><time>2026-06-18T18:12:55.000Z</time></trkpt>
        <trkpt lat="28.468083" lon="104.967898"><ele>463.21216</ele><time>2026-06-18T18:12:57.000Z</time></trkpt>
        <trkpt lat="28.468077" lon="104.967923"><ele>463.50183</ele><time>2026-06-18T18:12:59.000Z</time></trkpt>
        <trkpt lat="28.468071" lon="104.967947"><ele>463.8662</ele><time>2026-06-18T18:13:01.000Z</time></trkpt>
        <trkpt lat="28.468064" lon="104.96797"><ele>464.02676</ele><time>2026-06-18T18:13:03.000Z</time></trkpt>
        <trkpt lat="28.468059" lon="104.967992"><ele>464.02676</ele><time>2026-06-18T18:13:05.000Z</time></trkpt>
        <trkpt lat="28.468056" lon="104.968011"><ele>464.02676</ele><time>2026-06-18T18:13:07.000Z</time></trkpt>
        <trkpt lat="28.468058" lon="104.968031"><ele>464.02676</ele><time>2026-06-18T18:13:09.000Z</time></trkpt>
        <trkpt lat="28.468063" lon="104.968054"><ele>464.02676</ele><time>2026-06-18T18:13:11.000Z</time></trkpt>
        <trkpt lat="28.468071" lon="104.968081"><ele>463.96268</ele><time>2026-06-18T18:13:13.000Z</time></trkpt>
        <trkpt lat="28.468079" lon="104.968108"><ele>463.92435</ele><time>2026-06-18T18:13:15.000Z</time></trkpt>
        <trkpt lat="28.468087" lon="104.968136"><ele>463.92435</ele><time>2026-06-18T18:13:17.000Z</time></trkpt>
        <trkpt lat="28.468093" lon="104.968163"><ele>463.92435</ele><time>2026-06-18T18:13:19.000Z</time></trkpt>
        <trkpt lat="28.468099" lon="104.96819"><ele>463.92435</ele><time>2026-06-18T18:13:21.000Z</time></trkpt>
        <trkpt lat="28.468104" lon="104.968218"><ele>463.92435</ele><time>2026-06-18T18:13:23.000Z</time></trkpt>
        <trkpt lat="28.468106" lon="104.968244"><ele>463.96762</ele><time>2026-06-18T18:13:25.000Z</time></trkpt>
        <trkpt lat="28.468109" lon="104.96827"><ele>464.12656</ele><time>2026-06-18T18:13:27.000Z</time></trkpt>
        <trkpt lat="28.468111" lon="104.968295"><ele>464.46283</ele><time>2026-06-18T18:13:29.000Z</time></trkpt>
        <trkpt lat="28.468112" lon="104.968321"><ele>464.86273</ele><time>2026-06-18T18:13:31.000Z</time></trkpt>
        <trkpt lat="28.468112" lon="104.968346"><ele>465.26636</ele><time>2026-06-18T18:13:33.000Z</time></trkpt>
        <trkpt lat="28.468112" lon="104.968372"><ele>465.67404</ele><time>2026-06-18T18:13:35.000Z</time></trkpt>
        <trkpt lat="28.468111" lon="104.968398"><ele>466.09042</ele><time>2026-06-18T18:13:37.000Z</time></trkpt>
        <trkpt lat="28.468109" lon="104.968424"><ele>466.4836</ele><time>2026-06-18T18:13:39.000Z</time></trkpt>
        <trkpt lat="28.468107" lon="104.968452"><ele>466.72742</ele><time>2026-06-18T18:13:41.000Z</time></trkpt>
        <trkpt lat="28.468107" lon="104.968478"><ele>466.73132</ele><time>2026-06-18T18:13:43.000Z</time></trkpt>
        <trkpt lat="28.468107" lon="104.968501"><ele>466.73132</ele><time>2026-06-18T18:13:45.000Z</time></trkpt>
        <trkpt lat="28.468111" lon="104.968522"><ele>466.73132</ele><time>2026-06-18T18:13:47.000Z</time></trkpt>
        <trkpt lat="28.468119" lon="104.96854"><ele>466.73132</ele><time>2026-06-18T18:13:49.000Z</time></trkpt>
        <trkpt lat="28.468131" lon="104.968559"><ele>466.73132</ele><time>2026-06-18T18:13:51.000Z</time></trkpt>
        <trkpt lat="28.468143" lon="104.968578"><ele>466.65915</ele><time>2026-06-18T18:13:53.000Z</time></trkpt>
        <trkpt lat="28.468154" lon="104.968603"><ele>466.65915</ele><time>2026-06-18T18:13:55.000Z</time></trkpt>
        <trkpt lat="28.468161" lon="104.968627"><ele>466.65915</ele><time>2026-06-18T18:13:57.000Z</time></trkpt>
        <trkpt lat="28.468163" lon="104.96865"><ele>466.65915</ele><time>2026-06-18T18:13:59.000Z</time></trkpt>
        <trkpt lat="28.468163" lon="104.968673"><ele>466.65915</ele><time>2026-06-18T18:14:01.000Z</time></trkpt>
        <trkpt lat="28.468161" lon="104.968698"><ele>466.8135</ele><time>2026-06-18T18:14:03.000Z</time></trkpt>
        <trkpt lat="28.46816" lon="104.968724"><ele>467.0791</ele><time>2026-06-18T18:14:05.000Z</time></trkpt>
        <trkpt lat="28.468159" lon="104.968752"><ele>467.37534</ele><time>2026-06-18T18:14:07.000Z</time></trkpt>
        <trkpt lat="28.468157" lon="104.96878"><ele>467.82547</ele><time>2026-06-18T18:14:09.000Z</time></trkpt>
        <trkpt lat="28.468155" lon="104.968807"><ele>468.35532</ele><time>2026-06-18T18:14:11.000Z</time></trkpt>
        <trkpt lat="28.468152" lon="104.96883"><ele>468.77557</ele><time>2026-06-18T18:14:13.000Z</time></trkpt>
        <trkpt lat="28.468149" lon="104.968855"><ele>469.10443</ele><time>2026-06-18T18:14:15.000Z</time></trkpt>
        <trkpt lat="28.468146" lon="104.96888"><ele>469.412</ele><time>2026-06-18T18:14:17.000Z</time></trkpt>
        <trkpt lat="28.468144" lon="104.968908"><ele>469.727</ele><time>2026-06-18T18:14:19.000Z</time></trkpt>
        <trkpt lat="28.468143" lon="104.968936"><ele>469.994</ele><time>2026-06-18T18:14:21.000Z</time></trkpt>
        <trkpt lat="28.468143" lon="104.968966"><ele>470.24304</ele><time>2026-06-18T18:14:23.000Z</time></trkpt>
        <trkpt lat="28.468143" lon="104.968997"><ele>470.5815</ele><time>2026-06-18T18:14:25.000Z</time></trkpt>
        <trkpt lat="28.468143" lon="104.969026"><ele>470.8292</ele><time>2026-06-18T18:14:27.000Z</time></trkpt>
        <trkpt lat="28.468144" lon="104.969054"><ele>471.00455</ele><time>2026-06-18T18:14:29.000Z</time></trkpt>
        <trkpt lat="28.468144" lon="104.969083"><ele>471.18167</ele><time>2026-06-18T18:14:31.000Z</time></trkpt>
        <trkpt lat="28.468142" lon="104.969117"><ele>471.3069</ele><time>2026-06-18T18:14:33.000Z</time></trkpt>
        <trkpt lat="28.468137" lon="104.969146"><ele>471.3954</ele><time>2026-06-18T18:14:35.000Z</time></trkpt>
        <trkpt lat="28.468132" lon="104.969177"><ele>471.4979</ele><time>2026-06-18T18:14:37.000Z</time></trkpt>
        <trkpt lat="28.468126" lon="104.969206"><ele>471.7005</ele><time>2026-06-18T18:14:39.000Z</time></trkpt>
        <trkpt lat="28.468122" lon="104.969234"><ele>471.8293</ele><time>2026-06-18T18:14:41.000Z</time></trkpt>
        <trkpt lat="28.468121" lon="104.969261"><ele>471.88516</ele><time>2026-06-18T18:14:43.000Z</time></trkpt>
        <trkpt lat="28.468124" lon="104.969289"><ele>471.99554</ele><time>2026-06-18T18:14:45.000Z</time></trkpt>
        <trkpt lat="28.468127" lon="104.969317"><ele>472.06903</ele><time>2026-06-18T18:14:47.000Z</time></trkpt>
        <trkpt lat="28.46813" lon="104.969349"><ele>472.1569</ele><time>2026-06-18T18:14:49.000Z</time></trkpt>
        <trkpt lat="28.46813" lon="104.969381"><ele>472.32895</ele><time>2026-06-18T18:14:51.000Z</time></trkpt>
        <trkpt lat="28.468128" lon="104.969408"><ele>472.51257</ele><time>2026-06-18T18:14:53.000Z</time></trkpt>
        <trkpt lat="28.468126" lon="104.969435"><ele>472.74005</ele><time>2026-06-18T18:14:55.000Z</time></trkpt>
        <trkpt lat="28.468125" lon="104.969461"><ele>473.034</ele><time>2026-06-18T18:14:57.000Z</time></trkpt>
        <trkpt lat="28.468124" lon="104.969487"><ele>473.3722</ele><time>2026-06-18T18:14:59.000Z</time></trkpt>
        <trkpt lat="28.468124" lon="104.969515"><ele>473.7621</ele><time>2026-06-18T18:15:01.000Z</time></trkpt>
        <trkpt lat="28.468124" lon="104.969544"><ele>474.11188</ele><time>2026-06-18T18:15:03.000Z</time></trkpt>
        <trkpt lat="28.468125" lon="104.969572"><ele>474.31204</ele><time>2026-06-18T18:15:05.000Z</time></trkpt>
        <trkpt lat="28.468126" lon="104.969601"><ele>474.37027</ele><time>2026-06-18T18:15:07.000Z</time></trkpt>
        <trkpt lat="28.468127" lon="104.969632"><ele>474.45224</ele><time>2026-06-18T18:15:09.000Z</time></trkpt>
        <trkpt lat="28.468129" lon="104.969657"><ele>474.5699</ele><time>2026-06-18T18:15:11.000Z</time></trkpt>
        <trkpt lat="28.468131" lon="104.969681"><ele>474.68518</ele><time>2026-06-18T18:15:13.000Z</time></trkpt>
        <trkpt lat="28.468131" lon="104.969713"><ele>474.82047</ele><time>2026-06-18T18:15:15.000Z</time></trkpt>
        <trkpt lat="28.46813" lon="104.969747"><ele>475.05206</ele><time>2026-06-18T18:15:17.000Z</time></trkpt>
        <trkpt lat="28.468129" lon="104.969777"><ele>475.4301</ele><time>2026-06-18T18:15:19.000Z</time></trkpt>
        <trkpt lat="28.468128" lon="104.969811"><ele>475.83524</ele><time>2026-06-18T18:15:21.000Z</time></trkpt>
        <trkpt lat="28.468128" lon="104.969845"><ele>476.1439</ele><time>2026-06-18T18:15:23.000Z</time></trkpt>
        <trkpt lat="28.468129" lon="104.969881"><ele>476.31143</ele><time>2026-06-18T18:15:25.000Z</time></trkpt>
        <trkpt lat="28.468131" lon="104.969917"><ele>476.4673</ele><time>2026-06-18T18:15:27.000Z</time></trkpt>
        <trkpt lat="28.468131" lon="104.969952"><ele>476.69263</ele><time>2026-06-18T18:15:29.000Z</time></trkpt>
        <trkpt lat="28.468127" lon="104.969984"><ele>476.85425</ele><time>2026-06-18T18:15:31.000Z</time></trkpt>
        <trkpt lat="28.468123" lon="104.970017"><ele>476.95706</ele><time>2026-06-18T18:15:33.000Z</time></trkpt>
        <trkpt lat="28.468121" lon="104.970048"><ele>477.05536</ele><time>2026-06-18T18:15:35.000Z</time></trkpt>
        <trkpt lat="28.468122" lon="104.970073"><ele>477.05536</ele><time>2026-06-18T18:15:37.000Z</time></trkpt>
        <trkpt lat="28.468123" lon="104.970102"><ele>477.0919</ele><time>2026-06-18T18:15:39.000Z</time></trkpt>
        <trkpt lat="28.468124" lon="104.970128"><ele>477.13562</ele><time>2026-06-18T18:15:41.000Z</time></trkpt>
        <trkpt lat="28.468124" lon="104.970156"><ele>477.19406</ele><time>2026-06-18T18:15:43.000Z</time></trkpt>
        <trkpt lat="28.468123" lon="104.970184"><ele>477.23914</ele><time>2026-06-18T18:15:45.000Z</time></trkpt>
        <trkpt lat="28.468119" lon="104.970216"><ele>477.29364</ele><time>2026-06-18T18:15:47.000Z</time></trkpt>
        <trkpt lat="28.468114" lon="104.970251"><ele>477.34952</ele><time>2026-06-18T18:15:49.000Z</time></trkpt>
        <trkpt lat="28.468111" lon="104.970286"><ele>477.4066</ele><time>2026-06-18T18:15:51.000Z</time></trkpt>
        <trkpt lat="28.46811" lon="104.970316"><ele>477.65128</ele><time>2026-06-18T18:15:53.000Z</time></trkpt>
        <trkpt lat="28.468107" lon="104.970341"><ele>477.8172</ele><time>2026-06-18T18:15:55.000Z</time></trkpt>
        <trkpt lat="28.468103" lon="104.970367"><ele>477.8172</ele><time>2026-06-18T18:15:57.000Z</time></trkpt>
        <trkpt lat="28.468098" lon="104.970397"><ele>477.83347</ele><time>2026-06-18T18:15:59.000Z</time></trkpt>
        <trkpt lat="28.468094" lon="104.970425"><ele>477.9198</ele><time>2026-06-18T18:16:01.000Z</time></trkpt>
        <trkpt lat="28.468094" lon="104.970458"><ele>478.08005</ele><time>2026-06-18T18:16:03.000Z</time></trkpt>
        <trkpt lat="28.468098" lon="104.970492"><ele>478.25146</ele><time>2026-06-18T18:16:05.000Z</time></trkpt>
        <trkpt lat="28.468107" lon="104.97053"><ele>478.38403</ele><time>2026-06-18T18:16:07.000Z</time></trkpt>
        <trkpt lat="28.468116" lon="104.970564"><ele>478.43317</ele><time>2026-06-18T18:16:09.000Z</time></trkpt>
        <trkpt lat="28.468126" lon="104.970596"><ele>478.4465</ele><time>2026-06-18T18:16:11.000Z</time></trkpt>
        <trkpt lat="28.468133" lon="104.970622"><ele>478.54718</ele><time>2026-06-18T18:16:13.000Z</time></trkpt>
        <trkpt lat="28.46814" lon="104.970651"><ele>478.74045</ele><time>2026-06-18T18:16:15.000Z</time></trkpt>
        <trkpt lat="28.468142" lon="104.970679"><ele>478.84363</ele><time>2026-06-18T18:16:17.000Z</time></trkpt>
        <trkpt lat="28.46814" lon="104.970708"><ele>478.87354</ele><time>2026-06-18T18:16:19.000Z</time></trkpt>
        <trkpt lat="28.468136" lon="104.970746"><ele>478.91327</ele><time>2026-06-18T18:16:21.000Z</time></trkpt>
        <trkpt lat="28.468134" lon="104.970779"><ele>479.28665</ele><time>2026-06-18T18:16:23.000Z</time></trkpt>
        <trkpt lat="28.468132" lon="104.970805"><ele>479.9435</ele><time>2026-06-18T18:16:25.000Z</time></trkpt>
        <trkpt lat="28.468131" lon="104.970826"><ele>480.402</ele><time>2026-06-18T18:16:27.000Z</time></trkpt>
        <trkpt lat="28.468131" lon="104.970856"><ele>480.594</ele><time>2026-06-18T18:16:29.000Z</time></trkpt>
        <trkpt lat="28.468131" lon="104.970884"><ele>480.71054</ele><time>2026-06-18T18:16:31.000Z</time></trkpt>
        <trkpt lat="28.468131" lon="104.970909"><ele>480.94186</ele><time>2026-06-18T18:16:33.000Z</time></trkpt>
        <trkpt lat="28.468134" lon="104.970934"><ele>481.18808</ele><time>2026-06-18T18:16:35.000Z</time></trkpt>
        <trkpt lat="28.468141" lon="104.970955"><ele>481.3156</ele><time>2026-06-18T18:16:37.000Z</time></trkpt>
        <trkpt lat="28.468147" lon="104.97097"><ele>481.3156</ele><time>2026-06-18T18:16:39.000Z</time></trkpt>
        <trkpt lat="28.468156" lon="104.97099"><ele>481.3787</ele><time>2026-06-18T18:16:41.000Z</time></trkpt>
        <trkpt lat="28.468165" lon="104.971017"><ele>481.4323</ele><time>2026-06-18T18:16:43.000Z</time></trkpt>
        <trkpt lat="28.468173" lon="104.971047"><ele>481.47293</ele><time>2026-06-18T18:16:45.000Z</time></trkpt>
        <trkpt lat="28.46818" lon="104.971075"><ele>481.57822</ele><time>2026-06-18T18:16:47.000Z</time></trkpt>
        <trkpt lat="28.46819" lon="104.971103"><ele>481.70395</ele><time>2026-06-18T18:16:49.000Z</time></trkpt>
        <trkpt lat="28.468198" lon="104.971132"><ele>481.7531</ele><time>2026-06-18T18:16:51.000Z</time></trkpt>
        <trkpt lat="28.468203" lon="104.971161"><ele>482.15732</ele><time>2026-06-18T18:16:53.000Z</time></trkpt>
        <trkpt lat="28.468206" lon="104.97119"><ele>482.68503</ele><time>2026-06-18T18:16:55.000Z</time></trkpt>
        <trkpt lat="28.468209" lon="104.971219"><ele>483.15018</ele><time>2026-06-18T18:16:57.000Z</time></trkpt>
        <trkpt lat="28.468209" lon="104.971246"><ele>483.641</ele><time>2026-06-18T18:16:59.000Z</time></trkpt>
        <trkpt lat="28.468206" lon="104.971273"><ele>484.04974</ele><time>2026-06-18T18:17:01.000Z</time></trkpt>
        <trkpt lat="28.468201" lon="104.971296"><ele>484.7427</ele><time>2026-06-18T18:17:03.000Z</time></trkpt>
        <trkpt lat="28.468198" lon="104.971324"><ele>485.4746</ele><time>2026-06-18T18:17:05.000Z</time></trkpt>
        <trkpt lat="28.468197" lon="104.971354"><ele>486.1112</ele><time>2026-06-18T18:17:07.000Z</time></trkpt>
        <trkpt lat="28.468194" lon="104.971384"><ele>486.4853</ele><time>2026-06-18T18:17:09.000Z</time></trkpt>
        <trkpt lat="28.468191" lon="104.971416"><ele>486.68692</ele><time>2026-06-18T18:17:11.000Z</time></trkpt>
        <trkpt lat="28.46819" lon="104.971448"><ele>486.86697</ele><time>2026-06-18T18:17:13.000Z</time></trkpt>
        <trkpt lat="28.468192" lon="104.971477"><ele>487.1058</ele><time>2026-06-18T18:17:15.000Z</time></trkpt>
        <trkpt lat="28.468194" lon="104.97151"><ele>487.34653</ele><time>2026-06-18T18:17:17.000Z</time></trkpt>
        <trkpt lat="28.468197" lon="104.971543"><ele>487.36816</ele><time>2026-06-18T18:17:19.000Z</time></trkpt>
        <trkpt lat="28.468204" lon="104.971571"><ele>487.57373</ele><time>2026-06-18T18:17:21.000Z</time></trkpt>
        <trkpt lat="28.468213" lon="104.971595"><ele>487.8122</ele><time>2026-06-18T18:17:23.000Z</time></trkpt>
        <trkpt lat="28.468223" lon="104.971619"><ele>487.86356</ele><time>2026-06-18T18:17:25.000Z</time></trkpt>
        <trkpt lat="28.46823" lon="104.971641"><ele>487.86356</ele><time>2026-06-18T18:17:27.000Z</time></trkpt>
        <trkpt lat="28.468238" lon="104.971668"><ele>487.88007</ele><time>2026-06-18T18:17:29.000Z</time></trkpt>
        <trkpt lat="28.468245" lon="104.971696"><ele>487.88007</ele><time>2026-06-18T18:17:31.000Z</time></trkpt>
        <trkpt lat="28.468255" lon="104.971726"><ele>487.91754</ele><time>2026-06-18T18:17:33.000Z</time></trkpt>
        <trkpt lat="28.468264" lon="104.971752"><ele>487.94284</ele><time>2026-06-18T18:17:35.000Z</time></trkpt>
        <trkpt lat="28.468272" lon="104.971774"><ele>487.94284</ele><time>2026-06-18T18:17:37.000Z</time></trkpt>
        <trkpt lat="28.468281" lon="104.971795"><ele>487.90015</ele><time>2026-06-18T18:17:39.000Z</time></trkpt>
        <trkpt lat="28.468284" lon="104.971803"><ele>487.89688</ele><time>2026-06-18T18:17:41.000Z</time></trkpt>
        <trkpt lat="28.468298" lon="104.971823"><ele>487.7788</ele><time>2026-06-18T18:17:45.000Z</time></trkpt>
        <trkpt lat="28.468309" lon="104.971835"><ele>487.65585</ele><time>2026-06-18T18:17:47.000Z</time></trkpt>
        <trkpt lat="28.468326" lon="104.971846"><ele>487.50708</ele><time>2026-06-18T18:17:49.000Z</time></trkpt>
        <trkpt lat="28.468347" lon="104.971858"><ele>487.18765</ele><time>2026-06-18T18:17:51.000Z</time></trkpt>
        <trkpt lat="28.468368" lon="104.971877"><ele>486.90494</ele><time>2026-06-18T18:17:53.000Z</time></trkpt>
        <trkpt lat="28.468385" lon="104.971897"><ele>486.70465</ele><time>2026-06-18T18:17:55.000Z</time></trkpt>
        <trkpt lat="28.468403" lon="104.971919"><ele>486.5637</ele><time>2026-06-18T18:17:57.000Z</time></trkpt>
        <trkpt lat="28.46842" lon="104.971939"><ele>486.5637</ele><time>2026-06-18T18:17:59.000Z</time></trkpt>
        <trkpt lat="28.468435" lon="104.971961"><ele>486.5637</ele><time>2026-06-18T18:18:01.000Z</time></trkpt>
        <trkpt lat="28.46845" lon="104.971989"><ele>486.5637</ele><time>2026-06-18T18:18:03.000Z</time></trkpt>
        <trkpt lat="28.468475" lon="104.972017"><ele>486.5637</ele><time>2026-06-18T18:18:05.000Z</time></trkpt>
        <trkpt lat="28.468493" lon="104.972032"><ele>486.61795</ele><time>2026-06-18T18:18:07.000Z</time></trkpt>
        <trkpt lat="28.468511" lon="104.972043"><ele>486.73013</ele><time>2026-06-18T18:18:09.000Z</time></trkpt>
        <trkpt lat="28.46853" lon="104.972055"><ele>486.945</ele><time>2026-06-18T18:18:11.000Z</time></trkpt>
        <trkpt lat="28.468553" lon="104.972068"><ele>487.21115</ele><time>2026-06-18T18:18:13.000Z</time></trkpt>
        <trkpt lat="28.46858" lon="104.972081"><ele>487.78366</ele><time>2026-06-18T18:18:15.000Z</time></trkpt>
        <trkpt lat="28.468608" lon="104.972094"><ele>488.39743</ele><time>2026-06-18T18:18:17.000Z</time></trkpt>
        <trkpt lat="28.468632" lon="104.972108"><ele>488.73352</ele><time>2026-06-18T18:18:19.000Z</time></trkpt>
        <trkpt lat="28.46865" lon="104.972123"><ele>488.97906</ele><time>2026-06-18T18:18:21.000Z</time></trkpt>
        <trkpt lat="28.468671" lon="104.972139"><ele>489.33752</ele><time>2026-06-18T18:18:23.000Z</time></trkpt>
        <trkpt lat="28.468693" lon="104.972155"><ele>489.76965</ele><time>2026-06-18T18:18:25.000Z</time></trkpt>
        <trkpt lat="28.468712" lon="104.972167"><ele>489.9301</ele><time>2026-06-18T18:18:27.000Z</time></trkpt>
        <trkpt lat="28.468732" lon="104.972182"><ele>490.05264</ele><time>2026-06-18T18:18:29.000Z</time></trkpt>
        <trkpt lat="28.468756" lon="104.972197"><ele>490.1882</ele><time>2026-06-18T18:18:31.000Z</time></trkpt>
        <trkpt lat="28.46878" lon="104.97221"><ele>490.4285</ele><time>2026-06-18T18:18:33.000Z</time></trkpt>
        <trkpt lat="28.468806" lon="104.972227"><ele>490.73764</ele><time>2026-06-18T18:18:35.000Z</time></trkpt>
        <trkpt lat="28.468835" lon="104.972244"><ele>490.89337</ele><time>2026-06-18T18:18:37.000Z</time></trkpt>
        <trkpt lat="28.468859" lon="104.972261"><ele>490.96423</ele><time>2026-06-18T18:18:39.000Z</time></trkpt>
        <trkpt lat="28.468887" lon="104.972281"><ele>491.2419</ele><time>2026-06-18T18:18:41.000Z</time></trkpt>
        <trkpt lat="28.468913" lon="104.972297"><ele>491.85156</ele><time>2026-06-18T18:18:43.000Z</time></trkpt>
        <trkpt lat="28.468937" lon="104.972311"><ele>492.4004</ele><time>2026-06-18T18:18:45.000Z</time></trkpt>
        <trkpt lat="28.468962" lon="104.972329"><ele>492.71005</ele><time>2026-06-18T18:18:47.000Z</time></trkpt>
        <trkpt lat="28.468986" lon="104.972347"><ele>493.3763</ele><time>2026-06-18T18:18:49.000Z</time></trkpt>
        <trkpt lat="28.469008" lon="104.972362"><ele>494.2735</ele><time>2026-06-18T18:18:51.000Z</time></trkpt>
        <trkpt lat="28.469027" lon="104.972373"><ele>494.82526</ele><time>2026-06-18T18:18:53.000Z</time></trkpt>
        <trkpt lat="28.469045" lon="104.972384"><ele>495.10364</ele><time>2026-06-18T18:18:55.000Z</time></trkpt>
        <trkpt lat="28.469068" lon="104.972397"><ele>495.21667</ele><time>2026-06-18T18:18:57.000Z</time></trkpt>
        <trkpt lat="28.46909" lon="104.972411"><ele>495.3664</ele><time>2026-06-18T18:18:59.000Z</time></trkpt>
        <trkpt lat="28.469112" lon="104.972423"><ele>495.58752</ele><time>2026-06-18T18:19:01.000Z</time></trkpt>
        <trkpt lat="28.469139" lon="104.972438"><ele>495.73956</ele><time>2026-06-18T18:19:03.000Z</time></trkpt>
        <trkpt lat="28.46916" lon="104.972448"><ele>495.8504</ele><time>2026-06-18T18:19:05.000Z</time></trkpt>
        <trkpt lat="28.469179" lon="104.972456"><ele>495.9654</ele><time>2026-06-18T18:19:07.000Z</time></trkpt>
        <trkpt lat="28.469202" lon="104.972465"><ele>496.2876</ele><time>2026-06-18T18:19:09.000Z</time></trkpt>
        <trkpt lat="28.469221" lon="104.972472"><ele>496.61407</ele><time>2026-06-18T18:19:11.000Z</time></trkpt>
        <trkpt lat="28.469237" lon="104.97248"><ele>496.66754</ele><time>2026-06-18T18:19:13.000Z</time></trkpt>
        <trkpt lat="28.469256" lon="104.972487"><ele>496.70233</ele><time>2026-06-18T18:19:15.000Z</time></trkpt>
        <trkpt lat="28.469276" lon="104.97249"><ele>496.82666</ele><time>2026-06-18T18:19:17.000Z</time></trkpt>
        <trkpt lat="28.469302" lon="104.972493"><ele>497.06363</ele><time>2026-06-18T18:19:19.000Z</time></trkpt>
        <trkpt lat="28.469324" lon="104.972494"><ele>497.237</ele><time>2026-06-18T18:19:21.000Z</time></trkpt>
        <trkpt lat="28.469345" lon="104.972498"><ele>497.30338</ele><time>2026-06-18T18:19:23.000Z</time></trkpt>
        <trkpt lat="28.469366" lon="104.972503"><ele>497.35934</ele><time>2026-06-18T18:19:25.000Z</time></trkpt>
        <trkpt lat="28.469386" lon="104.972514"><ele>497.42828</ele><time>2026-06-18T18:19:27.000Z</time></trkpt>
        <trkpt lat="28.469406" lon="104.972528"><ele>497.62207</ele><time>2026-06-18T18:19:29.000Z</time></trkpt>
        <trkpt lat="28.469423" lon="104.972547"><ele>497.9014</ele><time>2026-06-18T18:19:31.000Z</time></trkpt>
        <trkpt lat="28.46944" lon="104.972572"><ele>498.0782</ele><time>2026-06-18T18:19:33.000Z</time></trkpt>
        <trkpt lat="28.469456" lon="104.972602"><ele>498.35812</ele><time>2026-06-18T18:19:35.000Z</time></trkpt>
        <trkpt lat="28.469474" lon="104.972633"><ele>498.68503</ele><time>2026-06-18T18:19:37.000Z</time></trkpt>
        <trkpt lat="28.469489" lon="104.972663"><ele>498.97012</ele><time>2026-06-18T18:19:39.000Z</time></trkpt>
        <trkpt lat="28.469502" lon="104.97269"><ele>499.36386</ele><time>2026-06-18T18:19:41.000Z</time></trkpt>
        <trkpt lat="28.469514" lon="104.972718"><ele>499.59796</ele><time>2026-06-18T18:19:43.000Z</time></trkpt>
        <trkpt lat="28.469526" lon="104.972746"><ele>499.99503</ele><time>2026-06-18T18:19:45.000Z</time></trkpt>
        <trkpt lat="28.469538" lon="104.972765"><ele>500.6521</ele><time>2026-06-18T18:19:47.000Z</time></trkpt>
        <trkpt lat="28.469551" lon="104.972786"><ele>501.04233</ele><time>2026-06-18T18:19:49.000Z</time></trkpt>
        <trkpt lat="28.469561" lon="104.972807"><ele>501.30667</ele><time>2026-06-18T18:19:51.000Z</time></trkpt>
        <trkpt lat="28.46957" lon="104.972831"><ele>501.65305</ele><time>2026-06-18T18:19:53.000Z</time></trkpt>
        <trkpt lat="28.469578" lon="104.972853"><ele>501.86627</ele><time>2026-06-18T18:19:55.000Z</time></trkpt>
        <trkpt lat="28.469586" lon="104.972866"><ele>501.89487</ele><time>2026-06-18T18:19:57.000Z</time></trkpt>
        <trkpt lat="28.469596" lon="104.972883"><ele>502.05746</ele><time>2026-06-18T18:19:59.000Z</time></trkpt>
        <trkpt lat="28.469597" lon="104.972897"><ele>502.05746</ele><time>2026-06-18T18:20:01.000Z</time></trkpt>
        <trkpt lat="28.469594" lon="104.972905"><ele>502.05746</ele><time>2026-06-18T18:20:03.000Z</time></trkpt>
        <trkpt lat="28.469587" lon="104.972925"><ele>502.04803</ele><time>2026-06-18T18:20:05.000Z</time></trkpt>
        <trkpt lat="28.469588" lon="104.972941"><ele>502.02887</ele><time>2026-06-18T18:20:07.000Z</time></trkpt>
        <trkpt lat="28.469595" lon="104.972957"><ele>501.8149</ele><time>2026-06-18T18:20:09.000Z</time></trkpt>
        <trkpt lat="28.469608" lon="104.972978"><ele>501.75668</ele><time>2026-06-18T18:20:11.000Z</time></trkpt>
        <trkpt lat="28.469624" lon="104.972999"><ele>501.72784</ele><time>2026-06-18T18:20:13.000Z</time></trkpt>
        <trkpt lat="28.469641" lon="104.973022"><ele>501.50748</ele><time>2026-06-18T18:20:15.000Z</time></trkpt>
        <trkpt lat="28.469658" lon="104.973046"><ele>501.22787</ele><time>2026-06-18T18:20:17.000Z</time></trkpt>
        <trkpt lat="28.469673" lon="104.973069"><ele>501.0908</ele><time>2026-06-18T18:20:19.000Z</time></trkpt>
        <trkpt lat="28.469686" lon="104.973093"><ele>500.89883</ele><time>2026-06-18T18:20:21.000Z</time></trkpt>
        <trkpt lat="28.469702" lon="104.973117"><ele>500.73438</ele><time>2026-06-18T18:20:23.000Z</time></trkpt>
        <trkpt lat="28.469717" lon="104.973141"><ele>500.59644</ele><time>2026-06-18T18:20:25.000Z</time></trkpt>
        <trkpt lat="28.469734" lon="104.973166"><ele>500.49124</ele><time>2026-06-18T18:20:27.000Z</time></trkpt>
        <trkpt lat="28.46975" lon="104.973189"><ele>500.47968</ele><time>2026-06-18T18:20:29.000Z</time></trkpt>
        <trkpt lat="28.469765" lon="104.973209"><ele>500.47968</ele><time>2026-06-18T18:20:31.000Z</time></trkpt>
        <trkpt lat="28.46978" lon="104.97323"><ele>500.47968</ele><time>2026-06-18T18:20:33.000Z</time></trkpt>
        <trkpt lat="28.469796" lon="104.973247"><ele>500.49448</ele><time>2026-06-18T18:20:35.000Z</time></trkpt>
        <trkpt lat="28.469814" lon="104.973263"><ele>500.49448</ele><time>2026-06-18T18:20:37.000Z</time></trkpt>
        <trkpt lat="28.469835" lon="104.973282"><ele>500.63763</ele><time>2026-06-18T18:20:39.000Z</time></trkpt>
        <trkpt lat="28.469856" lon="104.973297"><ele>501.05374</ele><time>2026-06-18T18:20:41.000Z</time></trkpt>
        <trkpt lat="28.469879" lon="104.97331"><ele>501.38123</ele><time>2026-06-18T18:20:43.000Z</time></trkpt>
        <trkpt lat="28.469903" lon="104.973321"><ele>501.56146</ele><time>2026-06-18T18:20:45.000Z</time></trkpt>
        <trkpt lat="28.469929" lon="104.973329"><ele>501.95908</ele><time>2026-06-18T18:20:47.000Z</time></trkpt>
        <trkpt lat="28.469951" lon="104.973342"><ele>502.38046</ele><time>2026-06-18T18:20:49.000Z</time></trkpt>
        <trkpt lat="28.469965" lon="104.973354"><ele>502.6421</ele><time>2026-06-18T18:20:51.000Z</time></trkpt>
        <trkpt lat="28.469977" lon="104.973364"><ele>502.92514</ele><time>2026-06-18T18:20:53.000Z</time></trkpt>
        <trkpt lat="28.469995" lon="104.973381"><ele>503.28143</ele><time>2026-06-18T18:20:55.000Z</time></trkpt>
        <trkpt lat="28.470016" lon="104.9734"><ele>503.68112</ele><time>2026-06-18T18:20:57.000Z</time></trkpt>
        <trkpt lat="28.470031" lon="104.973421"><ele>504.04404</ele><time>2026-06-18T18:20:59.000Z</time></trkpt>
        <trkpt lat="28.470042" lon="104.973443"><ele>504.37402</ele><time>2026-06-18T18:21:01.000Z</time></trkpt>
        <trkpt lat="28.470053" lon="104.973472"><ele>504.65137</ele><time>2026-06-18T18:21:03.000Z</time></trkpt>
        <trkpt lat="28.470061" lon="104.973499"><ele>504.91684</ele><time>2026-06-18T18:21:05.000Z</time></trkpt>
        <trkpt lat="28.470067" lon="104.973526"><ele>505.19684</ele><time>2026-06-18T18:21:07.000Z</time></trkpt>
        <trkpt lat="28.470071" lon="104.973551"><ele>505.42908</ele><time>2026-06-18T18:21:09.000Z</time></trkpt>
        <trkpt lat="28.470076" lon="104.973574"><ele>505.54752</ele><time>2026-06-18T18:21:11.000Z</time></trkpt>
        <trkpt lat="28.470086" lon="104.973596"><ele>505.5754</ele><time>2026-06-18T18:21:13.000Z</time></trkpt>
        <trkpt lat="28.470099" lon="104.973615"><ele>505.5754</ele><time>2026-06-18T18:21:15.000Z</time></trkpt>
        <trkpt lat="28.470115" lon="104.973634"><ele>505.5754</ele><time>2026-06-18T18:21:17.000Z</time></trkpt>
        <trkpt lat="28.470129" lon="104.973651"><ele>505.5754</ele><time>2026-06-18T18:21:19.000Z</time></trkpt>
        <trkpt lat="28.470143" lon="104.973666"><ele>505.59955</ele><time>2026-06-18T18:21:21.000Z</time></trkpt>
        <trkpt lat="28.470153" lon="104.97368"><ele>505.59955</ele><time>2026-06-18T18:21:23.000Z</time></trkpt>
        <trkpt lat="28.47016" lon="104.973695"><ele>505.59955</ele><time>2026-06-18T18:21:25.000Z</time></trkpt>
        <trkpt lat="28.470167" lon="104.973714"><ele>505.59955</ele><time>2026-06-18T18:21:27.000Z</time></trkpt>
        <trkpt lat="28.470177" lon="104.973736"><ele>505.59955</ele><time>2026-06-18T18:21:29.000Z</time></trkpt>
        <trkpt lat="28.470189" lon="104.973749"><ele>505.64328</ele><time>2026-06-18T18:21:31.000Z</time></trkpt>
        <trkpt lat="28.470206" lon="104.973764"><ele>505.81125</ele><time>2026-06-18T18:21:33.000Z</time></trkpt>
        <trkpt lat="28.470221" lon="104.973774"><ele>505.96356</ele><time>2026-06-18T18:21:35.000Z</time></trkpt>
        <trkpt lat="28.470245" lon="104.973789"><ele>505.98773</ele><time>2026-06-18T18:21:37.000Z</time></trkpt>
        <trkpt lat="28.470268" lon="104.97381"><ele>505.99036</ele><time>2026-06-18T18:21:39.000Z</time></trkpt>
        <trkpt lat="28.470284" lon="104.973828"><ele>506.0088</ele><time>2026-06-18T18:21:41.000Z</time></trkpt>
        <trkpt lat="28.4703" lon="104.973849"><ele>506.04675</ele><time>2026-06-18T18:21:43.000Z</time></trkpt>
        <trkpt lat="28.470315" lon="104.973866"><ele>506.0981</ele><time>2026-06-18T18:21:45.000Z</time></trkpt>
        <trkpt lat="28.470331" lon="104.973897"><ele>506.18268</ele><time>2026-06-18T18:21:47.000Z</time></trkpt>
        <trkpt lat="28.470343" lon="104.973928"><ele>506.42084</ele><time>2026-06-18T18:21:49.000Z</time></trkpt>
        <trkpt lat="28.470349" lon="104.973963"><ele>506.62256</ele><time>2026-06-18T18:21:51.000Z</time></trkpt>
        <trkpt lat="28.470353" lon="104.974002"><ele>506.74765</ele><time>2026-06-18T18:21:53.000Z</time></trkpt>
        <trkpt lat="28.470356" lon="104.974042"><ele>506.80682</ele><time>2026-06-18T18:21:55.000Z</time></trkpt>
        <trkpt lat="28.470354" lon="104.974082"><ele>506.90094</ele><time>2026-06-18T18:21:57.000Z</time></trkpt>
        <trkpt lat="28.470346" lon="104.974118"><ele>506.99545</ele><time>2026-06-18T18:21:59.000Z</time></trkpt>
        <trkpt lat="28.470332" lon="104.974151"><ele>507.01242</ele><time>2026-06-18T18:22:01.000Z</time></trkpt>
        <trkpt lat="28.470316" lon="104.974178"><ele>507.0181</ele><time>2026-06-18T18:22:03.000Z</time></trkpt>
        <trkpt lat="28.470302" lon="104.974194"><ele>507.0181</ele><time>2026-06-18T18:22:05.000Z</time></trkpt>
        <trkpt lat="28.470289" lon="104.9742"><ele>507.0181</ele><time>2026-06-18T18:22:07.000Z</time></trkpt>
        <trkpt lat="28.470285" lon="104.974211"><ele>507.0181</ele><time>2026-06-18T18:22:09.000Z</time></trkpt>
        <trkpt lat="28.470277" lon="104.974245"><ele>507.03085</ele><time>2026-06-18T18:23:13.000Z</time></trkpt>
        <trkpt lat="28.470281" lon="104.974265"><ele>507.03085</ele><time>2026-06-18T18:23:15.000Z</time></trkpt>
        <trkpt lat="28.470292" lon="104.974312"><ele>506.94748</ele><time>2026-06-18T18:23:17.000Z</time></trkpt>
        <trkpt lat="28.470291" lon="104.974313"><ele>506.7726</ele><time>2026-06-18T18:23:19.000Z</time></trkpt>
        <trkpt lat="28.470279" lon="104.974326"><ele>506.66873</ele><time>2026-06-18T18:23:23.000Z</time></trkpt>
        <trkpt lat="28.470258" lon="104.974347"><ele>506.66675</ele><time>2026-06-18T18:23:25.000Z</time></trkpt>
        <trkpt lat="28.470229" lon="104.974381"><ele>506.5371</ele><time>2026-06-18T18:23:27.000Z</time></trkpt>
        <trkpt lat="28.470153" lon="104.974472"><ele>506.31342</ele><time>2026-06-18T18:23:31.000Z</time></trkpt>
        <trkpt lat="28.470153" lon="104.974472"><ele>506.20642</ele><time>2026-06-18T18:23:33.000Z</time></trkpt>
        <trkpt lat="28.470153" lon="104.974472"><ele>506.0264</ele><time>2026-06-18T18:23:35.000Z</time></trkpt>
        <trkpt lat="28.470202" lon="104.974524"><ele>505.69904</ele><time>2026-06-18T18:23:41.000Z</time></trkpt>
        <trkpt lat="28.470217" lon="104.974551"><ele>505.67343</ele><time>2026-06-18T18:23:43.000Z</time></trkpt>
        <trkpt lat="28.470227" lon="104.974581"><ele>505.4884</ele><time>2026-06-18T18:23:45.000Z</time></trkpt>
        <trkpt lat="28.470236" lon="104.974609"><ele>505.47775</ele><time>2026-06-18T18:23:47.000Z</time></trkpt>
        <trkpt lat="28.470246" lon="104.974634"><ele>505.0956</ele><time>2026-06-18T18:23:49.000Z</time></trkpt>
        <trkpt lat="28.470261" lon="104.974659"><ele>504.63187</ele><time>2026-06-18T18:23:51.000Z</time></trkpt>
        <trkpt lat="28.470277" lon="104.97469"><ele>504.479</ele><time>2026-06-18T18:23:53.000Z</time></trkpt>
        <trkpt lat="28.470292" lon="104.974717"><ele>504.35995</ele><time>2026-06-18T18:23:55.000Z</time></trkpt>
        <trkpt lat="28.47031" lon="104.974753"><ele>504.28183</ele><time>2026-06-18T18:23:57.000Z</time></trkpt>
        <trkpt lat="28.470318" lon="104.974783"><ele>504.17825</ele><time>2026-06-18T18:23:59.000Z</time></trkpt>
        <trkpt lat="28.470317" lon="104.974805"><ele>504.08347</ele><time>2026-06-18T18:24:01.000Z</time></trkpt>
        <trkpt lat="28.470311" lon="104.974828"><ele>504.07095</ele><time>2026-06-18T18:24:03.000Z</time></trkpt>
        <trkpt lat="28.470301" lon="104.974855"><ele>504.05328</ele><time>2026-06-18T18:24:05.000Z</time></trkpt>
        <trkpt lat="28.470287" lon="104.974886"><ele>503.98837</ele><time>2026-06-18T18:24:07.000Z</time></trkpt>
        <trkpt lat="28.470272" lon="104.974916"><ele>503.98837</ele><time>2026-06-18T18:24:09.000Z</time></trkpt>
        <trkpt lat="28.470257" lon="104.97494"><ele>503.98837</ele><time>2026-06-18T18:24:11.000Z</time></trkpt>
        <trkpt lat="28.47024" lon="104.974962"><ele>503.98837</ele><time>2026-06-18T18:24:13.000Z</time></trkpt>
        <trkpt lat="28.47022" lon="104.974982"><ele>503.98837</ele><time>2026-06-18T18:24:15.000Z</time></trkpt>
        <trkpt lat="28.470192" lon="104.975005"><ele>503.98837</ele><time>2026-06-18T18:24:17.000Z</time></trkpt>
        <trkpt lat="28.470163" lon="104.97503"><ele>503.85995</ele><time>2026-06-18T18:24:19.000Z</time></trkpt>
        <trkpt lat="28.470142" lon="104.97505"><ele>503.72995</ele><time>2026-06-18T18:24:21.000Z</time></trkpt>
        <trkpt lat="28.470137" lon="104.975064"><ele>503.67963</ele><time>2026-06-18T18:24:23.000Z</time></trkpt>
        <trkpt lat="28.470136" lon="104.975081"><ele>503.67963</ele><time>2026-06-18T18:24:25.000Z</time></trkpt>
        <trkpt lat="28.470138" lon="104.975107"><ele>503.72995</ele><time>2026-06-18T18:24:27.000Z</time></trkpt>
        <trkpt lat="28.470142" lon="104.975137"><ele>503.72995</ele><time>2026-06-18T18:24:29.000Z</time></trkpt>
        <trkpt lat="28.470144" lon="104.975166"><ele>503.72995</ele><time>2026-06-18T18:24:31.000Z</time></trkpt>
        <trkpt lat="28.470144" lon="104.975195"><ele>503.81305</ele><time>2026-06-18T18:24:32.000Z</time></trkpt>
        <trkpt lat="28.470144" lon="104.975221"><ele>503.81305</ele><time>2026-06-18T18:24:34.000Z</time></trkpt>
        <trkpt lat="28.470141" lon="104.975258"><ele>503.81305</ele><time>2026-06-18T18:24:36.000Z</time></trkpt>
        <trkpt lat="28.470137" lon="104.975286"><ele>503.76273</ele><time>2026-06-18T18:24:38.000Z</time></trkpt>
        <trkpt lat="28.47013" lon="104.975309"><ele>503.76273</ele><time>2026-06-18T18:24:40.000Z</time></trkpt>
        <trkpt lat="28.470127" lon="104.975331"><ele>503.6077</ele><time>2026-06-18T18:24:42.000Z</time></trkpt>
        <trkpt lat="28.470125" lon="104.975353"><ele>503.30716</ele><time>2026-06-18T18:24:44.000Z</time></trkpt>
        <trkpt lat="28.470131" lon="104.975377"><ele>503.30716</ele><time>2026-06-18T18:24:46.000Z</time></trkpt>
        <trkpt lat="28.470141" lon="104.975408"><ele>503.30716</ele><time>2026-06-18T18:24:48.000Z</time></trkpt>
        <trkpt lat="28.47015" lon="104.97544"><ele>503.24475</ele><time>2026-06-18T18:24:51.000Z</time></trkpt>
        <trkpt lat="28.470156" lon="104.975472"><ele>503.24475</ele><time>2026-06-18T18:24:53.000Z</time></trkpt>
        <trkpt lat="28.470158" lon="104.975503"><ele>503.30716</ele><time>2026-06-18T18:24:55.000Z</time></trkpt>
        <trkpt lat="28.470159" lon="104.975535"><ele>503.30716</ele><time>2026-06-18T18:24:57.000Z</time></trkpt>
        <trkpt lat="28.470158" lon="104.975562"><ele>503.3411</ele><time>2026-06-18T18:24:59.000Z</time></trkpt>
        <trkpt lat="28.47015" lon="104.975587"><ele>503.3902</ele><time>2026-06-18T18:25:01.000Z</time></trkpt>
        <trkpt lat="28.47014" lon="104.975614"><ele>503.3902</ele><time>2026-06-18T18:25:03.000Z</time></trkpt>
        <trkpt lat="28.47013" lon="104.975642"><ele>503.3902</ele><time>2026-06-18T18:25:05.000Z</time></trkpt>
        <trkpt lat="28.470124" lon="104.97567"><ele>503.3902</ele><time>2026-06-18T18:25:07.000Z</time></trkpt>
        <trkpt lat="28.47012" lon="104.975699"><ele>503.39557</ele><time>2026-06-18T18:25:09.000Z</time></trkpt>
        <trkpt lat="28.470115" lon="104.975728"><ele>503.39557</ele><time>2026-06-18T18:25:11.000Z</time></trkpt>
        <trkpt lat="28.470107" lon="104.975755"><ele>503.36337</ele><time>2026-06-18T18:25:13.000Z</time></trkpt>
        <trkpt lat="28.4701" lon="104.975779"><ele>503.36337</ele><time>2026-06-18T18:25:15.000Z</time></trkpt>
        <trkpt lat="28.470093" lon="104.975804"><ele>503.36337</ele><time>2026-06-18T18:25:17.000Z</time></trkpt>
        <trkpt lat="28.47009" lon="104.975831"><ele>503.23373</ele><time>2026-06-18T18:25:19.000Z</time></trkpt>
        <trkpt lat="28.470087" lon="104.975855"><ele>503.10635</ele><time>2026-06-18T18:25:21.000Z</time></trkpt>
        <trkpt lat="28.470084" lon="104.975881"><ele>503.25378</ele><time>2026-06-18T18:25:23.000Z</time></trkpt>
        <trkpt lat="28.470079" lon="104.975905"><ele>503.35907</ele><time>2026-06-18T18:25:25.000Z</time></trkpt>
        <trkpt lat="28.470075" lon="104.97593"><ele>503.35907</ele><time>2026-06-18T18:25:27.000Z</time></trkpt>
        <trkpt lat="28.470069" lon="104.975958"><ele>503.32272</ele><time>2026-06-18T18:25:29.000Z</time></trkpt>
        <trkpt lat="28.470068" lon="104.975991"><ele>503.32272</ele><time>2026-06-18T18:25:31.000Z</time></trkpt>
        <trkpt lat="28.470072" lon="104.976023"><ele>503.19965</ele><time>2026-06-18T18:25:33.000Z</time></trkpt>
        <trkpt lat="28.470077" lon="104.976056"><ele>503.1804</ele><time>2026-06-18T18:25:35.000Z</time></trkpt>
        <trkpt lat="28.47008" lon="104.976084"><ele>503.1804</ele><time>2026-06-18T18:25:37.000Z</time></trkpt>
        <trkpt lat="28.470086" lon="104.976107"><ele>503.29147</ele><time>2026-06-18T18:25:39.000Z</time></trkpt>
        <trkpt lat="28.47009" lon="104.97614"><ele>503.29147</ele><time>2026-06-18T18:25:41.000Z</time></trkpt>
        <trkpt lat="28.470088" lon="104.976157"><ele>503.1783</ele><time>2026-06-18T18:25:43.000Z</time></trkpt>
        <trkpt lat="28.470086" lon="104.976177"><ele>503.07236</ele><time>2026-06-18T18:25:45.000Z</time></trkpt>
        <trkpt lat="28.470089" lon="104.976198"><ele>503.04922</ele><time>2026-06-18T18:25:47.000Z</time></trkpt>
        <trkpt lat="28.47009" lon="104.976225"><ele>503.04593</ele><time>2026-06-18T18:25:49.000Z</time></trkpt>
        <trkpt lat="28.470089" lon="104.976252"><ele>503.057</ele><time>2026-06-18T18:25:51.000Z</time></trkpt>
        <trkpt lat="28.470091" lon="104.976281"><ele>503.06906</ele><time>2026-06-18T18:25:53.000Z</time></trkpt>
        <trkpt lat="28.470089" lon="104.976308"><ele>503.06906</ele><time>2026-06-18T18:25:55.000Z</time></trkpt>
        <trkpt lat="28.470084" lon="104.976332"><ele>503.10117</ele><time>2026-06-18T18:25:57.000Z</time></trkpt>
        <trkpt lat="28.470077" lon="104.97636"><ele>503.10117</ele><time>2026-06-18T18:25:59.000Z</time></trkpt>
        <trkpt lat="28.470072" lon="104.976387"><ele>503.34482</ele><time>2026-06-18T18:26:01.000Z</time></trkpt>
        <trkpt lat="28.470068" lon="104.976415"><ele>503.5494</ele><time>2026-06-18T18:26:03.000Z</time></trkpt>
        <trkpt lat="28.470066" lon="104.976447"><ele>503.58923</ele><time>2026-06-18T18:26:05.000Z</time></trkpt>
        <trkpt lat="28.470064" lon="104.976473"><ele>503.70502</ele><time>2026-06-18T18:26:07.000Z</time></trkpt>
        <trkpt lat="28.47006" lon="104.976499"><ele>503.70502</ele><time>2026-06-18T18:26:09.000Z</time></trkpt>
        <trkpt lat="28.470053" lon="104.976525"><ele>503.80838</ele><time>2026-06-18T18:26:11.000Z</time></trkpt>
        <trkpt lat="28.470047" lon="104.976547"><ele>503.82758</ele><time>2026-06-18T18:26:13.000Z</time></trkpt>
        <trkpt lat="28.47004" lon="104.976566"><ele>503.87344</ele><time>2026-06-18T18:26:15.000Z</time></trkpt>
        <trkpt lat="28.470036" lon="104.976586"><ele>503.95935</ele><time>2026-06-18T18:26:17.000Z</time></trkpt>
        <trkpt lat="28.470033" lon="104.976607"><ele>504.14603</ele><time>2026-06-18T18:26:19.000Z</time></trkpt>
        <trkpt lat="28.470028" lon="104.976632"><ele>504.31348</ele><time>2026-06-18T18:26:21.000Z</time></trkpt>
        <trkpt lat="28.470024" lon="104.976661"><ele>504.44235</ele><time>2026-06-18T18:26:23.000Z</time></trkpt>
        <trkpt lat="28.470024" lon="104.976689"><ele>504.6214</ele><time>2026-06-18T18:26:25.000Z</time></trkpt>
        <trkpt lat="28.470025" lon="104.97672"><ele>504.78268</ele><time>2026-06-18T18:26:27.000Z</time></trkpt>
        <trkpt lat="28.470025" lon="104.976752"><ele>504.9863</ele><time>2026-06-18T18:26:29.000Z</time></trkpt>
        <trkpt lat="28.470026" lon="104.976787"><ele>505.1078</ele><time>2026-06-18T18:26:31.000Z</time></trkpt>
        <trkpt lat="28.470029" lon="104.976818"><ele>505.1381</ele><time>2026-06-18T18:26:33.000Z</time></trkpt>
        <trkpt lat="28.470032" lon="104.976851"><ele>505.33344</ele><time>2026-06-18T18:26:35.000Z</time></trkpt>
        <trkpt lat="28.470036" lon="104.976881"><ele>505.5905</ele><time>2026-06-18T18:26:37.000Z</time></trkpt>
        <trkpt lat="28.470043" lon="104.976908"><ele>505.6724</ele><time>2026-06-18T18:26:39.000Z</time></trkpt>
        <trkpt lat="28.470051" lon="104.976938"><ele>505.6724</ele><time>2026-06-18T18:26:41.000Z</time></trkpt>
        <trkpt lat="28.470055" lon="104.976967"><ele>505.6724</ele><time>2026-06-18T18:26:43.000Z</time></trkpt>
        <trkpt lat="28.470055" lon="104.976996"><ele>505.6724</ele><time>2026-06-18T18:26:45.000Z</time></trkpt>
        <trkpt lat="28.47005" lon="104.977023"><ele>505.6724</ele><time>2026-06-18T18:26:47.000Z</time></trkpt>
        <trkpt lat="28.47004" lon="104.977048"><ele>505.64023</ele><time>2026-06-18T18:26:49.000Z</time></trkpt>
        <trkpt lat="28.47003" lon="104.977072"><ele>505.6069</ele><time>2026-06-18T18:26:51.000Z</time></trkpt>
        <trkpt lat="28.470018" lon="104.977085"><ele>505.6069</ele><time>2026-06-18T18:26:53.000Z</time></trkpt>
        <trkpt lat="28.469995" lon="104.9771"><ele>505.6069</ele><time>2026-06-18T18:26:55.000Z</time></trkpt>
        <trkpt lat="28.469965" lon="104.977118"><ele>505.6069</ele><time>2026-06-18T18:26:57.000Z</time></trkpt>
        <trkpt lat="28.469943" lon="104.977132"><ele>505.6069</ele><time>2026-06-18T18:26:59.000Z</time></trkpt>
        <trkpt lat="28.46993" lon="104.97714"><ele>505.62784</ele><time>2026-06-18T18:27:01.000Z</time></trkpt>
        <trkpt lat="28.469916" lon="104.977142"><ele>505.7023</ele><time>2026-06-18T18:27:03.000Z</time></trkpt>
        <trkpt lat="28.469895" lon="104.977146"><ele>505.8455</ele><time>2026-06-18T18:27:05.000Z</time></trkpt>
        <trkpt lat="28.469865" lon="104.977151"><ele>506.0841</ele><time>2026-06-18T18:27:07.000Z</time></trkpt>
        <trkpt lat="28.469838" lon="104.977158"><ele>506.31314</ele><time>2026-06-18T18:27:09.000Z</time></trkpt>
        <trkpt lat="28.469811" lon="104.977165"><ele>506.4298</ele><time>2026-06-18T18:27:11.000Z</time></trkpt>
        <trkpt lat="28.469782" lon="104.977174"><ele>506.48026</ele><time>2026-06-18T18:27:13.000Z</time></trkpt>
        <trkpt lat="28.469748" lon="104.97718"><ele>506.51047</ele><time>2026-06-18T18:27:15.000Z</time></trkpt>
        <trkpt lat="28.469719" lon="104.977182"><ele>506.5283</ele><time>2026-06-18T18:27:17.000Z</time></trkpt>
        <trkpt lat="28.469693" lon="104.977185"><ele>506.56418</ele><time>2026-06-18T18:27:19.000Z</time></trkpt>
        <trkpt lat="28.46967" lon="104.977192"><ele>506.66428</ele><time>2026-06-18T18:27:21.000Z</time></trkpt>
        <trkpt lat="28.469652" lon="104.977206"><ele>506.8053</ele><time>2026-06-18T18:27:23.000Z</time></trkpt>
        <trkpt lat="28.469641" lon="104.977226"><ele>507.18665</ele><time>2026-06-18T18:27:25.000Z</time></trkpt>
        <trkpt lat="28.469634" lon="104.977251"><ele>507.78848</ele><time>2026-06-18T18:27:27.000Z</time></trkpt>
        <trkpt lat="28.469623" lon="104.977286"><ele>508.25568</ele><time>2026-06-18T18:27:29.000Z</time></trkpt>
        <trkpt lat="28.469615" lon="104.977323"><ele>508.54156</ele><time>2026-06-18T18:27:31.000Z</time></trkpt>
        <trkpt lat="28.469611" lon="104.977356"><ele>509.06445</ele><time>2026-06-18T18:27:33.000Z</time></trkpt>
        <trkpt lat="28.469605" lon="104.977382"><ele>509.52362</ele><time>2026-06-18T18:27:35.000Z</time></trkpt>
        <trkpt lat="28.469596" lon="104.977402"><ele>509.65823</ele><time>2026-06-18T18:27:37.000Z</time></trkpt>
        <trkpt lat="28.469583" lon="104.977416"><ele>509.78674</ele><time>2026-06-18T18:27:39.000Z</time></trkpt>
        <trkpt lat="28.469565" lon="104.977442"><ele>510.07077</ele><time>2026-06-18T18:27:41.000Z</time></trkpt>
        <trkpt lat="28.469555" lon="104.977466"><ele>510.33408</ele><time>2026-06-18T18:27:43.000Z</time></trkpt>
        <trkpt lat="28.469555" lon="104.977489"><ele>510.37057</ele><time>2026-06-18T18:27:45.000Z</time></trkpt>
        <trkpt lat="28.469558" lon="104.977518"><ele>510.45718</ele><time>2026-06-18T18:27:47.000Z</time></trkpt>
        <trkpt lat="28.469559" lon="104.977542"><ele>510.46143</ele><time>2026-06-18T18:27:49.000Z</time></trkpt>
        <trkpt lat="28.469553" lon="104.977566"><ele>510.46143</ele><time>2026-06-18T18:27:51.000Z</time></trkpt>
        <trkpt lat="28.469544" lon="104.977593"><ele>510.46143</ele><time>2026-06-18T18:27:53.000Z</time></trkpt>
        <trkpt lat="28.46953" lon="104.977621"><ele>510.46143</ele><time>2026-06-18T18:27:55.000Z</time></trkpt>
        <trkpt lat="28.469521" lon="104.977641"><ele>510.50543</ele><time>2026-06-18T18:27:57.000Z</time></trkpt>
        <trkpt lat="28.469511" lon="104.977666"><ele>510.50543</ele><time>2026-06-18T18:27:59.000Z</time></trkpt>
        <trkpt lat="28.469501" lon="104.977694"><ele>510.50543</ele><time>2026-06-18T18:28:01.000Z</time></trkpt>
        <trkpt lat="28.469493" lon="104.977722"><ele>510.50543</ele><time>2026-06-18T18:28:03.000Z</time></trkpt>
        <trkpt lat="28.469484" lon="104.97775"><ele>510.50543</ele><time>2026-06-18T18:28:05.000Z</time></trkpt>
        <trkpt lat="28.469474" lon="104.977774"><ele>510.59286</ele><time>2026-06-18T18:28:07.000Z</time></trkpt>
        <trkpt lat="28.469462" lon="104.9778"><ele>510.9254</ele><time>2026-06-18T18:28:09.000Z</time></trkpt>
        <trkpt lat="28.469447" lon="104.977827"><ele>511.3408</ele><time>2026-06-18T18:28:11.000Z</time></trkpt>
        <trkpt lat="28.46943" lon="104.977855"><ele>511.74536</ele><time>2026-06-18T18:28:13.000Z</time></trkpt>
        <trkpt lat="28.469415" lon="104.977876"><ele>512.1555</ele><time>2026-06-18T18:28:15.000Z</time></trkpt>
        <trkpt lat="28.469398" lon="104.977894"><ele>512.5272</ele><time>2026-06-18T18:28:17.000Z</time></trkpt>
        <trkpt lat="28.46938" lon="104.977909"><ele>512.8009</ele><time>2026-06-18T18:28:19.000Z</time></trkpt>
        <trkpt lat="28.469361" lon="104.977923"><ele>513.06915</ele><time>2026-06-18T18:28:21.000Z</time></trkpt>
        <trkpt lat="28.469344" lon="104.977935"><ele>513.3346</ele><time>2026-06-18T18:28:23.000Z</time></trkpt>
        <trkpt lat="28.469327" lon="104.977944"><ele>513.51196</ele><time>2026-06-18T18:28:25.000Z</time></trkpt>
        <trkpt lat="28.469306" lon="104.977952"><ele>513.51196</ele><time>2026-06-18T18:28:27.000Z</time></trkpt>
        <trkpt lat="28.469281" lon="104.977961"><ele>513.6106</ele><time>2026-06-18T18:28:29.000Z</time></trkpt>
        <trkpt lat="28.469257" lon="104.977968"><ele>513.6516</ele><time>2026-06-18T18:28:31.000Z</time></trkpt>
        <trkpt lat="28.469236" lon="104.977973"><ele>513.6874</ele><time>2026-06-18T18:28:33.000Z</time></trkpt>
        <trkpt lat="28.469209" lon="104.97798"><ele>513.6874</ele><time>2026-06-18T18:28:35.000Z</time></trkpt>
        <trkpt lat="28.469181" lon="104.97799"><ele>513.7093</ele><time>2026-06-18T18:28:37.000Z</time></trkpt>
        <trkpt lat="28.469151" lon="104.978001"><ele>513.7263</ele><time>2026-06-18T18:28:39.000Z</time></trkpt>
        <trkpt lat="28.469122" lon="104.978009"><ele>513.7609</ele><time>2026-06-18T18:28:41.000Z</time></trkpt>
        <trkpt lat="28.46909" lon="104.978016"><ele>513.8736</ele><time>2026-06-18T18:28:43.000Z</time></trkpt>
        <trkpt lat="28.469062" lon="104.978026"><ele>513.97577</ele><time>2026-06-18T18:28:44.000Z</time></trkpt>
        <trkpt lat="28.469034" lon="104.978043"><ele>514.0474</ele><time>2026-06-18T18:28:46.000Z</time></trkpt>
        <trkpt lat="28.46901" lon="104.97806"><ele>514.0474</ele><time>2026-06-18T18:28:48.000Z</time></trkpt>
        <trkpt lat="28.468985" lon="104.978076"><ele>514.0474</ele><time>2026-06-18T18:28:50.000Z</time></trkpt>
        <trkpt lat="28.468961" lon="104.97809"><ele>514.0474</ele><time>2026-06-18T18:28:52.000Z</time></trkpt>
        <trkpt lat="28.468944" lon="104.978091"><ele>514.0474</ele><time>2026-06-18T18:28:54.000Z</time></trkpt>
        <trkpt lat="28.468928" lon="104.978092"><ele>513.96606</ele><time>2026-06-18T18:28:57.000Z</time></trkpt>
        <trkpt lat="28.468911" lon="104.978092"><ele>513.5942</ele><time>2026-06-18T18:28:59.000Z</time></trkpt>
        <trkpt lat="28.468878" lon="104.978091"><ele>513.0391</ele><time>2026-06-18T18:29:03.000Z</time></trkpt>
        <trkpt lat="28.468857" lon="104.978091"><ele>512.6533</ele><time>2026-06-18T18:29:05.000Z</time></trkpt>
        <trkpt lat="28.468836" lon="104.978089"><ele>512.3935</ele><time>2026-06-18T18:29:07.000Z</time></trkpt>
        <trkpt lat="28.468813" lon="104.978085"><ele>512.1587</ele><time>2026-06-18T18:29:09.000Z</time></trkpt>
        <trkpt lat="28.468792" lon="104.978084"><ele>511.9187</ele><time>2026-06-18T18:29:11.000Z</time></trkpt>
        <trkpt lat="28.468772" lon="104.978084"><ele>511.9187</ele><time>2026-06-18T18:29:13.000Z</time></trkpt>
        <trkpt lat="28.468749" lon="104.978085"><ele>511.9187</ele><time>2026-06-18T18:29:15.000Z</time></trkpt>
        <trkpt lat="28.468724" lon="104.978085"><ele>511.9187</ele><time>2026-06-18T18:29:17.000Z</time></trkpt>
        <trkpt lat="28.468697" lon="104.978085"><ele>511.9187</ele><time>2026-06-18T18:29:19.000Z</time></trkpt>
        <trkpt lat="28.468671" lon="104.978085"><ele>512.0625</ele><time>2026-06-18T18:29:21.000Z</time></trkpt>
        <trkpt lat="28.468644" lon="104.978088"><ele>512.5301</ele><time>2026-06-18T18:29:23.000Z</time></trkpt>
        <trkpt lat="28.468617" lon="104.978092"><ele>512.9323</ele><time>2026-06-18T18:29:25.000Z</time></trkpt>
        <trkpt lat="28.468592" lon="104.978098"><ele>513.234</ele><time>2026-06-18T18:29:27.000Z</time></trkpt>
        <trkpt lat="28.468567" lon="104.978105"><ele>513.3664</ele><time>2026-06-18T18:29:29.000Z</time></trkpt>
        <trkpt lat="28.468545" lon="104.97811"><ele>513.55817</ele><time>2026-06-18T18:29:31.000Z</time></trkpt>
        <trkpt lat="28.468522" lon="104.978116"><ele>513.8858</ele><time>2026-06-18T18:29:33.000Z</time></trkpt>
        <trkpt lat="28.468499" lon="104.978121"><ele>514.10474</ele><time>2026-06-18T18:29:35.000Z</time></trkpt>
        <trkpt lat="28.468477" lon="104.978126"><ele>514.24615</ele><time>2026-06-18T18:29:37.000Z</time></trkpt>
        <trkpt lat="28.468457" lon="104.978131"><ele>514.42126</ele><time>2026-06-18T18:29:39.000Z</time></trkpt>
        <trkpt lat="28.468441" lon="104.978138"><ele>514.65485</ele><time>2026-06-18T18:29:41.000Z</time></trkpt>
        <trkpt lat="28.468426" lon="104.978141"><ele>514.88916</ele><time>2026-06-18T18:29:43.000Z</time></trkpt>
        <trkpt lat="28.468423" lon="104.978142"><ele>515.1862</ele><time>2026-06-18T18:29:45.000Z</time></trkpt>
        <trkpt lat="28.468408" lon="104.978144"><ele>515.68335</ele><time>2026-06-18T18:29:47.000Z</time></trkpt>
        <trkpt lat="28.468386" lon="104.978147"><ele>516.0627</ele><time>2026-06-18T18:29:49.000Z</time></trkpt>
        <trkpt lat="28.468361" lon="104.978149"><ele>516.2015</ele><time>2026-06-18T18:29:51.000Z</time></trkpt>
        <trkpt lat="28.468335" lon="104.978151"><ele>516.306</ele><time>2026-06-18T18:29:53.000Z</time></trkpt>
        <trkpt lat="28.468313" lon="104.978153"><ele>516.361</ele><time>2026-06-18T18:29:55.000Z</time></trkpt>
        <trkpt lat="28.46829" lon="104.978158"><ele>516.3815</ele><time>2026-06-18T18:29:57.000Z</time></trkpt>
        <trkpt lat="28.468263" lon="104.978163"><ele>516.49786</ele><time>2026-06-18T18:29:59.000Z</time></trkpt>
        <trkpt lat="28.46824" lon="104.978166"><ele>516.7663</ele><time>2026-06-18T18:30:01.000Z</time></trkpt>
        <trkpt lat="28.468218" lon="104.978171"><ele>517.13574</ele><time>2026-06-18T18:30:03.000Z</time></trkpt>
        <trkpt lat="28.468193" lon="104.97818"><ele>517.5511</ele><time>2026-06-18T18:30:05.000Z</time></trkpt>
        <trkpt lat="28.468172" lon="104.978192"><ele>517.9472</ele><time>2026-06-18T18:30:07.000Z</time></trkpt>
        <trkpt lat="28.46815" lon="104.978206"><ele>518.2055</ele><time>2026-06-18T18:30:09.000Z</time></trkpt>
        <trkpt lat="28.468133" lon="104.97822"><ele>518.39777</ele><time>2026-06-18T18:30:11.000Z</time></trkpt>
        <trkpt lat="28.468114" lon="104.978239"><ele>518.5773</ele><time>2026-06-18T18:30:13.000Z</time></trkpt>
        <trkpt lat="28.468096" lon="104.97826"><ele>518.64233</ele><time>2026-06-18T18:30:15.000Z</time></trkpt>
        <trkpt lat="28.468079" lon="104.978279"><ele>518.69604</ele><time>2026-06-18T18:30:17.000Z</time></trkpt>
        <trkpt lat="28.468056" lon="104.978299"><ele>518.76166</ele><time>2026-06-18T18:30:19.000Z</time></trkpt>
        <trkpt lat="28.468028" lon="104.978318"><ele>518.8416</ele><time>2026-06-18T18:30:21.000Z</time></trkpt>
        <trkpt lat="28.468005" lon="104.978333"><ele>518.91327</ele><time>2026-06-18T18:30:23.000Z</time></trkpt>
        <trkpt lat="28.467979" lon="104.978349"><ele>518.97266</ele><time>2026-06-18T18:30:25.000Z</time></trkpt>
        <trkpt lat="28.467957" lon="104.978361"><ele>519.03107</ele><time>2026-06-18T18:30:27.000Z</time></trkpt>
        <trkpt lat="28.467934" lon="104.978375"><ele>519.0447</ele><time>2026-06-18T18:30:29.000Z</time></trkpt>
        <trkpt lat="28.467912" lon="104.978389"><ele>519.0739</ele><time>2026-06-18T18:30:31.000Z</time></trkpt>
        <trkpt lat="28.46789" lon="104.978401"><ele>519.1239</ele><time>2026-06-18T18:30:33.000Z</time></trkpt>
        <trkpt lat="28.467869" lon="104.978414"><ele>519.163</ele><time>2026-06-18T18:30:35.000Z</time></trkpt>
        <trkpt lat="28.467847" lon="104.978427"><ele>519.2306</ele><time>2026-06-18T18:30:37.000Z</time></trkpt>
        <trkpt lat="28.467827" lon="104.978437"><ele>519.406</ele><time>2026-06-18T18:30:39.000Z</time></trkpt>
        <trkpt lat="28.467804" lon="104.978446"><ele>519.6701</ele><time>2026-06-18T18:30:41.000Z</time></trkpt>
        <trkpt lat="28.467781" lon="104.978451"><ele>519.95355</ele><time>2026-06-18T18:30:43.000Z</time></trkpt>
        <trkpt lat="28.467761" lon="104.978454"><ele>520.3345</ele><time>2026-06-18T18:30:45.000Z</time></trkpt>
        <trkpt lat="28.467738" lon="104.978459"><ele>520.7414</ele><time>2026-06-18T18:30:47.000Z</time></trkpt>
        <trkpt lat="28.467718" lon="104.978465"><ele>520.95935</ele><time>2026-06-18T18:30:49.000Z</time></trkpt>
        <trkpt lat="28.467702" lon="104.978476"><ele>521.10065</ele><time>2026-06-18T18:30:51.000Z</time></trkpt>
        <trkpt lat="28.467683" lon="104.978494"><ele>521.24536</ele><time>2026-06-18T18:30:53.000Z</time></trkpt>
        <trkpt lat="28.467667" lon="104.97851"><ele>521.41595</ele><time>2026-06-18T18:30:55.000Z</time></trkpt>
        <trkpt lat="28.467648" lon="104.978526"><ele>521.7894</ele><time>2026-06-18T18:30:57.000Z</time></trkpt>
        <trkpt lat="28.467629" lon="104.978538"><ele>522.3052</ele><time>2026-06-18T18:30:59.000Z</time></trkpt>
        <trkpt lat="28.467608" lon="104.97855"><ele>522.71216</ele><time>2026-06-18T18:31:01.000Z</time></trkpt>
        <trkpt lat="28.467589" lon="104.978562"><ele>523.01117</ele><time>2026-06-18T18:31:03.000Z</time></trkpt>
        <trkpt lat="28.467568" lon="104.978576"><ele>523.37854</ele><time>2026-06-18T18:31:05.000Z</time></trkpt>
        <trkpt lat="28.467547" lon="104.97859"><ele>523.86017</ele><time>2026-06-18T18:31:07.000Z</time></trkpt>
        <trkpt lat="28.467526" lon="104.978604"><ele>524.3166</ele><time>2026-06-18T18:31:09.000Z</time></trkpt>
        <trkpt lat="28.467505" lon="104.978614"><ele>524.6552</ele><time>2026-06-18T18:31:11.000Z</time></trkpt>
        <trkpt lat="28.467486" lon="104.978623"><ele>525.1144</ele><time>2026-06-18T18:31:13.000Z</time></trkpt>
        <trkpt lat="28.46746" lon="104.978633"><ele>525.4414</ele><time>2026-06-18T18:31:15.000Z</time></trkpt>
        <trkpt lat="28.467436" lon="104.978641"><ele>525.676</ele><time>2026-06-18T18:31:17.000Z</time></trkpt>
        <trkpt lat="28.467415" lon="104.978646"><ele>526.1414</ele><time>2026-06-18T18:31:19.000Z</time></trkpt>
        <trkpt lat="28.467397" lon="104.97865"><ele>526.56726</ele><time>2026-06-18T18:31:21.000Z</time></trkpt>
        <trkpt lat="28.467377" lon="104.978652"><ele>526.9187</ele><time>2026-06-18T18:31:23.000Z</time></trkpt>
        <trkpt lat="28.467348" lon="104.978651"><ele>527.1123</ele><time>2026-06-18T18:31:25.000Z</time></trkpt>
        <trkpt lat="28.46732" lon="104.978644"><ele>527.2272</ele><time>2026-06-18T18:31:27.000Z</time></trkpt>
        <trkpt lat="28.467292" lon="104.978643"><ele>527.3825</ele><time>2026-06-18T18:31:29.000Z</time></trkpt>
        <trkpt lat="28.467266" lon="104.978641"><ele>527.4609</ele><time>2026-06-18T18:31:31.000Z</time></trkpt>
        <trkpt lat="28.467235" lon="104.978638"><ele>527.5085</ele><time>2026-06-18T18:31:33.000Z</time></trkpt>
        <trkpt lat="28.467205" lon="104.978637"><ele>527.6166</ele><time>2026-06-18T18:31:35.000Z</time></trkpt>
        <trkpt lat="28.467175" lon="104.978631"><ele>527.85974</ele><time>2026-06-18T18:31:37.000Z</time></trkpt>
        <trkpt lat="28.467147" lon="104.978621"><ele>528.08295</ele><time>2026-06-18T18:31:39.000Z</time></trkpt>
        <trkpt lat="28.467122" lon="104.978613"><ele>528.3259</ele><time>2026-06-18T18:31:41.000Z</time></trkpt>
        <trkpt lat="28.467096" lon="104.978604"><ele>528.49805</ele><time>2026-06-18T18:31:43.000Z</time></trkpt>
        <trkpt lat="28.46707" lon="104.978596"><ele>528.49805</ele><time>2026-06-18T18:31:45.000Z</time></trkpt>
        <trkpt lat="28.467048" lon="104.978586"><ele>528.49805</ele><time>2026-06-18T18:31:47.000Z</time></trkpt>
        <trkpt lat="28.467028" lon="104.978575"><ele>528.6334</ele><time>2026-06-18T18:31:49.000Z</time></trkpt>
        <trkpt lat="28.467009" lon="104.97856"><ele>528.6929</ele><time>2026-06-18T18:31:51.000Z</time></trkpt>
        <trkpt lat="28.466991" lon="104.978545"><ele>528.7584</ele><time>2026-06-18T18:31:53.000Z</time></trkpt>
        <trkpt lat="28.466976" lon="104.978526"><ele>528.795</ele><time>2026-06-18T18:31:55.000Z</time></trkpt>
        <trkpt lat="28.466969" lon="104.978506"><ele>528.7584</ele><time>2026-06-18T18:31:57.000Z</time></trkpt>
        <trkpt lat="28.466968" lon="104.978487"><ele>528.6929</ele><time>2026-06-18T18:31:59.000Z</time></trkpt>
        <trkpt lat="28.466971" lon="104.978456"><ele>528.6929</ele><time>2026-06-18T18:32:01.000Z</time></trkpt>
        <trkpt lat="28.466975" lon="104.97842"><ele>528.72766</ele><time>2026-06-18T18:32:03.000Z</time></trkpt>
        <trkpt lat="28.466977" lon="104.978389"><ele>528.795</ele><time>2026-06-18T18:32:05.000Z</time></trkpt>
        <trkpt lat="28.466972" lon="104.97837"><ele>528.85547</ele><time>2026-06-18T18:32:07.000Z</time></trkpt>
        <trkpt lat="28.466967" lon="104.97836"><ele>529.11676</ele><time>2026-06-18T18:32:09.000Z</time></trkpt>
        <trkpt lat="28.46695" lon="104.978324"><ele>529.62555</ele><time>2026-06-18T18:32:13.000Z</time></trkpt>
        <trkpt lat="28.466942" lon="104.978305"><ele>530.10254</ele><time>2026-06-18T18:32:15.000Z</time></trkpt>
        <trkpt lat="28.466934" lon="104.978279"><ele>530.61096</ele><time>2026-06-18T18:32:17.000Z</time></trkpt>
        <trkpt lat="28.466925" lon="104.978251"><ele>531.0819</ele><time>2026-06-18T18:32:19.000Z</time></trkpt>
        <trkpt lat="28.466915" lon="104.978225"><ele>531.37146</ele><time>2026-06-18T18:32:21.000Z</time></trkpt>
        <trkpt lat="28.466903" lon="104.978202"><ele>531.64264</ele><time>2026-06-18T18:32:23.000Z</time></trkpt>
        <trkpt lat="28.466887" lon="104.978176"><ele>531.89215</ele><time>2026-06-18T18:32:25.000Z</time></trkpt>
        <trkpt lat="28.466871" lon="104.978154"><ele>532.1354</ele><time>2026-06-18T18:32:27.000Z</time></trkpt>
        <trkpt lat="28.466854" lon="104.978142"><ele>532.33234</ele><time>2026-06-18T18:32:29.000Z</time></trkpt>
        <trkpt lat="28.466833" lon="104.978136"><ele>532.5581</ele><time>2026-06-18T18:32:31.000Z</time></trkpt>
        <trkpt lat="28.466811" lon="104.978131"><ele>533.0254</ele><time>2026-06-18T18:32:33.000Z</time></trkpt>
        <trkpt lat="28.466791" lon="104.978125"><ele>533.4182</ele><time>2026-06-18T18:32:35.000Z</time></trkpt>
        <trkpt lat="28.466768" lon="104.978119"><ele>533.69995</ele><time>2026-06-18T18:32:37.000Z</time></trkpt>
        <trkpt lat="28.46674" lon="104.978112"><ele>534.1854</ele><time>2026-06-18T18:32:39.000Z</time></trkpt>
        <trkpt lat="28.466709" lon="104.978107"><ele>534.6192</ele><time>2026-06-18T18:32:41.000Z</time></trkpt>
        <trkpt lat="28.466681" lon="104.978114"><ele>534.81085</ele><time>2026-06-18T18:32:43.000Z</time></trkpt>
        <trkpt lat="28.466654" lon="104.978132"><ele>535.14746</ele><time>2026-06-18T18:32:45.000Z</time></trkpt>
        <trkpt lat="28.466627" lon="104.978163"><ele>535.5111</ele><time>2026-06-18T18:32:47.000Z</time></trkpt>
        <trkpt lat="28.466564" lon="104.978238"><ele>535.6152</ele><time>2026-06-18T18:32:51.000Z</time></trkpt>
        <trkpt lat="28.466564" lon="104.978238"><ele>535.8212</ele><time>2026-06-18T18:32:53.000Z</time></trkpt>
        <trkpt lat="28.466562" lon="104.978241"><ele>536.16797</ele><time>2026-06-18T18:32:55.000Z</time></trkpt>
        <trkpt lat="28.466518" lon="104.978297"><ele>536.4013</ele><time>2026-06-18T18:33:01.000Z</time></trkpt>
        <trkpt lat="28.466507" lon="104.978325"><ele>537.121</ele><time>2026-06-18T18:33:03.000Z</time></trkpt>
        <trkpt lat="28.466502" lon="104.978354"><ele>537.80396</ele><time>2026-06-18T18:33:05.000Z</time></trkpt>
        <trkpt lat="28.4665" lon="104.978386"><ele>537.81866</ele><time>2026-06-18T18:33:07.000Z</time></trkpt>
        <trkpt lat="28.466509" lon="104.978413"><ele>538.4761</ele><time>2026-06-18T18:33:09.000Z</time></trkpt>
        <trkpt lat="28.466519" lon="104.978422"><ele>539.2529</ele><time>2026-06-18T18:33:11.000Z</time></trkpt>
        <trkpt lat="28.466539" lon="104.978448"><ele>539.2529</ele><time>2026-06-18T18:33:15.000Z</time></trkpt>
        <trkpt lat="28.466542" lon="104.978461"><ele>539.2529</ele><time>2026-06-18T18:33:17.000Z</time></trkpt>
        <trkpt lat="28.466542" lon="104.978489"><ele>539.2529</ele><time>2026-06-18T18:33:19.000Z</time></trkpt>
        <trkpt lat="28.466544" lon="104.978518"><ele>539.2529</ele><time>2026-06-18T18:33:21.000Z</time></trkpt>
        <trkpt lat="28.466539" lon="104.978546"><ele>539.09186</ele><time>2026-06-18T18:33:23.000Z</time></trkpt>
        <trkpt lat="28.466531" lon="104.978574"><ele>538.7371</ele><time>2026-06-18T18:33:25.000Z</time></trkpt>
        <trkpt lat="28.466519" lon="104.978603"><ele>537.83057</ele><time>2026-06-18T18:33:27.000Z</time></trkpt>
        <trkpt lat="28.466509" lon="104.978627"><ele>536.989</ele><time>2026-06-18T18:33:29.000Z</time></trkpt>
        <trkpt lat="28.466503" lon="104.978651"><ele>536.62744</ele><time>2026-06-18T18:33:31.000Z</time></trkpt>
        <trkpt lat="28.466497" lon="104.97868"><ele>536.52045</ele><time>2026-06-18T18:33:33.000Z</time></trkpt>
        <trkpt lat="28.466494" lon="104.97871"><ele>536.40454</ele><time>2026-06-18T18:33:35.000Z</time></trkpt>
        <trkpt lat="28.466495" lon="104.978741"><ele>536.25085</ele><time>2026-06-18T18:33:37.000Z</time></trkpt>
        <trkpt lat="28.466495" lon="104.978774"><ele>536.21094</ele><time>2026-06-18T18:33:39.000Z</time></trkpt>
        <trkpt lat="28.466495" lon="104.978797"><ele>536.20135</ele><time>2026-06-18T18:33:41.000Z</time></trkpt>
        <trkpt lat="28.466495" lon="104.978832"><ele>536.10693</ele><time>2026-06-18T18:33:43.000Z</time></trkpt>
        <trkpt lat="28.466494" lon="104.978856"><ele>535.9338</ele><time>2026-06-18T18:33:45.000Z</time></trkpt>
        <trkpt lat="28.46649" lon="104.978886"><ele>535.787</ele><time>2026-06-18T18:33:47.000Z</time></trkpt>
        <trkpt lat="28.466493" lon="104.978909"><ele>535.787</ele><time>2026-06-18T18:33:49.000Z</time></trkpt>
        <trkpt lat="28.466497" lon="104.978936"><ele>535.6989</ele><time>2026-06-18T18:33:51.000Z</time></trkpt>
        <trkpt lat="28.466495" lon="104.978946"><ele>535.2356</ele><time>2026-06-18T18:33:53.000Z</time></trkpt>
        <trkpt lat="28.466488" lon="104.978959"><ele>534.7763</ele><time>2026-06-18T18:33:55.000Z</time></trkpt>
        <trkpt lat="28.466459" lon="104.979003"><ele>534.6813</ele><time>2026-06-18T18:33:59.000Z</time></trkpt>
        <trkpt lat="28.466453" lon="104.979008"><ele>534.53217</ele><time>2026-06-18T18:34:01.000Z</time></trkpt>
        <trkpt lat="28.466447" lon="104.979013"><ele>533.991</ele><time>2026-06-18T18:34:03.000Z</time></trkpt>
        <trkpt lat="28.466416" lon="104.979032"><ele>533.5042</ele><time>2026-06-18T18:34:07.000Z</time></trkpt>
        <trkpt lat="28.466396" lon="104.979044"><ele>533.5042</ele><time>2026-06-18T18:34:09.000Z</time></trkpt>
        <trkpt lat="28.466371" lon="104.979057"><ele>533.5042</ele><time>2026-06-18T18:34:11.000Z</time></trkpt>
        <trkpt lat="28.466348" lon="104.979068"><ele>533.5042</ele><time>2026-06-18T18:34:13.000Z</time></trkpt>
        <trkpt lat="28.466331" lon="104.97907"><ele>533.5042</ele><time>2026-06-18T18:34:15.000Z</time></trkpt>
        <trkpt lat="28.466324" lon="104.979065"><ele>533.54144</ele><time>2026-06-18T18:34:17.000Z</time></trkpt>
        <trkpt lat="28.466287" lon="104.979042"><ele>533.43335</ele><time>2026-06-18T18:34:21.000Z</time></trkpt>
        <trkpt lat="28.466266" lon="104.979028"><ele>533.6347</ele><time>2026-06-18T18:34:23.000Z</time></trkpt>
        <trkpt lat="28.466244" lon="104.979013"><ele>533.7126</ele><time>2026-06-18T18:34:25.000Z</time></trkpt>
        <trkpt lat="28.466221" lon="104.978996"><ele>533.82355</ele><time>2026-06-18T18:34:27.000Z</time></trkpt>
        <trkpt lat="28.466203" lon="104.978978"><ele>533.8925</ele><time>2026-06-18T18:34:29.000Z</time></trkpt>
        <trkpt lat="28.466187" lon="104.978959"><ele>533.8925</ele><time>2026-06-18T18:34:31.000Z</time></trkpt>
        <trkpt lat="28.466163" lon="104.978927"><ele>533.82355</ele><time>2026-06-18T18:34:33.000Z</time></trkpt>
        <trkpt lat="28.466142" lon="104.978897"><ele>533.8925</ele><time>2026-06-18T18:34:35.000Z</time></trkpt>
        <trkpt lat="28.466126" lon="104.978874"><ele>533.9436</ele><time>2026-06-18T18:34:37.000Z</time></trkpt>
        <trkpt lat="28.466111" lon="104.978849"><ele>534.01404</ele><time>2026-06-18T18:34:39.000Z</time></trkpt>
        <trkpt lat="28.466103" lon="104.978822"><ele>534.08453</ele><time>2026-06-18T18:34:41.000Z</time></trkpt>
        <trkpt lat="28.466098" lon="104.97879"><ele>534.1513</ele><time>2026-06-18T18:34:43.000Z</time></trkpt>
        <trkpt lat="28.466095" lon="104.978751"><ele>534.2336</ele><time>2026-06-18T18:34:45.000Z</time></trkpt>
        <trkpt lat="28.466093" lon="104.978728"><ele>534.6347</ele><time>2026-06-18T18:34:47.000Z</time></trkpt>
        <trkpt lat="28.466091" lon="104.978705"><ele>535.0907</ele><time>2026-06-18T18:34:49.000Z</time></trkpt>
        <trkpt lat="28.466088" lon="104.978672"><ele>535.3361</ele><time>2026-06-18T18:34:51.000Z</time></trkpt>
        <trkpt lat="28.466084" lon="104.978645"><ele>535.91064</ele><time>2026-06-18T18:34:53.000Z</time></trkpt>
        <trkpt lat="28.46608" lon="104.978621"><ele>537.1652</ele><time>2026-06-18T18:34:55.000Z</time></trkpt>
        <trkpt lat="28.466077" lon="104.978599"><ele>538.1888</ele><time>2026-06-18T18:34:57.000Z</time></trkpt>
        <trkpt lat="28.466076" lon="104.978584"><ele>538.9482</ele><time>2026-06-18T18:34:59.000Z</time></trkpt>
        <trkpt lat="28.46607" lon="104.978563"><ele>539.71674</ele><time>2026-06-18T18:35:01.000Z</time></trkpt>
        <trkpt lat="28.466061" lon="104.97854"><ele>540.17065</ele><time>2026-06-18T18:35:03.000Z</time></trkpt>
        <trkpt lat="28.466049" lon="104.978515"><ele>541.07556</ele><time>2026-06-18T18:35:05.000Z</time></trkpt>
        <trkpt lat="28.466035" lon="104.97849"><ele>541.89355</ele><time>2026-06-18T18:35:07.000Z</time></trkpt>
        <trkpt lat="28.466025" lon="104.978472"><ele>542.155</ele><time>2026-06-18T18:35:09.000Z</time></trkpt>
        <trkpt lat="28.466012" lon="104.978441"><ele>542.59766</ele><time>2026-06-18T18:35:11.000Z</time></trkpt>
        <trkpt lat="28.466003" lon="104.978417"><ele>542.975</ele><time>2026-06-18T18:35:13.000Z</time></trkpt>
        <trkpt lat="28.465995" lon="104.978393"><ele>543.0677</ele><time>2026-06-18T18:35:15.000Z</time></trkpt>
        <trkpt lat="28.465985" lon="104.978365"><ele>543.129</ele><time>2026-06-18T18:35:17.000Z</time></trkpt>
        <trkpt lat="28.465975" lon="104.978338"><ele>543.18933</ele><time>2026-06-18T18:35:19.000Z</time></trkpt>
        <trkpt lat="28.465965" lon="104.978308"><ele>543.29144</ele><time>2026-06-18T18:35:21.000Z</time></trkpt>
        <trkpt lat="28.465954" lon="104.978282"><ele>543.4705</ele><time>2026-06-18T18:35:23.000Z</time></trkpt>
        <trkpt lat="28.465941" lon="104.978264"><ele>543.70074</ele><time>2026-06-18T18:35:25.000Z</time></trkpt>
        <trkpt lat="28.46593" lon="104.978254"><ele>543.95557</ele><time>2026-06-18T18:35:27.000Z</time></trkpt>
        <trkpt lat="28.465911" lon="104.978233"><ele>544.1171</ele><time>2026-06-18T18:35:29.000Z</time></trkpt>
        <trkpt lat="28.465893" lon="104.978212"><ele>544.4962</ele><time>2026-06-18T18:35:31.000Z</time></trkpt>
        <trkpt lat="28.465877" lon="104.978192"><ele>544.8784</ele><time>2026-06-18T18:35:33.000Z</time></trkpt>
        <trkpt lat="28.465863" lon="104.978176"><ele>545.14734</ele><time>2026-06-18T18:35:35.000Z</time></trkpt>
        <trkpt lat="28.465851" lon="104.978158"><ele>545.4893</ele><time>2026-06-18T18:35:37.000Z</time></trkpt>
        <trkpt lat="28.465841" lon="104.978136"><ele>545.62585</ele><time>2026-06-18T18:35:39.000Z</time></trkpt>
        <trkpt lat="28.465829" lon="104.978111"><ele>545.76935</ele><time>2026-06-18T18:35:41.000Z</time></trkpt>
        <trkpt lat="28.465822" lon="104.97809"><ele>545.9481</ele><time>2026-06-18T18:35:43.000Z</time></trkpt>
        <trkpt lat="28.465816" lon="104.978067"><ele>546.10114</ele><time>2026-06-18T18:35:45.000Z</time></trkpt>
        <trkpt lat="28.465812" lon="104.978046"><ele>546.263</ele><time>2026-06-18T18:35:47.000Z</time></trkpt>
        <trkpt lat="28.46581" lon="104.978018"><ele>546.3404</ele><time>2026-06-18T18:35:49.000Z</time></trkpt>
        <trkpt lat="28.465809" lon="104.977984"><ele>546.354</ele><time>2026-06-18T18:35:51.000Z</time></trkpt>
        <trkpt lat="28.465802" lon="104.977963"><ele>546.5287</ele><time>2026-06-18T18:35:53.000Z</time></trkpt>
        <trkpt lat="28.46579" lon="104.977949"><ele>546.8736</ele><time>2026-06-18T18:35:55.000Z</time></trkpt>
        <trkpt lat="28.46577" lon="104.977933"><ele>547.56</ele><time>2026-06-18T18:35:57.000Z</time></trkpt>
        <trkpt lat="28.465747" lon="104.977914"><ele>548.13684</ele><time>2026-06-18T18:35:59.000Z</time></trkpt>
        <trkpt lat="28.465726" lon="104.977895"><ele>548.7995</ele><time>2026-06-18T18:36:01.000Z</time></trkpt>
        <trkpt lat="28.465703" lon="104.97788"><ele>549.80963</ele><time>2026-06-18T18:36:03.000Z</time></trkpt>
        <trkpt lat="28.465682" lon="104.977862"><ele>550.6975</ele><time>2026-06-18T18:36:05.000Z</time></trkpt>
        <trkpt lat="28.465663" lon="104.977843"><ele>551.4024</ele><time>2026-06-18T18:36:07.000Z</time></trkpt>
        <trkpt lat="28.465646" lon="104.977826"><ele>551.63245</ele><time>2026-06-18T18:36:09.000Z</time></trkpt>
        <trkpt lat="28.46563" lon="104.977813"><ele>551.9301</ele><time>2026-06-18T18:36:11.000Z</time></trkpt>
        <trkpt lat="28.465607" lon="104.977794"><ele>552.4565</ele><time>2026-06-18T18:36:15.000Z</time></trkpt>
        <trkpt lat="28.465597" lon="104.977794"><ele>552.70435</ele><time>2026-06-18T18:36:17.000Z</time></trkpt>
        <trkpt lat="28.465571" lon="104.977796"><ele>552.739</ele><time>2026-06-18T18:36:21.000Z</time></trkpt>
        <trkpt lat="28.465549" lon="104.977804"><ele>552.739</ele><time>2026-06-18T18:36:23.000Z</time></trkpt>
        <trkpt lat="28.465527" lon="104.977819"><ele>552.739</ele><time>2026-06-18T18:36:25.000Z</time></trkpt>
        <trkpt lat="28.465503" lon="104.977837"><ele>552.739</ele><time>2026-06-18T18:36:27.000Z</time></trkpt>
        <trkpt lat="28.465481" lon="104.977855"><ele>552.89886</ele><time>2026-06-18T18:36:29.000Z</time></trkpt>
        <trkpt lat="28.465461" lon="104.977875"><ele>552.89886</ele><time>2026-06-18T18:36:31.000Z</time></trkpt>
        <trkpt lat="28.465443" lon="104.977895"><ele>552.89886</ele><time>2026-06-18T18:36:33.000Z</time></trkpt>
        <trkpt lat="28.465428" lon="104.977917"><ele>552.89886</ele><time>2026-06-18T18:36:35.000Z</time></trkpt>
        <trkpt lat="28.465415" lon="104.977939"><ele>553.1072</ele><time>2026-06-18T18:36:37.000Z</time></trkpt>
        <trkpt lat="28.465403" lon="104.977968"><ele>553.4814</ele><time>2026-06-18T18:36:39.000Z</time></trkpt>
        <trkpt lat="28.465397" lon="104.977998"><ele>553.80426</ele><time>2026-06-18T18:36:41.000Z</time></trkpt>
        <trkpt lat="28.465396" lon="104.978027"><ele>554.06934</ele><time>2026-06-18T18:36:43.000Z</time></trkpt>
        <trkpt lat="28.465393" lon="104.978054"><ele>554.4775</ele><time>2026-06-18T18:36:45.000Z</time></trkpt>
        <trkpt lat="28.465387" lon="104.978079"><ele>554.7173</ele><time>2026-06-18T18:36:47.000Z</time></trkpt>
        <trkpt lat="28.46538" lon="104.978102"><ele>554.89026</ele><time>2026-06-18T18:36:49.000Z</time></trkpt>
        <trkpt lat="28.465372" lon="104.97813"><ele>555.0538</ele><time>2026-06-18T18:36:51.000Z</time></trkpt>
        <trkpt lat="28.465364" lon="104.978161"><ele>555.11365</ele><time>2026-06-18T18:36:53.000Z</time></trkpt>
        <trkpt lat="28.465359" lon="104.978193"><ele>555.11365</ele><time>2026-06-18T18:36:55.000Z</time></trkpt>
        <trkpt lat="28.465356" lon="104.978226"><ele>555.11365</ele><time>2026-06-18T18:36:57.000Z</time></trkpt>
        <trkpt lat="28.465352" lon="104.978246"><ele>555.11365</ele><time>2026-06-18T18:36:59.000Z</time></trkpt>
        <trkpt lat="28.465348" lon="104.978265"><ele>554.9481</ele><time>2026-06-18T18:37:01.000Z</time></trkpt>
        <trkpt lat="28.46534" lon="104.978285"><ele>554.60126</ele><time>2026-06-18T18:37:03.000Z</time></trkpt>
        <trkpt lat="28.465327" lon="104.978309"><ele>553.98254</ele><time>2026-06-18T18:37:05.000Z</time></trkpt>
        <trkpt lat="28.46531" lon="104.978333"><ele>553.4335</ele><time>2026-06-18T18:37:07.000Z</time></trkpt>
        <trkpt lat="28.465292" lon="104.978348"><ele>553.0015</ele><time>2026-06-18T18:37:09.000Z</time></trkpt>
        <trkpt lat="28.465269" lon="104.978362"><ele>552.29663</ele><time>2026-06-18T18:37:11.000Z</time></trkpt>
        <trkpt lat="28.465247" lon="104.978372"><ele>551.92804</ele><time>2026-06-18T18:37:13.000Z</time></trkpt>
        <trkpt lat="28.465224" lon="104.978376"><ele>551.92804</ele><time>2026-06-18T18:37:15.000Z</time></trkpt>
        <trkpt lat="28.465199" lon="104.97838"><ele>551.89197</ele><time>2026-06-18T18:37:17.000Z</time></trkpt>
        <trkpt lat="28.465173" lon="104.97838"><ele>551.89197</ele><time>2026-06-18T18:37:19.000Z</time></trkpt>
        <trkpt lat="28.465149" lon="104.978377"><ele>551.89197</ele><time>2026-06-18T18:37:21.000Z</time></trkpt>
        <trkpt lat="28.465127" lon="104.978372"><ele>551.6377</ele><time>2026-06-18T18:37:23.000Z</time></trkpt>
        <trkpt lat="28.465105" lon="104.978364"><ele>551.6377</ele><time>2026-06-18T18:37:25.000Z</time></trkpt>
        <trkpt lat="28.465081" lon="104.978353"><ele>551.7034</ele><time>2026-06-18T18:37:27.000Z</time></trkpt>
        <trkpt lat="28.465062" lon="104.978344"><ele>551.7034</ele><time>2026-06-18T18:37:29.000Z</time></trkpt>
        <trkpt lat="28.465047" lon="104.978334"><ele>551.7034</ele><time>2026-06-18T18:37:31.000Z</time></trkpt>
        <trkpt lat="28.46503" lon="104.978321"><ele>551.5074</ele><time>2026-06-18T18:37:33.000Z</time></trkpt>
        <trkpt lat="28.465013" lon="104.978305"><ele>551.4551</ele><time>2026-06-18T18:37:35.000Z</time></trkpt>
        <trkpt lat="28.464995" lon="104.978283"><ele>551.4147</ele><time>2026-06-18T18:37:37.000Z</time></trkpt>
        <trkpt lat="28.464979" lon="104.978261"><ele>551.4147</ele><time>2026-06-18T18:37:39.000Z</time></trkpt>
        <trkpt lat="28.464966" lon="104.978239"><ele>551.4147</ele><time>2026-06-18T18:37:41.000Z</time></trkpt>
        <trkpt lat="28.464955" lon="104.978213"><ele>551.39874</ele><time>2026-06-18T18:37:43.000Z</time></trkpt>
        <trkpt lat="28.464944" lon="104.978186"><ele>551.4551</ele><time>2026-06-18T18:37:45.000Z</time></trkpt>
        <trkpt lat="28.464933" lon="104.978161"><ele>551.4551</ele><time>2026-06-18T18:37:47.000Z</time></trkpt>
        <trkpt lat="28.464923" lon="104.978134"><ele>551.5276</ele><time>2026-06-18T18:37:49.000Z</time></trkpt>
        <trkpt lat="28.464912" lon="104.978106"><ele>551.58673</ele><time>2026-06-18T18:37:51.000Z</time></trkpt>
        <trkpt lat="28.464903" lon="104.978083"><ele>551.81177</ele><time>2026-06-18T18:37:53.000Z</time></trkpt>
        <trkpt lat="28.464894" lon="104.978065"><ele>552.159</ele><time>2026-06-18T18:37:55.000Z</time></trkpt>
        <trkpt lat="28.464886" lon="104.978046"><ele>552.41235</ele><time>2026-06-18T18:37:57.000Z</time></trkpt>
        <trkpt lat="28.464881" lon="104.978026"><ele>552.8049</ele><time>2026-06-18T18:37:59.000Z</time></trkpt>
        <trkpt lat="28.464877" lon="104.978002"><ele>553.10675</ele><time>2026-06-18T18:38:01.000Z</time></trkpt>
        <trkpt lat="28.464875" lon="104.977974"><ele>553.4406</ele><time>2026-06-18T18:38:03.000Z</time></trkpt>
        <trkpt lat="28.464876" lon="104.977947"><ele>554.00354</ele><time>2026-06-18T18:38:05.000Z</time></trkpt>
        <trkpt lat="28.464877" lon="104.977923"><ele>554.2999</ele><time>2026-06-18T18:38:07.000Z</time></trkpt>
        <trkpt lat="28.464879" lon="104.977895"><ele>554.4879</ele><time>2026-06-18T18:38:09.000Z</time></trkpt>
        <trkpt lat="28.464881" lon="104.977868"><ele>554.6552</ele><time>2026-06-18T18:38:11.000Z</time></trkpt>
        <trkpt lat="28.464884" lon="104.977845"><ele>554.75836</ele><time>2026-06-18T18:38:13.000Z</time></trkpt>
        <trkpt lat="28.464888" lon="104.977826"><ele>555.1868</ele><time>2026-06-18T18:38:15.000Z</time></trkpt>
        <trkpt lat="28.464894" lon="104.977801"><ele>555.6438</ele><time>2026-06-18T18:38:17.000Z</time></trkpt>
        <trkpt lat="28.464896" lon="104.977778"><ele>556.0064</ele><time>2026-06-18T18:38:19.000Z</time></trkpt>
        <trkpt lat="28.464897" lon="104.977749"><ele>556.3113</ele><time>2026-06-18T18:38:21.000Z</time></trkpt>
        <trkpt lat="28.464895" lon="104.977722"><ele>556.40643</ele><time>2026-06-18T18:38:23.000Z</time></trkpt>
        <trkpt lat="28.464892" lon="104.977696"><ele>556.87585</ele><time>2026-06-18T18:38:25.000Z</time></trkpt>
        <trkpt lat="28.464888" lon="104.977669"><ele>557.4939</ele><time>2026-06-18T18:38:27.000Z</time></trkpt>
        <trkpt lat="28.46488" lon="104.977638"><ele>557.76764</ele><time>2026-06-18T18:38:29.000Z</time></trkpt>
        <trkpt lat="28.464871" lon="104.977606"><ele>558.0513</ele><time>2026-06-18T18:38:31.000Z</time></trkpt>
        <trkpt lat="28.464863" lon="104.97758"><ele>558.5212</ele><time>2026-06-18T18:38:33.000Z</time></trkpt>
        <trkpt lat="28.464853" lon="104.977549"><ele>558.9373</ele><time>2026-06-18T18:38:35.000Z</time></trkpt>
        <trkpt lat="28.464846" lon="104.977522"><ele>559.4176</ele><time>2026-06-18T18:38:37.000Z</time></trkpt>
        <trkpt lat="28.464837" lon="104.977488"><ele>559.798</ele><time>2026-06-18T18:38:39.000Z</time></trkpt>
        <trkpt lat="28.464823" lon="104.977462"><ele>559.998</ele><time>2026-06-18T18:38:41.000Z</time></trkpt>
        <trkpt lat="28.464806" lon="104.977437"><ele>560.0498</ele><time>2026-06-18T18:38:43.000Z</time></trkpt>
        <trkpt lat="28.464794" lon="104.977417"><ele>560.0498</ele><time>2026-06-18T18:38:45.000Z</time></trkpt>
        <trkpt lat="28.464784" lon="104.977405"><ele>560.1627</ele><time>2026-06-18T18:38:47.000Z</time></trkpt>
        <trkpt lat="28.464773" lon="104.977392"><ele>560.1627</ele><time>2026-06-18T18:38:49.000Z</time></trkpt>
        <trkpt lat="28.464759" lon="104.97738"><ele>560.29004</ele><time>2026-06-18T18:38:51.000Z</time></trkpt>
        <trkpt lat="28.464744" lon="104.977368"><ele>560.5606</ele><time>2026-06-18T18:38:53.000Z</time></trkpt>
        <trkpt lat="28.46473" lon="104.977357"><ele>560.5661</ele><time>2026-06-18T18:38:55.000Z</time></trkpt>
        <trkpt lat="28.464715" lon="104.977356"><ele>560.5661</ele><time>2026-06-18T18:38:57.000Z</time></trkpt>
        <trkpt lat="28.464689" lon="104.977361"><ele>560.5661</ele><time>2026-06-18T18:39:01.000Z</time></trkpt>
        <trkpt lat="28.464669" lon="104.977372"><ele>560.64886</ele><time>2026-06-18T18:39:03.000Z</time></trkpt>
        <trkpt lat="28.46465" lon="104.977386"><ele>560.64886</ele><time>2026-06-18T18:39:05.000Z</time></trkpt>
        <trkpt lat="28.464634" lon="104.977396"><ele>560.64886</ele><time>2026-06-18T18:39:07.000Z</time></trkpt>
        <trkpt lat="28.464616" lon="104.977405"><ele>560.64886</ele><time>2026-06-18T18:39:09.000Z</time></trkpt>
        <trkpt lat="28.464594" lon="104.977409"><ele>560.64886</ele><time>2026-06-18T18:39:11.000Z</time></trkpt>
        <trkpt lat="28.464572" lon="104.977407"><ele>560.5514</ele><time>2026-06-18T18:39:13.000Z</time></trkpt>
        <trkpt lat="28.464552" lon="104.977402"><ele>560.51</ele><time>2026-06-18T18:39:15.000Z</time></trkpt>
        <trkpt lat="28.464525" lon="104.977393"><ele>560.4851</ele><time>2026-06-18T18:39:17.000Z</time></trkpt>
        <trkpt lat="28.4645" lon="104.977384"><ele>560.46204</ele><time>2026-06-18T18:39:19.000Z</time></trkpt>
        <trkpt lat="28.464479" lon="104.977378"><ele>560.43274</ele><time>2026-06-18T18:39:21.000Z</time></trkpt>
        <trkpt lat="28.464454" lon="104.977374"><ele>560.43274</ele><time>2026-06-18T18:39:23.000Z</time></trkpt>
        <trkpt lat="28.46443" lon="104.977369"><ele>560.43274</ele><time>2026-06-18T18:39:25.000Z</time></trkpt>
        <trkpt lat="28.464405" lon="104.977361"><ele>560.43274</ele><time>2026-06-18T18:39:27.000Z</time></trkpt>
        <trkpt lat="28.464383" lon="104.977353"><ele>560.4514</ele><time>2026-06-18T18:39:29.000Z</time></trkpt>
        <trkpt lat="28.464357" lon="104.977343"><ele>560.53937</ele><time>2026-06-18T18:39:31.000Z</time></trkpt>
        <trkpt lat="28.464329" lon="104.977332"><ele>560.6336</ele><time>2026-06-18T18:39:33.000Z</time></trkpt>
        <trkpt lat="28.464305" lon="104.977321"><ele>560.79895</ele><time>2026-06-18T18:39:35.000Z</time></trkpt>
        <trkpt lat="28.46428" lon="104.977307"><ele>560.79895</ele><time>2026-06-18T18:39:37.000Z</time></trkpt>
        <trkpt lat="28.464263" lon="104.977289"><ele>560.9345</ele><time>2026-06-18T18:39:39.000Z</time></trkpt>
        <trkpt lat="28.464251" lon="104.977273"><ele>560.952</ele><time>2026-06-18T18:39:41.000Z</time></trkpt>
        <trkpt lat="28.46424" lon="104.977259"><ele>560.98944</ele><time>2026-06-18T18:39:43.000Z</time></trkpt>
        <trkpt lat="28.464225" lon="104.977248"><ele>561.01886</ele><time>2026-06-18T18:39:45.000Z</time></trkpt>
        <trkpt lat="28.464208" lon="104.97724"><ele>561.0358</ele><time>2026-06-18T18:39:47.000Z</time></trkpt>
        <trkpt lat="28.464183" lon="104.977232"><ele>561.1392</ele><time>2026-06-18T18:39:49.000Z</time></trkpt>
        <trkpt lat="28.464159" lon="104.977226"><ele>561.2548</ele><time>2026-06-18T18:39:51.000Z</time></trkpt>
        <trkpt lat="28.464135" lon="104.977221"><ele>561.3348</ele><time>2026-06-18T18:39:53.000Z</time></trkpt>
        <trkpt lat="28.464151" lon="104.977202"><ele>561.39825</ele><time>2026-06-18T18:40:03.000Z</time></trkpt>
        <trkpt lat="28.464099" lon="104.977261"><ele>561.39825</ele><time>2026-06-18T18:40:38.000Z</time></trkpt>
        <trkpt lat="28.464096" lon="104.97726"><ele>561.59924</ele><time>2026-06-18T18:40:37.000Z</time></trkpt>
        <trkpt lat="28.464007" lon="104.977209"><ele>561.7541</ele><time>2026-06-18T18:40:46.000Z</time></trkpt>
        <trkpt lat="28.464007" lon="104.977209"><ele>561.75525</ele><time>2026-06-18T18:40:48.000Z</time></trkpt>
        <trkpt lat="28.464003" lon="104.977205"><ele>561.8725</ele><time>2026-06-18T18:40:50.000Z</time></trkpt>
        <trkpt lat="28.463957" lon="104.977149"><ele>561.98083</ele><time>2026-06-18T18:40:54.000Z</time></trkpt>
        <trkpt lat="28.46387" lon="104.977041"><ele>562.2413</ele><time>2026-06-18T18:41:00.000Z</time></trkpt>
        <trkpt lat="28.46387" lon="104.977041"><ele>562.4611</ele><time>2026-06-18T18:41:02.000Z</time></trkpt>
        <trkpt lat="28.46387" lon="104.97704"><ele>562.4848</ele><time>2026-06-18T18:41:04.000Z</time></trkpt>
        <trkpt lat="28.46387" lon="104.976964"><ele>562.7333</ele><time>2026-06-18T18:41:10.000Z</time></trkpt>
        <trkpt lat="28.463869" lon="104.97693"><ele>564.1062</ele><time>2026-06-18T18:41:12.000Z</time></trkpt>
        <trkpt lat="28.463867" lon="104.976895"><ele>565.273</ele><time>2026-06-18T18:41:14.000Z</time></trkpt>
        <trkpt lat="28.463862" lon="104.976861"><ele>565.3164</ele><time>2026-06-18T18:41:16.000Z</time></trkpt>
        <trkpt lat="28.463857" lon="104.97683"><ele>565.68695</ele><time>2026-06-18T18:41:18.000Z</time></trkpt>
        <trkpt lat="28.463851" lon="104.976798"><ele>566.5111</ele><time>2026-06-18T18:41:20.000Z</time></trkpt>
        <trkpt lat="28.463847" lon="104.976771"><ele>567.1145</ele><time>2026-06-18T18:41:21.000Z</time></trkpt>
        <trkpt lat="28.463844" lon="104.976743"><ele>567.35065</ele><time>2026-06-18T18:41:23.000Z</time></trkpt>
        <trkpt lat="28.463846" lon="104.976722"><ele>567.88983</ele><time>2026-06-18T18:41:25.000Z</time></trkpt>
        <trkpt lat="28.463852" lon="104.9767"><ele>568.8223</ele><time>2026-06-18T18:41:27.000Z</time></trkpt>
        <trkpt lat="28.463865" lon="104.976655"><ele>569.7583</ele><time>2026-06-18T18:41:31.000Z</time></trkpt>
        <trkpt lat="28.463872" lon="104.97663"><ele>570.68243</ele><time>2026-06-18T18:41:33.000Z</time></trkpt>
        <trkpt lat="28.463873" lon="104.976602"><ele>572.0555</ele><time>2026-06-18T18:41:36.000Z</time></trkpt>
        <trkpt lat="28.463872" lon="104.976567"><ele>573.24603</ele><time>2026-06-18T18:41:38.000Z</time></trkpt>
        <trkpt lat="28.463869" lon="104.976537"><ele>574.5373</ele><time>2026-06-18T18:41:40.000Z</time></trkpt>
        <trkpt lat="28.463866" lon="104.976507"><ele>575.85876</ele><time>2026-06-18T18:41:42.000Z</time></trkpt>
        <trkpt lat="28.463865" lon="104.976478"><ele>576.3292</ele><time>2026-06-18T18:41:44.000Z</time></trkpt>
        <trkpt lat="28.463861" lon="104.976448"><ele>576.57355</ele><time>2026-06-18T18:41:46.000Z</time></trkpt>
        <trkpt lat="28.463855" lon="104.976422"><ele>576.96704</ele><time>2026-06-18T18:41:48.000Z</time></trkpt>
        <trkpt lat="28.463848" lon="104.976396"><ele>577.3052</ele><time>2026-06-18T18:41:50.000Z</time></trkpt>
        <trkpt lat="28.463839" lon="104.976367"><ele>577.3968</ele><time>2026-06-18T18:41:52.000Z</time></trkpt>
        <trkpt lat="28.463824" lon="104.976334"><ele>577.5006</ele><time>2026-06-18T18:41:54.000Z</time></trkpt>
        <trkpt lat="28.463804" lon="104.976292"><ele>577.5267</ele><time>2026-06-18T18:41:56.000Z</time></trkpt>
        <trkpt lat="28.463783" lon="104.976255"><ele>577.5734</ele><time>2026-06-18T18:41:58.000Z</time></trkpt>
        <trkpt lat="28.46376" lon="104.976222"><ele>577.6463</ele><time>2026-06-18T18:42:00.000Z</time></trkpt>
        <trkpt lat="28.463741" lon="104.976199"><ele>577.7168</ele><time>2026-06-18T18:42:02.000Z</time></trkpt>
        <trkpt lat="28.463717" lon="104.976177"><ele>577.7967</ele><time>2026-06-18T18:42:04.000Z</time></trkpt>
        <trkpt lat="28.463691" lon="104.976158"><ele>577.85406</ele><time>2026-06-18T18:42:06.000Z</time></trkpt>
        <trkpt lat="28.463669" lon="104.976148"><ele>578.18066</ele><time>2026-06-18T18:42:08.000Z</time></trkpt>
        <trkpt lat="28.463652" lon="104.976145"><ele>578.55255</ele><time>2026-06-18T18:42:10.000Z</time></trkpt>
        <trkpt lat="28.463634" lon="104.976145"><ele>578.6931</ele><time>2026-06-18T18:42:12.000Z</time></trkpt>
        <trkpt lat="28.463614" lon="104.976146"><ele>578.8923</ele><time>2026-06-18T18:42:14.000Z</time></trkpt>
        <trkpt lat="28.463596" lon="104.976146"><ele>579.1227</ele><time>2026-06-18T18:42:16.000Z</time></trkpt>
        <trkpt lat="28.463577" lon="104.976146"><ele>579.298</ele><time>2026-06-18T18:42:18.000Z</time></trkpt>
        <trkpt lat="28.463558" lon="104.976143"><ele>579.4497</ele><time>2026-06-18T18:42:20.000Z</time></trkpt>
        <trkpt lat="28.463534" lon="104.976137"><ele>579.4497</ele><time>2026-06-18T18:42:22.000Z</time></trkpt>
        <trkpt lat="28.463508" lon="104.97613"><ele>579.63367</ele><time>2026-06-18T18:42:24.000Z</time></trkpt>
        <trkpt lat="28.463483" lon="104.976127"><ele>579.71704</ele><time>2026-06-18T18:42:26.000Z</time></trkpt>
        <trkpt lat="28.463453" lon="104.976127"><ele>579.7608</ele><time>2026-06-18T18:42:28.000Z</time></trkpt>
        <trkpt lat="28.463424" lon="104.976127"><ele>579.8078</ele><time>2026-06-18T18:42:30.000Z</time></trkpt>
        <trkpt lat="28.463402" lon="104.976123"><ele>579.9344</ele><time>2026-06-18T18:42:32.000Z</time></trkpt>
        <trkpt lat="28.463378" lon="104.976113"><ele>580.0558</ele><time>2026-06-18T18:42:34.000Z</time></trkpt>
        <trkpt lat="28.463355" lon="104.976103"><ele>580.5298</ele><time>2026-06-18T18:42:36.000Z</time></trkpt>
        <trkpt lat="28.463328" lon="104.97609"><ele>580.915</ele><time>2026-06-18T18:42:38.000Z</time></trkpt>
        <trkpt lat="28.463304" lon="104.976078"><ele>581.3011</ele><time>2026-06-18T18:42:40.000Z</time></trkpt>
        <trkpt lat="28.463284" lon="104.976068"><ele>581.5816</ele><time>2026-06-18T18:42:42.000Z</time></trkpt>
        <trkpt lat="28.463265" lon="104.976056"><ele>581.8673</ele><time>2026-06-18T18:42:44.000Z</time></trkpt>
        <trkpt lat="28.463246" lon="104.976044"><ele>582.51074</ele><time>2026-06-18T18:42:46.000Z</time></trkpt>
        <trkpt lat="28.46323" lon="104.976033"><ele>583.09076</ele><time>2026-06-18T18:42:48.000Z</time></trkpt>
        <trkpt lat="28.463218" lon="104.976021"><ele>583.4409</ele><time>2026-06-18T18:42:50.000Z</time></trkpt>
        <trkpt lat="28.4632" lon="104.975994"><ele>583.4409</ele><time>2026-06-18T18:42:54.000Z</time></trkpt>
        <trkpt lat="28.463195" lon="104.975979"><ele>583.4409</ele><time>2026-06-18T18:42:56.000Z</time></trkpt>
        <trkpt lat="28.46319" lon="104.975952"><ele>583.4409</ele><time>2026-06-18T18:42:58.000Z</time></trkpt>
        <trkpt lat="28.463185" lon="104.975928"><ele>583.4409</ele><time>2026-06-18T18:43:00.000Z</time></trkpt>
        <trkpt lat="28.463186" lon="104.975915"><ele>583.62585</ele><time>2026-06-18T18:43:02.000Z</time></trkpt>
        <trkpt lat="28.463178" lon="104.975866"><ele>583.7552</ele><time>2026-06-18T18:43:06.000Z</time></trkpt>
        <trkpt lat="28.463168" lon="104.975831"><ele>583.7552</ele><time>2026-06-18T18:43:08.000Z</time></trkpt>
        <trkpt lat="28.463151" lon="104.975795"><ele>583.7552</ele><time>2026-06-18T18:43:10.000Z</time></trkpt>
        <trkpt lat="28.463136" lon="104.975772"><ele>583.7552</ele><time>2026-06-18T18:43:12.000Z</time></trkpt>
        <trkpt lat="28.46312" lon="104.975751"><ele>583.7552</ele><time>2026-06-18T18:43:14.000Z</time></trkpt>
        <trkpt lat="28.46311" lon="104.975732"><ele>584.32385</ele><time>2026-06-18T18:43:16.000Z</time></trkpt>
        <trkpt lat="28.463098" lon="104.975714"><ele>584.8818</ele><time>2026-06-18T18:43:18.000Z</time></trkpt>
        <trkpt lat="28.463081" lon="104.975692"><ele>585.0156</ele><time>2026-06-18T18:43:20.000Z</time></trkpt>
        <trkpt lat="28.463064" lon="104.975667"><ele>585.06885</ele><time>2026-06-18T18:43:22.000Z</time></trkpt>
        <trkpt lat="28.463055" lon="104.975645"><ele>585.06885</ele><time>2026-06-18T18:43:24.000Z</time></trkpt>
        <trkpt lat="28.463046" lon="104.975626"><ele>585.06885</ele><time>2026-06-18T18:43:26.000Z</time></trkpt>
        <trkpt lat="28.463036" lon="104.975604"><ele>585.0446</ele><time>2026-06-18T18:43:28.000Z</time></trkpt>
        <trkpt lat="28.463025" lon="104.975583"><ele>584.935</ele><time>2026-06-18T18:43:30.000Z</time></trkpt>
        <trkpt lat="28.463011" lon="104.975558"><ele>584.76514</ele><time>2026-06-18T18:43:32.000Z</time></trkpt>
        <trkpt lat="28.462993" lon="104.975533"><ele>584.76514</ele><time>2026-06-18T18:43:34.000Z</time></trkpt>
        <trkpt lat="28.462976" lon="104.975517"><ele>584.928</ele><time>2026-06-18T18:43:36.000Z</time></trkpt>
        <trkpt lat="28.462958" lon="104.975505"><ele>584.928</ele><time>2026-06-18T18:43:38.000Z</time></trkpt>
        <trkpt lat="28.462937" lon="104.975495"><ele>584.9556</ele><time>2026-06-18T18:43:40.000Z</time></trkpt>
        <trkpt lat="28.462919" lon="104.975486"><ele>584.9556</ele><time>2026-06-18T18:43:42.000Z</time></trkpt>
        <trkpt lat="28.462902" lon="104.975476"><ele>585.2278</ele><time>2026-06-18T18:43:44.000Z</time></trkpt>
        <trkpt lat="28.462881" lon="104.975464"><ele>585.4542</ele><time>2026-06-18T18:43:46.000Z</time></trkpt>
        <trkpt lat="28.462856" lon="104.975454"><ele>586.0974</ele><time>2026-06-18T18:43:48.000Z</time></trkpt>
        <trkpt lat="28.462838" lon="104.975444"><ele>586.7908</ele><time>2026-06-18T18:43:50.000Z</time></trkpt>
        <trkpt lat="28.462821" lon="104.975431"><ele>587.2756</ele><time>2026-06-18T18:43:52.000Z</time></trkpt>
        <trkpt lat="28.462811" lon="104.975417"><ele>587.75385</ele><time>2026-06-18T18:43:54.000Z</time></trkpt>
        <trkpt lat="28.462799" lon="104.975395"><ele>588.08655</ele><time>2026-06-18T18:43:56.000Z</time></trkpt>
        <trkpt lat="28.462783" lon="104.975375"><ele>588.84454</ele><time>2026-06-18T18:43:58.000Z</time></trkpt>
        <trkpt lat="28.462764" lon="104.975368"><ele>589.8896</ele><time>2026-06-18T18:44:00.000Z</time></trkpt>
        <trkpt lat="28.462734" lon="104.975361"><ele>590.5916</ele><time>2026-06-18T18:44:02.000Z</time></trkpt>
        <trkpt lat="28.462697" lon="104.975354"><ele>591.2633</ele><time>2026-06-18T18:44:04.000Z</time></trkpt>
        <trkpt lat="28.462667" lon="104.975347"><ele>591.8352</ele><time>2026-06-18T18:44:06.000Z</time></trkpt>
        <trkpt lat="28.462636" lon="104.975335"><ele>592.2467</ele><time>2026-06-18T18:44:08.000Z</time></trkpt>
        <trkpt lat="28.462608" lon="104.975325"><ele>592.48865</ele><time>2026-06-18T18:44:10.000Z</time></trkpt>
        <trkpt lat="28.462585" lon="104.975315"><ele>592.48865</ele><time>2026-06-18T18:44:12.000Z</time></trkpt>
        <trkpt lat="28.46257" lon="104.975305"><ele>592.48865</ele><time>2026-06-18T18:44:14.000Z</time></trkpt>
        <trkpt lat="28.462561" lon="104.975289"><ele>592.48865</ele><time>2026-06-18T18:44:16.000Z</time></trkpt>
        <trkpt lat="28.462545" lon="104.97526"><ele>592.48865</ele><time>2026-06-18T18:44:20.000Z</time></trkpt>
        <trkpt lat="28.462555" lon="104.975204"><ele>592.3974</ele><time>2026-06-18T18:44:27.000Z</time></trkpt>
        <trkpt lat="28.462555" lon="104.975204"><ele>591.87195</ele><time>2026-06-18T18:44:29.000Z</time></trkpt>
        <trkpt lat="28.462551" lon="104.975174"><ele>591.3149</ele><time>2026-06-18T18:44:33.000Z</time></trkpt>
        <trkpt lat="28.462537" lon="104.975131"><ele>590.6758</ele><time>2026-06-18T18:44:35.000Z</time></trkpt>
        <trkpt lat="28.46249" lon="104.974985"><ele>590.6758</ele><time>2026-06-18T18:44:41.000Z</time></trkpt>
        <trkpt lat="28.46249" lon="104.974985"><ele>590.6758</ele><time>2026-06-18T18:44:43.000Z</time></trkpt>
        <trkpt lat="28.462486" lon="104.974981"><ele>590.6758</ele><time>2026-06-18T18:44:45.000Z</time></trkpt>
        <trkpt lat="28.462446" lon="104.974933"><ele>590.6758</ele><time>2026-06-18T18:44:49.000Z</time></trkpt>
        <trkpt lat="28.462421" lon="104.974901"><ele>591.6198</ele><time>2026-06-18T18:44:51.000Z</time></trkpt>
        <trkpt lat="28.462395" lon="104.974874"><ele>593.0727</ele><time>2026-06-18T18:44:53.000Z</time></trkpt>
        <trkpt lat="28.462366" lon="104.97485"><ele>593.0759</ele><time>2026-06-18T18:44:55.000Z</time></trkpt>
        <trkpt lat="28.462344" lon="104.97484"><ele>593.24426</ele><time>2026-06-18T18:44:57.000Z</time></trkpt>
        <trkpt lat="28.462319" lon="104.974832"><ele>593.58997</ele><time>2026-06-18T18:44:59.000Z</time></trkpt>
        <trkpt lat="28.462299" lon="104.974825"><ele>594.2731</ele><time>2026-06-18T18:45:01.000Z</time></trkpt>
        <trkpt lat="28.462279" lon="104.974819"><ele>595.0748</ele><time>2026-06-18T18:45:03.000Z</time></trkpt>
        <trkpt lat="28.462265" lon="104.974813"><ele>595.7898</ele><time>2026-06-18T18:45:05.000Z</time></trkpt>
        <trkpt lat="28.462249" lon="104.974816"><ele>596.2499</ele><time>2026-06-18T18:45:07.000Z</time></trkpt>
        <trkpt lat="28.46222" lon="104.974827"><ele>596.3543</ele><time>2026-06-18T18:45:11.000Z</time></trkpt>
        <trkpt lat="28.462202" lon="104.974835"><ele>596.442</ele><time>2026-06-18T18:45:13.000Z</time></trkpt>
        <trkpt lat="28.462179" lon="104.974844"><ele>596.58997</ele><time>2026-06-18T18:45:15.000Z</time></trkpt>
        <trkpt lat="28.462154" lon="104.974851"><ele>596.74335</ele><time>2026-06-18T18:45:17.000Z</time></trkpt>
        <trkpt lat="28.46213" lon="104.974854"><ele>596.93976</ele><time>2026-06-18T18:45:19.000Z</time></trkpt>
        <trkpt lat="28.462109" lon="104.974857"><ele>597.26764</ele><time>2026-06-18T18:45:21.000Z</time></trkpt>
        <trkpt lat="28.462086" lon="104.97486"><ele>597.8481</ele><time>2026-06-18T18:45:23.000Z</time></trkpt>
        <trkpt lat="28.462061" lon="104.974864"><ele>598.2685</ele><time>2026-06-18T18:45:25.000Z</time></trkpt>
        <trkpt lat="28.462037" lon="104.97487"><ele>598.2685</ele><time>2026-06-18T18:45:27.000Z</time></trkpt>
        <trkpt lat="28.462012" lon="104.974876"><ele>598.3871</ele><time>2026-06-18T18:45:29.000Z</time></trkpt>
        <trkpt lat="28.461991" lon="104.97488"><ele>598.50903</ele><time>2026-06-18T18:45:31.000Z</time></trkpt>
        <trkpt lat="28.461971" lon="104.974882"><ele>598.50903</ele><time>2026-06-18T18:45:33.000Z</time></trkpt>
        <trkpt lat="28.461953" lon="104.974884"><ele>598.5144</ele><time>2026-06-18T18:45:35.000Z</time></trkpt>
        <trkpt lat="28.461921" lon="104.974886"><ele>598.5144</ele><time>2026-06-18T18:45:37.000Z</time></trkpt>
        <trkpt lat="28.461898" lon="104.974888"><ele>598.56995</ele><time>2026-06-18T18:45:39.000Z</time></trkpt>
        <trkpt lat="28.461881" lon="104.974889"><ele>598.62213</ele><time>2026-06-18T18:45:41.000Z</time></trkpt>
        <trkpt lat="28.461868" lon="104.97489"><ele>598.64087</ele><time>2026-06-18T18:45:43.000Z</time></trkpt>
        <trkpt lat="28.461831" lon="104.97489"><ele>598.66156</ele><time>2026-06-18T18:45:47.000Z</time></trkpt>
        <trkpt lat="28.461808" lon="104.97489"><ele>598.7013</ele><time>2026-06-18T18:45:49.000Z</time></trkpt>
        <trkpt lat="28.461781" lon="104.974891"><ele>598.76013</ele><time>2026-06-18T18:45:51.000Z</time></trkpt>
        <trkpt lat="28.461754" lon="104.974892"><ele>598.82275</ele><time>2026-06-18T18:45:53.000Z</time></trkpt>
        <trkpt lat="28.461729" lon="104.974891"><ele>598.82275</ele><time>2026-06-18T18:45:55.000Z</time></trkpt>
        <trkpt lat="28.461706" lon="104.974892"><ele>598.8216</ele><time>2026-06-18T18:45:57.000Z</time></trkpt>
        <trkpt lat="28.461679" lon="104.974892"><ele>598.8216</ele><time>2026-06-18T18:45:59.000Z</time></trkpt>
        <trkpt lat="28.461649" lon="104.974893"><ele>598.759</ele><time>2026-06-18T18:46:01.000Z</time></trkpt>
        <trkpt lat="28.461623" lon="104.974892"><ele>598.759</ele><time>2026-06-18T18:46:03.000Z</time></trkpt>
        <trkpt lat="28.461598" lon="104.974891"><ele>598.29865</ele><time>2026-06-18T18:46:05.000Z</time></trkpt>
        <trkpt lat="28.461576" lon="104.974893"><ele>597.8517</ele><time>2026-06-18T18:46:07.000Z</time></trkpt>
        <trkpt lat="28.461557" lon="104.974894"><ele>597.7635</ele><time>2026-06-18T18:46:09.000Z</time></trkpt>
        <trkpt lat="28.461539" lon="104.974893"><ele>597.7635</ele><time>2026-06-18T18:46:11.000Z</time></trkpt>
        <trkpt lat="28.46153" lon="104.974891"><ele>597.7635</ele><time>2026-06-18T18:46:15.000Z</time></trkpt>
        <trkpt lat="28.461501" lon="104.974888"><ele>597.7635</ele><time>2026-06-18T18:46:19.000Z</time></trkpt>
        <trkpt lat="28.461483" lon="104.974891"><ele>597.7635</ele><time>2026-06-18T18:46:21.000Z</time></trkpt>
        <trkpt lat="28.461463" lon="104.974896"><ele>597.77966</ele><time>2026-06-18T18:46:23.000Z</time></trkpt>
        <trkpt lat="28.461448" lon="104.974896"><ele>597.77966</ele><time>2026-06-18T18:46:25.000Z</time></trkpt>
        <trkpt lat="28.461427" lon="104.974889"><ele>597.85144</ele><time>2026-06-18T18:46:27.000Z</time></trkpt>
        <trkpt lat="28.461409" lon="104.974883"><ele>597.8976</ele><time>2026-06-18T18:46:29.000Z</time></trkpt>
        <trkpt lat="28.461389" lon="104.974879"><ele>597.92737</ele><time>2026-06-18T18:46:31.000Z</time></trkpt>
        <trkpt lat="28.461367" lon="104.974875"><ele>597.92737</ele><time>2026-06-18T18:46:33.000Z</time></trkpt>
        <trkpt lat="28.461344" lon="104.97487"><ele>597.91235</ele><time>2026-06-18T18:46:35.000Z</time></trkpt>
        <trkpt lat="28.461323" lon="104.97486"><ele>597.91235</ele><time>2026-06-18T18:46:37.000Z</time></trkpt>
        <trkpt lat="28.461302" lon="104.974847"><ele>597.9135</ele><time>2026-06-18T18:46:39.000Z</time></trkpt>
        <trkpt lat="28.461279" lon="104.97483"><ele>597.92896</ele><time>2026-06-18T18:46:41.000Z</time></trkpt>
        <trkpt lat="28.461254" lon="104.974808"><ele>597.92896</ele><time>2026-06-18T18:46:43.000Z</time></trkpt>
        <trkpt lat="28.461234" lon="104.974786"><ele>597.96515</ele><time>2026-06-18T18:46:45.000Z</time></trkpt>
        <trkpt lat="28.46121" lon="104.97476"><ele>598.0153</ele><time>2026-06-18T18:46:47.000Z</time></trkpt>
        <trkpt lat="28.461189" lon="104.974735"><ele>598.1794</ele><time>2026-06-18T18:46:49.000Z</time></trkpt>
        <trkpt lat="28.461169" lon="104.974713"><ele>598.76483</ele><time>2026-06-18T18:46:51.000Z</time></trkpt>
        <trkpt lat="28.461148" lon="104.974696"><ele>599.3836</ele><time>2026-06-18T18:46:53.000Z</time></trkpt>
        <trkpt lat="28.461126" lon="104.974682"><ele>600.0492</ele><time>2026-06-18T18:46:55.000Z</time></trkpt>
        <trkpt lat="28.461103" lon="104.974671"><ele>600.7773</ele><time>2026-06-18T18:46:57.000Z</time></trkpt>
        <trkpt lat="28.46108" lon="104.974665"><ele>601.1417</ele><time>2026-06-18T18:46:59.000Z</time></trkpt>
        <trkpt lat="28.461057" lon="104.974664"><ele>602.019</ele><time>2026-06-18T18:47:01.000Z</time></trkpt>
        <trkpt lat="28.461038" lon="104.974668"><ele>603.06866</ele><time>2026-06-18T18:47:03.000Z</time></trkpt>
        <trkpt lat="28.461026" lon="104.974672"><ele>603.6935</ele><time>2026-06-18T18:47:05.000Z</time></trkpt>
        <trkpt lat="28.461013" lon="104.974676"><ele>604.2156</ele><time>2026-06-18T18:47:07.000Z</time></trkpt>
        <trkpt lat="28.461009" lon="104.974672"><ele>604.581</ele><time>2026-06-18T18:47:09.000Z</time></trkpt>
        <trkpt lat="28.461046" lon="104.974711"><ele>604.581</ele><time>2026-06-18T18:47:21.000Z</time></trkpt>
        <trkpt lat="28.461049" lon="104.974711"><ele>604.581</ele><time>2026-06-18T18:47:23.000Z</time></trkpt>
        <trkpt lat="28.460999" lon="104.974722"><ele>604.581</ele><time>2026-06-18T18:47:28.000Z</time></trkpt>
        <trkpt lat="28.460999" lon="104.974722"><ele>604.581</ele><time>2026-06-18T18:47:30.000Z</time></trkpt>
        <trkpt lat="28.460995" lon="104.974723"><ele>603.9508</ele><time>2026-06-18T18:47:32.000Z</time></trkpt>
        <trkpt lat="28.46094" lon="104.974737"><ele>603.44336</ele><time>2026-06-18T18:47:36.000Z</time></trkpt>
        <trkpt lat="28.460904" lon="104.974744"><ele>602.8463</ele><time>2026-06-18T18:47:38.000Z</time></trkpt>
        <trkpt lat="28.460866" lon="104.974747"><ele>602.2869</ele><time>2026-06-18T18:47:40.000Z</time></trkpt>
        <trkpt lat="28.460833" lon="104.974747"><ele>602.2698</ele><time>2026-06-18T18:47:42.000Z</time></trkpt>
        <trkpt lat="28.460804" lon="104.974748"><ele>602.1753</ele><time>2026-06-18T18:47:44.000Z</time></trkpt>
        <trkpt lat="28.460778" lon="104.974751"><ele>601.9608</ele><time>2026-06-18T18:47:46.000Z</time></trkpt>
        <trkpt lat="28.460757" lon="104.974755"><ele>601.6513</ele><time>2026-06-18T18:47:48.000Z</time></trkpt>
        <trkpt lat="28.460733" lon="104.97476"><ele>601.3382</ele><time>2026-06-18T18:47:50.000Z</time></trkpt>
        <trkpt lat="28.46071" lon="104.974765"><ele>601.1748</ele><time>2026-06-18T18:47:52.000Z</time></trkpt>
        <trkpt lat="28.46069" lon="104.974773"><ele>601.121</ele><time>2026-06-18T18:47:54.000Z</time></trkpt>
        <trkpt lat="28.460669" lon="104.974783"><ele>601.0305</ele><time>2026-06-18T18:47:56.000Z</time></trkpt>
        <trkpt lat="28.460648" lon="104.974793"><ele>600.7948</ele><time>2026-06-18T18:47:58.000Z</time></trkpt>
        <trkpt lat="28.460627" lon="104.974803"><ele>600.548</ele><time>2026-06-18T18:48:00.000Z</time></trkpt>
        <trkpt lat="28.460608" lon="104.974811"><ele>600.3447</ele><time>2026-06-18T18:48:02.000Z</time></trkpt>
        <trkpt lat="28.460588" lon="104.974818"><ele>600.16547</ele><time>2026-06-18T18:48:04.000Z</time></trkpt>
        <trkpt lat="28.460565" lon="104.974824"><ele>599.9507</ele><time>2026-06-18T18:48:06.000Z</time></trkpt>
        <trkpt lat="28.460543" lon="104.974825"><ele>599.6633</ele><time>2026-06-18T18:48:08.000Z</time></trkpt>
        <trkpt lat="28.460524" lon="104.974826"><ele>599.3097</ele><time>2026-06-18T18:48:10.000Z</time></trkpt>
        <trkpt lat="28.460507" lon="104.974828"><ele>598.9305</ele><time>2026-06-18T18:48:12.000Z</time></trkpt>
        <trkpt lat="28.460487" lon="104.974829"><ele>598.5084</ele><time>2026-06-18T18:48:14.000Z</time></trkpt>
        <trkpt lat="28.460466" lon="104.974829"><ele>597.90924</ele><time>2026-06-18T18:48:16.000Z</time></trkpt>
        <trkpt lat="28.460442" lon="104.974826"><ele>597.3133</ele><time>2026-06-18T18:48:18.000Z</time></trkpt>
        <trkpt lat="28.46042" lon="104.974817"><ele>596.8288</ele><time>2026-06-18T18:48:20.000Z</time></trkpt>
        <trkpt lat="28.460399" lon="104.974803"><ele>596.45544</ele><time>2026-06-18T18:48:22.000Z</time></trkpt>
        <trkpt lat="28.460378" lon="104.974787"><ele>596.1051</ele><time>2026-06-18T18:48:24.000Z</time></trkpt>
        <trkpt lat="28.46036" lon="104.97477"><ele>595.8155</ele><time>2026-06-18T18:48:26.000Z</time></trkpt>
        <trkpt lat="28.46034" lon="104.974755"><ele>595.4685</ele><time>2026-06-18T18:48:28.000Z</time></trkpt>
        <trkpt lat="28.460325" lon="104.974736"><ele>595.22473</ele><time>2026-06-18T18:48:30.000Z</time></trkpt>
        <trkpt lat="28.460322" lon="104.974723"><ele>595.22473</ele><time>2026-06-18T18:48:32.000Z</time></trkpt>
        <trkpt lat="28.460316" lon="104.974703"><ele>595.22473</ele><time>2026-06-18T18:48:34.000Z</time></trkpt>
        <trkpt lat="28.460308" lon="104.974686"><ele>595.22473</ele><time>2026-06-18T18:48:36.000Z</time></trkpt>
        <trkpt lat="28.460298" lon="104.974673"><ele>595.22473</ele><time>2026-06-18T18:48:38.000Z</time></trkpt>
        <trkpt lat="28.460283" lon="104.974661"><ele>595.40845</ele><time>2026-06-18T18:48:40.000Z</time></trkpt>
        <trkpt lat="28.460264" lon="104.974648"><ele>595.67456</ele><time>2026-06-18T18:48:42.000Z</time></trkpt>
        <trkpt lat="28.460239" lon="104.974634"><ele>596.14984</ele><time>2026-06-18T18:48:44.000Z</time></trkpt>
        <trkpt lat="28.460211" lon="104.974614"><ele>597.1071</ele><time>2026-06-18T18:48:46.000Z</time></trkpt>
        <trkpt lat="28.460185" lon="104.974595"><ele>597.7611</ele><time>2026-06-18T18:48:48.000Z</time></trkpt>
        <trkpt lat="28.460159" lon="104.974574"><ele>597.85455</ele><time>2026-06-18T18:48:50.000Z</time></trkpt>
        <trkpt lat="28.460133" lon="104.974554"><ele>598.07684</ele><time>2026-06-18T18:48:52.000Z</time></trkpt>
        <trkpt lat="28.460108" lon="104.974535"><ele>598.4384</ele><time>2026-06-18T18:48:54.000Z</time></trkpt>
        <trkpt lat="28.460087" lon="104.974518"><ele>598.6312</ele><time>2026-06-18T18:48:56.000Z</time></trkpt>
        <trkpt lat="28.460065" lon="104.9745"><ele>598.7694</ele><time>2026-06-18T18:48:58.000Z</time></trkpt>
        <trkpt lat="28.460043" lon="104.974485"><ele>598.89545</ele><time>2026-06-18T18:49:00.000Z</time></trkpt>
        <trkpt lat="28.46002" lon="104.974472"><ele>599.45544</ele><time>2026-06-18T18:49:02.000Z</time></trkpt>
        <trkpt lat="28.459998" lon="104.974459"><ele>600.3287</ele><time>2026-06-18T18:49:04.000Z</time></trkpt>
        <trkpt lat="28.459976" lon="104.974448"><ele>600.8981</ele><time>2026-06-18T18:49:06.000Z</time></trkpt>
        <trkpt lat="28.459954" lon="104.974439"><ele>601.50287</ele><time>2026-06-18T18:49:08.000Z</time></trkpt>
        <trkpt lat="28.459933" lon="104.97443"><ele>602.6661</ele><time>2026-06-18T18:49:10.000Z</time></trkpt>
        <trkpt lat="28.45992" lon="104.974425"><ele>603.9601</ele><time>2026-06-18T18:49:12.000Z</time></trkpt>
        <trkpt lat="28.45992" lon="104.974422"><ele>604.5587</ele><time>2026-06-18T18:49:14.000Z</time></trkpt>
        <trkpt lat="28.459924" lon="104.974502"><ele>605.1137</ele><time>2026-06-18T18:49:32.000Z</time></trkpt>
        <trkpt lat="28.459906" lon="104.974513"><ele>605.1137</ele><time>2026-06-18T18:49:38.000Z</time></trkpt>
        <trkpt lat="28.459906" lon="104.974513"><ele>605.1137</ele><time>2026-06-18T18:49:40.000Z</time></trkpt>
        <trkpt lat="28.45988" lon="104.97441"><ele>605.1137</ele><time>2026-06-18T18:53:32.000Z</time></trkpt>
        <trkpt lat="28.459847" lon="104.974393"><ele>605.1137</ele><time>2026-06-18T18:53:34.000Z</time></trkpt>
        <trkpt lat="28.459828" lon="104.974385"><ele>604.8627</ele><time>2026-06-18T18:53:36.000Z</time></trkpt>
        <trkpt lat="28.459789" lon="104.974368"><ele>604.1527</ele><time>2026-06-18T18:53:39.000Z</time></trkpt>
        <trkpt lat="28.459754" lon="104.974355"><ele>603.4898</ele><time>2026-06-18T18:53:47.000Z</time></trkpt>
        <trkpt lat="28.459725" lon="104.974346"><ele>602.7085</ele><time>2026-06-18T18:53:49.000Z</time></trkpt>
        <trkpt lat="28.459689" lon="104.974338"><ele>602.3216</ele><time>2026-06-18T18:53:51.000Z</time></trkpt>
        <trkpt lat="28.459654" lon="104.974331"><ele>602.2218</ele><time>2026-06-18T18:53:53.000Z</time></trkpt>
        <trkpt lat="28.45962" lon="104.974329"><ele>602.2218</ele><time>2026-06-18T18:53:55.000Z</time></trkpt>
        <trkpt lat="28.459592" lon="104.974331"><ele>602.2218</ele><time>2026-06-18T18:53:57.000Z</time></trkpt>
        <trkpt lat="28.459568" lon="104.974337"><ele>602.4883</ele><time>2026-06-18T18:53:59.000Z</time></trkpt>
        <trkpt lat="28.459544" lon="104.974347"><ele>602.3887</ele><time>2026-06-18T18:54:01.000Z</time></trkpt>
        <trkpt lat="28.459523" lon="104.974361"><ele>602.41736</ele><time>2026-06-18T18:54:03.000Z</time></trkpt>
        <trkpt lat="28.459503" lon="104.974378"><ele>602.41736</ele><time>2026-06-18T18:54:05.000Z</time></trkpt>
        <trkpt lat="28.459483" lon="104.974394"><ele>602.4845</ele><time>2026-06-18T18:54:07.000Z</time></trkpt>
        <trkpt lat="28.459465" lon="104.974411"><ele>602.4845</ele><time>2026-06-18T18:54:09.000Z</time></trkpt>
        <trkpt lat="28.459447" lon="104.974427"><ele>602.4845</ele><time>2026-06-18T18:54:11.000Z</time></trkpt>
        <trkpt lat="28.459428" lon="104.974445"><ele>602.4845</ele><time>2026-06-18T18:54:13.000Z</time></trkpt>
        <trkpt lat="28.459409" lon="104.974463"><ele>602.41736</ele><time>2026-06-18T18:54:15.000Z</time></trkpt>
        <trkpt lat="28.459391" lon="104.974481"><ele>602.3684</ele><time>2026-06-18T18:54:17.000Z</time></trkpt>
        <trkpt lat="28.459381" lon="104.974492"><ele>602.30096</ele><time>2026-06-18T18:54:19.000Z</time></trkpt>
        <trkpt lat="28.459378" lon="104.974497"><ele>602.2282</ele><time>2026-06-18T18:54:21.000Z</time></trkpt>
        <trkpt lat="28.459358" lon="104.974531"><ele>602.2282</ele><time>2026-06-18T18:54:30.000Z</time></trkpt>
        <trkpt lat="28.459358" lon="104.974531"><ele>602.2282</ele><time>2026-06-18T18:54:32.000Z</time></trkpt>
        <trkpt lat="28.459356" lon="104.974533"><ele>602.2282</ele><time>2026-06-18T18:54:34.000Z</time></trkpt>
        <trkpt lat="28.459318" lon="104.974565"><ele>602.2282</ele><time>2026-06-18T18:54:38.000Z</time></trkpt>
        <trkpt lat="28.459293" lon="104.974589"><ele>602.51227</ele><time>2026-06-18T18:54:40.000Z</time></trkpt>
        <trkpt lat="28.459267" lon="104.974613"><ele>602.8363</ele><time>2026-06-18T18:54:42.000Z</time></trkpt>
        <trkpt lat="28.459241" lon="104.974636"><ele>602.85406</ele><time>2026-06-18T18:54:44.000Z</time></trkpt>
        <trkpt lat="28.459216" lon="104.974656"><ele>602.85406</ele><time>2026-06-18T18:54:46.000Z</time></trkpt>
        <trkpt lat="28.459195" lon="104.974673"><ele>602.85406</ele><time>2026-06-18T18:54:48.000Z</time></trkpt>
        <trkpt lat="28.459174" lon="104.974688"><ele>602.85986</ele><time>2026-06-18T18:54:50.000Z</time></trkpt>
        <trkpt lat="28.459156" lon="104.974702"><ele>602.9091</ele><time>2026-06-18T18:54:52.000Z</time></trkpt>
        <trkpt lat="28.459142" lon="104.974713"><ele>602.9606</ele><time>2026-06-18T18:54:54.000Z</time></trkpt>
        <trkpt lat="28.459129" lon="104.974725"><ele>602.9862</ele><time>2026-06-18T18:54:56.000Z</time></trkpt>
        <trkpt lat="28.459125" lon="104.974733"><ele>603.02655</ele><time>2026-06-18T18:54:58.000Z</time></trkpt>
        <trkpt lat="28.459124" lon="104.974736"><ele>603.0889</ele><time>2026-06-18T18:55:00.000Z</time></trkpt>
        <trkpt lat="28.459113" lon="104.97477"><ele>603.18567</ele><time>2026-06-18T18:55:04.000Z</time></trkpt>
        <trkpt lat="28.459113" lon="104.97477"><ele>603.2996</ele><time>2026-06-18T18:55:06.000Z</time></trkpt>
        <trkpt lat="28.459111" lon="104.974772"><ele>603.385</ele><time>2026-06-18T18:55:08.000Z</time></trkpt>
        <trkpt lat="28.45908" lon="104.974803"><ele>603.46606</ele><time>2026-06-18T18:55:12.000Z</time></trkpt>
        <trkpt lat="28.459057" lon="104.974828"><ele>603.9219</ele><time>2026-06-18T18:55:14.000Z</time></trkpt>
        <trkpt lat="28.459035" lon="104.974853"><ele>604.36426</ele><time>2026-06-18T18:55:16.000Z</time></trkpt>
        <trkpt lat="28.459014" lon="104.974879"><ele>604.3776</ele><time>2026-06-18T18:55:18.000Z</time></trkpt>
        <trkpt lat="28.458998" lon="104.974905"><ele>604.506</ele><time>2026-06-18T18:55:20.000Z</time></trkpt>
        <trkpt lat="28.458987" lon="104.974929"><ele>605.0492</ele><time>2026-06-18T18:55:22.000Z</time></trkpt>
        <trkpt lat="28.458977" lon="104.974953"><ele>605.7786</ele><time>2026-06-18T18:55:24.000Z</time></trkpt>
        <trkpt lat="28.458966" lon="104.974979"><ele>606.4373</ele><time>2026-06-18T18:55:26.000Z</time></trkpt>
        <trkpt lat="28.458957" lon="104.975003"><ele>606.90894</ele><time>2026-06-18T18:55:28.000Z</time></trkpt>
        <trkpt lat="28.458949" lon="104.975025"><ele>607.19293</ele><time>2026-06-18T18:55:30.000Z</time></trkpt>
        <trkpt lat="28.458941" lon="104.975047"><ele>607.6158</ele><time>2026-06-18T18:55:32.000Z</time></trkpt>
        <trkpt lat="28.458935" lon="104.97507"><ele>607.9839</ele><time>2026-06-18T18:55:34.000Z</time></trkpt>
        <trkpt lat="28.45893" lon="104.975093"><ele>608.10236</ele><time>2026-06-18T18:55:36.000Z</time></trkpt>
        <trkpt lat="28.458924" lon="104.975115"><ele>608.1925</ele><time>2026-06-18T18:55:38.000Z</time></trkpt>
        <trkpt lat="28.458919" lon="104.975135"><ele>608.28485</ele><time>2026-06-18T18:55:40.000Z</time></trkpt>
        <trkpt lat="28.458913" lon="104.975159"><ele>608.4659</ele><time>2026-06-18T18:55:42.000Z</time></trkpt>
        <trkpt lat="28.458907" lon="104.97518"><ele>608.79895</ele><time>2026-06-18T18:55:44.000Z</time></trkpt>
        <trkpt lat="28.4589" lon="104.975204"><ele>609.0619</ele><time>2026-06-18T18:55:46.000Z</time></trkpt>
        <trkpt lat="28.458894" lon="104.975226"><ele>609.3206</ele><time>2026-06-18T18:55:48.000Z</time></trkpt>
        <trkpt lat="28.458887" lon="104.975249"><ele>609.7136</ele><time>2026-06-18T18:55:50.000Z</time></trkpt>
        <trkpt lat="28.458879" lon="104.975276"><ele>609.99066</ele><time>2026-06-18T18:55:52.000Z</time></trkpt>
        <trkpt lat="28.458875" lon="104.975305"><ele>610.19855</ele><time>2026-06-18T18:55:54.000Z</time></trkpt>
        <trkpt lat="28.458872" lon="104.975332"><ele>610.53375</ele><time>2026-06-18T18:55:56.000Z</time></trkpt>
        <trkpt lat="28.45887" lon="104.975358"><ele>610.8285</ele><time>2026-06-18T18:55:58.000Z</time></trkpt>
        <trkpt lat="28.45887" lon="104.975384"><ele>611.1329</ele><time>2026-06-18T18:56:00.000Z</time></trkpt>
        <trkpt lat="28.458872" lon="104.975407"><ele>611.645</ele><time>2026-06-18T18:56:02.000Z</time></trkpt>
        <trkpt lat="28.458874" lon="104.975432"><ele>612.1855</ele><time>2026-06-18T18:56:04.000Z</time></trkpt>
        <trkpt lat="28.458878" lon="104.975451"><ele>612.67566</ele><time>2026-06-18T18:56:06.000Z</time></trkpt>
        <trkpt lat="28.458882" lon="104.975463"><ele>612.96875</ele><time>2026-06-18T18:56:08.000Z</time></trkpt>
        <trkpt lat="28.45889" lon="104.975483"><ele>613.30396</ele><time>2026-06-18T18:56:10.000Z</time></trkpt>
        <trkpt lat="28.458899" lon="104.975509"><ele>613.87964</ele><time>2026-06-18T18:56:12.000Z</time></trkpt>
        <trkpt lat="28.458906" lon="104.975537"><ele>614.1223</ele><time>2026-06-18T18:56:14.000Z</time></trkpt>
        <trkpt lat="28.458914" lon="104.975567"><ele>614.1223</ele><time>2026-06-18T18:56:16.000Z</time></trkpt>
        <trkpt lat="28.458923" lon="104.975591"><ele>614.1223</ele><time>2026-06-18T18:56:18.000Z</time></trkpt>
        <trkpt lat="28.458935" lon="104.975616"><ele>614.1223</ele><time>2026-06-18T18:56:20.000Z</time></trkpt>
        <trkpt lat="28.458947" lon="104.975642"><ele>614.1223</ele><time>2026-06-18T18:56:22.000Z</time></trkpt>
        <trkpt lat="28.458957" lon="104.975667"><ele>614.04083</ele><time>2026-06-18T18:56:24.000Z</time></trkpt>
        <trkpt lat="28.458968" lon="104.975691"><ele>613.75726</ele><time>2026-06-18T18:56:26.000Z</time></trkpt>
        <trkpt lat="28.458978" lon="104.975713"><ele>613.30707</ele><time>2026-06-18T18:56:28.000Z</time></trkpt>
        <trkpt lat="28.458991" lon="104.975736"><ele>613.01385</ele><time>2026-06-18T18:56:30.000Z</time></trkpt>
        <trkpt lat="28.459005" lon="104.975761"><ele>612.7932</ele><time>2026-06-18T18:56:32.000Z</time></trkpt>
        <trkpt lat="28.459019" lon="104.975782"><ele>612.432</ele><time>2026-06-18T18:56:34.000Z</time></trkpt>
        <trkpt lat="28.459034" lon="104.975809"><ele>612.1851</ele><time>2026-06-18T18:56:36.000Z</time></trkpt>
        <trkpt lat="28.459045" lon="104.975831"><ele>611.9962</ele><time>2026-06-18T18:56:38.000Z</time></trkpt>
        <trkpt lat="28.459052" lon="104.975853"><ele>611.6181</ele><time>2026-06-18T18:56:40.000Z</time></trkpt>
        <trkpt lat="28.45906" lon="104.975871"><ele>611.4099</ele><time>2026-06-18T18:56:42.000Z</time></trkpt>
        <trkpt lat="28.459064" lon="104.975893"><ele>611.40765</ele><time>2026-06-18T18:56:44.000Z</time></trkpt>
        <trkpt lat="28.459068" lon="104.975909"><ele>611.40765</ele><time>2026-06-18T18:56:46.000Z</time></trkpt>
        <trkpt lat="28.459076" lon="104.975931"><ele>611.40765</ele><time>2026-06-18T18:56:48.000Z</time></trkpt>
        <trkpt lat="28.45909" lon="104.97596"><ele>611.40765</ele><time>2026-06-18T18:56:50.000Z</time></trkpt>
        <trkpt lat="28.459102" lon="104.975986"><ele>611.4458</ele><time>2026-06-18T18:56:52.000Z</time></trkpt>
        <trkpt lat="28.459113" lon="104.976012"><ele>611.45917</ele><time>2026-06-18T18:56:54.000Z</time></trkpt>
        <trkpt lat="28.459122" lon="104.976038"><ele>611.45917</ele><time>2026-06-18T18:56:56.000Z</time></trkpt>
        <trkpt lat="28.45913" lon="104.976065"><ele>611.45917</ele><time>2026-06-18T18:56:58.000Z</time></trkpt>
        <trkpt lat="28.459135" lon="104.976095"><ele>611.45917</ele><time>2026-06-18T18:57:00.000Z</time></trkpt>
        <trkpt lat="28.459136" lon="104.976119"><ele>611.4569</ele><time>2026-06-18T18:57:02.000Z</time></trkpt>
        <trkpt lat="28.459133" lon="104.976146"><ele>611.37256</ele><time>2026-06-18T18:57:04.000Z</time></trkpt>
        <trkpt lat="28.459126" lon="104.976174"><ele>611.23004</ele><time>2026-06-18T18:57:06.000Z</time></trkpt>
        <trkpt lat="28.459117" lon="104.976203"><ele>610.98676</ele><time>2026-06-18T18:57:08.000Z</time></trkpt>
        <trkpt lat="28.459106" lon="104.976229"><ele>610.6539</ele><time>2026-06-18T18:57:10.000Z</time></trkpt>
        <trkpt lat="28.459093" lon="104.976257"><ele>610.5626</ele><time>2026-06-18T18:57:12.000Z</time></trkpt>
        <trkpt lat="28.459085" lon="104.976275"><ele>610.5626</ele><time>2026-06-18T18:57:14.000Z</time></trkpt>
        <trkpt lat="28.45908" lon="104.976276"><ele>610.5626</ele><time>2026-06-18T18:57:16.000Z</time></trkpt>
        <trkpt lat="28.459062" lon="104.976281"><ele>610.5626</ele><time>2026-06-18T18:57:32.000Z</time></trkpt>
        <trkpt lat="28.459055" lon="104.976313"><ele>610.5626</ele><time>2026-06-18T18:57:46.000Z</time></trkpt>
        <trkpt lat="28.459052" lon="104.976315"><ele>610.6645</ele><time>2026-06-18T18:57:47.000Z</time></trkpt>
        <trkpt lat="28.459024" lon="104.976343"><ele>610.74066</ele><time>2026-06-18T18:57:50.000Z</time></trkpt>
        <trkpt lat="28.459024" lon="104.976343"><ele>610.7697</ele><time>2026-06-18T18:57:52.000Z</time></trkpt>
        <trkpt lat="28.459021" lon="104.976346"><ele>610.7882</ele><time>2026-06-18T18:57:54.000Z</time></trkpt>
        <trkpt lat="28.458983" lon="104.976387"><ele>610.84375</ele><time>2026-06-18T18:57:58.000Z</time></trkpt>
        <trkpt lat="28.458952" lon="104.976412"><ele>611.0269</ele><time>2026-06-18T18:58:00.000Z</time></trkpt>
        <trkpt lat="28.458885" lon="104.97647"><ele>611.18317</ele><time>2026-06-18T18:58:04.000Z</time></trkpt>
        <trkpt lat="28.458885" lon="104.97647"><ele>611.20685</ele><time>2026-06-18T18:58:06.000Z</time></trkpt>
        <trkpt lat="28.458882" lon="104.976473"><ele>611.29956</ele><time>2026-06-18T18:58:08.000Z</time></trkpt>
        <trkpt lat="28.458849" lon="104.976503"><ele>611.4222</ele><time>2026-06-18T18:58:12.000Z</time></trkpt>
        <trkpt lat="28.458826" lon="104.976523"><ele>611.505</ele><time>2026-06-18T18:58:14.000Z</time></trkpt>
        <trkpt lat="28.458798" lon="104.976543"><ele>611.57275</ele><time>2026-06-18T18:58:16.000Z</time></trkpt>
        <trkpt lat="28.458772" lon="104.976561"><ele>611.6328</ele><time>2026-06-18T18:58:18.000Z</time></trkpt>
        <trkpt lat="28.458748" lon="104.976575"><ele>611.75165</ele><time>2026-06-18T18:58:20.000Z</time></trkpt>
        <trkpt lat="28.458727" lon="104.976586"><ele>611.8514</ele><time>2026-06-18T18:58:22.000Z</time></trkpt>
        <trkpt lat="28.458711" lon="104.976596"><ele>611.8774</ele><time>2026-06-18T18:58:24.000Z</time></trkpt>
        <trkpt lat="28.458694" lon="104.976608"><ele>612.0947</ele><time>2026-06-18T18:58:26.000Z</time></trkpt>
        <trkpt lat="28.458676" lon="104.976618"><ele>612.47034</ele><time>2026-06-18T18:58:28.000Z</time></trkpt>
        <trkpt lat="28.458657" lon="104.97663"><ele>612.9228</ele><time>2026-06-18T18:58:30.000Z</time></trkpt>
        <trkpt lat="28.45864" lon="104.976641"><ele>613.4325</ele><time>2026-06-18T18:58:32.000Z</time></trkpt>
        <trkpt lat="28.458621" lon="104.976652"><ele>613.8785</ele><time>2026-06-18T18:58:34.000Z</time></trkpt>
        <trkpt lat="28.45861" lon="104.976654"><ele>614.3952</ele><time>2026-06-18T18:58:36.000Z</time></trkpt>
        <trkpt lat="28.458602" lon="104.976658"><ele>615.0431</ele><time>2026-06-18T18:58:38.000Z</time></trkpt>
        <trkpt lat="28.458585" lon="104.976671"><ele>615.8212</ele><time>2026-06-18T18:58:42.000Z</time></trkpt>
        <trkpt lat="28.458574" lon="104.976683"><ele>616.6032</ele><time>2026-06-18T18:58:44.000Z</time></trkpt>
        <trkpt lat="28.458559" lon="104.9767"><ele>617.1757</ele><time>2026-06-18T18:58:46.000Z</time></trkpt>
        <trkpt lat="28.45854" lon="104.976721"><ele>617.48724</ele><time>2026-06-18T18:58:48.000Z</time></trkpt>
        <trkpt lat="28.458519" lon="104.976741"><ele>617.91846</ele><time>2026-06-18T18:58:50.000Z</time></trkpt>
        <trkpt lat="28.458498" lon="104.976755"><ele>618.4006</ele><time>2026-06-18T18:58:52.000Z</time></trkpt>
        <trkpt lat="28.458478" lon="104.976763"><ele>618.6762</ele><time>2026-06-18T18:58:54.000Z</time></trkpt>
        <trkpt lat="28.458469" lon="104.97676"><ele>619.0039</ele><time>2026-06-18T18:58:56.000Z</time></trkpt>
        <trkpt lat="28.458458" lon="104.976755"><ele>619.45575</ele><time>2026-06-18T18:58:58.000Z</time></trkpt>
        <trkpt lat="28.458449" lon="104.976755"><ele>619.9138</ele><time>2026-06-18T18:59:00.000Z</time></trkpt>
        <trkpt lat="28.458435" lon="104.976756"><ele>620.4229</ele><time>2026-06-18T18:59:02.000Z</time></trkpt>
        <trkpt lat="28.458421" lon="104.976759"><ele>620.907</ele><time>2026-06-18T18:59:04.000Z</time></trkpt>
        <trkpt lat="28.458404" lon="104.976765"><ele>621.34546</ele><time>2026-06-18T18:59:06.000Z</time></trkpt>
        <trkpt lat="28.458382" lon="104.976773"><ele>621.7471</ele><time>2026-06-18T18:59:08.000Z</time></trkpt>
        <trkpt lat="28.45836" lon="104.97678"><ele>622.19495</ele><time>2026-06-18T18:59:10.000Z</time></trkpt>
        <trkpt lat="28.45834" lon="104.976785"><ele>622.67065</ele><time>2026-06-18T18:59:12.000Z</time></trkpt>
        <trkpt lat="28.458318" lon="104.976791"><ele>623.0613</ele><time>2026-06-18T18:59:14.000Z</time></trkpt>
        <trkpt lat="28.458292" lon="104.976798"><ele>623.6418</ele><time>2026-06-18T18:59:16.000Z</time></trkpt>
        <trkpt lat="28.458267" lon="104.976804"><ele>624.3444</ele><time>2026-06-18T18:59:18.000Z</time></trkpt>
        <trkpt lat="28.458245" lon="104.976809"><ele>625.0527</ele><time>2026-06-18T18:59:20.000Z</time></trkpt>
        <trkpt lat="28.458224" lon="104.976811"><ele>625.6328</ele><time>2026-06-18T18:59:22.000Z</time></trkpt>
        <trkpt lat="28.458205" lon="104.976812"><ele>626.24005</ele><time>2026-06-18T18:59:24.000Z</time></trkpt>
        <trkpt lat="28.458186" lon="104.976812"><ele>626.82434</ele><time>2026-06-18T18:59:26.000Z</time></trkpt>
        <trkpt lat="28.458164" lon="104.976812"><ele>627.1412</ele><time>2026-06-18T18:59:28.000Z</time></trkpt>
        <trkpt lat="28.458143" lon="104.976813"><ele>627.3063</ele><time>2026-06-18T18:59:30.000Z</time></trkpt>
        <trkpt lat="28.458121" lon="104.976812"><ele>627.4385</ele><time>2026-06-18T18:59:32.000Z</time></trkpt>
        <trkpt lat="28.458102" lon="104.976811"><ele>627.6094</ele><time>2026-06-18T18:59:34.000Z</time></trkpt>
        <trkpt lat="28.458082" lon="104.976808"><ele>627.76965</ele><time>2026-06-18T18:59:36.000Z</time></trkpt>
        <trkpt lat="28.458062" lon="104.976803"><ele>628.0316</ele><time>2026-06-18T18:59:38.000Z</time></trkpt>
        <trkpt lat="28.458042" lon="104.9768"><ele>628.41675</ele><time>2026-06-18T18:59:40.000Z</time></trkpt>
        <trkpt lat="28.458017" lon="104.976797"><ele>628.71875</ele><time>2026-06-18T18:59:42.000Z</time></trkpt>
        <trkpt lat="28.45799" lon="104.976794"><ele>628.9085</ele><time>2026-06-18T18:59:44.000Z</time></trkpt>
        <trkpt lat="28.457963" lon="104.976789"><ele>629.16565</ele><time>2026-06-18T18:59:46.000Z</time></trkpt>
        <trkpt lat="28.457937" lon="104.976785"><ele>629.43</ele><time>2026-06-18T18:59:48.000Z</time></trkpt>
        <trkpt lat="28.457912" lon="104.976781"><ele>629.73566</ele><time>2026-06-18T18:59:50.000Z</time></trkpt>
        <trkpt lat="28.457885" lon="104.976776"><ele>630.0762</ele><time>2026-06-18T18:59:52.000Z</time></trkpt>
        <trkpt lat="28.457861" lon="104.97677"><ele>630.307</ele><time>2026-06-18T18:59:54.000Z</time></trkpt>
        <trkpt lat="28.457842" lon="104.976768"><ele>630.6876</ele><time>2026-06-18T18:59:56.000Z</time></trkpt>
        <trkpt lat="28.457817" lon="104.976763"><ele>631.0462</ele><time>2026-06-18T18:59:58.000Z</time></trkpt>
        <trkpt lat="28.457799" lon="104.976763"><ele>631.31384</ele><time>2026-06-18T19:00:00.000Z</time></trkpt>
        <trkpt lat="28.457785" lon="104.976763"><ele>631.64246</ele><time>2026-06-18T19:00:02.000Z</time></trkpt>
        <trkpt lat="28.45777" lon="104.976763"><ele>631.9142</ele><time>2026-06-18T19:00:04.000Z</time></trkpt>
        <trkpt lat="28.457751" lon="104.976765"><ele>632.2494</ele><time>2026-06-18T19:00:06.000Z</time></trkpt>
        <trkpt lat="28.457727" lon="104.976769"><ele>632.4998</ele><time>2026-06-18T19:00:08.000Z</time></trkpt>
        <trkpt lat="28.457706" lon="104.976775"><ele>632.60754</ele><time>2026-06-18T19:00:10.000Z</time></trkpt>
        <trkpt lat="28.457693" lon="104.976785"><ele>632.6731</ele><time>2026-06-18T19:00:12.000Z</time></trkpt>
        <trkpt lat="28.457679" lon="104.976806"><ele>632.79675</ele><time>2026-06-18T19:00:14.000Z</time></trkpt>
        <trkpt lat="28.457673" lon="104.976825"><ele>633.1034</ele><time>2026-06-18T19:00:16.000Z</time></trkpt>
        <trkpt lat="28.457666" lon="104.976858"><ele>633.66736</ele><time>2026-06-18T19:00:18.000Z</time></trkpt>
        <trkpt lat="28.457659" lon="104.976894"><ele>634.2446</ele><time>2026-06-18T19:00:20.000Z</time></trkpt>
        <trkpt lat="28.457653" lon="104.976925"><ele>634.7679</ele><time>2026-06-18T19:00:22.000Z</time></trkpt>
        <trkpt lat="28.457647" lon="104.976954"><ele>635.2309</ele><time>2026-06-18T19:00:24.000Z</time></trkpt>
        <trkpt lat="28.457644" lon="104.976982"><ele>635.4096</ele><time>2026-06-18T19:00:26.000Z</time></trkpt>
        <trkpt lat="28.457645" lon="104.977013"><ele>635.50073</ele><time>2026-06-18T19:00:28.000Z</time></trkpt>
        <trkpt lat="28.457649" lon="104.977044"><ele>635.65466</ele><time>2026-06-18T19:00:30.000Z</time></trkpt>
        <trkpt lat="28.457658" lon="104.977069"><ele>635.7502</ele><time>2026-06-18T19:00:32.000Z</time></trkpt>
        <trkpt lat="28.457666" lon="104.977082"><ele>635.8134</ele><time>2026-06-18T19:00:34.000Z</time></trkpt>
        <trkpt lat="28.457681" lon="104.9771"><ele>635.87103</ele><time>2026-06-18T19:00:36.000Z</time></trkpt>
        <trkpt lat="28.457698" lon="104.977114"><ele>635.9533</ele><time>2026-06-18T19:00:38.000Z</time></trkpt>
        <trkpt lat="28.457713" lon="104.977116"><ele>636.05554</ele><time>2026-06-18T19:00:40.000Z</time></trkpt>
        <trkpt lat="28.457736" lon="104.977115"><ele>636.1023</ele><time>2026-06-18T19:00:42.000Z</time></trkpt>
        <trkpt lat="28.45776" lon="104.977113"><ele>636.1023</ele><time>2026-06-18T19:00:44.000Z</time></trkpt>
        <trkpt lat="28.457787" lon="104.977112"><ele>636.1023</ele><time>2026-06-18T19:00:46.000Z</time></trkpt>
        <trkpt lat="28.457813" lon="104.977111"><ele>636.1023</ele><time>2026-06-18T19:00:48.000Z</time></trkpt>
        <trkpt lat="28.457828" lon="104.977116"><ele>636.08765</ele><time>2026-06-18T19:00:50.000Z</time></trkpt>
        <trkpt lat="28.457836" lon="104.977123"><ele>635.7019</ele><time>2026-06-18T19:00:52.000Z</time></trkpt>
        <trkpt lat="28.457847" lon="104.977134"><ele>634.8967</ele><time>2026-06-18T19:00:54.000Z</time></trkpt>
        <trkpt lat="28.457862" lon="104.977146"><ele>634.0858</ele><time>2026-06-18T19:00:56.000Z</time></trkpt>
        <trkpt lat="28.457878" lon="104.977162"><ele>633.3586</ele><time>2026-06-18T19:00:58.000Z</time></trkpt>
        <trkpt lat="28.457897" lon="104.977179"><ele>632.5866</ele><time>2026-06-18T19:01:00.000Z</time></trkpt>
        <trkpt lat="28.457917" lon="104.977196"><ele>631.79395</ele><time>2026-06-18T19:01:02.000Z</time></trkpt>
        <trkpt lat="28.457939" lon="104.977214"><ele>631.1486</ele><time>2026-06-18T19:01:04.000Z</time></trkpt>
        <trkpt lat="28.457961" lon="104.977229"><ele>630.79236</ele><time>2026-06-18T19:01:06.000Z</time></trkpt>
        <trkpt lat="28.457981" lon="104.977241"><ele>630.63745</ele><time>2026-06-18T19:01:08.000Z</time></trkpt>
        <trkpt lat="28.458001" lon="104.977254"><ele>630.4224</ele><time>2026-06-18T19:01:10.000Z</time></trkpt>
        <trkpt lat="28.458018" lon="104.977264"><ele>630.0093</ele><time>2026-06-18T19:01:12.000Z</time></trkpt>
        <trkpt lat="28.458039" lon="104.977276"><ele>629.3256</ele><time>2026-06-18T19:01:14.000Z</time></trkpt>
        <trkpt lat="28.458059" lon="104.977289"><ele>628.5889</ele><time>2026-06-18T19:01:16.000Z</time></trkpt>
        <trkpt lat="28.458081" lon="104.977303"><ele>628.0027</ele><time>2026-06-18T19:01:18.000Z</time></trkpt>
        <trkpt lat="28.458104" lon="104.977322"><ele>627.35815</ele><time>2026-06-18T19:01:20.000Z</time></trkpt>
        <trkpt lat="28.458117" lon="104.977339"><ele>626.7023</ele><time>2026-06-18T19:01:22.000Z</time></trkpt>
        <trkpt lat="28.458129" lon="104.97736"><ele>626.08185</ele><time>2026-06-18T19:01:24.000Z</time></trkpt>
        <trkpt lat="28.458137" lon="104.977382"><ele>625.55994</ele><time>2026-06-18T19:01:26.000Z</time></trkpt>
        <trkpt lat="28.458145" lon="104.977403"><ele>625.1399</ele><time>2026-06-18T19:01:28.000Z</time></trkpt>
        <trkpt lat="28.458157" lon="104.977424"><ele>624.9036</ele><time>2026-06-18T19:01:30.000Z</time></trkpt>
        <trkpt lat="28.458169" lon="104.977444"><ele>624.9036</ele><time>2026-06-18T19:01:32.000Z</time></trkpt>
        <trkpt lat="28.45818" lon="104.977463"><ele>624.9036</ele><time>2026-06-18T19:01:34.000Z</time></trkpt>
        <trkpt lat="28.458194" lon="104.977483"><ele>624.9036</ele><time>2026-06-18T19:01:36.000Z</time></trkpt>
        <trkpt lat="28.458209" lon="104.977508"><ele>624.9036</ele><time>2026-06-18T19:01:38.000Z</time></trkpt>
        <trkpt lat="28.458219" lon="104.97753"><ele>625.01697</ele><time>2026-06-18T19:01:40.000Z</time></trkpt>
        <trkpt lat="28.458227" lon="104.977553"><ele>625.2532</ele><time>2026-06-18T19:01:42.000Z</time></trkpt>
        <trkpt lat="28.458232" lon="104.977571"><ele>625.3768</ele><time>2026-06-18T19:01:44.000Z</time></trkpt>
        <trkpt lat="28.458234" lon="104.977586"><ele>625.41626</ele><time>2026-06-18T19:01:46.000Z</time></trkpt>
        <trkpt lat="28.458235" lon="104.977606"><ele>625.41626</ele><time>2026-06-18T19:01:48.000Z</time></trkpt>
        <trkpt lat="28.458235" lon="104.977634"><ele>625.4419</ele><time>2026-06-18T19:01:50.000Z</time></trkpt>
        <trkpt lat="28.458236" lon="104.977664"><ele>625.4718</ele><time>2026-06-18T19:01:52.000Z</time></trkpt>
        <trkpt lat="28.458243" lon="104.977686"><ele>625.51776</ele><time>2026-06-18T19:01:54.000Z</time></trkpt>
        <trkpt lat="28.458251" lon="104.977716"><ele>625.56055</ele><time>2026-06-18T19:01:56.000Z</time></trkpt>
        <trkpt lat="28.458252" lon="104.977738"><ele>625.562</ele><time>2026-06-18T19:01:58.000Z</time></trkpt>
        <trkpt lat="28.458248" lon="104.977751"><ele>625.63434</ele><time>2026-06-18T19:02:00.000Z</time></trkpt>
        <trkpt lat="28.458244" lon="104.977769"><ele>625.8415</ele><time>2026-06-18T19:02:02.000Z</time></trkpt>
        <trkpt lat="28.458237" lon="104.977801"><ele>625.93</ele><time>2026-06-18T19:02:04.000Z</time></trkpt>
        <trkpt lat="28.458231" lon="104.977828"><ele>625.97284</ele><time>2026-06-18T19:02:06.000Z</time></trkpt>
        <trkpt lat="28.458223" lon="104.977851"><ele>625.9945</ele><time>2026-06-18T19:02:08.000Z</time></trkpt>
        <trkpt lat="28.458214" lon="104.977879"><ele>626.0725</ele><time>2026-06-18T19:02:10.000Z</time></trkpt>
        <trkpt lat="28.458207" lon="104.977903"><ele>626.2557</ele><time>2026-06-18T19:02:12.000Z</time></trkpt>
        <trkpt lat="28.458198" lon="104.977922"><ele>626.53503</ele><time>2026-06-18T19:02:14.000Z</time></trkpt>
        <trkpt lat="28.458186" lon="104.977943"><ele>626.80695</ele><time>2026-06-18T19:02:16.000Z</time></trkpt>
        <trkpt lat="28.458172" lon="104.977958"><ele>626.97894</ele><time>2026-06-18T19:02:18.000Z</time></trkpt>
        <trkpt lat="28.458162" lon="104.977968"><ele>627.149</ele><time>2026-06-18T19:02:20.000Z</time></trkpt>
        <trkpt lat="28.458149" lon="104.977981"><ele>627.3598</ele><time>2026-06-18T19:02:21.000Z</time></trkpt>
        <trkpt lat="28.458135" lon="104.977994"><ele>627.5249</ele><time>2026-06-18T19:02:23.000Z</time></trkpt>
        <trkpt lat="28.458116" lon="104.978006"><ele>627.64105</ele><time>2026-06-18T19:02:25.000Z</time></trkpt>
        <trkpt lat="28.458095" lon="104.978014"><ele>627.7916</ele><time>2026-06-18T19:02:27.000Z</time></trkpt>
        <trkpt lat="28.458077" lon="104.978021"><ele>627.96716</ele><time>2026-06-18T19:02:29.000Z</time></trkpt>
        <trkpt lat="28.458062" lon="104.97802"><ele>628.1909</ele><time>2026-06-18T19:02:31.000Z</time></trkpt>
        <trkpt lat="28.458041" lon="104.978023"><ele>628.4812</ele><time>2026-06-18T19:02:33.000Z</time></trkpt>
        <trkpt lat="28.458021" lon="104.978029"><ele>628.75446</ele><time>2026-06-18T19:02:35.000Z</time></trkpt>
        <trkpt lat="28.458004" lon="104.978031"><ele>629.09344</ele><time>2026-06-18T19:02:37.000Z</time></trkpt>
        <trkpt lat="28.45798" lon="104.978025"><ele>629.5736</ele><time>2026-06-18T19:02:39.000Z</time></trkpt>
        <trkpt lat="28.457953" lon="104.978013"><ele>630.16626</ele><time>2026-06-18T19:02:41.000Z</time></trkpt>
        <trkpt lat="28.457925" lon="104.977997"><ele>630.71014</ele><time>2026-06-18T19:02:44.000Z</time></trkpt>
        <trkpt lat="28.457901" lon="104.977982"><ele>631.0338</ele><time>2026-06-18T19:02:46.000Z</time></trkpt>
        <trkpt lat="28.45788" lon="104.977967"><ele>631.1844</ele><time>2026-06-18T19:02:48.000Z</time></trkpt>
        <trkpt lat="28.457867" lon="104.977954"><ele>631.25305</ele><time>2026-06-18T19:02:50.000Z</time></trkpt>
        <trkpt lat="28.457862" lon="104.977941"><ele>631.2863</ele><time>2026-06-18T19:02:52.000Z</time></trkpt>
        <trkpt lat="28.457856" lon="104.977925"><ele>631.37885</ele><time>2026-06-18T19:02:56.000Z</time></trkpt>
        <trkpt lat="28.457845" lon="104.97791"><ele>631.6857</ele><time>2026-06-18T19:03:00.000Z</time></trkpt>
        <trkpt lat="28.457834" lon="104.977895"><ele>632.181</ele><time>2026-06-18T19:03:02.000Z</time></trkpt>
        <trkpt lat="28.457816" lon="104.977879"><ele>632.6605</ele><time>2026-06-18T19:03:04.000Z</time></trkpt>
        <trkpt lat="28.457791" lon="104.977862"><ele>633.29803</ele><time>2026-06-18T19:03:06.000Z</time></trkpt>
        <trkpt lat="28.457762" lon="104.977851"><ele>634.00507</ele><time>2026-06-18T19:03:08.000Z</time></trkpt>
        <trkpt lat="28.457734" lon="104.977846"><ele>634.79224</ele><time>2026-06-18T19:03:10.000Z</time></trkpt>
        <trkpt lat="28.457706" lon="104.977843"><ele>635.62115</ele><time>2026-06-18T19:03:12.000Z</time></trkpt>
        <trkpt lat="28.457684" lon="104.97784"><ele>636.0244</ele><time>2026-06-18T19:03:14.000Z</time></trkpt>
        <trkpt lat="28.45766" lon="104.977837"><ele>636.33136</ele><time>2026-06-18T19:03:16.000Z</time></trkpt>
        <trkpt lat="28.457638" lon="104.977834"><ele>636.6907</ele><time>2026-06-18T19:03:18.000Z</time></trkpt>
        <trkpt lat="28.457622" lon="104.977833"><ele>637.3766</ele><time>2026-06-18T19:03:20.000Z</time></trkpt>
        <trkpt lat="28.457605" lon="104.977829"><ele>638.1189</ele><time>2026-06-18T19:03:22.000Z</time></trkpt>
        <trkpt lat="28.45758" lon="104.977824"><ele>638.51843</ele><time>2026-06-18T19:03:24.000Z</time></trkpt>
        <trkpt lat="28.457556" lon="104.977816"><ele>639.16034</ele><time>2026-06-18T19:03:26.000Z</time></trkpt>
        <trkpt lat="28.457535" lon="104.977807"><ele>639.67523</ele><time>2026-06-18T19:03:28.000Z</time></trkpt>
        <trkpt lat="28.457509" lon="104.977797"><ele>639.92535</ele><time>2026-06-18T19:03:30.000Z</time></trkpt>
        <trkpt lat="28.457485" lon="104.977795"><ele>640.5971</ele><time>2026-06-18T19:03:32.000Z</time></trkpt>
        <trkpt lat="28.457462" lon="104.977792"><ele>641.1471</ele><time>2026-06-18T19:03:34.000Z</time></trkpt>
        <trkpt lat="28.45744" lon="104.97779"><ele>641.4349</ele><time>2026-06-18T19:03:36.000Z</time></trkpt>
        <trkpt lat="28.457416" lon="104.977791"><ele>642.17255</ele><time>2026-06-18T19:03:38.000Z</time></trkpt>
        <trkpt lat="28.457389" lon="104.97779"><ele>642.7287</ele><time>2026-06-18T19:03:40.000Z</time></trkpt>
        <trkpt lat="28.457364" lon="104.977786"><ele>642.8587</ele><time>2026-06-18T19:03:42.000Z</time></trkpt>
        <trkpt lat="28.457343" lon="104.977779"><ele>643.17664</ele><time>2026-06-18T19:03:44.000Z</time></trkpt>
        <trkpt lat="28.457325" lon="104.977771"><ele>643.833</ele><time>2026-06-18T19:03:46.000Z</time></trkpt>
        <trkpt lat="28.45729" lon="104.977756"><ele>644.42303</ele><time>2026-06-18T19:03:50.000Z</time></trkpt>
        <trkpt lat="28.457274" lon="104.977799"><ele>644.8594</ele><time>2026-06-18T19:03:54.000Z</time></trkpt>
        <trkpt lat="28.457268" lon="104.977812"><ele>646.0152</ele><time>2026-06-18T19:03:56.000Z</time></trkpt>
        <trkpt lat="28.457255" lon="104.977838"><ele>647.2262</ele><time>2026-06-18T19:04:00.000Z</time></trkpt>
        <trkpt lat="28.457244" lon="104.977863"><ele>648.38617</ele><time>2026-06-18T19:04:02.000Z</time></trkpt>
        <trkpt lat="28.457225" lon="104.977907"><ele>649.7448</ele><time>2026-06-18T19:04:04.000Z</time></trkpt>
        <trkpt lat="28.457217" lon="104.977951"><ele>650.4349</ele><time>2026-06-18T19:04:06.000Z</time></trkpt>
        <trkpt lat="28.457192" lon="104.978104"><ele>650.6656</ele><time>2026-06-18T19:04:10.000Z</time></trkpt>
        <trkpt lat="28.457192" lon="104.978104"><ele>650.7553</ele><time>2026-06-18T19:04:12.000Z</time></trkpt>
        <trkpt lat="28.457192" lon="104.97811"><ele>650.7553</ele><time>2026-06-18T19:04:14.000Z</time></trkpt>
        <trkpt lat="28.457196" lon="104.97818"><ele>650.7553</ele><time>2026-06-18T19:04:18.000Z</time></trkpt>
        <trkpt lat="28.457196" lon="104.978222"><ele>650.7553</ele><time>2026-06-18T19:04:20.000Z</time></trkpt>
        <trkpt lat="28.457194" lon="104.978259"><ele>650.7553</ele><time>2026-06-18T19:04:22.000Z</time></trkpt>
        <trkpt lat="28.457198" lon="104.978289"><ele>650.678</ele><time>2026-06-18T19:04:24.000Z</time></trkpt>
        <trkpt lat="28.457203" lon="104.978315"><ele>650.3087</ele><time>2026-06-18T19:04:26.000Z</time></trkpt>
        <trkpt lat="28.457209" lon="104.978338"><ele>649.53625</ele><time>2026-06-18T19:04:27.000Z</time></trkpt>
        <trkpt lat="28.457214" lon="104.978359"><ele>648.8148</ele><time>2026-06-18T19:04:29.000Z</time></trkpt>
        <trkpt lat="28.457218" lon="104.978373"><ele>648.5262</ele><time>2026-06-18T19:04:31.000Z</time></trkpt>
        <trkpt lat="28.457219" lon="104.97839"><ele>648.48376</ele><time>2026-06-18T19:04:33.000Z</time></trkpt>
        <trkpt lat="28.457217" lon="104.978409"><ele>648.4071</ele><time>2026-06-18T19:04:35.000Z</time></trkpt>
        <trkpt lat="28.45721" lon="104.978429"><ele>648.31696</ele><time>2026-06-18T19:04:37.000Z</time></trkpt>
        <trkpt lat="28.457206" lon="104.978457"><ele>648.1528</ele><time>2026-06-18T19:04:40.000Z</time></trkpt>
        <trkpt lat="28.457205" lon="104.978484"><ele>647.8266</ele><time>2026-06-18T19:04:42.000Z</time></trkpt>
        <trkpt lat="28.457212" lon="104.978512"><ele>647.20056</ele><time>2026-06-18T19:04:44.000Z</time></trkpt>
        <trkpt lat="28.457217" lon="104.978547"><ele>646.7307</ele><time>2026-06-18T19:04:46.000Z</time></trkpt>
        <trkpt lat="28.457225" lon="104.978579"><ele>646.64435</ele><time>2026-06-18T19:04:48.000Z</time></trkpt>
        <trkpt lat="28.457235" lon="104.978613"><ele>646.51324</ele><time>2026-06-18T19:04:50.000Z</time></trkpt>
        <trkpt lat="28.457251" lon="104.978631"><ele>646.24756</ele><time>2026-06-18T19:04:52.000Z</time></trkpt>
        <trkpt lat="28.457254" lon="104.978629"><ele>645.8359</ele><time>2026-06-18T19:04:54.000Z</time></trkpt>
        <trkpt lat="28.457287" lon="104.978609"><ele>645.1324</ele><time>2026-06-18T19:04:58.000Z</time></trkpt>
        <trkpt lat="28.457297" lon="104.978599"><ele>643.9799</ele><time>2026-06-18T19:05:00.000Z</time></trkpt>
        <trkpt lat="28.457306" lon="104.978597"><ele>642.76654</ele><time>2026-06-18T19:05:02.000Z</time></trkpt>
        <trkpt lat="28.457231" lon="104.978612"><ele>642.0665</ele><time>2026-06-18T19:05:08.000Z</time></trkpt>
        <trkpt lat="28.457222" lon="104.978646"><ele>640.9864</ele><time>2026-06-18T19:05:10.000Z</time></trkpt>
        <trkpt lat="28.457212" lon="104.978683"><ele>639.9415</ele><time>2026-06-18T19:05:12.000Z</time></trkpt>
        <trkpt lat="28.457207" lon="104.97872"><ele>639.6084</ele><time>2026-06-18T19:05:14.000Z</time></trkpt>
        <trkpt lat="28.457208" lon="104.978753"><ele>639.54486</ele><time>2026-06-18T19:05:16.000Z</time></trkpt>
        <trkpt lat="28.45721" lon="104.978785"><ele>639.54486</ele><time>2026-06-18T19:05:18.000Z</time></trkpt>
        <trkpt lat="28.457211" lon="104.978813"><ele>639.54486</ele><time>2026-06-18T19:05:20.000Z</time></trkpt>
        <trkpt lat="28.457214" lon="104.978832"><ele>639.54486</ele><time>2026-06-18T19:05:22.000Z</time></trkpt>
        <trkpt lat="28.45722" lon="104.978848"><ele>639.54486</ele><time>2026-06-18T19:05:24.000Z</time></trkpt>
        <trkpt lat="28.457228" lon="104.978868"><ele>640.32684</ele><time>2026-06-18T19:05:26.000Z</time></trkpt>
        <trkpt lat="28.457233" lon="104.978891"><ele>640.7356</ele><time>2026-06-18T19:05:28.000Z</time></trkpt>
        <trkpt lat="28.45724" lon="104.978916"><ele>640.98035</ele><time>2026-06-18T19:05:30.000Z</time></trkpt>
        <trkpt lat="28.457249" lon="104.978941"><ele>641.04407</ele><time>2026-06-18T19:05:32.000Z</time></trkpt>
        <trkpt lat="28.457257" lon="104.978964"><ele>641.11316</ele><time>2026-06-18T19:05:34.000Z</time></trkpt>
        <trkpt lat="28.457266" lon="104.978979"><ele>641.24774</ele><time>2026-06-18T19:05:36.000Z</time></trkpt>
        <trkpt lat="28.457287" lon="104.979011"><ele>641.488</ele><time>2026-06-18T19:05:38.000Z</time></trkpt>
        <trkpt lat="28.457301" lon="104.979039"><ele>641.6205</ele><time>2026-06-18T19:05:40.000Z</time></trkpt>
        <trkpt lat="28.457311" lon="104.979064"><ele>641.6855</ele><time>2026-06-18T19:05:42.000Z</time></trkpt>
        <trkpt lat="28.45732" lon="104.97909"><ele>641.82355</ele><time>2026-06-18T19:05:44.000Z</time></trkpt>
        <trkpt lat="28.457329" lon="104.979114"><ele>641.9602</ele><time>2026-06-18T19:05:46.000Z</time></trkpt>
        <trkpt lat="28.457342" lon="104.979141"><ele>642.1166</ele><time>2026-06-18T19:05:48.000Z</time></trkpt>
        <trkpt lat="28.457356" lon="104.979166"><ele>642.2341</ele><time>2026-06-18T19:05:50.000Z</time></trkpt>
        <trkpt lat="28.457369" lon="104.979187"><ele>642.244</ele><time>2026-06-18T19:05:52.000Z</time></trkpt>
        <trkpt lat="28.457381" lon="104.979206"><ele>642.3305</ele><time>2026-06-18T19:05:54.000Z</time></trkpt>
        <trkpt lat="28.457385" lon="104.979226"><ele>642.8546</ele><time>2026-06-18T19:05:56.000Z</time></trkpt>
        <trkpt lat="28.457387" lon="104.97925"><ele>643.4109</ele><time>2026-06-18T19:05:58.000Z</time></trkpt>
        <trkpt lat="28.457384" lon="104.979274"><ele>643.6438</ele><time>2026-06-18T19:06:00.000Z</time></trkpt>
        <trkpt lat="28.45738" lon="104.979302"><ele>643.79877</ele><time>2026-06-18T19:06:02.000Z</time></trkpt>
        <trkpt lat="28.457377" lon="104.979327"><ele>643.9974</ele><time>2026-06-18T19:06:04.000Z</time></trkpt>
        <trkpt lat="28.457378" lon="104.979352"><ele>644.3002</ele><time>2026-06-18T19:06:06.000Z</time></trkpt>
        <trkpt lat="28.457383" lon="104.979367"><ele>644.5607</ele><time>2026-06-18T19:06:08.000Z</time></trkpt>
        <trkpt lat="28.457386" lon="104.979387"><ele>644.5917</ele><time>2026-06-18T19:06:10.000Z</time></trkpt>
        <trkpt lat="28.457384" lon="104.979395"><ele>644.5917</ele><time>2026-06-18T19:06:12.000Z</time></trkpt>
        <trkpt lat="28.457376" lon="104.97941"><ele>644.5917</ele><time>2026-06-18T19:06:14.000Z</time></trkpt>
        <trkpt lat="28.457356" lon="104.979434"><ele>644.4668</ele><time>2026-06-18T19:06:16.000Z</time></trkpt>
        <trkpt lat="28.457336" lon="104.979457"><ele>644.5917</ele><time>2026-06-18T19:06:18.000Z</time></trkpt>
        <trkpt lat="28.457312" lon="104.979481"><ele>644.684</ele><time>2026-06-18T19:06:20.000Z</time></trkpt>
        <trkpt lat="28.457286" lon="104.979502"><ele>644.6917</ele><time>2026-06-18T19:06:22.000Z</time></trkpt>
        <trkpt lat="28.457264" lon="104.979517"><ele>644.85974</ele><time>2026-06-18T19:06:24.000Z</time></trkpt>
        <trkpt lat="28.457243" lon="104.979522"><ele>644.85974</ele><time>2026-06-18T19:06:26.000Z</time></trkpt>
        <trkpt lat="28.457219" lon="104.979528"><ele>645.183</ele><time>2026-06-18T19:06:28.000Z</time></trkpt>
        <trkpt lat="28.457187" lon="104.979535"><ele>645.3993</ele><time>2026-06-18T19:06:30.000Z</time></trkpt>
        <trkpt lat="28.457159" lon="104.979537"><ele>645.6371</ele><time>2026-06-18T19:06:32.000Z</time></trkpt>
        <trkpt lat="28.457138" lon="104.979536"><ele>645.81903</ele><time>2026-06-18T19:06:34.000Z</time></trkpt>
        <trkpt lat="28.457123" lon="104.979534"><ele>645.85333</ele><time>2026-06-18T19:06:36.000Z</time></trkpt>
        <trkpt lat="28.457104" lon="104.979528"><ele>646.02014</ele><time>2026-06-18T19:06:38.000Z</time></trkpt>
        <trkpt lat="28.457084" lon="104.979521"><ele>646.33875</ele><time>2026-06-18T19:06:40.000Z</time></trkpt>
        <trkpt lat="28.457062" lon="104.979517"><ele>646.56635</ele><time>2026-06-18T19:06:42.000Z</time></trkpt>
        <trkpt lat="28.45704" lon="104.979515"><ele>646.669</ele><time>2026-06-18T19:06:44.000Z</time></trkpt>
        <trkpt lat="28.45702" lon="104.979517"><ele>647.1695</ele><time>2026-06-18T19:06:46.000Z</time></trkpt>
        <trkpt lat="28.456987" lon="104.979525"><ele>647.7643</ele><time>2026-06-18T19:06:48.000Z</time></trkpt>
        <trkpt lat="28.456958" lon="104.979539"><ele>648.01263</ele><time>2026-06-18T19:06:50.000Z</time></trkpt>
        <trkpt lat="28.456933" lon="104.979553"><ele>648.7283</ele><time>2026-06-18T19:06:52.000Z</time></trkpt>
        <trkpt lat="28.456903" lon="104.979569"><ele>649.51764</ele><time>2026-06-18T19:06:54.000Z</time></trkpt>
        <trkpt lat="28.456877" lon="104.979581"><ele>650.1404</ele><time>2026-06-18T19:06:56.000Z</time></trkpt>
        <trkpt lat="28.456853" lon="104.979583"><ele>650.6772</ele><time>2026-06-18T19:06:58.000Z</time></trkpt>
        <trkpt lat="28.456836" lon="104.979577"><ele>650.8997</ele><time>2026-06-18T19:07:00.000Z</time></trkpt>
        <trkpt lat="28.456812" lon="104.979561"><ele>651.1515</ele><time>2026-06-18T19:07:02.000Z</time></trkpt>
        <trkpt lat="28.456788" lon="104.979554"><ele>651.6192</ele><time>2026-06-18T19:07:04.000Z</time></trkpt>
        <trkpt lat="28.456758" lon="104.979552"><ele>652.0144</ele><time>2026-06-18T19:07:06.000Z</time></trkpt>
        <trkpt lat="28.456734" lon="104.979553"><ele>652.0778</ele><time>2026-06-18T19:07:08.000Z</time></trkpt>
        <trkpt lat="28.456716" lon="104.979556"><ele>652.1251</ele><time>2026-06-18T19:07:10.000Z</time></trkpt>
        <trkpt lat="28.456698" lon="104.979562"><ele>652.3164</ele><time>2026-06-18T19:07:12.000Z</time></trkpt>
        <trkpt lat="28.45668" lon="104.979563"><ele>652.5154</ele><time>2026-06-18T19:07:14.000Z</time></trkpt>
        <trkpt lat="28.456665" lon="104.979569"><ele>652.65656</ele><time>2026-06-18T19:07:16.000Z</time></trkpt>
        <trkpt lat="28.456648" lon="104.979583"><ele>652.86255</ele><time>2026-06-18T19:07:18.000Z</time></trkpt>
        <trkpt lat="28.456622" lon="104.979601"><ele>653.04517</ele><time>2026-06-18T19:07:20.000Z</time></trkpt>
        <trkpt lat="28.4566" lon="104.979619"><ele>653.1572</ele><time>2026-06-18T19:07:22.000Z</time></trkpt>
        <trkpt lat="28.456568" lon="104.97965"><ele>653.31006</ele><time>2026-06-18T19:07:24.000Z</time></trkpt>
        <trkpt lat="28.456544" lon="104.979672"><ele>653.62646</ele><time>2026-06-18T19:07:26.000Z</time></trkpt>
        <trkpt lat="28.456527" lon="104.979692"><ele>653.8758</ele><time>2026-06-18T19:07:28.000Z</time></trkpt>
        <trkpt lat="28.456514" lon="104.97971"><ele>654.0448</ele><time>2026-06-18T19:07:30.000Z</time></trkpt>
        <trkpt lat="28.456505" lon="104.979726"><ele>654.60394</ele><time>2026-06-18T19:07:32.000Z</time></trkpt>
        <trkpt lat="28.45649" lon="104.979767"><ele>655.5045</ele><time>2026-06-18T19:07:34.000Z</time></trkpt>
        <trkpt lat="28.45648" lon="104.979799"><ele>656.7785</ele><time>2026-06-18T19:07:36.000Z</time></trkpt>
        <trkpt lat="28.456481" lon="104.979826"><ele>657.84845</ele><time>2026-06-18T19:07:38.000Z</time></trkpt>
        <trkpt lat="28.456486" lon="104.979852"><ele>658.33264</ele><time>2026-06-18T19:07:40.000Z</time></trkpt>
        <trkpt lat="28.456496" lon="104.979872"><ele>658.94366</ele><time>2026-06-18T19:07:42.000Z</time></trkpt>
        <trkpt lat="28.456512" lon="104.979895"><ele>659.90924</ele><time>2026-06-18T19:07:44.000Z</time></trkpt>
        <trkpt lat="28.456534" lon="104.979923"><ele>661.0245</ele><time>2026-06-18T19:07:46.000Z</time></trkpt>
        <trkpt lat="28.456551" lon="104.979951"><ele>661.6213</ele><time>2026-06-18T19:07:48.000Z</time></trkpt>
        <trkpt lat="28.456559" lon="104.97997"><ele>661.6213</ele><time>2026-06-18T19:07:50.000Z</time></trkpt>
        <trkpt lat="28.456565" lon="104.979986"><ele>661.6213</ele><time>2026-06-18T19:07:52.000Z</time></trkpt>
        <trkpt lat="28.456581" lon="104.980019"><ele>661.6213</ele><time>2026-06-18T19:07:56.000Z</time></trkpt>
        <trkpt lat="28.456589" lon="104.980027"><ele>661.6213</ele><time>2026-06-18T19:07:58.000Z</time></trkpt>
        <trkpt lat="28.4566" lon="104.980045"><ele>661.47845</ele><time>2026-06-18T19:08:00.000Z</time></trkpt>
        <trkpt lat="28.456618" lon="104.980068"><ele>660.9819</ele><time>2026-06-18T19:08:04.000Z</time></trkpt>
        <trkpt lat="28.456632" lon="104.980078"><ele>660.1994</ele><time>2026-06-18T19:08:06.000Z</time></trkpt>
        <trkpt lat="28.456653" lon="104.980089"><ele>659.6192</ele><time>2026-06-18T19:08:08.000Z</time></trkpt>
        <trkpt lat="28.456678" lon="104.980101"><ele>659.30133</ele><time>2026-06-18T19:08:10.000Z</time></trkpt>
        <trkpt lat="28.456704" lon="104.980115"><ele>658.8116</ele><time>2026-06-18T19:08:12.000Z</time></trkpt>
        <trkpt lat="28.456731" lon="104.980124"><ele>658.39404</ele><time>2026-06-18T19:08:14.000Z</time></trkpt>
        <trkpt lat="28.456757" lon="104.980132"><ele>657.83685</ele><time>2026-06-18T19:08:16.000Z</time></trkpt>
        <trkpt lat="28.456775" lon="104.980143"><ele>657.4213</ele><time>2026-06-18T19:08:18.000Z</time></trkpt>
        <trkpt lat="28.456782" lon="104.980154"><ele>657.1198</ele><time>2026-06-18T19:08:20.000Z</time></trkpt>
        <trkpt lat="28.456788" lon="104.980169"><ele>656.7111</ele><time>2026-06-18T19:08:22.000Z</time></trkpt>
        <trkpt lat="28.456802" lon="104.980189"><ele>656.163</ele><time>2026-06-18T19:08:24.000Z</time></trkpt>
        <trkpt lat="28.456814" lon="104.980203"><ele>655.2435</ele><time>2026-06-18T19:08:26.000Z</time></trkpt>
        <trkpt lat="28.45683" lon="104.980215"><ele>654.4418</ele><time>2026-06-18T19:08:28.000Z</time></trkpt>
        <trkpt lat="28.456849" lon="104.980226"><ele>653.63617</ele><time>2026-06-18T19:08:30.000Z</time></trkpt>
        <trkpt lat="28.456867" lon="104.980238"><ele>653.0289</ele><time>2026-06-18T19:08:32.000Z</time></trkpt>
        <trkpt lat="28.456885" lon="104.980259"><ele>652.7277</ele><time>2026-06-18T19:08:34.000Z</time></trkpt>
        <trkpt lat="28.456888" lon="104.980272"><ele>652.27686</ele><time>2026-06-18T19:08:36.000Z</time></trkpt>
        <trkpt lat="28.456886" lon="104.980293"><ele>651.72406</ele><time>2026-06-18T19:08:38.000Z</time></trkpt>
        <trkpt lat="28.456883" lon="104.98032"><ele>651.3334</ele><time>2026-06-18T19:08:40.000Z</time></trkpt>
        <trkpt lat="28.456878" lon="104.980346"><ele>650.98737</ele><time>2026-06-18T19:08:42.000Z</time></trkpt>
        <trkpt lat="28.456872" lon="104.980372"><ele>650.4282</ele><time>2026-06-18T19:08:44.000Z</time></trkpt>
        <trkpt lat="28.456864" lon="104.980398"><ele>649.85266</ele><time>2026-06-18T19:08:46.000Z</time></trkpt>
        <trkpt lat="28.456854" lon="104.980421"><ele>649.2905</ele><time>2026-06-18T19:08:48.000Z</time></trkpt>
        <trkpt lat="28.456842" lon="104.980443"><ele>648.66785</ele><time>2026-06-18T19:08:50.000Z</time></trkpt>
        <trkpt lat="28.456827" lon="104.980464"><ele>648.1385</ele><time>2026-06-18T19:08:52.000Z</time></trkpt>
        <trkpt lat="28.456809" lon="104.980482"><ele>647.7577</ele><time>2026-06-18T19:08:54.000Z</time></trkpt>
        <trkpt lat="28.456786" lon="104.980502"><ele>647.7577</ele><time>2026-06-18T19:08:56.000Z</time></trkpt>
        <trkpt lat="28.456766" lon="104.980518"><ele>647.7577</ele><time>2026-06-18T19:08:58.000Z</time></trkpt>
        <trkpt lat="28.45674" lon="104.980531"><ele>647.7577</ele><time>2026-06-18T19:09:00.000Z</time></trkpt>
        <trkpt lat="28.456716" lon="104.980542"><ele>647.7577</ele><time>2026-06-18T19:09:02.000Z</time></trkpt>
        <trkpt lat="28.456691" lon="104.980554"><ele>647.7852</ele><time>2026-06-18T19:09:04.000Z</time></trkpt>
        <trkpt lat="28.456662" lon="104.980567"><ele>648.3061</ele><time>2026-06-18T19:09:06.000Z</time></trkpt>
        <trkpt lat="28.45663" lon="104.980579"><ele>649.2649</ele><time>2026-06-18T19:09:08.000Z</time></trkpt>
        <trkpt lat="28.456601" lon="104.980588"><ele>650.1922</ele><time>2026-06-18T19:09:10.000Z</time></trkpt>
        <trkpt lat="28.456574" lon="104.980591"><ele>650.74567</ele><time>2026-06-18T19:09:12.000Z</time></trkpt>
        <trkpt lat="28.456546" lon="104.980595"><ele>651.9574</ele><time>2026-06-18T19:09:14.000Z</time></trkpt>
        <trkpt lat="28.456518" lon="104.9806"><ele>653.7261</ele><time>2026-06-18T19:09:16.000Z</time></trkpt>
        <trkpt lat="28.456487" lon="104.980608"><ele>655.22864</ele><time>2026-06-18T19:09:18.000Z</time></trkpt>
        <trkpt lat="28.456465" lon="104.98062"><ele>656.54</ele><time>2026-06-18T19:09:20.000Z</time></trkpt>
        <trkpt lat="28.456447" lon="104.980634"><ele>657.56067</ele><time>2026-06-18T19:09:22.000Z</time></trkpt>
        <trkpt lat="28.45643" lon="104.980646"><ele>658.1516</ele><time>2026-06-18T19:09:24.000Z</time></trkpt>
        <trkpt lat="28.456412" lon="104.980658"><ele>659.112</ele><time>2026-06-18T19:09:26.000Z</time></trkpt>
        <trkpt lat="28.456389" lon="104.98067"><ele>660.1509</ele><time>2026-06-18T19:09:28.000Z</time></trkpt>
        <trkpt lat="28.456366" lon="104.980681"><ele>660.6352</ele><time>2026-06-18T19:09:30.000Z</time></trkpt>
        <trkpt lat="28.456346" lon="104.980689"><ele>660.90186</ele><time>2026-06-18T19:09:32.000Z</time></trkpt>
        <trkpt lat="28.456324" lon="104.980699"><ele>661.03046</ele><time>2026-06-18T19:09:34.000Z</time></trkpt>
        <trkpt lat="28.456307" lon="104.98071"><ele>661.11426</ele><time>2026-06-18T19:09:36.000Z</time></trkpt>
        <trkpt lat="28.456292" lon="104.980723"><ele>661.4366</ele><time>2026-06-18T19:09:38.000Z</time></trkpt>
        <trkpt lat="28.456277" lon="104.980738"><ele>661.8351</ele><time>2026-06-18T19:09:40.000Z</time></trkpt>
        <trkpt lat="28.456259" lon="104.980759"><ele>662.19556</ele><time>2026-06-18T19:09:42.000Z</time></trkpt>
        <trkpt lat="28.456244" lon="104.980783"><ele>662.66406</ele><time>2026-06-18T19:09:44.000Z</time></trkpt>
        <trkpt lat="28.456232" lon="104.980807"><ele>663.0488</ele><time>2026-06-18T19:09:46.000Z</time></trkpt>
        <trkpt lat="28.456222" lon="104.980826"><ele>663.33386</ele><time>2026-06-18T19:09:48.000Z</time></trkpt>
        <trkpt lat="28.456213" lon="104.980847"><ele>663.7038</ele><time>2026-06-18T19:09:50.000Z</time></trkpt>
        <trkpt lat="28.456205" lon="104.980872"><ele>663.8463</ele><time>2026-06-18T19:09:52.000Z</time></trkpt>
        <trkpt lat="28.456203" lon="104.980894"><ele>664.013</ele><time>2026-06-18T19:09:54.000Z</time></trkpt>
        <trkpt lat="28.456199" lon="104.98092"><ele>664.0939</ele><time>2026-06-18T19:09:56.000Z</time></trkpt>
        <trkpt lat="28.456199" lon="104.980952"><ele>664.2119</ele><time>2026-06-18T19:09:58.000Z</time></trkpt>
        <trkpt lat="28.456205" lon="104.980982"><ele>664.2402</ele><time>2026-06-18T19:10:00.000Z</time></trkpt>
        <trkpt lat="28.456214" lon="104.981019"><ele>664.2402</ele><time>2026-06-18T19:10:02.000Z</time></trkpt>
        <trkpt lat="28.456224" lon="104.981053"><ele>664.2402</ele><time>2026-06-18T19:10:04.000Z</time></trkpt>
        <trkpt lat="28.45623" lon="104.981076"><ele>664.2402</ele><time>2026-06-18T19:10:06.000Z</time></trkpt>
        <trkpt lat="28.45623" lon="104.981087"><ele>663.9912</ele><time>2026-06-18T19:10:08.000Z</time></trkpt>
        <trkpt lat="28.456227" lon="104.981105"><ele>663.75616</ele><time>2026-06-18T19:10:10.000Z</time></trkpt>
        <trkpt lat="28.45622" lon="104.981128"><ele>663.53735</ele><time>2026-06-18T19:10:12.000Z</time></trkpt>
        <trkpt lat="28.456209" lon="104.981157"><ele>663.0733</ele><time>2026-06-18T19:10:14.000Z</time></trkpt>
        <trkpt lat="28.456195" lon="104.981192"><ele>662.6796</ele><time>2026-06-18T19:10:16.000Z</time></trkpt>
        <trkpt lat="28.45618" lon="104.981231"><ele>662.4003</ele><time>2026-06-18T19:10:18.000Z</time></trkpt>
        <trkpt lat="28.456167" lon="104.981269"><ele>662.4003</ele><time>2026-06-18T19:10:20.000Z</time></trkpt>
        <trkpt lat="28.456158" lon="104.981301"><ele>662.4003</ele><time>2026-06-18T19:10:22.000Z</time></trkpt>
        <trkpt lat="28.456147" lon="104.981336"><ele>662.4003</ele><time>2026-06-18T19:10:24.000Z</time></trkpt>
        <trkpt lat="28.456165" lon="104.981364"><ele>662.4003</ele><time>2026-06-18T19:10:26.000Z</time></trkpt>
        <trkpt lat="28.456183" lon="104.981389"><ele>662.83075</ele><time>2026-06-18T19:10:28.000Z</time></trkpt>
        <trkpt lat="28.456205" lon="104.981416"><ele>663.74414</ele><time>2026-06-18T19:10:30.000Z</time></trkpt>
        <trkpt lat="28.456226" lon="104.981447"><ele>664.4268</ele><time>2026-06-18T19:10:32.000Z</time></trkpt>
        <trkpt lat="28.456235" lon="104.98147"><ele>665.0092</ele><time>2026-06-18T19:10:34.000Z</time></trkpt>
        <trkpt lat="28.456236" lon="104.981483"><ele>665.42255</ele><time>2026-06-18T19:10:36.000Z</time></trkpt>
        <trkpt lat="28.456234" lon="104.981496"><ele>665.74945</ele><time>2026-06-18T19:10:38.000Z</time></trkpt>
        <trkpt lat="28.456229" lon="104.981528"><ele>666.176</ele><time>2026-06-18T19:10:42.000Z</time></trkpt>
        <trkpt lat="28.456228" lon="104.981549"><ele>666.6552</ele><time>2026-06-18T19:10:44.000Z</time></trkpt>
        <trkpt lat="28.456227" lon="104.981579"><ele>667.2292</ele><time>2026-06-18T19:10:46.000Z</time></trkpt>
        <trkpt lat="28.456225" lon="104.981609"><ele>667.84283</ele><time>2026-06-18T19:10:48.000Z</time></trkpt>
        <trkpt lat="28.456219" lon="104.981639"><ele>668.854</ele><time>2026-06-18T19:10:50.000Z</time></trkpt>
        <trkpt lat="28.456213" lon="104.98167"><ele>669.90955</ele><time>2026-06-18T19:10:52.000Z</time></trkpt>
        <trkpt lat="28.456207" lon="104.981698"><ele>670.5768</ele><time>2026-06-18T19:10:54.000Z</time></trkpt>
        <trkpt lat="28.456206" lon="104.981719"><ele>671.29236</ele><time>2026-06-18T19:10:56.000Z</time></trkpt>
        <trkpt lat="28.456206" lon="104.981742"><ele>672.0044</ele><time>2026-06-18T19:10:58.000Z</time></trkpt>
        <trkpt lat="28.456211" lon="104.981757"><ele>672.7184</ele><time>2026-06-18T19:11:00.000Z</time></trkpt>
        <trkpt lat="28.45622" lon="104.981775"><ele>673.4618</ele><time>2026-06-18T19:11:02.000Z</time></trkpt>
        <trkpt lat="28.456228" lon="104.981796"><ele>674.0844</ele><time>2026-06-18T19:11:04.000Z</time></trkpt>
        <trkpt lat="28.456229" lon="104.981807"><ele>674.5982</ele><time>2026-06-18T19:11:06.000Z</time></trkpt>
        <trkpt lat="28.456229" lon="104.981837"><ele>675.03754</ele><time>2026-06-18T19:11:10.000Z</time></trkpt>
        <trkpt lat="28.456229" lon="104.981858"><ele>675.43256</ele><time>2026-06-18T19:11:12.000Z</time></trkpt>
        <trkpt lat="28.456226" lon="104.981879"><ele>675.83716</ele><time>2026-06-18T19:11:14.000Z</time></trkpt>
        <trkpt lat="28.456218" lon="104.981904"><ele>676.22156</ele><time>2026-06-18T19:11:16.000Z</time></trkpt>
        <trkpt lat="28.456207" lon="104.981925"><ele>676.73047</ele><time>2026-06-18T19:11:18.000Z</time></trkpt>
        <trkpt lat="28.456195" lon="104.981943"><ele>677.2744</ele><time>2026-06-18T19:11:20.000Z</time></trkpt>
        <trkpt lat="28.456184" lon="104.981964"><ele>677.56</ele><time>2026-06-18T19:11:22.000Z</time></trkpt>
        <trkpt lat="28.456175" lon="104.981981"><ele>677.68616</ele><time>2026-06-18T19:11:24.000Z</time></trkpt>
        <trkpt lat="28.456168" lon="104.981996"><ele>677.8327</ele><time>2026-06-18T19:11:26.000Z</time></trkpt>
        <trkpt lat="28.45616" lon="104.982011"><ele>678.0692</ele><time>2026-06-18T19:11:28.000Z</time></trkpt>
        <trkpt lat="28.456152" lon="104.982029"><ele>678.3493</ele><time>2026-06-18T19:11:30.000Z</time></trkpt>
        <trkpt lat="28.456144" lon="104.982049"><ele>678.5476</ele><time>2026-06-18T19:11:32.000Z</time></trkpt>
        <trkpt lat="28.456135" lon="104.982069"><ele>678.657</ele><time>2026-06-18T19:11:34.000Z</time></trkpt>
        <trkpt lat="28.456124" lon="104.982096"><ele>678.8178</ele><time>2026-06-18T19:11:36.000Z</time></trkpt>
        <trkpt lat="28.456113" lon="104.982119"><ele>678.89355</ele><time>2026-06-18T19:11:38.000Z</time></trkpt>
        <trkpt lat="28.456098" lon="104.982141"><ele>678.89355</ele><time>2026-06-18T19:11:40.000Z</time></trkpt>
        <trkpt lat="28.456076" lon="104.982165"><ele>678.93524</ele><time>2026-06-18T19:11:42.000Z</time></trkpt>
        <trkpt lat="28.456059" lon="104.982191"><ele>678.9523</ele><time>2026-06-18T19:11:44.000Z</time></trkpt>
        <trkpt lat="28.456044" lon="104.982218"><ele>678.9523</ele><time>2026-06-18T19:11:46.000Z</time></trkpt>
        <trkpt lat="28.456031" lon="104.98225"><ele>678.93524</ele><time>2026-06-18T19:11:48.000Z</time></trkpt>
        <trkpt lat="28.456021" lon="104.98228"><ele>678.9215</ele><time>2026-06-18T19:11:50.000Z</time></trkpt>
        <trkpt lat="28.456012" lon="104.982309"><ele>678.88</ele><time>2026-06-18T19:11:52.000Z</time></trkpt>
        <trkpt lat="28.456" lon="104.982335"><ele>678.8718</ele><time>2026-06-18T19:11:54.000Z</time></trkpt>
        <trkpt lat="28.455986" lon="104.982353"><ele>678.8718</ele><time>2026-06-18T19:11:56.000Z</time></trkpt>
        <trkpt lat="28.455968" lon="104.982368"><ele>678.8997</ele><time>2026-06-18T19:11:58.000Z</time></trkpt>
        <trkpt lat="28.455939" lon="104.982387"><ele>678.9409</ele><time>2026-06-18T19:12:00.000Z</time></trkpt>
        <trkpt lat="28.455908" lon="104.982405"><ele>678.96747</ele><time>2026-06-18T19:12:02.000Z</time></trkpt>
        <trkpt lat="28.455882" lon="104.982418"><ele>678.96747</ele><time>2026-06-18T19:12:04.000Z</time></trkpt>
        <trkpt lat="28.455852" lon="104.98243"><ele>679.1385</ele><time>2026-06-18T19:12:06.000Z</time></trkpt>
        <trkpt lat="28.455829" lon="104.982436"><ele>679.36774</ele><time>2026-06-18T19:12:08.000Z</time></trkpt>
        <trkpt lat="28.455806" lon="104.982439"><ele>679.7256</ele><time>2026-06-18T19:12:10.000Z</time></trkpt>
        <trkpt lat="28.455778" lon="104.982441"><ele>680.1701</ele><time>2026-06-18T19:12:12.000Z</time></trkpt>
        <trkpt lat="28.455749" lon="104.982443"><ele>680.6131</ele><time>2026-06-18T19:12:14.000Z</time></trkpt>
        <trkpt lat="28.455723" lon="104.982438"><ele>681.0587</ele><time>2026-06-18T19:12:16.000Z</time></trkpt>
        <trkpt lat="28.455695" lon="104.982431"><ele>681.5103</ele><time>2026-06-18T19:12:18.000Z</time></trkpt>
        <trkpt lat="28.455662" lon="104.982425"><ele>681.9677</ele><time>2026-06-18T19:12:20.000Z</time></trkpt>
        <trkpt lat="28.455636" lon="104.982417"><ele>682.26</ele><time>2026-06-18T19:12:22.000Z</time></trkpt>
        <trkpt lat="28.455612" lon="104.982406"><ele>682.40125</ele><time>2026-06-18T19:12:24.000Z</time></trkpt>
        <trkpt lat="28.455597" lon="104.982398"><ele>682.40125</ele><time>2026-06-18T19:12:26.000Z</time></trkpt>
        <trkpt lat="28.455585" lon="104.982392"><ele>682.40125</ele><time>2026-06-18T19:12:28.000Z</time></trkpt>
        <trkpt lat="28.455556" lon="104.982373"><ele>682.45166</ele><time>2026-06-18T19:12:34.000Z</time></trkpt>
        <trkpt lat="28.455542" lon="104.982358"><ele>682.45166</ele><time>2026-06-18T19:12:36.000Z</time></trkpt>
        <trkpt lat="28.455534" lon="104.98234"><ele>682.45166</ele><time>2026-06-18T19:12:38.000Z</time></trkpt>
        <trkpt lat="28.455533" lon="104.982317"><ele>682.29254</ele><time>2026-06-18T19:12:40.000Z</time></trkpt>
        <trkpt lat="28.455537" lon="104.982295"><ele>682.1429</ele><time>2026-06-18T19:12:42.000Z</time></trkpt>
        <trkpt lat="28.455536" lon="104.982273"><ele>681.7647</ele><time>2026-06-18T19:12:44.000Z</time></trkpt>
        <trkpt lat="28.455533" lon="104.982243"><ele>681.18066</ele><time>2026-06-18T19:12:46.000Z</time></trkpt>
        <trkpt lat="28.455524" lon="104.982202"><ele>680.87164</ele><time>2026-06-18T19:12:48.000Z</time></trkpt>
        <trkpt lat="28.455515" lon="104.98217"><ele>680.19104</ele><time>2026-06-18T19:12:50.000Z</time></trkpt>
        <trkpt lat="28.455505" lon="104.982144"><ele>679.3212</ele><time>2026-06-18T19:12:52.000Z</time></trkpt>
        <trkpt lat="28.45549" lon="104.982108"><ele>678.6565</ele><time>2026-06-18T19:12:54.000Z</time></trkpt>
        <trkpt lat="28.455479" lon="104.98208"><ele>677.7388</ele><time>2026-06-18T19:12:56.000Z</time></trkpt>
        <trkpt lat="28.455473" lon="104.982062"><ele>676.89923</ele><time>2026-06-18T19:12:58.000Z</time></trkpt>
        <trkpt lat="28.455466" lon="104.982051"><ele>676.1182</ele><time>2026-06-18T19:13:00.000Z</time></trkpt>
        <trkpt lat="28.455455" lon="104.982041"><ele>674.8391</ele><time>2026-06-18T19:13:06.000Z</time></trkpt>
        <trkpt lat="28.455433" lon="104.982022"><ele>673.5403</ele><time>2026-06-18T19:13:10.000Z</time></trkpt>
        <trkpt lat="28.455424" lon="104.982012"><ele>672.92615</ele><time>2026-06-18T19:13:12.000Z</time></trkpt>
        <trkpt lat="28.455421" lon="104.982007"><ele>672.63245</ele><time>2026-06-18T19:13:14.000Z</time></trkpt>
        <trkpt lat="28.455398" lon="104.981982"><ele>671.2024</ele><time>2026-06-18T19:13:18.000Z</time></trkpt>
        <trkpt lat="28.455384" lon="104.981967"><ele>669.95294</ele><time>2026-06-18T19:13:22.000Z</time></trkpt>
        <trkpt lat="28.455384" lon="104.981967"><ele>669.4642</ele><time>2026-06-18T19:13:24.000Z</time></trkpt>
        <trkpt lat="28.45537" lon="104.982039"><ele>668.8338</ele><time>2026-06-18T19:14:22.000Z</time></trkpt>
        <trkpt lat="28.455367" lon="104.982057"><ele>668.189</ele><time>2026-06-18T19:14:37.000Z</time></trkpt>
        <trkpt lat="28.455319" lon="104.982033"><ele>667.876</ele><time>2026-06-18T19:16:21.000Z</time></trkpt>
        <trkpt lat="28.455297" lon="104.982078"><ele>667.537</ele><time>2026-06-18T19:17:06.000Z</time></trkpt>
        <trkpt lat="28.455281" lon="104.982111"><ele>667.2895</ele><time>2026-06-18T19:18:10.000Z</time></trkpt>
        <trkpt lat="28.455227" lon="104.982103"><ele>667.11316</ele><time>2026-06-18T19:19:27.000Z</time></trkpt>
        <trkpt lat="28.455205" lon="104.982112"><ele>667.01056</ele><time>2026-06-18T19:20:46.000Z</time></trkpt>
        <trkpt lat="28.455192" lon="104.982113"><ele>666.966</ele><time>2026-06-18T19:20:53.000Z</time></trkpt>
        <trkpt lat="28.455123" lon="104.982123"><ele>666.6758</ele><time>2026-06-18T19:21:02.000Z</time></trkpt>
        <trkpt lat="28.455114" lon="104.982151"><ele>666.4054</ele><time>2026-06-18T19:21:05.000Z</time></trkpt>
        <trkpt lat="28.455114" lon="104.982151"><ele>665.1452</ele><time>2026-06-18T19:21:07.000Z</time></trkpt>
        <trkpt lat="28.455064" lon="104.982185"><ele>663.868</ele><time>2026-06-18T19:21:15.000Z</time></trkpt>
        <trkpt lat="28.455047" lon="104.982198"><ele>663.63635</ele><time>2026-06-18T19:21:17.000Z</time></trkpt>
        <trkpt lat="28.455035" lon="104.982212"><ele>662.59656</ele><time>2026-06-18T19:21:19.000Z</time></trkpt>
        <trkpt lat="28.455021" lon="104.982236"><ele>661.7656</ele><time>2026-06-18T19:21:23.000Z</time></trkpt>
        <trkpt lat="28.45501" lon="104.982254"><ele>660.8047</ele><time>2026-06-18T19:21:27.000Z</time></trkpt>
        <trkpt lat="28.455001" lon="104.982261"><ele>659.4608</ele><time>2026-06-18T19:21:29.000Z</time></trkpt>
        <trkpt lat="28.45498" lon="104.982272"><ele>658.75415</ele><time>2026-06-18T19:21:33.000Z</time></trkpt>
        <trkpt lat="28.454962" lon="104.982283"><ele>658.0908</ele><time>2026-06-18T19:21:37.000Z</time></trkpt>
        <trkpt lat="28.45496" lon="104.982289"><ele>657.6442</ele><time>2026-06-18T19:21:39.000Z</time></trkpt>
        <trkpt lat="28.454949" lon="104.982316"><ele>657.37854</ele><time>2026-06-18T19:21:43.000Z</time></trkpt>
        <trkpt lat="28.454937" lon="104.982342"><ele>657.1733</ele><time>2026-06-18T19:21:47.000Z</time></trkpt>
        <trkpt lat="28.454931" lon="104.982355"><ele>657.12695</ele><time>2026-06-18T19:21:49.000Z</time></trkpt>
        <trkpt lat="28.454926" lon="104.982374"><ele>657.12695</ele><time>2026-06-18T19:21:51.000Z</time></trkpt>
        <trkpt lat="28.45492" lon="104.982392"><ele>657.12695</ele><time>2026-06-18T19:21:53.000Z</time></trkpt>
        <trkpt lat="28.454914" lon="104.982406"><ele>657.1037</ele><time>2026-06-18T19:22:01.000Z</time></trkpt>
        <trkpt lat="28.454908" lon="104.982436"><ele>657.0517</ele><time>2026-06-18T19:22:05.000Z</time></trkpt>
        <trkpt lat="28.454908" lon="104.982454"><ele>657.0517</ele><time>2026-06-18T19:22:07.000Z</time></trkpt>
        <trkpt lat="28.454909" lon="104.982474"><ele>657.0517</ele><time>2026-06-18T19:22:09.000Z</time></trkpt>
        <trkpt lat="28.454909" lon="104.982491"><ele>657.2275</ele><time>2026-06-18T19:22:11.000Z</time></trkpt>
        <trkpt lat="28.454907" lon="104.982511"><ele>657.3799</ele><time>2026-06-18T19:22:13.000Z</time></trkpt>
        <trkpt lat="28.454907" lon="104.982525"><ele>657.4872</ele><time>2026-06-18T19:22:15.000Z</time></trkpt>
        <trkpt lat="28.454911" lon="104.982536"><ele>657.6823</ele><time>2026-06-18T19:22:17.000Z</time></trkpt>
        <trkpt lat="28.454917" lon="104.982556"><ele>657.90686</ele><time>2026-06-18T19:22:19.000Z</time></trkpt>
        <trkpt lat="28.454922" lon="104.982581"><ele>658.59674</ele><time>2026-06-18T19:22:21.000Z</time></trkpt>
        <trkpt lat="28.454925" lon="104.982609"><ele>659.48</ele><time>2026-06-18T19:22:23.000Z</time></trkpt>
        <trkpt lat="28.454924" lon="104.982639"><ele>659.886</ele><time>2026-06-18T19:22:25.000Z</time></trkpt>
        <trkpt lat="28.454915" lon="104.982666"><ele>660.10504</ele><time>2026-06-18T19:22:27.000Z</time></trkpt>
        <trkpt lat="28.454901" lon="104.982683"><ele>660.28174</ele><time>2026-06-18T19:22:29.000Z</time></trkpt>
        <trkpt lat="28.454884" lon="104.982694"><ele>660.96954</ele><time>2026-06-18T19:22:31.000Z</time></trkpt>
        <trkpt lat="28.454867" lon="104.9827"><ele>662.1616</ele><time>2026-06-18T19:22:33.000Z</time></trkpt>
        <trkpt lat="28.45485" lon="104.982705"><ele>663.6627</ele><time>2026-06-18T19:22:35.000Z</time></trkpt>
        <trkpt lat="28.454829" lon="104.982708"><ele>665.16547</ele><time>2026-06-18T19:22:37.000Z</time></trkpt>
        <trkpt lat="28.454807" lon="104.982709"><ele>665.5853</ele><time>2026-06-18T19:22:39.000Z</time></trkpt>
        <trkpt lat="28.454792" lon="104.982708"><ele>665.5853</ele><time>2026-06-18T19:22:41.000Z</time></trkpt>
        <trkpt lat="28.454791" lon="104.982705"><ele>665.5853</ele><time>2026-06-18T19:22:43.000Z</time></trkpt>
        <trkpt lat="28.45481" lon="104.982784"><ele>665.90063</ele><time>2026-06-18T19:23:03.000Z</time></trkpt>
        <trkpt lat="28.45481" lon="104.982784"><ele>666.1825</ele><time>2026-06-18T19:23:05.000Z</time></trkpt>
        <trkpt lat="28.45481" lon="104.982784"><ele>666.2855</ele><time>2026-06-18T19:23:07.000Z</time></trkpt>
        <trkpt lat="28.454828" lon="104.982706"><ele>666.1825</ele><time>2026-06-18T19:23:25.000Z</time></trkpt>
        <trkpt lat="28.454887" lon="104.982696"><ele>666.1921</ele><time>2026-06-18T19:24:40.000Z</time></trkpt>
        <trkpt lat="28.454915" lon="104.982691"><ele>666.40814</ele><time>2026-06-18T19:24:42.000Z</time></trkpt>
        <trkpt lat="28.454915" lon="104.98269"><ele>666.7277</ele><time>2026-06-18T19:24:44.000Z</time></trkpt>
        <trkpt lat="28.45493" lon="104.982616"><ele>666.7282</ele><time>2026-06-18T19:24:54.000Z</time></trkpt>
        <trkpt lat="28.454867" lon="104.982613"><ele>666.7282</ele><time>2026-06-18T19:25:08.000Z</time></trkpt>
        <trkpt lat="28.454867" lon="104.982613"><ele>666.7282</ele><time>2026-06-18T19:25:10.000Z</time></trkpt>
        <trkpt lat="28.454867" lon="104.982614"><ele>666.7277</ele><time>2026-06-18T19:25:12.000Z</time></trkpt>
        <trkpt lat="28.45485" lon="104.98266"><ele>666.2745</ele><time>2026-06-18T19:25:24.000Z</time></trkpt>
        <trkpt lat="28.454834" lon="104.982705"><ele>665.78125</ele><time>2026-06-18T19:25:29.000Z</time></trkpt>
        <trkpt lat="28.454834" lon="104.982705"><ele>665.7415</ele><time>2026-06-18T19:25:31.000Z</time></trkpt>
        <trkpt lat="28.454835" lon="104.982706"><ele>665.7415</ele><time>2026-06-18T19:25:33.000Z</time></trkpt>
        <trkpt lat="28.454863" lon="104.982728"><ele>665.7415</ele><time>2026-06-18T19:26:12.000Z</time></trkpt>
        <trkpt lat="28.454863" lon="104.982729"><ele>665.7415</ele><time>2026-06-18T19:26:14.000Z</time></trkpt>
        <trkpt lat="28.454866" lon="104.982733"><ele>665.7415</ele><time>2026-06-18T19:26:16.000Z</time></trkpt>
        <trkpt lat="28.454889" lon="104.982761"><ele>665.7561</ele><time>2026-06-18T19:26:24.000Z</time></trkpt>
        <trkpt lat="28.4549" lon="104.982773"><ele>666.30096</ele><time>2026-06-18T19:26:26.000Z</time></trkpt>
        <trkpt lat="28.454907" lon="104.982774"><ele>667.03516</ele><time>2026-06-18T19:26:28.000Z</time></trkpt>
        <trkpt lat="28.454837" lon="104.982759"><ele>667.2417</ele><time>2026-06-18T19:27:01.000Z</time></trkpt>
        <trkpt lat="28.454836" lon="104.98276"><ele>667.33105</ele><time>2026-06-18T19:27:09.000Z</time></trkpt>
        <trkpt lat="28.454837" lon="104.98275"><ele>667.6065</ele><time>2026-06-18T19:27:11.000Z</time></trkpt>
        <trkpt lat="28.454841" lon="104.982683"><ele>667.6065</ele><time>2026-06-18T19:34:31.000Z</time></trkpt>
        <trkpt lat="28.454842" lon="104.982655"><ele>667.6065</ele><time>2026-06-18T19:34:33.000Z</time></trkpt>
        <trkpt lat="28.454843" lon="104.982654"><ele>667.6065</ele><time>2026-06-18T19:34:35.000Z</time></trkpt>
        <trkpt lat="28.454879" lon="104.98263"><ele>667.6065</ele><time>2026-06-18T19:34:47.000Z</time></trkpt>
        <trkpt lat="28.454913" lon="104.982606"><ele>667.4019</ele><time>2026-06-18T19:34:51.000Z</time></trkpt>
        <trkpt lat="28.454913" lon="104.982606"><ele>666.312</ele><time>2026-06-18T19:34:53.000Z</time></trkpt>
        <trkpt lat="28.45487" lon="104.982692"><ele>665.6153</ele><time>2026-06-18T19:35:00.000Z</time></trkpt>
        <trkpt lat="28.45487" lon="104.982692"><ele>665.2175</ele><time>2026-06-18T19:35:02.000Z</time></trkpt>
        <trkpt lat="28.454869" lon="104.982694"><ele>664.8265</ele><time>2026-06-18T19:35:04.000Z</time></trkpt>
        <trkpt lat="28.454851" lon="104.982737"><ele>664.8265</ele><time>2026-06-18T19:35:08.000Z</time></trkpt>
        <trkpt lat="28.454839" lon="104.982763"><ele>664.8265</ele><time>2026-06-18T19:35:10.000Z</time></trkpt>
        <trkpt lat="28.45483" lon="104.982783"><ele>664.8265</ele><time>2026-06-18T19:35:12.000Z</time></trkpt>
        <trkpt lat="28.454824" lon="104.982795"><ele>664.8265</ele><time>2026-06-18T19:35:14.000Z</time></trkpt>
        <trkpt lat="28.45482" lon="104.982796"><ele>665.2537</ele><time>2026-06-18T19:35:16.000Z</time></trkpt>
        <trkpt lat="28.454932" lon="104.982773"><ele>665.98505</ele><time>2026-06-18T19:37:24.000Z</time></trkpt>
        <trkpt lat="28.454932" lon="104.982773"><ele>666.5193</ele><time>2026-06-18T19:37:26.000Z</time></trkpt>
        <trkpt lat="28.454931" lon="104.982773"><ele>666.8756</ele><time>2026-06-18T19:37:28.000Z</time></trkpt>
        <trkpt lat="28.455046" lon="104.982752"><ele>667.0704</ele><time>2026-06-18T19:37:45.000Z</time></trkpt>
        <trkpt lat="28.455043" lon="104.982752"><ele>667.49756</ele><time>2026-06-18T19:37:47.000Z</time></trkpt>
        <trkpt lat="28.455028" lon="104.982744"><ele>667.866</ele><time>2026-06-18T19:38:00.000Z</time></trkpt>
        <trkpt lat="28.45511" lon="104.982773"><ele>668.44476</ele><time>2026-06-18T19:38:29.000Z</time></trkpt>
        <trkpt lat="28.455169" lon="104.982794"><ele>671.9061</ele><time>2026-06-18T19:38:33.000Z</time></trkpt>
        <trkpt lat="28.455169" lon="104.982794"><ele>674.80493</ele><time>2026-06-18T19:38:35.000Z</time></trkpt>
        <trkpt lat="28.455171" lon="104.982797"><ele>675.10315</ele><time>2026-06-18T19:38:37.000Z</time></trkpt>
        <trkpt lat="28.455204" lon="104.982846"><ele>676.0895</ele><time>2026-06-18T19:38:41.000Z</time></trkpt>
        <trkpt lat="28.455221" lon="104.982877"><ele>677.75714</ele><time>2026-06-18T19:38:43.000Z</time></trkpt>
        <trkpt lat="28.455232" lon="104.982903"><ele>678.72925</ele><time>2026-06-18T19:38:45.000Z</time></trkpt>
        <trkpt lat="28.455242" lon="104.982935"><ele>678.7668</ele><time>2026-06-18T19:38:47.000Z</time></trkpt>
        <trkpt lat="28.455253" lon="104.982964"><ele>679.7199</ele><time>2026-06-18T19:38:49.000Z</time></trkpt>
        <trkpt lat="28.455258" lon="104.982998"><ele>681.3828</ele><time>2026-06-18T19:38:51.000Z</time></trkpt>
        <trkpt lat="28.455256" lon="104.983023"><ele>682.5413</ele><time>2026-06-18T19:38:53.000Z</time></trkpt>
        <trkpt lat="28.455252" lon="104.983051"><ele>683.68085</ele><time>2026-06-18T19:38:55.000Z</time></trkpt>
        <trkpt lat="28.455245" lon="104.983098"><ele>684.78064</ele><time>2026-06-18T19:38:57.000Z</time></trkpt>
        <trkpt lat="28.45524" lon="104.983136"><ele>685.50256</ele><time>2026-06-18T19:38:59.000Z</time></trkpt>
        <trkpt lat="28.455232" lon="104.983163"><ele>686.1968</ele><time>2026-06-18T19:39:01.000Z</time></trkpt>
        <trkpt lat="28.455223" lon="104.983177"><ele>686.8023</ele><time>2026-06-18T19:39:03.000Z</time></trkpt>
        <trkpt lat="28.45522" lon="104.983175"><ele>687.62537</ele><time>2026-06-18T19:39:05.000Z</time></trkpt>
        <trkpt lat="28.455303" lon="104.983199"><ele>688.2279</ele><time>2026-06-18T19:39:15.000Z</time></trkpt>
        <trkpt lat="28.455433" lon="104.983236"><ele>688.66003</ele><time>2026-06-18T19:39:21.000Z</time></trkpt>
        <trkpt lat="28.455433" lon="104.983236"><ele>689.4148</ele><time>2026-06-18T19:39:23.000Z</time></trkpt>
        <trkpt lat="28.455434" lon="104.983242"><ele>689.9964</ele><time>2026-06-18T19:39:25.000Z</time></trkpt>
        <trkpt lat="28.455431" lon="104.983319"><ele>690.46075</ele><time>2026-06-18T19:39:29.000Z</time></trkpt>
        <trkpt lat="28.455426" lon="104.98352"><ele>691.4003</ele><time>2026-06-18T19:39:37.000Z</time></trkpt>
        <trkpt lat="28.455426" lon="104.98352"><ele>692.0977</ele><time>2026-06-18T19:39:39.000Z</time></trkpt>
        <trkpt lat="28.455425" lon="104.983524"><ele>692.1044</ele><time>2026-06-18T19:39:41.000Z</time></trkpt>
        <trkpt lat="28.45542" lon="104.983599"><ele>692.40955</ele><time>2026-06-18T19:39:45.000Z</time></trkpt>
        <trkpt lat="28.455469" lon="104.983684"><ele>693.84296</ele><time>2026-06-18T19:39:51.000Z</time></trkpt>
        <trkpt lat="28.455474" lon="104.983701"><ele>694.97797</ele><time>2026-06-18T19:39:53.000Z</time></trkpt>
        <trkpt lat="28.455483" lon="104.983712"><ele>694.993</ele><time>2026-06-18T19:39:55.000Z</time></trkpt>
        <trkpt lat="28.455515" lon="104.983748"><ele>695.47284</ele><time>2026-06-18T19:40:03.000Z</time></trkpt>
        <trkpt lat="28.455529" lon="104.98377"><ele>696.56885</ele><time>2026-06-18T19:40:05.000Z</time></trkpt>
        <trkpt lat="28.455531" lon="104.983783"><ele>697.4196</ele><time>2026-06-18T19:40:07.000Z</time></trkpt>
        <trkpt lat="28.455534" lon="104.983815"><ele>697.60657</ele><time>2026-06-18T19:40:11.000Z</time></trkpt>
        <trkpt lat="28.455541" lon="104.983841"><ele>697.60657</ele><time>2026-06-18T19:40:15.000Z</time></trkpt>
        <trkpt lat="28.455547" lon="104.983861"><ele>697.60657</ele><time>2026-06-18T19:40:17.000Z</time></trkpt>
        <trkpt lat="28.455557" lon="104.983872"><ele>697.60657</ele><time>2026-06-18T19:40:19.000Z</time></trkpt>
        <trkpt lat="28.455592" lon="104.983915"><ele>697.60657</ele><time>2026-06-18T19:40:23.000Z</time></trkpt>
        <trkpt lat="28.455608" lon="104.983936"><ele>697.60785</ele><time>2026-06-18T19:40:25.000Z</time></trkpt>
        <trkpt lat="28.45561" lon="104.983935"><ele>697.60785</ele><time>2026-06-18T19:40:27.000Z</time></trkpt>
        <trkpt lat="28.455539" lon="104.98397"><ele>697.60785</ele><time>2026-06-18T19:40:43.000Z</time></trkpt>
        <trkpt lat="28.455547" lon="104.983992"><ele>697.60785</ele><time>2026-06-18T19:40:45.000Z</time></trkpt>
        <trkpt lat="28.455559" lon="104.984019"><ele>697.60785</ele><time>2026-06-18T19:40:47.000Z</time></trkpt>
        <trkpt lat="28.455569" lon="104.984047"><ele>697.74554</ele><time>2026-06-18T19:40:49.000Z</time></trkpt>
        <trkpt lat="28.45558" lon="104.984075"><ele>697.8767</ele><time>2026-06-18T19:40:51.000Z</time></trkpt>
        <trkpt lat="28.455591" lon="104.984101"><ele>697.93365</ele><time>2026-06-18T19:40:53.000Z</time></trkpt>
        <trkpt lat="28.455601" lon="104.98412"><ele>697.97235</ele><time>2026-06-18T19:40:55.000Z</time></trkpt>
        <trkpt lat="28.455615" lon="104.984141"><ele>698.0188</ele><time>2026-06-18T19:40:57.000Z</time></trkpt>
        <trkpt lat="28.455621" lon="104.984162"><ele>698.19507</ele><time>2026-06-18T19:41:01.000Z</time></trkpt>
        <trkpt lat="28.45562" lon="104.984177"><ele>698.35516</ele><time>2026-06-18T19:41:03.000Z</time></trkpt>
        <trkpt lat="28.45562" lon="104.984214"><ele>698.50793</ele><time>2026-06-18T19:41:07.000Z</time></trkpt>
        <trkpt lat="28.455614" lon="104.984234"><ele>698.8681</ele><time>2026-06-18T19:41:09.000Z</time></trkpt>
        <trkpt lat="28.455603" lon="104.98425"><ele>699.38684</ele><time>2026-06-18T19:41:11.000Z</time></trkpt>
        <trkpt lat="28.455587" lon="104.984266"><ele>699.94183</ele><time>2026-06-18T19:41:13.000Z</time></trkpt>
        <trkpt lat="28.455563" lon="104.984283"><ele>700.4576</ele><time>2026-06-18T19:41:15.000Z</time></trkpt>
        <trkpt lat="28.455544" lon="104.984296"><ele>700.97784</ele><time>2026-06-18T19:41:17.000Z</time></trkpt>
        <trkpt lat="28.455555" lon="104.984335"><ele>701.3292</ele><time>2026-06-18T19:41:21.000Z</time></trkpt>
        <trkpt lat="28.455565" lon="104.984363"><ele>701.4975</ele><time>2026-06-18T19:41:23.000Z</time></trkpt>
        <trkpt lat="28.455577" lon="104.984386"><ele>701.5555</ele><time>2026-06-18T19:41:25.000Z</time></trkpt>
        <trkpt lat="28.455593" lon="104.984408"><ele>701.61273</ele><time>2026-06-18T19:41:27.000Z</time></trkpt>
        <trkpt lat="28.455613" lon="104.984429"><ele>701.6583</ele><time>2026-06-18T19:41:29.000Z</time></trkpt>
        <trkpt lat="28.455634" lon="104.984446"><ele>701.738</ele><time>2026-06-18T19:41:31.000Z</time></trkpt>
        <trkpt lat="28.455654" lon="104.98446"><ele>702.04834</ele><time>2026-06-18T19:41:33.000Z</time></trkpt>
        <trkpt lat="28.455673" lon="104.984471"><ele>702.5783</ele><time>2026-06-18T19:41:35.000Z</time></trkpt>
        <trkpt lat="28.455691" lon="104.984482"><ele>703.1359</ele><time>2026-06-18T19:41:37.000Z</time></trkpt>
        <trkpt lat="28.45571" lon="104.984494"><ele>703.58044</ele><time>2026-06-18T19:41:39.000Z</time></trkpt>
        <trkpt lat="28.45573" lon="104.98451"><ele>704.0616</ele><time>2026-06-18T19:41:41.000Z</time></trkpt>
        <trkpt lat="28.455745" lon="104.984531"><ele>704.7127</ele><time>2026-06-18T19:41:43.000Z</time></trkpt>
        <trkpt lat="28.455767" lon="104.984561"><ele>705.1858</ele><time>2026-06-18T19:41:45.000Z</time></trkpt>
        <trkpt lat="28.45579" lon="104.984587"><ele>705.5404</ele><time>2026-06-18T19:41:47.000Z</time></trkpt>
        <trkpt lat="28.455817" lon="104.984612"><ele>706.0437</ele><time>2026-06-18T19:41:49.000Z</time></trkpt>
        <trkpt lat="28.455852" lon="104.984627"><ele>706.6322</ele><time>2026-06-18T19:41:51.000Z</time></trkpt>
        <trkpt lat="28.455881" lon="104.984632"><ele>706.81165</ele><time>2026-06-18T19:41:53.000Z</time></trkpt>
        <trkpt lat="28.455901" lon="104.984633"><ele>706.81165</ele><time>2026-06-18T19:41:55.000Z</time></trkpt>
        <trkpt lat="28.455918" lon="104.984634"><ele>706.81165</ele><time>2026-06-18T19:41:57.000Z</time></trkpt>
        <trkpt lat="28.455951" lon="104.984638"><ele>706.81165</ele><time>2026-06-18T19:42:01.000Z</time></trkpt>
        <trkpt lat="28.455961" lon="104.984645"><ele>706.81165</ele><time>2026-06-18T19:42:03.000Z</time></trkpt>
        <trkpt lat="28.455968" lon="104.984659"><ele>706.28595</ele><time>2026-06-18T19:42:05.000Z</time></trkpt>
        <trkpt lat="28.455997" lon="104.984704"><ele>705.5929</ele><time>2026-06-18T19:42:09.000Z</time></trkpt>
        <trkpt lat="28.456009" lon="104.984722"><ele>704.3917</ele><time>2026-06-18T19:42:11.000Z</time></trkpt>
        <trkpt lat="28.456026" lon="104.984742"><ele>703.07623</ele><time>2026-06-18T19:42:13.000Z</time></trkpt>
        <trkpt lat="28.456041" lon="104.98476"><ele>702.3036</ele><time>2026-06-18T19:42:15.000Z</time></trkpt>
        <trkpt lat="28.456054" lon="104.984781"><ele>701.28235</ele><time>2026-06-18T19:42:17.000Z</time></trkpt>
        <trkpt lat="28.456063" lon="104.984805"><ele>700.3888</ele><time>2026-06-18T19:42:19.000Z</time></trkpt>
        <trkpt lat="28.45607" lon="104.984833"><ele>699.96326</ele><time>2026-06-18T19:42:21.000Z</time></trkpt>
        <trkpt lat="28.456076" lon="104.984863"><ele>699.54443</ele><time>2026-06-18T19:42:23.000Z</time></trkpt>
        <trkpt lat="28.456079" lon="104.984894"><ele>699.12384</ele><time>2026-06-18T19:42:25.000Z</time></trkpt>
        <trkpt lat="28.456082" lon="104.984923"><ele>698.6029</ele><time>2026-06-18T19:42:27.000Z</time></trkpt>
        <trkpt lat="28.456089" lon="104.984962"><ele>698.16943</ele><time>2026-06-18T19:42:29.000Z</time></trkpt>
        <trkpt lat="28.456095" lon="104.984987"><ele>697.86566</ele><time>2026-06-18T19:42:31.000Z</time></trkpt>
        <trkpt lat="28.456098" lon="104.985009"><ele>697.74243</ele><time>2026-06-18T19:42:33.000Z</time></trkpt>
        <trkpt lat="28.456099" lon="104.985029"><ele>697.72</ele><time>2026-06-18T19:42:35.000Z</time></trkpt>
        <trkpt lat="28.456099" lon="104.985048"><ele>697.6418</ele><time>2026-06-18T19:42:37.000Z</time></trkpt>
        <trkpt lat="28.456095" lon="104.985067"><ele>697.5554</ele><time>2026-06-18T19:42:39.000Z</time></trkpt>
        <trkpt lat="28.45609" lon="104.98509"><ele>697.5554</ele><time>2026-06-18T19:42:41.000Z</time></trkpt>
        <trkpt lat="28.45608" lon="104.98512"><ele>697.5554</ele><time>2026-06-18T19:42:43.000Z</time></trkpt>
        <trkpt lat="28.456067" lon="104.985154"><ele>697.5554</ele><time>2026-06-18T19:42:45.000Z</time></trkpt>
        <trkpt lat="28.456054" lon="104.985185"><ele>697.6107</ele><time>2026-06-18T19:42:47.000Z</time></trkpt>
        <trkpt lat="28.456043" lon="104.985215"><ele>697.628</ele><time>2026-06-18T19:42:49.000Z</time></trkpt>
        <trkpt lat="28.456031" lon="104.985242"><ele>697.628</ele><time>2026-06-18T19:42:51.000Z</time></trkpt>
        <trkpt lat="28.456015" lon="104.985268"><ele>697.628</ele><time>2026-06-18T19:42:53.000Z</time></trkpt>
        <trkpt lat="28.455995" lon="104.985288"><ele>697.628</ele><time>2026-06-18T19:42:55.000Z</time></trkpt>
        <trkpt lat="28.45598" lon="104.985303"><ele>697.8401</ele><time>2026-06-18T19:42:57.000Z</time></trkpt>
        <trkpt lat="28.455966" lon="104.985322"><ele>698.0661</ele><time>2026-06-18T19:42:59.000Z</time></trkpt>
        <trkpt lat="28.455949" lon="104.985342"><ele>698.096</ele><time>2026-06-18T19:43:01.000Z</time></trkpt>
        <trkpt lat="28.455942" lon="104.985357"><ele>698.4113</ele><time>2026-06-18T19:43:03.000Z</time></trkpt>
        <trkpt lat="28.455931" lon="104.985381"><ele>699.03314</ele><time>2026-06-18T19:43:07.000Z</time></trkpt>
        <trkpt lat="28.455921" lon="104.985405"><ele>699.5985</ele><time>2026-06-18T19:43:09.000Z</time></trkpt>
        <trkpt lat="28.455913" lon="104.985436"><ele>700.15466</ele><time>2026-06-18T19:43:11.000Z</time></trkpt>
        <trkpt lat="28.455912" lon="104.985465"><ele>701.10455</ele><time>2026-06-18T19:43:13.000Z</time></trkpt>
        <trkpt lat="28.455915" lon="104.9855"><ele>702.0217</ele><time>2026-06-18T19:43:15.000Z</time></trkpt>
        <trkpt lat="28.455923" lon="104.985543"><ele>702.4666</ele><time>2026-06-18T19:43:17.000Z</time></trkpt>
        <trkpt lat="28.455926" lon="104.985578"><ele>702.86395</ele><time>2026-06-18T19:43:19.000Z</time></trkpt>
        <trkpt lat="28.455925" lon="104.985606"><ele>703.709</ele><time>2026-06-18T19:43:21.000Z</time></trkpt>
        <trkpt lat="28.455921" lon="104.985629"><ele>704.6269</ele><time>2026-06-18T19:43:23.000Z</time></trkpt>
        <trkpt lat="28.455918" lon="104.98566"><ele>705.0437</ele><time>2026-06-18T19:43:25.000Z</time></trkpt>
        <trkpt lat="28.455918" lon="104.985687"><ele>705.2037</ele><time>2026-06-18T19:43:27.000Z</time></trkpt>
        <trkpt lat="28.455923" lon="104.985716"><ele>705.31445</ele><time>2026-06-18T19:43:29.000Z</time></trkpt>
        <trkpt lat="28.455933" lon="104.98574"><ele>705.38885</ele><time>2026-06-18T19:43:31.000Z</time></trkpt>
        <trkpt lat="28.455942" lon="104.98576"><ele>705.7238</ele><time>2026-06-18T19:43:33.000Z</time></trkpt>
        <trkpt lat="28.455953" lon="104.985779"><ele>706.30817</ele><time>2026-06-18T19:43:35.000Z</time></trkpt>
        <trkpt lat="28.455959" lon="104.985804"><ele>706.5792</ele><time>2026-06-18T19:43:37.000Z</time></trkpt>
        <trkpt lat="28.455965" lon="104.985831"><ele>706.6169</ele><time>2026-06-18T19:43:39.000Z</time></trkpt>
        <trkpt lat="28.455975" lon="104.98586"><ele>706.7153</ele><time>2026-06-18T19:43:41.000Z</time></trkpt>
        <trkpt lat="28.455989" lon="104.985889"><ele>707.05994</ele><time>2026-06-18T19:43:43.000Z</time></trkpt>
        <trkpt lat="28.456006" lon="104.985917"><ele>707.415</ele><time>2026-06-18T19:43:45.000Z</time></trkpt>
        <trkpt lat="28.456028" lon="104.985931"><ele>707.415</ele><time>2026-06-18T19:43:47.000Z</time></trkpt>
        <trkpt lat="28.456048" lon="104.985941"><ele>707.56775</ele><time>2026-06-18T19:43:49.000Z</time></trkpt>
        <trkpt lat="28.45607" lon="104.985957"><ele>707.6416</ele><time>2026-06-18T19:43:51.000Z</time></trkpt>
        <trkpt lat="28.456083" lon="104.98597"><ele>707.66626</ele><time>2026-06-18T19:43:53.000Z</time></trkpt>
        <trkpt lat="28.456093" lon="104.985985"><ele>707.7226</ele><time>2026-06-18T19:43:55.000Z</time></trkpt>
        <trkpt lat="28.456109" lon="104.986004"><ele>707.81274</ele><time>2026-06-18T19:43:59.000Z</time></trkpt>
        <trkpt lat="28.456119" lon="104.986006"><ele>707.923</ele><time>2026-06-18T19:44:01.000Z</time></trkpt>
        <trkpt lat="28.456145" lon="104.986003"><ele>708.0353</ele><time>2026-06-18T19:44:05.000Z</time></trkpt>
        <trkpt lat="28.456178" lon="104.986002"><ele>708.0918</ele><time>2026-06-18T19:44:09.000Z</time></trkpt>
        <trkpt lat="28.456193" lon="104.986005"><ele>708.2708</ele><time>2026-06-18T19:44:11.000Z</time></trkpt>
        <trkpt lat="28.45621" lon="104.986013"><ele>708.60156</ele><time>2026-06-18T19:44:13.000Z</time></trkpt>
        <trkpt lat="28.456232" lon="104.986028"><ele>708.60156</ele><time>2026-06-18T19:44:15.000Z</time></trkpt>
        <trkpt lat="28.456259" lon="104.986049"><ele>708.60156</ele><time>2026-06-18T19:44:17.000Z</time></trkpt>
        <trkpt lat="28.456285" lon="104.986071"><ele>708.60156</ele><time>2026-06-18T19:44:19.000Z</time></trkpt>
        <trkpt lat="28.456307" lon="104.986094"><ele>708.60156</ele><time>2026-06-18T19:44:21.000Z</time></trkpt>
        <trkpt lat="28.456329" lon="104.986117"><ele>708.4765</ele><time>2026-06-18T19:44:23.000Z</time></trkpt>
        <trkpt lat="28.45635" lon="104.986142"><ele>708.053</ele><time>2026-06-18T19:44:25.000Z</time></trkpt>
        <trkpt lat="28.45637" lon="104.986166"><ele>707.84656</ele><time>2026-06-18T19:44:27.000Z</time></trkpt>
        <trkpt lat="28.456387" lon="104.986187"><ele>707.84656</ele><time>2026-06-18T19:44:29.000Z</time></trkpt>
        <trkpt lat="28.456402" lon="104.986207"><ele>707.84656</ele><time>2026-06-18T19:44:31.000Z</time></trkpt>
        <trkpt lat="28.456416" lon="104.986219"><ele>707.84656</ele><time>2026-06-18T19:44:33.000Z</time></trkpt>
        <trkpt lat="28.456429" lon="104.98623"><ele>707.84656</ele><time>2026-06-18T19:44:35.000Z</time></trkpt>
        <trkpt lat="28.456445" lon="104.986255"><ele>707.9026</ele><time>2026-06-18T19:44:39.000Z</time></trkpt>
        <trkpt lat="28.456455" lon="104.986279"><ele>708.09735</ele><time>2026-06-18T19:44:41.000Z</time></trkpt>
        <trkpt lat="28.456474" lon="104.986309"><ele>708.2118</ele><time>2026-06-18T19:44:43.000Z</time></trkpt>
        <trkpt lat="28.456491" lon="104.986335"><ele>708.2832</ele><time>2026-06-18T19:44:45.000Z</time></trkpt>
        <trkpt lat="28.456506" lon="104.986359"><ele>708.46216</ele><time>2026-06-18T19:44:47.000Z</time></trkpt>
        <trkpt lat="28.456522" lon="104.986383"><ele>708.74493</ele><time>2026-06-18T19:44:49.000Z</time></trkpt>
        <trkpt lat="28.456541" lon="104.986407"><ele>709.16394</ele><time>2026-06-18T19:44:51.000Z</time></trkpt>
        <trkpt lat="28.456555" lon="104.986425"><ele>709.4908</ele><time>2026-06-18T19:44:53.000Z</time></trkpt>
        <trkpt lat="28.456559" lon="104.986441"><ele>709.6633</ele><time>2026-06-18T19:44:55.000Z</time></trkpt>
        <trkpt lat="28.456561" lon="104.986471"><ele>709.87897</ele><time>2026-06-18T19:44:57.000Z</time></trkpt>
        <trkpt lat="28.45657" lon="104.986612"><ele>710.1358</ele><time>2026-06-18T19:45:03.000Z</time></trkpt>
        <trkpt lat="28.45657" lon="104.986612"><ele>710.3468</ele><time>2026-06-18T19:45:05.000Z</time></trkpt>
        <trkpt lat="28.456576" lon="104.986616"><ele>710.67126</ele><time>2026-06-18T19:45:07.000Z</time></trkpt>
        <trkpt lat="28.456642" lon="104.986651"><ele>711.0909</ele><time>2026-06-18T19:45:11.000Z</time></trkpt>
        <trkpt lat="28.456674" lon="104.986661"><ele>711.41547</ele><time>2026-06-18T19:45:13.000Z</time></trkpt>
        <trkpt lat="28.456698" lon="104.986667"><ele>711.61597</ele><time>2026-06-18T19:45:15.000Z</time></trkpt>
        <trkpt lat="28.456717" lon="104.986668"><ele>711.86365</ele><time>2026-06-18T19:45:17.000Z</time></trkpt>
        <trkpt lat="28.456739" lon="104.986667"><ele>714.2125</ele><time>2026-06-18T19:45:19.000Z</time></trkpt>
        <trkpt lat="28.456764" lon="104.986665"><ele>717.59515</ele><time>2026-06-18T19:45:21.000Z</time></trkpt>
        <trkpt lat="28.45678" lon="104.986663"><ele>719.9172</ele><time>2026-06-18T19:45:23.000Z</time></trkpt>
        <trkpt lat="28.456801" lon="104.986659"><ele>721.55414</ele><time>2026-06-18T19:45:25.000Z</time></trkpt>
        <trkpt lat="28.456822" lon="104.986651"><ele>722.53204</ele><time>2026-06-18T19:45:27.000Z</time></trkpt>
        <trkpt lat="28.456845" lon="104.986637"><ele>722.9619</ele><time>2026-06-18T19:45:29.000Z</time></trkpt>
        <trkpt lat="28.456869" lon="104.98662"><ele>723.0408</ele><time>2026-06-18T19:45:31.000Z</time></trkpt>
        <trkpt lat="28.456886" lon="104.986605"><ele>723.0408</ele><time>2026-06-18T19:45:33.000Z</time></trkpt>
        <trkpt lat="28.456898" lon="104.986592"><ele>723.0408</ele><time>2026-06-18T19:45:35.000Z</time></trkpt>
        <trkpt lat="28.45691" lon="104.986579"><ele>723.0408</ele><time>2026-06-18T19:45:37.000Z</time></trkpt>
        <trkpt lat="28.456925" lon="104.986568"><ele>723.00006</ele><time>2026-06-18T19:45:39.000Z</time></trkpt>
        <trkpt lat="28.456943" lon="104.986553"><ele>722.74475</ele><time>2026-06-18T19:45:41.000Z</time></trkpt>
        <trkpt lat="28.45696" lon="104.986541"><ele>722.0942</ele><time>2026-06-18T19:45:43.000Z</time></trkpt>
        <trkpt lat="28.456979" lon="104.986525"><ele>721.60785</ele><time>2026-06-18T19:45:45.000Z</time></trkpt>
        <trkpt lat="28.456994" lon="104.986513"><ele>721.1458</ele><time>2026-06-18T19:45:47.000Z</time></trkpt>
        <trkpt lat="28.45701" lon="104.98651"><ele>720.66815</ele><time>2026-06-18T19:45:49.000Z</time></trkpt>
        <trkpt lat="28.457025" lon="104.986514"><ele>720.1049</ele><time>2026-06-18T19:45:51.000Z</time></trkpt>
        <trkpt lat="28.457046" lon="104.986525"><ele>719.3038</ele><time>2026-06-18T19:45:53.000Z</time></trkpt>
        <trkpt lat="28.457071" lon="104.986538"><ele>718.38513</ele><time>2026-06-18T19:45:55.000Z</time></trkpt>
        <trkpt lat="28.457096" lon="104.986553"><ele>717.7237</ele><time>2026-06-18T19:45:57.000Z</time></trkpt>
        <trkpt lat="28.457121" lon="104.98657"><ele>717.28156</ele><time>2026-06-18T19:45:59.000Z</time></trkpt>
        <trkpt lat="28.457144" lon="104.986588"><ele>716.8797</ele><time>2026-06-18T19:46:01.000Z</time></trkpt>
        <trkpt lat="28.457167" lon="104.986602"><ele>716.56256</ele><time>2026-06-18T19:46:03.000Z</time></trkpt>
        <trkpt lat="28.457192" lon="104.986612"><ele>716.351</ele><time>2026-06-18T19:46:05.000Z</time></trkpt>
        <trkpt lat="28.457211" lon="104.986619"><ele>716.2809</ele><time>2026-06-18T19:46:07.000Z</time></trkpt>
        <trkpt lat="28.457229" lon="104.986625"><ele>716.2104</ele><time>2026-06-18T19:46:09.000Z</time></trkpt>
        <trkpt lat="28.457246" lon="104.986635"><ele>716.18414</ele><time>2026-06-18T19:46:11.000Z</time></trkpt>
        <trkpt lat="28.457263" lon="104.98665"><ele>716.1327</ele><time>2026-06-18T19:46:13.000Z</time></trkpt>
        <trkpt lat="28.45728" lon="104.986667"><ele>716.1327</ele><time>2026-06-18T19:46:15.000Z</time></trkpt>
        <trkpt lat="28.457298" lon="104.986684"><ele>716.17993</ele><time>2026-06-18T19:46:17.000Z</time></trkpt>
        <trkpt lat="28.457316" lon="104.986704"><ele>716.17993</ele><time>2026-06-18T19:46:19.000Z</time></trkpt>
        <trkpt lat="28.457332" lon="104.986722"><ele>716.17993</ele><time>2026-06-18T19:46:21.000Z</time></trkpt>
        <trkpt lat="28.457348" lon="104.986739"><ele>716.1854</ele><time>2026-06-18T19:46:23.000Z</time></trkpt>
        <trkpt lat="28.457364" lon="104.986756"><ele>716.30835</ele><time>2026-06-18T19:46:25.000Z</time></trkpt>
        <trkpt lat="28.457381" lon="104.986774"><ele>716.60547</ele><time>2026-06-18T19:46:27.000Z</time></trkpt>
        <trkpt lat="28.457396" lon="104.986787"><ele>716.8966</ele><time>2026-06-18T19:46:29.000Z</time></trkpt>
        <trkpt lat="28.457409" lon="104.986797"><ele>717.1118</ele><time>2026-06-18T19:46:31.000Z</time></trkpt>
        <trkpt lat="28.45742" lon="104.986803"><ele>717.3066</ele><time>2026-06-18T19:46:33.000Z</time></trkpt>
        <trkpt lat="28.457435" lon="104.986804"><ele>717.71735</ele><time>2026-06-18T19:46:37.000Z</time></trkpt>
        <trkpt lat="28.457454" lon="104.986803"><ele>718.43</ele><time>2026-06-18T19:46:41.000Z</time></trkpt>
        <trkpt lat="28.457466" lon="104.986803"><ele>719.175</ele><time>2026-06-18T19:46:43.000Z</time></trkpt>
        <trkpt lat="28.457484" lon="104.986806"><ele>719.9663</ele><time>2026-06-18T19:46:45.000Z</time></trkpt>
        <trkpt lat="28.457509" lon="104.986808"><ele>721.33734</ele><time>2026-06-18T19:46:47.000Z</time></trkpt>
        <trkpt lat="28.457534" lon="104.986805"><ele>722.77234</ele><time>2026-06-18T19:46:49.000Z</time></trkpt>
        <trkpt lat="28.457559" lon="104.986803"><ele>723.4058</ele><time>2026-06-18T19:46:51.000Z</time></trkpt>
        <trkpt lat="28.457592" lon="104.986796"><ele>723.78033</ele><time>2026-06-18T19:46:53.000Z</time></trkpt>
        <trkpt lat="28.457627" lon="104.98678"><ele>724.19446</ele><time>2026-06-18T19:46:55.000Z</time></trkpt>
        <trkpt lat="28.457653" lon="104.986759"><ele>724.7657</ele><time>2026-06-18T19:46:57.000Z</time></trkpt>
        <trkpt lat="28.45768" lon="104.986731"><ele>725.20416</ele><time>2026-06-18T19:46:59.000Z</time></trkpt>
        <trkpt lat="28.4577" lon="104.986709"><ele>725.54614</ele><time>2026-06-18T19:47:01.000Z</time></trkpt>
        <trkpt lat="28.457718" lon="104.986694"><ele>725.93604</ele><time>2026-06-18T19:47:03.000Z</time></trkpt>
        <trkpt lat="28.457739" lon="104.98668"><ele>726.0955</ele><time>2026-06-18T19:47:05.000Z</time></trkpt>
        <trkpt lat="28.457763" lon="104.986666"><ele>726.38464</ele><time>2026-06-18T19:47:07.000Z</time></trkpt>
        <trkpt lat="28.457783" lon="104.98666"><ele>726.6769</ele><time>2026-06-18T19:47:09.000Z</time></trkpt>
        <trkpt lat="28.457801" lon="104.986652"><ele>726.83356</ele><time>2026-06-18T19:47:11.000Z</time></trkpt>
        <trkpt lat="28.457832" lon="104.986639"><ele>727.04974</ele><time>2026-06-18T19:47:15.000Z</time></trkpt>
        <trkpt lat="28.457849" lon="104.986634"><ele>727.2255</ele><time>2026-06-18T19:47:17.000Z</time></trkpt>
        <trkpt lat="28.457868" lon="104.98663"><ele>727.38043</ele><time>2026-06-18T19:47:19.000Z</time></trkpt>
        <trkpt lat="28.457907" lon="104.986618"><ele>727.38043</ele><time>2026-06-18T19:47:23.000Z</time></trkpt>
        <trkpt lat="28.457936" lon="104.986606"><ele>727.38043</ele><time>2026-06-18T19:47:25.000Z</time></trkpt>
        <trkpt lat="28.457963" lon="104.986594"><ele>727.3432</ele><time>2026-06-18T19:47:27.000Z</time></trkpt>
        <trkpt lat="28.457988" lon="104.986589"><ele>727.2615</ele><time>2026-06-18T19:47:29.000Z</time></trkpt>
        <trkpt lat="28.458009" lon="104.98659"><ele>726.9681</ele><time>2026-06-18T19:47:31.000Z</time></trkpt>
        <trkpt lat="28.458025" lon="104.986603"><ele>726.8289</ele><time>2026-06-18T19:47:33.000Z</time></trkpt>
        <trkpt lat="28.45804" lon="104.986625"><ele>726.3609</ele><time>2026-06-18T19:47:37.000Z</time></trkpt>
        <trkpt lat="28.458066" lon="104.98666"><ele>725.91296</ele><time>2026-06-18T19:47:46.000Z</time></trkpt>
        <trkpt lat="28.458066" lon="104.98666"><ele>725.74084</ele><time>2026-06-18T19:47:48.000Z</time></trkpt>
        <trkpt lat="28.458103" lon="104.9867"><ele>725.62823</ele><time>2026-06-18T19:47:54.000Z</time></trkpt>
        <trkpt lat="28.458122" lon="104.986727"><ele>725.3159</ele><time>2026-06-18T19:47:56.000Z</time></trkpt>
        <trkpt lat="28.458143" lon="104.98676"><ele>724.69635</ele><time>2026-06-18T19:47:58.000Z</time></trkpt>
        <trkpt lat="28.458162" lon="104.98679"><ele>724.2372</ele><time>2026-06-18T19:48:00.000Z</time></trkpt>
        <trkpt lat="28.458178" lon="104.986813"><ele>723.87024</ele><time>2026-06-18T19:48:02.000Z</time></trkpt>
        <trkpt lat="28.458188" lon="104.986836"><ele>723.59344</ele><time>2026-06-18T19:48:04.000Z</time></trkpt>
        <trkpt lat="28.458187" lon="104.986853"><ele>723.3861</ele><time>2026-06-18T19:48:06.000Z</time></trkpt>
        <trkpt lat="28.458179" lon="104.986894"><ele>722.9631</ele><time>2026-06-18T19:48:10.000Z</time></trkpt>
        <trkpt lat="28.458173" lon="104.986923"><ele>722.5699</ele><time>2026-06-18T19:48:12.000Z</time></trkpt>
        <trkpt lat="28.458174" lon="104.986951"><ele>722.47186</ele><time>2026-06-18T19:48:14.000Z</time></trkpt>
        <trkpt lat="28.458178" lon="104.986985"><ele>722.47186</ele><time>2026-06-18T19:48:16.000Z</time></trkpt>
        <trkpt lat="28.458183" lon="104.987011"><ele>722.47186</ele><time>2026-06-18T19:48:18.000Z</time></trkpt>
        <trkpt lat="28.458189" lon="104.987031"><ele>722.47186</ele><time>2026-06-18T19:48:20.000Z</time></trkpt>
        <trkpt lat="28.458191" lon="104.987047"><ele>722.47186</ele><time>2026-06-18T19:48:22.000Z</time></trkpt>
        <trkpt lat="28.458203" lon="104.987102"><ele>722.9483</ele><time>2026-06-18T19:48:28.000Z</time></trkpt>
        <trkpt lat="28.458211" lon="104.987126"><ele>723.5749</ele><time>2026-06-18T19:48:30.000Z</time></trkpt>
        <trkpt lat="28.458229" lon="104.987167"><ele>723.77423</ele><time>2026-06-18T19:48:32.000Z</time></trkpt>
        <trkpt lat="28.458288" lon="104.9873"><ele>724.0908</ele><time>2026-06-18T19:48:38.000Z</time></trkpt>
        <trkpt lat="28.458288" lon="104.9873"><ele>725.0293</ele><time>2026-06-18T19:48:40.000Z</time></trkpt>
        <trkpt lat="28.458288" lon="104.987302"><ele>725.87616</ele><time>2026-06-18T19:48:42.000Z</time></trkpt>
        <trkpt lat="28.458273" lon="104.987396"><ele>726.3766</ele><time>2026-06-18T19:48:48.000Z</time></trkpt>
        <trkpt lat="28.458294" lon="104.987429"><ele>727.7648</ele><time>2026-06-18T19:48:50.000Z</time></trkpt>
        <trkpt lat="28.458309" lon="104.987452"><ele>728.85114</ele><time>2026-06-18T19:48:52.000Z</time></trkpt>
        <trkpt lat="28.45833" lon="104.98744"><ele>728.87244</ele><time>2026-06-18T19:48:54.000Z</time></trkpt>
        <trkpt lat="28.458357" lon="104.987418"><ele>729.8308</ele><time>2026-06-18T19:48:56.000Z</time></trkpt>
        <trkpt lat="28.458379" lon="104.987396"><ele>731.6713</ele><time>2026-06-18T19:48:58.000Z</time></trkpt>
        <trkpt lat="28.458393" lon="104.987379"><ele>733.04614</ele><time>2026-06-18T19:49:00.000Z</time></trkpt>
        <trkpt lat="28.458406" lon="104.987364"><ele>733.22626</ele><time>2026-06-18T19:49:02.000Z</time></trkpt>
        <trkpt lat="28.458416" lon="104.987358"><ele>733.22626</ele><time>2026-06-18T19:49:04.000Z</time></trkpt>
        <trkpt lat="28.458436" lon="104.987355"><ele>733.22626</ele><time>2026-06-18T19:49:08.000Z</time></trkpt>
        <trkpt lat="28.458457" lon="104.987352"><ele>733.22626</ele><time>2026-06-18T19:49:12.000Z</time></trkpt>
        <trkpt lat="28.458468" lon="104.987385"><ele>733.22626</ele><time>2026-06-18T19:49:16.000Z</time></trkpt>
        <trkpt lat="28.458469" lon="104.987399"><ele>732.62103</ele><time>2026-06-18T19:49:18.000Z</time></trkpt>
        <trkpt lat="28.458466" lon="104.987419"><ele>732.0485</ele><time>2026-06-18T19:49:20.000Z</time></trkpt>
        <trkpt lat="28.458458" lon="104.987444"><ele>732.0265</ele><time>2026-06-18T19:49:22.000Z</time></trkpt>
        <trkpt lat="28.458445" lon="104.987471"><ele>732.0265</ele><time>2026-06-18T19:49:24.000Z</time></trkpt>
        <trkpt lat="28.458426" lon="104.987497"><ele>732.0265</ele><time>2026-06-18T19:49:26.000Z</time></trkpt>
        <trkpt lat="28.458402" lon="104.987525"><ele>732.0265</ele><time>2026-06-18T19:49:28.000Z</time></trkpt>
        <trkpt lat="28.458379" lon="104.987552"><ele>732.0265</ele><time>2026-06-18T19:49:30.000Z</time></trkpt>
        <trkpt lat="28.45836" lon="104.987577"><ele>732.6437</ele><time>2026-06-18T19:49:32.000Z</time></trkpt>
        <trkpt lat="28.458344" lon="104.9876"><ele>733.48627</ele><time>2026-06-18T19:49:34.000Z</time></trkpt>
        <trkpt lat="28.458339" lon="104.987611"><ele>734.5975</ele><time>2026-06-18T19:49:36.000Z</time></trkpt>
        <trkpt lat="28.458322" lon="104.98764"><ele>735.79834</ele><time>2026-06-18T19:49:42.000Z</time></trkpt>
        <trkpt lat="28.458315" lon="104.987652"><ele>736.9801</ele><time>2026-06-18T19:49:44.000Z</time></trkpt>
        <trkpt lat="28.458304" lon="104.98767"><ele>738.16095</ele><time>2026-06-18T19:49:46.000Z</time></trkpt>
        <trkpt lat="28.458292" lon="104.987692"><ele>739.26624</ele><time>2026-06-18T19:49:48.000Z</time></trkpt>
        <trkpt lat="28.45828" lon="104.987712"><ele>740.7348</ele><time>2026-06-18T19:49:50.000Z</time></trkpt>
        <trkpt lat="28.45827" lon="104.987731"><ele>742.0071</ele><time>2026-06-18T19:49:52.000Z</time></trkpt>
        <trkpt lat="28.458261" lon="104.987745"><ele>742.6484</ele><time>2026-06-18T19:49:54.000Z</time></trkpt>
        <trkpt lat="28.458252" lon="104.987756"><ele>743.25</ele><time>2026-06-18T19:49:56.000Z</time></trkpt>
        <trkpt lat="28.458231" lon="104.987783"><ele>743.984</ele><time>2026-06-18T19:50:00.000Z</time></trkpt>
        <trkpt lat="28.458221" lon="104.987799"><ele>744.7582</ele><time>2026-06-18T19:50:02.000Z</time></trkpt>
        <trkpt lat="28.458214" lon="104.987813"><ele>745.45105</ele><time>2026-06-18T19:50:04.000Z</time></trkpt>
        <trkpt lat="28.458208" lon="104.987829"><ele>746.07043</ele><time>2026-06-18T19:50:06.000Z</time></trkpt>
        <trkpt lat="28.458192" lon="104.987869"><ele>746.78613</ele><time>2026-06-18T19:50:17.000Z</time></trkpt>
        <trkpt lat="28.458192" lon="104.987869"><ele>747.50885</ele><time>2026-06-18T19:50:19.000Z</time></trkpt>
        <trkpt lat="28.458178" lon="104.987886"><ele>748.04376</ele><time>2026-06-18T19:50:23.000Z</time></trkpt>
        <trkpt lat="28.458131" lon="104.987939"><ele>748.49615</ele><time>2026-06-18T19:50:27.000Z</time></trkpt>
        <trkpt lat="28.458105" lon="104.987966"><ele>748.85</ele><time>2026-06-18T19:50:29.000Z</time></trkpt>
        <trkpt lat="28.458081" lon="104.98799"><ele>748.99664</ele><time>2026-06-18T19:50:31.000Z</time></trkpt>
        <trkpt lat="28.458061" lon="104.988011"><ele>749.12946</ele><time>2026-06-18T19:50:33.000Z</time></trkpt>
        <trkpt lat="28.458041" lon="104.988035"><ele>749.68054</ele><time>2026-06-18T19:50:35.000Z</time></trkpt>
        <trkpt lat="28.458019" lon="104.988065"><ele>750.30396</ele><time>2026-06-18T19:50:37.000Z</time></trkpt>
        <trkpt lat="28.458005" lon="104.988088"><ele>750.7024</ele><time>2026-06-18T19:50:39.000Z</time></trkpt>
        <trkpt lat="28.457992" lon="104.988109"><ele>750.91223</ele><time>2026-06-18T19:50:41.000Z</time></trkpt>
        <trkpt lat="28.457984" lon="104.988128"><ele>750.93146</ele><time>2026-06-18T19:50:43.000Z</time></trkpt>
        <trkpt lat="28.457977" lon="104.988147"><ele>750.97974</ele><time>2026-06-18T19:50:45.000Z</time></trkpt>
        <trkpt lat="28.457967" lon="104.98817"><ele>751.0355</ele><time>2026-06-18T19:50:47.000Z</time></trkpt>
        <trkpt lat="28.457956" lon="104.988193"><ele>751.07245</ele><time>2026-06-18T19:50:49.000Z</time></trkpt>
        <trkpt lat="28.457951" lon="104.988192"><ele>751.107</ele><time>2026-06-18T19:50:51.000Z</time></trkpt>
        <trkpt lat="28.458018" lon="104.988198"><ele>751.177</ele><time>2026-06-18T19:51:05.000Z</time></trkpt>
        <trkpt lat="28.458018" lon="104.988198"><ele>751.38574</ele><time>2026-06-18T19:51:07.000Z</time></trkpt>
        <trkpt lat="28.458019" lon="104.988196"><ele>751.681</ele><time>2026-06-18T19:51:09.000Z</time></trkpt>
        <trkpt lat="28.45799" lon="104.988264"><ele>751.97485</ele><time>2026-06-18T19:51:19.000Z</time></trkpt>
        <trkpt lat="28.45798" lon="104.988291"><ele>752.51514</ele><time>2026-06-18T19:51:21.000Z</time></trkpt>
        <trkpt lat="28.457973" lon="104.988313"><ele>752.9166</ele><time>2026-06-18T19:51:23.000Z</time></trkpt>
        <trkpt lat="28.457976" lon="104.988324"><ele>752.9233</ele><time>2026-06-18T19:51:25.000Z</time></trkpt>
        <trkpt lat="28.457985" lon="104.988362"><ele>753.1308</ele><time>2026-06-18T19:51:33.000Z</time></trkpt>
        <trkpt lat="28.457982" lon="104.988381"><ele>753.6368</ele><time>2026-06-18T19:51:37.000Z</time></trkpt>
        <trkpt lat="28.457973" lon="104.988398"><ele>754.21783</ele><time>2026-06-18T19:51:39.000Z</time></trkpt>
        <trkpt lat="28.457949" lon="104.98844"><ele>754.71326</ele><time>2026-06-18T19:51:43.000Z</time></trkpt>
        <trkpt lat="28.457936" lon="104.988456"><ele>755.3644</ele><time>2026-06-18T19:51:45.000Z</time></trkpt>
        <trkpt lat="28.457921" lon="104.988473"><ele>755.92957</ele><time>2026-06-18T19:51:47.000Z</time></trkpt>
        <trkpt lat="28.457912" lon="104.988489"><ele>756.1286</ele><time>2026-06-18T19:51:49.000Z</time></trkpt>
        <trkpt lat="28.4579" lon="104.988513"><ele>756.5086</ele><time>2026-06-18T19:51:51.000Z</time></trkpt>
        <trkpt lat="28.457885" lon="104.988537"><ele>756.8751</ele><time>2026-06-18T19:51:53.000Z</time></trkpt>
        <trkpt lat="28.457864" lon="104.988568"><ele>757.0451</ele><time>2026-06-18T19:51:55.000Z</time></trkpt>
        <trkpt lat="28.457848" lon="104.988595"><ele>757.16534</ele><time>2026-06-18T19:51:57.000Z</time></trkpt>
        <trkpt lat="28.457836" lon="104.988622"><ele>757.23065</ele><time>2026-06-18T19:51:59.000Z</time></trkpt>
        <trkpt lat="28.457831" lon="104.988639"><ele>757.4101</ele><time>2026-06-18T19:52:01.000Z</time></trkpt>
        <trkpt lat="28.457822" lon="104.988655"><ele>757.72833</ele><time>2026-06-18T19:52:03.000Z</time></trkpt>
        <trkpt lat="28.45781" lon="104.988674"><ele>758.2036</ele><time>2026-06-18T19:52:07.000Z</time></trkpt>
        <trkpt lat="28.457777" lon="104.988659"><ele>758.7038</ele><time>2026-06-18T19:52:11.000Z</time></trkpt>
        <trkpt lat="28.457776" lon="104.988661"><ele>759.1218</ele><time>2026-06-18T19:52:13.000Z</time></trkpt>
        <trkpt lat="28.457759" lon="104.98869"><ele>759.54626</ele><time>2026-06-18T19:52:25.000Z</time></trkpt>
        <trkpt lat="28.457838" lon="104.988627"><ele>760.2735</ele><time>2026-06-18T19:52:41.000Z</time></trkpt>
        <trkpt lat="28.457838" lon="104.988627"><ele>760.8005</ele><time>2026-06-18T19:52:43.000Z</time></trkpt>
        <trkpt lat="28.457838" lon="104.988628"><ele>760.8715</ele><time>2026-06-18T19:52:45.000Z</time></trkpt>
        <trkpt lat="28.457812" lon="104.988676"><ele>760.8715</ele><time>2026-06-18T19:52:55.000Z</time></trkpt>
        <trkpt lat="28.457796" lon="104.988692"><ele>760.8715</ele><time>2026-06-18T19:52:57.000Z</time></trkpt>
        <trkpt lat="28.457772" lon="104.988707"><ele>760.8715</ele><time>2026-06-18T19:52:59.000Z</time></trkpt>
        <trkpt lat="28.45775" lon="104.988711"><ele>760.9938</ele><time>2026-06-18T19:53:01.000Z</time></trkpt>
        <trkpt lat="28.45773" lon="104.988709"><ele>761.1614</ele><time>2026-06-18T19:53:03.000Z</time></trkpt>
        <trkpt lat="28.45771" lon="104.988698"><ele>761.20917</ele><time>2026-06-18T19:53:05.000Z</time></trkpt>
        <trkpt lat="28.457699" lon="104.988683"><ele>761.20917</ele><time>2026-06-18T19:53:07.000Z</time></trkpt>
        <trkpt lat="28.457697" lon="104.988666"><ele>761.20917</ele><time>2026-06-18T19:53:09.000Z</time></trkpt>
        <trkpt lat="28.4577" lon="104.988648"><ele>761.34796</ele><time>2026-06-18T19:53:11.000Z</time></trkpt>
        <trkpt lat="28.457708" lon="104.98863"><ele>761.34796</ele><time>2026-06-18T19:53:13.000Z</time></trkpt>
        <trkpt lat="28.457722" lon="104.98861"><ele>761.34796</ele><time>2026-06-18T19:53:15.000Z</time></trkpt>
        <trkpt lat="28.457737" lon="104.988593"><ele>761.34796</ele><time>2026-06-18T19:53:17.000Z</time></trkpt>
        <trkpt lat="28.457749" lon="104.988581"><ele>761.34796</ele><time>2026-06-18T19:53:19.000Z</time></trkpt>
        <trkpt lat="28.457757" lon="104.988577"><ele>761.3075</ele><time>2026-06-18T19:53:21.000Z</time></trkpt>
        <trkpt lat="28.457763" lon="104.988564"><ele>760.9542</ele><time>2026-06-18T19:53:29.000Z</time></trkpt>
        <trkpt lat="28.457793" lon="104.9885"><ele>760.5684</ele><time>2026-06-18T19:53:34.000Z</time></trkpt>
        <trkpt lat="28.457793" lon="104.9885"><ele>759.92365</ele><time>2026-06-18T19:53:36.000Z</time></trkpt>
        <trkpt lat="28.457795" lon="104.988497"><ele>759.2774</ele><time>2026-06-18T19:53:38.000Z</time></trkpt>
        <trkpt lat="28.457816" lon="104.988465"><ele>758.31165</ele><time>2026-06-18T19:53:42.000Z</time></trkpt>
        <trkpt lat="28.45783" lon="104.988441"><ele>757.26044</ele><time>2026-06-18T19:53:44.000Z</time></trkpt>
        <trkpt lat="28.457841" lon="104.988417"><ele>756.91364</ele><time>2026-06-18T19:53:46.000Z</time></trkpt>
        <trkpt lat="28.457851" lon="104.988394"><ele>756.89185</ele><time>2026-06-18T19:53:48.000Z</time></trkpt>
        <trkpt lat="28.45786" lon="104.988373"><ele>756.50366</ele><time>2026-06-18T19:53:50.000Z</time></trkpt>
        <trkpt lat="28.457867" lon="104.988358"><ele>755.85046</ele><time>2026-06-18T19:53:52.000Z</time></trkpt>
        <trkpt lat="28.45787" lon="104.988349"><ele>755.3046</ele><time>2026-06-18T19:53:54.000Z</time></trkpt>
        <trkpt lat="28.457875" lon="104.988331"><ele>754.7504</ele><time>2026-06-18T19:53:58.000Z</time></trkpt>
        <trkpt lat="28.457879" lon="104.988317"><ele>754.2707</ele><time>2026-06-18T19:54:00.000Z</time></trkpt>
        <trkpt lat="28.457883" lon="104.9883"><ele>753.9467</ele><time>2026-06-18T19:54:02.000Z</time></trkpt>
        <trkpt lat="28.457888" lon="104.988281"><ele>753.7455</ele><time>2026-06-18T19:54:04.000Z</time></trkpt>
        <trkpt lat="28.457893" lon="104.988261"><ele>753.4914</ele><time>2026-06-18T19:54:06.000Z</time></trkpt>
        <trkpt lat="28.457901" lon="104.98824"><ele>753.29083</ele><time>2026-06-18T19:54:08.000Z</time></trkpt>
        <trkpt lat="28.45791" lon="104.988218"><ele>753.29083</ele><time>2026-06-18T19:54:10.000Z</time></trkpt>
        <trkpt lat="28.45792" lon="104.988196"><ele>753.26636</ele><time>2026-06-18T19:54:12.000Z</time></trkpt>
        <trkpt lat="28.457928" lon="104.988175"><ele>753.2106</ele><time>2026-06-18T19:54:14.000Z</time></trkpt>
        <trkpt lat="28.457936" lon="104.988154"><ele>753.1664</ele><time>2026-06-18T19:54:16.000Z</time></trkpt>
        <trkpt lat="28.457944" lon="104.988138"><ele>753.1629</ele><time>2026-06-18T19:54:18.000Z</time></trkpt>
        <trkpt lat="28.45795" lon="104.988132"><ele>753.1629</ele><time>2026-06-18T19:54:20.000Z</time></trkpt>
        <trkpt lat="28.457974" lon="104.988113"><ele>753.0129</ele><time>2026-06-18T19:54:24.000Z</time></trkpt>
        <trkpt lat="28.457985" lon="104.988101"><ele>752.744</ele><time>2026-06-18T19:54:26.000Z</time></trkpt>
        <trkpt lat="28.457997" lon="104.988084"><ele>752.4002</ele><time>2026-06-18T19:54:28.000Z</time></trkpt>
        <trkpt lat="28.458012" lon="104.988062"><ele>751.952</ele><time>2026-06-18T19:54:30.000Z</time></trkpt>
        <trkpt lat="28.458025" lon="104.98804"><ele>751.3628</ele><time>2026-06-18T19:54:32.000Z</time></trkpt>
        <trkpt lat="28.458036" lon="104.98802"><ele>750.90894</ele><time>2026-06-18T19:54:34.000Z</time></trkpt>
        <trkpt lat="28.458045" lon="104.987999"><ele>750.7504</ele><time>2026-06-18T19:54:36.000Z</time></trkpt>
        <trkpt lat="28.458051" lon="104.987981"><ele>750.5905</ele><time>2026-06-18T19:54:38.000Z</time></trkpt>
        <trkpt lat="28.458053" lon="104.987962"><ele>750.3506</ele><time>2026-06-18T19:54:40.000Z</time></trkpt>
        <trkpt lat="28.458052" lon="104.987944"><ele>749.997</ele><time>2026-06-18T19:54:42.000Z</time></trkpt>
        <trkpt lat="28.458053" lon="104.987929"><ele>749.61884</ele><time>2026-06-18T19:54:44.000Z</time></trkpt>
        <trkpt lat="28.458058" lon="104.987914"><ele>749.2269</ele><time>2026-06-18T19:54:46.000Z</time></trkpt>
        <trkpt lat="28.458068" lon="104.987897"><ele>748.8517</ele><time>2026-06-18T19:54:48.000Z</time></trkpt>
        <trkpt lat="28.458083" lon="104.98788"><ele>748.5301</ele><time>2026-06-18T19:54:50.000Z</time></trkpt>
        <trkpt lat="28.4581" lon="104.987862"><ele>748.33795</ele><time>2026-06-18T19:54:52.000Z</time></trkpt>
        <trkpt lat="28.458118" lon="104.987849"><ele>748.2631</ele><time>2026-06-18T19:54:54.000Z</time></trkpt>
        <trkpt lat="28.45814" lon="104.987833"><ele>748.1775</ele><time>2026-06-18T19:54:56.000Z</time></trkpt>
        <trkpt lat="28.458159" lon="104.987817"><ele>748.01245</ele><time>2026-06-18T19:54:58.000Z</time></trkpt>
        <trkpt lat="28.458174" lon="104.987803"><ele>747.7919</ele><time>2026-06-18T19:55:00.000Z</time></trkpt>
        <trkpt lat="28.458189" lon="104.987792"><ele>747.6335</ele><time>2026-06-18T19:55:02.000Z</time></trkpt>
        <trkpt lat="28.458203" lon="104.987778"><ele>747.53064</ele><time>2026-06-18T19:55:04.000Z</time></trkpt>
        <trkpt lat="28.458216" lon="104.987766"><ele>747.4329</ele><time>2026-06-18T19:55:06.000Z</time></trkpt>
        <trkpt lat="28.458227" lon="104.987754"><ele>747.30396</ele><time>2026-06-18T19:55:08.000Z</time></trkpt>
        <trkpt lat="28.458232" lon="104.987741"><ele>747.15186</ele><time>2026-06-18T19:55:10.000Z</time></trkpt>
        <trkpt lat="28.458243" lon="104.987703"><ele>747.038</ele><time>2026-06-18T19:55:14.000Z</time></trkpt>
        <trkpt lat="28.458249" lon="104.987684"><ele>746.98206</ele><time>2026-06-18T19:55:16.000Z</time></trkpt>
        <trkpt lat="28.458257" lon="104.987666"><ele>746.88855</ele><time>2026-06-18T19:55:18.000Z</time></trkpt>
        <trkpt lat="28.458267" lon="104.987649"><ele>746.63654</ele><time>2026-06-18T19:55:20.000Z</time></trkpt>
        <trkpt lat="28.458272" lon="104.987649"><ele>746.12585</ele><time>2026-06-18T19:55:22.000Z</time></trkpt>
        <trkpt lat="28.458304" lon="104.98765"><ele>745.43384</ele><time>2026-06-18T19:55:40.000Z</time></trkpt>
        <trkpt lat="28.458361" lon="104.987566"><ele>744.69946</ele><time>2026-06-18T19:55:46.000Z</time></trkpt>
        <trkpt lat="28.458361" lon="104.987566"><ele>743.98236</ele><time>2026-06-18T19:55:48.000Z</time></trkpt>
        <trkpt lat="28.458362" lon="104.987564"><ele>743.49756</ele><time>2026-06-18T19:55:50.000Z</time></trkpt>
        <trkpt lat="28.458371" lon="104.987516"><ele>743.00165</ele><time>2026-06-18T19:55:56.000Z</time></trkpt>
        <trkpt lat="28.458376" lon="104.987497"><ele>741.21844</ele><time>2026-06-18T19:55:58.000Z</time></trkpt>
        <trkpt lat="28.458384" lon="104.987476"><ele>739.79175</ele><time>2026-06-18T19:56:00.000Z</time></trkpt>
        <trkpt lat="28.458394" lon="104.987459"><ele>739.75446</ele><time>2026-06-18T19:56:02.000Z</time></trkpt>
        <trkpt lat="28.458404" lon="104.987445"><ele>739.17755</ele><time>2026-06-18T19:56:04.000Z</time></trkpt>
        <trkpt lat="28.458416" lon="104.987432"><ele>738.16406</ele><time>2026-06-18T19:56:06.000Z</time></trkpt>
        <trkpt lat="28.45843" lon="104.987418"><ele>737.2778</ele><time>2026-06-18T19:56:08.000Z</time></trkpt>
        <trkpt lat="28.45844" lon="104.987408"><ele>736.4721</ele><time>2026-06-18T19:56:10.000Z</time></trkpt>
        <trkpt lat="28.458451" lon="104.987399"><ele>735.7122</ele><time>2026-06-18T19:56:12.000Z</time></trkpt>
        <trkpt lat="28.458464" lon="104.987388"><ele>734.97754</ele><time>2026-06-18T19:56:14.000Z</time></trkpt>
        <trkpt lat="28.458478" lon="104.987377"><ele>734.3162</ele><time>2026-06-18T19:56:16.000Z</time></trkpt>
        <trkpt lat="28.458495" lon="104.987366"><ele>733.58203</ele><time>2026-06-18T19:56:18.000Z</time></trkpt>
        <trkpt lat="28.45851" lon="104.987356"><ele>733.07874</ele><time>2026-06-18T19:56:20.000Z</time></trkpt>
        <trkpt lat="28.458525" lon="104.987348"><ele>732.909</ele><time>2026-06-18T19:56:22.000Z</time></trkpt>
        <trkpt lat="28.458539" lon="104.987342"><ele>732.6444</ele><time>2026-06-18T19:56:24.000Z</time></trkpt>
        <trkpt lat="28.458553" lon="104.987335"><ele>732.32007</ele><time>2026-06-18T19:56:26.000Z</time></trkpt>
        <trkpt lat="28.458568" lon="104.987327"><ele>732.0842</ele><time>2026-06-18T19:56:28.000Z</time></trkpt>
        <trkpt lat="28.458589" lon="104.987323"><ele>731.7143</ele><time>2026-06-18T19:56:30.000Z</time></trkpt>
        <trkpt lat="28.458613" lon="104.987321"><ele>730.9407</ele><time>2026-06-18T19:56:32.000Z</time></trkpt>
        <trkpt lat="28.458636" lon="104.98732"><ele>730.43884</ele><time>2026-06-18T19:56:34.000Z</time></trkpt>
        <trkpt lat="28.458649" lon="104.987322"><ele>730.3316</ele><time>2026-06-18T19:56:36.000Z</time></trkpt>
        <trkpt lat="28.458659" lon="104.987327"><ele>730.1542</ele><time>2026-06-18T19:56:38.000Z</time></trkpt>
        <trkpt lat="28.458679" lon="104.987332"><ele>729.8633</ele><time>2026-06-18T19:56:42.000Z</time></trkpt>
        <trkpt lat="28.458694" lon="104.987332"><ele>729.60876</ele><time>2026-06-18T19:56:44.000Z</time></trkpt>
        <trkpt lat="28.45871" lon="104.987331"><ele>729.39636</ele><time>2026-06-18T19:56:46.000Z</time></trkpt>
        <trkpt lat="28.45873" lon="104.987335"><ele>729.1881</ele><time>2026-06-18T19:56:48.000Z</time></trkpt>
        <trkpt lat="28.458751" lon="104.987337"><ele>729.12305</ele><time>2026-06-18T19:56:50.000Z</time></trkpt>
        <trkpt lat="28.458784" lon="104.987343"><ele>729.073</ele><time>2026-06-18T19:56:52.000Z</time></trkpt>
        <trkpt lat="28.458814" lon="104.98735"><ele>728.9285</ele><time>2026-06-18T19:56:54.000Z</time></trkpt>
        <trkpt lat="28.458838" lon="104.987358"><ele>728.55585</ele><time>2026-06-18T19:56:56.000Z</time></trkpt>
        <trkpt lat="28.458858" lon="104.987367"><ele>728.26825</ele><time>2026-06-18T19:56:58.000Z</time></trkpt>
        <trkpt lat="28.458869" lon="104.987377"><ele>728.26825</ele><time>2026-06-18T19:57:00.000Z</time></trkpt>
        <trkpt lat="28.458883" lon="104.987392"><ele>727.96246</ele><time>2026-06-18T19:57:02.000Z</time></trkpt>
        <trkpt lat="28.458896" lon="104.987415"><ele>727.296</ele><time>2026-06-18T19:57:04.000Z</time></trkpt>
        <trkpt lat="28.458908" lon="104.98744"><ele>726.85583</ele><time>2026-06-18T19:57:06.000Z</time></trkpt>
        <trkpt lat="28.458923" lon="104.987466"><ele>726.6938</ele><time>2026-06-18T19:57:08.000Z</time></trkpt>
        <trkpt lat="28.458941" lon="104.98749"><ele>726.6938</ele><time>2026-06-18T19:57:10.000Z</time></trkpt>
        <trkpt lat="28.458961" lon="104.987512"><ele>726.6938</ele><time>2026-06-18T19:57:12.000Z</time></trkpt>
        <trkpt lat="28.458982" lon="104.987528"><ele>726.6938</ele><time>2026-06-18T19:57:14.000Z</time></trkpt>
        <trkpt lat="28.459008" lon="104.987541"><ele>726.6938</ele><time>2026-06-18T19:57:16.000Z</time></trkpt>
        <trkpt lat="28.459041" lon="104.987549"><ele>726.90326</ele><time>2026-06-18T19:57:18.000Z</time></trkpt>
        <trkpt lat="28.45907" lon="104.987548"><ele>727.6927</ele><time>2026-06-18T19:57:20.000Z</time></trkpt>
        <trkpt lat="28.459098" lon="104.987543"><ele>728.18494</ele><time>2026-06-18T19:57:22.000Z</time></trkpt>
        <trkpt lat="28.459123" lon="104.987535"><ele>728.62085</ele><time>2026-06-18T19:57:24.000Z</time></trkpt>
        <trkpt lat="28.459145" lon="104.987518"><ele>729.84534</ele><time>2026-06-18T19:57:26.000Z</time></trkpt>
        <trkpt lat="28.459163" lon="104.987497"><ele>731.1205</ele><time>2026-06-18T19:57:28.000Z</time></trkpt>
        <trkpt lat="28.459179" lon="104.987472"><ele>732.14386</ele><time>2026-06-18T19:57:30.000Z</time></trkpt>
        <trkpt lat="28.459189" lon="104.987448"><ele>732.945</ele><time>2026-06-18T19:57:32.000Z</time></trkpt>
        <trkpt lat="28.459198" lon="104.987427"><ele>733.0426</ele><time>2026-06-18T19:57:34.000Z</time></trkpt>
        <trkpt lat="28.459207" lon="104.987416"><ele>733.1723</ele><time>2026-06-18T19:57:36.000Z</time></trkpt>
        <trkpt lat="28.459222" lon="104.987406"><ele>733.1723</ele><time>2026-06-18T19:57:38.000Z</time></trkpt>
        <trkpt lat="28.459245" lon="104.987395"><ele>733.1723</ele><time>2026-06-18T19:57:40.000Z</time></trkpt>
        <trkpt lat="28.459272" lon="104.987387"><ele>733.1723</ele><time>2026-06-18T19:57:42.000Z</time></trkpt>
        <trkpt lat="28.459295" lon="104.987376"><ele>733.01605</ele><time>2026-06-18T19:57:44.000Z</time></trkpt>
        <trkpt lat="28.459315" lon="104.987361"><ele>732.7213</ele><time>2026-06-18T19:57:46.000Z</time></trkpt>
        <trkpt lat="28.459338" lon="104.987345"><ele>732.40656</ele><time>2026-06-18T19:57:48.000Z</time></trkpt>
        <trkpt lat="28.459352" lon="104.987335"><ele>732.18695</ele><time>2026-06-18T19:57:50.000Z</time></trkpt>
        <trkpt lat="28.459371" lon="104.987324"><ele>732.05945</ele><time>2026-06-18T19:57:52.000Z</time></trkpt>
        <trkpt lat="28.459391" lon="104.987313"><ele>731.9163</ele><time>2026-06-18T19:57:54.000Z</time></trkpt>
        <trkpt lat="28.459408" lon="104.987305"><ele>731.8985</ele><time>2026-06-18T19:57:56.000Z</time></trkpt>
        <trkpt lat="28.459428" lon="104.987295"><ele>731.8985</ele><time>2026-06-18T19:57:58.000Z</time></trkpt>
        <trkpt lat="28.459441" lon="104.987291"><ele>731.8985</ele><time>2026-06-18T19:58:00.000Z</time></trkpt>
        <trkpt lat="28.459452" lon="104.987297"><ele>731.8985</ele><time>2026-06-18T19:58:02.000Z</time></trkpt>
        <trkpt lat="28.459482" lon="104.987308"><ele>731.984</ele><time>2026-06-18T19:58:06.000Z</time></trkpt>
        <trkpt lat="28.459508" lon="104.98732"><ele>732.1902</ele><time>2026-06-18T19:58:08.000Z</time></trkpt>
        <trkpt lat="28.459538" lon="104.987332"><ele>732.7685</ele><time>2026-06-18T19:58:10.000Z</time></trkpt>
        <trkpt lat="28.459571" lon="104.987344"><ele>733.1986</ele><time>2026-06-18T19:58:12.000Z</time></trkpt>
        <trkpt lat="28.459593" lon="104.98735"><ele>733.90094</ele><time>2026-06-18T19:58:14.000Z</time></trkpt>
        <trkpt lat="28.459606" lon="104.987351"><ele>734.85</ele><time>2026-06-18T19:58:16.000Z</time></trkpt>
        <trkpt lat="28.459636" lon="104.98736"><ele>735.2466</ele><time>2026-06-18T19:58:22.000Z</time></trkpt>
        <trkpt lat="28.459658" lon="104.987372"><ele>735.4726</ele><time>2026-06-18T19:58:24.000Z</time></trkpt>
        <trkpt lat="28.459673" lon="104.987389"><ele>735.6846</ele><time>2026-06-18T19:58:26.000Z</time></trkpt>
        <trkpt lat="28.459684" lon="104.987403"><ele>735.7984</ele><time>2026-06-18T19:58:28.000Z</time></trkpt>
        <trkpt lat="28.459694" lon="104.987414"><ele>735.8458</ele><time>2026-06-18T19:58:30.000Z</time></trkpt>
        <trkpt lat="28.459709" lon="104.987432"><ele>736.1041</ele><time>2026-06-18T19:58:32.000Z</time></trkpt>
        <trkpt lat="28.459724" lon="104.987455"><ele>736.33936</ele><time>2026-06-18T19:58:34.000Z</time></trkpt>
        <trkpt lat="28.459736" lon="104.987479"><ele>736.3544</ele><time>2026-06-18T19:58:36.000Z</time></trkpt>
        <trkpt lat="28.459748" lon="104.987503"><ele>736.46844</ele><time>2026-06-18T19:58:38.000Z</time></trkpt>
        <trkpt lat="28.459762" lon="104.987527"><ele>736.59204</ele><time>2026-06-18T19:58:40.000Z</time></trkpt>
        <trkpt lat="28.459778" lon="104.987544"><ele>736.61115</ele><time>2026-06-18T19:58:42.000Z</time></trkpt>
        <trkpt lat="28.459793" lon="104.987554"><ele>736.61115</ele><time>2026-06-18T19:58:44.000Z</time></trkpt>
        <trkpt lat="28.459813" lon="104.987566"><ele>736.61115</ele><time>2026-06-18T19:58:46.000Z</time></trkpt>
        <trkpt lat="28.45983" lon="104.987575"><ele>736.61115</ele><time>2026-06-18T19:58:48.000Z</time></trkpt>
        <trkpt lat="28.459851" lon="104.987584"><ele>736.61115</ele><time>2026-06-18T19:58:50.000Z</time></trkpt>
        <trkpt lat="28.459873" lon="104.987591"><ele>736.4925</ele><time>2026-06-18T19:58:52.000Z</time></trkpt>
        <trkpt lat="28.459896" lon="104.987599"><ele>736.27606</ele><time>2026-06-18T19:58:54.000Z</time></trkpt>
        <trkpt lat="28.459919" lon="104.987608"><ele>736.142</ele><time>2026-06-18T19:58:56.000Z</time></trkpt>
        <trkpt lat="28.459941" lon="104.987618"><ele>736.08185</ele><time>2026-06-18T19:58:58.000Z</time></trkpt>
        <trkpt lat="28.459963" lon="104.987629"><ele>735.8243</ele><time>2026-06-18T19:59:00.000Z</time></trkpt>
        <trkpt lat="28.459987" lon="104.98764"><ele>735.20844</ele><time>2026-06-18T19:59:02.000Z</time></trkpt>
        <trkpt lat="28.460008" lon="104.98765"><ele>734.8172</ele><time>2026-06-18T19:59:04.000Z</time></trkpt>
        <trkpt lat="28.460025" lon="104.987657"><ele>734.726</ele><time>2026-06-18T19:59:06.000Z</time></trkpt>
        <trkpt lat="28.460038" lon="104.98766"><ele>734.57007</ele><time>2026-06-18T19:59:08.000Z</time></trkpt>
        <trkpt lat="28.460072" lon="104.987668"><ele>734.47406</ele><time>2026-06-18T19:59:12.000Z</time></trkpt>
        <trkpt lat="28.460096" lon="104.987673"><ele>734.44086</ele><time>2026-06-18T19:59:14.000Z</time></trkpt>
        <trkpt lat="28.460116" lon="104.987672"><ele>734.44086</ele><time>2026-06-18T19:59:16.000Z</time></trkpt>
        <trkpt lat="28.460129" lon="104.987671"><ele>734.44086</ele><time>2026-06-18T19:59:18.000Z</time></trkpt>
        <trkpt lat="28.460144" lon="104.98767"><ele>734.44086</ele><time>2026-06-18T19:59:20.000Z</time></trkpt>
        <trkpt lat="28.460165" lon="104.987671"><ele>734.44086</ele><time>2026-06-18T19:59:22.000Z</time></trkpt>
        <trkpt lat="28.460189" lon="104.987667"><ele>734.5789</ele><time>2026-06-18T19:59:24.000Z</time></trkpt>
        <trkpt lat="28.460207" lon="104.987663"><ele>734.8584</ele><time>2026-06-18T19:59:26.000Z</time></trkpt>
        <trkpt lat="28.460229" lon="104.987661"><ele>735.0428</ele><time>2026-06-18T19:59:28.000Z</time></trkpt>
        <trkpt lat="28.460242" lon="104.987655"><ele>735.33185</ele><time>2026-06-18T19:59:30.000Z</time></trkpt>
        <trkpt lat="28.460257" lon="104.987648"><ele>735.66223</ele><time>2026-06-18T19:59:32.000Z</time></trkpt>
        <trkpt lat="28.46028" lon="104.987646"><ele>735.84283</ele><time>2026-06-18T19:59:34.000Z</time></trkpt>
        <trkpt lat="28.460295" lon="104.98765"><ele>736.0137</ele><time>2026-06-18T19:59:36.000Z</time></trkpt>
        <trkpt lat="28.460317" lon="104.987658"><ele>736.13525</ele><time>2026-06-18T19:59:38.000Z</time></trkpt>
        <trkpt lat="28.46034" lon="104.987667"><ele>736.19824</ele><time>2026-06-18T19:59:40.000Z</time></trkpt>
        <trkpt lat="28.460354" lon="104.987673"><ele>736.4815</ele><time>2026-06-18T19:59:42.000Z</time></trkpt>
        <trkpt lat="28.460373" lon="104.987682"><ele>736.8077</ele><time>2026-06-18T19:59:44.000Z</time></trkpt>
        <trkpt lat="28.460395" lon="104.987693"><ele>736.8077</ele><time>2026-06-18T19:59:46.000Z</time></trkpt>
        <trkpt lat="28.460417" lon="104.987704"><ele>736.8622</ele><time>2026-06-18T19:59:48.000Z</time></trkpt>
        <trkpt lat="28.460451" lon="104.987723"><ele>736.8622</ele><time>2026-06-18T19:59:50.000Z</time></trkpt>
        <trkpt lat="28.460474" lon="104.987726"><ele>736.8622</ele><time>2026-06-18T19:59:52.000Z</time></trkpt>
        <trkpt lat="28.460485" lon="104.987724"><ele>736.8622</ele><time>2026-06-18T19:59:54.000Z</time></trkpt>
        <trkpt lat="28.460502" lon="104.987727"><ele>736.8372</ele><time>2026-06-18T19:59:56.000Z</time></trkpt>
        <trkpt lat="28.46054" lon="104.987744"><ele>736.79016</ele><time>2026-06-18T20:00:00.000Z</time></trkpt>
        <trkpt lat="28.460557" lon="104.987757"><ele>736.7325</ele><time>2026-06-18T20:00:02.000Z</time></trkpt>
        <trkpt lat="28.460573" lon="104.987777"><ele>736.7022</ele><time>2026-06-18T20:00:04.000Z</time></trkpt>
        <trkpt lat="28.460585" lon="104.987803"><ele>736.6894</ele><time>2026-06-18T20:00:06.000Z</time></trkpt>
        <trkpt lat="28.460591" lon="104.987822"><ele>736.4655</ele><time>2026-06-18T20:00:08.000Z</time></trkpt>
        <trkpt lat="28.460598" lon="104.987846"><ele>736.1529</ele><time>2026-06-18T20:00:10.000Z</time></trkpt>
        <trkpt lat="28.460607" lon="104.987869"><ele>735.95776</ele><time>2026-06-18T20:00:12.000Z</time></trkpt>
        <trkpt lat="28.460614" lon="104.987893"><ele>735.8139</ele><time>2026-06-18T20:00:14.000Z</time></trkpt>
        <trkpt lat="28.460617" lon="104.987915"><ele>735.5969</ele><time>2026-06-18T20:00:16.000Z</time></trkpt>
        <trkpt lat="28.460614" lon="104.98793"><ele>735.382</ele><time>2026-06-18T20:00:18.000Z</time></trkpt>
        <trkpt lat="28.46061" lon="104.987944"><ele>735.2058</ele><time>2026-06-18T20:00:20.000Z</time></trkpt>
        <trkpt lat="28.460604" lon="104.987959"><ele>734.9541</ele><time>2026-06-18T20:00:22.000Z</time></trkpt>
        <trkpt lat="28.460594" lon="104.987979"><ele>734.74695</ele><time>2026-06-18T20:00:24.000Z</time></trkpt>
        <trkpt lat="28.46058" lon="104.988001"><ele>734.4902</ele><time>2026-06-18T20:00:26.000Z</time></trkpt>
        <trkpt lat="28.460561" lon="104.988023"><ele>734.1399</ele><time>2026-06-18T20:00:28.000Z</time></trkpt>
        <trkpt lat="28.460538" lon="104.988044"><ele>734.12085</ele><time>2026-06-18T20:00:30.000Z</time></trkpt>
        <trkpt lat="28.460518" lon="104.988065"><ele>734.12085</ele><time>2026-06-18T20:00:32.000Z</time></trkpt>
        <trkpt lat="28.460499" lon="104.988087"><ele>734.12085</ele><time>2026-06-18T20:00:34.000Z</time></trkpt>
        <trkpt lat="28.460474" lon="104.988112"><ele>734.12085</ele><time>2026-06-18T20:00:36.000Z</time></trkpt>
        <trkpt lat="28.460459" lon="104.988132"><ele>734.12085</ele><time>2026-06-18T20:00:38.000Z</time></trkpt>
        <trkpt lat="28.460443" lon="104.988154"><ele>734.9554</ele><time>2026-06-18T20:00:40.000Z</time></trkpt>
        <trkpt lat="28.460433" lon="104.988175"><ele>736.0042</ele><time>2026-06-18T20:00:42.000Z</time></trkpt>
        <trkpt lat="28.460429" lon="104.988196"><ele>736.6465</ele><time>2026-06-18T20:00:44.000Z</time></trkpt>
        <trkpt lat="28.460425" lon="104.988218"><ele>737.3617</ele><time>2026-06-18T20:00:46.000Z</time></trkpt>
        <trkpt lat="28.46042" lon="104.98824"><ele>737.928</ele><time>2026-06-18T20:00:48.000Z</time></trkpt>
        <trkpt lat="28.460414" lon="104.988264"><ele>738.1839</ele><time>2026-06-18T20:00:50.000Z</time></trkpt>
        <trkpt lat="28.460405" lon="104.988292"><ele>738.33765</ele><time>2026-06-18T20:00:52.000Z</time></trkpt>
        <trkpt lat="28.460397" lon="104.988312"><ele>738.38965</ele><time>2026-06-18T20:00:54.000Z</time></trkpt>
        <trkpt lat="28.460387" lon="104.988332"><ele>738.44214</ele><time>2026-06-18T20:00:56.000Z</time></trkpt>
        <trkpt lat="28.460373" lon="104.988345"><ele>738.5266</ele><time>2026-06-18T20:00:58.000Z</time></trkpt>
        <trkpt lat="28.460354" lon="104.988358"><ele>738.61194</ele><time>2026-06-18T20:01:00.000Z</time></trkpt>
        <trkpt lat="28.460332" lon="104.988373"><ele>738.6761</ele><time>2026-06-18T20:01:02.000Z</time></trkpt>
        <trkpt lat="28.460311" lon="104.98839"><ele>738.6761</ele><time>2026-06-18T20:01:04.000Z</time></trkpt>
        <trkpt lat="28.460295" lon="104.988408"><ele>738.77594</ele><time>2026-06-18T20:01:06.000Z</time></trkpt>
        <trkpt lat="28.460282" lon="104.988424"><ele>739.148</ele><time>2026-06-18T20:01:08.000Z</time></trkpt>
        <trkpt lat="28.460268" lon="104.988446"><ele>739.6266</ele><time>2026-06-18T20:01:10.000Z</time></trkpt>
        <trkpt lat="28.460252" lon="104.988474"><ele>740.2487</ele><time>2026-06-18T20:01:12.000Z</time></trkpt>
        <trkpt lat="28.460233" lon="104.988507"><ele>741.19885</ele><time>2026-06-18T20:01:14.000Z</time></trkpt>
        <trkpt lat="28.460211" lon="104.988548"><ele>742.00183</ele><time>2026-06-18T20:01:16.000Z</time></trkpt>
        <trkpt lat="28.460192" lon="104.988579"><ele>742.46625</ele><time>2026-06-18T20:01:18.000Z</time></trkpt>
        <trkpt lat="28.460184" lon="104.988595"><ele>742.82874</ele><time>2026-06-18T20:01:20.000Z</time></trkpt>
        <trkpt lat="28.46017" lon="104.988617"><ele>743.2027</ele><time>2026-06-18T20:01:22.000Z</time></trkpt>
        <trkpt lat="28.460157" lon="104.988643"><ele>743.43384</ele><time>2026-06-18T20:01:24.000Z</time></trkpt>
        <trkpt lat="28.460155" lon="104.988662"><ele>743.51886</ele><time>2026-06-18T20:01:26.000Z</time></trkpt>
        <trkpt lat="28.460157" lon="104.988676"><ele>743.6479</ele><time>2026-06-18T20:01:28.000Z</time></trkpt>
        <trkpt lat="28.460156" lon="104.9887"><ele>743.6479</ele><time>2026-06-18T20:01:30.000Z</time></trkpt>
        <trkpt lat="28.46015" lon="104.988719"><ele>743.51886</ele><time>2026-06-18T20:01:32.000Z</time></trkpt>
        <trkpt lat="28.460139" lon="104.988743"><ele>743.43384</ele><time>2026-06-18T20:01:34.000Z</time></trkpt>
        <trkpt lat="28.460122" lon="104.988774"><ele>743.43384</ele><time>2026-06-18T20:01:36.000Z</time></trkpt>
        <trkpt lat="28.460102" lon="104.988812"><ele>743.43384</ele><time>2026-06-18T20:01:38.000Z</time></trkpt>
        <trkpt lat="28.460086" lon="104.988847"><ele>743.43384</ele><time>2026-06-18T20:01:40.000Z</time></trkpt>
        <trkpt lat="28.460035" lon="104.988953"><ele>743.5629</ele><time>2026-06-18T20:01:44.000Z</time></trkpt>
        <trkpt lat="28.460035" lon="104.988953"><ele>743.7173</ele><time>2026-06-18T20:01:46.000Z</time></trkpt>
        <trkpt lat="28.460036" lon="104.988956"><ele>743.7196</ele><time>2026-06-18T20:01:48.000Z</time></trkpt>
        <trkpt lat="28.460051" lon="104.989035"><ele>743.7512</ele><time>2026-06-18T20:01:54.000Z</time></trkpt>
        <trkpt lat="28.460057" lon="104.989076"><ele>744.4994</ele><time>2026-06-18T20:01:56.000Z</time></trkpt>
        <trkpt lat="28.460064" lon="104.989109"><ele>745.2221</ele><time>2026-06-18T20:01:58.000Z</time></trkpt>
        <trkpt lat="28.460068" lon="104.989137"><ele>745.28265</ele><time>2026-06-18T20:02:00.000Z</time></trkpt>
        <trkpt lat="28.460069" lon="104.989167"><ele>745.28265</ele><time>2026-06-18T20:02:02.000Z</time></trkpt>
        <trkpt lat="28.460068" lon="104.98919"><ele>745.28265</ele><time>2026-06-18T20:02:04.000Z</time></trkpt>
        <trkpt lat="28.460067" lon="104.989215"><ele>745.28265</ele><time>2026-06-18T20:02:06.000Z</time></trkpt>
        <trkpt lat="28.460104" lon="104.989223"><ele>745.28265</ele><time>2026-06-18T20:02:10.000Z</time></trkpt>
        <trkpt lat="28.460107" lon="104.989226"><ele>745.16156</ele><time>2026-06-18T20:02:12.000Z</time></trkpt>
        <trkpt lat="28.460112" lon="104.989241"><ele>744.94336</ele><time>2026-06-18T20:02:16.000Z</time></trkpt>
        <trkpt lat="28.460126" lon="104.989272"><ele>744.85016</ele><time>2026-06-18T20:02:22.000Z</time></trkpt>
        <trkpt lat="28.46013" lon="104.989272"><ele>744.4821</ele><time>2026-06-18T20:02:24.000Z</time></trkpt>
        <trkpt lat="28.460163" lon="104.989268"><ele>744.00446</ele><time>2026-06-18T20:02:28.000Z</time></trkpt>
        <trkpt lat="28.460188" lon="104.989262"><ele>743.81244</ele><time>2026-06-18T20:02:30.000Z</time></trkpt>
        <trkpt lat="28.460218" lon="104.989253"><ele>743.77576</ele><time>2026-06-18T20:02:32.000Z</time></trkpt>
        <trkpt lat="28.460246" lon="104.989244"><ele>743.7232</ele><time>2026-06-18T20:02:34.000Z</time></trkpt>
        <trkpt lat="28.460272" lon="104.989234"><ele>743.66437</ele><time>2026-06-18T20:02:36.000Z</time></trkpt>
        <trkpt lat="28.460293" lon="104.989223"><ele>743.63226</ele><time>2026-06-18T20:02:38.000Z</time></trkpt>
        <trkpt lat="28.460317" lon="104.989208"><ele>743.5795</ele><time>2026-06-18T20:02:40.000Z</time></trkpt>
        <trkpt lat="28.460339" lon="104.989193"><ele>743.5104</ele><time>2026-06-18T20:02:42.000Z</time></trkpt>
        <trkpt lat="28.460357" lon="104.98918"><ele>743.3732</ele><time>2026-06-18T20:02:44.000Z</time></trkpt>
        <trkpt lat="28.460374" lon="104.989163"><ele>743.2006</ele><time>2026-06-18T20:02:46.000Z</time></trkpt>
        <trkpt lat="28.46039" lon="104.98915"><ele>743.13196</ele><time>2026-06-18T20:02:48.000Z</time></trkpt>
        <trkpt lat="28.460408" lon="104.989142"><ele>743.07855</ele><time>2026-06-18T20:02:50.000Z</time></trkpt>
        <trkpt lat="28.46043" lon="104.989134"><ele>742.9715</ele><time>2026-06-18T20:02:52.000Z</time></trkpt>
        <trkpt lat="28.460453" lon="104.989127"><ele>742.9651</ele><time>2026-06-18T20:02:54.000Z</time></trkpt>
        <trkpt lat="28.460478" lon="104.989122"><ele>742.9651</ele><time>2026-06-18T20:02:56.000Z</time></trkpt>
        <trkpt lat="28.460502" lon="104.989123"><ele>743.02</ele><time>2026-06-18T20:02:58.000Z</time></trkpt>
        <trkpt lat="28.460522" lon="104.989127"><ele>743.02</ele><time>2026-06-18T20:03:00.000Z</time></trkpt>
        <trkpt lat="28.460541" lon="104.989133"><ele>743.0734</ele><time>2026-06-18T20:03:02.000Z</time></trkpt>
        <trkpt lat="28.460554" lon="104.989138"><ele>743.272</ele><time>2026-06-18T20:03:04.000Z</time></trkpt>
        <trkpt lat="28.46057" lon="104.989146"><ele>743.22577</ele><time>2026-06-18T20:03:14.000Z</time></trkpt>
        <trkpt lat="28.460589" lon="104.989153"><ele>743.43506</ele><time>2026-06-18T20:03:20.000Z</time></trkpt>
        <trkpt lat="28.460613" lon="104.98916"><ele>743.5058</ele><time>2026-06-18T20:03:22.000Z</time></trkpt>
        <trkpt lat="28.460631" lon="104.989166"><ele>743.5584</ele><time>2026-06-18T20:03:24.000Z</time></trkpt>
        <trkpt lat="28.460629" lon="104.989166"><ele>743.6267</ele><time>2026-06-18T20:03:26.000Z</time></trkpt>
        <trkpt lat="28.460572" lon="104.989167"><ele>743.7801</ele><time>2026-06-18T20:03:30.000Z</time></trkpt>
        <trkpt lat="28.460538" lon="104.98917"><ele>743.93896</ele><time>2026-06-18T20:03:32.000Z</time></trkpt>
        <trkpt lat="28.460505" lon="104.989174"><ele>744.1798</ele><time>2026-06-18T20:03:34.000Z</time></trkpt>
        <trkpt lat="28.460473" lon="104.989178"><ele>744.3859</ele><time>2026-06-18T20:03:36.000Z</time></trkpt>
        <trkpt lat="28.46044" lon="104.989178"><ele>744.3859</ele><time>2026-06-18T20:03:38.000Z</time></trkpt>
        <trkpt lat="28.460406" lon="104.989177"><ele>744.3859</ele><time>2026-06-18T20:03:40.000Z</time></trkpt>
        <trkpt lat="28.460373" lon="104.989177"><ele>744.3859</ele><time>2026-06-18T20:03:42.000Z</time></trkpt>
        <trkpt lat="28.46035" lon="104.989182"><ele>744.3859</ele><time>2026-06-18T20:03:44.000Z</time></trkpt>
        <trkpt lat="28.46034" lon="104.989189"><ele>744.0907</ele><time>2026-06-18T20:03:46.000Z</time></trkpt>
        <trkpt lat="28.460336" lon="104.989196"><ele>743.7956</ele><time>2026-06-18T20:03:48.000Z</time></trkpt>
        <trkpt lat="28.46032" lon="104.989226"><ele>743.6569</ele><time>2026-06-18T20:03:52.000Z</time></trkpt>
        <trkpt lat="28.460316" lon="104.989226"><ele>743.5125</ele><time>2026-06-18T20:03:54.000Z</time></trkpt>
        <trkpt lat="28.460267" lon="104.989226"><ele>743.1571</ele><time>2026-06-18T20:04:00.000Z</time></trkpt>
        <trkpt lat="28.460267" lon="104.989226"><ele>742.802</ele><time>2026-06-18T20:04:02.000Z</time></trkpt>
        <trkpt lat="28.460263" lon="104.989227"><ele>742.68713</ele><time>2026-06-18T20:04:04.000Z</time></trkpt>
        <trkpt lat="28.460218" lon="104.989245"><ele>742.68713</ele><time>2026-06-18T20:04:08.000Z</time></trkpt>
        <trkpt lat="28.460186" lon="104.989258"><ele>742.68713</ele><time>2026-06-18T20:04:10.000Z</time></trkpt>
        <trkpt lat="28.460154" lon="104.989272"><ele>742.68713</ele><time>2026-06-18T20:04:12.000Z</time></trkpt>
        <trkpt lat="28.46013" lon="104.989286"><ele>742.76715</ele><time>2026-06-18T20:04:14.000Z</time></trkpt>
        <trkpt lat="28.460107" lon="104.9893"><ele>742.80524</ele><time>2026-06-18T20:04:16.000Z</time></trkpt>
        <trkpt lat="28.460086" lon="104.989314"><ele>743.11334</ele><time>2026-06-18T20:04:18.000Z</time></trkpt>
        <trkpt lat="28.460068" lon="104.98933"><ele>743.3916</ele><time>2026-06-18T20:04:20.000Z</time></trkpt>
        <trkpt lat="28.460055" lon="104.989345"><ele>743.47186</ele><time>2026-06-18T20:04:22.000Z</time></trkpt>
        <trkpt lat="28.460046" lon="104.989364"><ele>743.7149</ele><time>2026-06-18T20:04:24.000Z</time></trkpt>
        <trkpt lat="28.46004" lon="104.989387"><ele>743.89636</ele><time>2026-06-18T20:04:26.000Z</time></trkpt>
        <trkpt lat="28.460039" lon="104.989417"><ele>743.89636</ele><time>2026-06-18T20:04:28.000Z</time></trkpt>
        <trkpt lat="28.460041" lon="104.989455"><ele>743.89636</ele><time>2026-06-18T20:04:30.000Z</time></trkpt>
        <trkpt lat="28.460046" lon="104.989489"><ele>743.89636</ele><time>2026-06-18T20:04:32.000Z</time></trkpt>
        <trkpt lat="28.460054" lon="104.98953"><ele>743.89636</ele><time>2026-06-18T20:04:34.000Z</time></trkpt>
        <trkpt lat="28.46006" lon="104.989561"><ele>743.8301</ele><time>2026-06-18T20:04:36.000Z</time></trkpt>
        <trkpt lat="28.460064" lon="104.98959"><ele>743.8301</ele><time>2026-06-18T20:04:38.000Z</time></trkpt>
        <trkpt lat="28.460061" lon="104.989611"><ele>743.8301</ele><time>2026-06-18T20:04:40.000Z</time></trkpt>
        <trkpt lat="28.460054" lon="104.98963"><ele>743.8804</ele><time>2026-06-18T20:04:42.000Z</time></trkpt>
        <trkpt lat="28.460045" lon="104.989647"><ele>743.8804</ele><time>2026-06-18T20:04:44.000Z</time></trkpt>
        <trkpt lat="28.460031" lon="104.989672"><ele>744.1327</ele><time>2026-06-18T20:04:46.000Z</time></trkpt>
        <trkpt lat="28.46002" lon="104.989699"><ele>744.9798</ele><time>2026-06-18T20:04:48.000Z</time></trkpt>
        <trkpt lat="28.460012" lon="104.989727"><ele>745.85974</ele><time>2026-06-18T20:04:50.000Z</time></trkpt>
        <trkpt lat="28.460015" lon="104.989753"><ele>746.40625</ele><time>2026-06-18T20:04:52.000Z</time></trkpt>
        <trkpt lat="28.460027" lon="104.989776"><ele>746.672</ele><time>2026-06-18T20:04:54.000Z</time></trkpt>
        <trkpt lat="28.460048" lon="104.989806"><ele>746.92114</ele><time>2026-06-18T20:04:56.000Z</time></trkpt>
        <trkpt lat="28.460066" lon="104.989835"><ele>747.2418</ele><time>2026-06-18T20:04:58.000Z</time></trkpt>
        <trkpt lat="28.460075" lon="104.98986"><ele>747.6025</ele><time>2026-06-18T20:05:00.000Z</time></trkpt>
        <trkpt lat="28.460085" lon="104.989889"><ele>748.0262</ele><time>2026-06-18T20:05:02.000Z</time></trkpt>
        <trkpt lat="28.460085" lon="104.989905"><ele>748.4799</ele><time>2026-06-18T20:05:04.000Z</time></trkpt>
        <trkpt lat="28.460083" lon="104.989958"><ele>748.7098</ele><time>2026-06-18T20:05:10.000Z</time></trkpt>
        <trkpt lat="28.460084" lon="104.98999"><ele>748.9229</ele><time>2026-06-18T20:05:12.000Z</time></trkpt>
        <trkpt lat="28.460092" lon="104.990016"><ele>749.5477</ele><time>2026-06-18T20:05:14.000Z</time></trkpt>
        <trkpt lat="28.460103" lon="104.990042"><ele>750.08</ele><time>2026-06-18T20:05:16.000Z</time></trkpt>
        <trkpt lat="28.460119" lon="104.990069"><ele>750.2711</ele><time>2026-06-18T20:05:18.000Z</time></trkpt>
        <trkpt lat="28.460136" lon="104.990096"><ele>750.5711</ele><time>2026-06-18T20:05:20.000Z</time></trkpt>
        <trkpt lat="28.460152" lon="104.990122"><ele>750.8404</ele><time>2026-06-18T20:05:22.000Z</time></trkpt>
        <trkpt lat="28.460161" lon="104.990142"><ele>751.0403</ele><time>2026-06-18T20:05:24.000Z</time></trkpt>
        <trkpt lat="28.46017" lon="104.990165"><ele>751.4856</ele><time>2026-06-18T20:05:26.000Z</time></trkpt>
        <trkpt lat="28.460178" lon="104.990193"><ele>751.9248</ele><time>2026-06-18T20:05:28.000Z</time></trkpt>
        <trkpt lat="28.460178" lon="104.990229"><ele>752.3539</ele><time>2026-06-18T20:05:30.000Z</time></trkpt>
        <trkpt lat="28.460178" lon="104.990248"><ele>752.6664</ele><time>2026-06-18T20:05:32.000Z</time></trkpt>
        <trkpt lat="28.460246" lon="104.990244"><ele>753.0051</ele><time>2026-06-18T20:05:49.000Z</time></trkpt>
        <trkpt lat="28.460317" lon="104.990301"><ele>753.68207</ele><time>2026-06-18T20:05:53.000Z</time></trkpt>
        <trkpt lat="28.460381" lon="104.990315"><ele>754.25934</ele><time>2026-06-18T20:05:57.000Z</time></trkpt>
        <trkpt lat="28.460421" lon="104.990321"><ele>754.6683</ele><time>2026-06-18T20:05:59.000Z</time></trkpt>
        <trkpt lat="28.460451" lon="104.99033"><ele>755.0578</ele><time>2026-06-18T20:06:01.000Z</time></trkpt>
        <trkpt lat="28.460478" lon="104.990339"><ele>756.68945</ele><time>2026-06-18T20:06:03.000Z</time></trkpt>
        <trkpt lat="28.460508" lon="104.990357"><ele>758.7593</ele><time>2026-06-18T20:06:05.000Z</time></trkpt>
        <trkpt lat="28.460531" lon="104.990381"><ele>759.52014</ele><time>2026-06-18T20:06:07.000Z</time></trkpt>
        <trkpt lat="28.460543" lon="104.990392"><ele>760.27155</ele><time>2026-06-18T20:06:09.000Z</time></trkpt>
        <trkpt lat="28.460563" lon="104.9904"><ele>761.00476</ele><time>2026-06-18T20:06:13.000Z</time></trkpt>
        <trkpt lat="28.460611" lon="104.990409"><ele>761.1308</ele><time>2026-06-18T20:06:17.000Z</time></trkpt>
        <trkpt lat="28.460643" lon="104.990412"><ele>761.6975</ele><time>2026-06-18T20:06:19.000Z</time></trkpt>
        <trkpt lat="28.460671" lon="104.990425"><ele>762.6177</ele><time>2026-06-18T20:06:21.000Z</time></trkpt>
        <trkpt lat="28.460694" lon="104.990439"><ele>762.8252</ele><time>2026-06-18T20:06:23.000Z</time></trkpt>
        <trkpt lat="28.460709" lon="104.990452"><ele>762.8252</ele><time>2026-06-18T20:06:25.000Z</time></trkpt>
        <trkpt lat="28.460734" lon="104.990476"><ele>762.8252</ele><time>2026-06-18T20:06:27.000Z</time></trkpt>
        <trkpt lat="28.460747" lon="104.990493"><ele>762.8252</ele><time>2026-06-18T20:06:29.000Z</time></trkpt>
        <trkpt lat="28.460751" lon="104.990506"><ele>762.8252</ele><time>2026-06-18T20:06:31.000Z</time></trkpt>
        <trkpt lat="28.460758" lon="104.99054"><ele>762.5917</ele><time>2026-06-18T20:06:35.000Z</time></trkpt>
        <trkpt lat="28.460765" lon="104.990562"><ele>762.30835</ele><time>2026-06-18T20:06:37.000Z</time></trkpt>
        <trkpt lat="28.460769" lon="104.990587"><ele>761.91833</ele><time>2026-06-18T20:06:39.000Z</time></trkpt>
        <trkpt lat="28.460775" lon="104.990607"><ele>761.63806</ele><time>2026-06-18T20:06:41.000Z</time></trkpt>
        <trkpt lat="28.46078" lon="104.990623"><ele>761.6038</ele><time>2026-06-18T20:06:43.000Z</time></trkpt>
        <trkpt lat="28.460791" lon="104.990664"><ele>761.6038</ele><time>2026-06-18T20:06:47.000Z</time></trkpt>
        <trkpt lat="28.460807" lon="104.990685"><ele>761.6038</ele><time>2026-06-18T20:06:49.000Z</time></trkpt>
        <trkpt lat="28.46083" lon="104.990706"><ele>761.6038</ele><time>2026-06-18T20:06:51.000Z</time></trkpt>
        <trkpt lat="28.460857" lon="104.990727"><ele>761.6038</ele><time>2026-06-18T20:06:53.000Z</time></trkpt>
        <trkpt lat="28.460878" lon="104.990745"><ele>761.57416</ele><time>2026-06-18T20:06:55.000Z</time></trkpt>
        <trkpt lat="28.460891" lon="104.990762"><ele>761.57416</ele><time>2026-06-18T20:06:57.000Z</time></trkpt>
        <trkpt lat="28.460903" lon="104.990781"><ele>761.57416</ele><time>2026-06-18T20:06:59.000Z</time></trkpt>
        <trkpt lat="28.460914" lon="104.990803"><ele>761.57416</ele><time>2026-06-18T20:07:01.000Z</time></trkpt>
        <trkpt lat="28.460921" lon="104.990825"><ele>761.4768</ele><time>2026-06-18T20:07:03.000Z</time></trkpt>
        <trkpt lat="28.460922" lon="104.990849"><ele>761.08105</ele><time>2026-06-18T20:07:05.000Z</time></trkpt>
        <trkpt lat="28.460916" lon="104.990871"><ele>760.5986</ele><time>2026-06-18T20:07:07.000Z</time></trkpt>
        <trkpt lat="28.46091" lon="104.990896"><ele>759.9982</ele><time>2026-06-18T20:07:09.000Z</time></trkpt>
        <trkpt lat="28.460902" lon="104.990925"><ele>759.4964</ele><time>2026-06-18T20:07:11.000Z</time></trkpt>
        <trkpt lat="28.46089" lon="104.990952"><ele>759.1201</ele><time>2026-06-18T20:07:13.000Z</time></trkpt>
        <trkpt lat="28.460874" lon="104.990971"><ele>758.7625</ele><time>2026-06-18T20:07:15.000Z</time></trkpt>
        <trkpt lat="28.460854" lon="104.990988"><ele>758.7625</ele><time>2026-06-18T20:07:17.000Z</time></trkpt>
        <trkpt lat="28.460827" lon="104.991006"><ele>758.7625</ele><time>2026-06-18T20:07:19.000Z</time></trkpt>
        <trkpt lat="28.460801" lon="104.991023"><ele>758.7625</ele><time>2026-06-18T20:07:21.000Z</time></trkpt>
        <trkpt lat="28.460766" lon="104.991044"><ele>758.7625</ele><time>2026-06-18T20:07:23.000Z</time></trkpt>
        <trkpt lat="28.460739" lon="104.991054"><ele>758.889</ele><time>2026-06-18T20:07:25.000Z</time></trkpt>
        <trkpt lat="28.460712" lon="104.99106"><ele>759.4626</ele><time>2026-06-18T20:07:27.000Z</time></trkpt>
        <trkpt lat="28.460688" lon="104.991068"><ele>760.12524</ele><time>2026-06-18T20:07:29.000Z</time></trkpt>
        <trkpt lat="28.460671" lon="104.99108"><ele>761.1432</ele><time>2026-06-18T20:07:31.000Z</time></trkpt>
        <trkpt lat="28.460661" lon="104.991091"><ele>762.41174</ele><time>2026-06-18T20:07:33.000Z</time></trkpt>
        <trkpt lat="28.460642" lon="104.991115"><ele>763.39575</ele><time>2026-06-18T20:07:35.000Z</time></trkpt>
        <trkpt lat="28.460621" lon="104.991143"><ele>764.146</ele><time>2026-06-18T20:07:37.000Z</time></trkpt>
        <trkpt lat="28.460604" lon="104.991167"><ele>765.1771</ele><time>2026-06-18T20:07:39.000Z</time></trkpt>
        <trkpt lat="28.460592" lon="104.991191"><ele>765.99243</ele><time>2026-06-18T20:07:41.000Z</time></trkpt>
        <trkpt lat="28.46058" lon="104.991215"><ele>766.5146</ele><time>2026-06-18T20:07:43.000Z</time></trkpt>
        <trkpt lat="28.460566" lon="104.991232"><ele>767.405</ele><time>2026-06-18T20:07:45.000Z</time></trkpt>
        <trkpt lat="28.460552" lon="104.991243"><ele>767.98706</ele><time>2026-06-18T20:07:47.000Z</time></trkpt>
        <trkpt lat="28.460538" lon="104.991246"><ele>768.25323</ele><time>2026-06-18T20:07:49.000Z</time></trkpt>
        <trkpt lat="28.4605" lon="104.991253"><ele>768.7801</ele><time>2026-06-18T20:07:53.000Z</time></trkpt>
        <trkpt lat="28.46048" lon="104.991259"><ele>769.0728</ele><time>2026-06-18T20:07:55.000Z</time></trkpt>
        <trkpt lat="28.460459" lon="104.99127"><ele>769.33746</ele><time>2026-06-18T20:07:57.000Z</time></trkpt>
        <trkpt lat="28.460444" lon="104.991284"><ele>769.77936</ele><time>2026-06-18T20:07:59.000Z</time></trkpt>
        <trkpt lat="28.46043" lon="104.991301"><ele>770.2947</ele><time>2026-06-18T20:08:01.000Z</time></trkpt>
        <trkpt lat="28.460413" lon="104.991319"><ele>771.0439</ele><time>2026-06-18T20:08:03.000Z</time></trkpt>
        <trkpt lat="28.460399" lon="104.991338"><ele>771.667</ele><time>2026-06-18T20:08:05.000Z</time></trkpt>
        <trkpt lat="28.460385" lon="104.991368"><ele>772.23505</ele><time>2026-06-18T20:08:07.000Z</time></trkpt>
        <trkpt lat="28.460378" lon="104.991402"><ele>772.8268</ele><time>2026-06-18T20:08:09.000Z</time></trkpt>
        <trkpt lat="28.460378" lon="104.991436"><ele>773.3623</ele><time>2026-06-18T20:08:11.000Z</time></trkpt>
        <trkpt lat="28.460389" lon="104.991461"><ele>773.8604</ele><time>2026-06-18T20:08:13.000Z</time></trkpt>
        <trkpt lat="28.460406" lon="104.991481"><ele>774.1426</ele><time>2026-06-18T20:08:15.000Z</time></trkpt>
        <trkpt lat="28.460425" lon="104.991499"><ele>774.56287</ele><time>2026-06-18T20:08:17.000Z</time></trkpt>
        <trkpt lat="28.460451" lon="104.991517"><ele>774.8175</ele><time>2026-06-18T20:08:19.000Z</time></trkpt>
        <trkpt lat="28.460477" lon="104.991535"><ele>774.8175</ele><time>2026-06-18T20:08:21.000Z</time></trkpt>
        <trkpt lat="28.460506" lon="104.991551"><ele>774.8175</ele><time>2026-06-18T20:08:23.000Z</time></trkpt>
        <trkpt lat="28.460534" lon="104.991569"><ele>774.8175</ele><time>2026-06-18T20:08:25.000Z</time></trkpt>
        <trkpt lat="28.460564" lon="104.991593"><ele>774.8175</ele><time>2026-06-18T20:08:27.000Z</time></trkpt>
        <trkpt lat="28.460592" lon="104.991617"><ele>774.4579</ele><time>2026-06-18T20:08:29.000Z</time></trkpt>
        <trkpt lat="28.46062" lon="104.991638"><ele>774.09375</ele><time>2026-06-18T20:08:31.000Z</time></trkpt>
        <trkpt lat="28.460635" lon="104.991657"><ele>773.58276</ele><time>2026-06-18T20:08:33.000Z</time></trkpt>
        <trkpt lat="28.460635" lon="104.991657"><ele>773.0513</ele><time>2026-06-18T20:08:35.000Z</time></trkpt>
        <trkpt lat="28.46063" lon="104.991709"><ele>772.574</ele><time>2026-06-18T20:08:43.000Z</time></trkpt>
        <trkpt lat="28.460637" lon="104.99173"><ele>771.7711</ele><time>2026-06-18T20:08:45.000Z</time></trkpt>
        <trkpt lat="28.460647" lon="104.991759"><ele>771.08466</ele><time>2026-06-18T20:08:47.000Z</time></trkpt>
        <trkpt lat="28.460683" lon="104.991764"><ele>770.77295</ele><time>2026-06-18T20:08:49.000Z</time></trkpt>
        <trkpt lat="28.460705" lon="104.991765"><ele>770.7004</ele><time>2026-06-18T20:08:51.000Z</time></trkpt>
        <trkpt lat="28.460728" lon="104.991768"><ele>770.6566</ele><time>2026-06-18T20:08:53.000Z</time></trkpt>
        <trkpt lat="28.460751" lon="104.991772"><ele>770.5912</ele><time>2026-06-18T20:08:55.000Z</time></trkpt>
        <trkpt lat="28.46077" lon="104.991781"><ele>770.5415</ele><time>2026-06-18T20:08:57.000Z</time></trkpt>
        <trkpt lat="28.460774" lon="104.991788"><ele>770.3267</ele><time>2026-06-18T20:08:59.000Z</time></trkpt>
        <trkpt lat="28.460789" lon="104.991825"><ele>770.2985</ele><time>2026-06-18T20:09:03.000Z</time></trkpt>
        <trkpt lat="28.460798" lon="104.991852"><ele>770.0615</ele><time>2026-06-18T20:09:05.000Z</time></trkpt>
        <trkpt lat="28.460802" lon="104.99187"><ele>769.92114</ele><time>2026-06-18T20:09:07.000Z</time></trkpt>
        <trkpt lat="28.460801" lon="104.991882"><ele>769.7505</ele><time>2026-06-18T20:09:09.000Z</time></trkpt>
        <trkpt lat="28.460793" lon="104.991913"><ele>769.3776</ele><time>2026-06-18T20:09:13.000Z</time></trkpt>
        <trkpt lat="28.460785" lon="104.991934"><ele>769.01355</ele><time>2026-06-18T20:09:15.000Z</time></trkpt>
        <trkpt lat="28.460777" lon="104.991958"><ele>769.01355</ele><time>2026-06-18T20:09:17.000Z</time></trkpt>
        <trkpt lat="28.460769" lon="104.991987"><ele>769.01355</ele><time>2026-06-18T20:09:19.000Z</time></trkpt>
        <trkpt lat="28.460762" lon="104.992018"><ele>769.01355</ele><time>2026-06-18T20:09:21.000Z</time></trkpt>
        <trkpt lat="28.46075" lon="104.992046"><ele>769.01355</ele><time>2026-06-18T20:09:23.000Z</time></trkpt>
        <trkpt lat="28.460738" lon="104.992059"><ele>769.2752</ele><time>2026-06-18T20:09:25.000Z</time></trkpt>
        <trkpt lat="28.460736" lon="104.992069"><ele>769.5303</ele><time>2026-06-18T20:09:27.000Z</time></trkpt>
        <trkpt lat="28.460727" lon="104.992116"><ele>769.6555</ele><time>2026-06-18T20:09:33.000Z</time></trkpt>
        <trkpt lat="28.460725" lon="104.992131"><ele>769.787</ele><time>2026-06-18T20:09:35.000Z</time></trkpt>
        <trkpt lat="28.460722" lon="104.992149"><ele>769.787</ele><time>2026-06-18T20:09:37.000Z</time></trkpt>
        <trkpt lat="28.460715" lon="104.992169"><ele>769.787</ele><time>2026-06-18T20:09:39.000Z</time></trkpt>
        <trkpt lat="28.460705" lon="104.992189"><ele>769.787</ele><time>2026-06-18T20:09:41.000Z</time></trkpt>
        <trkpt lat="28.460695" lon="104.992204"><ele>769.6739</ele><time>2026-06-18T20:09:43.000Z</time></trkpt>
        <trkpt lat="28.460683" lon="104.992215"><ele>769.58386</ele><time>2026-06-18T20:09:45.000Z</time></trkpt>
        <trkpt lat="28.460665" lon="104.992224"><ele>769.53534</ele><time>2026-06-18T20:09:47.000Z</time></trkpt>
        <trkpt lat="28.460648" lon="104.992231"><ele>769.4662</ele><time>2026-06-18T20:09:49.000Z</time></trkpt>
        <trkpt lat="28.460628" lon="104.992239"><ele>769.50146</ele><time>2026-06-18T20:09:51.000Z</time></trkpt>
        <trkpt lat="28.460612" lon="104.992242"><ele>769.491</ele><time>2026-06-18T20:09:53.000Z</time></trkpt>
        <trkpt lat="28.46059" lon="104.99224"><ele>769.491</ele><time>2026-06-18T20:09:55.000Z</time></trkpt>
        <trkpt lat="28.460568" lon="104.992243"><ele>769.491</ele><time>2026-06-18T20:09:57.000Z</time></trkpt>
        <trkpt lat="28.460548" lon="104.992245"><ele>769.5735</ele><time>2026-06-18T20:09:59.000Z</time></trkpt>
        <trkpt lat="28.46053" lon="104.992241"><ele>769.5773</ele><time>2026-06-18T20:10:01.000Z</time></trkpt>
        <trkpt lat="28.460513" lon="104.992234"><ele>769.7913</ele><time>2026-06-18T20:10:03.000Z</time></trkpt>
        <trkpt lat="28.460495" lon="104.992225"><ele>770.0279</ele><time>2026-06-18T20:10:05.000Z</time></trkpt>
        <trkpt lat="28.460478" lon="104.992218"><ele>770.3915</ele><time>2026-06-18T20:10:07.000Z</time></trkpt>
        <trkpt lat="28.460467" lon="104.99222"><ele>770.7671</ele><time>2026-06-18T20:10:09.000Z</time></trkpt>
        <trkpt lat="28.460428" lon="104.992225"><ele>771.0492</ele><time>2026-06-18T20:10:13.000Z</time></trkpt>
        <trkpt lat="28.460415" lon="104.992222"><ele>771.4533</ele><time>2026-06-18T20:10:15.000Z</time></trkpt>
        <trkpt lat="28.460407" lon="104.992224"><ele>771.8871</ele><time>2026-06-18T20:10:17.000Z</time></trkpt>
        <trkpt lat="28.460354" lon="104.992236"><ele>772.4818</ele><time>2026-06-18T20:10:28.000Z</time></trkpt>
        <trkpt lat="28.460354" lon="104.992236"><ele>772.9099</ele><time>2026-06-18T20:10:30.000Z</time></trkpt>
        <trkpt lat="28.460333" lon="104.992215"><ele>773.13055</ele><time>2026-06-18T20:10:38.000Z</time></trkpt>
        <trkpt lat="28.460298" lon="104.992182"><ele>773.4077</ele><time>2026-06-18T20:10:43.000Z</time></trkpt>
        <trkpt lat="28.460298" lon="104.992182"><ele>774.20374</ele><time>2026-06-18T20:10:45.000Z</time></trkpt>
        <trkpt lat="28.460261" lon="104.992174"><ele>774.8634</ele><time>2026-06-18T20:10:51.000Z</time></trkpt>
        <trkpt lat="28.460234" lon="104.992174"><ele>775.3697</ele><time>2026-06-18T20:10:55.000Z</time></trkpt>
        <trkpt lat="28.460229" lon="104.992176"><ele>776.1628</ele><time>2026-06-18T20:10:57.000Z</time></trkpt>
        <trkpt lat="28.460202" lon="104.992188"><ele>776.4546</ele><time>2026-06-18T20:11:01.000Z</time></trkpt>
        <trkpt lat="28.460174" lon="104.99216"><ele>776.88745</ele><time>2026-06-18T20:11:05.000Z</time></trkpt>
        <trkpt lat="28.460168" lon="104.992151"><ele>777.71136</ele><time>2026-06-18T20:11:07.000Z</time></trkpt>
        <trkpt lat="28.460153" lon="104.992147"><ele>778.1438</ele><time>2026-06-18T20:11:09.000Z</time></trkpt>
        <trkpt lat="28.460102" lon="104.992136"><ele>778.2811</ele><time>2026-06-18T20:11:13.000Z</time></trkpt>
        <trkpt lat="28.460075" lon="104.992129"><ele>778.69696</ele><time>2026-06-18T20:11:15.000Z</time></trkpt>
        <trkpt lat="28.460048" lon="104.992135"><ele>779.0404</ele><time>2026-06-18T20:11:17.000Z</time></trkpt>
        <trkpt lat="28.46003" lon="104.992144"><ele>779.27</ele><time>2026-06-18T20:11:19.000Z</time></trkpt>
        <trkpt lat="28.460006" lon="104.992155"><ele>779.7912</ele><time>2026-06-18T20:11:21.000Z</time></trkpt>
        <trkpt lat="28.459983" lon="104.992165"><ele>780.36017</ele><time>2026-06-18T20:11:23.000Z</time></trkpt>
        <trkpt lat="28.459929" lon="104.992191"><ele>780.79926</ele><time>2026-06-18T20:11:30.000Z</time></trkpt>
        <trkpt lat="28.459929" lon="104.992191"><ele>780.99255</ele><time>2026-06-18T20:11:32.000Z</time></trkpt>
        <trkpt lat="28.459927" lon="104.992195"><ele>781.0203</ele><time>2026-06-18T20:11:34.000Z</time></trkpt>
        <trkpt lat="28.4599" lon="104.99227"><ele>781.059</ele><time>2026-06-18T20:11:40.000Z</time></trkpt>
        <trkpt lat="28.459888" lon="104.992303"><ele>781.57874</ele><time>2026-06-18T20:11:42.000Z</time></trkpt>
        <trkpt lat="28.459913" lon="104.99245"><ele>782.08215</ele><time>2026-06-18T20:11:48.000Z</time></trkpt>
        <trkpt lat="28.459913" lon="104.99245"><ele>782.14874</ele><time>2026-06-18T20:11:50.000Z</time></trkpt>
        <trkpt lat="28.459916" lon="104.992453"><ele>782.7014</ele><time>2026-06-18T20:11:52.000Z</time></trkpt>
        <trkpt lat="28.459975" lon="104.992521"><ele>783.32135</ele><time>2026-06-18T20:11:58.000Z</time></trkpt>
        <trkpt lat="28.459998" lon="104.992546"><ele>783.32135</ele><time>2026-06-18T20:12:00.000Z</time></trkpt>
        <trkpt lat="28.460021" lon="104.99257"><ele>783.32135</ele><time>2026-06-18T20:12:02.000Z</time></trkpt>
        <trkpt lat="28.460046" lon="104.992595"><ele>783.32135</ele><time>2026-06-18T20:12:04.000Z</time></trkpt>
        <trkpt lat="28.460061" lon="104.992607"><ele>783.32135</ele><time>2026-06-18T20:12:06.000Z</time></trkpt>
        <trkpt lat="28.460077" lon="104.992621"><ele>783.24976</ele><time>2026-06-18T20:12:08.000Z</time></trkpt>
        <trkpt lat="28.460095" lon="104.992636"><ele>782.79126</ele><time>2026-06-18T20:12:10.000Z</time></trkpt>
        <trkpt lat="28.460112" lon="104.992648"><ele>782.27277</ele><time>2026-06-18T20:12:12.000Z</time></trkpt>
        <trkpt lat="28.460127" lon="104.99266"><ele>781.6763</ele><time>2026-06-18T20:12:14.000Z</time></trkpt>
        <trkpt lat="28.460144" lon="104.992676"><ele>781.31714</ele><time>2026-06-18T20:12:16.000Z</time></trkpt>
        <trkpt lat="28.460164" lon="104.992697"><ele>781.16113</ele><time>2026-06-18T20:12:18.000Z</time></trkpt>
        <trkpt lat="28.460186" lon="104.992717"><ele>781.0046</ele><time>2026-06-18T20:12:20.000Z</time></trkpt>
        <trkpt lat="28.460209" lon="104.992736"><ele>780.8037</ele><time>2026-06-18T20:12:22.000Z</time></trkpt>
        <trkpt lat="28.460229" lon="104.992751"><ele>780.495</ele><time>2026-06-18T20:12:24.000Z</time></trkpt>
        <trkpt lat="28.460246" lon="104.992768"><ele>780.29913</ele><time>2026-06-18T20:12:26.000Z</time></trkpt>
        <trkpt lat="28.460263" lon="104.992791"><ele>780.1982</ele><time>2026-06-18T20:12:28.000Z</time></trkpt>
        <trkpt lat="28.460282" lon="104.992816"><ele>779.99554</ele><time>2026-06-18T20:12:30.000Z</time></trkpt>
        <trkpt lat="28.460298" lon="104.992834"><ele>779.57294</ele><time>2026-06-18T20:12:32.000Z</time></trkpt>
        <trkpt lat="28.460315" lon="104.992852"><ele>778.96643</ele><time>2026-06-18T20:12:34.000Z</time></trkpt>
        <trkpt lat="28.46033" lon="104.99287"><ele>778.5528</ele><time>2026-06-18T20:12:36.000Z</time></trkpt>
        <trkpt lat="28.460342" lon="104.992887"><ele>778.3345</ele><time>2026-06-18T20:12:38.000Z</time></trkpt>
        <trkpt lat="28.460355" lon="104.992903"><ele>778.0606</ele><time>2026-06-18T20:12:40.000Z</time></trkpt>
        <trkpt lat="28.460372" lon="104.992921"><ele>777.8444</ele><time>2026-06-18T20:12:42.000Z</time></trkpt>
        <trkpt lat="28.460393" lon="104.99294"><ele>777.7388</ele><time>2026-06-18T20:12:44.000Z</time></trkpt>
        <trkpt lat="28.460416" lon="104.992958"><ele>777.6624</ele><time>2026-06-18T20:12:46.000Z</time></trkpt>
        <trkpt lat="28.460431" lon="104.992975"><ele>777.2937</ele><time>2026-06-18T20:12:48.000Z</time></trkpt>
        <trkpt lat="28.460446" lon="104.992993"><ele>776.948</ele><time>2026-06-18T20:12:50.000Z</time></trkpt>
        <trkpt lat="28.46046" lon="104.99301"><ele>776.87744</ele><time>2026-06-18T20:12:52.000Z</time></trkpt>
        <trkpt lat="28.460477" lon="104.993034"><ele>776.7698</ele><time>2026-06-18T20:12:54.000Z</time></trkpt>
        <trkpt lat="28.460487" lon="104.993052"><ele>776.66144</ele><time>2026-06-18T20:12:56.000Z</time></trkpt>
        <trkpt lat="28.460493" lon="104.993068"><ele>776.3843</ele><time>2026-06-18T20:12:58.000Z</time></trkpt>
        <trkpt lat="28.460495" lon="104.993086"><ele>776.05066</ele><time>2026-06-18T20:13:00.000Z</time></trkpt>
        <trkpt lat="28.460493" lon="104.99311"><ele>775.9166</ele><time>2026-06-18T20:13:02.000Z</time></trkpt>
        <trkpt lat="28.46049" lon="104.993135"><ele>775.78687</ele><time>2026-06-18T20:13:04.000Z</time></trkpt>
        <trkpt lat="28.460481" lon="104.99315"><ele>775.6949</ele><time>2026-06-18T20:13:06.000Z</time></trkpt>
        <trkpt lat="28.460469" lon="104.993157"><ele>775.6949</ele><time>2026-06-18T20:13:08.000Z</time></trkpt>
        <trkpt lat="28.460442" lon="104.993172"><ele>775.6949</ele><time>2026-06-18T20:13:12.000Z</time></trkpt>
        <trkpt lat="28.460427" lon="104.993182"><ele>775.6949</ele><time>2026-06-18T20:13:14.000Z</time></trkpt>
        <trkpt lat="28.460412" lon="104.9932"><ele>775.6949</ele><time>2026-06-18T20:13:16.000Z</time></trkpt>
        <trkpt lat="28.460398" lon="104.993221"><ele>775.7312</ele><time>2026-06-18T20:13:18.000Z</time></trkpt>
        <trkpt lat="28.460386" lon="104.993242"><ele>776.0013</ele><time>2026-06-18T20:13:20.000Z</time></trkpt>
        <trkpt lat="28.460372" lon="104.993264"><ele>776.3781</ele><time>2026-06-18T20:13:22.000Z</time></trkpt>
        <trkpt lat="28.460355" lon="104.99329"><ele>776.94214</ele><time>2026-06-18T20:13:24.000Z</time></trkpt>
        <trkpt lat="28.460339" lon="104.993313"><ele>777.9454</ele><time>2026-06-18T20:13:26.000Z</time></trkpt>
        <trkpt lat="28.460325" lon="104.993337"><ele>779.0471</ele><time>2026-06-18T20:13:28.000Z</time></trkpt>
        <trkpt lat="28.46031" lon="104.993358"><ele>779.97736</ele><time>2026-06-18T20:13:30.000Z</time></trkpt>
        <trkpt lat="28.460298" lon="104.993375"><ele>780.57446</ele><time>2026-06-18T20:13:32.000Z</time></trkpt>
        <trkpt lat="28.460285" lon="104.993389"><ele>781.3175</ele><time>2026-06-18T20:13:34.000Z</time></trkpt>
        <trkpt lat="28.460264" lon="104.993408"><ele>782.46497</ele><time>2026-06-18T20:13:36.000Z</time></trkpt>
        <trkpt lat="28.460248" lon="104.993427"><ele>783.4263</ele><time>2026-06-18T20:13:38.000Z</time></trkpt>
        <trkpt lat="28.460234" lon="104.993444"><ele>784.0994</ele><time>2026-06-18T20:13:40.000Z</time></trkpt>
        <trkpt lat="28.460217" lon="104.993463"><ele>784.8217</ele><time>2026-06-18T20:13:42.000Z</time></trkpt>
        <trkpt lat="28.460203" lon="104.993487"><ele>785.7848</ele><time>2026-06-18T20:13:44.000Z</time></trkpt>
        <trkpt lat="28.460196" lon="104.993509"><ele>786.5083</ele><time>2026-06-18T20:13:46.000Z</time></trkpt>
        <trkpt lat="28.460195" lon="104.993529"><ele>786.71277</ele><time>2026-06-18T20:13:48.000Z</time></trkpt>
        <trkpt lat="28.460201" lon="104.993558"><ele>787.3257</ele><time>2026-06-18T20:13:50.000Z</time></trkpt>
        <trkpt lat="28.460211" lon="104.993577"><ele>788.0327</ele><time>2026-06-18T20:13:52.000Z</time></trkpt>
        <trkpt lat="28.460223" lon="104.993599"><ele>788.4868</ele><time>2026-06-18T20:13:54.000Z</time></trkpt>
        <trkpt lat="28.460243" lon="104.993624"><ele>788.8122</ele><time>2026-06-18T20:13:56.000Z</time></trkpt>
        <trkpt lat="28.460265" lon="104.993651"><ele>788.8122</ele><time>2026-06-18T20:13:58.000Z</time></trkpt>
        <trkpt lat="28.460287" lon="104.993677"><ele>788.8122</ele><time>2026-06-18T20:14:00.000Z</time></trkpt>
        <trkpt lat="28.460309" lon="104.993697"><ele>788.8436</ele><time>2026-06-18T20:14:02.000Z</time></trkpt>
        <trkpt lat="28.460333" lon="104.993713"><ele>788.88354</ele><time>2026-06-18T20:14:04.000Z</time></trkpt>
        <trkpt lat="28.46035" lon="104.993725"><ele>788.9206</ele><time>2026-06-18T20:14:06.000Z</time></trkpt>
        <trkpt lat="28.460372" lon="104.993741"><ele>788.9206</ele><time>2026-06-18T20:14:08.000Z</time></trkpt>
        <trkpt lat="28.460393" lon="104.993753"><ele>788.9206</ele><time>2026-06-18T20:14:10.000Z</time></trkpt>
        <trkpt lat="28.460411" lon="104.993763"><ele>789.1908</ele><time>2026-06-18T20:14:12.000Z</time></trkpt>
        <trkpt lat="28.460431" lon="104.993769"><ele>789.45544</ele><time>2026-06-18T20:14:14.000Z</time></trkpt>
        <trkpt lat="28.460441" lon="104.993767"><ele>789.55334</ele><time>2026-06-18T20:14:16.000Z</time></trkpt>
        <trkpt lat="28.460474" lon="104.993764"><ele>789.72925</ele><time>2026-06-18T20:14:20.000Z</time></trkpt>
        <trkpt lat="28.460488" lon="104.993765"><ele>789.9294</ele><time>2026-06-18T20:14:22.000Z</time></trkpt>
        <trkpt lat="28.460505" lon="104.993767"><ele>790.0269</ele><time>2026-06-18T20:14:24.000Z</time></trkpt>
        <trkpt lat="28.460525" lon="104.993771"><ele>790.1281</ele><time>2026-06-18T20:14:26.000Z</time></trkpt>
        <trkpt lat="28.460544" lon="104.993774"><ele>790.1281</ele><time>2026-06-18T20:14:28.000Z</time></trkpt>
        <trkpt lat="28.460567" lon="104.993776"><ele>790.1281</ele><time>2026-06-18T20:14:30.000Z</time></trkpt>
        <trkpt lat="28.460591" lon="104.993775"><ele>790.1281</ele><time>2026-06-18T20:14:32.000Z</time></trkpt>
        <trkpt lat="28.460615" lon="104.993779"><ele>790.1281</ele><time>2026-06-18T20:14:34.000Z</time></trkpt>
        <trkpt lat="28.460632" lon="104.993786"><ele>789.9213</ele><time>2026-06-18T20:14:36.000Z</time></trkpt>
        <trkpt lat="28.460641" lon="104.993792"><ele>789.6584</ele><time>2026-06-18T20:14:38.000Z</time></trkpt>
        <trkpt lat="28.460684" lon="104.993827"><ele>789.4186</ele><time>2026-06-18T20:14:42.000Z</time></trkpt>
        <trkpt lat="28.460704" lon="104.993848"><ele>789.1365</ele><time>2026-06-18T20:14:44.000Z</time></trkpt>
        <trkpt lat="28.460723" lon="104.993879"><ele>788.6013</ele><time>2026-06-18T20:14:46.000Z</time></trkpt>
        <trkpt lat="28.460732" lon="104.993907"><ele>787.96436</ele><time>2026-06-18T20:14:48.000Z</time></trkpt>
        <trkpt lat="28.460728" lon="104.993922"><ele>787.29626</ele><time>2026-06-18T20:14:50.000Z</time></trkpt>
        <trkpt lat="28.460731" lon="104.993935"><ele>787.122</ele><time>2026-06-18T20:14:54.000Z</time></trkpt>
        <trkpt lat="28.460738" lon="104.993975"><ele>787.0104</ele><time>2026-06-18T20:15:00.000Z</time></trkpt>
        <trkpt lat="28.460739" lon="104.993997"><ele>787.0104</ele><time>2026-06-18T20:15:02.000Z</time></trkpt>
        <trkpt lat="28.460744" lon="104.994024"><ele>787.0104</ele><time>2026-06-18T20:15:04.000Z</time></trkpt>
        <trkpt lat="28.46075" lon="104.994052"><ele>787.0104</ele><time>2026-06-18T20:15:06.000Z</time></trkpt>
        <trkpt lat="28.460755" lon="104.99408"><ele>787.2198</ele><time>2026-06-18T20:15:08.000Z</time></trkpt>
        <trkpt lat="28.460759" lon="104.994102"><ele>787.3953</ele><time>2026-06-18T20:15:10.000Z</time></trkpt>
        <trkpt lat="28.460758" lon="104.994122"><ele>787.5532</ele><time>2026-06-18T20:15:12.000Z</time></trkpt>
        <trkpt lat="28.460753" lon="104.994151"><ele>787.6746</ele><time>2026-06-18T20:15:14.000Z</time></trkpt>
        <trkpt lat="28.460747" lon="104.99418"><ele>787.8129</ele><time>2026-06-18T20:15:16.000Z</time></trkpt>
        <trkpt lat="28.460741" lon="104.994211"><ele>788.29956</ele><time>2026-06-18T20:15:18.000Z</time></trkpt>
        <trkpt lat="28.460741" lon="104.994241"><ele>788.8958</ele><time>2026-06-18T20:15:20.000Z</time></trkpt>
        <trkpt lat="28.460747" lon="104.994273"><ele>789.4191</ele><time>2026-06-18T20:15:22.000Z</time></trkpt>
        <trkpt lat="28.460758" lon="104.994302"><ele>790.2913</ele><time>2026-06-18T20:15:24.000Z</time></trkpt>
        <trkpt lat="28.460767" lon="104.994327"><ele>790.87463</ele><time>2026-06-18T20:15:26.000Z</time></trkpt>
        <trkpt lat="28.460772" lon="104.994361"><ele>791.3562</ele><time>2026-06-18T20:15:28.000Z</time></trkpt>
        <trkpt lat="28.460775" lon="104.994388"><ele>792.22473</ele><time>2026-06-18T20:15:30.000Z</time></trkpt>
        <trkpt lat="28.460776" lon="104.994413"><ele>792.71326</ele><time>2026-06-18T20:15:32.000Z</time></trkpt>
        <trkpt lat="28.460775" lon="104.994439"><ele>793.0032</ele><time>2026-06-18T20:15:34.000Z</time></trkpt>
        <trkpt lat="28.460773" lon="104.994466"><ele>793.21783</ele><time>2026-06-18T20:15:36.000Z</time></trkpt>
        <trkpt lat="28.460769" lon="104.994496"><ele>793.236</ele><time>2026-06-18T20:15:38.000Z</time></trkpt>
        <trkpt lat="28.460763" lon="104.994516"><ele>793.4255</ele><time>2026-06-18T20:15:40.000Z</time></trkpt>
        <trkpt lat="28.460761" lon="104.994543"><ele>793.832</ele><time>2026-06-18T20:15:42.000Z</time></trkpt>
        <trkpt lat="28.460756" lon="104.994578"><ele>794.30725</ele><time>2026-06-18T20:15:44.000Z</time></trkpt>
        <trkpt lat="28.460747" lon="104.994609"><ele>794.6791</ele><time>2026-06-18T20:15:46.000Z</time></trkpt>
        <trkpt lat="28.460741" lon="104.994631"><ele>794.9363</ele><time>2026-06-18T20:15:48.000Z</time></trkpt>
        <trkpt lat="28.460727" lon="104.994659"><ele>795.301</ele><time>2026-06-18T20:15:50.000Z</time></trkpt>
        <trkpt lat="28.46071" lon="104.994677"><ele>795.74225</ele><time>2026-06-18T20:15:52.000Z</time></trkpt>
        <trkpt lat="28.460692" lon="104.994691"><ele>796.04205</ele><time>2026-06-18T20:15:54.000Z</time></trkpt>
        <trkpt lat="28.460675" lon="104.994703"><ele>796.33124</ele><time>2026-06-18T20:15:56.000Z</time></trkpt>
        <trkpt lat="28.460661" lon="104.994718"><ele>796.64105</ele><time>2026-06-18T20:15:58.000Z</time></trkpt>
        <trkpt lat="28.460644" lon="104.994741"><ele>796.9184</ele><time>2026-06-18T20:16:00.000Z</time></trkpt>
        <trkpt lat="28.460629" lon="104.99476"><ele>797.2123</ele><time>2026-06-18T20:16:02.000Z</time></trkpt>
        <trkpt lat="28.460615" lon="104.994781"><ele>797.6547</ele><time>2026-06-18T20:16:04.000Z</time></trkpt>
        <trkpt lat="28.4606" lon="104.994804"><ele>798.32855</ele><time>2026-06-18T20:16:06.000Z</time></trkpt>
        <trkpt lat="28.460585" lon="104.994828"><ele>799.30524</ele><time>2026-06-18T20:16:08.000Z</time></trkpt>
        <trkpt lat="28.460575" lon="104.994853"><ele>800.2662</ele><time>2026-06-18T20:16:10.000Z</time></trkpt>
        <trkpt lat="28.460572" lon="104.994876"><ele>800.8877</ele><time>2026-06-18T20:16:12.000Z</time></trkpt>
        <trkpt lat="28.460574" lon="104.9949"><ele>801.388</ele><time>2026-06-18T20:16:14.000Z</time></trkpt>
        <trkpt lat="28.46058" lon="104.994932"><ele>801.81366</ele><time>2026-06-18T20:16:16.000Z</time></trkpt>
        <trkpt lat="28.460591" lon="104.994966"><ele>801.9311</ele><time>2026-06-18T20:16:18.000Z</time></trkpt>
        <trkpt lat="28.460604" lon="104.994988"><ele>801.9311</ele><time>2026-06-18T20:16:20.000Z</time></trkpt>
        <trkpt lat="28.46062" lon="104.995009"><ele>801.9311</ele><time>2026-06-18T20:16:22.000Z</time></trkpt>
        <trkpt lat="28.460641" lon="104.995029"><ele>801.9311</ele><time>2026-06-18T20:16:24.000Z</time></trkpt>
        <trkpt lat="28.460666" lon="104.995048"><ele>801.9311</ele><time>2026-06-18T20:16:26.000Z</time></trkpt>
        <trkpt lat="28.460694" lon="104.995069"><ele>801.644</ele><time>2026-06-18T20:16:28.000Z</time></trkpt>
        <trkpt lat="28.460724" lon="104.995089"><ele>801.644</ele><time>2026-06-18T20:16:30.000Z</time></trkpt>
        <trkpt lat="28.46075" lon="104.995102"><ele>801.644</ele><time>2026-06-18T20:16:32.000Z</time></trkpt>
        <trkpt lat="28.460776" lon="104.995117"><ele>801.644</ele><time>2026-06-18T20:16:34.000Z</time></trkpt>
        <trkpt lat="28.460797" lon="104.995128"><ele>801.644</ele><time>2026-06-18T20:16:36.000Z</time></trkpt>
        <trkpt lat="28.46081" lon="104.99513"><ele>801.8265</ele><time>2026-06-18T20:16:38.000Z</time></trkpt>
        <trkpt lat="28.460839" lon="104.995131"><ele>802.2899</ele><time>2026-06-18T20:16:40.000Z</time></trkpt>
        <trkpt lat="28.460866" lon="104.995126"><ele>802.92535</ele><time>2026-06-18T20:16:42.000Z</time></trkpt>
        <trkpt lat="28.460889" lon="104.995116"><ele>803.94977</ele><time>2026-06-18T20:16:44.000Z</time></trkpt>
        <trkpt lat="28.460911" lon="104.995104"><ele>804.9016</ele><time>2026-06-18T20:16:46.000Z</time></trkpt>
        <trkpt lat="28.46093" lon="104.995089"><ele>805.4338</ele><time>2026-06-18T20:16:48.000Z</time></trkpt>
        <trkpt lat="28.460942" lon="104.99508"><ele>805.4338</ele><time>2026-06-18T20:16:50.000Z</time></trkpt>
        <trkpt lat="28.460966" lon="104.995072"><ele>805.4338</ele><time>2026-06-18T20:16:52.000Z</time></trkpt>
        <trkpt lat="28.460991" lon="104.99507"><ele>805.4338</ele><time>2026-06-18T20:16:54.000Z</time></trkpt>
        <trkpt lat="28.461017" lon="104.995065"><ele>805.4338</ele><time>2026-06-18T20:16:56.000Z</time></trkpt>
        <trkpt lat="28.461049" lon="104.995062"><ele>805.4043</ele><time>2026-06-18T20:16:58.000Z</time></trkpt>
        <trkpt lat="28.461066" lon="104.995069"><ele>804.8454</ele><time>2026-06-18T20:17:00.000Z</time></trkpt>
        <trkpt lat="28.461084" lon="104.995084"><ele>803.7875</ele><time>2026-06-18T20:17:02.000Z</time></trkpt>
        <trkpt lat="28.461102" lon="104.995108"><ele>802.8579</ele><time>2026-06-18T20:17:04.000Z</time></trkpt>
        <trkpt lat="28.46112" lon="104.995135"><ele>802.0983</ele><time>2026-06-18T20:17:06.000Z</time></trkpt>
        <trkpt lat="28.461137" lon="104.995165"><ele>801.21564</ele><time>2026-06-18T20:17:08.000Z</time></trkpt>
        <trkpt lat="28.46115" lon="104.995188"><ele>800.10626</ele><time>2026-06-18T20:17:10.000Z</time></trkpt>
        <trkpt lat="28.461164" lon="104.995211"><ele>799.35706</ele><time>2026-06-18T20:17:12.000Z</time></trkpt>
        <trkpt lat="28.461177" lon="104.995233"><ele>799.2279</ele><time>2026-06-18T20:17:14.000Z</time></trkpt>
        <trkpt lat="28.461188" lon="104.995255"><ele>799.1963</ele><time>2026-06-18T20:17:16.000Z</time></trkpt>
        <trkpt lat="28.461196" lon="104.995271"><ele>799.10205</ele><time>2026-06-18T20:17:18.000Z</time></trkpt>
        <trkpt lat="28.461205" lon="104.995292"><ele>798.91943</ele><time>2026-06-18T20:17:20.000Z</time></trkpt>
        <trkpt lat="28.461216" lon="104.995311"><ele>798.91943</ele><time>2026-06-18T20:17:22.000Z</time></trkpt>
        <trkpt lat="28.461226" lon="104.995327"><ele>798.91943</ele><time>2026-06-18T20:17:24.000Z</time></trkpt>
        <trkpt lat="28.461235" lon="104.995342"><ele>798.984</ele><time>2026-06-18T20:17:26.000Z</time></trkpt>
        <trkpt lat="28.461248" lon="104.995366"><ele>798.984</ele><time>2026-06-18T20:17:28.000Z</time></trkpt>
        <trkpt lat="28.461257" lon="104.995388"><ele>799.038</ele><time>2026-06-18T20:17:30.000Z</time></trkpt>
        <trkpt lat="28.46126" lon="104.995401"><ele>799.06464</ele><time>2026-06-18T20:17:32.000Z</time></trkpt>
        <trkpt lat="28.46126" lon="104.995414"><ele>799.06464</ele><time>2026-06-18T20:17:34.000Z</time></trkpt>
        <trkpt lat="28.461257" lon="104.995453"><ele>799.06464</ele><time>2026-06-18T20:17:38.000Z</time></trkpt>
        <trkpt lat="28.461258" lon="104.995484"><ele>799.12024</ele><time>2026-06-18T20:17:40.000Z</time></trkpt>
        <trkpt lat="28.461263" lon="104.995528"><ele>799.1788</ele><time>2026-06-18T20:17:42.000Z</time></trkpt>
        <trkpt lat="28.461265" lon="104.995567"><ele>799.1928</ele><time>2026-06-18T20:17:44.000Z</time></trkpt>
        <trkpt lat="28.461265" lon="104.995607"><ele>799.41046</ele><time>2026-06-18T20:17:46.000Z</time></trkpt>
        <trkpt lat="28.461264" lon="104.995641"><ele>799.7512</ele><time>2026-06-18T20:17:48.000Z</time></trkpt>
        <trkpt lat="28.461263" lon="104.995673"><ele>799.9065</ele><time>2026-06-18T20:17:50.000Z</time></trkpt>
        <trkpt lat="28.461263" lon="104.995699"><ele>799.9716</ele><time>2026-06-18T20:17:52.000Z</time></trkpt>
        <trkpt lat="28.461265" lon="104.995729"><ele>800.385</ele><time>2026-06-18T20:17:54.000Z</time></trkpt>
        <trkpt lat="28.461263" lon="104.995765"><ele>801.003</ele><time>2026-06-18T20:17:56.000Z</time></trkpt>
        <trkpt lat="28.461261" lon="104.995773"><ele>801.7113</ele><time>2026-06-18T20:17:58.000Z</time></trkpt>
        <trkpt lat="28.46126" lon="104.9958"><ele>802.38745</ele><time>2026-06-18T20:18:04.000Z</time></trkpt>
        <trkpt lat="28.461256" lon="104.99584"><ele>802.76733</ele><time>2026-06-18T20:18:06.000Z</time></trkpt>
        <trkpt lat="28.461249" lon="104.995867"><ele>803.1344</ele><time>2026-06-18T20:18:08.000Z</time></trkpt>
        <trkpt lat="28.461245" lon="104.995887"><ele>803.7495</ele><time>2026-06-18T20:18:10.000Z</time></trkpt>
        <trkpt lat="28.46124" lon="104.995907"><ele>804.55914</ele><time>2026-06-18T20:18:12.000Z</time></trkpt>
        <trkpt lat="28.461246" lon="104.99593"><ele>805.11365</ele><time>2026-06-18T20:18:16.000Z</time></trkpt>
        <trkpt lat="28.461259" lon="104.99597"><ele>805.4638</ele><time>2026-06-18T20:18:20.000Z</time></trkpt>
        <trkpt lat="28.461269" lon="104.995998"><ele>805.7749</ele><time>2026-06-18T20:18:22.000Z</time></trkpt>
        <trkpt lat="28.461282" lon="104.99602"><ele>806.1782</ele><time>2026-06-18T20:18:24.000Z</time></trkpt>
        <trkpt lat="28.461298" lon="104.996051"><ele>807.04425</ele><time>2026-06-18T20:18:26.000Z</time></trkpt>
        <trkpt lat="28.461311" lon="104.996079"><ele>807.90607</ele><time>2026-06-18T20:18:28.000Z</time></trkpt>
        <trkpt lat="28.461321" lon="104.996104"><ele>808.075</ele><time>2026-06-18T20:18:30.000Z</time></trkpt>
        <trkpt lat="28.461329" lon="104.996127"><ele>808.075</ele><time>2026-06-18T20:18:32.000Z</time></trkpt>
        <trkpt lat="28.461336" lon="104.996146"><ele>808.075</ele><time>2026-06-18T20:18:34.000Z</time></trkpt>
        <trkpt lat="28.46135" lon="104.996168"><ele>808.075</ele><time>2026-06-18T20:18:36.000Z</time></trkpt>
        <trkpt lat="28.461368" lon="104.996199"><ele>808.075</ele><time>2026-06-18T20:18:38.000Z</time></trkpt>
        <trkpt lat="28.461375" lon="104.99622"><ele>807.9224</ele><time>2026-06-18T20:18:40.000Z</time></trkpt>
        <trkpt lat="28.461374" lon="104.996238"><ele>807.8571</ele><time>2026-06-18T20:18:42.000Z</time></trkpt>
        <trkpt lat="28.461367" lon="104.996258"><ele>807.4085</ele><time>2026-06-18T20:18:44.000Z</time></trkpt>
        <trkpt lat="28.461355" lon="104.99628"><ele>806.97906</ele><time>2026-06-18T20:18:46.000Z</time></trkpt>
        <trkpt lat="28.461342" lon="104.996302"><ele>806.57074</ele><time>2026-06-18T20:18:48.000Z</time></trkpt>
        <trkpt lat="28.461331" lon="104.996324"><ele>806.2464</ele><time>2026-06-18T20:18:50.000Z</time></trkpt>
        <trkpt lat="28.461321" lon="104.996349"><ele>806.2464</ele><time>2026-06-18T20:18:52.000Z</time></trkpt>
        <trkpt lat="28.461312" lon="104.996374"><ele>806.2464</ele><time>2026-06-18T20:18:54.000Z</time></trkpt>
        <trkpt lat="28.461306" lon="104.996411"><ele>806.2464</ele><time>2026-06-18T20:18:56.000Z</time></trkpt>
        <trkpt lat="28.461308" lon="104.996433"><ele>806.2464</ele><time>2026-06-18T20:18:58.000Z</time></trkpt>
        <trkpt lat="28.461311" lon="104.996464"><ele>806.49677</ele><time>2026-06-18T20:19:00.000Z</time></trkpt>
        <trkpt lat="28.46131" lon="104.996497"><ele>807.17413</ele><time>2026-06-18T20:19:02.000Z</time></trkpt>
        <trkpt lat="28.461309" lon="104.996528"><ele>808.17194</ele><time>2026-06-18T20:19:04.000Z</time></trkpt>
        <trkpt lat="28.461308" lon="104.996557"><ele>809.083</ele><time>2026-06-18T20:19:06.000Z</time></trkpt>
        <trkpt lat="28.46131" lon="104.996583"><ele>809.5549</ele><time>2026-06-18T20:19:08.000Z</time></trkpt>
        <trkpt lat="28.461314" lon="104.996609"><ele>810.12384</ele><time>2026-06-18T20:19:10.000Z</time></trkpt>
        <trkpt lat="28.461322" lon="104.996633"><ele>811.0859</ele><time>2026-06-18T20:19:12.000Z</time></trkpt>
        <trkpt lat="28.461331" lon="104.996663"><ele>812.0187</ele><time>2026-06-18T20:19:14.000Z</time></trkpt>
        <trkpt lat="28.461338" lon="104.996691"><ele>812.5038</ele><time>2026-06-18T20:19:16.000Z</time></trkpt>
        <trkpt lat="28.461346" lon="104.996711"><ele>812.8063</ele><time>2026-06-18T20:19:18.000Z</time></trkpt>
        <trkpt lat="28.46136" lon="104.996735"><ele>813.3437</ele><time>2026-06-18T20:19:20.000Z</time></trkpt>
        <trkpt lat="28.461381" lon="104.996761"><ele>813.86646</ele><time>2026-06-18T20:19:22.000Z</time></trkpt>
        <trkpt lat="28.461401" lon="104.996786"><ele>814.22424</ele><time>2026-06-18T20:19:24.000Z</time></trkpt>
        <trkpt lat="28.461416" lon="104.996806"><ele>814.52936</ele><time>2026-06-18T20:19:26.000Z</time></trkpt>
        <trkpt lat="28.461434" lon="104.996831"><ele>814.7866</ele><time>2026-06-18T20:19:28.000Z</time></trkpt>
        <trkpt lat="28.461446" lon="104.996859"><ele>815.041</ele><time>2026-06-18T20:19:30.000Z</time></trkpt>
        <trkpt lat="28.461446" lon="104.996859"><ele>815.50433</ele><time>2026-06-18T20:19:32.000Z</time></trkpt>
        <trkpt lat="28.461444" lon="104.996888"><ele>815.8368</ele><time>2026-06-18T20:19:36.000Z</time></trkpt>
        <trkpt lat="28.46145" lon="104.996897"><ele>816.0265</ele><time>2026-06-18T20:19:38.000Z</time></trkpt>
        <trkpt lat="28.461463" lon="104.996912"><ele>816.39984</ele><time>2026-06-18T20:19:40.000Z</time></trkpt>
        <trkpt lat="28.46148" lon="104.996925"><ele>816.7392</ele><time>2026-06-18T20:19:42.000Z</time></trkpt>
        <trkpt lat="28.4615" lon="104.99694"><ele>817.35394</ele><time>2026-06-18T20:19:44.000Z</time></trkpt>
        <trkpt lat="28.46152" lon="104.996959"><ele>818.06305</ele><time>2026-06-18T20:19:46.000Z</time></trkpt>
        <trkpt lat="28.461539" lon="104.996979"><ele>818.3953</ele><time>2026-06-18T20:19:48.000Z</time></trkpt>
        <trkpt lat="28.461559" lon="104.997009"><ele>818.5729</ele><time>2026-06-18T20:19:50.000Z</time></trkpt>
        <trkpt lat="28.461572" lon="104.99704"><ele>818.67053</ele><time>2026-06-18T20:19:52.000Z</time></trkpt>
        <trkpt lat="28.461585" lon="104.997072"><ele>818.7794</ele><time>2026-06-18T20:19:54.000Z</time></trkpt>
        <trkpt lat="28.4616" lon="104.997103"><ele>818.864</ele><time>2026-06-18T20:19:56.000Z</time></trkpt>
        <trkpt lat="28.461618" lon="104.997131"><ele>818.9821</ele><time>2026-06-18T20:19:58.000Z</time></trkpt>
        <trkpt lat="28.461629" lon="104.997153"><ele>819.0442</ele><time>2026-06-18T20:20:00.000Z</time></trkpt>
        <trkpt lat="28.461634" lon="104.997169"><ele>819.3098</ele><time>2026-06-18T20:20:02.000Z</time></trkpt>
        <trkpt lat="28.461637" lon="104.997191"><ele>820.0197</ele><time>2026-06-18T20:20:04.000Z</time></trkpt>
        <trkpt lat="28.461637" lon="104.997215"><ele>820.5845</ele><time>2026-06-18T20:20:06.000Z</time></trkpt>
        <trkpt lat="28.46164" lon="104.997239"><ele>820.77576</ele><time>2026-06-18T20:20:08.000Z</time></trkpt>
        <trkpt lat="28.461644" lon="104.997258"><ele>821.15454</ele><time>2026-06-18T20:20:10.000Z</time></trkpt>
        <trkpt lat="28.461653" lon="104.997286"><ele>821.6661</ele><time>2026-06-18T20:20:12.000Z</time></trkpt>
        <trkpt lat="28.461666" lon="104.997312"><ele>821.9232</ele><time>2026-06-18T20:20:14.000Z</time></trkpt>
        <trkpt lat="28.46168" lon="104.997343"><ele>822.1487</ele><time>2026-06-18T20:20:16.000Z</time></trkpt>
        <trkpt lat="28.461699" lon="104.997371"><ele>822.3888</ele><time>2026-06-18T20:20:18.000Z</time></trkpt>
        <trkpt lat="28.461718" lon="104.997395"><ele>822.9952</ele><time>2026-06-18T20:20:20.000Z</time></trkpt>
        <trkpt lat="28.461732" lon="104.997415"><ele>824.3543</ele><time>2026-06-18T20:20:22.000Z</time></trkpt>
        <trkpt lat="28.461743" lon="104.997434"><ele>825.99615</ele><time>2026-06-18T20:20:24.000Z</time></trkpt>
        <trkpt lat="28.461756" lon="104.997455"><ele>827.11566</ele><time>2026-06-18T20:20:26.000Z</time></trkpt>
        <trkpt lat="28.461768" lon="104.99747"><ele>827.4639</ele><time>2026-06-18T20:20:28.000Z</time></trkpt>
        <trkpt lat="28.461771" lon="104.99747"><ele>828.4687</ele><time>2026-06-18T20:20:30.000Z</time></trkpt>
        <trkpt lat="28.461796" lon="104.997473"><ele>830.3938</ele><time>2026-06-18T20:20:34.000Z</time></trkpt>
        <trkpt lat="28.461815" lon="104.997474"><ele>832.3274</ele><time>2026-06-18T20:20:36.000Z</time></trkpt>
        <trkpt lat="28.461838" lon="104.997476"><ele>834.23334</ele><time>2026-06-18T20:20:38.000Z</time></trkpt>
        <trkpt lat="28.461861" lon="104.997476"><ele>835.85144</ele><time>2026-06-18T20:20:40.000Z</time></trkpt>
        <trkpt lat="28.461886" lon="104.997474"><ele>837.2301</ele><time>2026-06-18T20:20:42.000Z</time></trkpt>
        <trkpt lat="28.461915" lon="104.997468"><ele>838.16327</ele><time>2026-06-18T20:20:44.000Z</time></trkpt>
        <trkpt lat="28.461944" lon="104.997456"><ele>838.39703</ele><time>2026-06-18T20:20:46.000Z</time></trkpt>
        <trkpt lat="28.461968" lon="104.997442"><ele>838.44714</ele><time>2026-06-18T20:20:48.000Z</time></trkpt>
        <trkpt lat="28.461988" lon="104.997429"><ele>838.5528</ele><time>2026-06-18T20:20:50.000Z</time></trkpt>
        <trkpt lat="28.462005" lon="104.997412"><ele>838.5528</ele><time>2026-06-18T20:20:52.000Z</time></trkpt>
        <trkpt lat="28.462021" lon="104.997394"><ele>838.5528</ele><time>2026-06-18T20:20:54.000Z</time></trkpt>
        <trkpt lat="28.462039" lon="104.997373"><ele>838.5528</ele><time>2026-06-18T20:20:56.000Z</time></trkpt>
        <trkpt lat="28.462047" lon="104.997347"><ele>838.5528</ele><time>2026-06-18T20:20:58.000Z</time></trkpt>
        <trkpt lat="28.462046" lon="104.997319"><ele>838.4514</ele><time>2026-06-18T20:21:00.000Z</time></trkpt>
        <trkpt lat="28.462039" lon="104.997279"><ele>838.1023</ele><time>2026-06-18T20:21:02.000Z</time></trkpt>
        <trkpt lat="28.462028" lon="104.997232"><ele>837.7602</ele><time>2026-06-18T20:21:04.000Z</time></trkpt>
        <trkpt lat="28.462018" lon="104.997182"><ele>837.5789</ele><time>2026-06-18T20:21:06.000Z</time></trkpt>
        <trkpt lat="28.462017" lon="104.997153"><ele>837.212</ele><time>2026-06-18T20:21:08.000Z</time></trkpt>
        <trkpt lat="28.462017" lon="104.997153"><ele>836.3912</ele><time>2026-06-18T20:21:10.000Z</time></trkpt>
        <trkpt lat="28.461964" lon="104.997172"><ele>834.93726</ele><time>2026-06-18T20:21:26.000Z</time></trkpt>
        <trkpt lat="28.461955" lon="104.997175"><ele>833.4177</ele><time>2026-06-18T20:21:30.000Z</time></trkpt>
        <trkpt lat="28.461955" lon="104.997175"><ele>831.8975</ele><time>2026-06-18T20:21:32.000Z</time></trkpt>
        <trkpt lat="28.461979" lon="104.997081"><ele>830.4713</ele><time>2026-06-18T20:22:20.000Z</time></trkpt>
        <trkpt lat="28.461977" lon="104.997077"><ele>828.114</ele><time>2026-06-18T20:22:25.000Z</time></trkpt>
        <trkpt lat="28.461968" lon="104.997052"><ele>825.35834</ele><time>2026-06-18T20:22:27.000Z</time></trkpt>
        <trkpt lat="28.461946" lon="104.996981"><ele>824.37823</ele><time>2026-06-18T20:22:31.000Z</time></trkpt>
        <trkpt lat="28.461941" lon="104.996957"><ele>824.1761</ele><time>2026-06-18T20:22:33.000Z</time></trkpt>
        <trkpt lat="28.461938" lon="104.996934"><ele>823.8914</ele><time>2026-06-18T20:22:35.000Z</time></trkpt>
        <trkpt lat="28.461935" lon="104.996889"><ele>823.4278</ele><time>2026-06-18T20:22:39.000Z</time></trkpt>
        <trkpt lat="28.461933" lon="104.996876"><ele>822.3125</ele><time>2026-06-18T20:22:41.000Z</time></trkpt>
        <trkpt lat="28.461934" lon="104.996861"><ele>820.8769</ele><time>2026-06-18T20:22:43.000Z</time></trkpt>
        <trkpt lat="28.46194" lon="104.996822"><ele>819.60834</ele><time>2026-06-18T20:22:47.000Z</time></trkpt>
        <trkpt lat="28.461945" lon="104.996794"><ele>818.44165</ele><time>2026-06-18T20:22:49.000Z</time></trkpt>
        <trkpt lat="28.461951" lon="104.996759"><ele>817.7336</ele><time>2026-06-18T20:22:51.000Z</time></trkpt>
        <trkpt lat="28.461958" lon="104.996721"><ele>817.7052</ele><time>2026-06-18T20:22:53.000Z</time></trkpt>
        <trkpt lat="28.461964" lon="104.996684"><ele>817.7052</ele><time>2026-06-18T20:22:55.000Z</time></trkpt>
        <trkpt lat="28.46197" lon="104.996652"><ele>817.7052</ele><time>2026-06-18T20:22:57.000Z</time></trkpt>
        <trkpt lat="28.461978" lon="104.996623"><ele>817.7052</ele><time>2026-06-18T20:22:59.000Z</time></trkpt>
        <trkpt lat="28.461986" lon="104.996592"><ele>817.7052</ele><time>2026-06-18T20:23:01.000Z</time></trkpt>
        <trkpt lat="28.461994" lon="104.996562"><ele>817.8191</ele><time>2026-06-18T20:23:03.000Z</time></trkpt>
        <trkpt lat="28.461998" lon="104.996533"><ele>818.3276</ele><time>2026-06-18T20:23:05.000Z</time></trkpt>
        <trkpt lat="28.461999" lon="104.996503"><ele>819.2091</ele><time>2026-06-18T20:23:07.000Z</time></trkpt>
        <trkpt lat="28.461996" lon="104.996475"><ele>819.843</ele><time>2026-06-18T20:23:09.000Z</time></trkpt>
        <trkpt lat="28.461993" lon="104.996454"><ele>820.2915</ele><time>2026-06-18T20:23:11.000Z</time></trkpt>
        <trkpt lat="28.461989" lon="104.99643"><ele>820.88715</ele><time>2026-06-18T20:23:13.000Z</time></trkpt>
        <trkpt lat="28.461986" lon="104.996405"><ele>821.2729</ele><time>2026-06-18T20:23:15.000Z</time></trkpt>
        <trkpt lat="28.461985" lon="104.996378"><ele>821.47</ele><time>2026-06-18T20:23:17.000Z</time></trkpt>
        <trkpt lat="28.461988" lon="104.996346"><ele>821.74664</ele><time>2026-06-18T20:23:19.000Z</time></trkpt>
        <trkpt lat="28.461993" lon="104.996317"><ele>821.74664</ele><time>2026-06-18T20:23:21.000Z</time></trkpt>
        <trkpt lat="28.461998" lon="104.996287"><ele>821.7651</ele><time>2026-06-18T20:23:23.000Z</time></trkpt>
        <trkpt lat="28.462005" lon="104.996257"><ele>821.7954</ele><time>2026-06-18T20:23:25.000Z</time></trkpt>
        <trkpt lat="28.462013" lon="104.996239"><ele>821.83746</ele><time>2026-06-18T20:23:27.000Z</time></trkpt>
        <trkpt lat="28.462023" lon="104.996215"><ele>821.8878</ele><time>2026-06-18T20:23:29.000Z</time></trkpt>
        <trkpt lat="28.462033" lon="104.996192"><ele>821.8878</ele><time>2026-06-18T20:23:31.000Z</time></trkpt>
        <trkpt lat="28.462044" lon="104.996167"><ele>821.79553</ele><time>2026-06-18T20:23:33.000Z</time></trkpt>
        <trkpt lat="28.462058" lon="104.996138"><ele>821.79553</ele><time>2026-06-18T20:23:35.000Z</time></trkpt>
        <trkpt lat="28.462071" lon="104.996118"><ele>821.79553</ele><time>2026-06-18T20:23:37.000Z</time></trkpt>
        <trkpt lat="28.462084" lon="104.996094"><ele>821.79553</ele><time>2026-06-18T20:23:39.000Z</time></trkpt>
        <trkpt lat="28.462098" lon="104.996067"><ele>821.8878</ele><time>2026-06-18T20:23:41.000Z</time></trkpt>
        <trkpt lat="28.462113" lon="104.996039"><ele>822.05707</ele><time>2026-06-18T20:23:43.000Z</time></trkpt>
        <trkpt lat="28.462129" lon="104.996014"><ele>822.1612</ele><time>2026-06-18T20:23:45.000Z</time></trkpt>
        <trkpt lat="28.46214" lon="104.995992"><ele>822.2047</ele><time>2026-06-18T20:23:47.000Z</time></trkpt>
        <trkpt lat="28.46215" lon="104.995972"><ele>822.28094</ele><time>2026-06-18T20:23:49.000Z</time></trkpt>
        <trkpt lat="28.462158" lon="104.995958"><ele>822.4267</ele><time>2026-06-18T20:23:51.000Z</time></trkpt>
        <trkpt lat="28.462167" lon="104.995946"><ele>822.4759</ele><time>2026-06-18T20:23:53.000Z</time></trkpt>
        <trkpt lat="28.462177" lon="104.995934"><ele>822.4759</ele><time>2026-06-18T20:23:55.000Z</time></trkpt>
        <trkpt lat="28.46219" lon="104.99592"><ele>822.4823</ele><time>2026-06-18T20:23:57.000Z</time></trkpt>
        <trkpt lat="28.462203" lon="104.995911"><ele>822.5011</ele><time>2026-06-18T20:23:59.000Z</time></trkpt>
        <trkpt lat="28.46222" lon="104.995902"><ele>822.4775</ele><time>2026-06-18T20:24:01.000Z</time></trkpt>
        <trkpt lat="28.462239" lon="104.995893"><ele>822.4686</ele><time>2026-06-18T20:24:03.000Z</time></trkpt>
        <trkpt lat="28.462259" lon="104.995886"><ele>822.4686</ele><time>2026-06-18T20:24:05.000Z</time></trkpt>
        <trkpt lat="28.462281" lon="104.995884"><ele>822.4498</ele><time>2026-06-18T20:24:07.000Z</time></trkpt>
        <trkpt lat="28.462304" lon="104.995888"><ele>822.4334</ele><time>2026-06-18T20:24:09.000Z</time></trkpt>
        <trkpt lat="28.46233" lon="104.995893"><ele>822.4222</ele><time>2026-06-18T20:24:11.000Z</time></trkpt>
        <trkpt lat="28.462354" lon="104.9959"><ele>822.4285</ele><time>2026-06-18T20:24:13.000Z</time></trkpt>
        <trkpt lat="28.462378" lon="104.995908"><ele>822.4498</ele><time>2026-06-18T20:24:15.000Z</time></trkpt>
        <trkpt lat="28.462403" lon="104.995915"><ele>822.4686</ele><time>2026-06-18T20:24:17.000Z</time></trkpt>
        <trkpt lat="28.462426" lon="104.995921"><ele>822.4687</ele><time>2026-06-18T20:24:19.000Z</time></trkpt>
        <trkpt lat="28.462448" lon="104.995926"><ele>822.63574</ele><time>2026-06-18T20:24:21.000Z</time></trkpt>
        <trkpt lat="28.462468" lon="104.995927"><ele>823.0537</ele><time>2026-06-18T20:24:23.000Z</time></trkpt>
        <trkpt lat="28.462487" lon="104.995926"><ele>823.57886</ele><time>2026-06-18T20:24:25.000Z</time></trkpt>
        <trkpt lat="28.462504" lon="104.995927"><ele>824.03046</ele><time>2026-06-18T20:24:27.000Z</time></trkpt>
        <trkpt lat="28.46252" lon="104.995929"><ele>824.41296</ele><time>2026-06-18T20:24:29.000Z</time></trkpt>
        <trkpt lat="28.462533" lon="104.995935"><ele>824.8734</ele><time>2026-06-18T20:24:31.000Z</time></trkpt>
        <trkpt lat="28.462549" lon="104.995943"><ele>825.38306</ele><time>2026-06-18T20:24:33.000Z</time></trkpt>
        <trkpt lat="28.462568" lon="104.995953"><ele>825.38306</ele><time>2026-06-18T20:24:35.000Z</time></trkpt>
        <trkpt lat="28.462591" lon="104.995967"><ele>825.5762</ele><time>2026-06-18T20:24:37.000Z</time></trkpt>
        <trkpt lat="28.462612" lon="104.995982"><ele>825.8202</ele><time>2026-06-18T20:24:39.000Z</time></trkpt>
        <trkpt lat="28.462629" lon="104.995991"><ele>826.0698</ele><time>2026-06-18T20:24:41.000Z</time></trkpt>
        <trkpt lat="28.462659" lon="104.996003"><ele>826.1568</ele><time>2026-06-18T20:24:43.000Z</time></trkpt>
        <trkpt lat="28.462684" lon="104.996006"><ele>826.20984</ele><time>2026-06-18T20:24:45.000Z</time></trkpt>
        <trkpt lat="28.462704" lon="104.996002"><ele>826.3701</ele><time>2026-06-18T20:24:47.000Z</time></trkpt>
        <trkpt lat="28.46272" lon="104.995997"><ele>826.6223</ele><time>2026-06-18T20:24:49.000Z</time></trkpt>
        <trkpt lat="28.462737" lon="104.995995"><ele>827.4039</ele><time>2026-06-18T20:24:51.000Z</time></trkpt>
        <trkpt lat="28.462772" lon="104.995984"><ele>828.58374</ele><time>2026-06-18T20:24:55.000Z</time></trkpt>
        <trkpt lat="28.462789" lon="104.995974"><ele>829.6528</ele><time>2026-06-18T20:24:57.000Z</time></trkpt>
        <trkpt lat="28.462811" lon="104.995961"><ele>830.6428</ele><time>2026-06-18T20:24:59.000Z</time></trkpt>
        <trkpt lat="28.462833" lon="104.995952"><ele>831.2242</ele><time>2026-06-18T20:25:01.000Z</time></trkpt>
        <trkpt lat="28.46285" lon="104.995952"><ele>831.2242</ele><time>2026-06-18T20:25:03.000Z</time></trkpt>
        <trkpt lat="28.462867" lon="104.995956"><ele>831.2242</ele><time>2026-06-18T20:25:05.000Z</time></trkpt>
        <trkpt lat="28.462905" lon="104.995962"><ele>831.2242</ele><time>2026-06-18T20:25:09.000Z</time></trkpt>
        <trkpt lat="28.462921" lon="104.995965"><ele>831.2242</ele><time>2026-06-18T20:25:11.000Z</time></trkpt>
        <trkpt lat="28.462938" lon="104.995971"><ele>831.119</ele><time>2026-06-18T20:25:13.000Z</time></trkpt>
        <trkpt lat="28.462957" lon="104.995977"><ele>830.87036</ele><time>2026-06-18T20:25:15.000Z</time></trkpt>
        <trkpt lat="28.46298" lon="104.995984"><ele>830.5808</ele><time>2026-06-18T20:25:17.000Z</time></trkpt>
        <trkpt lat="28.463" lon="104.995989"><ele>830.298</ele><time>2026-06-18T20:25:19.000Z</time></trkpt>
        <trkpt lat="28.463031" lon="104.995993"><ele>830.08093</ele><time>2026-06-18T20:25:21.000Z</time></trkpt>
        <trkpt lat="28.46306" lon="104.995996"><ele>829.8221</ele><time>2026-06-18T20:25:23.000Z</time></trkpt>
        <trkpt lat="28.463089" lon="104.995998"><ele>829.25726</ele><time>2026-06-18T20:25:25.000Z</time></trkpt>
        <trkpt lat="28.463126" lon="104.995998"><ele>828.31885</ele><time>2026-06-18T20:25:27.000Z</time></trkpt>
        <trkpt lat="28.463162" lon="104.995997"><ele>828.31885</ele><time>2026-06-18T20:25:29.000Z</time></trkpt>
        <trkpt lat="28.463198" lon="104.995994"><ele>828.31885</ele><time>2026-06-18T20:25:31.000Z</time></trkpt>
        <trkpt lat="28.463221" lon="104.995994"><ele>828.31885</ele><time>2026-06-18T20:25:33.000Z</time></trkpt>
        <trkpt lat="28.463246" lon="104.995993"><ele>828.31885</ele><time>2026-06-18T20:25:35.000Z</time></trkpt>
        <trkpt lat="28.463264" lon="104.995993"><ele>828.42786</ele><time>2026-06-18T20:25:37.000Z</time></trkpt>
        <trkpt lat="28.46329" lon="104.995996"><ele>829.4213</ele><time>2026-06-18T20:25:41.000Z</time></trkpt>
        <trkpt lat="28.463302" lon="104.996003"><ele>830.5141</ele><time>2026-06-18T20:25:43.000Z</time></trkpt>
        <trkpt lat="28.463315" lon="104.996006"><ele>831.56726</ele><time>2026-06-18T20:25:45.000Z</time></trkpt>
        <trkpt lat="28.463355" lon="104.99601"><ele>832.04364</ele><time>2026-06-18T20:25:49.000Z</time></trkpt>
        <trkpt lat="28.463373" lon="104.996007"><ele>833.0978</ele><time>2026-06-18T20:25:51.000Z</time></trkpt>
        <trkpt lat="28.463388" lon="104.996002"><ele>834.4749</ele><time>2026-06-18T20:25:53.000Z</time></trkpt>
        <trkpt lat="28.463409" lon="104.996002"><ele>835.1366</ele><time>2026-06-18T20:25:55.000Z</time></trkpt>
        <trkpt lat="28.46343" lon="104.996009"><ele>836.4134</ele><time>2026-06-18T20:25:59.000Z</time></trkpt>
        <trkpt lat="28.463454" lon="104.996022"><ele>837.7206</ele><time>2026-06-18T20:26:01.000Z</time></trkpt>
        <trkpt lat="28.463475" lon="104.996038"><ele>838.41235</ele><time>2026-06-18T20:26:03.000Z</time></trkpt>
        <trkpt lat="28.463499" lon="104.996057"><ele>838.83575</ele><time>2026-06-18T20:26:05.000Z</time></trkpt>
        <trkpt lat="28.463515" lon="104.996072"><ele>838.94653</ele><time>2026-06-18T20:26:07.000Z</time></trkpt>
        <trkpt lat="28.46353" lon="104.996088"><ele>839.2365</ele><time>2026-06-18T20:26:09.000Z</time></trkpt>
        <trkpt lat="28.463552" lon="104.996105"><ele>839.4639</ele><time>2026-06-18T20:26:11.000Z</time></trkpt>
        <trkpt lat="28.463584" lon="104.996128"><ele>839.74744</ele><time>2026-06-18T20:26:13.000Z</time></trkpt>
        <trkpt lat="28.463613" lon="104.996148"><ele>840.3401</ele><time>2026-06-18T20:26:15.000Z</time></trkpt>
        <trkpt lat="28.463644" lon="104.996171"><ele>840.95746</ele><time>2026-06-18T20:26:17.000Z</time></trkpt>
        <trkpt lat="28.463668" lon="104.996192"><ele>841.71185</ele><time>2026-06-18T20:26:19.000Z</time></trkpt>
        <trkpt lat="28.463676" lon="104.996205"><ele>842.28796</ele><time>2026-06-18T20:26:21.000Z</time></trkpt>
        <trkpt lat="28.463692" lon="104.996209"><ele>842.59924</ele><time>2026-06-18T20:26:23.000Z</time></trkpt>
        <trkpt lat="28.463721" lon="104.996219"><ele>843.2132</ele><time>2026-06-18T20:26:27.000Z</time></trkpt>
        <trkpt lat="28.463732" lon="104.996226"><ele>843.994</ele><time>2026-06-18T20:26:29.000Z</time></trkpt>
        <trkpt lat="28.463746" lon="104.996238"><ele>844.74664</ele><time>2026-06-18T20:26:31.000Z</time></trkpt>
        <trkpt lat="28.463784" lon="104.99626"><ele>845.3443</ele><time>2026-06-18T20:26:35.000Z</time></trkpt>
        <trkpt lat="28.463808" lon="104.99627"><ele>845.73303</ele><time>2026-06-18T20:26:37.000Z</time></trkpt>
        <trkpt lat="28.46383" lon="104.996277"><ele>845.8887</ele><time>2026-06-18T20:26:39.000Z</time></trkpt>
        <trkpt lat="28.463856" lon="104.996284"><ele>845.9876</ele><time>2026-06-18T20:26:41.000Z</time></trkpt>
        <trkpt lat="28.463882" lon="104.996296"><ele>845.9876</ele><time>2026-06-18T20:26:43.000Z</time></trkpt>
        <trkpt lat="28.463905" lon="104.996311"><ele>845.9876</ele><time>2026-06-18T20:26:45.000Z</time></trkpt>
        <trkpt lat="28.463927" lon="104.996326"><ele>846.0906</ele><time>2026-06-18T20:26:47.000Z</time></trkpt>
        <trkpt lat="28.463947" lon="104.996341"><ele>846.0344</ele><time>2026-06-18T20:26:49.000Z</time></trkpt>
        <trkpt lat="28.463961" lon="104.996351"><ele>846.0344</ele><time>2026-06-18T20:26:51.000Z</time></trkpt>
        <trkpt lat="28.463979" lon="104.996367"><ele>845.9837</ele><time>2026-06-18T20:26:53.000Z</time></trkpt>
        <trkpt lat="28.464004" lon="104.996393"><ele>845.9837</ele><time>2026-06-18T20:26:55.000Z</time></trkpt>
        <trkpt lat="28.464025" lon="104.996409"><ele>846.0756</ele><time>2026-06-18T20:26:57.000Z</time></trkpt>
        <trkpt lat="28.464026" lon="104.996408"><ele>846.14136</ele><time>2026-06-18T20:26:59.000Z</time></trkpt>
        <trkpt lat="28.463988" lon="104.996456"><ele>846.14136</ele><time>2026-06-18T20:27:09.000Z</time></trkpt>
        <trkpt lat="28.463983" lon="104.996474"><ele>846.17737</ele><time>2026-06-18T20:27:11.000Z</time></trkpt>
        <trkpt lat="28.463982" lon="104.996491"><ele>846.31396</ele><time>2026-06-18T20:27:13.000Z</time></trkpt>
        <trkpt lat="28.463984" lon="104.996515"><ele>846.60333</ele><time>2026-06-18T20:27:15.000Z</time></trkpt>
        <trkpt lat="28.463984" lon="104.996532"><ele>846.85565</ele><time>2026-06-18T20:27:17.000Z</time></trkpt>
        <trkpt lat="28.463984" lon="104.996582"><ele>846.995</ele><time>2026-06-18T20:27:21.000Z</time></trkpt>
        <trkpt lat="28.463982" lon="104.99661"><ele>847.2664</ele><time>2026-06-18T20:27:23.000Z</time></trkpt>
        <trkpt lat="28.46398" lon="104.996634"><ele>847.8078</ele><time>2026-06-18T20:27:25.000Z</time></trkpt>
        <trkpt lat="28.463977" lon="104.996655"><ele>848.2022</ele><time>2026-06-18T20:27:27.000Z</time></trkpt>
        <trkpt lat="28.463975" lon="104.996695"><ele>849.01825</ele><time>2026-06-18T20:27:29.000Z</time></trkpt>
        <trkpt lat="28.463972" lon="104.996735"><ele>850.2739</ele><time>2026-06-18T20:27:31.000Z</time></trkpt>
        <trkpt lat="28.463973" lon="104.996761"><ele>851.22034</ele><time>2026-06-18T20:27:33.000Z</time></trkpt>
        <trkpt lat="28.463976" lon="104.996763"><ele>852.0507</ele><time>2026-06-18T20:27:35.000Z</time></trkpt>
        <trkpt lat="28.464006" lon="104.996785"><ele>852.5748</ele><time>2026-06-18T20:27:41.000Z</time></trkpt>
        <trkpt lat="28.464018" lon="104.996794"><ele>853.19446</ele><time>2026-06-18T20:27:45.000Z</time></trkpt>
        <trkpt lat="28.464023" lon="104.996796"><ele>854.0747</ele><time>2026-06-18T20:27:47.000Z</time></trkpt>
        <trkpt lat="28.46407" lon="104.996812"><ele>854.7754</ele><time>2026-06-18T20:27:51.000Z</time></trkpt>
        <trkpt lat="28.464097" lon="104.99682"><ele>855.3851</ele><time>2026-06-18T20:27:53.000Z</time></trkpt>
        <trkpt lat="28.464118" lon="104.996826"><ele>855.81757</ele><time>2026-06-18T20:27:55.000Z</time></trkpt>
        <trkpt lat="28.464126" lon="104.99696"><ele>855.98065</ele><time>2026-06-18T20:28:29.000Z</time></trkpt>
        <trkpt lat="28.464126" lon="104.99696"><ele>856.17065</ele><time>2026-06-18T20:28:31.000Z</time></trkpt>
        <trkpt lat="28.464127" lon="104.996961"><ele>856.34546</ele><time>2026-06-18T20:28:33.000Z</time></trkpt>
        <trkpt lat="28.46407" lon="104.996901"><ele>856.3912</ele><time>2026-06-18T20:29:13.000Z</time></trkpt>
        <trkpt lat="28.464047" lon="104.996877"><ele>857.058</ele><time>2026-06-18T20:29:19.000Z</time></trkpt>
        <trkpt lat="28.464047" lon="104.996877"><ele>857.70703</ele><time>2026-06-18T20:29:21.000Z</time></trkpt>
        <trkpt lat="28.464062" lon="104.996983"><ele>857.729</ele><time>2026-06-18T20:29:54.000Z</time></trkpt>
        <trkpt lat="28.464043" lon="104.996984"><ele>857.8976</ele><time>2026-06-18T20:30:00.000Z</time></trkpt>
        <trkpt lat="28.464043" lon="104.996984"><ele>858.0447</ele><time>2026-06-18T20:30:02.000Z</time></trkpt>
        <trkpt lat="28.46398" lon="104.99689"><ele>858.1426</ele><time>2026-06-18T20:30:17.000Z</time></trkpt>
        <trkpt lat="28.463989" lon="104.99685"><ele>858.47955</ele><time>2026-06-18T20:30:23.000Z</time></trkpt>
        <trkpt lat="28.464046" lon="104.996596"><ele>858.47955</ele><time>2026-06-18T20:30:33.000Z</time></trkpt>
        <trkpt lat="28.464046" lon="104.996596"><ele>858.47955</ele><time>2026-06-18T20:30:35.000Z</time></trkpt>
        <trkpt lat="28.464045" lon="104.996598"><ele>858.38165</ele><time>2026-06-18T20:30:37.000Z</time></trkpt>
        <trkpt lat="28.464074" lon="104.996547"><ele>858.38165</ele><time>2026-06-18T20:30:53.000Z</time></trkpt>
        <trkpt lat="28.464079" lon="104.996632"><ele>855.95465</ele><time>2026-06-18T20:31:33.000Z</time></trkpt>
        <trkpt lat="28.464008" lon="104.996749"><ele>853.3083</ele><time>2026-06-18T20:31:35.000Z</time></trkpt>
        <trkpt lat="28.464006" lon="104.9968"><ele>853.3083</ele><time>2026-06-18T20:31:42.000Z</time></trkpt>
        <trkpt lat="28.46401" lon="104.996832"><ele>853.3083</ele><time>2026-06-18T20:31:44.000Z</time></trkpt>
        <trkpt lat="28.464017" lon="104.996854"><ele>853.3083</ele><time>2026-06-18T20:31:46.000Z</time></trkpt>
        <trkpt lat="28.464025" lon="104.996866"><ele>853.3083</ele><time>2026-06-18T20:31:48.000Z</time></trkpt>
        <trkpt lat="28.464168" lon="104.997067"><ele>853.3083</ele><time>2026-06-18T20:32:42.000Z</time></trkpt>
        <trkpt lat="28.464084" lon="104.996541"><ele>853.3083</ele><time>2026-06-18T20:32:26.000Z</time></trkpt>
        <trkpt lat="28.464048" lon="104.996584"><ele>853.3083</ele><time>2026-06-18T20:33:12.000Z</time></trkpt>
        <trkpt lat="28.464066" lon="104.996563"><ele>853.3083</ele><time>2026-06-18T20:33:18.000Z</time></trkpt>
        <trkpt lat="28.464024" lon="104.996724"><ele>854.3015</ele><time>2026-06-18T20:33:45.000Z</time></trkpt>
        <trkpt lat="28.464131" lon="104.996731"><ele>854.7615</ele><time>2026-06-18T20:42:13.000Z</time></trkpt>
        <trkpt lat="28.464136" lon="104.996731"><ele>854.29755</ele><time>2026-06-18T20:42:28.000Z</time></trkpt>
        <trkpt lat="28.464135" lon="104.996732"><ele>854.2107</ele><time>2026-06-18T20:42:43.000Z</time></trkpt>
        <trkpt lat="28.464043" lon="104.996747"><ele>853.9853</ele><time>2026-06-18T20:43:29.000Z</time></trkpt>
        <trkpt lat="28.464023" lon="104.99684"><ele>853.9853</ele><time>2026-06-18T20:43:35.000Z</time></trkpt>
        <trkpt lat="28.46401" lon="104.996897"><ele>854.2107</ele><time>2026-06-18T20:43:39.000Z</time></trkpt>
        <trkpt lat="28.46401" lon="104.996897"><ele>854.29755</ele><time>2026-06-18T20:43:41.000Z</time></trkpt>
        <trkpt lat="28.464066" lon="104.996909"><ele>854.8706</ele><time>2026-06-18T20:44:02.000Z</time></trkpt>
        <trkpt lat="28.464023" lon="104.996824"><ele>855.6882</ele><time>2026-06-18T20:44:20.000Z</time></trkpt>
        <trkpt lat="28.464023" lon="104.996824"><ele>856.1974</ele><time>2026-06-18T20:44:22.000Z</time></trkpt>
        <trkpt lat="28.464003" lon="104.99682"><ele>856.2979</ele><time>2026-06-18T20:44:25.000Z</time></trkpt>
        <trkpt lat="28.464" lon="104.996769"><ele>856.2979</ele><time>2026-06-18T20:44:33.000Z</time></trkpt>
        <trkpt lat="28.464001" lon="104.996728"><ele>856.2979</ele><time>2026-06-18T20:44:35.000Z</time></trkpt>
        <trkpt lat="28.464005" lon="104.996689"><ele>856.2979</ele><time>2026-06-18T20:44:37.000Z</time></trkpt>
        <trkpt lat="28.464011" lon="104.996661"><ele>856.2979</ele><time>2026-06-18T20:44:39.000Z</time></trkpt>
        <trkpt lat="28.464017" lon="104.99664"><ele>855.8315</ele><time>2026-06-18T20:44:41.000Z</time></trkpt>
        <trkpt lat="28.464022" lon="104.996618"><ele>855.24976</ele><time>2026-06-18T20:44:43.000Z</time></trkpt>
        <trkpt lat="28.464027" lon="104.996596"><ele>854.7603</ele><time>2026-06-18T20:44:45.000Z</time></trkpt>
        <trkpt lat="28.464066" lon="104.99662"><ele>854.34906</ele><time>2026-06-18T20:44:51.000Z</time></trkpt>
        <trkpt lat="28.464076" lon="104.996629"><ele>853.81085</ele><time>2026-06-18T20:44:53.000Z</time></trkpt>
        <trkpt lat="28.464076" lon="104.996636"><ele>853.3364</ele><time>2026-06-18T20:44:55.000Z</time></trkpt>
        <trkpt lat="28.464082" lon="104.996731"><ele>853.3364</ele><time>2026-06-18T20:47:47.000Z</time></trkpt>
        <trkpt lat="28.463962" lon="104.996716"><ele>853.1026</ele><time>2026-06-18T20:48:29.000Z</time></trkpt>
        <trkpt lat="28.463986" lon="104.996707"><ele>853.05945</ele><time>2026-06-18T20:49:02.000Z</time></trkpt>
        <trkpt lat="28.464149" lon="104.996644"><ele>852.9453</ele><time>2026-06-18T20:53:27.000Z</time></trkpt>
        <trkpt lat="28.464179" lon="104.996632"><ele>852.72943</ele><time>2026-06-18T20:53:29.000Z</time></trkpt>
        <trkpt lat="28.46418" lon="104.996631"><ele>852.4633</ele><time>2026-06-18T20:53:31.000Z</time></trkpt>
        <trkpt lat="28.464114" lon="104.996733"><ele>852.4633</ele><time>2026-06-18T21:01:26.000Z</time></trkpt>
        <trkpt lat="28.463998" lon="104.996761"><ele>852.74207</ele><time>2026-06-18T21:16:55.000Z</time></trkpt>
        <trkpt lat="28.463967" lon="104.996769"><ele>852.91895</ele><time>2026-06-18T21:16:57.000Z</time></trkpt>
        <trkpt lat="28.463965" lon="104.99677"><ele>852.91895</ele><time>2026-06-18T21:16:59.000Z</time></trkpt>
        <trkpt lat="28.464129" lon="104.996697"><ele>852.91895</ele><time>2026-06-18T21:19:22.000Z</time></trkpt>
        <trkpt lat="28.464128" lon="104.996698"><ele>852.9224</ele><time>2026-06-18T21:19:26.000Z</time></trkpt>
        <trkpt lat="28.464128" lon="104.996698"><ele>852.9224</ele><time>2026-06-18T21:19:28.000Z</time></trkpt>
        <trkpt lat="28.464048" lon="104.996795"><ele>853.0243</ele><time>2026-06-18T21:27:56.000Z</time></trkpt>
        <trkpt lat="28.463972" lon="104.996785"><ele>853.1031</ele><time>2026-06-18T21:27:58.000Z</time></trkpt>
        <trkpt lat="28.463955" lon="104.996735"><ele>853.1851</ele><time>2026-06-18T21:28:00.000Z</time></trkpt>
        <trkpt lat="28.463897" lon="104.996727"><ele>853.2478</ele><time>2026-06-18T21:28:05.000Z</time></trkpt>
        <trkpt lat="28.463897" lon="104.996727"><ele>854.0276</ele><time>2026-06-18T21:28:07.000Z</time></trkpt>
        <trkpt lat="28.463902" lon="104.996651"><ele>854.1762</ele><time>2026-06-18T21:28:15.000Z</time></trkpt>
        <trkpt lat="28.463908" lon="104.99661"><ele>854.1762</ele><time>2026-06-18T21:28:17.000Z</time></trkpt>
        <trkpt lat="28.463915" lon="104.996568"><ele>854.1762</ele><time>2026-06-18T21:28:19.000Z</time></trkpt>
        <trkpt lat="28.463923" lon="104.996532"><ele>854.1762</ele><time>2026-06-18T21:28:21.000Z</time></trkpt>
        <trkpt lat="28.463922" lon="104.996507"><ele>854.1762</ele><time>2026-06-18T21:28:23.000Z</time></trkpt>
        <trkpt lat="28.463925" lon="104.996505"><ele>853.17566</ele><time>2026-06-18T21:28:25.000Z</time></trkpt>
        <trkpt lat="28.463992" lon="104.996464"><ele>852.4269</ele><time>2026-06-18T21:28:48.000Z</time></trkpt>
        <trkpt lat="28.463992" lon="104.996464"><ele>851.57886</ele><time>2026-06-18T21:28:50.000Z</time></trkpt>
        <trkpt lat="28.463992" lon="104.996463"><ele>850.7748</ele><time>2026-06-18T21:28:52.000Z</time></trkpt>
        <trkpt lat="28.464003" lon="104.996397"><ele>850.0452</ele><time>2026-06-18T21:28:55.000Z</time></trkpt>
        <trkpt lat="28.464003" lon="104.996397"><ele>848.9779</ele><time>2026-06-18T21:28:57.000Z</time></trkpt>
        <trkpt lat="28.464003" lon="104.996394"><ele>848.3039</ele><time>2026-06-18T21:28:59.000Z</time></trkpt>
        <trkpt lat="28.464008" lon="104.99634"><ele>848.2801</ele><time>2026-06-18T21:29:05.000Z</time></trkpt>
        <trkpt lat="28.464016" lon="104.996317"><ele>847.5348</ele><time>2026-06-18T21:29:07.000Z</time></trkpt>
        <trkpt lat="28.464028" lon="104.996301"><ele>846.81226</ele><time>2026-06-18T21:29:09.000Z</time></trkpt>
        <trkpt lat="28.46404" lon="104.996296"><ele>846.7898</ele><time>2026-06-18T21:29:11.000Z</time></trkpt>
        <trkpt lat="28.464055" lon="104.996298"><ele>846.3203</ele><time>2026-06-18T21:29:13.000Z</time></trkpt>
        <trkpt lat="28.464084" lon="104.996303"><ele>845.8474</ele><time>2026-06-18T21:29:17.000Z</time></trkpt>
        <trkpt lat="28.464089" lon="104.996303"><ele>845.81726</ele><time>2026-06-18T21:29:19.000Z</time></trkpt>
        <trkpt lat="28.464104" lon="104.996308"><ele>845.7479</ele><time>2026-06-18T21:29:23.000Z</time></trkpt>
        <trkpt lat="28.464146" lon="104.99632"><ele>845.6163</ele><time>2026-06-18T21:29:27.000Z</time></trkpt>
        <trkpt lat="28.46417" lon="104.996327"><ele>845.4592</ele><time>2026-06-18T21:29:29.000Z</time></trkpt>
        <trkpt lat="28.464196" lon="104.996334"><ele>845.29877</ele><time>2026-06-18T21:29:31.000Z</time></trkpt>
        <trkpt lat="28.464216" lon="104.996337"><ele>845.29877</ele><time>2026-06-18T21:29:33.000Z</time></trkpt>
        <trkpt lat="28.464239" lon="104.99634"><ele>845.29877</ele><time>2026-06-18T21:29:35.000Z</time></trkpt>
        <trkpt lat="28.464258" lon="104.99634"><ele>845.29877</ele><time>2026-06-18T21:29:37.000Z</time></trkpt>
        <trkpt lat="28.464269" lon="104.996338"><ele>845.29877</ele><time>2026-06-18T21:29:39.000Z</time></trkpt>
        <trkpt lat="28.464308" lon="104.996337"><ele>845.4875</ele><time>2026-06-18T21:29:43.000Z</time></trkpt>
        <trkpt lat="28.464322" lon="104.996334"><ele>845.8492</ele><time>2026-06-18T21:29:45.000Z</time></trkpt>
        <trkpt lat="28.464338" lon="104.996331"><ele>845.9882</ele><time>2026-06-18T21:29:47.000Z</time></trkpt>
        <trkpt lat="28.464368" lon="104.996328"><ele>846.2113</ele><time>2026-06-18T21:29:51.000Z</time></trkpt>
        <trkpt lat="28.46439" lon="104.99633"><ele>847.3067</ele><time>2026-06-18T21:29:53.000Z</time></trkpt>
        <trkpt lat="28.464409" lon="104.996337"><ele>848.5353</ele><time>2026-06-18T21:29:55.000Z</time></trkpt>
        <trkpt lat="28.464424" lon="104.996336"><ele>849.12555</ele><time>2026-06-18T21:29:57.000Z</time></trkpt>
        <trkpt lat="28.464443" lon="104.99633"><ele>849.62115</ele><time>2026-06-18T21:29:59.000Z</time></trkpt>
        <trkpt lat="28.464458" lon="104.99633"><ele>850.1511</ele><time>2026-06-18T21:30:01.000Z</time></trkpt>
        <trkpt lat="28.464492" lon="104.996337"><ele>850.6869</ele><time>2026-06-18T21:30:05.000Z</time></trkpt>
        <trkpt lat="28.464513" lon="104.996347"><ele>851.3106</ele><time>2026-06-18T21:30:07.000Z</time></trkpt>
        <trkpt lat="28.464538" lon="104.996359"><ele>851.9719</ele><time>2026-06-18T21:30:09.000Z</time></trkpt>
        <trkpt lat="28.464565" lon="104.99637"><ele>852.44885</ele><time>2026-06-18T21:30:11.000Z</time></trkpt>
        <trkpt lat="28.464588" lon="104.996381"><ele>852.5093</ele><time>2026-06-18T21:30:13.000Z</time></trkpt>
        <trkpt lat="28.464607" lon="104.996392"><ele>852.5093</ele><time>2026-06-18T21:30:15.000Z</time></trkpt>
        <trkpt lat="28.464632" lon="104.996409"><ele>852.5093</ele><time>2026-06-18T21:30:17.000Z</time></trkpt>
        <trkpt lat="28.464655" lon="104.996429"><ele>852.5093</ele><time>2026-06-18T21:30:19.000Z</time></trkpt>
        <trkpt lat="28.46468" lon="104.996454"><ele>852.5093</ele><time>2026-06-18T21:30:21.000Z</time></trkpt>
        <trkpt lat="28.464705" lon="104.996478"><ele>852.1128</ele><time>2026-06-18T21:30:23.000Z</time></trkpt>
        <trkpt lat="28.464733" lon="104.996503"><ele>851.5119</ele><time>2026-06-18T21:30:25.000Z</time></trkpt>
        <trkpt lat="28.464757" lon="104.996525"><ele>851.0643</ele><time>2026-06-18T21:30:27.000Z</time></trkpt>
        <trkpt lat="28.464776" lon="104.996546"><ele>850.7104</ele><time>2026-06-18T21:30:29.000Z</time></trkpt>
        <trkpt lat="28.464792" lon="104.996567"><ele>850.36804</ele><time>2026-06-18T21:30:31.000Z</time></trkpt>
        <trkpt lat="28.464808" lon="104.996587"><ele>850.1136</ele><time>2026-06-18T21:30:33.000Z</time></trkpt>
        <trkpt lat="28.464819" lon="104.996603"><ele>849.79333</ele><time>2026-06-18T21:30:35.000Z</time></trkpt>
        <trkpt lat="28.464832" lon="104.996621"><ele>849.5892</ele><time>2026-06-18T21:30:37.000Z</time></trkpt>
        <trkpt lat="28.464847" lon="104.996637"><ele>849.5892</ele><time>2026-06-18T21:30:39.000Z</time></trkpt>
        <trkpt lat="28.464859" lon="104.996647"><ele>849.5337</ele><time>2026-06-18T21:30:41.000Z</time></trkpt>
        <trkpt lat="28.464886" lon="104.996665"><ele>849.5337</ele><time>2026-06-18T21:30:45.000Z</time></trkpt>
        <trkpt lat="28.4649" lon="104.996676"><ele>849.46326</ele><time>2026-06-18T21:30:47.000Z</time></trkpt>
        <trkpt lat="28.464918" lon="104.996692"><ele>849.3733</ele><time>2026-06-18T21:30:49.000Z</time></trkpt>
        <trkpt lat="28.464935" lon="104.996712"><ele>849.3733</ele><time>2026-06-18T21:30:51.000Z</time></trkpt>
        <trkpt lat="28.46495" lon="104.996733"><ele>849.3733</ele><time>2026-06-18T21:30:53.000Z</time></trkpt>
        <trkpt lat="28.464965" lon="104.996753"><ele>849.2982</ele><time>2026-06-18T21:30:55.000Z</time></trkpt>
        <trkpt lat="28.464982" lon="104.996771"><ele>849.1357</ele><time>2026-06-18T21:30:57.000Z</time></trkpt>
        <trkpt lat="28.464999" lon="104.996787"><ele>848.8164</ele><time>2026-06-18T21:30:59.000Z</time></trkpt>
        <trkpt lat="28.465019" lon="104.996802"><ele>848.59875</ele><time>2026-06-18T21:31:01.000Z</time></trkpt>
        <trkpt lat="28.46504" lon="104.996816"><ele>848.59076</ele><time>2026-06-18T21:31:03.000Z</time></trkpt>
        <trkpt lat="28.465058" lon="104.99683"><ele>848.5754</ele><time>2026-06-18T21:31:05.000Z</time></trkpt>
        <trkpt lat="28.465073" lon="104.996844"><ele>848.4414</ele><time>2026-06-18T21:31:07.000Z</time></trkpt>
        <trkpt lat="28.465085" lon="104.99686"><ele>848.2941</ele><time>2026-06-18T21:31:09.000Z</time></trkpt>
        <trkpt lat="28.465103" lon="104.99688"><ele>848.26245</ele><time>2026-06-18T21:31:11.000Z</time></trkpt>
        <trkpt lat="28.465119" lon="104.996899"><ele>848.26245</ele><time>2026-06-18T21:31:13.000Z</time></trkpt>
        <trkpt lat="28.465133" lon="104.996914"><ele>848.2893</ele><time>2026-06-18T21:31:15.000Z</time></trkpt>
        <trkpt lat="28.46515" lon="104.996932"><ele>848.2893</ele><time>2026-06-18T21:31:17.000Z</time></trkpt>
        <trkpt lat="28.465163" lon="104.996945"><ele>848.21356</ele><time>2026-06-18T21:31:19.000Z</time></trkpt>
        <trkpt lat="28.465179" lon="104.996958"><ele>848.24524</ele><time>2026-06-18T21:31:21.000Z</time></trkpt>
        <trkpt lat="28.465196" lon="104.996966"><ele>848.2814</ele><time>2026-06-18T21:31:23.000Z</time></trkpt>
        <trkpt lat="28.465211" lon="104.996974"><ele>848.4089</ele><time>2026-06-18T21:31:25.000Z</time></trkpt>
        <trkpt lat="28.465225" lon="104.99698"><ele>848.52185</ele><time>2026-06-18T21:31:27.000Z</time></trkpt>
        <trkpt lat="28.465245" lon="104.996994"><ele>848.69135</ele><time>2026-06-18T21:31:31.000Z</time></trkpt>
        <trkpt lat="28.465254" lon="104.997003"><ele>848.8459</ele><time>2026-06-18T21:31:33.000Z</time></trkpt>
        <trkpt lat="28.465271" lon="104.997021"><ele>849.08484</ele><time>2026-06-18T21:31:35.000Z</time></trkpt>
        <trkpt lat="28.46529" lon="104.997042"><ele>849.2908</ele><time>2026-06-18T21:31:37.000Z</time></trkpt>
        <trkpt lat="28.465307" lon="104.997062"><ele>849.3497</ele><time>2026-06-18T21:31:39.000Z</time></trkpt>
        <trkpt lat="28.465323" lon="104.997079"><ele>849.58673</ele><time>2026-06-18T21:31:41.000Z</time></trkpt>
        <trkpt lat="28.46534" lon="104.997099"><ele>849.86676</ele><time>2026-06-18T21:31:43.000Z</time></trkpt>
        <trkpt lat="28.465356" lon="104.997122"><ele>850.1889</ele><time>2026-06-18T21:31:45.000Z</time></trkpt>
        <trkpt lat="28.465369" lon="104.997144"><ele>850.67755</ele><time>2026-06-18T21:31:47.000Z</time></trkpt>
        <trkpt lat="28.465378" lon="104.997166"><ele>851.177</ele><time>2026-06-18T21:31:49.000Z</time></trkpt>
        <trkpt lat="28.465386" lon="104.997188"><ele>851.7212</ele><time>2026-06-18T21:31:51.000Z</time></trkpt>
        <trkpt lat="28.465395" lon="104.997211"><ele>852.20526</ele><time>2026-06-18T21:31:53.000Z</time></trkpt>
        <trkpt lat="28.465405" lon="104.997228"><ele>852.80273</ele><time>2026-06-18T21:31:55.000Z</time></trkpt>
        <trkpt lat="28.465416" lon="104.997239"><ele>853.4363</ele><time>2026-06-18T21:31:57.000Z</time></trkpt>
        <trkpt lat="28.465431" lon="104.997249"><ele>853.7406</ele><time>2026-06-18T21:31:59.000Z</time></trkpt>
        <trkpt lat="28.465451" lon="104.997262"><ele>854.0089</ele><time>2026-06-18T21:32:01.000Z</time></trkpt>
        <trkpt lat="28.465464" lon="104.997269"><ele>854.0089</ele><time>2026-06-18T21:32:03.000Z</time></trkpt>
        <trkpt lat="28.465479" lon="104.997278"><ele>854.0089</ele><time>2026-06-18T21:32:05.000Z</time></trkpt>
        <trkpt lat="28.465505" lon="104.997296"><ele>854.0089</ele><time>2026-06-18T21:32:09.000Z</time></trkpt>
        <trkpt lat="28.46552" lon="104.99731"><ele>854.0267</ele><time>2026-06-18T21:32:11.000Z</time></trkpt>
        <trkpt lat="28.465532" lon="104.997327"><ele>854.0821</ele><time>2026-06-18T21:32:13.000Z</time></trkpt>
        <trkpt lat="28.465542" lon="104.997351"><ele>853.9928</ele><time>2026-06-18T21:32:15.000Z</time></trkpt>
        <trkpt lat="28.465552" lon="104.997377"><ele>853.9928</ele><time>2026-06-18T21:32:17.000Z</time></trkpt>
        <trkpt lat="28.46556" lon="104.997405"><ele>853.87946</ele><time>2026-06-18T21:32:19.000Z</time></trkpt>
        <trkpt lat="28.465562" lon="104.997427"><ele>853.7036</ele><time>2026-06-18T21:32:21.000Z</time></trkpt>
        <trkpt lat="28.465564" lon="104.997454"><ele>853.5355</ele><time>2026-06-18T21:32:23.000Z</time></trkpt>
        <trkpt lat="28.465565" lon="104.997476"><ele>853.5355</ele><time>2026-06-18T21:32:25.000Z</time></trkpt>
        <trkpt lat="28.465567" lon="104.997493"><ele>853.5355</ele><time>2026-06-18T21:32:27.000Z</time></trkpt>
        <trkpt lat="28.465574" lon="104.997516"><ele>853.20355</ele><time>2026-06-18T21:32:29.000Z</time></trkpt>
        <trkpt lat="28.465588" lon="104.997558"><ele>853.1901</ele><time>2026-06-18T21:32:33.000Z</time></trkpt>
        <trkpt lat="28.465596" lon="104.997577"><ele>853.1901</ele><time>2026-06-18T21:32:35.000Z</time></trkpt>
        <trkpt lat="28.465602" lon="104.997599"><ele>853.1901</ele><time>2026-06-18T21:32:37.000Z</time></trkpt>
        <trkpt lat="28.465608" lon="104.997623"><ele>853.1349</ele><time>2026-06-18T21:32:39.000Z</time></trkpt>
        <trkpt lat="28.465614" lon="104.997648"><ele>853.032</ele><time>2026-06-18T21:32:41.000Z</time></trkpt>
        <trkpt lat="28.465622" lon="104.997663"><ele>853.032</ele><time>2026-06-18T21:32:45.000Z</time></trkpt>
        <trkpt lat="28.465631" lon="104.997682"><ele>853.032</ele><time>2026-06-18T21:32:49.000Z</time></trkpt>
        <trkpt lat="28.46565" lon="104.997721"><ele>853.032</ele><time>2026-06-18T21:32:53.000Z</time></trkpt>
        <trkpt lat="28.465659" lon="104.997739"><ele>853.032</ele><time>2026-06-18T21:32:55.000Z</time></trkpt>
        <trkpt lat="28.465669" lon="104.997761"><ele>852.999</ele><time>2026-06-18T21:32:57.000Z</time></trkpt>
        <trkpt lat="28.465675" lon="104.997781"><ele>852.6927</ele><time>2026-06-18T21:32:59.000Z</time></trkpt>
        <trkpt lat="28.465683" lon="104.997801"><ele>852.67664</ele><time>2026-06-18T21:33:01.000Z</time></trkpt>
        <trkpt lat="28.465694" lon="104.997819"><ele>852.67664</ele><time>2026-06-18T21:33:03.000Z</time></trkpt>
        <trkpt lat="28.465713" lon="104.997844"><ele>852.67664</ele><time>2026-06-18T21:33:05.000Z</time></trkpt>
        <trkpt lat="28.465734" lon="104.997868"><ele>852.67664</ele><time>2026-06-18T21:33:07.000Z</time></trkpt>
        <trkpt lat="28.465755" lon="104.997889"><ele>852.67664</ele><time>2026-06-18T21:33:09.000Z</time></trkpt>
        <trkpt lat="28.465767" lon="104.997906"><ele>853.2425</ele><time>2026-06-18T21:33:11.000Z</time></trkpt>
        <trkpt lat="28.465779" lon="104.997924"><ele>853.2425</ele><time>2026-06-18T21:33:13.000Z</time></trkpt>
        <trkpt lat="28.465794" lon="104.997938"><ele>853.2425</ele><time>2026-06-18T21:33:15.000Z</time></trkpt>
        <trkpt lat="28.465813" lon="104.997949"><ele>853.3872</ele><time>2026-06-18T21:33:17.000Z</time></trkpt>
        <trkpt lat="28.465828" lon="104.997956"><ele>853.41064</ele><time>2026-06-18T21:33:19.000Z</time></trkpt>
        <trkpt lat="28.46584" lon="104.997961"><ele>853.41064</ele><time>2026-06-18T21:33:21.000Z</time></trkpt>
        <trkpt lat="28.465863" lon="104.997968"><ele>853.41064</ele><time>2026-06-18T21:33:25.000Z</time></trkpt>
        <trkpt lat="28.465874" lon="104.997973"><ele>853.41064</ele><time>2026-06-18T21:33:27.000Z</time></trkpt>
        <trkpt lat="28.465892" lon="104.99798"><ele>853.41064</ele><time>2026-06-18T21:33:29.000Z</time></trkpt>
        <trkpt lat="28.46591" lon="104.997989"><ele>853.41064</ele><time>2026-06-18T21:33:31.000Z</time></trkpt>
        <trkpt lat="28.465932" lon="104.997995"><ele>853.5811</ele><time>2026-06-18T21:33:33.000Z</time></trkpt>
        <trkpt lat="28.46596" lon="104.998002"><ele>854.023</ele><time>2026-06-18T21:33:35.000Z</time></trkpt>
        <trkpt lat="28.465982" lon="104.998005"><ele>854.07336</ele><time>2026-06-18T21:33:37.000Z</time></trkpt>
        <trkpt lat="28.466009" lon="104.99801"><ele>854.16565</ele><time>2026-06-18T21:33:39.000Z</time></trkpt>
        <trkpt lat="28.466032" lon="104.998015"><ele>854.27985</ele><time>2026-06-18T21:33:41.000Z</time></trkpt>
        <trkpt lat="28.466049" lon="104.998021"><ele>854.69006</ele><time>2026-06-18T21:33:43.000Z</time></trkpt>
        <trkpt lat="28.46607" lon="104.998026"><ele>855.2487</ele><time>2026-06-18T21:33:45.000Z</time></trkpt>
        <trkpt lat="28.466094" lon="104.998035"><ele>855.48016</ele><time>2026-06-18T21:33:47.000Z</time></trkpt>
        <trkpt lat="28.466114" lon="104.998044"><ele>855.7746</ele><time>2026-06-18T21:33:49.000Z</time></trkpt>
        <trkpt lat="28.466133" lon="104.998051"><ele>856.30444</ele><time>2026-06-18T21:33:51.000Z</time></trkpt>
        <trkpt lat="28.466141" lon="104.998048"><ele>856.7759</ele><time>2026-06-18T21:33:53.000Z</time></trkpt>
        <trkpt lat="28.466167" lon="104.99804"><ele>857.0161</ele><time>2026-06-18T21:33:57.000Z</time></trkpt>
        <trkpt lat="28.46619" lon="104.998033"><ele>857.24084</ele><time>2026-06-18T21:33:59.000Z</time></trkpt>
        <trkpt lat="28.466207" lon="104.998031"><ele>857.5761</ele><time>2026-06-18T21:34:01.000Z</time></trkpt>
        <trkpt lat="28.466229" lon="104.998032"><ele>857.5761</ele><time>2026-06-18T21:34:03.000Z</time></trkpt>
        <trkpt lat="28.466246" lon="104.998036"><ele>857.5761</ele><time>2026-06-18T21:34:05.000Z</time></trkpt>
        <trkpt lat="28.466266" lon="104.998044"><ele>857.5761</ele><time>2026-06-18T21:34:07.000Z</time></trkpt>
        <trkpt lat="28.46628" lon="104.998052"><ele>857.4119</ele><time>2026-06-18T21:34:09.000Z</time></trkpt>
        <trkpt lat="28.466295" lon="104.998063"><ele>857.4119</ele><time>2026-06-18T21:34:11.000Z</time></trkpt>
        <trkpt lat="28.466311" lon="104.998075"><ele>857.26447</ele><time>2026-06-18T21:34:13.000Z</time></trkpt>
        <trkpt lat="28.466332" lon="104.998092"><ele>856.96765</ele><time>2026-06-18T21:34:15.000Z</time></trkpt>
        <trkpt lat="28.466356" lon="104.998115"><ele>856.93805</ele><time>2026-06-18T21:34:17.000Z</time></trkpt>
        <trkpt lat="28.466377" lon="104.998141"><ele>856.93805</ele><time>2026-06-18T21:34:19.000Z</time></trkpt>
        <trkpt lat="28.466401" lon="104.998166"><ele>856.90765</ele><time>2026-06-18T21:34:21.000Z</time></trkpt>
        <trkpt lat="28.466422" lon="104.998195"><ele>856.90765</ele><time>2026-06-18T21:34:23.000Z</time></trkpt>
        <trkpt lat="28.466435" lon="104.998221"><ele>856.90765</ele><time>2026-06-18T21:34:25.000Z</time></trkpt>
        <trkpt lat="28.466449" lon="104.998243"><ele>856.92194</ele><time>2026-06-18T21:34:27.000Z</time></trkpt>
        <trkpt lat="28.46646" lon="104.998263"><ele>857.04785</ele><time>2026-06-18T21:34:29.000Z</time></trkpt>
        <trkpt lat="28.466475" lon="104.998283"><ele>857.04785</ele><time>2026-06-18T21:34:31.000Z</time></trkpt>
        <trkpt lat="28.466487" lon="104.9983"><ele>857.04785</ele><time>2026-06-18T21:34:33.000Z</time></trkpt>
        <trkpt lat="28.466495" lon="104.998315"><ele>857.04785</ele><time>2026-06-18T21:34:35.000Z</time></trkpt>
        <trkpt lat="28.466514" lon="104.998345"><ele>856.92194</ele><time>2026-06-18T21:34:39.000Z</time></trkpt>
        <trkpt lat="28.466524" lon="104.998364"><ele>856.61273</ele><time>2026-06-18T21:34:41.000Z</time></trkpt>
        <trkpt lat="28.466535" lon="104.998384"><ele>856.3229</ele><time>2026-06-18T21:34:43.000Z</time></trkpt>
        <trkpt lat="28.466551" lon="104.998404"><ele>855.99426</ele><time>2026-06-18T21:34:45.000Z</time></trkpt>
        <trkpt lat="28.466569" lon="104.998425"><ele>855.72296</ele><time>2026-06-18T21:34:47.000Z</time></trkpt>
        <trkpt lat="28.466588" lon="104.998444"><ele>855.72296</ele><time>2026-06-18T21:34:49.000Z</time></trkpt>
        <trkpt lat="28.466609" lon="104.99846"><ele>855.72296</ele><time>2026-06-18T21:34:51.000Z</time></trkpt>
        <trkpt lat="28.466632" lon="104.998478"><ele>855.72296</ele><time>2026-06-18T21:34:53.000Z</time></trkpt>
        <trkpt lat="28.466652" lon="104.998494"><ele>855.72296</ele><time>2026-06-18T21:34:55.000Z</time></trkpt>
        <trkpt lat="28.46667" lon="104.998506"><ele>855.7983</ele><time>2026-06-18T21:34:57.000Z</time></trkpt>
        <trkpt lat="28.466688" lon="104.998513"><ele>855.911</ele><time>2026-06-18T21:34:59.000Z</time></trkpt>
        <trkpt lat="28.466715" lon="104.998525"><ele>855.95026</ele><time>2026-06-18T21:35:03.000Z</time></trkpt>
        <trkpt lat="28.466731" lon="104.99853"><ele>855.9794</ele><time>2026-06-18T21:35:05.000Z</time></trkpt>
        <trkpt lat="28.46675" lon="104.998535"><ele>856.41187</ele><time>2026-06-18T21:35:07.000Z</time></trkpt>
        <trkpt lat="28.466771" lon="104.99854"><ele>856.9107</ele><time>2026-06-18T21:35:09.000Z</time></trkpt>
        <trkpt lat="28.46679" lon="104.998547"><ele>857.1715</ele><time>2026-06-18T21:35:11.000Z</time></trkpt>
        <trkpt lat="28.466815" lon="104.998557"><ele>857.41815</ele><time>2026-06-18T21:35:13.000Z</time></trkpt>
        <trkpt lat="28.466837" lon="104.998567"><ele>857.5101</ele><time>2026-06-18T21:35:15.000Z</time></trkpt>
        <trkpt lat="28.466861" lon="104.998577"><ele>857.749</ele><time>2026-06-18T21:35:17.000Z</time></trkpt>
        <trkpt lat="28.466886" lon="104.998586"><ele>858.00726</ele><time>2026-06-18T21:35:19.000Z</time></trkpt>
        <trkpt lat="28.466918" lon="104.998596"><ele>858.1001</ele><time>2026-06-18T21:35:21.000Z</time></trkpt>
        <trkpt lat="28.466944" lon="104.998608"><ele>858.34595</ele><time>2026-06-18T21:35:23.000Z</time></trkpt>
        <trkpt lat="28.466969" lon="104.998626"><ele>858.5652</ele><time>2026-06-18T21:35:25.000Z</time></trkpt>
        <trkpt lat="28.466991" lon="104.998647"><ele>858.6045</ele><time>2026-06-18T21:35:27.000Z</time></trkpt>
        <trkpt lat="28.467009" lon="104.998672"><ele>858.6314</ele><time>2026-06-18T21:35:29.000Z</time></trkpt>
        <trkpt lat="28.467022" lon="104.998699"><ele>858.69336</ele><time>2026-06-18T21:35:31.000Z</time></trkpt>
        <trkpt lat="28.46703" lon="104.998727"><ele>858.7897</ele><time>2026-06-18T21:35:33.000Z</time></trkpt>
        <trkpt lat="28.467037" lon="104.998756"><ele>858.9455</ele><time>2026-06-18T21:35:35.000Z</time></trkpt>
        <trkpt lat="28.467047" lon="104.998779"><ele>859.1277</ele><time>2026-06-18T21:35:37.000Z</time></trkpt>
        <trkpt lat="28.467061" lon="104.998801"><ele>859.574</ele><time>2026-06-18T21:35:38.000Z</time></trkpt>
        <trkpt lat="28.467076" lon="104.998817"><ele>860.2382</ele><time>2026-06-18T21:35:40.000Z</time></trkpt>
        <trkpt lat="28.467094" lon="104.998832"><ele>860.7041</ele><time>2026-06-18T21:35:42.000Z</time></trkpt>
        <trkpt lat="28.46711" lon="104.998847"><ele>860.9645</ele><time>2026-06-18T21:35:44.000Z</time></trkpt>
        <trkpt lat="28.467128" lon="104.99886"><ele>861.3738</ele><time>2026-06-18T21:35:46.000Z</time></trkpt>
        <trkpt lat="28.467152" lon="104.998871"><ele>861.8308</ele><time>2026-06-18T21:35:48.000Z</time></trkpt>
        <trkpt lat="28.467173" lon="104.998878"><ele>862.10474</ele><time>2026-06-18T21:35:51.000Z</time></trkpt>
        <trkpt lat="28.467187" lon="104.998892"><ele>862.1586</ele><time>2026-06-18T21:35:53.000Z</time></trkpt>
        <trkpt lat="28.467199" lon="104.998909"><ele>862.1586</ele><time>2026-06-18T21:36:08.000Z</time></trkpt>
        <trkpt lat="28.467216" lon="104.998937"><ele>862.1586</ele><time>2026-06-18T21:36:10.000Z</time></trkpt>
        <trkpt lat="28.467234" lon="104.998962"><ele>862.1586</ele><time>2026-06-18T21:36:12.000Z</time></trkpt>
        <trkpt lat="28.467262" lon="104.998993"><ele>862.1586</ele><time>2026-06-18T21:36:14.000Z</time></trkpt>
        <trkpt lat="28.467289" lon="104.999023"><ele>861.9422</ele><time>2026-06-18T21:36:16.000Z</time></trkpt>
        <trkpt lat="28.467313" lon="104.999042"><ele>861.9422</ele><time>2026-06-18T21:36:18.000Z</time></trkpt>
        <trkpt lat="28.467336" lon="104.999058"><ele>861.9422</ele><time>2026-06-18T21:36:20.000Z</time></trkpt>
        <trkpt lat="28.467351" lon="104.99907"><ele>861.9422</ele><time>2026-06-18T21:36:22.000Z</time></trkpt>
        <trkpt lat="28.46738" lon="104.999096"><ele>861.9422</ele><time>2026-06-18T21:36:26.000Z</time></trkpt>
        <trkpt lat="28.467387" lon="104.999106"><ele>862.18335</ele><time>2026-06-18T21:36:28.000Z</time></trkpt>
        <trkpt lat="28.467399" lon="104.999127"><ele>862.6925</ele><time>2026-06-18T21:36:30.000Z</time></trkpt>
        <trkpt lat="28.467413" lon="104.999163"><ele>863.1316</ele><time>2026-06-18T21:36:34.000Z</time></trkpt>
        <trkpt lat="28.467423" lon="104.999189"><ele>864.0912</ele><time>2026-06-18T21:36:36.000Z</time></trkpt>
        <trkpt lat="28.467435" lon="104.999213"><ele>864.7926</ele><time>2026-06-18T21:36:38.000Z</time></trkpt>
        <trkpt lat="28.467446" lon="104.999233"><ele>864.843</ele><time>2026-06-18T21:36:40.000Z</time></trkpt>
        <trkpt lat="28.467449" lon="104.99925"><ele>865.94476</ele><time>2026-06-18T21:36:42.000Z</time></trkpt>
        <trkpt lat="28.467456" lon="104.99929"><ele>866.68744</ele><time>2026-06-18T21:36:46.000Z</time></trkpt>
        <trkpt lat="28.467462" lon="104.999303"><ele>866.68744</ele><time>2026-06-18T21:36:48.000Z</time></trkpt>
        <trkpt lat="28.467473" lon="104.99932"><ele>866.68744</ele><time>2026-06-18T21:36:50.000Z</time></trkpt>
        <trkpt lat="28.467485" lon="104.999354"><ele>866.68744</ele><time>2026-06-18T21:36:54.000Z</time></trkpt>
        <trkpt lat="28.467488" lon="104.99937"><ele>866.68744</ele><time>2026-06-18T21:36:56.000Z</time></trkpt>
        <trkpt lat="28.467495" lon="104.999393"><ele>866.1166</ele><time>2026-06-18T21:36:58.000Z</time></trkpt>
        <trkpt lat="28.467505" lon="104.999423"><ele>865.75</ele><time>2026-06-18T21:37:00.000Z</time></trkpt>
        <trkpt lat="28.467516" lon="104.999453"><ele>865.2375</ele><time>2026-06-18T21:37:02.000Z</time></trkpt>
        <trkpt lat="28.467525" lon="104.999485"><ele>864.7235</ele><time>2026-06-18T21:37:04.000Z</time></trkpt>
        <trkpt lat="28.467531" lon="104.999511"><ele>864.58105</ele><time>2026-06-18T21:37:06.000Z</time></trkpt>
        <trkpt lat="28.467536" lon="104.999536"><ele>864.5387</ele><time>2026-06-18T21:37:08.000Z</time></trkpt>
        <trkpt lat="28.467538" lon="104.999555"><ele>864.2188</ele><time>2026-06-18T21:37:10.000Z</time></trkpt>
        <trkpt lat="28.467541" lon="104.999595"><ele>863.8139</ele><time>2026-06-18T21:37:14.000Z</time></trkpt>
        <trkpt lat="28.467545" lon="104.999613"><ele>863.6375</ele><time>2026-06-18T21:37:16.000Z</time></trkpt>
        <trkpt lat="28.467554" lon="104.99963"><ele>863.58417</ele><time>2026-06-18T21:37:18.000Z</time></trkpt>
        <trkpt lat="28.467568" lon="104.999648"><ele>863.56287</ele><time>2026-06-18T21:37:20.000Z</time></trkpt>
        <trkpt lat="28.467591" lon="104.999669"><ele>863.53827</ele><time>2026-06-18T21:37:22.000Z</time></trkpt>
        <trkpt lat="28.467613" lon="104.999692"><ele>863.4396</ele><time>2026-06-18T21:37:24.000Z</time></trkpt>
        <trkpt lat="28.467637" lon="104.999718"><ele>863.21533</ele><time>2026-06-18T21:37:26.000Z</time></trkpt>
        <trkpt lat="28.467661" lon="104.999738"><ele>863.0767</ele><time>2026-06-18T21:37:28.000Z</time></trkpt>
        <trkpt lat="28.467687" lon="104.999762"><ele>862.9898</ele><time>2026-06-18T21:37:30.000Z</time></trkpt>
        <trkpt lat="28.467708" lon="104.999781"><ele>862.9898</ele><time>2026-06-18T21:37:32.000Z</time></trkpt>
        <trkpt lat="28.467731" lon="104.999796"><ele>862.83826</ele><time>2026-06-18T21:37:34.000Z</time></trkpt>
        <trkpt lat="28.467749" lon="104.999805"><ele>862.6611</ele><time>2026-06-18T21:37:36.000Z</time></trkpt>
        <trkpt lat="28.467771" lon="104.999816"><ele>862.57776</ele><time>2026-06-18T21:37:38.000Z</time></trkpt>
        <trkpt lat="28.467792" lon="104.999831"><ele>862.57776</ele><time>2026-06-18T21:37:40.000Z</time></trkpt>
        <trkpt lat="28.467808" lon="104.999849"><ele>862.57776</ele><time>2026-06-18T21:37:42.000Z</time></trkpt>
        <trkpt lat="28.467824" lon="104.999864"><ele>862.57776</ele><time>2026-06-18T21:37:44.000Z</time></trkpt>
        <trkpt lat="28.467839" lon="104.999875"><ele>862.6729</ele><time>2026-06-18T21:37:46.000Z</time></trkpt>
        <trkpt lat="28.467864" lon="104.999889"><ele>862.871</ele><time>2026-06-18T21:37:50.000Z</time></trkpt>
        <trkpt lat="28.467878" lon="104.999894"><ele>863.1908</ele><time>2026-06-18T21:37:52.000Z</time></trkpt>
        <trkpt lat="28.467897" lon="104.999906"><ele>863.60455</ele><time>2026-06-18T21:37:54.000Z</time></trkpt>
        <trkpt lat="28.467926" lon="104.999926"><ele>864.1448</ele><time>2026-06-18T21:37:58.000Z</time></trkpt>
        <trkpt lat="28.467943" lon="104.999942"><ele>865.0623</ele><time>2026-06-18T21:38:00.000Z</time></trkpt>
        <trkpt lat="28.467958" lon="104.999959"><ele>865.6809</ele><time>2026-06-18T21:38:02.000Z</time></trkpt>
        <trkpt lat="28.467975" lon="104.999974"><ele>865.7138</ele><time>2026-06-18T21:38:04.000Z</time></trkpt>
        <trkpt lat="28.468" lon="104.999986"><ele>866.0604</ele><time>2026-06-18T21:38:06.000Z</time></trkpt>
        <trkpt lat="28.46803" lon="104.999999"><ele>866.6047</ele><time>2026-06-18T21:38:08.000Z</time></trkpt>
        <trkpt lat="28.468055" lon="105.000008"><ele>867.0218</ele><time>2026-06-18T21:38:10.000Z</time></trkpt>
        <trkpt lat="28.468073" lon="105.000014"><ele>867.6801</ele><time>2026-06-18T21:38:12.000Z</time></trkpt>
        <trkpt lat="28.468095" lon="105.000022"><ele>868.4943</ele><time>2026-06-18T21:38:14.000Z</time></trkpt>
        <trkpt lat="28.468016" lon="105.000069"><ele>869.19904</ele><time>2026-06-18T21:38:26.000Z</time></trkpt>
        <trkpt lat="28.468034" lon="105.000104"><ele>869.6546</ele><time>2026-06-18T21:38:38.000Z</time></trkpt>
        <trkpt lat="28.468053" lon="105.000118"><ele>869.7863</ele><time>2026-06-18T21:38:40.000Z</time></trkpt>
        <trkpt lat="28.468067" lon="105.000126"><ele>869.8869</ele><time>2026-06-18T21:38:42.000Z</time></trkpt>
        <trkpt lat="28.468085" lon="105.000133"><ele>870.00305</ele><time>2026-06-18T21:38:44.000Z</time></trkpt>
        <trkpt lat="28.468129" lon="105.000155"><ele>870.074</ele><time>2026-06-18T21:38:48.000Z</time></trkpt>
        <trkpt lat="28.468147" lon="105.000167"><ele>870.0526</ele><time>2026-06-18T21:38:50.000Z</time></trkpt>
        <trkpt lat="28.468167" lon="105.00018"><ele>870.0526</ele><time>2026-06-18T21:38:52.000Z</time></trkpt>
        <trkpt lat="28.468181" lon="105.000196"><ele>870.0526</ele><time>2026-06-18T21:38:54.000Z</time></trkpt>
        <trkpt lat="28.468196" lon="105.000213"><ele>869.9569</ele><time>2026-06-18T21:38:56.000Z</time></trkpt>
        <trkpt lat="28.468205" lon="105.00023"><ele>869.9569</ele><time>2026-06-18T21:38:58.000Z</time></trkpt>
        <trkpt lat="28.468217" lon="105.000253"><ele>869.3052</ele><time>2026-06-18T21:39:00.000Z</time></trkpt>
        <trkpt lat="28.468229" lon="105.000273"><ele>868.3442</ele><time>2026-06-18T21:39:02.000Z</time></trkpt>
        <trkpt lat="28.468239" lon="105.000288"><ele>867.74304</ele><time>2026-06-18T21:39:04.000Z</time></trkpt>
        <trkpt lat="28.468251" lon="105.000307"><ele>867.15155</ele><time>2026-06-18T21:39:06.000Z</time></trkpt>
        <trkpt lat="28.468261" lon="105.000322"><ele>866.58545</ele><time>2026-06-18T21:39:08.000Z</time></trkpt>
        <trkpt lat="28.468271" lon="105.000345"><ele>866.1311</ele><time>2026-06-18T21:39:10.000Z</time></trkpt>
        <trkpt lat="28.468278" lon="105.000365"><ele>865.4648</ele><time>2026-06-18T21:39:12.000Z</time></trkpt>
        <trkpt lat="28.468287" lon="105.000383"><ele>865.1101</ele><time>2026-06-18T21:39:14.000Z</time></trkpt>
        <trkpt lat="28.468297" lon="105.000402"><ele>864.88995</ele><time>2026-06-18T21:39:16.000Z</time></trkpt>
        <trkpt lat="28.468306" lon="105.000416"><ele>864.59924</ele><time>2026-06-18T21:39:18.000Z</time></trkpt>
        <trkpt lat="28.468312" lon="105.00043"><ele>864.386</ele><time>2026-06-18T21:39:20.000Z</time></trkpt>
        <trkpt lat="28.46832" lon="105.000441"><ele>864.1422</ele><time>2026-06-18T21:39:22.000Z</time></trkpt>
        <trkpt lat="28.468333" lon="105.000458"><ele>863.94763</ele><time>2026-06-18T21:39:24.000Z</time></trkpt>
        <trkpt lat="28.46835" lon="105.000483"><ele>863.94763</ele><time>2026-06-18T21:39:26.000Z</time></trkpt>
        <trkpt lat="28.46836" lon="105.000501"><ele>863.94763</ele><time>2026-06-18T21:39:28.000Z</time></trkpt>
        <trkpt lat="28.468371" lon="105.000519"><ele>863.94763</ele><time>2026-06-18T21:39:30.000Z</time></trkpt>
        <trkpt lat="28.468385" lon="105.000535"><ele>863.94763</ele><time>2026-06-18T21:39:32.000Z</time></trkpt>
        <trkpt lat="28.468399" lon="105.000551"><ele>864.15826</ele><time>2026-06-18T21:39:34.000Z</time></trkpt>
        <trkpt lat="28.468414" lon="105.000561"><ele>864.40265</ele><time>2026-06-18T21:39:36.000Z</time></trkpt>
        <trkpt lat="28.468426" lon="105.000571"><ele>864.51874</ele><time>2026-06-18T21:39:38.000Z</time></trkpt>
        <trkpt lat="28.468434" lon="105.000576"><ele>864.7234</ele><time>2026-06-18T21:39:40.000Z</time></trkpt>
        <trkpt lat="28.468443" lon="105.000584"><ele>864.91315</ele><time>2026-06-18T21:39:42.000Z</time></trkpt>
        <trkpt lat="28.468458" lon="105.000595"><ele>864.94855</ele><time>2026-06-18T21:39:44.000Z</time></trkpt>
        <trkpt lat="28.468479" lon="105.00061"><ele>865.1134</ele><time>2026-06-18T21:39:46.000Z</time></trkpt>
        <trkpt lat="28.468503" lon="105.000625"><ele>865.34875</ele><time>2026-06-18T21:39:48.000Z</time></trkpt>
        <trkpt lat="28.468516" lon="105.000636"><ele>865.53564</ele><time>2026-06-18T21:39:50.000Z</time></trkpt>
        <trkpt lat="28.468525" lon="105.000645"><ele>865.9859</ele><time>2026-06-18T21:39:52.000Z</time></trkpt>
        <trkpt lat="28.468533" lon="105.000658"><ele>866.81476</ele><time>2026-06-18T21:39:54.000Z</time></trkpt>
        <trkpt lat="28.468545" lon="105.000672"><ele>867.31323</ele><time>2026-06-18T21:39:56.000Z</time></trkpt>
        <trkpt lat="28.468562" lon="105.000694"><ele>867.3657</ele><time>2026-06-18T21:39:58.000Z</time></trkpt>
        <trkpt lat="28.468575" lon="105.000711"><ele>867.67914</ele><time>2026-06-18T21:40:00.000Z</time></trkpt>
        <trkpt lat="28.468591" lon="105.000732"><ele>868.0806</ele><time>2026-06-18T21:40:02.000Z</time></trkpt>
        <trkpt lat="28.468595" lon="105.000745"><ele>868.20874</ele><time>2026-06-18T21:40:04.000Z</time></trkpt>
        <trkpt lat="28.468595" lon="105.000746"><ele>868.7492</ele><time>2026-06-18T21:40:06.000Z</time></trkpt>
        <trkpt lat="28.468627" lon="105.000787"><ele>869.6226</ele><time>2026-06-18T21:40:10.000Z</time></trkpt>
        <trkpt lat="28.468627" lon="105.000787"><ele>870.3985</ele><time>2026-06-18T21:40:12.000Z</time></trkpt>
        <trkpt lat="28.46863" lon="105.000787"><ele>870.8535</ele><time>2026-06-18T21:40:14.000Z</time></trkpt>
        <trkpt lat="28.468662" lon="105.000799"><ele>870.8535</ele><time>2026-06-18T21:40:18.000Z</time></trkpt>
        <trkpt lat="28.468682" lon="105.000812"><ele>870.8535</ele><time>2026-06-18T21:40:20.000Z</time></trkpt>
        <trkpt lat="28.468711" lon="105.000833"><ele>870.8535</ele><time>2026-06-18T21:40:22.000Z</time></trkpt>
        <trkpt lat="28.468742" lon="105.000859"><ele>870.8858</ele><time>2026-06-18T21:40:24.000Z</time></trkpt>
        <trkpt lat="28.468766" lon="105.000885"><ele>871.3404</ele><time>2026-06-18T21:40:26.000Z</time></trkpt>
        <trkpt lat="28.468785" lon="105.000906"><ele>871.7879</ele><time>2026-06-18T21:40:28.000Z</time></trkpt>
        <trkpt lat="28.468803" lon="105.00092"><ele>871.8144</ele><time>2026-06-18T21:40:30.000Z</time></trkpt>
        <trkpt lat="28.468821" lon="105.000931"><ele>871.8144</ele><time>2026-06-18T21:40:32.000Z</time></trkpt>
        <trkpt lat="28.468835" lon="105.000944"><ele>872.16986</ele><time>2026-06-18T21:40:34.000Z</time></trkpt>
        <trkpt lat="28.468844" lon="105.000959"><ele>872.98553</ele><time>2026-06-18T21:40:36.000Z</time></trkpt>
        <trkpt lat="28.468854" lon="105.000974"><ele>873.7653</ele><time>2026-06-18T21:40:38.000Z</time></trkpt>
        <trkpt lat="28.468862" lon="105.00098"><ele>874.3679</ele><time>2026-06-18T21:40:40.000Z</time></trkpt>
        <trkpt lat="28.468881" lon="105.000992"><ele>874.71893</ele><time>2026-06-18T21:40:42.000Z</time></trkpt>
        <trkpt lat="28.468903" lon="105.001004"><ele>874.8314</ele><time>2026-06-18T21:40:44.000Z</time></trkpt>
        <trkpt lat="28.468922" lon="105.001012"><ele>875.01575</ele><time>2026-06-18T21:40:46.000Z</time></trkpt>
        <trkpt lat="28.468938" lon="105.00102"><ele>875.18365</ele><time>2026-06-18T21:40:48.000Z</time></trkpt>
        <trkpt lat="28.468951" lon="105.001029"><ele>875.18365</ele><time>2026-06-18T21:40:50.000Z</time></trkpt>
        <trkpt lat="28.468966" lon="105.001043"><ele>875.18365</ele><time>2026-06-18T21:40:52.000Z</time></trkpt>
        <trkpt lat="28.468978" lon="105.001059"><ele>875.18365</ele><time>2026-06-18T21:40:54.000Z</time></trkpt>
        <trkpt lat="28.468997" lon="105.001082"><ele>875.18365</ele><time>2026-06-18T21:40:56.000Z</time></trkpt>
        <trkpt lat="28.469007" lon="105.001096"><ele>875.2193</ele><time>2026-06-18T21:40:58.000Z</time></trkpt>
        <trkpt lat="28.469017" lon="105.001112"><ele>875.36456</ele><time>2026-06-18T21:41:00.000Z</time></trkpt>
        <trkpt lat="28.469026" lon="105.001127"><ele>875.6836</ele><time>2026-06-18T21:41:02.000Z</time></trkpt>
        <trkpt lat="28.469037" lon="105.001145"><ele>876.00867</ele><time>2026-06-18T21:41:04.000Z</time></trkpt>
        <trkpt lat="28.469046" lon="105.001154"><ele>876.1929</ele><time>2026-06-18T21:41:06.000Z</time></trkpt>
        <trkpt lat="28.469056" lon="105.001158"><ele>876.4367</ele><time>2026-06-18T21:41:08.000Z</time></trkpt>
        <trkpt lat="28.469064" lon="105.001166"><ele>876.84674</ele><time>2026-06-18T21:41:10.000Z</time></trkpt>
        <trkpt lat="28.469071" lon="105.001175"><ele>877.36816</ele><time>2026-06-18T21:41:12.000Z</time></trkpt>
        <trkpt lat="28.469076" lon="105.001187"><ele>877.9319</ele><time>2026-06-18T21:41:14.000Z</time></trkpt>
        <trkpt lat="28.469079" lon="105.001196"><ele>878.357</ele><time>2026-06-18T21:41:16.000Z</time></trkpt>
        <trkpt lat="28.469084" lon="105.001224"><ele>878.66016</ele><time>2026-06-18T21:41:20.000Z</time></trkpt>
        <trkpt lat="28.469088" lon="105.001237"><ele>878.84235</ele><time>2026-06-18T21:41:22.000Z</time></trkpt>
        <trkpt lat="28.469096" lon="105.001251"><ele>878.98987</ele><time>2026-06-18T21:41:24.000Z</time></trkpt>
        <trkpt lat="28.469108" lon="105.001263"><ele>879.26776</ele><time>2026-06-18T21:41:26.000Z</time></trkpt>
        <trkpt lat="28.469123" lon="105.001276"><ele>879.6059</ele><time>2026-06-18T21:41:28.000Z</time></trkpt>
        <trkpt lat="28.469141" lon="105.001292"><ele>879.8452</ele><time>2026-06-18T21:41:30.000Z</time></trkpt>
        <trkpt lat="28.469154" lon="105.001308"><ele>880.0347</ele><time>2026-06-18T21:41:32.000Z</time></trkpt>
        <trkpt lat="28.469168" lon="105.001324"><ele>880.0347</ele><time>2026-06-18T21:41:34.000Z</time></trkpt>
        <trkpt lat="28.469179" lon="105.001336"><ele>880.0347</ele><time>2026-06-18T21:41:36.000Z</time></trkpt>
        <trkpt lat="28.469192" lon="105.001355"><ele>880.0971</ele><time>2026-06-18T21:41:38.000Z</time></trkpt>
        <trkpt lat="28.469203" lon="105.001373"><ele>880.107</ele><time>2026-06-18T21:41:40.000Z</time></trkpt>
        <trkpt lat="28.469214" lon="105.001393"><ele>880.2168</ele><time>2026-06-18T21:41:42.000Z</time></trkpt>
        <trkpt lat="28.46922" lon="105.001406"><ele>880.36847</ele><time>2026-06-18T21:41:44.000Z</time></trkpt>
        <trkpt lat="28.469226" lon="105.00142"><ele>880.36847</ele><time>2026-06-18T21:41:46.000Z</time></trkpt>
        <trkpt lat="28.469236" lon="105.001442"><ele>880.39087</ele><time>2026-06-18T21:41:48.000Z</time></trkpt>
        <trkpt lat="28.469241" lon="105.001458"><ele>880.44806</ele><time>2026-06-18T21:41:50.000Z</time></trkpt>
        <trkpt lat="28.469248" lon="105.001483"><ele>880.5316</ele><time>2026-06-18T21:41:52.000Z</time></trkpt>
        <trkpt lat="28.469253" lon="105.001506"><ele>880.8176</ele><time>2026-06-18T21:41:54.000Z</time></trkpt>
        <trkpt lat="28.469256" lon="105.001532"><ele>880.9417</ele><time>2026-06-18T21:41:56.000Z</time></trkpt>
        <trkpt lat="28.469256" lon="105.001554"><ele>881.07635</ele><time>2026-06-18T21:41:58.000Z</time></trkpt>
        <trkpt lat="28.469259" lon="105.001559"><ele>881.3793</ele><time>2026-06-18T21:42:00.000Z</time></trkpt>
        <trkpt lat="28.469216" lon="105.001489"><ele>881.3793</ele><time>2026-06-18T21:42:12.000Z</time></trkpt>
        <trkpt lat="28.469216" lon="105.001489"><ele>881.3793</ele><time>2026-06-18T21:42:15.000Z</time></trkpt>
        <trkpt lat="28.469216" lon="105.001489"><ele>881.3793</ele><time>2026-06-18T21:42:17.000Z</time></trkpt>
        <trkpt lat="28.469223" lon="105.001522"><ele>881.3793</ele><time>2026-06-18T21:42:29.000Z</time></trkpt>
        <trkpt lat="28.469237" lon="105.001575"><ele>881.2562</ele><time>2026-06-18T21:42:44.000Z</time></trkpt>
        <trkpt lat="28.469253" lon="105.001633"><ele>880.8493</ele><time>2026-06-18T21:42:52.000Z</time></trkpt>
        <trkpt lat="28.469253" lon="105.001634"><ele>880.8253</ele><time>2026-06-18T21:42:54.000Z</time></trkpt>
        <trkpt lat="28.469253" lon="105.001635"><ele>880.80743</ele><time>2026-06-18T21:42:56.000Z</time></trkpt>
        <trkpt lat="28.469246" lon="105.001691"><ele>880.80743</ele><time>2026-06-18T21:43:02.000Z</time></trkpt>
        <trkpt lat="28.469245" lon="105.001705"><ele>880.80743</ele><time>2026-06-18T21:43:04.000Z</time></trkpt>
        <trkpt lat="28.469249" lon="105.001717"><ele>880.8253</ele><time>2026-06-18T21:43:06.000Z</time></trkpt>
        <trkpt lat="28.469256" lon="105.001739"><ele>880.8493</ele><time>2026-06-18T21:43:08.000Z</time></trkpt>
        <trkpt lat="28.469263" lon="105.001767"><ele>881.93085</ele><time>2026-06-18T21:43:10.000Z</time></trkpt>
        <trkpt lat="28.469269" lon="105.001795"><ele>883.3109</ele><time>2026-06-18T21:43:12.000Z</time></trkpt>
        <trkpt lat="28.46927" lon="105.001822"><ele>883.8026</ele><time>2026-06-18T21:43:14.000Z</time></trkpt>
        <trkpt lat="28.46927" lon="105.001841"><ele>884.0333</ele><time>2026-06-18T21:43:16.000Z</time></trkpt>
        <trkpt lat="28.469266" lon="105.001858"><ele>884.0333</ele><time>2026-06-18T21:43:18.000Z</time></trkpt>
        <trkpt lat="28.46926" lon="105.001874"><ele>884.0333</ele><time>2026-06-18T21:43:20.000Z</time></trkpt>
        <trkpt lat="28.469256" lon="105.001891"><ele>884.0333</ele><time>2026-06-18T21:43:22.000Z</time></trkpt>
        <trkpt lat="28.469252" lon="105.001909"><ele>884.10767</ele><time>2026-06-18T21:43:24.000Z</time></trkpt>
        <trkpt lat="28.469251" lon="105.001926"><ele>884.2652</ele><time>2026-06-18T21:43:26.000Z</time></trkpt>
        <trkpt lat="28.469251" lon="105.001934"><ele>884.437</ele><time>2026-06-18T21:43:28.000Z</time></trkpt>
        <trkpt lat="28.46925" lon="105.001948"><ele>884.4929</ele><time>2026-06-18T21:43:30.000Z</time></trkpt>
        <trkpt lat="28.46925" lon="105.001965"><ele>884.49945</ele><time>2026-06-18T21:43:32.000Z</time></trkpt>
        <trkpt lat="28.469255" lon="105.001984"><ele>884.5263</ele><time>2026-06-18T21:43:34.000Z</time></trkpt>
        <trkpt lat="28.469265" lon="105.002009"><ele>884.61237</ele><time>2026-06-18T21:43:36.000Z</time></trkpt>
        <trkpt lat="28.469271" lon="105.002029"><ele>884.7062</ele><time>2026-06-18T21:43:38.000Z</time></trkpt>
        <trkpt lat="28.469271" lon="105.002034"><ele>884.7879</ele><time>2026-06-18T21:43:40.000Z</time></trkpt>
        <trkpt lat="28.46927" lon="105.002067"><ele>885.04663</ele><time>2026-06-18T21:43:44.000Z</time></trkpt>
        <trkpt lat="28.469269" lon="105.002087"><ele>885.20074</ele><time>2026-06-18T21:43:46.000Z</time></trkpt>
        <trkpt lat="28.469265" lon="105.002101"><ele>885.20074</ele><time>2026-06-18T21:43:48.000Z</time></trkpt>
        <trkpt lat="28.46926" lon="105.002125"><ele>885.27924</ele><time>2026-06-18T21:43:50.000Z</time></trkpt>
        <trkpt lat="28.46926" lon="105.002146"><ele>885.4243</ele><time>2026-06-18T21:43:52.000Z</time></trkpt>
        <trkpt lat="28.469262" lon="105.002167"><ele>885.6419</ele><time>2026-06-18T21:43:54.000Z</time></trkpt>
        <trkpt lat="28.469259" lon="105.002185"><ele>885.76575</ele><time>2026-06-18T21:43:56.000Z</time></trkpt>
        <trkpt lat="28.469254" lon="105.002205"><ele>885.9642</ele><time>2026-06-18T21:43:58.000Z</time></trkpt>
        <trkpt lat="28.469243" lon="105.002224"><ele>886.6286</ele><time>2026-06-18T21:44:00.000Z</time></trkpt>
        <trkpt lat="28.469236" lon="105.002242"><ele>887.63605</ele><time>2026-06-18T21:44:02.000Z</time></trkpt>
        <trkpt lat="28.469236" lon="105.002258"><ele>888.36285</ele><time>2026-06-18T21:44:04.000Z</time></trkpt>
        <trkpt lat="28.469236" lon="105.002277"><ele>888.7221</ele><time>2026-06-18T21:44:06.000Z</time></trkpt>
        <trkpt lat="28.469239" lon="105.002299"><ele>888.881</ele><time>2026-06-18T21:44:08.000Z</time></trkpt>
        <trkpt lat="28.469249" lon="105.002325"><ele>888.94147</ele><time>2026-06-18T21:44:10.000Z</time></trkpt>
        <trkpt lat="28.469264" lon="105.002341"><ele>889.05444</ele><time>2026-06-18T21:44:12.000Z</time></trkpt>
        <trkpt lat="28.469274" lon="105.002347"><ele>889.1814</ele><time>2026-06-18T21:44:14.000Z</time></trkpt>
        <trkpt lat="28.46928" lon="105.002357"><ele>889.3103</ele><time>2026-06-18T21:44:16.000Z</time></trkpt>
        <trkpt lat="28.469285" lon="105.002372"><ele>889.5209</ele><time>2026-06-18T21:44:18.000Z</time></trkpt>
        <trkpt lat="28.469287" lon="105.002381"><ele>889.77045</ele><time>2026-06-18T21:44:20.000Z</time></trkpt>
        <trkpt lat="28.469286" lon="105.002401"><ele>889.8795</ele><time>2026-06-18T21:44:22.000Z</time></trkpt>
        <trkpt lat="28.469284" lon="105.00243"><ele>889.8795</ele><time>2026-06-18T21:44:24.000Z</time></trkpt>
        <trkpt lat="28.469286" lon="105.002459"><ele>889.8795</ele><time>2026-06-18T21:44:26.000Z</time></trkpt>
        <trkpt lat="28.469291" lon="105.002489"><ele>889.8861</ele><time>2026-06-18T21:44:28.000Z</time></trkpt>
        <trkpt lat="28.469293" lon="105.002512"><ele>889.8861</ele><time>2026-06-18T21:44:30.000Z</time></trkpt>
        <trkpt lat="28.469292" lon="105.00253"><ele>889.8667</ele><time>2026-06-18T21:44:32.000Z</time></trkpt>
        <trkpt lat="28.469287" lon="105.002549"><ele>889.8244</ele><time>2026-06-18T21:44:34.000Z</time></trkpt>
        <trkpt lat="28.469279" lon="105.002574"><ele>889.7085</ele><time>2026-06-18T21:44:36.000Z</time></trkpt>
        <trkpt lat="28.469271" lon="105.00259"><ele>888.77704</ele><time>2026-06-18T21:44:38.000Z</time></trkpt>
        <trkpt lat="28.469264" lon="105.002602"><ele>887.5568</ele><time>2026-06-18T21:44:40.000Z</time></trkpt>
        <trkpt lat="28.469254" lon="105.00261"><ele>887.2527</ele><time>2026-06-18T21:44:42.000Z</time></trkpt>
        <trkpt lat="28.469249" lon="105.002611"><ele>887.0348</ele><time>2026-06-18T21:44:46.000Z</time></trkpt>
        <trkpt lat="28.469225" lon="105.002612"><ele>887.0082</ele><time>2026-06-18T21:44:49.000Z</time></trkpt>
        <trkpt lat="28.469222" lon="105.002613"><ele>887.0082</ele><time>2026-06-18T21:45:01.000Z</time></trkpt>
        <trkpt lat="28.469156" lon="105.002629"><ele>887.0082</ele><time>2026-06-18T21:45:04.000Z</time></trkpt>
        <trkpt lat="28.469156" lon="105.002629"><ele>887.0082</ele><time>2026-06-18T21:45:06.000Z</time></trkpt>
        <trkpt lat="28.469154" lon="105.002629"><ele>887.2261</ele><time>2026-06-18T21:45:08.000Z</time></trkpt>
        <trkpt lat="28.469106" lon="105.002636"><ele>887.4415</ele><time>2026-06-18T21:45:12.000Z</time></trkpt>
        <trkpt lat="28.469081" lon="105.002648"><ele>887.4415</ele><time>2026-06-18T21:45:14.000Z</time></trkpt>
        <trkpt lat="28.469053" lon="105.002667"><ele>887.47</ele><time>2026-06-18T21:45:16.000Z</time></trkpt>
        <trkpt lat="28.469031" lon="105.002679"><ele>887.47</ele><time>2026-06-18T21:45:18.000Z</time></trkpt>
        <trkpt lat="28.469021" lon="105.002688"><ele>887.47</ele><time>2026-06-18T21:45:20.000Z</time></trkpt>
        <trkpt lat="28.469012" lon="105.002698"><ele>887.47</ele><time>2026-06-18T21:45:22.000Z</time></trkpt>
        <trkpt lat="28.469013" lon="105.002704"><ele>887.3593</ele><time>2026-06-18T21:45:24.000Z</time></trkpt>
        <trkpt lat="28.469022" lon="105.002717"><ele>887.3593</ele><time>2026-06-18T21:45:26.000Z</time></trkpt>
        <trkpt lat="28.469036" lon="105.002728"><ele>887.3593</ele><time>2026-06-18T21:45:28.000Z</time></trkpt>
        <trkpt lat="28.469047" lon="105.002733"><ele>887.3593</ele><time>2026-06-18T21:45:30.000Z</time></trkpt>
        <trkpt lat="28.469057" lon="105.002732"><ele>887.3593</ele><time>2026-06-18T21:45:32.000Z</time></trkpt>
        <trkpt lat="28.469006" lon="105.002743"><ele>887.40796</ele><time>2026-06-18T21:45:52.000Z</time></trkpt>
        <trkpt lat="28.469001" lon="105.002747"><ele>887.62665</ele><time>2026-06-18T21:45:54.000Z</time></trkpt>
        <trkpt lat="28.468983" lon="105.002755"><ele>888.0121</ele><time>2026-06-18T21:45:57.000Z</time></trkpt>
        <trkpt lat="28.468911" lon="105.002789"><ele>888.2206</ele><time>2026-06-18T21:46:11.000Z</time></trkpt>
        <trkpt lat="28.468896" lon="105.002795"><ele>888.32245</ele><time>2026-06-18T21:46:13.000Z</time></trkpt>
        <trkpt lat="28.468886" lon="105.002797"><ele>888.5003</ele><time>2026-06-18T21:46:15.000Z</time></trkpt>
        <trkpt lat="28.468884" lon="105.002801"><ele>889.0242</ele><time>2026-06-18T21:46:17.000Z</time></trkpt>
        <trkpt lat="28.46894" lon="105.002746"><ele>889.0242</ele><time>2026-06-18T21:46:52.000Z</time></trkpt>
        <trkpt lat="28.468969" lon="105.002718"><ele>889.0242</ele><time>2026-06-18T21:46:54.000Z</time></trkpt>
        <trkpt lat="28.468972" lon="105.002717"><ele>889.0242</ele><time>2026-06-18T21:46:56.000Z</time></trkpt>
        <trkpt lat="28.468975" lon="105.002716"><ele>889.0242</ele><time>2026-06-18T21:46:58.000Z</time></trkpt>
        <trkpt lat="28.469025" lon="105.002698"><ele>888.85</ele><time>2026-06-18T21:47:02.000Z</time></trkpt>
        <trkpt lat="28.469056" lon="105.002685"><ele>888.3973</ele><time>2026-06-18T21:47:04.000Z</time></trkpt>
        <trkpt lat="28.469085" lon="105.002668"><ele>888.3973</ele><time>2026-06-18T21:47:06.000Z</time></trkpt>
        <trkpt lat="28.46911" lon="105.002647"><ele>888.3973</ele><time>2026-06-18T21:47:08.000Z</time></trkpt>
        <trkpt lat="28.469134" lon="105.002621"><ele>888.3973</ele><time>2026-06-18T21:47:10.000Z</time></trkpt>
        <trkpt lat="28.469152" lon="105.002596"><ele>888.3973</ele><time>2026-06-18T21:47:12.000Z</time></trkpt>
        <trkpt lat="28.469168" lon="105.002574"><ele>888.56287</ele><time>2026-06-18T21:47:14.000Z</time></trkpt>
        <trkpt lat="28.469181" lon="105.002551"><ele>888.7903</ele><time>2026-06-18T21:47:16.000Z</time></trkpt>
        <trkpt lat="28.46919" lon="105.002531"><ele>889.0141</ele><time>2026-06-18T21:47:18.000Z</time></trkpt>
        <trkpt lat="28.4692" lon="105.00252"><ele>889.0325</ele><time>2026-06-18T21:47:20.000Z</time></trkpt>
        <trkpt lat="28.469213" lon="105.00251"><ele>889.0659</ele><time>2026-06-18T21:47:22.000Z</time></trkpt>
        <trkpt lat="28.469227" lon="105.002504"><ele>889.12634</ele><time>2026-06-18T21:47:24.000Z</time></trkpt>
        <trkpt lat="28.469245" lon="105.002502"><ele>889.2299</ele><time>2026-06-18T21:47:26.000Z</time></trkpt>
        <trkpt lat="28.469268" lon="105.002506"><ele>889.35675</ele><time>2026-06-18T21:47:28.000Z</time></trkpt>
        <trkpt lat="28.469294" lon="105.002517"><ele>889.6408</ele><time>2026-06-18T21:47:30.000Z</time></trkpt>
        <trkpt lat="28.46932" lon="105.002531"><ele>890.0149</ele><time>2026-06-18T21:47:32.000Z</time></trkpt>
        <trkpt lat="28.469352" lon="105.002558"><ele>890.0751</ele><time>2026-06-18T21:47:34.000Z</time></trkpt>
        <trkpt lat="28.469376" lon="105.00259"><ele>890.1733</ele><time>2026-06-18T21:47:36.000Z</time></trkpt>
        <trkpt lat="28.469394" lon="105.002621"><ele>890.26526</ele><time>2026-06-18T21:47:38.000Z</time></trkpt>
        <trkpt lat="28.469408" lon="105.002648"><ele>890.3385</ele><time>2026-06-18T21:47:40.000Z</time></trkpt>
        <trkpt lat="28.469414" lon="105.002665"><ele>890.48376</ele><time>2026-06-18T21:47:42.000Z</time></trkpt>
        <trkpt lat="28.469418" lon="105.00267"><ele>890.65515</ele><time>2026-06-18T21:47:44.000Z</time></trkpt>
        <trkpt lat="28.469372" lon="105.002638"><ele>890.65515</ele><time>2026-06-18T21:47:58.000Z</time></trkpt>
        <trkpt lat="28.469384" lon="105.002646"><ele>890.65515</ele><time>2026-06-18T21:48:04.000Z</time></trkpt>
        <trkpt lat="28.469384" lon="105.002646"><ele>890.55115</ele><time>2026-06-18T21:48:06.000Z</time></trkpt>
        <trkpt lat="28.469405" lon="105.002643"><ele>890.5099</ele><time>2026-06-18T21:48:25.000Z</time></trkpt>
        <trkpt lat="28.469364" lon="105.002677"><ele>890.5513</ele><time>2026-06-18T21:48:55.000Z</time></trkpt>
        <trkpt lat="28.469376" lon="105.002694"><ele>890.1461</ele><time>2026-06-18T21:48:57.000Z</time></trkpt>
        <trkpt lat="28.469377" lon="105.002694"><ele>889.91296</ele><time>2026-06-18T21:48:59.000Z</time></trkpt>
        <trkpt lat="28.469464" lon="105.002705"><ele>889.91296</ele><time>2026-06-18T21:49:04.000Z</time></trkpt>
        <trkpt lat="28.469464" lon="105.002705"><ele>889.91296</ele><time>2026-06-18T21:49:06.000Z</time></trkpt>
        <trkpt lat="28.469464" lon="105.002707"><ele>889.91296</ele><time>2026-06-18T21:49:08.000Z</time></trkpt>
        <trkpt lat="28.469464" lon="105.002741"><ele>889.91296</ele><time>2026-06-18T21:49:14.000Z</time></trkpt>
        <trkpt lat="28.469469" lon="105.002753"><ele>889.91296</ele><time>2026-06-18T21:49:16.000Z</time></trkpt>
        <trkpt lat="28.46948" lon="105.002772"><ele>889.91296</ele><time>2026-06-18T21:49:18.000Z</time></trkpt>
        <trkpt lat="28.469492" lon="105.002793"><ele>889.91296</ele><time>2026-06-18T21:49:20.000Z</time></trkpt>
        <trkpt lat="28.469503" lon="105.002813"><ele>889.8764</ele><time>2026-06-18T21:49:22.000Z</time></trkpt>
        <trkpt lat="28.46952" lon="105.002836"><ele>889.5668</ele><time>2026-06-18T21:49:24.000Z</time></trkpt>
        <trkpt lat="28.469534" lon="105.002849"><ele>889.2005</ele><time>2026-06-18T21:49:26.000Z</time></trkpt>
        <trkpt lat="28.469549" lon="105.002857"><ele>889.0666</ele><time>2026-06-18T21:49:28.000Z</time></trkpt>
        <trkpt lat="28.469572" lon="105.002863"><ele>889.0666</ele><time>2026-06-18T21:49:30.000Z</time></trkpt>
        <trkpt lat="28.469597" lon="105.002869"><ele>888.9922</ele><time>2026-06-18T21:49:32.000Z</time></trkpt>
        <trkpt lat="28.46962" lon="105.002868"><ele>888.951</ele><time>2026-06-18T21:49:34.000Z</time></trkpt>
        <trkpt lat="28.46964" lon="105.002862"><ele>888.90424</ele><time>2026-06-18T21:49:36.000Z</time></trkpt>
        <trkpt lat="28.469668" lon="105.002852"><ele>888.9018</ele><time>2026-06-18T21:49:38.000Z</time></trkpt>
        <trkpt lat="28.469696" lon="105.002841"><ele>888.9018</ele><time>2026-06-18T21:49:40.000Z</time></trkpt>
        <trkpt lat="28.469716" lon="105.002834"><ele>888.94025</ele><time>2026-06-18T21:49:42.000Z</time></trkpt>
        <trkpt lat="28.469733" lon="105.002831"><ele>888.94025</ele><time>2026-06-18T21:49:44.000Z</time></trkpt>
        <trkpt lat="28.469748" lon="105.002828"><ele>889.0498</ele><time>2026-06-18T21:49:46.000Z</time></trkpt>
        <trkpt lat="28.469766" lon="105.002822"><ele>889.3147</ele><time>2026-06-18T21:49:48.000Z</time></trkpt>
        <trkpt lat="28.469786" lon="105.002818"><ele>889.7659</ele><time>2026-06-18T21:49:50.000Z</time></trkpt>
        <trkpt lat="28.469806" lon="105.002817"><ele>890.43243</ele><time>2026-06-18T21:49:52.000Z</time></trkpt>
        <trkpt lat="28.469826" lon="105.002818"><ele>891.14246</ele><time>2026-06-18T21:49:54.000Z</time></trkpt>
        <trkpt lat="28.469839" lon="105.002823"><ele>891.7116</ele><time>2026-06-18T21:49:56.000Z</time></trkpt>
        <trkpt lat="28.469847" lon="105.002829"><ele>892.25006</ele><time>2026-06-18T21:49:58.000Z</time></trkpt>
        <trkpt lat="28.469847" lon="105.002838"><ele>892.25006</ele><time>2026-06-18T21:50:00.000Z</time></trkpt>
        <trkpt lat="28.469855" lon="105.002863"><ele>892.25006</ele><time>2026-06-18T21:50:08.000Z</time></trkpt>
        <trkpt lat="28.469871" lon="105.002917"><ele>892.25006</ele><time>2026-06-18T21:50:18.000Z</time></trkpt>
        <trkpt lat="28.469871" lon="105.002917"><ele>892.25006</ele><time>2026-06-18T21:50:20.000Z</time></trkpt>
        <trkpt lat="28.469873" lon="105.002917"><ele>892.22186</ele><time>2026-06-18T21:50:22.000Z</time></trkpt>
        <trkpt lat="28.469908" lon="105.002932"><ele>891.41754</ele><time>2026-06-18T21:50:26.000Z</time></trkpt>
        <trkpt lat="28.469933" lon="105.002947"><ele>891.1154</ele><time>2026-06-18T21:50:28.000Z</time></trkpt>
        <trkpt lat="28.469958" lon="105.002964"><ele>891.1154</ele><time>2026-06-18T21:50:30.000Z</time></trkpt>
        <trkpt lat="28.469982" lon="105.002978"><ele>891.1154</ele><time>2026-06-18T21:50:32.000Z</time></trkpt>
        <trkpt lat="28.470005" lon="105.002991"><ele>891.1154</ele><time>2026-06-18T21:50:34.000Z</time></trkpt>
        <trkpt lat="28.470011" lon="105.002993"><ele>891.1154</ele><time>2026-06-18T21:50:36.000Z</time></trkpt>
        <trkpt lat="28.470034" lon="105.002996"><ele>891.41754</ele><time>2026-06-18T21:50:38.000Z</time></trkpt>
        <trkpt lat="28.470061" lon="105.002997"><ele>891.68744</ele><time>2026-06-18T21:50:40.000Z</time></trkpt>
        <trkpt lat="28.470087" lon="105.002996"><ele>891.75354</ele><time>2026-06-18T21:50:42.000Z</time></trkpt>
        <trkpt lat="28.470113" lon="105.002994"><ele>891.75354</ele><time>2026-06-18T21:50:44.000Z</time></trkpt>
        <trkpt lat="28.470136" lon="105.002992"><ele>891.75354</ele><time>2026-06-18T21:50:46.000Z</time></trkpt>
        <trkpt lat="28.470158" lon="105.002991"><ele>891.8519</ele><time>2026-06-18T21:50:48.000Z</time></trkpt>
        <trkpt lat="28.470177" lon="105.00299"><ele>891.8859</ele><time>2026-06-18T21:50:50.000Z</time></trkpt>
        <trkpt lat="28.470184" lon="105.002991"><ele>891.8859</ele><time>2026-06-18T21:50:52.000Z</time></trkpt>
        <trkpt lat="28.470192" lon="105.002991"><ele>891.8859</ele><time>2026-06-18T21:50:54.000Z</time></trkpt>
        <trkpt lat="28.470206" lon="105.002992"><ele>891.8859</ele><time>2026-06-18T21:50:56.000Z</time></trkpt>
        <trkpt lat="28.470221" lon="105.002995"><ele>892.3653</ele><time>2026-06-18T21:50:58.000Z</time></trkpt>
        <trkpt lat="28.470236" lon="105.003001"><ele>893.2431</ele><time>2026-06-18T21:51:00.000Z</time></trkpt>
        <trkpt lat="28.470254" lon="105.003011"><ele>893.9079</ele><time>2026-06-18T21:51:02.000Z</time></trkpt>
        <trkpt lat="28.470274" lon="105.003027"><ele>894.20374</ele><time>2026-06-18T21:51:04.000Z</time></trkpt>
        <trkpt lat="28.470286" lon="105.003049"><ele>894.20374</ele><time>2026-06-18T21:51:06.000Z</time></trkpt>
        <trkpt lat="28.470291" lon="105.003071"><ele>894.20374</ele><time>2026-06-18T21:51:08.000Z</time></trkpt>
        <trkpt lat="28.470298" lon="105.003091"><ele>894.20374</ele><time>2026-06-18T21:51:10.000Z</time></trkpt>
        <trkpt lat="28.470307" lon="105.00311"><ele>894.20374</ele><time>2026-06-18T21:51:12.000Z</time></trkpt>
        <trkpt lat="28.470322" lon="105.003126"><ele>893.6606</ele><time>2026-06-18T21:51:14.000Z</time></trkpt>
        <trkpt lat="28.470339" lon="105.003133"><ele>892.9627</ele><time>2026-06-18T21:51:16.000Z</time></trkpt>
        <trkpt lat="28.470358" lon="105.003131"><ele>892.81573</ele><time>2026-06-18T21:51:18.000Z</time></trkpt>
        <trkpt lat="28.470382" lon="105.003121"><ele>892.81573</ele><time>2026-06-18T21:51:20.000Z</time></trkpt>
        <trkpt lat="28.470398" lon="105.003109"><ele>892.81573</ele><time>2026-06-18T21:51:22.000Z</time></trkpt>
        <trkpt lat="28.470406" lon="105.003104"><ele>892.81573</ele><time>2026-06-18T21:51:24.000Z</time></trkpt>
        <trkpt lat="28.470408" lon="105.003105"><ele>892.81573</ele><time>2026-06-18T21:51:33.000Z</time></trkpt>
        <trkpt lat="28.470508" lon="105.003148"><ele>893.1288</ele><time>2026-06-18T21:51:41.000Z</time></trkpt>
        <trkpt lat="28.470508" lon="105.003148"><ele>893.6194</ele><time>2026-06-18T21:51:43.000Z</time></trkpt>
        <trkpt lat="28.470512" lon="105.003147"><ele>893.7752</ele><time>2026-06-18T21:51:45.000Z</time></trkpt>
        <trkpt lat="28.470554" lon="105.003152"><ele>893.84326</ele><time>2026-06-18T21:51:49.000Z</time></trkpt>
        <trkpt lat="28.470588" lon="105.003163"><ele>893.9183</ele><time>2026-06-18T21:51:51.000Z</time></trkpt>
        <trkpt lat="28.470619" lon="105.003179"><ele>893.9183</ele><time>2026-06-18T21:51:53.000Z</time></trkpt>
        <trkpt lat="28.470638" lon="105.00319"><ele>893.9678</ele><time>2026-06-18T21:51:55.000Z</time></trkpt>
        <trkpt lat="28.47065" lon="105.003199"><ele>893.96075</ele><time>2026-06-18T21:51:57.000Z</time></trkpt>
        <trkpt lat="28.47066" lon="105.003205"><ele>893.8712</ele><time>2026-06-18T21:51:59.000Z</time></trkpt>
        <trkpt lat="28.470667" lon="105.003206"><ele>893.8032</ele><time>2026-06-18T21:52:01.000Z</time></trkpt>
        <trkpt lat="28.470702" lon="105.003215"><ele>893.8712</ele><time>2026-06-18T21:52:05.000Z</time></trkpt>
        <trkpt lat="28.470713" lon="105.003217"><ele>893.96075</ele><time>2026-06-18T21:52:07.000Z</time></trkpt>
        <trkpt lat="28.470715" lon="105.003213"><ele>893.9207</ele><time>2026-06-18T21:52:09.000Z</time></trkpt>
        <trkpt lat="28.470728" lon="105.003193"><ele>893.9258</ele><time>2026-06-18T21:52:21.000Z</time></trkpt>
        <trkpt lat="28.470751" lon="105.003157"><ele>893.9258</ele><time>2026-06-18T21:52:25.000Z</time></trkpt>
        <trkpt lat="28.470751" lon="105.003157"><ele>894.0457</ele><time>2026-06-18T21:52:26.000Z</time></trkpt>
        <trkpt lat="28.470752" lon="105.003158"><ele>894.0457</ele><time>2026-06-18T21:52:29.000Z</time></trkpt>
        <trkpt lat="28.470808" lon="105.003185"><ele>894.97095</ele><time>2026-06-18T21:52:32.000Z</time></trkpt>
        <trkpt lat="28.470808" lon="105.003185"><ele>895.87085</ele><time>2026-06-18T21:52:34.000Z</time></trkpt>
        <trkpt lat="28.470811" lon="105.003186"><ele>895.886</ele><time>2026-06-18T21:52:36.000Z</time></trkpt>
        <trkpt lat="28.470853" lon="105.003199"><ele>895.8922</ele><time>2026-06-18T21:52:40.000Z</time></trkpt>
        <trkpt lat="28.470881" lon="105.003211"><ele>895.8922</ele><time>2026-06-18T21:52:42.000Z</time></trkpt>
        <trkpt lat="28.470911" lon="105.003224"><ele>895.8922</ele><time>2026-06-18T21:52:44.000Z</time></trkpt>
        <trkpt lat="28.470937" lon="105.003238"><ele>895.87714</ele><time>2026-06-18T21:52:46.000Z</time></trkpt>
        <trkpt lat="28.470956" lon="105.003241"><ele>895.87085</ele><time>2026-06-18T21:52:48.000Z</time></trkpt>
        <trkpt lat="28.470973" lon="105.003241"><ele>895.5729</ele><time>2026-06-18T21:52:50.000Z</time></trkpt>
        <trkpt lat="28.471009" lon="105.00324"><ele>895.3361</ele><time>2026-06-18T21:52:52.000Z</time></trkpt>
        <trkpt lat="28.471039" lon="105.003241"><ele>895.27094</ele><time>2026-06-18T21:52:54.000Z</time></trkpt>
        <trkpt lat="28.471056" lon="105.003245"><ele>895.27094</ele><time>2026-06-18T21:52:56.000Z</time></trkpt>
        <trkpt lat="28.471058" lon="105.003245"><ele>895.27094</ele><time>2026-06-18T21:52:58.000Z</time></trkpt>
        <trkpt lat="28.471098" lon="105.003243"><ele>895.27094</ele><time>2026-06-18T21:53:02.000Z</time></trkpt>
        <trkpt lat="28.471109" lon="105.00325"><ele>895.3027</ele><time>2026-06-18T21:53:04.000Z</time></trkpt>
        <trkpt lat="28.471116" lon="105.003262"><ele>895.36786</ele><time>2026-06-18T21:53:06.000Z</time></trkpt>
        <trkpt lat="28.471128" lon="105.003282"><ele>895.6988</ele><time>2026-06-18T21:53:08.000Z</time></trkpt>
        <trkpt lat="28.471143" lon="105.003294"><ele>896.8918</ele><time>2026-06-18T21:53:10.000Z</time></trkpt>
        <trkpt lat="28.471145" lon="105.003305"><ele>897.79095</ele><time>2026-06-18T21:53:12.000Z</time></trkpt>
        <trkpt lat="28.471148" lon="105.003329"><ele>897.81885</ele><time>2026-06-18T21:53:16.000Z</time></trkpt>
        <trkpt lat="28.471146" lon="105.003349"><ele>897.81885</ele><time>2026-06-18T21:53:18.000Z</time></trkpt>
        <trkpt lat="28.47114" lon="105.00336"><ele>897.81885</ele><time>2026-06-18T21:53:20.000Z</time></trkpt>
        <trkpt lat="28.471131" lon="105.00337"><ele>897.81885</ele><time>2026-06-18T21:53:22.000Z</time></trkpt>
        <trkpt lat="28.471124" lon="105.003376"><ele>897.79095</ele><time>2026-06-18T21:53:26.000Z</time></trkpt>
        <trkpt lat="28.471116" lon="105.003374"><ele>897.61346</ele><time>2026-06-18T21:53:41.000Z</time></trkpt>
        <trkpt lat="28.471187" lon="105.003394"><ele>897.29535</ele><time>2026-06-18T21:54:04.000Z</time></trkpt>
        <trkpt lat="28.471187" lon="105.003394"><ele>896.9234</ele><time>2026-06-18T21:54:06.000Z</time></trkpt>
        <trkpt lat="28.471186" lon="105.003394"><ele>896.3505</ele><time>2026-06-18T21:54:08.000Z</time></trkpt>
        <trkpt lat="28.471131" lon="105.003375"><ele>895.62054</ele><time>2026-06-18T21:54:22.000Z</time></trkpt>
        <trkpt lat="28.471104" lon="105.003367"><ele>894.61816</ele><time>2026-06-18T21:54:24.000Z</time></trkpt>
        <trkpt lat="28.471085" lon="105.003362"><ele>893.9966</ele><time>2026-06-18T21:54:26.000Z</time></trkpt>
        <trkpt lat="28.471073" lon="105.003359"><ele>893.98395</ele><time>2026-06-18T21:54:28.000Z</time></trkpt>
        <trkpt lat="28.471068" lon="105.003359"><ele>893.8079</ele><time>2026-06-18T21:54:30.000Z</time></trkpt>
        <trkpt lat="28.471173" lon="105.003354"><ele>893.63794</ele><time>2026-06-18T21:54:54.000Z</time></trkpt>
        <trkpt lat="28.471172" lon="105.003354"><ele>893.6222</ele><time>2026-06-18T21:54:56.000Z</time></trkpt>
        <trkpt lat="28.471171" lon="105.003354"><ele>893.60126</ele><time>2026-06-18T21:54:58.000Z</time></trkpt>
        <trkpt lat="28.47113" lon="105.003366"><ele>893.57605</ele><time>2026-06-18T21:55:07.000Z</time></trkpt>
        <trkpt lat="28.47113" lon="105.003369"><ele>893.4902</ele><time>2026-06-18T21:55:09.000Z</time></trkpt>
        <trkpt lat="28.47112" lon="105.003382"><ele>893.4153</ele><time>2026-06-18T21:55:13.000Z</time></trkpt>
        <trkpt lat="28.471212" lon="105.003253"><ele>893.4153</ele><time>2026-06-18T21:55:22.000Z</time></trkpt>
        <trkpt lat="28.471212" lon="105.003253"><ele>893.4153</ele><time>2026-06-18T21:55:24.000Z</time></trkpt>
        <trkpt lat="28.471212" lon="105.003253"><ele>893.4153</ele><time>2026-06-18T21:55:26.000Z</time></trkpt>
        <trkpt lat="28.471232" lon="105.003289"><ele>893.4153</ele><time>2026-06-18T21:55:44.000Z</time></trkpt>
        <trkpt lat="28.471258" lon="105.003288"><ele>893.4789</ele><time>2026-06-18T21:55:46.000Z</time></trkpt>
        <trkpt lat="28.47126" lon="105.003288"><ele>893.538</ele><time>2026-06-18T21:55:49.000Z</time></trkpt>
        <trkpt lat="28.471186" lon="105.003331"><ele>893.538</ele><time>2026-06-18T21:56:15.000Z</time></trkpt>
        <trkpt lat="28.471109" lon="105.003376"><ele>893.538</ele><time>2026-06-18T21:56:21.000Z</time></trkpt>
        <trkpt lat="28.471109" lon="105.003376"><ele>893.538</ele><time>2026-06-18T21:56:23.000Z</time></trkpt>
        <trkpt lat="28.471109" lon="105.003376"><ele>893.538</ele><time>2026-06-18T21:56:25.000Z</time></trkpt>
        <trkpt lat="28.471068" lon="105.00342"><ele>893.3389</ele><time>2026-06-18T21:56:33.000Z</time></trkpt>
        <trkpt lat="28.47106" lon="105.003439"><ele>893.14185</ele><time>2026-06-18T21:56:35.000Z</time></trkpt>
        <trkpt lat="28.47105" lon="105.00347"><ele>893.12665</ele><time>2026-06-18T21:56:37.000Z</time></trkpt>
        <trkpt lat="28.471042" lon="105.003506"><ele>893.0242</ele><time>2026-06-18T21:56:39.000Z</time></trkpt>
        <trkpt lat="28.471032" lon="105.003542"><ele>892.6154</ele><time>2026-06-18T21:56:41.000Z</time></trkpt>
        <trkpt lat="28.471017" lon="105.00357"><ele>892.2896</ele><time>2026-06-18T21:56:43.000Z</time></trkpt>
        <trkpt lat="28.471002" lon="105.003588"><ele>892.25793</ele><time>2026-06-18T21:56:45.000Z</time></trkpt>
        <trkpt lat="28.470989" lon="105.003596"><ele>892.19574</ele><time>2026-06-18T21:56:47.000Z</time></trkpt>
        <trkpt lat="28.470973" lon="105.003605"><ele>892.19574</ele><time>2026-06-18T21:56:49.000Z</time></trkpt>
        <trkpt lat="28.470957" lon="105.003614"><ele>892.19574</ele><time>2026-06-18T21:56:51.000Z</time></trkpt>
        <trkpt lat="28.470945" lon="105.00362"><ele>892.19574</ele><time>2026-06-18T21:56:53.000Z</time></trkpt>
        <trkpt lat="28.470938" lon="105.003618"><ele>892.1464</ele><time>2026-06-18T21:56:55.000Z</time></trkpt>
        <trkpt lat="28.470905" lon="105.003609"><ele>892.1464</ele><time>2026-06-18T21:56:59.000Z</time></trkpt>
        <trkpt lat="28.470889" lon="105.003609"><ele>892.0788</ele><time>2026-06-18T21:57:01.000Z</time></trkpt>
        <trkpt lat="28.470873" lon="105.003608"><ele>892.00183</ele><time>2026-06-18T21:57:03.000Z</time></trkpt>
        <trkpt lat="28.470853" lon="105.003607"><ele>891.92017</ele><time>2026-06-18T21:57:05.000Z</time></trkpt>
        <trkpt lat="28.47084" lon="105.003611"><ele>891.37555</ele><time>2026-06-18T21:57:07.000Z</time></trkpt>
        <trkpt lat="28.470799" lon="105.003626"><ele>890.6134</ele><time>2026-06-18T21:57:13.000Z</time></trkpt>
        <trkpt lat="28.470799" lon="105.003626"><ele>890.1672</ele><time>2026-06-18T21:57:15.000Z</time></trkpt>
        <trkpt lat="28.470798" lon="105.003628"><ele>889.8841</ele><time>2026-06-18T21:57:17.000Z</time></trkpt>
        <trkpt lat="28.470778" lon="105.00368"><ele>889.62823</ele><time>2026-06-18T21:57:21.000Z</time></trkpt>
        <trkpt lat="28.470763" lon="105.003715"><ele>889.2506</ele><time>2026-06-18T21:57:23.000Z</time></trkpt>
        <trkpt lat="28.470743" lon="105.003746"><ele>889.00287</ele><time>2026-06-18T21:57:25.000Z</time></trkpt>
        <trkpt lat="28.470724" lon="105.003768"><ele>888.988</ele><time>2026-06-18T21:57:27.000Z</time></trkpt>
        <trkpt lat="28.470707" lon="105.003785"><ele>888.9321</ele><time>2026-06-18T21:57:29.000Z</time></trkpt>
        <trkpt lat="28.470696" lon="105.0038"><ele>888.856</ele><time>2026-06-18T21:57:31.000Z</time></trkpt>
        <trkpt lat="28.470683" lon="105.003813"><ele>888.74554</ele><time>2026-06-18T21:57:33.000Z</time></trkpt>
        <trkpt lat="28.470672" lon="105.003822"><ele>888.6231</ele><time>2026-06-18T21:57:35.000Z</time></trkpt>
        <trkpt lat="28.470662" lon="105.003829"><ele>888.4035</ele><time>2026-06-18T21:57:37.000Z</time></trkpt>
        <trkpt lat="28.470654" lon="105.003841"><ele>887.95874</ele><time>2026-06-18T21:57:39.000Z</time></trkpt>
        <trkpt lat="28.470649" lon="105.003854"><ele>887.5476</ele><time>2026-06-18T21:57:41.000Z</time></trkpt>
        <trkpt lat="28.470641" lon="105.003873"><ele>887.2629</ele><time>2026-06-18T21:57:43.000Z</time></trkpt>
        <trkpt lat="28.470634" lon="105.003889"><ele>887.12286</ele><time>2026-06-18T21:57:45.000Z</time></trkpt>
        <trkpt lat="28.470628" lon="105.003909"><ele>886.957</ele><time>2026-06-18T21:57:47.000Z</time></trkpt>
        <trkpt lat="28.470623" lon="105.003929"><ele>886.75903</ele><time>2026-06-18T21:57:49.000Z</time></trkpt>
        <trkpt lat="28.47062" lon="105.003947"><ele>886.52594</ele><time>2026-06-18T21:57:51.000Z</time></trkpt>
        <trkpt lat="28.470616" lon="105.003961"><ele>886.13513</ele><time>2026-06-18T21:57:53.000Z</time></trkpt>
        <trkpt lat="28.470614" lon="105.003974"><ele>885.8748</ele><time>2026-06-18T21:57:55.000Z</time></trkpt>
        <trkpt lat="28.470614" lon="105.003989"><ele>885.77026</ele><time>2026-06-18T21:57:57.000Z</time></trkpt>
        <trkpt lat="28.470617" lon="105.004007"><ele>885.7017</ele><time>2026-06-18T21:58:01.000Z</time></trkpt>
        <trkpt lat="28.470618" lon="105.00402"><ele>885.5796</ele><time>2026-06-18T21:58:03.000Z</time></trkpt>
        <trkpt lat="28.470627" lon="105.004046"><ele>885.45935</ele><time>2026-06-18T21:58:05.000Z</time></trkpt>
        <trkpt lat="28.470638" lon="105.004064"><ele>885.43225</ele><time>2026-06-18T21:58:07.000Z</time></trkpt>
        <trkpt lat="28.470647" lon="105.004076"><ele>885.36884</ele><time>2026-06-18T21:58:09.000Z</time></trkpt>
        <trkpt lat="28.470649" lon="105.004087"><ele>885.1989</ele><time>2026-06-18T21:58:11.000Z</time></trkpt>
        <trkpt lat="28.470646" lon="105.004108"><ele>885.15356</ele><time>2026-06-18T21:58:13.000Z</time></trkpt>
        <trkpt lat="28.470645" lon="105.004124"><ele>885.09436</ele><time>2026-06-18T21:58:15.000Z</time></trkpt>
        <trkpt lat="28.470642" lon="105.004128"><ele>885.04944</ele><time>2026-06-18T21:58:17.000Z</time></trkpt>
        <trkpt lat="28.470684" lon="105.004091"><ele>885.00385</ele><time>2026-06-18T21:58:23.000Z</time></trkpt>
        <trkpt lat="28.470684" lon="105.004091"><ele>884.955</ele><time>2026-06-18T21:58:25.000Z</time></trkpt>
        <trkpt lat="28.470695" lon="105.004109"><ele>884.88635</ele><time>2026-06-18T21:58:27.000Z</time></trkpt>
        <trkpt lat="28.47071" lon="105.004139"><ele>884.7855</ele><time>2026-06-18T21:58:29.000Z</time></trkpt>
        <trkpt lat="28.470721" lon="105.004168"><ele>884.36707</ele><time>2026-06-18T21:58:31.000Z</time></trkpt>
        <trkpt lat="28.470732" lon="105.004191"><ele>883.85614</ele><time>2026-06-18T21:58:33.000Z</time></trkpt>
        <trkpt lat="28.470738" lon="105.004204"><ele>883.32196</ele><time>2026-06-18T21:58:35.000Z</time></trkpt>
        <trkpt lat="28.470745" lon="105.004212"><ele>883.1017</ele><time>2026-06-18T21:58:37.000Z</time></trkpt>
        <trkpt lat="28.470753" lon="105.004227"><ele>883.1017</ele><time>2026-06-18T21:58:41.000Z</time></trkpt>
        <trkpt lat="28.470754" lon="105.004235"><ele>883.1017</ele><time>2026-06-18T21:58:43.000Z</time></trkpt>
        <trkpt lat="28.470754" lon="105.004247"><ele>883.1017</ele><time>2026-06-18T21:58:45.000Z</time></trkpt>
        <trkpt lat="28.470751" lon="105.004275"><ele>883.1017</ele><time>2026-06-18T21:58:49.000Z</time></trkpt>
        <trkpt lat="28.47075" lon="105.004287"><ele>883.39197</ele><time>2026-06-18T21:58:51.000Z</time></trkpt>
        <trkpt lat="28.47075" lon="105.0043"><ele>883.6601</ele><time>2026-06-18T21:58:53.000Z</time></trkpt>
        <trkpt lat="28.470754" lon="105.004315"><ele>883.8061</ele><time>2026-06-18T21:58:55.000Z</time></trkpt>
        <trkpt lat="28.470759" lon="105.004331"><ele>884.00287</ele><time>2026-06-18T21:58:57.000Z</time></trkpt>
        <trkpt lat="28.47076" lon="105.004347"><ele>884.1965</ele><time>2026-06-18T21:58:59.000Z</time></trkpt>
        <trkpt lat="28.470759" lon="105.004365"><ele>884.31244</ele><time>2026-06-18T21:59:01.000Z</time></trkpt>
        <trkpt lat="28.470759" lon="105.004387"><ele>884.6487</ele><time>2026-06-18T21:59:03.000Z</time></trkpt>
        <trkpt lat="28.470763" lon="105.004401"><ele>885.17773</ele><time>2026-06-18T21:59:05.000Z</time></trkpt>
        <trkpt lat="28.47077" lon="105.004418"><ele>885.6679</ele><time>2026-06-18T21:59:07.000Z</time></trkpt>
        <trkpt lat="28.470775" lon="105.00444"><ele>886.03595</ele><time>2026-06-18T21:59:09.000Z</time></trkpt>
        <trkpt lat="28.470784" lon="105.004463"><ele>886.4208</ele><time>2026-06-18T21:59:11.000Z</time></trkpt>
        <trkpt lat="28.470794" lon="105.004491"><ele>886.7812</ele><time>2026-06-18T21:59:13.000Z</time></trkpt>
        <trkpt lat="28.470801" lon="105.004523"><ele>887.2483</ele><time>2026-06-18T21:59:15.000Z</time></trkpt>
        <trkpt lat="28.470801" lon="105.004548"><ele>887.781</ele><time>2026-06-18T21:59:17.000Z</time></trkpt>
        <trkpt lat="28.470796" lon="105.004567"><ele>887.7842</ele><time>2026-06-18T21:59:19.000Z</time></trkpt>
        <trkpt lat="28.470783" lon="105.004605"><ele>887.7842</ele><time>2026-06-18T21:59:21.000Z</time></trkpt>
        <trkpt lat="28.470765" lon="105.004642"><ele>887.7842</ele><time>2026-06-18T21:59:23.000Z</time></trkpt>
        <trkpt lat="28.470745" lon="105.004683"><ele>887.7842</ele><time>2026-06-18T21:59:25.000Z</time></trkpt>
        <trkpt lat="28.470727" lon="105.004714"><ele>887.7842</ele><time>2026-06-18T21:59:27.000Z</time></trkpt>
        <trkpt lat="28.470715" lon="105.004733"><ele>887.36334</ele><time>2026-06-18T21:59:29.000Z</time></trkpt>
        <trkpt lat="28.470706" lon="105.004748"><ele>886.47284</ele><time>2026-06-18T21:59:31.000Z</time></trkpt>
        <trkpt lat="28.470701" lon="105.004764"><ele>885.7616</ele><time>2026-06-18T21:59:33.000Z</time></trkpt>
        <trkpt lat="28.4707" lon="105.004783"><ele>885.58453</ele><time>2026-06-18T21:59:35.000Z</time></trkpt>
        <trkpt lat="28.470704" lon="105.004802"><ele>885.42395</ele><time>2026-06-18T21:59:37.000Z</time></trkpt>
        <trkpt lat="28.470708" lon="105.004817"><ele>885.3199</ele><time>2026-06-18T21:59:39.000Z</time></trkpt>
        <trkpt lat="28.470713" lon="105.004833"><ele>885.1182</ele><time>2026-06-18T21:59:41.000Z</time></trkpt>
        <trkpt lat="28.470718" lon="105.004847"><ele>884.8107</ele><time>2026-06-18T21:59:43.000Z</time></trkpt>
        <trkpt lat="28.470721" lon="105.004861"><ele>884.4798</ele><time>2026-06-18T21:59:45.000Z</time></trkpt>
        <trkpt lat="28.470726" lon="105.004886"><ele>883.4128</ele><time>2026-06-18T21:59:47.000Z</time></trkpt>
        <trkpt lat="28.470727" lon="105.004908"><ele>881.80707</ele><time>2026-06-18T21:59:49.000Z</time></trkpt>
        <trkpt lat="28.470724" lon="105.004931"><ele>880.62964</ele><time>2026-06-18T21:59:51.000Z</time></trkpt>
        <trkpt lat="28.470719" lon="105.004958"><ele>879.8468</ele><time>2026-06-18T21:59:53.000Z</time></trkpt>
        <trkpt lat="28.470718" lon="105.004982"><ele>879.5445</ele><time>2026-06-18T21:59:55.000Z</time></trkpt>
        <trkpt lat="28.470723" lon="105.005"><ele>879.50854</ele><time>2026-06-18T21:59:57.000Z</time></trkpt>
        <trkpt lat="28.470728" lon="105.005013"><ele>879.50854</ele><time>2026-06-18T21:59:59.000Z</time></trkpt>
        <trkpt lat="28.470732" lon="105.005013"><ele>879.4597</ele><time>2026-06-18T22:00:01.000Z</time></trkpt>
        <trkpt lat="28.470755" lon="105.005014"><ele>879.42114</ele><time>2026-06-18T22:00:05.000Z</time></trkpt>
        <trkpt lat="28.470774" lon="105.005015"><ele>879.36365</ele><time>2026-06-18T22:00:07.000Z</time></trkpt>
        <trkpt lat="28.470792" lon="105.005018"><ele>879.3125</ele><time>2026-06-18T22:00:09.000Z</time></trkpt>
        <trkpt lat="28.470812" lon="105.00502"><ele>879.27313</ele><time>2026-06-18T22:00:11.000Z</time></trkpt>
        <trkpt lat="28.470824" lon="105.005028"><ele>878.81104</ele><time>2026-06-18T22:00:13.000Z</time></trkpt>
        <trkpt lat="28.470831" lon="105.005038"><ele>878.3374</ele><time>2026-06-18T22:00:15.000Z</time></trkpt>
        <trkpt lat="28.470841" lon="105.005049"><ele>878.1664</ele><time>2026-06-18T22:00:17.000Z</time></trkpt>
        <trkpt lat="28.470853" lon="105.005061"><ele>878.1054</ele><time>2026-06-18T22:00:19.000Z</time></trkpt>
        <trkpt lat="28.47086" lon="105.005071"><ele>878.0568</ele><time>2026-06-18T22:00:21.000Z</time></trkpt>
        <trkpt lat="28.470866" lon="105.005071"><ele>877.8392</ele><time>2026-06-18T22:00:23.000Z</time></trkpt>
        <trkpt lat="28.470915" lon="105.005076"><ele>877.8392</ele><time>2026-06-18T22:00:31.000Z</time></trkpt>
        <trkpt lat="28.470915" lon="105.005075"><ele>877.8392</ele><time>2026-06-18T22:00:33.000Z</time></trkpt>
        <trkpt lat="28.470917" lon="105.005076"><ele>877.8392</ele><time>2026-06-18T22:00:35.000Z</time></trkpt>
        <trkpt lat="28.470946" lon="105.005081"><ele>877.84686</ele><time>2026-06-18T22:00:45.000Z</time></trkpt>
        <trkpt lat="28.470946" lon="105.005081"><ele>877.85944</ele><time>2026-06-18T22:00:47.000Z</time></trkpt>
        <trkpt lat="28.470947" lon="105.005081"><ele>878.09155</ele><time>2026-06-18T22:00:49.000Z</time></trkpt>
        <trkpt lat="28.470978" lon="105.005087"><ele>878.16125</ele><time>2026-06-18T22:00:52.000Z</time></trkpt>
        <trkpt lat="28.470979" lon="105.005088"><ele>879.2342</ele><time>2026-06-18T22:00:54.000Z</time></trkpt>
        <trkpt lat="28.47098" lon="105.00509"><ele>880.24</ele><time>2026-06-18T22:00:56.000Z</time></trkpt>
        <trkpt lat="28.470993" lon="105.00512"><ele>880.27234</ele><time>2026-06-18T22:01:00.000Z</time></trkpt>
        <trkpt lat="28.471001" lon="105.005141"><ele>880.9906</ele><time>2026-06-18T22:01:02.000Z</time></trkpt>
        <trkpt lat="28.471008" lon="105.005163"><ele>881.67755</ele><time>2026-06-18T22:01:04.000Z</time></trkpt>
        <trkpt lat="28.47102" lon="105.005191"><ele>881.70264</ele><time>2026-06-18T22:01:06.000Z</time></trkpt>
        <trkpt lat="28.471033" lon="105.005211"><ele>882.1861</ele><time>2026-06-18T22:01:08.000Z</time></trkpt>
        <trkpt lat="28.471047" lon="105.005231"><ele>882.80005</ele><time>2026-06-18T22:01:10.000Z</time></trkpt>
        <trkpt lat="28.471061" lon="105.005247"><ele>882.9925</ele><time>2026-06-18T22:01:12.000Z</time></trkpt>
        <trkpt lat="28.471073" lon="105.005259"><ele>883.2431</ele><time>2026-06-18T22:01:14.000Z</time></trkpt>
        <trkpt lat="28.471088" lon="105.00527"><ele>883.5394</ele><time>2026-06-18T22:01:16.000Z</time></trkpt>
        <trkpt lat="28.471106" lon="105.005278"><ele>883.5394</ele><time>2026-06-18T22:01:18.000Z</time></trkpt>
        <trkpt lat="28.471121" lon="105.005284"><ele>883.5394</ele><time>2026-06-18T22:01:20.000Z</time></trkpt>
        <trkpt lat="28.471146" lon="105.005292"><ele>883.5394</ele><time>2026-06-18T22:01:22.000Z</time></trkpt>
        <trkpt lat="28.471171" lon="105.005292"><ele>883.5394</ele><time>2026-06-18T22:01:24.000Z</time></trkpt>
        <trkpt lat="28.471189" lon="105.005285"><ele>883.08966</ele><time>2026-06-18T22:01:26.000Z</time></trkpt>
        <trkpt lat="28.471206" lon="105.005272"><ele>881.4606</ele><time>2026-06-18T22:01:28.000Z</time></trkpt>
        <trkpt lat="28.471218" lon="105.005258"><ele>880.415</ele><time>2026-06-18T22:01:30.000Z</time></trkpt>
        <trkpt lat="28.471228" lon="105.005243"><ele>880.415</ele><time>2026-06-18T22:01:32.000Z</time></trkpt>
        <trkpt lat="28.471243" lon="105.005226"><ele>880.415</ele><time>2026-06-18T22:01:34.000Z</time></trkpt>
        <trkpt lat="28.471258" lon="105.005213"><ele>880.415</ele><time>2026-06-18T22:01:36.000Z</time></trkpt>
        <trkpt lat="28.471273" lon="105.005206"><ele>880.415</ele><time>2026-06-18T22:01:38.000Z</time></trkpt>
        <trkpt lat="28.471286" lon="105.005202"><ele>880.6805</ele><time>2026-06-18T22:01:40.000Z</time></trkpt>
        <trkpt lat="28.471296" lon="105.005203"><ele>881.0959</ele><time>2026-06-18T22:01:42.000Z</time></trkpt>
        <trkpt lat="28.471308" lon="105.005203"><ele>881.0959</ele><time>2026-06-18T22:01:44.000Z</time></trkpt>
        <trkpt lat="28.471319" lon="105.005202"><ele>881.0959</ele><time>2026-06-18T22:01:46.000Z</time></trkpt>
        <trkpt lat="28.471333" lon="105.005198"><ele>881.0959</ele><time>2026-06-18T22:01:48.000Z</time></trkpt>
        <trkpt lat="28.471343" lon="105.005189"><ele>881.0959</ele><time>2026-06-18T22:01:50.000Z</time></trkpt>
        <trkpt lat="28.471354" lon="105.005176"><ele>881.05853</ele><time>2026-06-18T22:01:52.000Z</time></trkpt>
        <trkpt lat="28.471366" lon="105.005161"><ele>880.6327</ele><time>2026-06-18T22:01:54.000Z</time></trkpt>
        <trkpt lat="28.471378" lon="105.005144"><ele>880.3387</ele><time>2026-06-18T22:01:56.000Z</time></trkpt>
        <trkpt lat="28.47139" lon="105.005123"><ele>880.23315</ele><time>2026-06-18T22:01:58.000Z</time></trkpt>
        <trkpt lat="28.4714" lon="105.005104"><ele>880.2222</ele><time>2026-06-18T22:02:00.000Z</time></trkpt>
        <trkpt lat="28.471408" lon="105.005089"><ele>880.2074</ele><time>2026-06-18T22:02:02.000Z</time></trkpt>
        <trkpt lat="28.471418" lon="105.005071"><ele>880.1711</ele><time>2026-06-18T22:02:04.000Z</time></trkpt>
        <trkpt lat="28.471427" lon="105.005052"><ele>880.1387</ele><time>2026-06-18T22:02:06.000Z</time></trkpt>
        <trkpt lat="28.471436" lon="105.005031"><ele>880.1349</ele><time>2026-06-18T22:02:08.000Z</time></trkpt>
        <trkpt lat="28.471447" lon="105.005012"><ele>880.10236</ele><time>2026-06-18T22:02:10.000Z</time></trkpt>
        <trkpt lat="28.471458" lon="105.004997"><ele>880.0476</ele><time>2026-06-18T22:02:12.000Z</time></trkpt>
        <trkpt lat="28.471469" lon="105.004986"><ele>879.88</ele><time>2026-06-18T22:02:14.000Z</time></trkpt>
        <trkpt lat="28.471481" lon="105.004976"><ele>879.61945</ele><time>2026-06-18T22:02:16.000Z</time></trkpt>
        <trkpt lat="28.471494" lon="105.004968"><ele>879.3658</ele><time>2026-06-18T22:02:18.000Z</time></trkpt>
        <trkpt lat="28.471506" lon="105.004962"><ele>879.2779</ele><time>2026-06-18T22:02:20.000Z</time></trkpt>
        <trkpt lat="28.47152" lon="105.004955"><ele>879.2779</ele><time>2026-06-18T22:02:22.000Z</time></trkpt>
        <trkpt lat="28.471525" lon="105.004949"><ele>879.2779</ele><time>2026-06-18T22:02:24.000Z</time></trkpt>
        <trkpt lat="28.471535" lon="105.004938"><ele>879.2779</ele><time>2026-06-18T22:02:28.000Z</time></trkpt>
        <trkpt lat="28.47155" lon="105.004987"><ele>879.2779</ele><time>2026-06-18T22:02:46.000Z</time></trkpt>
        <trkpt lat="28.471518" lon="105.005153"><ele>879.57214</ele><time>2026-06-18T22:02:58.000Z</time></trkpt>
        <trkpt lat="28.471518" lon="105.005153"><ele>880.04694</ele><time>2026-06-18T22:03:00.000Z</time></trkpt>
        <trkpt lat="28.471516" lon="105.005156"><ele>880.90784</ele><time>2026-06-18T22:03:02.000Z</time></trkpt>
        <trkpt lat="28.471491" lon="105.005202"><ele>881.2662</ele><time>2026-06-18T22:03:06.000Z</time></trkpt>
        <trkpt lat="28.47147" lon="105.005234"><ele>881.2662</ele><time>2026-06-18T22:03:08.000Z</time></trkpt>
        <trkpt lat="28.471449" lon="105.005265"><ele>881.2662</ele><time>2026-06-18T22:03:10.000Z</time></trkpt>
        <trkpt lat="28.471426" lon="105.00529"><ele>881.2662</ele><time>2026-06-18T22:03:12.000Z</time></trkpt>
        <trkpt lat="28.471404" lon="105.00531"><ele>881.2662</ele><time>2026-06-18T22:03:14.000Z</time></trkpt>
        <trkpt lat="28.471384" lon="105.005326"><ele>880.8128</ele><time>2026-06-18T22:03:16.000Z</time></trkpt>
        <trkpt lat="28.471364" lon="105.005338"><ele>880.3296</ele><time>2026-06-18T22:03:18.000Z</time></trkpt>
        <trkpt lat="28.471345" lon="105.005348"><ele>879.8481</ele><time>2026-06-18T22:03:20.000Z</time></trkpt>
        <trkpt lat="28.471334" lon="105.005353"><ele>879.6601</ele><time>2026-06-18T22:03:22.000Z</time></trkpt>
        <trkpt lat="28.471334" lon="105.005353"><ele>879.64685</ele><time>2026-06-18T22:03:24.000Z</time></trkpt>
        <trkpt lat="28.471352" lon="105.005391"><ele>879.5236</ele><time>2026-06-18T22:03:30.000Z</time></trkpt>
        <trkpt lat="28.471357" lon="105.00541"><ele>879.4004</ele><time>2026-06-18T22:03:32.000Z</time></trkpt>
        <trkpt lat="28.471355" lon="105.005428"><ele>879.115</ele><time>2026-06-18T22:03:34.000Z</time></trkpt>
        <trkpt lat="28.471348" lon="105.005445"><ele>878.5722</ele><time>2026-06-18T22:03:36.000Z</time></trkpt>
        <trkpt lat="28.47134" lon="105.005466"><ele>877.69696</ele><time>2026-06-18T22:03:38.000Z</time></trkpt>
        <trkpt lat="28.471325" lon="105.005494"><ele>876.91364</ele><time>2026-06-18T22:03:40.000Z</time></trkpt>
        <trkpt lat="28.471306" lon="105.005521"><ele>876.73834</ele><time>2026-06-18T22:03:42.000Z</time></trkpt>
        <trkpt lat="28.471289" lon="105.005542"><ele>876.73834</ele><time>2026-06-18T22:03:44.000Z</time></trkpt>
        <trkpt lat="28.471272" lon="105.005565"><ele>876.73834</ele><time>2026-06-18T22:03:46.000Z</time></trkpt>
        <trkpt lat="28.471261" lon="105.005586"><ele>876.73834</ele><time>2026-06-18T22:03:48.000Z</time></trkpt>
        <trkpt lat="28.471253" lon="105.005609"><ele>876.68317</ele><time>2026-06-18T22:03:50.000Z</time></trkpt>
        <trkpt lat="28.471243" lon="105.005627"><ele>876.53186</ele><time>2026-06-18T22:03:52.000Z</time></trkpt>
        <trkpt lat="28.471235" lon="105.00565"><ele>876.53186</ele><time>2026-06-18T22:03:54.000Z</time></trkpt>
        <trkpt lat="28.471235" lon="105.005665"><ele>876.53186</ele><time>2026-06-18T22:03:56.000Z</time></trkpt>
        <trkpt lat="28.471239" lon="105.00568"><ele>876.53186</ele><time>2026-06-18T22:03:58.000Z</time></trkpt>
        <trkpt lat="28.471247" lon="105.005696"><ele>876.53186</ele><time>2026-06-18T22:04:00.000Z</time></trkpt>
        <trkpt lat="28.471255" lon="105.005705"><ele>876.25745</ele><time>2026-06-18T22:04:02.000Z</time></trkpt>
        <trkpt lat="28.471266" lon="105.005717"><ele>875.9274</ele><time>2026-06-18T22:04:04.000Z</time></trkpt>
        <trkpt lat="28.471276" lon="105.005733"><ele>875.6767</ele><time>2026-06-18T22:04:06.000Z</time></trkpt>
        <trkpt lat="28.471284" lon="105.005747"><ele>875.64545</ele><time>2026-06-18T22:04:08.000Z</time></trkpt>
        <trkpt lat="28.471289" lon="105.005754"><ele>875.55835</ele><time>2026-06-18T22:04:10.000Z</time></trkpt>
        <trkpt lat="28.471314" lon="105.005787"><ele>875.50934</ele><time>2026-06-18T22:04:24.000Z</time></trkpt>
        <trkpt lat="28.471314" lon="105.005787"><ele>875.4854</ele><time>2026-06-18T22:04:26.000Z</time></trkpt>
        <trkpt lat="28.471314" lon="105.005788"><ele>875.48267</ele><time>2026-06-18T22:04:28.000Z</time></trkpt>
        <trkpt lat="28.471343" lon="105.005817"><ele>875.48267</ele><time>2026-06-18T22:04:36.000Z</time></trkpt>
        <trkpt lat="28.471343" lon="105.005817"><ele>875.50726</ele><time>2026-06-18T22:04:38.000Z</time></trkpt>
        <trkpt lat="28.471346" lon="105.005819"><ele>875.51514</ele><time>2026-06-18T22:04:40.000Z</time></trkpt>
        <trkpt lat="28.471382" lon="105.005842"><ele>875.54767</ele><time>2026-06-18T22:04:44.000Z</time></trkpt>
        <trkpt lat="28.471407" lon="105.005855"><ele>875.54767</ele><time>2026-06-18T22:04:46.000Z</time></trkpt>
        <trkpt lat="28.471431" lon="105.005866"><ele>875.54767</ele><time>2026-06-18T22:04:48.000Z</time></trkpt>
        <trkpt lat="28.471451" lon="105.005874"><ele>875.5654</ele><time>2026-06-18T22:04:50.000Z</time></trkpt>
        <trkpt lat="28.471471" lon="105.005883"><ele>875.70447</ele><time>2026-06-18T22:04:52.000Z</time></trkpt>
        <trkpt lat="28.47149" lon="105.005895"><ele>875.9819</ele><time>2026-06-18T22:04:54.000Z</time></trkpt>
        <trkpt lat="28.471505" lon="105.005905"><ele>876.3707</ele><time>2026-06-18T22:04:56.000Z</time></trkpt>
        <trkpt lat="28.471522" lon="105.005918"><ele>876.89624</ele><time>2026-06-18T22:04:58.000Z</time></trkpt>
        <trkpt lat="28.471531" lon="105.005929"><ele>877.5716</ele><time>2026-06-18T22:05:00.000Z</time></trkpt>
        <trkpt lat="28.471533" lon="105.005934"><ele>878.332</ele><time>2026-06-18T22:05:02.000Z</time></trkpt>
        <trkpt lat="28.471536" lon="105.005956"><ele>878.93945</ele><time>2026-06-18T22:05:08.000Z</time></trkpt>
        <trkpt lat="28.471538" lon="105.005972"><ele>879.4774</ele><time>2026-06-18T22:05:10.000Z</time></trkpt>
        <trkpt lat="28.471542" lon="105.005994"><ele>880.0314</ele><time>2026-06-18T22:05:12.000Z</time></trkpt>
        <trkpt lat="28.471543" lon="105.006003"><ele>880.465</ele><time>2026-06-18T22:05:14.000Z</time></trkpt>
        <trkpt lat="28.471546" lon="105.006016"><ele>881.53796</ele><time>2026-06-18T22:05:16.000Z</time></trkpt>
        <trkpt lat="28.47155" lon="105.006032"><ele>882.52716</ele><time>2026-06-18T22:05:18.000Z</time></trkpt>
        <trkpt lat="28.471554" lon="105.006046"><ele>882.66003</ele><time>2026-06-18T22:05:20.000Z</time></trkpt>
        <trkpt lat="28.471561" lon="105.006053"><ele>882.7283</ele><time>2026-06-18T22:05:22.000Z</time></trkpt>
        <trkpt lat="28.471503" lon="105.005997"><ele>882.7283</ele><time>2026-06-18T22:05:29.000Z</time></trkpt>
        <trkpt lat="28.471503" lon="105.005997"><ele>882.7283</ele><time>2026-06-18T22:05:31.000Z</time></trkpt>
        <trkpt lat="28.471501" lon="105.005997"><ele>882.7283</ele><time>2026-06-18T22:05:33.000Z</time></trkpt>
        <trkpt lat="28.471408" lon="105.00601"><ele>882.7748</ele><time>2026-06-18T22:05:47.000Z</time></trkpt>
        <trkpt lat="28.471408" lon="105.00601"><ele>882.79675</ele><time>2026-06-18T22:05:49.000Z</time></trkpt>
        <trkpt lat="28.471405" lon="105.006011"><ele>882.8881</ele><time>2026-06-18T22:05:51.000Z</time></trkpt>
        <trkpt lat="28.471369" lon="105.006022"><ele>883.2315</ele><time>2026-06-18T22:05:55.000Z</time></trkpt>
        <trkpt lat="28.471345" lon="105.006032"><ele>884.0042</ele><time>2026-06-18T22:05:57.000Z</time></trkpt>
        <trkpt lat="28.471324" lon="105.006039"><ele>884.5108</ele><time>2026-06-18T22:05:59.000Z</time></trkpt>
        <trkpt lat="28.471313" lon="105.006042"><ele>884.51843</ele><time>2026-06-18T22:06:01.000Z</time></trkpt>
        <trkpt lat="28.471311" lon="105.006042"><ele>884.6604</ele><time>2026-06-18T22:06:03.000Z</time></trkpt>
        <trkpt lat="28.47138" lon="105.006048"><ele>884.6604</ele><time>2026-06-18T22:06:13.000Z</time></trkpt>
        <trkpt lat="28.471382" lon="105.00605"><ele>884.6604</ele><time>2026-06-18T22:06:20.000Z</time></trkpt>
        <trkpt lat="28.471383" lon="105.006054"><ele>884.6604</ele><time>2026-06-18T22:06:22.000Z</time></trkpt>
        <trkpt lat="28.4714" lon="105.0061"><ele>884.6604</ele><time>2026-06-18T22:06:32.000Z</time></trkpt>
        <trkpt lat="28.4714" lon="105.0061"><ele>883.63196</ele><time>2026-06-18T22:06:34.000Z</time></trkpt>
        <trkpt lat="28.471342" lon="105.006039"><ele>882.18616</ele><time>2026-06-18T22:06:41.000Z</time></trkpt>
        <trkpt lat="28.471293" lon="105.006025"><ele>881.76154</ele><time>2026-06-18T22:06:51.000Z</time></trkpt>
        <trkpt lat="28.471293" lon="105.006025"><ele>881.6191</ele><time>2026-06-18T22:06:53.000Z</time></trkpt>
        <trkpt lat="28.471293" lon="105.006025"><ele>881.5805</ele><time>2026-06-18T22:06:55.000Z</time></trkpt>
        <trkpt lat="28.47126" lon="105.006039"><ele>881.5805</ele><time>2026-06-18T22:07:07.000Z</time></trkpt>
        <trkpt lat="28.471228" lon="105.006053"><ele>881.5805</ele><time>2026-06-18T22:07:15.000Z</time></trkpt>
        <trkpt lat="28.471228" lon="105.006053"><ele>881.5805</ele><time>2026-06-18T22:07:17.000Z</time></trkpt>
        <trkpt lat="28.471229" lon="105.006051"><ele>881.6191</ele><time>2026-06-18T22:07:19.000Z</time></trkpt>
        <trkpt lat="28.471248" lon="105.006006"><ele>882.3238</ele><time>2026-06-18T22:07:25.000Z</time></trkpt>
        <trkpt lat="28.471249" lon="105.005994"><ele>883.03864</ele><time>2026-06-18T22:07:27.000Z</time></trkpt>
        <trkpt lat="28.47125" lon="105.005984"><ele>883.0482</ele><time>2026-06-18T22:07:29.000Z</time></trkpt>
        <trkpt lat="28.471239" lon="105.006053"><ele>883.0482</ele><time>2026-06-18T22:07:48.000Z</time></trkpt>
        <trkpt lat="28.471239" lon="105.006053"><ele>883.0482</ele><time>2026-06-18T22:07:50.000Z</time></trkpt>
        <trkpt lat="28.471238" lon="105.006055"><ele>883.0482</ele><time>2026-06-18T22:07:52.000Z</time></trkpt>
        <trkpt lat="28.471211" lon="105.006077"><ele>883.03864</ele><time>2026-06-18T22:07:56.000Z</time></trkpt>
        <trkpt lat="28.471195" lon="105.00608"><ele>882.61896</ele><time>2026-06-18T22:07:58.000Z</time></trkpt>
        <trkpt lat="28.471179" lon="105.00608"><ele>882.2634</ele><time>2026-06-18T22:08:00.000Z</time></trkpt>
        <trkpt lat="28.471171" lon="105.006076"><ele>882.2634</ele><time>2026-06-18T22:08:02.000Z</time></trkpt>
        <trkpt lat="28.471167" lon="105.006077"><ele>882.2634</ele><time>2026-06-18T22:08:04.000Z</time></trkpt>
        <trkpt lat="28.471209" lon="105.006058"><ele>882.2634</ele><time>2026-06-18T22:08:53.000Z</time></trkpt>
        <trkpt lat="28.471213" lon="105.006053"><ele>882.2634</ele><time>2026-06-18T22:08:55.000Z</time></trkpt>
        <trkpt lat="28.471213" lon="105.006052"><ele>882.5626</ele><time>2026-06-18T22:08:57.000Z</time></trkpt>
        <trkpt lat="28.471199" lon="105.006094"><ele>883.08887</ele><time>2026-06-18T22:09:32.000Z</time></trkpt>
        <trkpt lat="28.471195" lon="105.006081"><ele>883.86426</ele><time>2026-06-18T22:09:47.000Z</time></trkpt>
        <trkpt lat="28.471196" lon="105.006081"><ele>884.3727</ele><time>2026-06-18T22:10:02.000Z</time></trkpt>
        <trkpt lat="28.471152" lon="105.006088"><ele>884.4146</ele><time>2026-06-18T22:10:24.000Z</time></trkpt>
        <trkpt lat="28.471143" lon="105.006089"><ele>884.56903</ele><time>2026-06-18T22:10:26.000Z</time></trkpt>
        <trkpt lat="28.471143" lon="105.00609"><ele>884.76355</ele><time>2026-06-18T22:10:28.000Z</time></trkpt>
        <trkpt lat="28.471209" lon="105.006082"><ele>885.2615</ele><time>2026-06-18T22:10:36.000Z</time></trkpt>
        <trkpt lat="28.471231" lon="105.006077"><ele>885.6329</ele><time>2026-06-18T22:10:38.000Z</time></trkpt>
        <trkpt lat="28.471254" lon="105.006069"><ele>885.6329</ele><time>2026-06-18T22:10:40.000Z</time></trkpt>
        <trkpt lat="28.471271" lon="105.006058"><ele>885.6329</ele><time>2026-06-18T22:10:42.000Z</time></trkpt>
        <trkpt lat="28.471284" lon="105.006044"><ele>885.3424</ele><time>2026-06-18T22:10:44.000Z</time></trkpt>
        <trkpt lat="28.471292" lon="105.006035"><ele>885.3424</ele><time>2026-06-18T22:10:46.000Z</time></trkpt>
        <trkpt lat="28.471293" lon="105.006029"><ele>885.3424</ele><time>2026-06-18T22:10:48.000Z</time></trkpt>
        <trkpt lat="28.471289" lon="105.006015"><ele>884.7275</ele><time>2026-06-18T22:10:54.000Z</time></trkpt>
        <trkpt lat="28.471284" lon="105.006002"><ele>884.09143</ele><time>2026-06-18T22:10:58.000Z</time></trkpt>
        <trkpt lat="28.471282" lon="105.006002"><ele>883.6416</ele><time>2026-06-18T22:11:00.000Z</time></trkpt>
        <trkpt lat="28.471359" lon="105.005992"><ele>883.25226</ele><time>2026-06-18T22:11:14.000Z</time></trkpt>
        <trkpt lat="28.471359" lon="105.005992"><ele>882.8918</ele><time>2026-06-18T22:11:16.000Z</time></trkpt>
        <trkpt lat="28.47136" lon="105.005992"><ele>882.7187</ele><time>2026-06-18T22:11:18.000Z</time></trkpt>
        <trkpt lat="28.4714" lon="105.005979"><ele>882.6939</ele><time>2026-06-18T22:11:24.000Z</time></trkpt>
        <trkpt lat="28.471419" lon="105.005973"><ele>881.7751</ele><time>2026-06-18T22:11:26.000Z</time></trkpt>
        <trkpt lat="28.471434" lon="105.005968"><ele>880.87524</ele><time>2026-06-18T22:11:28.000Z</time></trkpt>
        <trkpt lat="28.471448" lon="105.005965"><ele>880.8331</ele><time>2026-06-18T22:11:30.000Z</time></trkpt>
        <trkpt lat="28.471462" lon="105.005962"><ele>880.5297</ele><time>2026-06-18T22:11:32.000Z</time></trkpt>
        <trkpt lat="28.471472" lon="105.005958"><ele>880.1729</ele><time>2026-06-18T22:11:34.000Z</time></trkpt>
        <trkpt lat="28.471478" lon="105.005949"><ele>880.00995</ele><time>2026-06-18T22:11:36.000Z</time></trkpt>
        <trkpt lat="28.471475" lon="105.005944"><ele>879.8925</ele><time>2026-06-18T22:11:38.000Z</time></trkpt>
        <trkpt lat="28.471456" lon="105.005925"><ele>879.8204</ele><time>2026-06-18T22:11:42.000Z</time></trkpt>
        <trkpt lat="28.471432" lon="105.005912"><ele>879.7344</ele><time>2026-06-18T22:11:44.000Z</time></trkpt>
        <trkpt lat="28.47141" lon="105.005903"><ele>879.45844</ele><time>2026-06-18T22:11:46.000Z</time></trkpt>
        <trkpt lat="28.471385" lon="105.005893"><ele>879.03394</ele><time>2026-06-18T22:11:48.000Z</time></trkpt>
        <trkpt lat="28.471364" lon="105.005886"><ele>878.36163</ele><time>2026-06-18T22:11:50.000Z</time></trkpt>
        <trkpt lat="28.471341" lon="105.005878"><ele>877.86456</ele><time>2026-06-18T22:11:52.000Z</time></trkpt>
        <trkpt lat="28.471323" lon="105.005867"><ele>877.81165</ele><time>2026-06-18T22:11:54.000Z</time></trkpt>
        <trkpt lat="28.471309" lon="105.005852"><ele>877.7087</ele><time>2026-06-18T22:11:56.000Z</time></trkpt>
        <trkpt lat="28.471297" lon="105.005831"><ele>877.5407</ele><time>2026-06-18T22:11:58.000Z</time></trkpt>
        <trkpt lat="28.471288" lon="105.005804"><ele>877.4565</ele><time>2026-06-18T22:12:00.000Z</time></trkpt>
        <trkpt lat="28.47128" lon="105.005768"><ele>877.34436</ele><time>2026-06-18T22:12:02.000Z</time></trkpt>
        <trkpt lat="28.471276" lon="105.005736"><ele>877.05133</ele><time>2026-06-18T22:12:04.000Z</time></trkpt>
        <trkpt lat="28.471275" lon="105.005704"><ele>876.57117</ele><time>2026-06-18T22:12:06.000Z</time></trkpt>
        <trkpt lat="28.471277" lon="105.005667"><ele>876.03156</ele><time>2026-06-18T22:12:08.000Z</time></trkpt>
        <trkpt lat="28.47128" lon="105.005636"><ele>875.652</ele><time>2026-06-18T22:12:10.000Z</time></trkpt>
        <trkpt lat="28.471282" lon="105.005603"><ele>875.4447</ele><time>2026-06-18T22:12:12.000Z</time></trkpt>
        <trkpt lat="28.471284" lon="105.005579"><ele>875.4447</ele><time>2026-06-18T22:12:14.000Z</time></trkpt>
        <trkpt lat="28.471289" lon="105.005556"><ele>875.4447</ele><time>2026-06-18T22:12:16.000Z</time></trkpt>
        <trkpt lat="28.471295" lon="105.005538"><ele>875.3825</ele><time>2026-06-18T22:12:18.000Z</time></trkpt>
        <trkpt lat="28.471307" lon="105.005516"><ele>875.3825</ele><time>2026-06-18T22:12:20.000Z</time></trkpt>
        <trkpt lat="28.47132" lon="105.005494"><ele>875.3825</ele><time>2026-06-18T22:12:22.000Z</time></trkpt>
        <trkpt lat="28.471333" lon="105.005472"><ele>875.3982</ele><time>2026-06-18T22:12:24.000Z</time></trkpt>
        <trkpt lat="28.471346" lon="105.005452"><ele>875.3982</ele><time>2026-06-18T22:12:26.000Z</time></trkpt>
        <trkpt lat="28.471359" lon="105.005431"><ele>875.3982</ele><time>2026-06-18T22:12:28.000Z</time></trkpt>
        <trkpt lat="28.471373" lon="105.005409"><ele>875.3982</ele><time>2026-06-18T22:12:30.000Z</time></trkpt>
        <trkpt lat="28.471385" lon="105.005389"><ele>875.3982</ele><time>2026-06-18T22:12:32.000Z</time></trkpt>
        <trkpt lat="28.471393" lon="105.00537"><ele>875.2696</ele><time>2026-06-18T22:12:34.000Z</time></trkpt>
        <trkpt lat="28.471398" lon="105.005349"><ele>874.9209</ele><time>2026-06-18T22:12:36.000Z</time></trkpt>
        <trkpt lat="28.471402" lon="105.005325"><ele>874.51733</ele><time>2026-06-18T22:12:38.000Z</time></trkpt>
        <trkpt lat="28.471402" lon="105.0053"><ele>874.33844</ele><time>2026-06-18T22:12:40.000Z</time></trkpt>
        <trkpt lat="28.471405" lon="105.005272"><ele>874.33844</ele><time>2026-06-18T22:12:42.000Z</time></trkpt>
        <trkpt lat="28.471409" lon="105.00525"><ele>874.33844</ele><time>2026-06-18T22:12:44.000Z</time></trkpt>
        <trkpt lat="28.471414" lon="105.00523"><ele>874.33844</ele><time>2026-06-18T22:12:46.000Z</time></trkpt>
        <trkpt lat="28.471423" lon="105.005211"><ele>874.33844</ele><time>2026-06-18T22:12:48.000Z</time></trkpt>
        <trkpt lat="28.471437" lon="105.005193"><ele>874.35455</ele><time>2026-06-18T22:12:50.000Z</time></trkpt>
        <trkpt lat="28.471454" lon="105.005173"><ele>874.48773</ele><time>2026-06-18T22:12:52.000Z</time></trkpt>
        <trkpt lat="28.471473" lon="105.005151"><ele>874.6126</ele><time>2026-06-18T22:12:54.000Z</time></trkpt>
        <trkpt lat="28.471487" lon="105.005128"><ele>874.734</ele><time>2026-06-18T22:12:56.000Z</time></trkpt>
        <trkpt lat="28.47149" lon="105.005112"><ele>875.0901</ele><time>2026-06-18T22:12:58.000Z</time></trkpt>
        <trkpt lat="28.471487" lon="105.005106"><ele>875.3625</ele><time>2026-06-18T22:13:00.000Z</time></trkpt>
        <trkpt lat="28.471477" lon="105.005096"><ele>875.3625</ele><time>2026-06-18T22:13:02.000Z</time></trkpt>
        <trkpt lat="28.471462" lon="105.005084"><ele>875.3625</ele><time>2026-06-18T22:13:04.000Z</time></trkpt>
        <trkpt lat="28.47145" lon="105.005076"><ele>875.4358</ele><time>2026-06-18T22:13:06.000Z</time></trkpt>
        <trkpt lat="28.47145" lon="105.005074"><ele>875.55426</ele><time>2026-06-18T22:13:08.000Z</time></trkpt>
        <trkpt lat="28.471447" lon="105.005111"><ele>875.7525</ele><time>2026-06-18T22:13:20.000Z</time></trkpt>
        <trkpt lat="28.471448" lon="105.005117"><ele>875.88745</ele><time>2026-06-18T22:13:22.000Z</time></trkpt>
        <trkpt lat="28.471449" lon="105.005121"><ele>875.95264</ele><time>2026-06-18T22:13:24.000Z</time></trkpt>
        <trkpt lat="28.471457" lon="105.005151"><ele>876.27606</ele><time>2026-06-18T22:13:34.000Z</time></trkpt>
        <trkpt lat="28.471414" lon="105.005225"><ele>877.694</ele><time>2026-06-18T22:13:39.000Z</time></trkpt>
        <trkpt lat="28.471414" lon="105.005225"><ele>878.78174</ele><time>2026-06-18T22:13:41.000Z</time></trkpt>
        <trkpt lat="28.471411" lon="105.005228"><ele>878.8687</ele><time>2026-06-18T22:13:43.000Z</time></trkpt>
        <trkpt lat="28.471373" lon="105.005268"><ele>878.9047</ele><time>2026-06-18T22:13:47.000Z</time></trkpt>
        <trkpt lat="28.471345" lon="105.005295"><ele>878.9122</ele><time>2026-06-18T22:13:49.000Z</time></trkpt>
        <trkpt lat="28.471319" lon="105.005321"><ele>878.9122</ele><time>2026-06-18T22:13:51.000Z</time></trkpt>
        <trkpt lat="28.471292" lon="105.005346"><ele>878.9047</ele><time>2026-06-18T22:13:53.000Z</time></trkpt>
        <trkpt lat="28.471266" lon="105.005368"><ele>878.9047</ele><time>2026-06-18T22:13:55.000Z</time></trkpt>
        <trkpt lat="28.471241" lon="105.005385"><ele>878.9073</ele><time>2026-06-18T22:13:57.000Z</time></trkpt>
        <trkpt lat="28.471217" lon="105.005402"><ele>878.9073</ele><time>2026-06-18T22:13:59.000Z</time></trkpt>
        <trkpt lat="28.471196" lon="105.005416"><ele>878.89996</ele><time>2026-06-18T22:14:01.000Z</time></trkpt>
        <trkpt lat="28.471175" lon="105.00543"><ele>878.88055</ele><time>2026-06-18T22:14:03.000Z</time></trkpt>
        <trkpt lat="28.47115" lon="105.005437"><ele>878.7867</ele><time>2026-06-18T22:14:05.000Z</time></trkpt>
        <trkpt lat="28.471146" lon="105.005434"><ele>878.6689</ele><time>2026-06-18T22:14:07.000Z</time></trkpt>
        <trkpt lat="28.471146" lon="105.005431"><ele>878.6262</ele><time>2026-06-18T22:14:09.000Z</time></trkpt>
        <trkpt lat="28.471147" lon="105.005393"><ele>878.6209</ele><time>2026-06-18T22:14:13.000Z</time></trkpt>
        <trkpt lat="28.471143" lon="105.005384"><ele>878.35406</ele><time>2026-06-18T22:14:15.000Z</time></trkpt>
        <trkpt lat="28.471142" lon="105.005385"><ele>877.5252</ele><time>2026-06-18T22:14:17.000Z</time></trkpt>
        <trkpt lat="28.471104" lon="105.005398"><ele>876.5404</ele><time>2026-06-18T22:14:21.000Z</time></trkpt>
        <trkpt lat="28.471083" lon="105.005406"><ele>875.638</ele><time>2026-06-18T22:14:23.000Z</time></trkpt>
        <trkpt lat="28.47106" lon="105.005415"><ele>875.1601</ele><time>2026-06-18T22:14:25.000Z</time></trkpt>
        <trkpt lat="28.471036" lon="105.005424"><ele>875.1495</ele><time>2026-06-18T22:14:27.000Z</time></trkpt>
        <trkpt lat="28.471013" lon="105.005433"><ele>875.11316</ele><time>2026-06-18T22:14:29.000Z</time></trkpt>
        <trkpt lat="28.470989" lon="105.005442"><ele>875.099</ele><time>2026-06-18T22:14:31.000Z</time></trkpt>
        <trkpt lat="28.470966" lon="105.005451"><ele>875.0876</ele><time>2026-06-18T22:14:33.000Z</time></trkpt>
        <trkpt lat="28.470946" lon="105.005459"><ele>875.0611</ele><time>2026-06-18T22:14:35.000Z</time></trkpt>
        <trkpt lat="28.470926" lon="105.005468"><ele>875.0611</ele><time>2026-06-18T22:14:37.000Z</time></trkpt>
        <trkpt lat="28.470906" lon="105.005477"><ele>875.0016</ele><time>2026-06-18T22:14:39.000Z</time></trkpt>
        <trkpt lat="28.470883" lon="105.005486"><ele>874.9475</ele><time>2026-06-18T22:14:41.000Z</time></trkpt>
        <trkpt lat="28.47086" lon="105.005498"><ele>874.9475</ele><time>2026-06-18T22:14:43.000Z</time></trkpt>
        <trkpt lat="28.470837" lon="105.005513"><ele>875.02234</ele><time>2026-06-18T22:14:45.000Z</time></trkpt>
        <trkpt lat="28.470812" lon="105.00553"><ele>875.0876</ele><time>2026-06-18T22:14:47.000Z</time></trkpt>
        <trkpt lat="28.470789" lon="105.005541"><ele>875.10474</ele><time>2026-06-18T22:14:49.000Z</time></trkpt>
        <trkpt lat="28.47077" lon="105.005547"><ele>875.32697</ele><time>2026-06-18T22:14:51.000Z</time></trkpt>
        <trkpt lat="28.470744" lon="105.005553"><ele>875.8977</ele><time>2026-06-18T22:14:53.000Z</time></trkpt>
        <trkpt lat="28.470715" lon="105.005556"><ele>876.2445</ele><time>2026-06-18T22:14:55.000Z</time></trkpt>
        <trkpt lat="28.470689" lon="105.005559"><ele>876.2842</ele><time>2026-06-18T22:14:57.000Z</time></trkpt>
        <trkpt lat="28.470664" lon="105.005564"><ele>876.3433</ele><time>2026-06-18T22:14:59.000Z</time></trkpt>
        <trkpt lat="28.470639" lon="105.005569"><ele>876.42633</ele><time>2026-06-18T22:15:01.000Z</time></trkpt>
        <trkpt lat="28.470611" lon="105.005573"><ele>876.568</ele><time>2026-06-18T22:15:03.000Z</time></trkpt>
        <trkpt lat="28.470582" lon="105.005578"><ele>876.568</ele><time>2026-06-18T22:15:05.000Z</time></trkpt>
        <trkpt lat="28.470555" lon="105.005583"><ele>876.42633</ele><time>2026-06-18T22:15:07.000Z</time></trkpt>
        <trkpt lat="28.470533" lon="105.005591"><ele>876.3433</ele><time>2026-06-18T22:15:09.000Z</time></trkpt>
        <trkpt lat="28.470517" lon="105.005599"><ele>876.3133</ele><time>2026-06-18T22:15:11.000Z</time></trkpt>
        <trkpt lat="28.470501" lon="105.00561"><ele>876.1273</ele><time>2026-06-18T22:15:13.000Z</time></trkpt>
        <trkpt lat="28.470483" lon="105.005622"><ele>876.08826</ele><time>2026-06-18T22:15:15.000Z</time></trkpt>
        <trkpt lat="28.470461" lon="105.005636"><ele>876.08826</ele><time>2026-06-18T22:15:17.000Z</time></trkpt>
        <trkpt lat="28.47044" lon="105.005649"><ele>876.0335</ele><time>2026-06-18T22:15:19.000Z</time></trkpt>
        <trkpt lat="28.470417" lon="105.00566"><ele>876.0335</ele><time>2026-06-18T22:15:21.000Z</time></trkpt>
        <trkpt lat="28.470389" lon="105.005672"><ele>876.0335</ele><time>2026-06-18T22:15:23.000Z</time></trkpt>
        <trkpt lat="28.470365" lon="105.005681"><ele>876.2395</ele><time>2026-06-18T22:15:25.000Z</time></trkpt>
        <trkpt lat="28.470345" lon="105.00569"><ele>876.306</ele><time>2026-06-18T22:15:27.000Z</time></trkpt>
        <trkpt lat="28.470321" lon="105.005698"><ele>876.3373</ele><time>2026-06-18T22:15:29.000Z</time></trkpt>
        <trkpt lat="28.470298" lon="105.005702"><ele>876.65173</ele><time>2026-06-18T22:15:31.000Z</time></trkpt>
        <trkpt lat="28.470277" lon="105.005704"><ele>876.6954</ele><time>2026-06-18T22:15:33.000Z</time></trkpt>
        <trkpt lat="28.470255" lon="105.005708"><ele>876.6954</ele><time>2026-06-18T22:15:35.000Z</time></trkpt>
        <trkpt lat="28.470231" lon="105.005712"><ele>876.79083</ele><time>2026-06-18T22:15:37.000Z</time></trkpt>
        <trkpt lat="28.470206" lon="105.00572"><ele>876.79083</ele><time>2026-06-18T22:15:39.000Z</time></trkpt>
        <trkpt lat="28.470187" lon="105.005733"><ele>876.79083</ele><time>2026-06-18T22:15:41.000Z</time></trkpt>
        <trkpt lat="28.470168" lon="105.005746"><ele>876.5395</ele><time>2026-06-18T22:15:43.000Z</time></trkpt>
        <trkpt lat="28.470151" lon="105.005762"><ele>876.4293</ele><time>2026-06-18T22:15:45.000Z</time></trkpt>
        <trkpt lat="28.470136" lon="105.005776"><ele>876.3493</ele><time>2026-06-18T22:15:47.000Z</time></trkpt>
        <trkpt lat="28.470118" lon="105.005793"><ele>875.8363</ele><time>2026-06-18T22:15:49.000Z</time></trkpt>
        <trkpt lat="28.470102" lon="105.005807"><ele>875.3527</ele><time>2026-06-18T22:15:51.000Z</time></trkpt>
        <trkpt lat="28.470088" lon="105.005819"><ele>875.1306</ele><time>2026-06-18T22:15:53.000Z</time></trkpt>
        <trkpt lat="28.470073" lon="105.005835"><ele>874.48193</ele><time>2026-06-18T22:15:55.000Z</time></trkpt>
        <trkpt lat="28.470057" lon="105.005852"><ele>873.96313</ele><time>2026-06-18T22:15:57.000Z</time></trkpt>
        <trkpt lat="28.470037" lon="105.005869"><ele>873.58203</ele><time>2026-06-18T22:15:59.000Z</time></trkpt>
        <trkpt lat="28.470016" lon="105.005881"><ele>872.9611</ele><time>2026-06-18T22:16:01.000Z</time></trkpt>
        <trkpt lat="28.469995" lon="105.00589"><ele>872.3877</ele><time>2026-06-18T22:16:03.000Z</time></trkpt>
        <trkpt lat="28.469979" lon="105.005905"><ele>872.0262</ele><time>2026-06-18T22:16:05.000Z</time></trkpt>
        <trkpt lat="28.469966" lon="105.005919"><ele>871.9075</ele><time>2026-06-18T22:16:07.000Z</time></trkpt>
        <trkpt lat="28.469953" lon="105.005936"><ele>871.8539</ele><time>2026-06-18T22:16:09.000Z</time></trkpt>
        <trkpt lat="28.469937" lon="105.005957"><ele>871.796</ele><time>2026-06-18T22:16:11.000Z</time></trkpt>
        <trkpt lat="28.469921" lon="105.00598"><ele>871.7077</ele><time>2026-06-18T22:16:13.000Z</time></trkpt>
        <trkpt lat="28.469908" lon="105.006002"><ele>871.7077</ele><time>2026-06-18T22:16:15.000Z</time></trkpt>
        <trkpt lat="28.469896" lon="105.006024"><ele>871.7077</ele><time>2026-06-18T22:16:17.000Z</time></trkpt>
        <trkpt lat="28.469877" lon="105.006044"><ele>871.6031</ele><time>2026-06-18T22:16:19.000Z</time></trkpt>
        <trkpt lat="28.469852" lon="105.006056"><ele>871.4762</ele><time>2026-06-18T22:16:21.000Z</time></trkpt>
        <trkpt lat="28.469821" lon="105.006066"><ele>871.4762</ele><time>2026-06-18T22:16:23.000Z</time></trkpt>
        <trkpt lat="28.469794" lon="105.006072"><ele>871.4762</ele><time>2026-06-18T22:16:25.000Z</time></trkpt>
        <trkpt lat="28.469771" lon="105.006075"><ele>871.5936</ele><time>2026-06-18T22:16:27.000Z</time></trkpt>
        <trkpt lat="28.469746" lon="105.006079"><ele>871.7251</ele><time>2026-06-18T22:16:29.000Z</time></trkpt>
        <trkpt lat="28.469725" lon="105.006081"><ele>871.77234</ele><time>2026-06-18T22:16:31.000Z</time></trkpt>
        <trkpt lat="28.469706" lon="105.006079"><ele>871.8624</ele><time>2026-06-18T22:16:33.000Z</time></trkpt>
        <trkpt lat="28.469682" lon="105.006074"><ele>871.9897</ele><time>2026-06-18T22:16:35.000Z</time></trkpt>
        <trkpt lat="28.469658" lon="105.006068"><ele>871.9897</ele><time>2026-06-18T22:16:37.000Z</time></trkpt>
        <trkpt lat="28.469633" lon="105.006061"><ele>871.9897</ele><time>2026-06-18T22:16:39.000Z</time></trkpt>
        <trkpt lat="28.469608" lon="105.006058"><ele>871.9897</ele><time>2026-06-18T22:16:41.000Z</time></trkpt>
        <trkpt lat="28.469584" lon="105.006056"><ele>871.9897</ele><time>2026-06-18T22:16:43.000Z</time></trkpt>
        <trkpt lat="28.469561" lon="105.006051"><ele>871.8741</ele><time>2026-06-18T22:16:45.000Z</time></trkpt>
        <trkpt lat="28.469543" lon="105.006043"><ele>871.60144</ele><time>2026-06-18T22:16:47.000Z</time></trkpt>
        <trkpt lat="28.469526" lon="105.00604"><ele>871.49524</ele><time>2026-06-18T22:16:49.000Z</time></trkpt>
        <trkpt lat="28.469511" lon="105.006038"><ele>871.49524</ele><time>2026-06-18T22:16:51.000Z</time></trkpt>
        <trkpt lat="28.469493" lon="105.006036"><ele>871.3756</ele><time>2026-06-18T22:16:53.000Z</time></trkpt>
        <trkpt lat="28.46947" lon="105.006032"><ele>871.3756</ele><time>2026-06-18T22:16:55.000Z</time></trkpt>
        <trkpt lat="28.469442" lon="105.00603"><ele>871.3756</ele><time>2026-06-18T22:16:57.000Z</time></trkpt>
        <trkpt lat="28.469418" lon="105.00603"><ele>871.38324</ele><time>2026-06-18T22:16:59.000Z</time></trkpt>
        <trkpt lat="28.469393" lon="105.006034"><ele>871.51666</ele><time>2026-06-18T22:17:01.000Z</time></trkpt>
        <trkpt lat="28.469369" lon="105.006034"><ele>872.1254</ele><time>2026-06-18T22:17:03.000Z</time></trkpt>
        <trkpt lat="28.469349" lon="105.006031"><ele>872.8748</ele><time>2026-06-18T22:17:05.000Z</time></trkpt>
        <trkpt lat="28.469327" lon="105.006025"><ele>873.1606</ele><time>2026-06-18T22:17:07.000Z</time></trkpt>
        <trkpt lat="28.469309" lon="105.006021"><ele>873.7003</ele><time>2026-06-18T22:17:09.000Z</time></trkpt>
        <trkpt lat="28.469287" lon="105.006016"><ele>874.58167</ele><time>2026-06-18T22:17:11.000Z</time></trkpt>
        <trkpt lat="28.469268" lon="105.006011"><ele>875.35736</ele><time>2026-06-18T22:17:13.000Z</time></trkpt>
        <trkpt lat="28.469252" lon="105.006004"><ele>875.8997</ele><time>2026-06-18T22:17:15.000Z</time></trkpt>
        <trkpt lat="28.469238" lon="105.005994"><ele>876.3616</ele><time>2026-06-18T22:17:17.000Z</time></trkpt>
        <trkpt lat="28.469223" lon="105.005981"><ele>876.91016</ele><time>2026-06-18T22:17:19.000Z</time></trkpt>
        <trkpt lat="28.469208" lon="105.005963"><ele>877.3147</ele><time>2026-06-18T22:17:21.000Z</time></trkpt>
        <trkpt lat="28.46919" lon="105.005942"><ele>877.3147</ele><time>2026-06-18T22:17:23.000Z</time></trkpt>
        <trkpt lat="28.469172" lon="105.005922"><ele>877.3147</ele><time>2026-06-18T22:17:25.000Z</time></trkpt>
        <trkpt lat="28.469154" lon="105.005905"><ele>877.33057</ele><time>2026-06-18T22:17:27.000Z</time></trkpt>
        <trkpt lat="28.469138" lon="105.005891"><ele>877.4481</ele><time>2026-06-18T22:17:29.000Z</time></trkpt>
        <trkpt lat="28.469119" lon="105.005879"><ele>877.54816</ele><time>2026-06-18T22:17:31.000Z</time></trkpt>
        <trkpt lat="28.469101" lon="105.005868"><ele>877.54816</ele><time>2026-06-18T22:17:33.000Z</time></trkpt>
        <trkpt lat="28.46908" lon="105.005857"><ele>877.54816</ele><time>2026-06-18T22:17:35.000Z</time></trkpt>
        <trkpt lat="28.469057" lon="105.005844"><ele>877.54816</ele><time>2026-06-18T22:17:37.000Z</time></trkpt>
        <trkpt lat="28.469038" lon="105.005832"><ele>877.67554</ele><time>2026-06-18T22:17:39.000Z</time></trkpt>
        <trkpt lat="28.469018" lon="105.005819"><ele>878.09454</ele><time>2026-06-18T22:17:41.000Z</time></trkpt>
        <trkpt lat="28.469" lon="105.005807"><ele>878.53143</ele><time>2026-06-18T22:17:43.000Z</time></trkpt>
        <trkpt lat="28.468981" lon="105.005795"><ele>878.8743</ele><time>2026-06-18T22:17:45.000Z</time></trkpt>
        <trkpt lat="28.468963" lon="105.005781"><ele>879.1218</ele><time>2026-06-18T22:17:47.000Z</time></trkpt>
        <trkpt lat="28.468945" lon="105.005766"><ele>879.3701</ele><time>2026-06-18T22:17:49.000Z</time></trkpt>
        <trkpt lat="28.468925" lon="105.005748"><ele>879.63043</ele><time>2026-06-18T22:17:51.000Z</time></trkpt>
        <trkpt lat="28.468905" lon="105.005733"><ele>879.82825</ele><time>2026-06-18T22:17:53.000Z</time></trkpt>
        <trkpt lat="28.468888" lon="105.005719"><ele>879.92035</ele><time>2026-06-18T22:17:55.000Z</time></trkpt>
        <trkpt lat="28.468872" lon="105.005707"><ele>879.9387</ele><time>2026-06-18T22:17:57.000Z</time></trkpt>
        <trkpt lat="28.468856" lon="105.005697"><ele>879.9978</ele><time>2026-06-18T22:17:59.000Z</time></trkpt>
        <trkpt lat="28.46884" lon="105.005689"><ele>880.1523</ele><time>2026-06-18T22:18:01.000Z</time></trkpt>
        <trkpt lat="28.468822" lon="105.005678"><ele>880.44574</ele><time>2026-06-18T22:18:03.000Z</time></trkpt>
        <trkpt lat="28.468803" lon="105.005665"><ele>880.75665</ele><time>2026-06-18T22:18:05.000Z</time></trkpt>
        <trkpt lat="28.468785" lon="105.005652"><ele>881.0371</ele><time>2026-06-18T22:18:07.000Z</time></trkpt>
        <trkpt lat="28.468765" lon="105.005637"><ele>881.12396</ele><time>2026-06-18T22:18:09.000Z</time></trkpt>
        <trkpt lat="28.468745" lon="105.00562"><ele>881.12396</ele><time>2026-06-18T22:18:11.000Z</time></trkpt>
        <trkpt lat="28.468728" lon="105.005606"><ele>881.12396</ele><time>2026-06-18T22:18:13.000Z</time></trkpt>
        <trkpt lat="28.46871" lon="105.005591"><ele>881.12396</ele><time>2026-06-18T22:18:15.000Z</time></trkpt>
        <trkpt lat="28.468694" lon="105.005574"><ele>881.12396</ele><time>2026-06-18T22:18:17.000Z</time></trkpt>
        <trkpt lat="28.468678" lon="105.005555"><ele>881.06006</ele><time>2026-06-18T22:18:19.000Z</time></trkpt>
        <trkpt lat="28.468664" lon="105.005541"><ele>881.0236</ele><time>2026-06-18T22:18:21.000Z</time></trkpt>
        <trkpt lat="28.468649" lon="105.005527"><ele>881.008</ele><time>2026-06-18T22:18:23.000Z</time></trkpt>
        <trkpt lat="28.468634" lon="105.005513"><ele>881.008</ele><time>2026-06-18T22:18:25.000Z</time></trkpt>
        <trkpt lat="28.468621" lon="105.005501"><ele>880.9322</ele><time>2026-06-18T22:18:27.000Z</time></trkpt>
        <trkpt lat="28.468604" lon="105.005492"><ele>880.8491</ele><time>2026-06-18T22:18:29.000Z</time></trkpt>
        <trkpt lat="28.468586" lon="105.005486"><ele>880.8491</ele><time>2026-06-18T22:18:31.000Z</time></trkpt>
        <trkpt lat="28.468565" lon="105.00548"><ele>880.9322</ele><time>2026-06-18T22:18:33.000Z</time></trkpt>
        <trkpt lat="28.468544" lon="105.005472"><ele>881.008</ele><time>2026-06-18T22:18:35.000Z</time></trkpt>
        <trkpt lat="28.468522" lon="105.005462"><ele>881.0328</ele><time>2026-06-18T22:18:37.000Z</time></trkpt>
        <trkpt lat="28.468501" lon="105.005449"><ele>881.09937</ele><time>2026-06-18T22:18:39.000Z</time></trkpt>
        <trkpt lat="28.468481" lon="105.005434"><ele>881.2434</ele><time>2026-06-18T22:18:41.000Z</time></trkpt>
        <trkpt lat="28.468467" lon="105.005423"><ele>881.41974</ele><time>2026-06-18T22:18:43.000Z</time></trkpt>
        <trkpt lat="28.468454" lon="105.00541"><ele>881.515</ele><time>2026-06-18T22:18:45.000Z</time></trkpt>
        <trkpt lat="28.46844" lon="105.005394"><ele>881.62384</ele><time>2026-06-18T22:18:47.000Z</time></trkpt>
        <trkpt lat="28.468423" lon="105.005375"><ele>881.8877</ele><time>2026-06-18T22:18:49.000Z</time></trkpt>
        <trkpt lat="28.468408" lon="105.005355"><ele>882.22003</ele><time>2026-06-18T22:18:51.000Z</time></trkpt>
        <trkpt lat="28.468395" lon="105.005339"><ele>882.49835</ele><time>2026-06-18T22:18:53.000Z</time></trkpt>
        <trkpt lat="28.468379" lon="105.005324"><ele>882.75726</ele><time>2026-06-18T22:18:55.000Z</time></trkpt>
        <trkpt lat="28.468363" lon="105.005312"><ele>883.0284</ele><time>2026-06-18T22:18:57.000Z</time></trkpt>
        <trkpt lat="28.468344" lon="105.005303"><ele>883.4672</ele><time>2026-06-18T22:18:59.000Z</time></trkpt>
        <trkpt lat="28.468322" lon="105.005296"><ele>883.92554</ele><time>2026-06-18T22:19:01.000Z</time></trkpt>
        <trkpt lat="28.4683" lon="105.005293"><ele>884.24756</ele><time>2026-06-18T22:19:03.000Z</time></trkpt>
        <trkpt lat="28.468277" lon="105.005293"><ele>884.4804</ele><time>2026-06-18T22:19:05.000Z</time></trkpt>
        <trkpt lat="28.468256" lon="105.005297"><ele>884.4804</ele><time>2026-06-18T22:19:07.000Z</time></trkpt>
        <trkpt lat="28.46824" lon="105.005306"><ele>884.4804</ele><time>2026-06-18T22:19:09.000Z</time></trkpt>
        <trkpt lat="28.468221" lon="105.005322"><ele>884.4804</ele><time>2026-06-18T22:19:11.000Z</time></trkpt>
        <trkpt lat="28.468204" lon="105.005334"><ele>884.4804</ele><time>2026-06-18T22:19:13.000Z</time></trkpt>
        <trkpt lat="28.468191" lon="105.005339"><ele>884.30475</ele><time>2026-06-18T22:19:15.000Z</time></trkpt>
        <trkpt lat="28.468184" lon="105.005337"><ele>883.771</ele><time>2026-06-18T22:19:17.000Z</time></trkpt>
        <trkpt lat="28.468179" lon="105.00533"><ele>883.63324</ele><time>2026-06-18T22:19:19.000Z</time></trkpt>
        <trkpt lat="28.46817" lon="105.005302"><ele>883.63324</ele><time>2026-06-18T22:19:23.000Z</time></trkpt>
        <trkpt lat="28.46817" lon="105.005286"><ele>883.63324</ele><time>2026-06-18T22:19:25.000Z</time></trkpt>
        <trkpt lat="28.468167" lon="105.005263"><ele>883.63324</ele><time>2026-06-18T22:19:27.000Z</time></trkpt>
        <trkpt lat="28.468165" lon="105.005245"><ele>883.63324</ele><time>2026-06-18T22:19:29.000Z</time></trkpt>
        <trkpt lat="28.468162" lon="105.005234"><ele>883.69904</ele><time>2026-06-18T22:19:31.000Z</time></trkpt>
        <trkpt lat="28.468157" lon="105.005216"><ele>883.72345</ele><time>2026-06-18T22:19:33.000Z</time></trkpt>
        <trkpt lat="28.468152" lon="105.005194"><ele>883.8533</ele><time>2026-06-18T22:19:35.000Z</time></trkpt>
        <trkpt lat="28.468153" lon="105.005171"><ele>883.94934</ele><time>2026-06-18T22:19:37.000Z</time></trkpt>
        <trkpt lat="28.468158" lon="105.005159"><ele>884.1433</ele><time>2026-06-18T22:19:39.000Z</time></trkpt>
        <trkpt lat="28.468168" lon="105.005143"><ele>884.2904</ele><time>2026-06-18T22:19:41.000Z</time></trkpt>
        <trkpt lat="28.46818" lon="105.005127"><ele>884.2904</ele><time>2026-06-18T22:19:43.000Z</time></trkpt>
        <trkpt lat="28.468195" lon="105.005106"><ele>884.1982</ele><time>2026-06-18T22:19:45.000Z</time></trkpt>
        <trkpt lat="28.468207" lon="105.005085"><ele>884.05634</ele><time>2026-06-18T22:19:47.000Z</time></trkpt>
        <trkpt lat="28.468215" lon="105.005065"><ele>884.05634</ele><time>2026-06-18T22:19:49.000Z</time></trkpt>
        <trkpt lat="28.46822" lon="105.005047"><ele>884.05634</ele><time>2026-06-18T22:19:51.000Z</time></trkpt>
        <trkpt lat="28.468223" lon="105.00503"><ele>884.05634</ele><time>2026-06-18T22:19:53.000Z</time></trkpt>
        <trkpt lat="28.468223" lon="105.005016"><ele>883.931</ele><time>2026-06-18T22:19:55.000Z</time></trkpt>
        <trkpt lat="28.468226" lon="105.004998"><ele>883.4546</ele><time>2026-06-18T22:19:57.000Z</time></trkpt>
        <trkpt lat="28.468228" lon="105.004977"><ele>882.89966</ele><time>2026-06-18T22:19:59.000Z</time></trkpt>
        <trkpt lat="28.46823" lon="105.004957"><ele>882.5185</ele><time>2026-06-18T22:20:01.000Z</time></trkpt>
        <trkpt lat="28.468229" lon="105.004937"><ele>882.3602</ele><time>2026-06-18T22:20:03.000Z</time></trkpt>
        <trkpt lat="28.468228" lon="105.004922"><ele>882.3008</ele><time>2026-06-18T22:20:05.000Z</time></trkpt>
        <trkpt lat="28.468227" lon="105.004898"><ele>882.25903</ele><time>2026-06-18T22:20:07.000Z</time></trkpt>
        <trkpt lat="28.468228" lon="105.004866"><ele>882.2152</ele><time>2026-06-18T22:20:09.000Z</time></trkpt>
        <trkpt lat="28.46823" lon="105.004841"><ele>882.18866</ele><time>2026-06-18T22:20:11.000Z</time></trkpt>
        <trkpt lat="28.468229" lon="105.00482"><ele>881.9327</ele><time>2026-06-18T22:20:13.000Z</time></trkpt>
        <trkpt lat="28.468225" lon="105.004792"><ele>881.5592</ele><time>2026-06-18T22:20:15.000Z</time></trkpt>
        <trkpt lat="28.46822" lon="105.004758"><ele>881.32874</ele><time>2026-06-18T22:20:17.000Z</time></trkpt>
        <trkpt lat="28.468219" lon="105.004725"><ele>881.0196</ele><time>2026-06-18T22:20:19.000Z</time></trkpt>
        <trkpt lat="28.468218" lon="105.004695"><ele>880.5614</ele><time>2026-06-18T22:20:21.000Z</time></trkpt>
        <trkpt lat="28.46822" lon="105.00467"><ele>880.0601</ele><time>2026-06-18T22:20:23.000Z</time></trkpt>
        <trkpt lat="28.468224" lon="105.004641"><ele>879.58685</ele><time>2026-06-18T22:20:25.000Z</time></trkpt>
        <trkpt lat="28.46823" lon="105.004612"><ele>879.0537</ele><time>2026-06-18T22:20:27.000Z</time></trkpt>
        <trkpt lat="28.468232" lon="105.004584"><ele>878.6498</ele><time>2026-06-18T22:20:29.000Z</time></trkpt>
        <trkpt lat="28.468232" lon="105.004563"><ele>878.6261</ele><time>2026-06-18T22:20:31.000Z</time></trkpt>
        <trkpt lat="28.468229" lon="105.004544"><ele>878.6261</ele><time>2026-06-18T22:20:33.000Z</time></trkpt>
        <trkpt lat="28.468222" lon="105.004523"><ele>878.6044</ele><time>2026-06-18T22:20:35.000Z</time></trkpt>
        <trkpt lat="28.46821" lon="105.004504"><ele>878.5266</ele><time>2026-06-18T22:20:37.000Z</time></trkpt>
        <trkpt lat="28.468195" lon="105.004483"><ele>878.45447</ele><time>2026-06-18T22:20:39.000Z</time></trkpt>
        <trkpt lat="28.468177" lon="105.004462"><ele>878.45447</ele><time>2026-06-18T22:20:41.000Z</time></trkpt>
        <trkpt lat="28.468161" lon="105.004441"><ele>878.58514</ele><time>2026-06-18T22:20:43.000Z</time></trkpt>
        <trkpt lat="28.468145" lon="105.004418"><ele>878.6847</ele><time>2026-06-18T22:20:45.000Z</time></trkpt>
        <trkpt lat="28.468123" lon="105.004394"><ele>878.73224</ele><time>2026-06-18T22:20:47.000Z</time></trkpt>
        <trkpt lat="28.468102" lon="105.004377"><ele>878.78357</ele><time>2026-06-18T22:20:49.000Z</time></trkpt>
        <trkpt lat="28.468082" lon="105.00436"><ele>878.81915</ele><time>2026-06-18T22:20:51.000Z</time></trkpt>
        <trkpt lat="28.468059" lon="105.004342"><ele>878.85767</ele><time>2026-06-18T22:20:53.000Z</time></trkpt>
        <trkpt lat="28.468039" lon="105.004323"><ele>878.85767</ele><time>2026-06-18T22:20:55.000Z</time></trkpt>
        <trkpt lat="28.468018" lon="105.004302"><ele>878.90564</ele><time>2026-06-18T22:20:57.000Z</time></trkpt>
        <trkpt lat="28.468004" lon="105.004284"><ele>878.9429</ele><time>2026-06-18T22:20:59.000Z</time></trkpt>
        <trkpt lat="28.467992" lon="105.004266"><ele>879.0116</ele><time>2026-06-18T22:21:01.000Z</time></trkpt>
        <trkpt lat="28.467979" lon="105.004248"><ele>879.0865</ele><time>2026-06-18T22:21:03.000Z</time></trkpt>
        <trkpt lat="28.467965" lon="105.00423"><ele>879.25555</ele><time>2026-06-18T22:21:05.000Z</time></trkpt>
        <trkpt lat="28.467948" lon="105.004206"><ele>879.25555</ele><time>2026-06-18T22:21:07.000Z</time></trkpt>
        <trkpt lat="28.467933" lon="105.004189"><ele>879.25555</ele><time>2026-06-18T22:21:09.000Z</time></trkpt>
        <trkpt lat="28.467914" lon="105.004176"><ele>879.4524</ele><time>2026-06-18T22:21:11.000Z</time></trkpt>
        <trkpt lat="28.467895" lon="105.004164"><ele>879.5399</ele><time>2026-06-18T22:21:13.000Z</time></trkpt>
        <trkpt lat="28.467871" lon="105.004149"><ele>879.92365</ele><time>2026-06-18T22:21:15.000Z</time></trkpt>
        <trkpt lat="28.467849" lon="105.004133"><ele>880.4231</ele><time>2026-06-18T22:21:17.000Z</time></trkpt>
        <trkpt lat="28.467837" lon="105.004122"><ele>880.6235</ele><time>2026-06-18T22:21:19.000Z</time></trkpt>
        <trkpt lat="28.467832" lon="105.004113"><ele>880.83356</ele><time>2026-06-18T22:21:21.000Z</time></trkpt>
        <trkpt lat="28.467826" lon="105.0041"><ele>881.1488</ele><time>2026-06-18T22:21:23.000Z</time></trkpt>
        <trkpt lat="28.467824" lon="105.00409"><ele>881.2255</ele><time>2026-06-18T22:21:25.000Z</time></trkpt>
        <trkpt lat="28.467827" lon="105.00408"><ele>881.3017</ele><time>2026-06-18T22:21:29.000Z</time></trkpt>
        <trkpt lat="28.467823" lon="105.004066"><ele>881.3017</ele><time>2026-06-18T22:21:43.000Z</time></trkpt>
        <trkpt lat="28.467809" lon="105.004014"><ele>881.3017</ele><time>2026-06-18T22:21:47.000Z</time></trkpt>
        <trkpt lat="28.467809" lon="105.004014"><ele>881.3017</ele><time>2026-06-18T22:21:49.000Z</time></trkpt>
        <trkpt lat="28.467808" lon="105.00401"><ele>881.22437</ele><time>2026-06-18T22:21:51.000Z</time></trkpt>
        <trkpt lat="28.467793" lon="105.003963"><ele>880.9233</ele><time>2026-06-18T22:21:55.000Z</time></trkpt>
        <trkpt lat="28.467781" lon="105.003929"><ele>880.47595</ele><time>2026-06-18T22:21:57.000Z</time></trkpt>
        <trkpt lat="28.467768" lon="105.003896"><ele>880.3463</ele><time>2026-06-18T22:21:59.000Z</time></trkpt>
        <trkpt lat="28.467758" lon="105.003872"><ele>880.3164</ele><time>2026-06-18T22:22:01.000Z</time></trkpt>
        <trkpt lat="28.467751" lon="105.00385"><ele>880.3164</ele><time>2026-06-18T22:22:03.000Z</time></trkpt>
        <trkpt lat="28.467749" lon="105.003835"><ele>880.3101</ele><time>2026-06-18T22:22:05.000Z</time></trkpt>
        <trkpt lat="28.467751" lon="105.003818"><ele>880.1904</ele><time>2026-06-18T22:22:07.000Z</time></trkpt>
        <trkpt lat="28.467751" lon="105.003797"><ele>880.1904</ele><time>2026-06-18T22:22:09.000Z</time></trkpt>
        <trkpt lat="28.467752" lon="105.003766"><ele>880.1904</ele><time>2026-06-18T22:22:11.000Z</time></trkpt>
        <trkpt lat="28.467757" lon="105.003735"><ele>880.1891</ele><time>2026-06-18T22:22:13.000Z</time></trkpt>
        <trkpt lat="28.467765" lon="105.00371"><ele>880.1536</ele><time>2026-06-18T22:22:15.000Z</time></trkpt>
        <trkpt lat="28.467775" lon="105.003682"><ele>879.8571</ele><time>2026-06-18T22:22:17.000Z</time></trkpt>
        <trkpt lat="28.467779" lon="105.003655"><ele>879.50415</ele><time>2026-06-18T22:22:19.000Z</time></trkpt>
        <trkpt lat="28.467771" lon="105.003628"><ele>879.1243</ele><time>2026-06-18T22:22:21.000Z</time></trkpt>
        <trkpt lat="28.467757" lon="105.003601"><ele>878.8599</ele><time>2026-06-18T22:22:23.000Z</time></trkpt>
        <trkpt lat="28.467738" lon="105.003573"><ele>878.7858</ele><time>2026-06-18T22:22:25.000Z</time></trkpt>
        <trkpt lat="28.467719" lon="105.003546"><ele>878.7366</ele><time>2026-06-18T22:22:27.000Z</time></trkpt>
        <trkpt lat="28.467703" lon="105.003519"><ele>878.6606</ele><time>2026-06-18T22:22:29.000Z</time></trkpt>
        <trkpt lat="28.467692" lon="105.003493"><ele>878.5878</ele><time>2026-06-18T22:22:31.000Z</time></trkpt>
        <trkpt lat="28.467682" lon="105.003469"><ele>878.51526</ele><time>2026-06-18T22:22:33.000Z</time></trkpt>
        <trkpt lat="28.467675" lon="105.003445"><ele>878.4006</ele><time>2026-06-18T22:22:35.000Z</time></trkpt>
        <trkpt lat="28.467667" lon="105.003419"><ele>878.32574</ele><time>2026-06-18T22:22:37.000Z</time></trkpt>
        <trkpt lat="28.467662" lon="105.003395"><ele>878.25555</ele><time>2026-06-18T22:22:39.000Z</time></trkpt>
        <trkpt lat="28.467658" lon="105.00337"><ele>878.1532</ele><time>2026-06-18T22:22:41.000Z</time></trkpt>
        <trkpt lat="28.467655" lon="105.003346"><ele>877.98944</ele><time>2026-06-18T22:22:43.000Z</time></trkpt>
        <trkpt lat="28.467654" lon="105.00332"><ele>877.79755</ele><time>2026-06-18T22:22:45.000Z</time></trkpt>
        <trkpt lat="28.467654" lon="105.003292"><ele>877.7029</ele><time>2026-06-18T22:22:47.000Z</time></trkpt>
        <trkpt lat="28.467653" lon="105.003267"><ele>877.7029</ele><time>2026-06-18T22:22:49.000Z</time></trkpt>
        <trkpt lat="28.46765" lon="105.003244"><ele>877.69916</ele><time>2026-06-18T22:22:51.000Z</time></trkpt>
        <trkpt lat="28.467644" lon="105.003221"><ele>877.69916</ele><time>2026-06-18T22:22:53.000Z</time></trkpt>
        <trkpt lat="28.467639" lon="105.003201"><ele>877.69916</ele><time>2026-06-18T22:22:55.000Z</time></trkpt>
        <trkpt lat="28.467633" lon="105.003179"><ele>877.69916</ele><time>2026-06-18T22:22:57.000Z</time></trkpt>
        <trkpt lat="28.467627" lon="105.003156"><ele>877.72144</ele><time>2026-06-18T22:22:59.000Z</time></trkpt>
        <trkpt lat="28.467622" lon="105.003131"><ele>877.775</ele><time>2026-06-18T22:23:01.000Z</time></trkpt>
        <trkpt lat="28.467615" lon="105.003107"><ele>877.8357</ele><time>2026-06-18T22:23:03.000Z</time></trkpt>
        <trkpt lat="28.467605" lon="105.003081"><ele>877.93176</ele><time>2026-06-18T22:23:05.000Z</time></trkpt>
        <trkpt lat="28.467595" lon="105.003057"><ele>878.0592</ele><time>2026-06-18T22:23:07.000Z</time></trkpt>
        <trkpt lat="28.467584" lon="105.003035"><ele>878.28925</ele><time>2026-06-18T22:23:09.000Z</time></trkpt>
        <trkpt lat="28.467575" lon="105.003021"><ele>878.6304</ele><time>2026-06-18T22:23:11.000Z</time></trkpt>
        <trkpt lat="28.467564" lon="105.003008"><ele>878.9515</ele><time>2026-06-18T22:23:13.000Z</time></trkpt>
        <trkpt lat="28.467557" lon="105.003002"><ele>879.1255</ele><time>2026-06-18T22:23:15.000Z</time></trkpt>
        <trkpt lat="28.467549" lon="105.002995"><ele>879.1255</ele><time>2026-06-18T22:23:17.000Z</time></trkpt>
        <trkpt lat="28.467539" lon="105.002989"><ele>879.1255</ele><time>2026-06-18T22:23:19.000Z</time></trkpt>
        <trkpt lat="28.467538" lon="105.002982"><ele>879.1255</ele><time>2026-06-18T22:23:23.000Z</time></trkpt>
        <trkpt lat="28.467529" lon="105.002892"><ele>879.1255</ele><time>2026-06-18T22:23:46.000Z</time></trkpt>
        <trkpt lat="28.467529" lon="105.002892"><ele>879.0578</ele><time>2026-06-18T22:23:48.000Z</time></trkpt>
        <trkpt lat="28.467529" lon="105.002888"><ele>878.97577</ele><time>2026-06-18T22:23:50.000Z</time></trkpt>
        <trkpt lat="28.46754" lon="105.002843"><ele>878.9485</ele><time>2026-06-18T22:23:54.000Z</time></trkpt>
        <trkpt lat="28.467552" lon="105.00281"><ele>878.7975</ele><time>2026-06-18T22:23:56.000Z</time></trkpt>
        <trkpt lat="28.467565" lon="105.002774"><ele>878.413</ele><time>2026-06-18T22:23:58.000Z</time></trkpt>
        <trkpt lat="28.467581" lon="105.002738"><ele>878.0011</ele><time>2026-06-18T22:24:00.000Z</time></trkpt>
        <trkpt lat="28.467598" lon="105.002706"><ele>877.72833</ele><time>2026-06-18T22:24:02.000Z</time></trkpt>
        <trkpt lat="28.467614" lon="105.00268"><ele>877.55554</ele><time>2026-06-18T22:24:04.000Z</time></trkpt>
        <trkpt lat="28.467629" lon="105.002667"><ele>877.4597</ele><time>2026-06-18T22:24:06.000Z</time></trkpt>
        <trkpt lat="28.467646" lon="105.002656"><ele>877.4141</ele><time>2026-06-18T22:24:08.000Z</time></trkpt>
        <trkpt lat="28.467675" lon="105.00264"><ele>877.4105</ele><time>2026-06-18T22:24:10.000Z</time></trkpt>
        <trkpt lat="28.467697" lon="105.002628"><ele>877.4105</ele><time>2026-06-18T22:24:12.000Z</time></trkpt>
        <trkpt lat="28.467721" lon="105.002616"><ele>877.38354</ele><time>2026-06-18T22:24:14.000Z</time></trkpt>
        <trkpt lat="28.467747" lon="105.002606"><ele>877.38354</ele><time>2026-06-18T22:24:16.000Z</time></trkpt>
        <trkpt lat="28.467772" lon="105.0026"><ele>877.4105</ele><time>2026-06-18T22:24:18.000Z</time></trkpt>
        <trkpt lat="28.467791" lon="105.002599"><ele>877.4141</ele><time>2026-06-18T22:24:20.000Z</time></trkpt>
        <trkpt lat="28.467815" lon="105.0026"><ele>877.4403</ele><time>2026-06-18T22:24:22.000Z</time></trkpt>
        <trkpt lat="28.467833" lon="105.002602"><ele>877.49695</ele><time>2026-06-18T22:24:24.000Z</time></trkpt>
        <trkpt lat="28.467853" lon="105.002603"><ele>877.8511</ele><time>2026-06-18T22:24:26.000Z</time></trkpt>
        <trkpt lat="28.467877" lon="105.002603"><ele>878.2378</ele><time>2026-06-18T22:24:28.000Z</time></trkpt>
        <trkpt lat="28.467901" lon="105.002605"><ele>878.8865</ele><time>2026-06-18T22:24:30.000Z</time></trkpt>
        <trkpt lat="28.467927" lon="105.002608"><ele>879.5814</ele><time>2026-06-18T22:24:32.000Z</time></trkpt>
        <trkpt lat="28.467945" lon="105.002611"><ele>879.9474</ele><time>2026-06-18T22:24:34.000Z</time></trkpt>
        <trkpt lat="28.46797" lon="105.002617"><ele>880.51044</ele><time>2026-06-18T22:24:36.000Z</time></trkpt>
        <trkpt lat="28.467989" lon="105.002621"><ele>881.0448</ele><time>2026-06-18T22:24:38.000Z</time></trkpt>
        <trkpt lat="28.468008" lon="105.002624"><ele>881.45245</ele><time>2026-06-18T22:24:40.000Z</time></trkpt>
        <trkpt lat="28.468026" lon="105.002628"><ele>882.00934</ele><time>2026-06-18T22:24:42.000Z</time></trkpt>
        <trkpt lat="28.468046" lon="105.002636"><ele>882.5951</ele><time>2026-06-18T22:24:44.000Z</time></trkpt>
        <trkpt lat="28.468047" lon="105.002641"><ele>883.1794</ele><time>2026-06-18T22:24:46.000Z</time></trkpt>
        <trkpt lat="28.468056" lon="105.002671"><ele>883.8927</ele><time>2026-06-18T22:24:52.000Z</time></trkpt>
        <trkpt lat="28.468056" lon="105.002671"><ele>884.2906</ele><time>2026-06-18T22:24:54.000Z</time></trkpt>
        <trkpt lat="28.468136" lon="105.002661"><ele>884.3541</ele><time>2026-06-18T22:24:58.000Z</time></trkpt>
        <trkpt lat="28.468136" lon="105.002661"><ele>884.47876</ele><time>2026-06-18T22:25:00.000Z</time></trkpt>
        <trkpt lat="28.46814" lon="105.00266"><ele>884.7448</ele><time>2026-06-18T22:25:02.000Z</time></trkpt>
        <trkpt lat="28.468198" lon="105.002652"><ele>884.94464</ele><time>2026-06-18T22:25:06.000Z</time></trkpt>
        <trkpt lat="28.468323" lon="105.002636"><ele>884.9997</ele><time>2026-06-18T22:25:12.000Z</time></trkpt>
        <trkpt lat="28.468323" lon="105.002636"><ele>885.0349</ele><time>2026-06-18T22:25:14.000Z</time></trkpt>
        <trkpt lat="28.468326" lon="105.002637"><ele>885.082</ele><time>2026-06-18T22:25:16.000Z</time></trkpt>
        <trkpt lat="28.468366" lon="105.002639"><ele>885.51294</ele><time>2026-06-18T22:25:20.000Z</time></trkpt>
        <trkpt lat="28.468402" lon="105.00264"><ele>886.5252</ele><time>2026-06-18T22:25:22.000Z</time></trkpt>
        <trkpt lat="28.468439" lon="105.002637"><ele>887.0948</ele><time>2026-06-18T22:25:24.000Z</time></trkpt>
        <trkpt lat="28.46847" lon="105.002633"><ele>887.108</ele><time>2026-06-18T22:25:26.000Z</time></trkpt>
        <trkpt lat="28.468495" lon="105.002627"><ele>887.4259</ele><time>2026-06-18T22:25:28.000Z</time></trkpt>
        <trkpt lat="28.468515" lon="105.00262"><ele>888.1286</ele><time>2026-06-18T22:25:30.000Z</time></trkpt>
        <trkpt lat="28.468533" lon="105.002615"><ele>888.8063</ele><time>2026-06-18T22:25:32.000Z</time></trkpt>
        <trkpt lat="28.468551" lon="105.002612"><ele>889.2916</ele><time>2026-06-18T22:25:34.000Z</time></trkpt>
        <trkpt lat="28.468572" lon="105.002607"><ele>889.6806</ele><time>2026-06-18T22:25:36.000Z</time></trkpt>
        <trkpt lat="28.468593" lon="105.002604"><ele>889.9831</ele><time>2026-06-18T22:25:38.000Z</time></trkpt>
        <trkpt lat="28.46862" lon="105.002603"><ele>890.04376</ele><time>2026-06-18T22:25:40.000Z</time></trkpt>
        <trkpt lat="28.468642" lon="105.002605"><ele>890.04376</ele><time>2026-06-18T22:25:42.000Z</time></trkpt>
        <trkpt lat="28.468668" lon="105.002609"><ele>890.10175</ele><time>2026-06-18T22:25:44.000Z</time></trkpt>
        <trkpt lat="28.468695" lon="105.00261"><ele>890.10175</ele><time>2026-06-18T22:25:46.000Z</time></trkpt>
        <trkpt lat="28.468715" lon="105.002612"><ele>890.12085</ele><time>2026-06-18T22:25:48.000Z</time></trkpt>
        <trkpt lat="28.468739" lon="105.00261"><ele>890.14136</ele><time>2026-06-18T22:25:50.000Z</time></trkpt>
        <trkpt lat="28.468756" lon="105.002608"><ele>890.14136</ele><time>2026-06-18T22:25:52.000Z</time></trkpt>
        <trkpt lat="28.468771" lon="105.002605"><ele>890.14136</ele><time>2026-06-18T22:25:54.000Z</time></trkpt>
        <trkpt lat="28.46879" lon="105.002601"><ele>890.14136</ele><time>2026-06-18T22:25:56.000Z</time></trkpt>
        <trkpt lat="28.468808" lon="105.002601"><ele>890.1523</ele><time>2026-06-18T22:25:58.000Z</time></trkpt>
        <trkpt lat="28.468819" lon="105.002604"><ele>890.24994</ele><time>2026-06-18T22:26:00.000Z</time></trkpt>
        <trkpt lat="28.468834" lon="105.002607"><ele>890.4769</ele><time>2026-06-18T22:26:02.000Z</time></trkpt>
        <trkpt lat="28.468851" lon="105.002611"><ele>891.0015</ele><time>2026-06-18T22:26:04.000Z</time></trkpt>
        <trkpt lat="28.468863" lon="105.002613"><ele>891.7492</ele><time>2026-06-18T22:26:06.000Z</time></trkpt>
        <trkpt lat="28.468876" lon="105.002618"><ele>892.282</ele><time>2026-06-18T22:26:08.000Z</time></trkpt>
        <trkpt lat="28.468877" lon="105.002616"><ele>892.282</ele><time>2026-06-18T22:26:10.000Z</time></trkpt>
        <trkpt lat="28.468852" lon="105.002646"><ele>892.282</ele><time>2026-06-18T22:26:49.000Z</time></trkpt>
        <trkpt lat="28.468927" lon="105.00265"><ele>892.282</ele><time>2026-06-18T22:27:08.000Z</time></trkpt>
        <trkpt lat="28.468935" lon="105.002653"><ele>892.282</ele><time>2026-06-18T22:27:10.000Z</time></trkpt>
        <trkpt lat="28.468965" lon="105.002663"><ele>892.2306</ele><time>2026-06-18T22:27:13.000Z</time></trkpt>
        <trkpt lat="28.468965" lon="105.002663"><ele>890.9457</ele><time>2026-06-18T22:27:15.000Z</time></trkpt>
        <trkpt lat="28.468967" lon="105.002662"><ele>889.59937</ele><time>2026-06-18T22:27:17.000Z</time></trkpt>
        <trkpt lat="28.469004" lon="105.002656"><ele>889.1448</ele><time>2026-06-18T22:27:21.000Z</time></trkpt>
        <trkpt lat="28.469038" lon="105.002648"><ele>888.97375</ele><time>2026-06-18T22:27:23.000Z</time></trkpt>
        <trkpt lat="28.469077" lon="105.002638"><ele>888.951</ele><time>2026-06-18T22:27:25.000Z</time></trkpt>
        <trkpt lat="28.469115" lon="105.002628"><ele>888.7929</ele><time>2026-06-18T22:27:27.000Z</time></trkpt>
        <trkpt lat="28.469153" lon="105.002616"><ele>888.7929</ele><time>2026-06-18T22:27:29.000Z</time></trkpt>
        <trkpt lat="28.469185" lon="105.0026"><ele>888.60657</ele><time>2026-06-18T22:27:31.000Z</time></trkpt>
        <trkpt lat="28.469209" lon="105.002584"><ele>888.49286</ele><time>2026-06-18T22:27:33.000Z</time></trkpt>
        <trkpt lat="28.469232" lon="105.002566"><ele>888.1613</ele><time>2026-06-18T22:27:35.000Z</time></trkpt>
        <trkpt lat="28.469255" lon="105.002547"><ele>887.385</ele><time>2026-06-18T22:27:37.000Z</time></trkpt>
        <trkpt lat="28.469274" lon="105.002532"><ele>886.8199</ele><time>2026-06-18T22:27:39.000Z</time></trkpt>
        <trkpt lat="28.46929" lon="105.002518"><ele>886.56934</ele><time>2026-06-18T22:27:41.000Z</time></trkpt>
        <trkpt lat="28.469308" lon="105.002498"><ele>886.43787</ele><time>2026-06-18T22:27:43.000Z</time></trkpt>
        <trkpt lat="28.469323" lon="105.002473"><ele>886.43787</ele><time>2026-06-18T22:27:45.000Z</time></trkpt>
        <trkpt lat="28.469328" lon="105.002449"><ele>886.43787</ele><time>2026-06-18T22:27:47.000Z</time></trkpt>
        <trkpt lat="28.469327" lon="105.002424"><ele>886.3492</ele><time>2026-06-18T22:27:49.000Z</time></trkpt>
        <trkpt lat="28.46932" lon="105.002393"><ele>886.3492</ele><time>2026-06-18T22:27:51.000Z</time></trkpt>
        <trkpt lat="28.469308" lon="105.002365"><ele>886.36816</ele><time>2026-06-18T22:27:53.000Z</time></trkpt>
        <trkpt lat="28.469296" lon="105.002335"><ele>886.36816</ele><time>2026-06-18T22:27:55.000Z</time></trkpt>
        <trkpt lat="28.469285" lon="105.002301"><ele>886.45685</ele><time>2026-06-18T22:27:57.000Z</time></trkpt>
        <trkpt lat="28.469278" lon="105.002272"><ele>886.5133</ele><time>2026-06-18T22:27:59.000Z</time></trkpt>
        <trkpt lat="28.469274" lon="105.002248"><ele>886.5133</ele><time>2026-06-18T22:28:01.000Z</time></trkpt>
        <trkpt lat="28.469269" lon="105.002217"><ele>886.5415</ele><time>2026-06-18T22:28:03.000Z</time></trkpt>
        <trkpt lat="28.46926" lon="105.002186"><ele>886.5659</ele><time>2026-06-18T22:28:05.000Z</time></trkpt>
        <trkpt lat="28.469251" lon="105.002159"><ele>886.5263</ele><time>2026-06-18T22:28:07.000Z</time></trkpt>
        <trkpt lat="28.469244" lon="105.002137"><ele>886.5263</ele><time>2026-06-18T22:28:08.000Z</time></trkpt>
        <trkpt lat="28.469248" lon="105.002126"><ele>886.43005</ele><time>2026-06-18T22:28:10.000Z</time></trkpt>
        <trkpt lat="28.469254" lon="105.002124"><ele>886.3159</ele><time>2026-06-18T22:28:12.000Z</time></trkpt>
        <trkpt lat="28.469272" lon="105.002117"><ele>886.3159</ele><time>2026-06-18T22:28:14.000Z</time></trkpt>
        <trkpt lat="28.469284" lon="105.002111"><ele>886.2139</ele><time>2026-06-18T22:28:16.000Z</time></trkpt>
        <trkpt lat="28.469297" lon="105.002106"><ele>886.2139</ele><time>2026-06-18T22:28:18.000Z</time></trkpt>
        <trkpt lat="28.469311" lon="105.002102"><ele>886.2139</ele><time>2026-06-18T22:28:20.000Z</time></trkpt>
        <trkpt lat="28.469321" lon="105.0021"><ele>886.2139</ele><time>2026-06-18T22:28:22.000Z</time></trkpt>
        <trkpt lat="28.469333" lon="105.002096"><ele>886.2139</ele><time>2026-06-18T22:28:25.000Z</time></trkpt>
        <trkpt lat="28.469343" lon="105.00209"><ele>886.35266</ele><time>2026-06-18T22:28:27.000Z</time></trkpt>
        <trkpt lat="28.46935" lon="105.002089"><ele>886.53516</ele><time>2026-06-18T22:28:29.000Z</time></trkpt>
        <trkpt lat="28.469365" lon="105.002089"><ele>886.6704</ele><time>2026-06-18T22:28:31.000Z</time></trkpt>
        <trkpt lat="28.469377" lon="105.002091"><ele>886.88806</ele><time>2026-06-18T22:28:33.000Z</time></trkpt>
        <trkpt lat="28.469387" lon="105.002091"><ele>887.33936</ele><time>2026-06-18T22:28:35.000Z</time></trkpt>
        <trkpt lat="28.469399" lon="105.002093"><ele>887.9766</ele><time>2026-06-18T22:28:39.000Z</time></trkpt>
        <trkpt lat="28.469331" lon="105.002084"><ele>888.6096</ele><time>2026-06-18T22:29:39.000Z</time></trkpt>
        <trkpt lat="28.469285" lon="105.002114"><ele>889.0741</ele><time>2026-06-18T22:29:54.000Z</time></trkpt>
        <trkpt lat="28.469249" lon="105.002107"><ele>889.2841</ele><time>2026-06-18T22:30:09.000Z</time></trkpt>
        <trkpt lat="28.469223" lon="105.002146"><ele>889.33563</ele><time>2026-06-18T22:30:25.000Z</time></trkpt>
        <trkpt lat="28.469261" lon="105.002138"><ele>889.7035</ele><time>2026-06-18T22:30:37.000Z</time></trkpt>
        <trkpt lat="28.469291" lon="105.002245"><ele>889.7035</ele><time>2026-06-18T22:30:45.000Z</time></trkpt>
        <trkpt lat="28.469291" lon="105.002245"><ele>889.7035</ele><time>2026-06-18T22:30:47.000Z</time></trkpt>
        <trkpt lat="28.469292" lon="105.002248"><ele>889.7035</ele><time>2026-06-18T22:30:49.000Z</time></trkpt>
        <trkpt lat="28.469306" lon="105.002294"><ele>889.68945</ele><time>2026-06-18T22:30:53.000Z</time></trkpt>
        <trkpt lat="28.469321" lon="105.002327"><ele>890.051</ele><time>2026-06-18T22:30:55.000Z</time></trkpt>
        <trkpt lat="28.469338" lon="105.002362"><ele>890.4754</ele><time>2026-06-18T22:30:57.000Z</time></trkpt>
        <trkpt lat="28.469356" lon="105.002396"><ele>890.4754</ele><time>2026-06-18T22:30:59.000Z</time></trkpt>
        <trkpt lat="28.469371" lon="105.002431"><ele>890.57336</ele><time>2026-06-18T22:31:01.000Z</time></trkpt>
        <trkpt lat="28.469381" lon="105.002455"><ele>890.57336</ele><time>2026-06-18T22:31:03.000Z</time></trkpt>
        <trkpt lat="28.469388" lon="105.00248"><ele>890.57336</ele><time>2026-06-18T22:31:05.000Z</time></trkpt>
        <trkpt lat="28.469393" lon="105.002503"><ele>891.412</ele><time>2026-06-18T22:31:07.000Z</time></trkpt>
        <trkpt lat="28.469397" lon="105.002524"><ele>891.7461</ele><time>2026-06-18T22:31:09.000Z</time></trkpt>
        <trkpt lat="28.469403" lon="105.002547"><ele>891.7461</ele><time>2026-06-18T22:31:11.000Z</time></trkpt>
        <trkpt lat="28.469412" lon="105.002569"><ele>891.7461</ele><time>2026-06-18T22:31:13.000Z</time></trkpt>
        <trkpt lat="28.469423" lon="105.002594"><ele>891.8029</ele><time>2026-06-18T22:31:15.000Z</time></trkpt>
        <trkpt lat="28.469438" lon="105.002617"><ele>891.87695</ele><time>2026-06-18T22:31:17.000Z</time></trkpt>
        <trkpt lat="28.469455" lon="105.00264"><ele>891.92676</ele><time>2026-06-18T22:31:19.000Z</time></trkpt>
        <trkpt lat="28.469473" lon="105.002662"><ele>891.9835</ele><time>2026-06-18T22:31:21.000Z</time></trkpt>
        <trkpt lat="28.469487" lon="105.002685"><ele>891.9835</ele><time>2026-06-18T22:31:23.000Z</time></trkpt>
        <trkpt lat="28.469495" lon="105.002703"><ele>891.9835</ele><time>2026-06-18T22:31:25.000Z</time></trkpt>
        <trkpt lat="28.469499" lon="105.002713"><ele>892.18506</ele><time>2026-06-18T22:31:27.000Z</time></trkpt>
        <trkpt lat="28.469506" lon="105.002721"><ele>892.54456</ele><time>2026-06-18T22:31:29.000Z</time></trkpt>
        <trkpt lat="28.469515" lon="105.002728"><ele>892.6442</ele><time>2026-06-18T22:31:31.000Z</time></trkpt>
        <trkpt lat="28.469532" lon="105.002739"><ele>892.7972</ele><time>2026-06-18T22:31:33.000Z</time></trkpt>
        <trkpt lat="28.469551" lon="105.002752"><ele>892.7972</ele><time>2026-06-18T22:31:35.000Z</time></trkpt>
        <trkpt lat="28.469572" lon="105.002765"><ele>892.7972</ele><time>2026-06-18T22:31:37.000Z</time></trkpt>
        <trkpt lat="28.469598" lon="105.002778"><ele>892.7972</ele><time>2026-06-18T22:31:39.000Z</time></trkpt>
        <trkpt lat="28.469622" lon="105.002792"><ele>892.6906</ele><time>2026-06-18T22:31:41.000Z</time></trkpt>
        <trkpt lat="28.469646" lon="105.002811"><ele>892.4186</ele><time>2026-06-18T22:31:43.000Z</time></trkpt>
        <trkpt lat="28.46967" lon="105.002831"><ele>892.1598</ele><time>2026-06-18T22:31:45.000Z</time></trkpt>
        <trkpt lat="28.469691" lon="105.002846"><ele>891.9182</ele><time>2026-06-18T22:31:47.000Z</time></trkpt>
        <trkpt lat="28.469712" lon="105.00286"><ele>891.49255</ele><time>2026-06-18T22:31:49.000Z</time></trkpt>
        <trkpt lat="28.469731" lon="105.002872"><ele>891.0885</ele><time>2026-06-18T22:31:51.000Z</time></trkpt>
        <trkpt lat="28.46975" lon="105.002884"><ele>891.0065</ele><time>2026-06-18T22:31:53.000Z</time></trkpt>
        <trkpt lat="28.469773" lon="105.002897"><ele>890.9164</ele><time>2026-06-18T22:31:55.000Z</time></trkpt>
        <trkpt lat="28.469799" lon="105.002907"><ele>890.80383</ele><time>2026-06-18T22:31:57.000Z</time></trkpt>
        <trkpt lat="28.469822" lon="105.002912"><ele>890.47504</ele><time>2026-06-18T22:31:59.000Z</time></trkpt>
        <trkpt lat="28.469845" lon="105.002912"><ele>889.8204</ele><time>2026-06-18T22:32:01.000Z</time></trkpt>
        <trkpt lat="28.469864" lon="105.00291"><ele>889.3782</ele><time>2026-06-18T22:32:03.000Z</time></trkpt>
        <trkpt lat="28.469881" lon="105.002909"><ele>889.30493</ele><time>2026-06-18T22:32:05.000Z</time></trkpt>
        <trkpt lat="28.469895" lon="105.002909"><ele>889.2237</ele><time>2026-06-18T22:32:07.000Z</time></trkpt>
        <trkpt lat="28.469909" lon="105.002914"><ele>889.09937</ele><time>2026-06-18T22:32:09.000Z</time></trkpt>
        <trkpt lat="28.469923" lon="105.002925"><ele>889.005</ele><time>2026-06-18T22:32:11.000Z</time></trkpt>
        <trkpt lat="28.469942" lon="105.002944"><ele>888.7453</ele><time>2026-06-18T22:32:13.000Z</time></trkpt>
        <trkpt lat="28.469967" lon="105.00296"><ele>888.47687</ele><time>2026-06-18T22:32:15.000Z</time></trkpt>
        <trkpt lat="28.469995" lon="105.002973"><ele>888.3973</ele><time>2026-06-18T22:32:17.000Z</time></trkpt>
        <trkpt lat="28.470022" lon="105.002984"><ele>888.357</ele><time>2026-06-18T22:32:19.000Z</time></trkpt>
        <trkpt lat="28.470049" lon="105.002997"><ele>888.15344</ele><time>2026-06-18T22:32:21.000Z</time></trkpt>
        <trkpt lat="28.47007" lon="105.003005"><ele>887.8653</ele><time>2026-06-18T22:32:23.000Z</time></trkpt>
        <trkpt lat="28.470095" lon="105.003012"><ele>887.70325</ele><time>2026-06-18T22:32:25.000Z</time></trkpt>
        <trkpt lat="28.470114" lon="105.00302"><ele>887.66864</ele><time>2026-06-18T22:32:27.000Z</time></trkpt>
        <trkpt lat="28.470135" lon="105.00303"><ele>887.62274</ele><time>2026-06-18T22:32:29.000Z</time></trkpt>
        <trkpt lat="28.470156" lon="105.003041"><ele>887.62274</ele><time>2026-06-18T22:32:31.000Z</time></trkpt>
        <trkpt lat="28.470182" lon="105.003049"><ele>887.62274</ele><time>2026-06-18T22:32:33.000Z</time></trkpt>
        <trkpt lat="28.470207" lon="105.003052"><ele>887.66864</ele><time>2026-06-18T22:32:35.000Z</time></trkpt>
        <trkpt lat="28.470238" lon="105.003056"><ele>887.66864</ele><time>2026-06-18T22:32:37.000Z</time></trkpt>
        <trkpt lat="28.47027" lon="105.003061"><ele>887.73883</ele><time>2026-06-18T22:32:39.000Z</time></trkpt>
        <trkpt lat="28.470297" lon="105.003065"><ele>887.82306</ele><time>2026-06-18T22:32:41.000Z</time></trkpt>
        <trkpt lat="28.470319" lon="105.003067"><ele>888.0784</ele><time>2026-06-18T22:32:43.000Z</time></trkpt>
        <trkpt lat="28.470338" lon="105.003072"><ele>888.3734</ele><time>2026-06-18T22:32:45.000Z</time></trkpt>
        <trkpt lat="28.47036" lon="105.00308"><ele>888.5271</ele><time>2026-06-18T22:32:47.000Z</time></trkpt>
        <trkpt lat="28.470386" lon="105.00309"><ele>889.1475</ele><time>2026-06-18T22:32:49.000Z</time></trkpt>
        <trkpt lat="28.470398" lon="105.003088"><ele>890.0373</ele><time>2026-06-18T22:32:51.000Z</time></trkpt>
        <trkpt lat="28.470416" lon="105.003081"><ele>890.64435</ele><time>2026-06-18T22:32:53.000Z</time></trkpt>
        <trkpt lat="28.470425" lon="105.003073"><ele>891.1143</ele><time>2026-06-18T22:32:55.000Z</time></trkpt>
        <trkpt lat="28.470434" lon="105.003066"><ele>891.69415</ele><time>2026-06-18T22:32:57.000Z</time></trkpt>
        <trkpt lat="28.470447" lon="105.003057"><ele>892.2813</ele><time>2026-06-18T22:32:59.000Z</time></trkpt>
        <trkpt lat="28.470461" lon="105.003052"><ele>892.6358</ele><time>2026-06-18T22:33:01.000Z</time></trkpt>
        <trkpt lat="28.470479" lon="105.003049"><ele>892.9916</ele><time>2026-06-18T22:33:03.000Z</time></trkpt>
        <trkpt lat="28.470494" lon="105.003049"><ele>893.3946</ele><time>2026-06-18T22:33:05.000Z</time></trkpt>
        <trkpt lat="28.470511" lon="105.003054"><ele>893.92773</ele><time>2026-06-18T22:33:07.000Z</time></trkpt>
        <trkpt lat="28.470527" lon="105.00306"><ele>894.4513</ele><time>2026-06-18T22:33:09.000Z</time></trkpt>
        <trkpt lat="28.470541" lon="105.003066"><ele>894.8245</ele><time>2026-06-18T22:33:11.000Z</time></trkpt>
        <trkpt lat="28.47056" lon="105.003076"><ele>895.1727</ele><time>2026-06-18T22:33:13.000Z</time></trkpt>
        <trkpt lat="28.470575" lon="105.003085"><ele>895.4995</ele><time>2026-06-18T22:33:15.000Z</time></trkpt>
        <trkpt lat="28.470585" lon="105.003094"><ele>895.6658</ele><time>2026-06-18T22:33:17.000Z</time></trkpt>
        <trkpt lat="28.470593" lon="105.003101"><ele>895.7848</ele><time>2026-06-18T22:33:19.000Z</time></trkpt>
        <trkpt lat="28.470607" lon="105.003103"><ele>895.9196</ele><time>2026-06-18T22:33:21.000Z</time></trkpt>
        <trkpt lat="28.47063" lon="105.003107"><ele>896.0386</ele><time>2026-06-18T22:33:23.000Z</time></trkpt>
        <trkpt lat="28.470659" lon="105.003108"><ele>896.1495</ele><time>2026-06-18T22:33:25.000Z</time></trkpt>
        <trkpt lat="28.470689" lon="105.003113"><ele>896.2619</ele><time>2026-06-18T22:33:27.000Z</time></trkpt>
        <trkpt lat="28.470716" lon="105.003115"><ele>896.4942</ele><time>2026-06-18T22:33:29.000Z</time></trkpt>
        <trkpt lat="28.470743" lon="105.003118"><ele>896.7809</ele><time>2026-06-18T22:33:31.000Z</time></trkpt>
        <trkpt lat="28.470769" lon="105.003121"><ele>897.1546</ele><time>2026-06-18T22:33:33.000Z</time></trkpt>
        <trkpt lat="28.470793" lon="105.003125"><ele>897.55005</ele><time>2026-06-18T22:33:35.000Z</time></trkpt>
        <trkpt lat="28.470812" lon="105.003127"><ele>897.85803</ele><time>2026-06-18T22:33:37.000Z</time></trkpt>
        <trkpt lat="28.470835" lon="105.003131"><ele>898.0654</ele><time>2026-06-18T22:33:39.000Z</time></trkpt>
        <trkpt lat="28.470856" lon="105.003134"><ele>898.21185</ele><time>2026-06-18T22:33:41.000Z</time></trkpt>
        <trkpt lat="28.470876" lon="105.003137"><ele>898.2892</ele><time>2026-06-18T22:33:43.000Z</time></trkpt>
        <trkpt lat="28.470898" lon="105.003141"><ele>898.3083</ele><time>2026-06-18T22:33:45.000Z</time></trkpt>
        <trkpt lat="28.470916" lon="105.003145"><ele>898.5627</ele><time>2026-06-18T22:33:47.000Z</time></trkpt>
        <trkpt lat="28.470933" lon="105.003149"><ele>898.83344</ele><time>2026-06-18T22:33:49.000Z</time></trkpt>
        <trkpt lat="28.470948" lon="105.003155"><ele>898.96436</ele><time>2026-06-18T22:33:51.000Z</time></trkpt>
        <trkpt lat="28.470963" lon="105.003163"><ele>899.19934</ele><time>2026-06-18T22:33:53.000Z</time></trkpt>
        <trkpt lat="28.470979" lon="105.003172"><ele>899.5145</ele><time>2026-06-18T22:33:55.000Z</time></trkpt>
        <trkpt lat="28.470994" lon="105.00318"><ele>899.588</ele><time>2026-06-18T22:33:57.000Z</time></trkpt>
        <trkpt lat="28.47101" lon="105.003188"><ele>899.588</ele><time>2026-06-18T22:33:59.000Z</time></trkpt>
        <trkpt lat="28.471021" lon="105.003191"><ele>899.588</ele><time>2026-06-18T22:34:01.000Z</time></trkpt>
        <trkpt lat="28.471031" lon="105.003196"><ele>899.588</ele><time>2026-06-18T22:34:03.000Z</time></trkpt>
        <trkpt lat="28.47104" lon="105.003197"><ele>899.588</ele><time>2026-06-18T22:34:05.000Z</time></trkpt>
        <trkpt lat="28.471047" lon="105.003206"><ele>899.4199</ele><time>2026-06-18T22:34:09.000Z</time></trkpt>
        <trkpt lat="28.471068" lon="105.003229"><ele>899.4199</ele><time>2026-06-18T22:34:15.000Z</time></trkpt>
        <trkpt lat="28.471069" lon="105.003229"><ele>899.4199</ele><time>2026-06-18T22:34:17.000Z</time></trkpt>
        <trkpt lat="28.471073" lon="105.003231"><ele>899.4199</ele><time>2026-06-18T22:34:19.000Z</time></trkpt>
        <trkpt lat="28.471134" lon="105.003258"><ele>899.4199</ele><time>2026-06-18T22:34:23.000Z</time></trkpt>
        <trkpt lat="28.471257" lon="105.003314"><ele>900.24524</ele><time>2026-06-18T22:34:29.000Z</time></trkpt>
        <trkpt lat="28.471258" lon="105.003314"><ele>901.13165</ele><time>2026-06-18T22:34:31.000Z</time></trkpt>
        <trkpt lat="28.47126" lon="105.003314"><ele>901.13165</ele><time>2026-06-18T22:34:33.000Z</time></trkpt>
        <trkpt lat="28.471292" lon="105.003325"><ele>901.13165</ele><time>2026-06-18T22:34:37.000Z</time></trkpt>
        <trkpt lat="28.471318" lon="105.003331"><ele>901.13165</ele><time>2026-06-18T22:34:39.000Z</time></trkpt>
        <trkpt lat="28.471342" lon="105.003338"><ele>901.13165</ele><time>2026-06-18T22:34:41.000Z</time></trkpt>
        <trkpt lat="28.471365" lon="105.003349"><ele>901.0904</ele><time>2026-06-18T22:34:43.000Z</time></trkpt>
        <trkpt lat="28.471393" lon="105.003366"><ele>900.69434</ele><time>2026-06-18T22:34:45.000Z</time></trkpt>
        <trkpt lat="28.471422" lon="105.003384"><ele>899.9949</ele><time>2026-06-18T22:34:47.000Z</time></trkpt>
        <trkpt lat="28.471449" lon="105.003402"><ele>899.1356</ele><time>2026-06-18T22:34:49.000Z</time></trkpt>
        <trkpt lat="28.471474" lon="105.003419"><ele>898.2673</ele><time>2026-06-18T22:34:51.000Z</time></trkpt>
        <trkpt lat="28.471494" lon="105.003431"><ele>897.5464</ele><time>2026-06-18T22:34:53.000Z</time></trkpt>
        <trkpt lat="28.471514" lon="105.003442"><ele>896.8444</ele><time>2026-06-18T22:34:55.000Z</time></trkpt>
        <trkpt lat="28.471534" lon="105.003451"><ele>896.2985</ele><time>2026-06-18T22:34:57.000Z</time></trkpt>
        <trkpt lat="28.471553" lon="105.00346"><ele>895.8738</ele><time>2026-06-18T22:34:59.000Z</time></trkpt>
        <trkpt lat="28.471572" lon="105.003469"><ele>895.2479</ele><time>2026-06-18T22:35:01.000Z</time></trkpt>
        <trkpt lat="28.471592" lon="105.003474"><ele>894.33075</ele><time>2026-06-18T22:35:03.000Z</time></trkpt>
        <trkpt lat="28.47161" lon="105.003478"><ele>893.4888</ele><time>2026-06-18T22:35:05.000Z</time></trkpt>
        <trkpt lat="28.47162" lon="105.003478"><ele>892.85016</ele><time>2026-06-18T22:35:07.000Z</time></trkpt>
        <trkpt lat="28.471629" lon="105.003478"><ele>892.2458</ele><time>2026-06-18T22:35:09.000Z</time></trkpt>
        <trkpt lat="28.471644" lon="105.003479"><ele>891.6597</ele><time>2026-06-18T22:35:11.000Z</time></trkpt>
        <trkpt lat="28.471662" lon="105.003484"><ele>891.2522</ele><time>2026-06-18T22:35:13.000Z</time></trkpt>
        <trkpt lat="28.47168" lon="105.003494"><ele>890.9119</ele><time>2026-06-18T22:35:15.000Z</time></trkpt>
        <trkpt lat="28.471698" lon="105.003504"><ele>890.45013</ele><time>2026-06-18T22:35:17.000Z</time></trkpt>
        <trkpt lat="28.471717" lon="105.003516"><ele>890.1216</ele><time>2026-06-18T22:35:19.000Z</time></trkpt>
        <trkpt lat="28.471736" lon="105.003528"><ele>889.8647</ele><time>2026-06-18T22:35:21.000Z</time></trkpt>
        <trkpt lat="28.471754" lon="105.003538"><ele>889.5818</ele><time>2026-06-18T22:35:23.000Z</time></trkpt>
        <trkpt lat="28.471773" lon="105.003546"><ele>889.10095</ele><time>2026-06-18T22:35:25.000Z</time></trkpt>
        <trkpt lat="28.471795" lon="105.003553"><ele>888.3547</ele><time>2026-06-18T22:35:27.000Z</time></trkpt>
        <trkpt lat="28.471817" lon="105.003559"><ele>887.64404</ele><time>2026-06-18T22:35:29.000Z</time></trkpt>
        <trkpt lat="28.47184" lon="105.003566"><ele>887.2943</ele><time>2026-06-18T22:35:31.000Z</time></trkpt>
        <trkpt lat="28.471863" lon="105.003573"><ele>887.2943</ele><time>2026-06-18T22:35:33.000Z</time></trkpt>
        <trkpt lat="28.471879" lon="105.00358"><ele>887.2943</ele><time>2026-06-18T22:35:35.000Z</time></trkpt>
        <trkpt lat="28.471881" lon="105.003582"><ele>887.228</ele><time>2026-06-18T22:35:37.000Z</time></trkpt>
        <trkpt lat="28.471902" lon="105.003606"><ele>887.0392</ele><time>2026-06-18T22:35:48.000Z</time></trkpt>
        <trkpt lat="28.471902" lon="105.003606"><ele>886.9056</ele><time>2026-06-18T22:35:50.000Z</time></trkpt>
        <trkpt lat="28.471907" lon="105.003607"><ele>886.9364</ele><time>2026-06-18T22:35:52.000Z</time></trkpt>
        <trkpt lat="28.471969" lon="105.003618"><ele>887.07</ele><time>2026-06-18T22:35:56.000Z</time></trkpt>
        <trkpt lat="28.472006" lon="105.003627"><ele>887.228</ele><time>2026-06-18T22:35:58.000Z</time></trkpt>
        <trkpt lat="28.472043" lon="105.00364"><ele>887.4924</ele><time>2026-06-18T22:36:00.000Z</time></trkpt>
        <trkpt lat="28.47207" lon="105.003652"><ele>887.7769</ele><time>2026-06-18T22:36:02.000Z</time></trkpt>
        <trkpt lat="28.47209" lon="105.003665"><ele>887.8311</ele><time>2026-06-18T22:36:04.000Z</time></trkpt>
        <trkpt lat="28.472104" lon="105.003678"><ele>888.2077</ele><time>2026-06-18T22:36:06.000Z</time></trkpt>
        <trkpt lat="28.472117" lon="105.003693"><ele>888.5361</ele><time>2026-06-18T22:36:08.000Z</time></trkpt>
        <trkpt lat="28.472128" lon="105.003709"><ele>888.5361</ele><time>2026-06-18T22:36:10.000Z</time></trkpt>
        <trkpt lat="28.472137" lon="105.003728"><ele>888.5361</ele><time>2026-06-18T22:36:12.000Z</time></trkpt>
        <trkpt lat="28.472151" lon="105.003748"><ele>888.5361</ele><time>2026-06-18T22:36:14.000Z</time></trkpt>
        <trkpt lat="28.472167" lon="105.003764"><ele>888.5361</ele><time>2026-06-18T22:36:16.000Z</time></trkpt>
        <trkpt lat="28.472187" lon="105.003779"><ele>888.3974</ele><time>2026-06-18T22:36:18.000Z</time></trkpt>
        <trkpt lat="28.472207" lon="105.003792"><ele>888.3305</ele><time>2026-06-18T22:36:20.000Z</time></trkpt>
        <trkpt lat="28.472224" lon="105.003802"><ele>888.1293</ele><time>2026-06-18T22:36:22.000Z</time></trkpt>
        <trkpt lat="28.472244" lon="105.003811"><ele>887.8956</ele><time>2026-06-18T22:36:24.000Z</time></trkpt>
        <trkpt lat="28.472267" lon="105.003825"><ele>887.8956</ele><time>2026-06-18T22:36:26.000Z</time></trkpt>
        <trkpt lat="28.472282" lon="105.003837"><ele>887.8168</ele><time>2026-06-18T22:36:28.000Z</time></trkpt>
        <trkpt lat="28.4723" lon="105.003851"><ele>887.60864</ele><time>2026-06-18T22:36:30.000Z</time></trkpt>
        <trkpt lat="28.472315" lon="105.003867"><ele>887.60864</ele><time>2026-06-18T22:36:32.000Z</time></trkpt>
        <trkpt lat="28.472332" lon="105.003882"><ele>887.60864</ele><time>2026-06-18T22:36:34.000Z</time></trkpt>
        <trkpt lat="28.472351" lon="105.003901"><ele>887.64667</ele><time>2026-06-18T22:36:36.000Z</time></trkpt>
        <trkpt lat="28.472371" lon="105.003917"><ele>887.87366</ele><time>2026-06-18T22:36:38.000Z</time></trkpt>
        <trkpt lat="28.472388" lon="105.003929"><ele>887.93445</ele><time>2026-06-18T22:36:40.000Z</time></trkpt>
        <trkpt lat="28.472408" lon="105.003943"><ele>887.9835</ele><time>2026-06-18T22:36:42.000Z</time></trkpt>
        <trkpt lat="28.472424" lon="105.003953"><ele>887.9835</ele><time>2026-06-18T22:36:44.000Z</time></trkpt>
        <trkpt lat="28.472441" lon="105.003961"><ele>887.93445</ele><time>2026-06-18T22:36:46.000Z</time></trkpt>
        <trkpt lat="28.472462" lon="105.00397"><ele>887.93445</ele><time>2026-06-18T22:36:48.000Z</time></trkpt>
        <trkpt lat="28.472486" lon="105.003979"><ele>887.93445</ele><time>2026-06-18T22:36:50.000Z</time></trkpt>
        <trkpt lat="28.47251" lon="105.003989"><ele>887.9292</ele><time>2026-06-18T22:36:52.000Z</time></trkpt>
        <trkpt lat="28.472534" lon="105.004"><ele>887.7594</ele><time>2026-06-18T22:36:54.000Z</time></trkpt>
        <trkpt lat="28.472562" lon="105.004009"><ele>887.7594</ele><time>2026-06-18T22:36:56.000Z</time></trkpt>
        <trkpt lat="28.472589" lon="105.004019"><ele>887.64325</ele><time>2026-06-18T22:36:58.000Z</time></trkpt>
        <trkpt lat="28.472614" lon="105.004028"><ele>887.6101</ele><time>2026-06-18T22:37:00.000Z</time></trkpt>
        <trkpt lat="28.472643" lon="105.004038"><ele>887.6101</ele><time>2026-06-18T22:37:02.000Z</time></trkpt>
        <trkpt lat="28.472668" lon="105.004052"><ele>887.6101</ele><time>2026-06-18T22:37:04.000Z</time></trkpt>
        <trkpt lat="28.472678" lon="105.004063"><ele>887.61664</ele><time>2026-06-18T22:37:06.000Z</time></trkpt>
        <trkpt lat="28.472681" lon="105.004064"><ele>887.6396</ele><time>2026-06-18T22:37:08.000Z</time></trkpt>
        <trkpt lat="28.472725" lon="105.00408"><ele>887.6866</ele><time>2026-06-18T22:37:24.000Z</time></trkpt>
        <trkpt lat="28.472725" lon="105.00408"><ele>887.7277</ele><time>2026-06-18T22:37:26.000Z</time></trkpt>
        <trkpt lat="28.472728" lon="105.004081"><ele>887.7915</ele><time>2026-06-18T22:37:28.000Z</time></trkpt>
        <trkpt lat="28.472778" lon="105.004103"><ele>887.7915</ele><time>2026-06-18T22:37:32.000Z</time></trkpt>
        <trkpt lat="28.472812" lon="105.004113"><ele>887.94366</ele><time>2026-06-18T22:37:34.000Z</time></trkpt>
        <trkpt lat="28.472848" lon="105.004119"><ele>888.08044</ele><time>2026-06-18T22:37:36.000Z</time></trkpt>
        <trkpt lat="28.472888" lon="105.004123"><ele>888.3821</ele><time>2026-06-18T22:37:38.000Z</time></trkpt>
        <trkpt lat="28.472926" lon="105.004123"><ele>888.6688</ele><time>2026-06-18T22:37:40.000Z</time></trkpt>
        <trkpt lat="28.472964" lon="105.004124"><ele>888.8009</ele><time>2026-06-18T22:37:42.000Z</time></trkpt>
        <trkpt lat="28.472999" lon="105.004125"><ele>888.90594</ele><time>2026-06-18T22:37:44.000Z</time></trkpt>
        <trkpt lat="28.473029" lon="105.004124"><ele>889.22797</ele><time>2026-06-18T22:37:46.000Z</time></trkpt>
        <trkpt lat="28.473053" lon="105.004126"><ele>890.0769</ele><time>2026-06-18T22:37:48.000Z</time></trkpt>
        <trkpt lat="28.473063" lon="105.004132"><ele>891.22015</ele><time>2026-06-18T22:37:50.000Z</time></trkpt>
        <trkpt lat="28.47307" lon="105.004132"><ele>892.43567</ele><time>2026-06-18T22:37:52.000Z</time></trkpt>
        <trkpt lat="28.473085" lon="105.004135"><ele>893.2308</ele><time>2026-06-18T22:37:56.000Z</time></trkpt>
        <trkpt lat="28.473143" lon="105.004144"><ele>893.2308</ele><time>2026-06-18T22:38:02.000Z</time></trkpt>
        <trkpt lat="28.473143" lon="105.004144"><ele>893.2308</ele><time>2026-06-18T22:38:04.000Z</time></trkpt>
        <trkpt lat="28.473146" lon="105.004145"><ele>893.2308</ele><time>2026-06-18T22:38:06.000Z</time></trkpt>
        <trkpt lat="28.473191" lon="105.004163"><ele>893.2308</ele><time>2026-06-18T22:38:10.000Z</time></trkpt>
        <trkpt lat="28.473225" lon="105.004176"><ele>893.211</ele><time>2026-06-18T22:38:12.000Z</time></trkpt>
        <trkpt lat="28.473261" lon="105.004187"><ele>892.99335</ele><time>2026-06-18T22:38:14.000Z</time></trkpt>
        <trkpt lat="28.473293" lon="105.004196"><ele>892.9854</ele><time>2026-06-18T22:38:16.000Z</time></trkpt>
        <trkpt lat="28.473322" lon="105.004201"><ele>892.7118</ele><time>2026-06-18T22:38:18.000Z</time></trkpt>
        <trkpt lat="28.47335" lon="105.004199"><ele>892.7118</ele><time>2026-06-18T22:38:20.000Z</time></trkpt>
        <trkpt lat="28.473377" lon="105.004197"><ele>892.7118</ele><time>2026-06-18T22:38:22.000Z</time></trkpt>
        <trkpt lat="28.473401" lon="105.004195"><ele>892.7118</ele><time>2026-06-18T22:38:24.000Z</time></trkpt>
        <trkpt lat="28.473426" lon="105.004192"><ele>892.7118</ele><time>2026-06-18T22:38:26.000Z</time></trkpt>
        <trkpt lat="28.47345" lon="105.004188"><ele>892.7259</ele><time>2026-06-18T22:38:28.000Z</time></trkpt>
        <trkpt lat="28.473475" lon="105.004181"><ele>893.32245</ele><time>2026-06-18T22:38:30.000Z</time></trkpt>
        <trkpt lat="28.4735" lon="105.004171"><ele>893.83344</ele><time>2026-06-18T22:38:32.000Z</time></trkpt>
        <trkpt lat="28.473524" lon="105.00416"><ele>893.83344</ele><time>2026-06-18T22:38:34.000Z</time></trkpt>
        <trkpt lat="28.473549" lon="105.004151"><ele>893.83344</ele><time>2026-06-18T22:38:36.000Z</time></trkpt>
        <trkpt lat="28.473577" lon="105.004142"><ele>893.83344</ele><time>2026-06-18T22:38:38.000Z</time></trkpt>
        <trkpt lat="28.473602" lon="105.004133"><ele>893.83344</ele><time>2026-06-18T22:38:40.000Z</time></trkpt>
        <trkpt lat="28.473622" lon="105.004123"><ele>893.6783</ele><time>2026-06-18T22:38:42.000Z</time></trkpt>
        <trkpt lat="28.473642" lon="105.004109"><ele>893.0313</ele><time>2026-06-18T22:38:44.000Z</time></trkpt>
        <trkpt lat="28.473664" lon="105.004096"><ele>892.68646</ele><time>2026-06-18T22:38:46.000Z</time></trkpt>
        <trkpt lat="28.473676" lon="105.004087"><ele>892.4214</ele><time>2026-06-18T22:38:48.000Z</time></trkpt>
        <trkpt lat="28.473686" lon="105.004079"><ele>892.0644</ele><time>2026-06-18T22:38:50.000Z</time></trkpt>
        <trkpt lat="28.473704" lon="105.004066"><ele>891.69824</ele><time>2026-06-18T22:38:52.000Z</time></trkpt>
        <trkpt lat="28.473727" lon="105.004054"><ele>891.4415</ele><time>2026-06-18T22:38:54.000Z</time></trkpt>
        <trkpt lat="28.473749" lon="105.004046"><ele>891.18823</ele><time>2026-06-18T22:38:56.000Z</time></trkpt>
        <trkpt lat="28.473771" lon="105.004038"><ele>890.9445</ele><time>2026-06-18T22:38:58.000Z</time></trkpt>
        <trkpt lat="28.473796" lon="105.004032"><ele>890.872</ele><time>2026-06-18T22:39:00.000Z</time></trkpt>
        <trkpt lat="28.473823" lon="105.004029"><ele>890.76526</ele><time>2026-06-18T22:39:02.000Z</time></trkpt>
        <trkpt lat="28.473852" lon="105.004028"><ele>890.67993</ele><time>2026-06-18T22:39:04.000Z</time></trkpt>
        <trkpt lat="28.473881" lon="105.004028"><ele>890.55176</ele><time>2026-06-18T22:39:06.000Z</time></trkpt>
        <trkpt lat="28.473905" lon="105.004027"><ele>890.34424</ele><time>2026-06-18T22:39:08.000Z</time></trkpt>
        <trkpt lat="28.47393" lon="105.004023"><ele>890.34424</ele><time>2026-06-18T22:39:10.000Z</time></trkpt>
        <trkpt lat="28.473952" lon="105.004021"><ele>890.34424</ele><time>2026-06-18T22:39:12.000Z</time></trkpt>
        <trkpt lat="28.47397" lon="105.004018"><ele>890.34424</ele><time>2026-06-18T22:39:14.000Z</time></trkpt>
        <trkpt lat="28.473992" lon="105.004014"><ele>890.34424</ele><time>2026-06-18T22:39:16.000Z</time></trkpt>
        <trkpt lat="28.474016" lon="105.004009"><ele>890.4755</ele><time>2026-06-18T22:39:18.000Z</time></trkpt>
        <trkpt lat="28.474043" lon="105.004004"><ele>890.8269</ele><time>2026-06-18T22:39:20.000Z</time></trkpt>
        <trkpt lat="28.474072" lon="105.004002"><ele>890.9395</ele><time>2026-06-18T22:39:22.000Z</time></trkpt>
        <trkpt lat="28.474099" lon="105.004003"><ele>890.9497</ele><time>2026-06-18T22:39:24.000Z</time></trkpt>
        <trkpt lat="28.474121" lon="105.004005"><ele>891.1885</ele><time>2026-06-18T22:39:26.000Z</time></trkpt>
        <trkpt lat="28.474142" lon="105.004005"><ele>891.463</ele><time>2026-06-18T22:39:28.000Z</time></trkpt>
        <trkpt lat="28.474162" lon="105.004003"><ele>891.59875</ele><time>2026-06-18T22:39:30.000Z</time></trkpt>
        <trkpt lat="28.474184" lon="105.004004"><ele>891.72504</ele><time>2026-06-18T22:39:32.000Z</time></trkpt>
        <trkpt lat="28.474207" lon="105.004007"><ele>892.0817</ele><time>2026-06-18T22:39:34.000Z</time></trkpt>
        <trkpt lat="28.474232" lon="105.004009"><ele>892.4209</ele><time>2026-06-18T22:39:36.000Z</time></trkpt>
        <trkpt lat="28.474257" lon="105.004008"><ele>892.5618</ele><time>2026-06-18T22:39:38.000Z</time></trkpt>
        <trkpt lat="28.474282" lon="105.004006"><ele>892.7601</ele><time>2026-06-18T22:39:40.000Z</time></trkpt>
        <trkpt lat="28.474312" lon="105.004004"><ele>892.7831</ele><time>2026-06-18T22:39:42.000Z</time></trkpt>
        <trkpt lat="28.474341" lon="105.004003"><ele>892.7831</ele><time>2026-06-18T22:39:44.000Z</time></trkpt>
        <trkpt lat="28.474366" lon="105.004002"><ele>892.7831</ele><time>2026-06-18T22:39:46.000Z</time></trkpt>
        <trkpt lat="28.474391" lon="105.004003"><ele>892.7831</ele><time>2026-06-18T22:39:48.000Z</time></trkpt>
        <trkpt lat="28.474416" lon="105.004004"><ele>892.7831</ele><time>2026-06-18T22:39:50.000Z</time></trkpt>
        <trkpt lat="28.474442" lon="105.004003"><ele>892.7831</ele><time>2026-06-18T22:39:52.000Z</time></trkpt>
        <trkpt lat="28.474464" lon="105.004004"><ele>892.7831</ele><time>2026-06-18T22:39:54.000Z</time></trkpt>
        <trkpt lat="28.474488" lon="105.004008"><ele>892.7831</ele><time>2026-06-18T22:39:56.000Z</time></trkpt>
        <trkpt lat="28.474507" lon="105.004013"><ele>892.81537</ele><time>2026-06-18T22:39:58.000Z</time></trkpt>
        <trkpt lat="28.474527" lon="105.004018"><ele>892.99384</ele><time>2026-06-18T22:40:00.000Z</time></trkpt>
        <trkpt lat="28.474546" lon="105.004023"><ele>893.58777</ele><time>2026-06-18T22:40:02.000Z</time></trkpt>
        <trkpt lat="28.474565" lon="105.00403"><ele>893.8465</ele><time>2026-06-18T22:40:04.000Z</time></trkpt>
        <trkpt lat="28.474585" lon="105.00404"><ele>893.8465</ele><time>2026-06-18T22:40:06.000Z</time></trkpt>
        <trkpt lat="28.474603" lon="105.004056"><ele>893.8465</ele><time>2026-06-18T22:40:08.000Z</time></trkpt>
        <trkpt lat="28.474623" lon="105.004078"><ele>893.8465</ele><time>2026-06-18T22:40:10.000Z</time></trkpt>
        <trkpt lat="28.474644" lon="105.004099"><ele>893.8465</ele><time>2026-06-18T22:40:12.000Z</time></trkpt>
        <trkpt lat="28.474668" lon="105.004119"><ele>893.54535</ele><time>2026-06-18T22:40:14.000Z</time></trkpt>
        <trkpt lat="28.474692" lon="105.004136"><ele>892.951</ele><time>2026-06-18T22:40:16.000Z</time></trkpt>
        <trkpt lat="28.474715" lon="105.004151"><ele>892.48706</ele><time>2026-06-18T22:40:18.000Z</time></trkpt>
        <trkpt lat="28.474738" lon="105.004167"><ele>892.277</ele><time>2026-06-18T22:40:20.000Z</time></trkpt>
        <trkpt lat="28.474758" lon="105.004179"><ele>892.0518</ele><time>2026-06-18T22:40:22.000Z</time></trkpt>
        <trkpt lat="28.474775" lon="105.004188"><ele>891.9341</ele><time>2026-06-18T22:40:24.000Z</time></trkpt>
        <trkpt lat="28.474794" lon="105.004195"><ele>891.85223</ele><time>2026-06-18T22:40:26.000Z</time></trkpt>
        <trkpt lat="28.474812" lon="105.004206"><ele>891.6485</ele><time>2026-06-18T22:40:28.000Z</time></trkpt>
        <trkpt lat="28.474833" lon="105.004221"><ele>891.50995</ele><time>2026-06-18T22:40:30.000Z</time></trkpt>
        <trkpt lat="28.474851" lon="105.004234"><ele>891.21246</ele><time>2026-06-18T22:40:32.000Z</time></trkpt>
        <trkpt lat="28.474865" lon="105.00424"><ele>890.83356</ele><time>2026-06-18T22:40:34.000Z</time></trkpt>
        <trkpt lat="28.474881" lon="105.004243"><ele>890.6078</ele><time>2026-06-18T22:40:36.000Z</time></trkpt>
        <trkpt lat="28.474896" lon="105.004245"><ele>890.4642</ele><time>2026-06-18T22:40:38.000Z</time></trkpt>
        <trkpt lat="28.474917" lon="105.004249"><ele>890.3731</ele><time>2026-06-18T22:40:40.000Z</time></trkpt>
        <trkpt lat="28.47494" lon="105.004255"><ele>890.21674</ele><time>2026-06-18T22:40:42.000Z</time></trkpt>
        <trkpt lat="28.474966" lon="105.00426"><ele>889.92554</ele><time>2026-06-18T22:40:44.000Z</time></trkpt>
        <trkpt lat="28.474992" lon="105.004267"><ele>889.704</ele><time>2026-06-18T22:40:46.000Z</time></trkpt>
        <trkpt lat="28.475017" lon="105.004277"><ele>889.66693</ele><time>2026-06-18T22:40:48.000Z</time></trkpt>
        <trkpt lat="28.475044" lon="105.004287"><ele>889.56885</ele><time>2026-06-18T22:40:50.000Z</time></trkpt>
        <trkpt lat="28.475071" lon="105.004298"><ele>889.4953</ele><time>2026-06-18T22:40:52.000Z</time></trkpt>
        <trkpt lat="28.475095" lon="105.004308"><ele>889.3509</ele><time>2026-06-18T22:40:54.000Z</time></trkpt>
        <trkpt lat="28.47512" lon="105.004315"><ele>889.1913</ele><time>2026-06-18T22:40:56.000Z</time></trkpt>
        <trkpt lat="28.475143" lon="105.004321"><ele>889.1091</ele><time>2026-06-18T22:40:58.000Z</time></trkpt>
        <trkpt lat="28.475165" lon="105.004324"><ele>888.90906</ele><time>2026-06-18T22:41:00.000Z</time></trkpt>
        <trkpt lat="28.47519" lon="105.004325"><ele>888.7645</ele><time>2026-06-18T22:41:02.000Z</time></trkpt>
        <trkpt lat="28.475211" lon="105.004324"><ele>888.74365</ele><time>2026-06-18T22:41:04.000Z</time></trkpt>
        <trkpt lat="28.475231" lon="105.00432"><ele>888.7266</ele><time>2026-06-18T22:41:06.000Z</time></trkpt>
        <trkpt lat="28.475255" lon="105.004313"><ele>888.6507</ele><time>2026-06-18T22:41:08.000Z</time></trkpt>
        <trkpt lat="28.475279" lon="105.004305"><ele>888.6197</ele><time>2026-06-18T22:41:10.000Z</time></trkpt>
        <trkpt lat="28.4753" lon="105.004298"><ele>888.5296</ele><time>2026-06-18T22:41:12.000Z</time></trkpt>
        <trkpt lat="28.475323" lon="105.004288"><ele>888.4668</ele><time>2026-06-18T22:41:14.000Z</time></trkpt>
        <trkpt lat="28.475346" lon="105.004277"><ele>888.4668</ele><time>2026-06-18T22:41:16.000Z</time></trkpt>
        <trkpt lat="28.475372" lon="105.00426"><ele>888.4668</ele><time>2026-06-18T22:41:18.000Z</time></trkpt>
        <trkpt lat="28.47539" lon="105.004243"><ele>888.41315</ele><time>2026-06-18T22:41:20.000Z</time></trkpt>
        <trkpt lat="28.475405" lon="105.004225"><ele>887.9481</ele><time>2026-06-18T22:41:22.000Z</time></trkpt>
        <trkpt lat="28.475422" lon="105.004202"><ele>887.32837</ele><time>2026-06-18T22:41:24.000Z</time></trkpt>
        <trkpt lat="28.475442" lon="105.004178"><ele>887.0772</ele><time>2026-06-18T22:41:26.000Z</time></trkpt>
        <trkpt lat="28.47546" lon="105.004155"><ele>886.99347</ele><time>2026-06-18T22:41:28.000Z</time></trkpt>
        <trkpt lat="28.475466" lon="105.00414"><ele>886.97144</ele><time>2026-06-18T22:41:30.000Z</time></trkpt>
        <trkpt lat="28.475467" lon="105.00414"><ele>886.92847</ele><time>2026-06-18T22:41:32.000Z</time></trkpt>
        <trkpt lat="28.475429" lon="105.004135"><ele>886.92847</ele><time>2026-06-18T22:41:38.000Z</time></trkpt>
        <trkpt lat="28.475419" lon="105.004134"><ele>886.9306</ele><time>2026-06-18T22:41:40.000Z</time></trkpt>
        <trkpt lat="28.475415" lon="105.004136"><ele>886.9306</ele><time>2026-06-18T22:41:42.000Z</time></trkpt>
        <trkpt lat="28.475459" lon="105.00411"><ele>886.9306</ele><time>2026-06-18T22:42:01.000Z</time></trkpt>
        <trkpt lat="28.475512" lon="105.00408"><ele>886.9306</ele><time>2026-06-18T22:42:07.000Z</time></trkpt>
        <trkpt lat="28.475512" lon="105.00408"><ele>886.9306</ele><time>2026-06-18T22:42:09.000Z</time></trkpt>
        <trkpt lat="28.475514" lon="105.004078"><ele>886.9306</ele><time>2026-06-18T22:42:11.000Z</time></trkpt>
        <trkpt lat="28.475551" lon="105.004058"><ele>887.1679</ele><time>2026-06-18T22:42:15.000Z</time></trkpt>
        <trkpt lat="28.475573" lon="105.004049"><ele>887.3854</ele><time>2026-06-18T22:42:17.000Z</time></trkpt>
        <trkpt lat="28.475599" lon="105.004046"><ele>887.46704</ele><time>2026-06-18T22:42:19.000Z</time></trkpt>
        <trkpt lat="28.475625" lon="105.004046"><ele>887.5928</ele><time>2026-06-18T22:42:21.000Z</time></trkpt>
        <trkpt lat="28.475642" lon="105.004046"><ele>887.84534</ele><time>2026-06-18T22:42:23.000Z</time></trkpt>
        <trkpt lat="28.475646" lon="105.004047"><ele>888.4078</ele><time>2026-06-18T22:42:25.000Z</time></trkpt>
        <trkpt lat="28.475709" lon="105.00405"><ele>889.1684</ele><time>2026-06-18T22:42:32.000Z</time></trkpt>
        <trkpt lat="28.475709" lon="105.00405"><ele>889.56415</ele><time>2026-06-18T22:42:34.000Z</time></trkpt>
        <trkpt lat="28.475714" lon="105.00405"><ele>889.6114</ele><time>2026-06-18T22:42:36.000Z</time></trkpt>
        <trkpt lat="28.475775" lon="105.004055"><ele>889.6114</ele><time>2026-06-18T22:42:40.000Z</time></trkpt>
        <trkpt lat="28.475949" lon="105.004069"><ele>889.6114</ele><time>2026-06-18T22:42:48.000Z</time></trkpt>
        <trkpt lat="28.475949" lon="105.004069"><ele>889.6114</ele><time>2026-06-18T22:42:50.000Z</time></trkpt>
        <trkpt lat="28.475951" lon="105.004069"><ele>889.6114</ele><time>2026-06-18T22:42:52.000Z</time></trkpt>
        <trkpt lat="28.475995" lon="105.004063"><ele>889.1312</ele><time>2026-06-18T22:42:56.000Z</time></trkpt>
        <trkpt lat="28.476025" lon="105.004061"><ele>887.8638</ele><time>2026-06-18T22:42:58.000Z</time></trkpt>
        <trkpt lat="28.476052" lon="105.004062"><ele>887.03864</ele><time>2026-06-18T22:43:00.000Z</time></trkpt>
        <trkpt lat="28.476078" lon="105.004062"><ele>887.0355</ele><time>2026-06-18T22:43:02.000Z</time></trkpt>
        <trkpt lat="28.476101" lon="105.004063"><ele>886.9073</ele><time>2026-06-18T22:43:04.000Z</time></trkpt>
        <trkpt lat="28.476124" lon="105.004064"><ele>886.48615</ele><time>2026-06-18T22:43:06.000Z</time></trkpt>
        <trkpt lat="28.476147" lon="105.004066"><ele>886.04663</ele><time>2026-06-18T22:43:08.000Z</time></trkpt>
        <trkpt lat="28.476171" lon="105.004068"><ele>885.8245</ele><time>2026-06-18T22:43:10.000Z</time></trkpt>
        <trkpt lat="28.476194" lon="105.004069"><ele>885.72943</ele><time>2026-06-18T22:43:12.000Z</time></trkpt>
        <trkpt lat="28.476221" lon="105.004071"><ele>885.4588</ele><time>2026-06-18T22:43:14.000Z</time></trkpt>
        <trkpt lat="28.47625" lon="105.004072"><ele>885.0237</ele><time>2026-06-18T22:43:16.000Z</time></trkpt>
        <trkpt lat="28.476277" lon="105.004072"><ele>884.73096</ele><time>2026-06-18T22:43:18.000Z</time></trkpt>
        <trkpt lat="28.476304" lon="105.004072"><ele>884.6186</ele><time>2026-06-18T22:43:20.000Z</time></trkpt>
        <trkpt lat="28.476331" lon="105.004073"><ele>884.6186</ele><time>2026-06-18T22:43:22.000Z</time></trkpt>
        <trkpt lat="28.476357" lon="105.004071"><ele>884.5011</ele><time>2026-06-18T22:43:24.000Z</time></trkpt>
        <trkpt lat="28.476385" lon="105.00407"><ele>884.3686</ele><time>2026-06-18T22:43:26.000Z</time></trkpt>
        <trkpt lat="28.47641" lon="105.004065"><ele>884.29846</ele><time>2026-06-18T22:43:28.000Z</time></trkpt>
        <trkpt lat="28.476428" lon="105.004062"><ele>884.29846</ele><time>2026-06-18T22:43:30.000Z</time></trkpt>
        <trkpt lat="28.476443" lon="105.004062"><ele>884.29846</ele><time>2026-06-18T22:43:32.000Z</time></trkpt>
        <trkpt lat="28.476459" lon="105.004064"><ele>884.31683</ele><time>2026-06-18T22:43:34.000Z</time></trkpt>
        <trkpt lat="28.476479" lon="105.004068"><ele>884.393</ele><time>2026-06-18T22:43:36.000Z</time></trkpt>
        <trkpt lat="28.476494" lon="105.004072"><ele>884.49274</ele><time>2026-06-18T22:43:38.000Z</time></trkpt>
        <trkpt lat="28.476512" lon="105.004076"><ele>884.613</ele><time>2026-06-18T22:43:40.000Z</time></trkpt>
        <trkpt lat="28.476535" lon="105.004079"><ele>884.49274</ele><time>2026-06-18T22:43:42.000Z</time></trkpt>
        <trkpt lat="28.476558" lon="105.004083"><ele>884.49274</ele><time>2026-06-18T22:43:44.000Z</time></trkpt>
        <trkpt lat="28.476582" lon="105.004088"><ele>884.49274</ele><time>2026-06-18T22:43:46.000Z</time></trkpt>
        <trkpt lat="28.476609" lon="105.004096"><ele>884.49274</ele><time>2026-06-18T22:43:48.000Z</time></trkpt>
        <trkpt lat="28.476642" lon="105.004107"><ele>884.27423</ele><time>2026-06-18T22:43:50.000Z</time></trkpt>
        <trkpt lat="28.47667" lon="105.004116"><ele>884.1026</ele><time>2026-06-18T22:43:52.000Z</time></trkpt>
        <trkpt lat="28.476693" lon="105.004127"><ele>883.82574</ele><time>2026-06-18T22:43:54.000Z</time></trkpt>
        <trkpt lat="28.476709" lon="105.004139"><ele>883.15186</ele><time>2026-06-18T22:43:56.000Z</time></trkpt>
        <trkpt lat="28.476719" lon="105.004141"><ele>882.5895</ele><time>2026-06-18T22:43:58.000Z</time></trkpt>
        <trkpt lat="28.476735" lon="105.004143"><ele>882.39856</ele><time>2026-06-18T22:44:00.000Z</time></trkpt>
        <trkpt lat="28.476757" lon="105.004142"><ele>882.1117</ele><time>2026-06-18T22:44:02.000Z</time></trkpt>
        <trkpt lat="28.476782" lon="105.004141"><ele>881.91486</ele><time>2026-06-18T22:44:04.000Z</time></trkpt>
        <trkpt lat="28.476811" lon="105.004144"><ele>881.91486</ele><time>2026-06-18T22:44:06.000Z</time></trkpt>
        <trkpt lat="28.47683" lon="105.004145"><ele>881.91486</ele><time>2026-06-18T22:44:08.000Z</time></trkpt>
        <trkpt lat="28.476849" lon="105.004148"><ele>881.91486</ele><time>2026-06-18T22:44:10.000Z</time></trkpt>
        <trkpt lat="28.476869" lon="105.004154"><ele>881.91486</ele><time>2026-06-18T22:44:12.000Z</time></trkpt>
        <trkpt lat="28.476888" lon="105.004161"><ele>882.12256</ele><time>2026-06-18T22:44:14.000Z</time></trkpt>
        <trkpt lat="28.476909" lon="105.004168"><ele>882.4734</ele><time>2026-06-18T22:44:16.000Z</time></trkpt>
        <trkpt lat="28.476932" lon="105.004178"><ele>882.69965</ele><time>2026-06-18T22:44:18.000Z</time></trkpt>
        <trkpt lat="28.476956" lon="105.004185"><ele>882.8449</ele><time>2026-06-18T22:44:20.000Z</time></trkpt>
        <trkpt lat="28.476987" lon="105.004191"><ele>883.27356</ele><time>2026-06-18T22:44:22.000Z</time></trkpt>
        <trkpt lat="28.477014" lon="105.004196"><ele>883.6367</ele><time>2026-06-18T22:44:24.000Z</time></trkpt>
        <trkpt lat="28.477042" lon="105.004202"><ele>883.7059</ele><time>2026-06-18T22:44:26.000Z</time></trkpt>
        <trkpt lat="28.477064" lon="105.004207"><ele>883.9175</ele><time>2026-06-18T22:44:28.000Z</time></trkpt>
        <trkpt lat="28.477088" lon="105.00421"><ele>884.33685</ele><time>2026-06-18T22:44:30.000Z</time></trkpt>
        <trkpt lat="28.477111" lon="105.004209"><ele>884.6359</ele><time>2026-06-18T22:44:32.000Z</time></trkpt>
        <trkpt lat="28.477135" lon="105.004203"><ele>884.679</ele><time>2026-06-18T22:44:34.000Z</time></trkpt>
        <trkpt lat="28.477158" lon="105.004194"><ele>884.679</ele><time>2026-06-18T22:44:36.000Z</time></trkpt>
        <trkpt lat="28.477183" lon="105.004185"><ele>884.679</ele><time>2026-06-18T22:44:38.000Z</time></trkpt>
        <trkpt lat="28.477207" lon="105.004179"><ele>884.679</ele><time>2026-06-18T22:44:40.000Z</time></trkpt>
        <trkpt lat="28.477231" lon="105.004174"><ele>884.46686</ele><time>2026-06-18T22:44:42.000Z</time></trkpt>
        <trkpt lat="28.477256" lon="105.004168"><ele>884.46686</ele><time>2026-06-18T22:44:44.000Z</time></trkpt>
        <trkpt lat="28.477283" lon="105.004157"><ele>883.94525</ele><time>2026-06-18T22:44:46.000Z</time></trkpt>
        <trkpt lat="28.477305" lon="105.004144"><ele>883.5874</ele><time>2026-06-18T22:44:48.000Z</time></trkpt>
        <trkpt lat="28.477323" lon="105.004125"><ele>883.4136</ele><time>2026-06-18T22:44:50.000Z</time></trkpt>
        <trkpt lat="28.477332" lon="105.004109"><ele>883.2771</ele><time>2026-06-18T22:44:52.000Z</time></trkpt>
        <trkpt lat="28.477346" lon="105.004083"><ele>883.2525</ele><time>2026-06-18T22:44:54.000Z</time></trkpt>
        <trkpt lat="28.477356" lon="105.004062"><ele>883.2289</ele><time>2026-06-18T22:44:56.000Z</time></trkpt>
        <trkpt lat="28.477365" lon="105.004047"><ele>883.1847</ele><time>2026-06-18T22:44:58.000Z</time></trkpt>
        <trkpt lat="28.477376" lon="105.004033"><ele>883.14905</ele><time>2026-06-18T22:45:00.000Z</time></trkpt>
        <trkpt lat="28.477391" lon="105.004016"><ele>883.14905</ele><time>2026-06-18T22:45:02.000Z</time></trkpt>
        <trkpt lat="28.477412" lon="105.003999"><ele>883.14905</ele><time>2026-06-18T22:45:04.000Z</time></trkpt>
        <trkpt lat="28.477434" lon="105.003984"><ele>883.17664</ele><time>2026-06-18T22:45:06.000Z</time></trkpt>
        <trkpt lat="28.477454" lon="105.003969"><ele>883.2359</ele><time>2026-06-18T22:45:08.000Z</time></trkpt>
        <trkpt lat="28.477474" lon="105.003952"><ele>883.30975</ele><time>2026-06-18T22:45:10.000Z</time></trkpt>
        <trkpt lat="28.477488" lon="105.003936"><ele>883.3176</ele><time>2026-06-18T22:45:12.000Z</time></trkpt>
        <trkpt lat="28.477507" lon="105.003913"><ele>883.3176</ele><time>2026-06-18T22:45:14.000Z</time></trkpt>
        <trkpt lat="28.477526" lon="105.003891"><ele>883.3176</ele><time>2026-06-18T22:45:16.000Z</time></trkpt>
        <trkpt lat="28.477542" lon="105.003873"><ele>883.3176</ele><time>2026-06-18T22:45:18.000Z</time></trkpt>
        <trkpt lat="28.477558" lon="105.003854"><ele>883.3176</ele><time>2026-06-18T22:45:20.000Z</time></trkpt>
        <trkpt lat="28.477571" lon="105.003836"><ele>883.07574</ele><time>2026-06-18T22:45:22.000Z</time></trkpt>
        <trkpt lat="28.47758" lon="105.003818"><ele>882.462</ele><time>2026-06-18T22:45:24.000Z</time></trkpt>
        <trkpt lat="28.47759" lon="105.003796"><ele>881.6788</ele><time>2026-06-18T22:45:26.000Z</time></trkpt>
        <trkpt lat="28.477598" lon="105.003771"><ele>881.2988</ele><time>2026-06-18T22:45:28.000Z</time></trkpt>
        <trkpt lat="28.477606" lon="105.003748"><ele>881.2988</ele><time>2026-06-18T22:45:30.000Z</time></trkpt>
        <trkpt lat="28.477613" lon="105.003726"><ele>881.2988</ele><time>2026-06-18T22:45:32.000Z</time></trkpt>
        <trkpt lat="28.477621" lon="105.0037"><ele>881.2988</ele><time>2026-06-18T22:45:34.000Z</time></trkpt>
        <trkpt lat="28.477627" lon="105.003678"><ele>881.2988</ele><time>2026-06-18T22:45:36.000Z</time></trkpt>
        <trkpt lat="28.477631" lon="105.003655"><ele>881.39014</ele><time>2026-06-18T22:45:38.000Z</time></trkpt>
        <trkpt lat="28.477633" lon="105.003631"><ele>881.4548</ele><time>2026-06-18T22:45:40.000Z</time></trkpt>
        <trkpt lat="28.477635" lon="105.003606"><ele>881.4548</ele><time>2026-06-18T22:45:42.000Z</time></trkpt>
        <trkpt lat="28.477636" lon="105.003587"><ele>881.4548</ele><time>2026-06-18T22:45:44.000Z</time></trkpt>
        <trkpt lat="28.477637" lon="105.003569"><ele>881.4548</ele><time>2026-06-18T22:45:46.000Z</time></trkpt>
        <trkpt lat="28.477638" lon="105.003562"><ele>881.4548</ele><time>2026-06-18T22:45:48.000Z</time></trkpt>
        <trkpt lat="28.47764" lon="105.003551"><ele>881.39874</ele><time>2026-06-18T22:45:50.000Z</time></trkpt>
        <trkpt lat="28.477643" lon="105.003533"><ele>881.2199</ele><time>2026-06-18T22:45:52.000Z</time></trkpt>
        <trkpt lat="28.477649" lon="105.003509"><ele>880.96375</ele><time>2026-06-18T22:45:54.000Z</time></trkpt>
        <trkpt lat="28.477658" lon="105.003482"><ele>880.81824</ele><time>2026-06-18T22:45:56.000Z</time></trkpt>
        <trkpt lat="28.477666" lon="105.003451"><ele>880.5578</ele><time>2026-06-18T22:45:58.000Z</time></trkpt>
        <trkpt lat="28.477676" lon="105.00342"><ele>880.0797</ele><time>2026-06-18T22:46:00.000Z</time></trkpt>
        <trkpt lat="28.477684" lon="105.003387"><ele>879.6407</ele><time>2026-06-18T22:46:02.000Z</time></trkpt>
        <trkpt lat="28.477688" lon="105.003358"><ele>879.3145</ele><time>2026-06-18T22:46:04.000Z</time></trkpt>
        <trkpt lat="28.477692" lon="105.003329"><ele>879.1353</ele><time>2026-06-18T22:46:06.000Z</time></trkpt>
        <trkpt lat="28.477695" lon="105.003299"><ele>879.1353</ele><time>2026-06-18T22:46:08.000Z</time></trkpt>
        <trkpt lat="28.477699" lon="105.00327"><ele>879.1353</ele><time>2026-06-18T22:46:10.000Z</time></trkpt>
        <trkpt lat="28.477706" lon="105.003243"><ele>879.1353</ele><time>2026-06-18T22:46:12.000Z</time></trkpt>
        <trkpt lat="28.477713" lon="105.003219"><ele>879.1353</ele><time>2026-06-18T22:46:14.000Z</time></trkpt>
        <trkpt lat="28.477721" lon="105.003194"><ele>879.1834</ele><time>2026-06-18T22:46:16.000Z</time></trkpt>
        <trkpt lat="28.47773" lon="105.003166"><ele>879.3975</ele><time>2026-06-18T22:46:18.000Z</time></trkpt>
        <trkpt lat="28.47774" lon="105.003138"><ele>879.71954</ele><time>2026-06-18T22:46:20.000Z</time></trkpt>
        <trkpt lat="28.477747" lon="105.003113"><ele>879.9643</ele><time>2026-06-18T22:46:22.000Z</time></trkpt>
        <trkpt lat="28.477746" lon="105.003096"><ele>880.0366</ele><time>2026-06-18T22:46:24.000Z</time></trkpt>
        <trkpt lat="28.47775" lon="105.003077"><ele>880.0366</ele><time>2026-06-18T22:46:26.000Z</time></trkpt>
        <trkpt lat="28.477754" lon="105.00305"><ele>880.08295</ele><time>2026-06-18T22:46:28.000Z</time></trkpt>
        <trkpt lat="28.477756" lon="105.003018"><ele>880.08295</ele><time>2026-06-18T22:46:30.000Z</time></trkpt>
        <trkpt lat="28.477755" lon="105.002982"><ele>880.08295</ele><time>2026-06-18T22:46:32.000Z</time></trkpt>
        <trkpt lat="28.477753" lon="105.002946"><ele>880.08295</ele><time>2026-06-18T22:46:34.000Z</time></trkpt>
        <trkpt lat="28.477748" lon="105.002915"><ele>880.002</ele><time>2026-06-18T22:46:36.000Z</time></trkpt>
        <trkpt lat="28.477743" lon="105.002883"><ele>879.95526</ele><time>2026-06-18T22:46:38.000Z</time></trkpt>
        <trkpt lat="28.47774" lon="105.002851"><ele>879.95056</ele><time>2026-06-18T22:46:40.000Z</time></trkpt>
        <trkpt lat="28.47774" lon="105.00282"><ele>879.9218</ele><time>2026-06-18T22:46:42.000Z</time></trkpt>
        <trkpt lat="28.477744" lon="105.002787"><ele>879.7494</ele><time>2026-06-18T22:46:44.000Z</time></trkpt>
        <trkpt lat="28.477747" lon="105.002756"><ele>879.38544</ele><time>2026-06-18T22:46:46.000Z</time></trkpt>
        <trkpt lat="28.477749" lon="105.002726"><ele>879.1266</ele><time>2026-06-18T22:46:48.000Z</time></trkpt>
        <trkpt lat="28.477749" lon="105.002695"><ele>878.9882</ele><time>2026-06-18T22:46:50.000Z</time></trkpt>
        <trkpt lat="28.477752" lon="105.002666"><ele>878.9075</ele><time>2026-06-18T22:46:52.000Z</time></trkpt>
        <trkpt lat="28.477758" lon="105.002638"><ele>878.9075</ele><time>2026-06-18T22:46:54.000Z</time></trkpt>
        <trkpt lat="28.477766" lon="105.002614"><ele>878.9075</ele><time>2026-06-18T22:46:56.000Z</time></trkpt>
        <trkpt lat="28.477774" lon="105.002592"><ele>878.9075</ele><time>2026-06-18T22:46:58.000Z</time></trkpt>
        <trkpt lat="28.477782" lon="105.002572"><ele>878.9075</ele><time>2026-06-18T22:47:00.000Z</time></trkpt>
        <trkpt lat="28.477791" lon="105.002549"><ele>879.0459</ele><time>2026-06-18T22:47:02.000Z</time></trkpt>
        <trkpt lat="28.477799" lon="105.002526"><ele>879.0459</ele><time>2026-06-18T22:47:04.000Z</time></trkpt>
        <trkpt lat="28.477807" lon="105.0025"><ele>879.0459</ele><time>2026-06-18T22:47:06.000Z</time></trkpt>
        <trkpt lat="28.477816" lon="105.002475"><ele>879.0459</ele><time>2026-06-18T22:47:08.000Z</time></trkpt>
        <trkpt lat="28.477827" lon="105.002452"><ele>879.0459</ele><time>2026-06-18T22:47:10.000Z</time></trkpt>
        <trkpt lat="28.477839" lon="105.002429"><ele>879.15564</ele><time>2026-06-18T22:47:12.000Z</time></trkpt>
        <trkpt lat="28.477854" lon="105.002405"><ele>879.0357</ele><time>2026-06-18T22:47:14.000Z</time></trkpt>
        <trkpt lat="28.477866" lon="105.002394"><ele>879.01807</ele><time>2026-06-18T22:47:16.000Z</time></trkpt>
        <trkpt lat="28.477867" lon="105.002392"><ele>879.0051</ele><time>2026-06-18T22:47:18.000Z</time></trkpt>
        <trkpt lat="28.477852" lon="105.002443"><ele>879.0051</ele><time>2026-06-18T22:47:33.000Z</time></trkpt>
        <trkpt lat="28.477851" lon="105.00245"><ele>879.0051</ele><time>2026-06-18T22:47:35.000Z</time></trkpt>
        <trkpt lat="28.477851" lon="105.002457"><ele>879.0972</ele><time>2026-06-18T22:47:37.000Z</time></trkpt>
        <trkpt lat="28.477852" lon="105.002395"><ele>879.1278</ele><time>2026-06-18T22:47:57.000Z</time></trkpt>
        <trkpt lat="28.477851" lon="105.002393"><ele>879.96375</ele><time>2026-06-18T22:47:59.000Z</time></trkpt>
        <trkpt lat="28.477851" lon="105.002392"><ele>880.9348</ele><time>2026-06-18T22:48:01.000Z</time></trkpt>
        <trkpt lat="28.477834" lon="105.002426"><ele>881.18134</ele><time>2026-06-18T22:48:23.000Z</time></trkpt>
        <trkpt lat="28.477834" lon="105.002431"><ele>881.29004</ele><time>2026-06-18T22:48:25.000Z</time></trkpt>
        <trkpt lat="28.477837" lon="105.002351"><ele>881.3204</ele><time>2026-06-18T22:49:13.000Z</time></trkpt>
        <trkpt lat="28.477857" lon="105.002351"><ele>881.3791</ele><time>2026-06-18T22:49:28.000Z</time></trkpt>
        <trkpt lat="28.477907" lon="105.002353"><ele>881.7076</ele><time>2026-06-18T22:49:43.000Z</time></trkpt>
        <trkpt lat="28.477915" lon="105.002344"><ele>882.1352</ele><time>2026-06-18T22:49:54.000Z</time></trkpt>
        <trkpt lat="28.477949" lon="105.002304"><ele>882.8184</ele><time>2026-06-18T22:49:57.000Z</time></trkpt>
        <trkpt lat="28.477949" lon="105.002304"><ele>883.7397</ele><time>2026-06-18T22:49:59.000Z</time></trkpt>
        <trkpt lat="28.477949" lon="105.002301"><ele>884.0634</ele><time>2026-06-18T22:50:01.000Z</time></trkpt>
        <trkpt lat="28.477949" lon="105.002258"><ele>884.0634</ele><time>2026-06-18T22:50:05.000Z</time></trkpt>
        <trkpt lat="28.477949" lon="105.002232"><ele>884.0634</ele><time>2026-06-18T22:50:07.000Z</time></trkpt>
        <trkpt lat="28.477948" lon="105.002199"><ele>884.0634</ele><time>2026-06-18T22:50:09.000Z</time></trkpt>
        <trkpt lat="28.477954" lon="105.002173"><ele>884.04504</ele><time>2026-06-18T22:50:11.000Z</time></trkpt>
        <trkpt lat="28.477968" lon="105.002142"><ele>884.04504</ele><time>2026-06-18T22:50:13.000Z</time></trkpt>
        <trkpt lat="28.477984" lon="105.002114"><ele>884.04504</ele><time>2026-06-18T22:50:15.000Z</time></trkpt>
        <trkpt lat="28.477998" lon="105.002089"><ele>884.1017</ele><time>2026-06-18T22:50:17.000Z</time></trkpt>
        <trkpt lat="28.478013" lon="105.002061"><ele>884.1017</ele><time>2026-06-18T22:50:19.000Z</time></trkpt>
        <trkpt lat="28.478024" lon="105.002044"><ele>884.21173</ele><time>2026-06-18T22:50:21.000Z</time></trkpt>
        <trkpt lat="28.478033" lon="105.002029"><ele>884.3924</ele><time>2026-06-18T22:50:23.000Z</time></trkpt>
        <trkpt lat="28.478038" lon="105.002014"><ele>884.47784</ele><time>2026-06-18T22:50:25.000Z</time></trkpt>
        <trkpt lat="28.478045" lon="105.001992"><ele>884.7071</ele><time>2026-06-18T22:50:27.000Z</time></trkpt>
        <trkpt lat="28.478057" lon="105.001978"><ele>884.9181</ele><time>2026-06-18T22:50:29.000Z</time></trkpt>
        <trkpt lat="28.478065" lon="105.001975"><ele>884.9181</ele><time>2026-06-18T22:50:31.000Z</time></trkpt>
        <trkpt lat="28.478078" lon="105.001968"><ele>884.9181</ele><time>2026-06-18T22:50:33.000Z</time></trkpt>
        <trkpt lat="28.478096" lon="105.001955"><ele>884.9181</ele><time>2026-06-18T22:50:35.000Z</time></trkpt>
        <trkpt lat="28.478115" lon="105.001938"><ele>884.8043</ele><time>2026-06-18T22:50:37.000Z</time></trkpt>
        <trkpt lat="28.478131" lon="105.00192"><ele>884.6083</ele><time>2026-06-18T22:50:39.000Z</time></trkpt>
        <trkpt lat="28.478144" lon="105.0019"><ele>884.577</ele><time>2026-06-18T22:50:41.000Z</time></trkpt>
        <trkpt lat="28.478158" lon="105.001874"><ele>884.47314</ele><time>2026-06-18T22:50:43.000Z</time></trkpt>
        <trkpt lat="28.478171" lon="105.001849"><ele>884.47314</ele><time>2026-06-18T22:50:45.000Z</time></trkpt>
        <trkpt lat="28.478183" lon="105.00182"><ele>884.47314</ele><time>2026-06-18T22:50:47.000Z</time></trkpt>
        <trkpt lat="28.478193" lon="105.001788"><ele>884.47314</ele><time>2026-06-18T22:50:49.000Z</time></trkpt>
        <trkpt lat="28.478202" lon="105.001757"><ele>884.47314</ele><time>2026-06-18T22:50:51.000Z</time></trkpt>
        <trkpt lat="28.478209" lon="105.001728"><ele>884.69434</ele><time>2026-06-18T22:50:53.000Z</time></trkpt>
        <trkpt lat="28.478215" lon="105.001695"><ele>885.0096</ele><time>2026-06-18T22:50:55.000Z</time></trkpt>
        <trkpt lat="28.478219" lon="105.001664"><ele>885.18085</ele><time>2026-06-18T22:50:57.000Z</time></trkpt>
        <trkpt lat="28.478221" lon="105.001632"><ele>885.3456</ele><time>2026-06-18T22:50:59.000Z</time></trkpt>
        <trkpt lat="28.478225" lon="105.001605"><ele>885.55396</ele><time>2026-06-18T22:51:01.000Z</time></trkpt>
        <trkpt lat="28.478228" lon="105.00158"><ele>885.55396</ele><time>2026-06-18T22:51:03.000Z</time></trkpt>
        <trkpt lat="28.478233" lon="105.001556"><ele>885.55396</ele><time>2026-06-18T22:51:05.000Z</time></trkpt>
        <trkpt lat="28.478239" lon="105.001533"><ele>885.55396</ele><time>2026-06-18T22:51:07.000Z</time></trkpt>
        <trkpt lat="28.478247" lon="105.001507"><ele>885.4119</ele><time>2026-06-18T22:51:09.000Z</time></trkpt>
        <trkpt lat="28.478256" lon="105.001483"><ele>885.297</ele><time>2026-06-18T22:51:11.000Z</time></trkpt>
        <trkpt lat="28.478268" lon="105.001461"><ele>885.297</ele><time>2026-06-18T22:51:13.000Z</time></trkpt>
        <trkpt lat="28.478272" lon="105.001439"><ele>885.0355</ele><time>2026-06-18T22:51:15.000Z</time></trkpt>
        <trkpt lat="28.478275" lon="105.001411"><ele>884.61615</ele><time>2026-06-18T22:51:17.000Z</time></trkpt>
        <trkpt lat="28.478281" lon="105.001385"><ele>884.2008</ele><time>2026-06-18T22:51:19.000Z</time></trkpt>
        <trkpt lat="28.478287" lon="105.001357"><ele>883.7095</ele><time>2026-06-18T22:51:21.000Z</time></trkpt>
        <trkpt lat="28.478295" lon="105.001328"><ele>883.37714</ele><time>2026-06-18T22:51:23.000Z</time></trkpt>
        <trkpt lat="28.478304" lon="105.001302"><ele>883.24854</ele><time>2026-06-18T22:51:25.000Z</time></trkpt>
        <trkpt lat="28.478313" lon="105.001277"><ele>883.24854</ele><time>2026-06-18T22:51:27.000Z</time></trkpt>
        <trkpt lat="28.478322" lon="105.001252"><ele>883.1689</ele><time>2026-06-18T22:51:29.000Z</time></trkpt>
        <trkpt lat="28.478329" lon="105.001227"><ele>883.0881</ele><time>2026-06-18T22:51:31.000Z</time></trkpt>
        <trkpt lat="28.478335" lon="105.001205"><ele>883.0975</ele><time>2026-06-18T22:51:33.000Z</time></trkpt>
        <trkpt lat="28.478343" lon="105.001182"><ele>883.0975</ele><time>2026-06-18T22:51:35.000Z</time></trkpt>
        <trkpt lat="28.478347" lon="105.001161"><ele>883.0861</ele><time>2026-06-18T22:51:37.000Z</time></trkpt>
        <trkpt lat="28.478353" lon="105.001135"><ele>883.104</ele><time>2026-06-18T22:51:39.000Z</time></trkpt>
        <trkpt lat="28.478363" lon="105.001104"><ele>883.1565</ele><time>2026-06-18T22:51:41.000Z</time></trkpt>
        <trkpt lat="28.47837" lon="105.001075"><ele>883.17633</ele><time>2026-06-18T22:51:43.000Z</time></trkpt>
        <trkpt lat="28.478377" lon="105.001049"><ele>883.1868</ele><time>2026-06-18T22:51:45.000Z</time></trkpt>
        <trkpt lat="28.478383" lon="105.001026"><ele>883.17633</ele><time>2026-06-18T22:51:47.000Z</time></trkpt>
        <trkpt lat="28.478387" lon="105.001"><ele>883.1565</ele><time>2026-06-18T22:51:49.000Z</time></trkpt>
        <trkpt lat="28.478392" lon="105.00097"><ele>883.17633</ele><time>2026-06-18T22:51:51.000Z</time></trkpt>
        <trkpt lat="28.478399" lon="105.000937"><ele>883.165</ele><time>2026-06-18T22:51:53.000Z</time></trkpt>
        <trkpt lat="28.478408" lon="105.000912"><ele>883.165</ele><time>2026-06-18T22:51:55.000Z</time></trkpt>
        <trkpt lat="28.478417" lon="105.000884"><ele>883.2026</ele><time>2026-06-18T22:51:57.000Z</time></trkpt>
        <trkpt lat="28.478425" lon="105.000859"><ele>883.2026</ele><time>2026-06-18T22:51:59.000Z</time></trkpt>
        <trkpt lat="28.478435" lon="105.000831"><ele>883.1529</ele><time>2026-06-18T22:52:01.000Z</time></trkpt>
        <trkpt lat="28.478444" lon="105.000812"><ele>883.04425</ele><time>2026-06-18T22:52:03.000Z</time></trkpt>
        <trkpt lat="28.478452" lon="105.000792"><ele>882.9127</ele><time>2026-06-18T22:52:05.000Z</time></trkpt>
        <trkpt lat="28.478458" lon="105.000769"><ele>882.7751</ele><time>2026-06-18T22:52:07.000Z</time></trkpt>
        <trkpt lat="28.478462" lon="105.000754"><ele>882.63525</ele><time>2026-06-18T22:52:09.000Z</time></trkpt>
        <trkpt lat="28.47846" lon="105.000746"><ele>881.92847</ele><time>2026-06-18T22:52:11.000Z</time></trkpt>
        <trkpt lat="28.478452" lon="105.000702"><ele>881.1867</ele><time>2026-06-18T22:52:17.000Z</time></trkpt>
        <trkpt lat="28.478452" lon="105.000702"><ele>881.0071</ele><time>2026-06-18T22:52:19.000Z</time></trkpt>
        <trkpt lat="28.478452" lon="105.000698"><ele>880.9881</ele><time>2026-06-18T22:52:21.000Z</time></trkpt>
        <trkpt lat="28.47844" lon="105.000657"><ele>880.9545</ele><time>2026-06-18T22:52:25.000Z</time></trkpt>
        <trkpt lat="28.478427" lon="105.000632"><ele>880.87067</ele><time>2026-06-18T22:52:27.000Z</time></trkpt>
        <trkpt lat="28.478411" lon="105.000614"><ele>880.6717</ele><time>2026-06-18T22:52:29.000Z</time></trkpt>
        <trkpt lat="28.478395" lon="105.000605"><ele>880.6659</ele><time>2026-06-18T22:52:31.000Z</time></trkpt>
        <trkpt lat="28.478386" lon="105.000604"><ele>880.5514</ele><time>2026-06-18T22:52:33.000Z</time></trkpt>
        <trkpt lat="28.478386" lon="105.000604"><ele>880.5514</ele><time>2026-06-18T22:52:35.000Z</time></trkpt>
        <trkpt lat="28.478387" lon="105.000642"><ele>880.5514</ele><time>2026-06-18T22:52:41.000Z</time></trkpt>
        <trkpt lat="28.478389" lon="105.00065"><ele>880.42993</ele><time>2026-06-18T22:52:43.000Z</time></trkpt>
        <trkpt lat="28.478389" lon="105.000655"><ele>880.2156</ele><time>2026-06-18T22:52:45.000Z</time></trkpt>
        <trkpt lat="28.47839" lon="105.000589"><ele>880.05664</ele><time>2026-06-18T22:53:08.000Z</time></trkpt>
        <trkpt lat="28.478392" lon="105.000589"><ele>879.6278</ele><time>2026-06-18T22:53:10.000Z</time></trkpt>
        <trkpt lat="28.478373" lon="105.000596"><ele>879.0991</ele><time>2026-06-18T22:53:31.000Z</time></trkpt>
        <trkpt lat="28.478438" lon="105.000614"><ele>878.8582</ele><time>2026-06-18T22:53:53.000Z</time></trkpt>
        <trkpt lat="28.478441" lon="105.000615"><ele>878.8582</ele><time>2026-06-18T22:53:55.000Z</time></trkpt>
        <trkpt lat="28.478441" lon="105.000615"><ele>878.8582</ele><time>2026-06-18T22:53:57.000Z</time></trkpt>
        <trkpt lat="28.478471" lon="105.000603"><ele>878.75433</ele><time>2026-06-18T22:54:02.000Z</time></trkpt>
        <trkpt lat="28.478471" lon="105.000603"><ele>878.62683</ele><time>2026-06-18T22:54:04.000Z</time></trkpt>
        <trkpt lat="28.478475" lon="105.0006"><ele>878.5452</ele><time>2026-06-18T22:54:06.000Z</time></trkpt>
        <trkpt lat="28.478521" lon="105.00056"><ele>878.5452</ele><time>2026-06-18T22:54:10.000Z</time></trkpt>
        <trkpt lat="28.47854" lon="105.000526"><ele>878.5452</ele><time>2026-06-18T22:54:12.000Z</time></trkpt>
        <trkpt lat="28.478603" lon="105.000419"><ele>878.5452</ele><time>2026-06-18T22:54:18.000Z</time></trkpt>
        <trkpt lat="28.478603" lon="105.000419"><ele>878.5452</ele><time>2026-06-18T22:54:20.000Z</time></trkpt>
        <trkpt lat="28.478606" lon="105.000416"><ele>878.5452</ele><time>2026-06-18T22:54:22.000Z</time></trkpt>
        <trkpt lat="28.478636" lon="105.000384"><ele>878.5452</ele><time>2026-06-18T22:54:26.000Z</time></trkpt>
        <trkpt lat="28.478657" lon="105.000364"><ele>878.5452</ele><time>2026-06-18T22:54:28.000Z</time></trkpt>
        <trkpt lat="28.478683" lon="105.000346"><ele>878.5769</ele><time>2026-06-18T22:54:30.000Z</time></trkpt>
        <trkpt lat="28.478709" lon="105.000329"><ele>878.65204</ele><time>2026-06-18T22:54:32.000Z</time></trkpt>
        <trkpt lat="28.478734" lon="105.000315"><ele>879.01636</ele><time>2026-06-18T22:54:34.000Z</time></trkpt>
        <trkpt lat="28.478756" lon="105.000307"><ele>879.4398</ele><time>2026-06-18T22:54:36.000Z</time></trkpt>
        <trkpt lat="28.478777" lon="105.000305"><ele>879.80945</ele><time>2026-06-18T22:54:38.000Z</time></trkpt>
        <trkpt lat="28.478801" lon="105.000306"><ele>880.407</ele><time>2026-06-18T22:54:40.000Z</time></trkpt>
        <trkpt lat="28.478824" lon="105.000309"><ele>881.06464</ele><time>2026-06-18T22:54:42.000Z</time></trkpt>
        <trkpt lat="28.478847" lon="105.000311"><ele>881.579</ele><time>2026-06-18T22:54:44.000Z</time></trkpt>
        <trkpt lat="28.47887" lon="105.000316"><ele>881.8675</ele><time>2026-06-18T22:54:46.000Z</time></trkpt>
        <trkpt lat="28.478886" lon="105.000325"><ele>881.97327</ele><time>2026-06-18T22:54:48.000Z</time></trkpt>
        <trkpt lat="28.478899" lon="105.000338"><ele>882.0225</ele><time>2026-06-18T22:54:50.000Z</time></trkpt>
        <trkpt lat="28.478914" lon="105.000357"><ele>882.1266</ele><time>2026-06-18T22:54:52.000Z</time></trkpt>
        <trkpt lat="28.478928" lon="105.000378"><ele>882.3745</ele><time>2026-06-18T22:54:54.000Z</time></trkpt>
        <trkpt lat="28.478943" lon="105.000401"><ele>882.8647</ele><time>2026-06-18T22:54:56.000Z</time></trkpt>
        <trkpt lat="28.478957" lon="105.000423"><ele>883.34143</ele><time>2026-06-18T22:54:58.000Z</time></trkpt>
        <trkpt lat="28.478972" lon="105.000443"><ele>883.60095</ele><time>2026-06-18T22:55:00.000Z</time></trkpt>
        <trkpt lat="28.478988" lon="105.000462"><ele>883.8186</ele><time>2026-06-18T22:55:02.000Z</time></trkpt>
        <trkpt lat="28.479003" lon="105.000481"><ele>884.0707</ele><time>2026-06-18T22:55:04.000Z</time></trkpt>
        <trkpt lat="28.479018" lon="105.000504"><ele>884.4432</ele><time>2026-06-18T22:55:06.000Z</time></trkpt>
        <trkpt lat="28.479032" lon="105.000526"><ele>884.9604</ele><time>2026-06-18T22:55:08.000Z</time></trkpt>
        <trkpt lat="28.479044" lon="105.000544"><ele>885.5382</ele><time>2026-06-18T22:55:10.000Z</time></trkpt>
        <trkpt lat="28.479056" lon="105.000562"><ele>886.0697</ele><time>2026-06-18T22:55:12.000Z</time></trkpt>
        <trkpt lat="28.479065" lon="105.000582"><ele>886.4709</ele><time>2026-06-18T22:55:14.000Z</time></trkpt>
        <trkpt lat="28.479073" lon="105.000602"><ele>886.8736</ele><time>2026-06-18T22:55:16.000Z</time></trkpt>
        <trkpt lat="28.479082" lon="105.000622"><ele>887.3694</ele><time>2026-06-18T22:55:18.000Z</time></trkpt>
        <trkpt lat="28.479095" lon="105.000645"><ele>887.8692</ele><time>2026-06-18T22:55:20.000Z</time></trkpt>
        <trkpt lat="28.479114" lon="105.000666"><ele>888.4465</ele><time>2026-06-18T22:55:22.000Z</time></trkpt>
        <trkpt lat="28.479132" lon="105.000678"><ele>889.08594</ele><time>2026-06-18T22:55:24.000Z</time></trkpt>
        <trkpt lat="28.479154" lon="105.000686"><ele>889.67896</ele><time>2026-06-18T22:55:26.000Z</time></trkpt>
        <trkpt lat="28.479178" lon="105.000693"><ele>890.2632</ele><time>2026-06-18T22:55:27.000Z</time></trkpt>
        <trkpt lat="28.479204" lon="105.000699"><ele>890.9658</ele><time>2026-06-18T22:55:29.000Z</time></trkpt>
        <trkpt lat="28.479229" lon="105.000706"><ele>891.58673</ele><time>2026-06-18T22:55:31.000Z</time></trkpt>
        <trkpt lat="28.479251" lon="105.000713"><ele>891.71124</ele><time>2026-06-18T22:55:33.000Z</time></trkpt>
        <trkpt lat="28.479273" lon="105.000721"><ele>891.71124</ele><time>2026-06-18T22:55:36.000Z</time></trkpt>
        <trkpt lat="28.479295" lon="105.000732"><ele>891.7604</ele><time>2026-06-18T22:55:38.000Z</time></trkpt>
        <trkpt lat="28.479317" lon="105.000744"><ele>891.8602</ele><time>2026-06-18T22:55:40.000Z</time></trkpt>
        <trkpt lat="28.479336" lon="105.000757"><ele>891.94855</ele><time>2026-06-18T22:55:42.000Z</time></trkpt>
        <trkpt lat="28.479353" lon="105.000772"><ele>891.9287</ele><time>2026-06-18T22:55:44.000Z</time></trkpt>
        <trkpt lat="28.479368" lon="105.000787"><ele>891.9287</ele><time>2026-06-18T22:55:46.000Z</time></trkpt>
        <trkpt lat="28.479382" lon="105.000803"><ele>891.9287</ele><time>2026-06-18T22:55:48.000Z</time></trkpt>
        <trkpt lat="28.479395" lon="105.00082"><ele>891.9287</ele><time>2026-06-18T22:55:50.000Z</time></trkpt>
        <trkpt lat="28.479406" lon="105.000837"><ele>891.95984</ele><time>2026-06-18T22:55:52.000Z</time></trkpt>
        <trkpt lat="28.479416" lon="105.000855"><ele>892.02344</ele><time>2026-06-18T22:55:54.000Z</time></trkpt>
        <trkpt lat="28.479432" lon="105.000881"><ele>892.11334</ele><time>2026-06-18T22:55:56.000Z</time></trkpt>
        <trkpt lat="28.479446" lon="105.000902"><ele>892.316</ele><time>2026-06-18T22:55:58.000Z</time></trkpt>
        <trkpt lat="28.479462" lon="105.000923"><ele>892.58484</ele><time>2026-06-18T22:56:00.000Z</time></trkpt>
        <trkpt lat="28.479476" lon="105.000938"><ele>892.76086</ele><time>2026-06-18T22:56:02.000Z</time></trkpt>
        <trkpt lat="28.47949" lon="105.000955"><ele>893.1027</ele><time>2026-06-18T22:56:04.000Z</time></trkpt>
        <trkpt lat="28.479503" lon="105.000973"><ele>893.4023</ele><time>2026-06-18T22:56:06.000Z</time></trkpt>
        <trkpt lat="28.479517" lon="105.000994"><ele>893.4277</ele><time>2026-06-18T22:56:08.000Z</time></trkpt>
        <trkpt lat="28.479528" lon="105.001013"><ele>893.43445</ele><time>2026-06-18T22:56:10.000Z</time></trkpt>
        <trkpt lat="28.479539" lon="105.001031"><ele>893.4404</ele><time>2026-06-18T22:56:12.000Z</time></trkpt>
        <trkpt lat="28.479546" lon="105.001041"><ele>893.5229</ele><time>2026-06-18T22:56:14.000Z</time></trkpt>
        <trkpt lat="28.479549" lon="105.001042"><ele>893.8172</ele><time>2026-06-18T22:56:16.000Z</time></trkpt>
        <trkpt lat="28.479555" lon="105.001054"><ele>894.2822</ele><time>2026-06-18T22:56:26.000Z</time></trkpt>
        <trkpt lat="28.479571" lon="105.001087"><ele>894.6605</ele><time>2026-06-18T22:56:33.000Z</time></trkpt>
        <trkpt lat="28.479571" lon="105.001087"><ele>894.92334</ele><time>2026-06-18T22:56:35.000Z</time></trkpt>
        <trkpt lat="28.479572" lon="105.001091"><ele>895.1797</ele><time>2026-06-18T22:56:37.000Z</time></trkpt>
        <trkpt lat="28.479586" lon="105.001146"><ele>895.3905</ele><time>2026-06-18T22:56:41.000Z</time></trkpt>
        <trkpt lat="28.479602" lon="105.001181"><ele>895.4833</ele><time>2026-06-18T22:56:43.000Z</time></trkpt>
        <trkpt lat="28.479623" lon="105.001211"><ele>895.57294</ele><time>2026-06-18T22:56:45.000Z</time></trkpt>
        <trkpt lat="28.479645" lon="105.001236"><ele>895.6892</ele><time>2026-06-18T22:56:47.000Z</time></trkpt>
        <trkpt lat="28.479666" lon="105.001254"><ele>895.7211</ele><time>2026-06-18T22:56:49.000Z</time></trkpt>
        <trkpt lat="28.479688" lon="105.001268"><ele>895.7951</ele><time>2026-06-18T22:56:51.000Z</time></trkpt>
        <trkpt lat="28.479711" lon="105.001278"><ele>895.7951</ele><time>2026-06-18T22:56:53.000Z</time></trkpt>
        <trkpt lat="28.479736" lon="105.001288"><ele>896.15106</ele><time>2026-06-18T22:56:55.000Z</time></trkpt>
        <trkpt lat="28.479761" lon="105.001298"><ele>896.50555</ele><time>2026-06-18T22:56:57.000Z</time></trkpt>
        <trkpt lat="28.479785" lon="105.001307"><ele>896.67535</ele><time>2026-06-18T22:56:59.000Z</time></trkpt>
        <trkpt lat="28.47981" lon="105.001315"><ele>896.9658</ele><time>2026-06-18T22:57:01.000Z</time></trkpt>
        <trkpt lat="28.479833" lon="105.001321"><ele>897.3276</ele><time>2026-06-18T22:57:03.000Z</time></trkpt>
        <trkpt lat="28.479853" lon="105.001324"><ele>897.6118</ele><time>2026-06-18T22:57:05.000Z</time></trkpt>
        <trkpt lat="28.479871" lon="105.001327"><ele>897.7852</ele><time>2026-06-18T22:57:07.000Z</time></trkpt>
        <trkpt lat="28.479891" lon="105.001331"><ele>897.9813</ele><time>2026-06-18T22:57:09.000Z</time></trkpt>
        <trkpt lat="28.479913" lon="105.001336"><ele>897.9813</ele><time>2026-06-18T22:57:11.000Z</time></trkpt>
        <trkpt lat="28.479935" lon="105.001342"><ele>897.9813</ele><time>2026-06-18T22:57:13.000Z</time></trkpt>
        <trkpt lat="28.479956" lon="105.001347"><ele>897.9813</ele><time>2026-06-18T22:57:15.000Z</time></trkpt>
        <trkpt lat="28.479978" lon="105.00135"><ele>897.9813</ele><time>2026-06-18T22:57:17.000Z</time></trkpt>
        <trkpt lat="28.48" lon="105.001351"><ele>897.80975</ele><time>2026-06-18T22:57:19.000Z</time></trkpt>
        <trkpt lat="28.480021" lon="105.001349"><ele>897.2086</ele><time>2026-06-18T22:57:21.000Z</time></trkpt>
        <trkpt lat="28.480043" lon="105.001346"><ele>896.7436</ele><time>2026-06-18T22:57:23.000Z</time></trkpt>
        <trkpt lat="28.480064" lon="105.001341"><ele>896.55023</ele><time>2026-06-18T22:57:25.000Z</time></trkpt>
        <trkpt lat="28.480086" lon="105.001334"><ele>896.50775</ele><time>2026-06-18T22:57:27.000Z</time></trkpt>
        <trkpt lat="28.480109" lon="105.001326"><ele>896.47174</ele><time>2026-06-18T22:57:29.000Z</time></trkpt>
        <trkpt lat="28.480131" lon="105.001318"><ele>896.3888</ele><time>2026-06-18T22:57:31.000Z</time></trkpt>
        <trkpt lat="28.480155" lon="105.001308"><ele>896.0744</ele><time>2026-06-18T22:57:32.000Z</time></trkpt>
        <trkpt lat="28.480181" lon="105.001297"><ele>895.58185</ele><time>2026-06-18T22:57:34.000Z</time></trkpt>
        <trkpt lat="28.480206" lon="105.001285"><ele>895.2285</ele><time>2026-06-18T22:57:36.000Z</time></trkpt>
        <trkpt lat="28.480229" lon="105.001274"><ele>894.9576</ele><time>2026-06-18T22:57:38.000Z</time></trkpt>
        <trkpt lat="28.480249" lon="105.00126"><ele>894.56085</ele><time>2026-06-18T22:57:40.000Z</time></trkpt>
        <trkpt lat="28.480269" lon="105.001245"><ele>894.16364</ele><time>2026-06-18T22:57:42.000Z</time></trkpt>
        <trkpt lat="28.480291" lon="105.00123"><ele>893.8342</ele><time>2026-06-18T22:57:44.000Z</time></trkpt>
        <trkpt lat="28.48031" lon="105.001215"><ele>893.50433</ele><time>2026-06-18T22:57:46.000Z</time></trkpt>
        <trkpt lat="28.480328" lon="105.001198"><ele>893.101</ele><time>2026-06-18T22:57:48.000Z</time></trkpt>
        <trkpt lat="28.480345" lon="105.001179"><ele>892.63165</ele><time>2026-06-18T22:57:50.000Z</time></trkpt>
        <trkpt lat="28.480363" lon="105.001159"><ele>892.3257</ele><time>2026-06-18T22:57:52.000Z</time></trkpt>
        <trkpt lat="28.480379" lon="105.001139"><ele>891.98956</ele><time>2026-06-18T22:57:54.000Z</time></trkpt>
        <trkpt lat="28.480394" lon="105.001118"><ele>891.97076</ele><time>2026-06-18T22:57:56.000Z</time></trkpt>
        <trkpt lat="28.480411" lon="105.001098"><ele>891.97076</ele><time>2026-06-18T22:57:58.000Z</time></trkpt>
        <trkpt lat="28.480425" lon="105.001082"><ele>891.97076</ele><time>2026-06-18T22:58:01.000Z</time></trkpt>
        <trkpt lat="28.480442" lon="105.001064"><ele>891.97076</ele><time>2026-06-18T22:58:03.000Z</time></trkpt>
        <trkpt lat="28.48046" lon="105.001043"><ele>891.97076</ele><time>2026-06-18T22:58:05.000Z</time></trkpt>
        <trkpt lat="28.480477" lon="105.001022"><ele>892.5002</ele><time>2026-06-18T22:58:07.000Z</time></trkpt>
        <trkpt lat="28.480494" lon="105.001"><ele>892.7902</ele><time>2026-06-18T22:58:09.000Z</time></trkpt>
        <trkpt lat="28.48051" lon="105.000978"><ele>892.8102</ele><time>2026-06-18T22:58:11.000Z</time></trkpt>
        <trkpt lat="28.480527" lon="105.000956"><ele>892.82837</ele><time>2026-06-18T22:58:13.000Z</time></trkpt>
        <trkpt lat="28.48054" lon="105.000934"><ele>892.8495</ele><time>2026-06-18T22:58:15.000Z</time></trkpt>
        <trkpt lat="28.480549" lon="105.000912"><ele>892.9275</ele><time>2026-06-18T22:58:17.000Z</time></trkpt>
        <trkpt lat="28.480558" lon="105.000888"><ele>893.0896</ele><time>2026-06-18T22:58:19.000Z</time></trkpt>
        <trkpt lat="28.480568" lon="105.00086"><ele>893.4688</ele><time>2026-06-18T22:58:21.000Z</time></trkpt>
        <trkpt lat="28.480578" lon="105.000833"><ele>893.856</ele><time>2026-06-18T22:58:23.000Z</time></trkpt>
        <trkpt lat="28.480589" lon="105.000808"><ele>894.04333</ele><time>2026-06-18T22:58:25.000Z</time></trkpt>
        <trkpt lat="28.480598" lon="105.000783"><ele>894.13525</ele><time>2026-06-18T22:58:27.000Z</time></trkpt>
        <trkpt lat="28.480606" lon="105.000758"><ele>894.193</ele><time>2026-06-18T22:58:29.000Z</time></trkpt>
        <trkpt lat="28.480611" lon="105.000735"><ele>894.27277</ele><time>2026-06-18T22:58:31.000Z</time></trkpt>
        <trkpt lat="28.480615" lon="105.00071"><ele>894.3699</ele><time>2026-06-18T22:58:33.000Z</time></trkpt>
        <trkpt lat="28.480622" lon="105.000686"><ele>894.5325</ele><time>2026-06-18T22:58:35.000Z</time></trkpt>
        <trkpt lat="28.480629" lon="105.000668"><ele>894.66656</ele><time>2026-06-18T22:58:37.000Z</time></trkpt>
        <trkpt lat="28.480637" lon="105.000651"><ele>894.75964</ele><time>2026-06-18T22:58:39.000Z</time></trkpt>
        <trkpt lat="28.480648" lon="105.000634"><ele>894.86316</ele><time>2026-06-18T22:58:41.000Z</time></trkpt>
        <trkpt lat="28.480658" lon="105.000617"><ele>894.9936</ele><time>2026-06-18T22:58:43.000Z</time></trkpt>
        <trkpt lat="28.480667" lon="105.000604"><ele>895.1639</ele><time>2026-06-18T22:58:45.000Z</time></trkpt>
        <trkpt lat="28.480676" lon="105.000587"><ele>895.4112</ele><time>2026-06-18T22:58:47.000Z</time></trkpt>
        <trkpt lat="28.480687" lon="105.00057"><ele>895.7836</ele><time>2026-06-18T22:58:49.000Z</time></trkpt>
        <trkpt lat="28.480698" lon="105.000558"><ele>896.1101</ele><time>2026-06-18T22:58:51.000Z</time></trkpt>
        <trkpt lat="28.480712" lon="105.000549"><ele>896.1101</ele><time>2026-06-18T22:58:53.000Z</time></trkpt>
        <trkpt lat="28.480729" lon="105.000539"><ele>896.1101</ele><time>2026-06-18T22:58:55.000Z</time></trkpt>
        <trkpt lat="28.480746" lon="105.000531"><ele>896.1101</ele><time>2026-06-18T22:58:57.000Z</time></trkpt>
        <trkpt lat="28.480764" lon="105.000521"><ele>896.1101</ele><time>2026-06-18T22:58:59.000Z</time></trkpt>
        <trkpt lat="28.480782" lon="105.000512"><ele>896.0444</ele><time>2026-06-18T22:59:01.000Z</time></trkpt>
        <trkpt lat="28.480801" lon="105.000503"><ele>895.826</ele><time>2026-06-18T22:59:03.000Z</time></trkpt>
        <trkpt lat="28.480818" lon="105.000496"><ele>895.7815</ele><time>2026-06-18T22:59:05.000Z</time></trkpt>
        <trkpt lat="28.480842" lon="105.000487"><ele>895.7003</ele><time>2026-06-18T22:59:07.000Z</time></trkpt>
        <trkpt lat="28.480865" lon="105.000478"><ele>895.6125</ele><time>2026-06-18T22:59:09.000Z</time></trkpt>
        <trkpt lat="28.480885" lon="105.00047"><ele>895.6125</ele><time>2026-06-18T22:59:11.000Z</time></trkpt>
        <trkpt lat="28.480905" lon="105.000464"><ele>895.6125</ele><time>2026-06-18T22:59:13.000Z</time></trkpt>
        <trkpt lat="28.480925" lon="105.000459"><ele>895.6125</ele><time>2026-06-18T22:59:15.000Z</time></trkpt>
        <trkpt lat="28.480944" lon="105.000455"><ele>895.6125</ele><time>2026-06-18T22:59:17.000Z</time></trkpt>
        <trkpt lat="28.480967" lon="105.000452"><ele>895.79626</ele><time>2026-06-18T22:59:19.000Z</time></trkpt>
        <trkpt lat="28.480991" lon="105.000449"><ele>896.3904</ele><time>2026-06-18T22:59:21.000Z</time></trkpt>
        <trkpt lat="28.481014" lon="105.000446"><ele>896.9861</ele><time>2026-06-18T22:59:23.000Z</time></trkpt>
        <trkpt lat="28.48104" lon="105.000441"><ele>897.2934</ele><time>2026-06-18T22:59:25.000Z</time></trkpt>
        <trkpt lat="28.481065" lon="105.000438"><ele>897.2934</ele><time>2026-06-18T22:59:27.000Z</time></trkpt>
        <trkpt lat="28.481085" lon="105.000439"><ele>897.2934</ele><time>2026-06-18T22:59:29.000Z</time></trkpt>
        <trkpt lat="28.481104" lon="105.000439"><ele>897.2934</ele><time>2026-06-18T22:59:31.000Z</time></trkpt>
        <trkpt lat="28.481122" lon="105.000437"><ele>897.2934</ele><time>2026-06-18T22:59:33.000Z</time></trkpt>
        <trkpt lat="28.481146" lon="105.000434"><ele>897.25684</ele><time>2026-06-18T22:59:35.000Z</time></trkpt>
        <trkpt lat="28.481167" lon="105.000432"><ele>897.03204</ele><time>2026-06-18T22:59:37.000Z</time></trkpt>
        <trkpt lat="28.48119" lon="105.000433"><ele>896.8895</ele><time>2026-06-18T22:59:38.000Z</time></trkpt>
        <trkpt lat="28.481212" lon="105.000439"><ele>896.81036</ele><time>2026-06-18T22:59:40.000Z</time></trkpt>
        <trkpt lat="28.481238" lon="105.00045"><ele>896.7808</ele><time>2026-06-18T22:59:42.000Z</time></trkpt>
        <trkpt lat="28.481265" lon="105.000463"><ele>896.7712</ele><time>2026-06-18T22:59:44.000Z</time></trkpt>
        <trkpt lat="28.481286" lon="105.000468"><ele>896.4336</ele><time>2026-06-18T22:59:46.000Z</time></trkpt>
        <trkpt lat="28.481307" lon="105.000467"><ele>895.8163</ele><time>2026-06-18T22:59:48.000Z</time></trkpt>
        <trkpt lat="28.481327" lon="105.000468"><ele>895.4834</ele><time>2026-06-18T22:59:50.000Z</time></trkpt>
        <trkpt lat="28.481346" lon="105.000467"><ele>895.36395</ele><time>2026-06-18T22:59:52.000Z</time></trkpt>
        <trkpt lat="28.481364" lon="105.000465"><ele>895.1867</ele><time>2026-06-18T22:59:54.000Z</time></trkpt>
        <trkpt lat="28.481388" lon="105.000461"><ele>895.0629</ele><time>2026-06-18T22:59:56.000Z</time></trkpt>
        <trkpt lat="28.481412" lon="105.000459"><ele>894.9295</ele><time>2026-06-18T22:59:59.000Z</time></trkpt>
        <trkpt lat="28.481434" lon="105.000454"><ele>894.6331</ele><time>2026-06-18T23:00:01.000Z</time></trkpt>
        <trkpt lat="28.481455" lon="105.000444"><ele>894.3234</ele><time>2026-06-18T23:00:03.000Z</time></trkpt>
        <trkpt lat="28.481476" lon="105.000434"><ele>894.1239</ele><time>2026-06-18T23:00:05.000Z</time></trkpt>
        <trkpt lat="28.481499" lon="105.000421"><ele>893.92</ele><time>2026-06-18T23:00:07.000Z</time></trkpt>
        <trkpt lat="28.481521" lon="105.000401"><ele>893.8492</ele><time>2026-06-18T23:00:09.000Z</time></trkpt>
        <trkpt lat="28.481542" lon="105.000378"><ele>893.8492</ele><time>2026-06-18T23:00:11.000Z</time></trkpt>
        <trkpt lat="28.481558" lon="105.000355"><ele>893.8492</ele><time>2026-06-18T23:00:13.000Z</time></trkpt>
        <trkpt lat="28.481569" lon="105.000333"><ele>893.8492</ele><time>2026-06-18T23:00:15.000Z</time></trkpt>
        <trkpt lat="28.481582" lon="105.000305"><ele>893.8492</ele><time>2026-06-18T23:00:17.000Z</time></trkpt>
        <trkpt lat="28.481596" lon="105.000276"><ele>894.1375</ele><time>2026-06-18T23:00:19.000Z</time></trkpt>
        <trkpt lat="28.481608" lon="105.000249"><ele>894.4319</ele><time>2026-06-18T23:00:21.000Z</time></trkpt>
        <trkpt lat="28.481617" lon="105.000225"><ele>894.7266</ele><time>2026-06-18T23:00:23.000Z</time></trkpt>
        <trkpt lat="28.481626" lon="105.000198"><ele>895.0102</ele><time>2026-06-18T23:00:25.000Z</time></trkpt>
        <trkpt lat="28.481637" lon="105.000169"><ele>895.088</ele><time>2026-06-18T23:00:27.000Z</time></trkpt>
        <trkpt lat="28.481649" lon="105.000144"><ele>895.2087</ele><time>2026-06-18T23:00:29.000Z</time></trkpt>
        <trkpt lat="28.481665" lon="105.00012"><ele>895.31226</ele><time>2026-06-18T23:00:31.000Z</time></trkpt>
        <trkpt lat="28.481686" lon="105.000099"><ele>895.3239</ele><time>2026-06-18T23:00:33.000Z</time></trkpt>
        <trkpt lat="28.481707" lon="105.000084"><ele>895.3808</ele><time>2026-06-18T23:00:35.000Z</time></trkpt>
        <trkpt lat="28.481713" lon="105.000083"><ele>895.4315</ele><time>2026-06-18T23:00:37.000Z</time></trkpt>
        <trkpt lat="28.481721" lon="105.000084"><ele>895.4513</ele><time>2026-06-18T23:00:39.000Z</time></trkpt>
        <trkpt lat="28.481737" lon="105.000086"><ele>895.4912</ele><time>2026-06-18T23:00:41.000Z</time></trkpt>
        <trkpt lat="28.481758" lon="105.000086"><ele>895.70496</ele><time>2026-06-18T23:00:43.000Z</time></trkpt>
        <trkpt lat="28.481789" lon="105.000081"><ele>895.975</ele><time>2026-06-18T23:00:45.000Z</time></trkpt>
        <trkpt lat="28.481818" lon="105.000077"><ele>896.0704</ele><time>2026-06-18T23:00:47.000Z</time></trkpt>
        <trkpt lat="28.481848" lon="105.000075"><ele>896.21533</ele><time>2026-06-18T23:00:49.000Z</time></trkpt>
        <trkpt lat="28.481869" lon="105.000076"><ele>896.3466</ele><time>2026-06-18T23:00:51.000Z</time></trkpt>
        <trkpt lat="28.481895" lon="105.000073"><ele>896.3466</ele><time>2026-06-18T23:00:53.000Z</time></trkpt>
        <trkpt lat="28.481925" lon="105.000066"><ele>896.3466</ele><time>2026-06-18T23:00:55.000Z</time></trkpt>
        <trkpt lat="28.481955" lon="105.000059"><ele>896.4929</ele><time>2026-06-18T23:00:57.000Z</time></trkpt>
        <trkpt lat="28.481976" lon="105.000054"><ele>896.7205</ele><time>2026-06-18T23:00:59.000Z</time></trkpt>
        <trkpt lat="28.481994" lon="105.000055"><ele>896.8343</ele><time>2026-06-18T23:01:01.000Z</time></trkpt>
        <trkpt lat="28.482006" lon="105.000063"><ele>897.0062</ele><time>2026-06-18T23:01:03.000Z</time></trkpt>
        <trkpt lat="28.482017" lon="105.000073"><ele>897.17505</ele><time>2026-06-18T23:01:05.000Z</time></trkpt>
        <trkpt lat="28.482029" lon="105.00008"><ele>897.28564</ele><time>2026-06-18T23:01:07.000Z</time></trkpt>
        <trkpt lat="28.482049" lon="105.000086"><ele>897.388</ele><time>2026-06-18T23:01:09.000Z</time></trkpt>
        <trkpt lat="28.482071" lon="105.000095"><ele>897.3244</ele><time>2026-06-18T23:01:11.000Z</time></trkpt>
        <trkpt lat="28.482081" lon="105.000103"><ele>897.3521</ele><time>2026-06-18T23:01:13.000Z</time></trkpt>
        <trkpt lat="28.48209" lon="105.000109"><ele>897.3521</ele><time>2026-06-18T23:01:15.000Z</time></trkpt>
        <trkpt lat="28.482102" lon="105.000113"><ele>897.3521</ele><time>2026-06-18T23:01:17.000Z</time></trkpt>
        <trkpt lat="28.482116" lon="105.000114"><ele>897.33167</ele><time>2026-06-18T23:01:19.000Z</time></trkpt>
        <trkpt lat="28.482137" lon="105.000115"><ele>897.3069</ele><time>2026-06-18T23:01:21.000Z</time></trkpt>
        <trkpt lat="28.482161" lon="105.000116"><ele>897.3069</ele><time>2026-06-18T23:01:23.000Z</time></trkpt>
        <trkpt lat="28.482189" lon="105.000117"><ele>897.28625</ele><time>2026-06-18T23:01:25.000Z</time></trkpt>
        <trkpt lat="28.482208" lon="105.000121"><ele>897.21265</ele><time>2026-06-18T23:01:27.000Z</time></trkpt>
        <trkpt lat="28.482231" lon="105.000127"><ele>897.10156</ele><time>2026-06-18T23:01:29.000Z</time></trkpt>
        <trkpt lat="28.482261" lon="105.000139"><ele>897.10156</ele><time>2026-06-18T23:01:31.000Z</time></trkpt>
        <trkpt lat="28.482285" lon="105.000145"><ele>897.10156</ele><time>2026-06-18T23:01:33.000Z</time></trkpt>
        <trkpt lat="28.482311" lon="105.000153"><ele>897.10156</ele><time>2026-06-18T23:01:35.000Z</time></trkpt>
        <trkpt lat="28.482333" lon="105.000159"><ele>897.1125</ele><time>2026-06-18T23:01:37.000Z</time></trkpt>
        <trkpt lat="28.482353" lon="105.00016"><ele>897.1125</ele><time>2026-06-18T23:01:39.000Z</time></trkpt>
        <trkpt lat="28.482382" lon="105.000157"><ele>897.19666</ele><time>2026-06-18T23:01:41.000Z</time></trkpt>
        <trkpt lat="28.482411" lon="105.000151"><ele>897.27264</ele><time>2026-06-18T23:01:43.000Z</time></trkpt>
        <trkpt lat="28.482436" lon="105.00014"><ele>897.3419</ele><time>2026-06-18T23:01:45.000Z</time></trkpt>
        <trkpt lat="28.482458" lon="105.000125"><ele>897.3419</ele><time>2026-06-18T23:01:47.000Z</time></trkpt>
        <trkpt lat="28.482477" lon="105.000105"><ele>897.35846</ele><time>2026-06-18T23:01:49.000Z</time></trkpt>
        <trkpt lat="28.482495" lon="105.00008"><ele>897.35846</ele><time>2026-06-18T23:01:51.000Z</time></trkpt>
        <trkpt lat="28.482512" lon="105.000051"><ele>897.30963</ele><time>2026-06-18T23:01:53.000Z</time></trkpt>
        <trkpt lat="28.48252" lon="105.000032"><ele>897.30963</ele><time>2026-06-18T23:01:55.000Z</time></trkpt>
        <trkpt lat="28.482519" lon="105.000022"><ele>897.30963</ele><time>2026-06-18T23:01:57.000Z</time></trkpt>
        <trkpt lat="28.48252" lon="105.000013"><ele>897.30963</ele><time>2026-06-18T23:01:59.000Z</time></trkpt>
        <trkpt lat="28.48253" lon="104.999989"><ele>897.30963</ele><time>2026-06-18T23:02:03.000Z</time></trkpt>
        <trkpt lat="28.482541" lon="104.999978"><ele>897.30963</ele><time>2026-06-18T23:02:05.000Z</time></trkpt>
        <trkpt lat="28.482559" lon="104.999964"><ele>897.30963</ele><time>2026-06-18T23:02:07.000Z</time></trkpt>
        <trkpt lat="28.482577" lon="104.999952"><ele>897.4593</ele><time>2026-06-18T23:02:09.000Z</time></trkpt>
        <trkpt lat="28.482597" lon="104.999938"><ele>897.66907</ele><time>2026-06-18T23:02:11.000Z</time></trkpt>
        <trkpt lat="28.48262" lon="104.999919"><ele>897.92035</ele><time>2026-06-18T23:02:13.000Z</time></trkpt>
        <trkpt lat="28.482642" lon="104.9999"><ele>898.1683</ele><time>2026-06-18T23:02:15.000Z</time></trkpt>
        <trkpt lat="28.482665" lon="104.99988"><ele>898.3127</ele><time>2026-06-18T23:02:17.000Z</time></trkpt>
        <trkpt lat="28.482685" lon="104.999859"><ele>898.41376</ele><time>2026-06-18T23:02:19.000Z</time></trkpt>
        <trkpt lat="28.482705" lon="104.999838"><ele>898.75415</ele><time>2026-06-18T23:02:21.000Z</time></trkpt>
        <trkpt lat="28.482726" lon="104.999817"><ele>899.1557</ele><time>2026-06-18T23:02:23.000Z</time></trkpt>
        <trkpt lat="28.482747" lon="104.999798"><ele>899.3908</ele><time>2026-06-18T23:02:25.000Z</time></trkpt>
        <trkpt lat="28.482771" lon="104.999784"><ele>899.5807</ele><time>2026-06-18T23:02:27.000Z</time></trkpt>
        <trkpt lat="28.482792" lon="104.999774"><ele>899.9263</ele><time>2026-06-18T23:02:29.000Z</time></trkpt>
        <trkpt lat="28.48281" lon="104.999768"><ele>900.0389</ele><time>2026-06-18T23:02:31.000Z</time></trkpt>
        <trkpt lat="28.482835" lon="104.999759"><ele>900.2751</ele><time>2026-06-18T23:02:33.000Z</time></trkpt>
        <trkpt lat="28.482858" lon="104.999752"><ele>900.4497</ele><time>2026-06-18T23:02:35.000Z</time></trkpt>
        <trkpt lat="28.48288" lon="104.999745"><ele>900.5813</ele><time>2026-06-18T23:02:37.000Z</time></trkpt>
        <trkpt lat="28.482904" lon="104.999739"><ele>900.64</ele><time>2026-06-18T23:02:39.000Z</time></trkpt>
        <trkpt lat="28.482924" lon="104.999731"><ele>900.73627</ele><time>2026-06-18T23:02:41.000Z</time></trkpt>
        <trkpt lat="28.48294" lon="104.999721"><ele>900.8254</ele><time>2026-06-18T23:02:43.000Z</time></trkpt>
        <trkpt lat="28.482952" lon="104.999709"><ele>900.8254</ele><time>2026-06-18T23:02:45.000Z</time></trkpt>
        <trkpt lat="28.482966" lon="104.999696"><ele>900.8415</ele><time>2026-06-18T23:02:47.000Z</time></trkpt>
        <trkpt lat="28.482975" lon="104.999682"><ele>900.96173</ele><time>2026-06-18T23:02:49.000Z</time></trkpt>
        <trkpt lat="28.482985" lon="104.999663"><ele>901.1687</ele><time>2026-06-18T23:02:51.000Z</time></trkpt>
        <trkpt lat="28.483" lon="104.999642"><ele>901.2981</ele><time>2026-06-18T23:02:53.000Z</time></trkpt>
        <trkpt lat="28.483019" lon="104.999625"><ele>901.4075</ele><time>2026-06-18T23:02:55.000Z</time></trkpt>
        <trkpt lat="28.48304" lon="104.999606"><ele>901.49054</ele><time>2026-06-18T23:02:57.000Z</time></trkpt>
        <trkpt lat="28.483059" lon="104.99959"><ele>901.5073</ele><time>2026-06-18T23:02:59.000Z</time></trkpt>
        <trkpt lat="28.483078" lon="104.999575"><ele>901.5073</ele><time>2026-06-18T23:03:01.000Z</time></trkpt>
        <trkpt lat="28.483096" lon="104.999562"><ele>901.67194</ele><time>2026-06-18T23:03:03.000Z</time></trkpt>
        <trkpt lat="28.483117" lon="104.999548"><ele>901.9971</ele><time>2026-06-18T23:03:05.000Z</time></trkpt>
        <trkpt lat="28.483144" lon="104.999535"><ele>902.1922</ele><time>2026-06-18T23:03:07.000Z</time></trkpt>
        <trkpt lat="28.483175" lon="104.999525"><ele>902.3351</ele><time>2026-06-18T23:03:09.000Z</time></trkpt>
        <trkpt lat="28.483208" lon="104.99952"><ele>902.5433</ele><time>2026-06-18T23:03:11.000Z</time></trkpt>
        <trkpt lat="28.483239" lon="104.999519"><ele>902.66394</ele><time>2026-06-18T23:03:13.000Z</time></trkpt>
        <trkpt lat="28.483264" lon="104.999523"><ele>902.694</ele><time>2026-06-18T23:03:15.000Z</time></trkpt>
        <trkpt lat="28.483283" lon="104.99953"><ele>902.8117</ele><time>2026-06-18T23:03:17.000Z</time></trkpt>
        <trkpt lat="28.483296" lon="104.999538"><ele>902.95795</ele><time>2026-06-18T23:03:19.000Z</time></trkpt>
        <trkpt lat="28.483311" lon="104.999547"><ele>902.95795</ele><time>2026-06-18T23:03:21.000Z</time></trkpt>
        <trkpt lat="28.48333" lon="104.999559"><ele>902.8758</ele><time>2026-06-18T23:03:23.000Z</time></trkpt>
        <trkpt lat="28.483352" lon="104.999571"><ele>902.7743</ele><time>2026-06-18T23:03:25.000Z</time></trkpt>
        <trkpt lat="28.483375" lon="104.999585"><ele>902.8441</ele><time>2026-06-18T23:03:27.000Z</time></trkpt>
        <trkpt lat="28.483395" lon="104.999598"><ele>902.8441</ele><time>2026-06-18T23:03:29.000Z</time></trkpt>
        <trkpt lat="28.483415" lon="104.999611"><ele>902.7743</ele><time>2026-06-18T23:03:31.000Z</time></trkpt>
        <trkpt lat="28.483431" lon="104.999625"><ele>902.65784</ele><time>2026-06-18T23:03:33.000Z</time></trkpt>
        <trkpt lat="28.483447" lon="104.999643"><ele>902.54755</ele><time>2026-06-18T23:03:35.000Z</time></trkpt>
        <trkpt lat="28.483466" lon="104.999663"><ele>902.379</ele><time>2026-06-18T23:03:37.000Z</time></trkpt>
        <trkpt lat="28.483484" lon="104.999686"><ele>901.862</ele><time>2026-06-18T23:03:39.000Z</time></trkpt>
        <trkpt lat="28.483499" lon="104.999708"><ele>901.1815</ele><time>2026-06-18T23:03:41.000Z</time></trkpt>
        <trkpt lat="28.483519" lon="104.999732"><ele>900.85504</ele><time>2026-06-18T23:03:43.000Z</time></trkpt>
        <trkpt lat="28.483537" lon="104.999752"><ele>900.78687</ele><time>2026-06-18T23:03:45.000Z</time></trkpt>
        <trkpt lat="28.483556" lon="104.999769"><ele>900.37103</ele><time>2026-06-18T23:03:47.000Z</time></trkpt>
        <trkpt lat="28.483574" lon="104.999784"><ele>899.45654</ele><time>2026-06-18T23:03:49.000Z</time></trkpt>
        <trkpt lat="28.483589" lon="104.9998"><ele>898.3885</ele><time>2026-06-18T23:03:51.000Z</time></trkpt>
        <trkpt lat="28.483602" lon="104.999815"><ele>897.39246</ele><time>2026-06-18T23:03:53.000Z</time></trkpt>
        <trkpt lat="28.483612" lon="104.99983"><ele>896.6197</ele><time>2026-06-18T23:03:55.000Z</time></trkpt>
        <trkpt lat="28.483624" lon="104.999844"><ele>896.20984</ele><time>2026-06-18T23:03:57.000Z</time></trkpt>
        <trkpt lat="28.483636" lon="104.999857"><ele>895.92413</ele><time>2026-06-18T23:03:59.000Z</time></trkpt>
        <trkpt lat="28.483651" lon="104.999872"><ele>895.5519</ele><time>2026-06-18T23:04:01.000Z</time></trkpt>
        <trkpt lat="28.483665" lon="104.999889"><ele>894.9504</ele><time>2026-06-18T23:04:03.000Z</time></trkpt>
        <trkpt lat="28.483678" lon="104.999908"><ele>894.0756</ele><time>2026-06-18T23:04:05.000Z</time></trkpt>
        <trkpt lat="28.48369" lon="104.99993"><ele>893.4499</ele><time>2026-06-18T23:04:07.000Z</time></trkpt>
        <trkpt lat="28.483704" lon="104.999953"><ele>893.1803</ele><time>2026-06-18T23:04:09.000Z</time></trkpt>
        <trkpt lat="28.48372" lon="104.999972"><ele>892.7221</ele><time>2026-06-18T23:04:11.000Z</time></trkpt>
        <trkpt lat="28.483736" lon="104.999989"><ele>891.93506</ele><time>2026-06-18T23:04:13.000Z</time></trkpt>
        <trkpt lat="28.483748" lon="105.000002"><ele>891.32526</ele><time>2026-06-18T23:04:15.000Z</time></trkpt>
        <trkpt lat="28.48376" lon="105.000014"><ele>891.0806</ele><time>2026-06-18T23:04:17.000Z</time></trkpt>
        <trkpt lat="28.48377" lon="105.000026"><ele>890.6152</ele><time>2026-06-18T23:04:19.000Z</time></trkpt>
        <trkpt lat="28.483781" lon="105.00004"><ele>889.521</ele><time>2026-06-18T23:04:21.000Z</time></trkpt>
        <trkpt lat="28.483792" lon="105.000055"><ele>888.7433</ele><time>2026-06-18T23:04:23.000Z</time></trkpt>
        <trkpt lat="28.483803" lon="105.000073"><ele>888.5307</ele><time>2026-06-18T23:04:25.000Z</time></trkpt>
        <trkpt lat="28.483816" lon="105.000095"><ele>888.2696</ele><time>2026-06-18T23:04:27.000Z</time></trkpt>
        <trkpt lat="28.483832" lon="105.000121"><ele>887.89825</ele><time>2026-06-18T23:04:29.000Z</time></trkpt>
        <trkpt lat="28.483847" lon="105.000146"><ele>887.45636</ele><time>2026-06-18T23:04:31.000Z</time></trkpt>
        <trkpt lat="28.483862" lon="105.000168"><ele>887.1303</ele><time>2026-06-18T23:04:33.000Z</time></trkpt>
        <trkpt lat="28.483878" lon="105.000191"><ele>886.9905</ele><time>2026-06-18T23:04:35.000Z</time></trkpt>
        <trkpt lat="28.483894" lon="105.000216"><ele>886.924</ele><time>2026-06-18T23:04:37.000Z</time></trkpt>
        <trkpt lat="28.483911" lon="105.000233"><ele>886.57336</ele><time>2026-06-18T23:04:39.000Z</time></trkpt>
        <trkpt lat="28.483928" lon="105.000246"><ele>885.7162</ele><time>2026-06-18T23:04:41.000Z</time></trkpt>
        <trkpt lat="28.483949" lon="105.000261"><ele>884.8642</ele><time>2026-06-18T23:04:43.000Z</time></trkpt>
        <trkpt lat="28.483972" lon="105.000272"><ele>884.41614</ele><time>2026-06-18T23:04:45.000Z</time></trkpt>
        <trkpt lat="28.483998" lon="105.00028"><ele>883.84033</ele><time>2026-06-18T23:04:47.000Z</time></trkpt>
        <trkpt lat="28.484023" lon="105.000284"><ele>882.9094</ele><time>2026-06-18T23:04:49.000Z</time></trkpt>
        <trkpt lat="28.484047" lon="105.000289"><ele>882.0438</ele><time>2026-06-18T23:04:51.000Z</time></trkpt>
        <trkpt lat="28.484069" lon="105.000296"><ele>881.4851</ele><time>2026-06-18T23:04:53.000Z</time></trkpt>
        <trkpt lat="28.484092" lon="105.000304"><ele>881.14233</ele><time>2026-06-18T23:04:55.000Z</time></trkpt>
        <trkpt lat="28.484116" lon="105.000314"><ele>880.52924</ele><time>2026-06-18T23:04:57.000Z</time></trkpt>
        <trkpt lat="28.484134" lon="105.000325"><ele>879.77673</ele><time>2026-06-18T23:04:59.000Z</time></trkpt>
        <trkpt lat="28.484152" lon="105.000338"><ele>879.47125</ele><time>2026-06-18T23:05:01.000Z</time></trkpt>
        <trkpt lat="28.484172" lon="105.000355"><ele>879.44385</ele><time>2026-06-18T23:05:03.000Z</time></trkpt>
        <trkpt lat="28.484194" lon="105.000374"><ele>879.11475</ele><time>2026-06-18T23:05:05.000Z</time></trkpt>
        <trkpt lat="28.484214" lon="105.000386"><ele>878.67426</ele><time>2026-06-18T23:05:07.000Z</time></trkpt>
        <trkpt lat="28.484233" lon="105.000394"><ele>878.40283</ele><time>2026-06-18T23:05:09.000Z</time></trkpt>
        <trkpt lat="28.484256" lon="105.000403"><ele>878.1795</ele><time>2026-06-18T23:05:11.000Z</time></trkpt>
        <trkpt lat="28.484278" lon="105.000411"><ele>878.0926</ele><time>2026-06-18T23:05:13.000Z</time></trkpt>
        <trkpt lat="28.484296" lon="105.000418"><ele>878.0897</ele><time>2026-06-18T23:05:15.000Z</time></trkpt>
        <trkpt lat="28.484309" lon="105.000423"><ele>877.5875</ele><time>2026-06-18T23:05:17.000Z</time></trkpt>
        <trkpt lat="28.484323" lon="105.000429"><ele>877.07715</ele><time>2026-06-18T23:05:19.000Z</time></trkpt>
        <trkpt lat="28.484343" lon="105.000435"><ele>877.0556</ele><time>2026-06-18T23:05:21.000Z</time></trkpt>
        <trkpt lat="28.484365" lon="105.00044"><ele>876.95746</ele><time>2026-06-18T23:05:23.000Z</time></trkpt>
        <trkpt lat="28.484387" lon="105.000444"><ele>876.6391</ele><time>2026-06-18T23:05:25.000Z</time></trkpt>
        <trkpt lat="28.484413" lon="105.00045"><ele>876.0597</ele><time>2026-06-18T23:05:27.000Z</time></trkpt>
        <trkpt lat="28.484436" lon="105.000456"><ele>875.64636</ele><time>2026-06-18T23:05:29.000Z</time></trkpt>
        <trkpt lat="28.48446" lon="105.000459"><ele>875.56464</ele><time>2026-06-18T23:05:31.000Z</time></trkpt>
        <trkpt lat="28.484484" lon="105.000461"><ele>875.56464</ele><time>2026-06-18T23:05:33.000Z</time></trkpt>
        <trkpt lat="28.484506" lon="105.000461"><ele>875.5342</ele><time>2026-06-18T23:05:35.000Z</time></trkpt>
        <trkpt lat="28.484525" lon="105.000457"><ele>875.4788</ele><time>2026-06-18T23:05:37.000Z</time></trkpt>
        <trkpt lat="28.484545" lon="105.000452"><ele>875.42346</ele><time>2026-06-18T23:05:39.000Z</time></trkpt>
        <trkpt lat="28.484567" lon="105.000445"><ele>875.2368</ele><time>2026-06-18T23:05:41.000Z</time></trkpt>
        <trkpt lat="28.484588" lon="105.000438"><ele>875.0317</ele><time>2026-06-18T23:05:43.000Z</time></trkpt>
        <trkpt lat="28.484606" lon="105.000431"><ele>874.9384</ele><time>2026-06-18T23:05:45.000Z</time></trkpt>
        <trkpt lat="28.484626" lon="105.000424"><ele>874.4287</ele><time>2026-06-18T23:05:47.000Z</time></trkpt>
        <trkpt lat="28.484648" lon="105.000414"><ele>873.7883</ele><time>2026-06-18T23:05:49.000Z</time></trkpt>
        <trkpt lat="28.48467" lon="105.000402"><ele>873.5086</ele><time>2026-06-18T23:05:51.000Z</time></trkpt>
        <trkpt lat="28.48469" lon="105.00039"><ele>873.39166</ele><time>2026-06-18T23:05:53.000Z</time></trkpt>
        <trkpt lat="28.484718" lon="105.000374"><ele>873.31616</ele><time>2026-06-18T23:05:55.000Z</time></trkpt>
        <trkpt lat="28.484741" lon="105.00036"><ele>873.11194</ele><time>2026-06-18T23:05:57.000Z</time></trkpt>
        <trkpt lat="28.484762" lon="105.000345"><ele>872.94183</ele><time>2026-06-18T23:05:59.000Z</time></trkpt>
        <trkpt lat="28.484783" lon="105.000331"><ele>872.8587</ele><time>2026-06-18T23:06:01.000Z</time></trkpt>
        <trkpt lat="28.484805" lon="105.000319"><ele>872.67645</ele><time>2026-06-18T23:06:03.000Z</time></trkpt>
        <trkpt lat="28.484828" lon="105.000311"><ele>872.67645</ele><time>2026-06-18T23:06:05.000Z</time></trkpt>
        <trkpt lat="28.484849" lon="105.0003"><ele>872.67645</ele><time>2026-06-18T23:06:07.000Z</time></trkpt>
        <trkpt lat="28.484869" lon="105.000288"><ele>872.67645</ele><time>2026-06-18T23:06:09.000Z</time></trkpt>
        <trkpt lat="28.484892" lon="105.000277"><ele>872.67645</ele><time>2026-06-18T23:06:11.000Z</time></trkpt>
        <trkpt lat="28.484917" lon="105.000268"><ele>872.6986</ele><time>2026-06-18T23:06:13.000Z</time></trkpt>
        <trkpt lat="28.484942" lon="105.000261"><ele>872.85944</ele><time>2026-06-18T23:06:15.000Z</time></trkpt>
        <trkpt lat="28.484966" lon="105.000255"><ele>872.9497</ele><time>2026-06-18T23:06:17.000Z</time></trkpt>
        <trkpt lat="28.484988" lon="105.00025"><ele>872.9539</ele><time>2026-06-18T23:06:19.000Z</time></trkpt>
        <trkpt lat="28.485009" lon="105.000247"><ele>872.97614</ele><time>2026-06-18T23:06:21.000Z</time></trkpt>
        <trkpt lat="28.485032" lon="105.000243"><ele>873.08655</ele><time>2026-06-18T23:06:23.000Z</time></trkpt>
        <trkpt lat="28.485056" lon="105.000237"><ele>873.1594</ele><time>2026-06-18T23:06:25.000Z</time></trkpt>
        <trkpt lat="28.48508" lon="105.000229"><ele>873.0491</ele><time>2026-06-18T23:06:27.000Z</time></trkpt>
        <trkpt lat="28.485103" lon="105.000222"><ele>872.9488</ele><time>2026-06-18T23:06:29.000Z</time></trkpt>
        <trkpt lat="28.485124" lon="105.000217"><ele>872.9488</ele><time>2026-06-18T23:06:31.000Z</time></trkpt>
        <trkpt lat="28.485146" lon="105.000214"><ele>872.9488</ele><time>2026-06-18T23:06:33.000Z</time></trkpt>
        <trkpt lat="28.485171" lon="105.000207"><ele>872.91565</ele><time>2026-06-18T23:06:35.000Z</time></trkpt>
        <trkpt lat="28.48519" lon="105.000198"><ele>872.86426</ele><time>2026-06-18T23:06:37.000Z</time></trkpt>
        <trkpt lat="28.485212" lon="105.000184"><ele>872.8865</ele><time>2026-06-18T23:06:39.000Z</time></trkpt>
        <trkpt lat="28.485235" lon="105.000171"><ele>872.8974</ele><time>2026-06-18T23:06:41.000Z</time></trkpt>
        <trkpt lat="28.485256" lon="105.000159"><ele>872.83344</ele><time>2026-06-18T23:06:43.000Z</time></trkpt>
        <trkpt lat="28.485278" lon="105.000149"><ele>872.81683</ele><time>2026-06-18T23:06:45.000Z</time></trkpt>
        <trkpt lat="28.485301" lon="105.000138"><ele>872.7901</ele><time>2026-06-18T23:06:47.000Z</time></trkpt>
        <trkpt lat="28.485325" lon="105.000127"><ele>872.7901</ele><time>2026-06-18T23:06:49.000Z</time></trkpt>
        <trkpt lat="28.485349" lon="105.000114"><ele>872.7901</ele><time>2026-06-18T23:06:51.000Z</time></trkpt>
        <trkpt lat="28.48537" lon="105.000102"><ele>872.7901</ele><time>2026-06-18T23:06:53.000Z</time></trkpt>
        <trkpt lat="28.485387" lon="105.000088"><ele>872.7901</ele><time>2026-06-18T23:06:55.000Z</time></trkpt>
        <trkpt lat="28.485403" lon="105.000071"><ele>872.8669</ele><time>2026-06-18T23:06:57.000Z</time></trkpt>
        <trkpt lat="28.485418" lon="105.000054"><ele>872.8669</ele><time>2026-06-18T23:06:59.000Z</time></trkpt>
        <trkpt lat="28.485432" lon="105.00004"><ele>872.8669</ele><time>2026-06-18T23:07:01.000Z</time></trkpt>
        <trkpt lat="28.485447" lon="105.000026"><ele>872.99866</ele><time>2026-06-18T23:07:03.000Z</time></trkpt>
        <trkpt lat="28.485464" lon="105.000011"><ele>873.17365</ele><time>2026-06-18T23:07:05.000Z</time></trkpt>
        <trkpt lat="28.485483" lon="104.999995"><ele>873.6587</ele><time>2026-06-18T23:07:07.000Z</time></trkpt>
        <trkpt lat="28.485502" lon="104.99998"><ele>874.1901</ele><time>2026-06-18T23:07:09.000Z</time></trkpt>
        <trkpt lat="28.485524" lon="104.999964"><ele>874.6118</ele><time>2026-06-18T23:07:11.000Z</time></trkpt>
        <trkpt lat="28.485545" lon="104.999949"><ele>875.09515</ele><time>2026-06-18T23:07:13.000Z</time></trkpt>
        <trkpt lat="28.485564" lon="104.999933"><ele>875.3295</ele><time>2026-06-18T23:07:15.000Z</time></trkpt>
        <trkpt lat="28.485584" lon="104.999916"><ele>875.4763</ele><time>2026-06-18T23:07:17.000Z</time></trkpt>
        <trkpt lat="28.485605" lon="104.999901"><ele>875.6244</ele><time>2026-06-18T23:07:19.000Z</time></trkpt>
        <trkpt lat="28.485626" lon="104.999886"><ele>875.75305</ele><time>2026-06-18T23:07:21.000Z</time></trkpt>
        <trkpt lat="28.485643" lon="104.999872"><ele>876.02893</ele><time>2026-06-18T23:07:23.000Z</time></trkpt>
        <trkpt lat="28.48566" lon="104.999859"><ele>876.3202</ele><time>2026-06-18T23:07:25.000Z</time></trkpt>
        <trkpt lat="28.485676" lon="104.999846"><ele>876.37805</ele><time>2026-06-18T23:07:27.000Z</time></trkpt>
        <trkpt lat="28.485691" lon="104.999833"><ele>876.37805</ele><time>2026-06-18T23:07:29.000Z</time></trkpt>
        <trkpt lat="28.485709" lon="104.99982"><ele>876.37805</ele><time>2026-06-18T23:07:31.000Z</time></trkpt>
        <trkpt lat="28.485729" lon="104.999807"><ele>876.37805</ele><time>2026-06-18T23:07:33.000Z</time></trkpt>
        <trkpt lat="28.485748" lon="104.999798"><ele>876.4039</ele><time>2026-06-18T23:07:35.000Z</time></trkpt>
        <trkpt lat="28.485769" lon="104.999789"><ele>876.4039</ele><time>2026-06-18T23:07:37.000Z</time></trkpt>
        <trkpt lat="28.485791" lon="104.999784"><ele>876.4039</ele><time>2026-06-18T23:07:39.000Z</time></trkpt>
        <trkpt lat="28.485812" lon="104.999776"><ele>876.4039</ele><time>2026-06-18T23:07:41.000Z</time></trkpt>
        <trkpt lat="28.48583" lon="104.999763"><ele>876.4039</ele><time>2026-06-18T23:07:43.000Z</time></trkpt>
        <trkpt lat="28.485849" lon="104.999744"><ele>876.5727</ele><time>2026-06-18T23:07:45.000Z</time></trkpt>
        <trkpt lat="28.48587" lon="104.999725"><ele>876.813</ele><time>2026-06-18T23:07:47.000Z</time></trkpt>
        <trkpt lat="28.485891" lon="104.999711"><ele>876.9957</ele><time>2026-06-18T23:07:49.000Z</time></trkpt>
        <trkpt lat="28.485908" lon="104.999706"><ele>877.64514</ele><time>2026-06-18T23:07:51.000Z</time></trkpt>
        <trkpt lat="28.485924" lon="104.999701"><ele>878.713</ele><time>2026-06-18T23:07:53.000Z</time></trkpt>
        <trkpt lat="28.485937" lon="104.999697"><ele>879.4821</ele><time>2026-06-18T23:07:55.000Z</time></trkpt>
        <trkpt lat="28.485953" lon="104.999695"><ele>879.69916</ele><time>2026-06-18T23:07:57.000Z</time></trkpt>
        <trkpt lat="28.485964" lon="104.999694"><ele>879.69916</ele><time>2026-06-18T23:07:59.000Z</time></trkpt>
        <trkpt lat="28.485966" lon="104.99969"><ele>879.69916</ele><time>2026-06-18T23:08:01.000Z</time></trkpt>
        <trkpt lat="28.485991" lon="104.999637"><ele>879.69916</ele><time>2026-06-18T23:08:08.000Z</time></trkpt>
        <trkpt lat="28.485991" lon="104.999637"><ele>879.69916</ele><time>2026-06-18T23:08:10.000Z</time></trkpt>
        <trkpt lat="28.485992" lon="104.999636"><ele>879.6439</ele><time>2026-06-18T23:08:12.000Z</time></trkpt>
        <trkpt lat="28.486011" lon="104.999605"><ele>879.5287</ele><time>2026-06-18T23:08:16.000Z</time></trkpt>
        <trkpt lat="28.486024" lon="104.999577"><ele>878.7621</ele><time>2026-06-18T23:08:18.000Z</time></trkpt>
        <trkpt lat="28.486037" lon="104.999548"><ele>878.072</ele><time>2026-06-18T23:08:20.000Z</time></trkpt>
        <trkpt lat="28.486046" lon="104.999527"><ele>878.03467</ele><time>2026-06-18T23:08:22.000Z</time></trkpt>
        <trkpt lat="28.486049" lon="104.999527"><ele>877.9077</ele><time>2026-06-18T23:08:24.000Z</time></trkpt>
        <trkpt lat="28.486097" lon="104.999532"><ele>877.7944</ele><time>2026-06-18T23:08:36.000Z</time></trkpt>
        <trkpt lat="28.486097" lon="104.999531"><ele>877.76886</ele><time>2026-06-18T23:08:38.000Z</time></trkpt>
        <trkpt lat="28.486099" lon="104.99953"><ele>877.74554</ele><time>2026-06-18T23:08:40.000Z</time></trkpt>
        <trkpt lat="28.486139" lon="104.999502"><ele>877.7042</ele><time>2026-06-18T23:08:44.000Z</time></trkpt>
        <trkpt lat="28.486154" lon="104.999489"><ele>877.6783</ele><time>2026-06-18T23:08:46.000Z</time></trkpt>
        <trkpt lat="28.486163" lon="104.999482"><ele>877.6381</ele><time>2026-06-18T23:08:48.000Z</time></trkpt>
        <trkpt lat="28.486165" lon="104.999479"><ele>877.6381</ele><time>2026-06-18T23:08:50.000Z</time></trkpt>
        <trkpt lat="28.486133" lon="104.999531"><ele>877.6783</ele><time>2026-06-18T23:09:04.000Z</time></trkpt>
        <trkpt lat="28.486143" lon="104.99966"><ele>877.7236</ele><time>2026-06-18T23:09:13.000Z</time></trkpt>
        <trkpt lat="28.486143" lon="104.99966"><ele>877.7236</ele><time>2026-06-18T23:09:15.000Z</time></trkpt>
        <trkpt lat="28.486143" lon="104.99966"><ele>877.7236</ele><time>2026-06-18T23:09:17.000Z</time></trkpt>
        <trkpt lat="28.486072" lon="104.999647"><ele>877.85876</ele><time>2026-06-18T23:09:36.000Z</time></trkpt>
        <trkpt lat="28.486072" lon="104.999647"><ele>878.0984</ele><time>2026-06-18T23:09:38.000Z</time></trkpt>
        <trkpt lat="28.486071" lon="104.999646"><ele>878.1623</ele><time>2026-06-18T23:09:40.000Z</time></trkpt>
        <trkpt lat="28.486039" lon="104.999568"><ele>878.1623</ele><time>2026-06-18T23:11:12.000Z</time></trkpt>
        <trkpt lat="28.486031" lon="104.999548"><ele>878.1623</ele><time>2026-06-18T23:11:16.000Z</time></trkpt>
        <trkpt lat="28.486031" lon="104.999548"><ele>878.1623</ele><time>2026-06-18T23:11:18.000Z</time></trkpt>
        <trkpt lat="28.486131" lon="104.999621"><ele>878.19275</ele><time>2026-06-18T23:28:41.000Z</time></trkpt>
        <trkpt lat="28.486131" lon="104.999621"><ele>878.53204</ele><time>2026-06-18T23:28:43.000Z</time></trkpt>
        <trkpt lat="28.486131" lon="104.99962"><ele>878.8632</ele><time>2026-06-18T23:28:45.000Z</time></trkpt>
        <trkpt lat="28.486028" lon="104.999573"><ele>878.8632</ele><time>2026-06-18T23:29:05.000Z</time></trkpt>
        <trkpt lat="28.486028" lon="104.999573"><ele>878.5484</ele><time>2026-06-18T23:29:07.000Z</time></trkpt>
        <trkpt lat="28.486028" lon="104.999573"><ele>878.2552</ele><time>2026-06-18T23:29:09.000Z</time></trkpt>
        <trkpt lat="28.486084" lon="104.999666"><ele>878.2552</ele><time>2026-06-18T23:30:27.000Z</time></trkpt>
        <trkpt lat="28.486094" lon="104.999675"><ele>878.2552</ele><time>2026-06-18T23:30:29.000Z</time></trkpt>
        <trkpt lat="28.486149" lon="104.999723"><ele>878.2552</ele><time>2026-06-18T23:30:35.000Z</time></trkpt>
        <trkpt lat="28.486149" lon="104.999723"><ele>878.2552</ele><time>2026-06-18T23:30:37.000Z</time></trkpt>
        <trkpt lat="28.486159" lon="104.999735"><ele>878.2015</ele><time>2026-06-18T23:30:41.000Z</time></trkpt>
        <trkpt lat="28.486193" lon="104.999778"><ele>878.0247</ele><time>2026-06-18T23:30:45.000Z</time></trkpt>
        <trkpt lat="28.486214" lon="104.999801"><ele>877.7697</ele><time>2026-06-18T23:30:47.000Z</time></trkpt>
        <trkpt lat="28.486238" lon="104.999823"><ele>877.7042</ele><time>2026-06-18T23:30:49.000Z</time></trkpt>
        <trkpt lat="28.486263" lon="104.999843"><ele>877.7042</ele><time>2026-06-18T23:30:51.000Z</time></trkpt>
        <trkpt lat="28.486288" lon="104.999861"><ele>877.7042</ele><time>2026-06-18T23:30:53.000Z</time></trkpt>
        <trkpt lat="28.486313" lon="104.999878"><ele>877.7042</ele><time>2026-06-18T23:30:55.000Z</time></trkpt>
        <trkpt lat="28.486337" lon="104.999894"><ele>877.7042</ele><time>2026-06-18T23:30:57.000Z</time></trkpt>
        <trkpt lat="28.486353" lon="104.999906"><ele>878.0214</ele><time>2026-06-18T23:30:59.000Z</time></trkpt>
        <trkpt lat="28.486365" lon="104.999907"><ele>878.42004</ele><time>2026-06-18T23:31:01.000Z</time></trkpt>
        <trkpt lat="28.486396" lon="104.999905"><ele>878.6158</ele><time>2026-06-18T23:31:05.000Z</time></trkpt>
        <trkpt lat="28.486415" lon="104.999904"><ele>878.6941</ele><time>2026-06-18T23:31:07.000Z</time></trkpt>
        <trkpt lat="28.486433" lon="104.999901"><ele>878.81256</ele><time>2026-06-18T23:31:08.000Z</time></trkpt>
        <trkpt lat="28.486457" lon="104.999893"><ele>878.93933</ele><time>2026-06-18T23:31:10.000Z</time></trkpt>
        <trkpt lat="28.486476" lon="104.999885"><ele>878.9993</ele><time>2026-06-18T23:31:12.000Z</time></trkpt>
        <trkpt lat="28.486497" lon="104.999878"><ele>879.03174</ele><time>2026-06-18T23:31:15.000Z</time></trkpt>
        <trkpt lat="28.486515" lon="104.999875"><ele>879.08234</ele><time>2026-06-18T23:31:17.000Z</time></trkpt>
        <trkpt lat="28.486535" lon="104.999873"><ele>879.2231</ele><time>2026-06-18T23:31:19.000Z</time></trkpt>
        <trkpt lat="28.486554" lon="104.999871"><ele>879.341</ele><time>2026-06-18T23:31:21.000Z</time></trkpt>
        <trkpt lat="28.486571" lon="104.999868"><ele>879.5714</ele><time>2026-06-18T23:31:23.000Z</time></trkpt>
        <trkpt lat="28.486587" lon="104.999861"><ele>879.9094</ele><time>2026-06-18T23:31:25.000Z</time></trkpt>
        <trkpt lat="28.486607" lon="104.999851"><ele>880.2845</ele><time>2026-06-18T23:31:27.000Z</time></trkpt>
        <trkpt lat="28.486629" lon="104.999841"><ele>880.7416</ele><time>2026-06-18T23:31:29.000Z</time></trkpt>
        <trkpt lat="28.486652" lon="104.999835"><ele>881.0715</ele><time>2026-06-18T23:31:31.000Z</time></trkpt>
        <trkpt lat="28.486672" lon="104.999828"><ele>881.3084</ele><time>2026-06-18T23:31:33.000Z</time></trkpt>
        <trkpt lat="28.486694" lon="104.999822"><ele>881.4617</ele><time>2026-06-18T23:31:35.000Z</time></trkpt>
        <trkpt lat="28.486714" lon="104.999822"><ele>881.4617</ele><time>2026-06-18T23:31:37.000Z</time></trkpt>
        <trkpt lat="28.486732" lon="104.999824"><ele>881.52856</ele><time>2026-06-18T23:31:39.000Z</time></trkpt>
        <trkpt lat="28.486748" lon="104.99983"><ele>881.5658</ele><time>2026-06-18T23:31:41.000Z</time></trkpt>
        <trkpt lat="28.486769" lon="104.99984"><ele>881.5817</ele><time>2026-06-18T23:31:43.000Z</time></trkpt>
        <trkpt lat="28.486792" lon="104.999855"><ele>881.5911</ele><time>2026-06-18T23:31:45.000Z</time></trkpt>
        <trkpt lat="28.486815" lon="104.999867"><ele>881.5817</ele><time>2026-06-18T23:31:47.000Z</time></trkpt>
        <trkpt lat="28.486837" lon="104.999875"><ele>881.5817</ele><time>2026-06-18T23:31:49.000Z</time></trkpt>
        <trkpt lat="28.486863" lon="104.999883"><ele>881.5911</ele><time>2026-06-18T23:31:51.000Z</time></trkpt>
        <trkpt lat="28.486888" lon="104.999891"><ele>881.60144</ele><time>2026-06-18T23:31:53.000Z</time></trkpt>
        <trkpt lat="28.486912" lon="104.999896"><ele>881.64374</ele><time>2026-06-18T23:31:55.000Z</time></trkpt>
        <trkpt lat="28.486933" lon="104.999899"><ele>881.67535</ele><time>2026-06-18T23:31:57.000Z</time></trkpt>
        <trkpt lat="28.486953" lon="104.999899"><ele>881.73016</ele><time>2026-06-18T23:31:59.000Z</time></trkpt>
        <trkpt lat="28.486974" lon="104.999899"><ele>881.95734</ele><time>2026-06-18T23:32:01.000Z</time></trkpt>
        <trkpt lat="28.486996" lon="104.999898"><ele>882.22614</ele><time>2026-06-18T23:32:03.000Z</time></trkpt>
        <trkpt lat="28.48702" lon="104.999895"><ele>882.4086</ele><time>2026-06-18T23:32:05.000Z</time></trkpt>
        <trkpt lat="28.487042" lon="104.999887"><ele>882.50684</ele><time>2026-06-18T23:32:07.000Z</time></trkpt>
        <trkpt lat="28.487061" lon="104.999879"><ele>882.59686</ele><time>2026-06-18T23:32:09.000Z</time></trkpt>
        <trkpt lat="28.487072" lon="104.999872"><ele>882.7301</ele><time>2026-06-18T23:32:11.000Z</time></trkpt>
        <trkpt lat="28.487074" lon="104.999873"><ele>883.0846</ele><time>2026-06-18T23:32:13.000Z</time></trkpt>
        <trkpt lat="28.487129" lon="104.999922"><ele>883.4733</ele><time>2026-06-18T23:32:30.000Z</time></trkpt>
        <trkpt lat="28.48713" lon="104.999922"><ele>883.6519</ele><time>2026-06-18T23:32:32.000Z</time></trkpt>
        <trkpt lat="28.487133" lon="104.999923"><ele>883.79785</ele><time>2026-06-18T23:32:34.000Z</time></trkpt>
        <trkpt lat="28.487173" lon="104.999937"><ele>883.87463</ele><time>2026-06-18T23:32:38.000Z</time></trkpt>
        <trkpt lat="28.487202" lon="104.99995"><ele>884.31976</ele><time>2026-06-18T23:32:40.000Z</time></trkpt>
        <trkpt lat="28.487232" lon="104.999968"><ele>884.77795</ele><time>2026-06-18T23:32:42.000Z</time></trkpt>
        <trkpt lat="28.487259" lon="104.99998"><ele>884.8163</ele><time>2026-06-18T23:32:44.000Z</time></trkpt>
        <trkpt lat="28.487279" lon="104.99999"><ele>884.98364</ele><time>2026-06-18T23:32:46.000Z</time></trkpt>
        <trkpt lat="28.487299" lon="105.000006"><ele>885.37897</ele><time>2026-06-18T23:32:48.000Z</time></trkpt>
        <trkpt lat="28.487315" lon="105.000021"><ele>885.81976</ele><time>2026-06-18T23:32:50.000Z</time></trkpt>
        <trkpt lat="28.487326" lon="105.000035"><ele>886.38776</ele><time>2026-06-18T23:32:52.000Z</time></trkpt>
        <trkpt lat="28.487336" lon="105.000048"><ele>886.8717</ele><time>2026-06-18T23:32:54.000Z</time></trkpt>
        <trkpt lat="28.487345" lon="105.000061"><ele>887.3689</ele><time>2026-06-18T23:32:56.000Z</time></trkpt>
        <trkpt lat="28.487356" lon="105.000073"><ele>888.20825</ele><time>2026-06-18T23:32:58.000Z</time></trkpt>
        <trkpt lat="28.487372" lon="105.000087"><ele>888.9577</ele><time>2026-06-18T23:33:00.000Z</time></trkpt>
        <trkpt lat="28.487388" lon="105.000098"><ele>889.5996</ele><time>2026-06-18T23:33:02.000Z</time></trkpt>
        <trkpt lat="28.487403" lon="105.000112"><ele>890.3013</ele><time>2026-06-18T23:33:04.000Z</time></trkpt>
        <trkpt lat="28.487419" lon="105.000127"><ele>890.9575</ele><time>2026-06-18T23:33:06.000Z</time></trkpt>
        <trkpt lat="28.48744" lon="105.000145"><ele>891.3949</ele><time>2026-06-18T23:33:08.000Z</time></trkpt>
        <trkpt lat="28.487464" lon="105.000165"><ele>891.6923</ele><time>2026-06-18T23:33:10.000Z</time></trkpt>
        <trkpt lat="28.487495" lon="105.000175"><ele>892.39825</ele><time>2026-06-18T23:33:12.000Z</time></trkpt>
        <trkpt lat="28.487522" lon="105.000173"><ele>893.3149</ele><time>2026-06-18T23:33:14.000Z</time></trkpt>
        <trkpt lat="28.487547" lon="105.000176"><ele>894.11127</ele><time>2026-06-18T23:33:15.000Z</time></trkpt>
        <trkpt lat="28.487562" lon="105.000187"><ele>894.9488</ele><time>2026-06-18T23:33:17.000Z</time></trkpt>
        <trkpt lat="28.487582" lon="105.000204"><ele>895.5546</ele><time>2026-06-18T23:33:19.000Z</time></trkpt>
        <trkpt lat="28.487603" lon="105.000227"><ele>896.0371</ele><time>2026-06-18T23:33:21.000Z</time></trkpt>
        <trkpt lat="28.487626" lon="105.000249"><ele>896.7684</ele><time>2026-06-18T23:33:23.000Z</time></trkpt>
        <trkpt lat="28.487648" lon="105.000265"><ele>897.24274</ele><time>2026-06-18T23:33:25.000Z</time></trkpt>
        <trkpt lat="28.487654" lon="105.00028"><ele>897.5017</ele><time>2026-06-18T23:33:27.000Z</time></trkpt>
        <trkpt lat="28.487655" lon="105.000305"><ele>897.9468</ele><time>2026-06-18T23:33:32.000Z</time></trkpt>
        <trkpt lat="28.487656" lon="105.000374"><ele>898.3206</ele><time>2026-06-18T23:33:40.000Z</time></trkpt>
        <trkpt lat="28.487657" lon="105.00062"><ele>898.83124</ele><time>2026-06-18T23:33:50.000Z</time></trkpt>
        <trkpt lat="28.487657" lon="105.00062"><ele>899.54333</ele><time>2026-06-18T23:33:52.000Z</time></trkpt>
        <trkpt lat="28.487657" lon="105.000624"><ele>899.9489</ele><time>2026-06-18T23:33:54.000Z</time></trkpt>
        <trkpt lat="28.48764" lon="105.000715"><ele>900.017</ele><time>2026-06-18T23:34:00.000Z</time></trkpt>
        <trkpt lat="28.48763" lon="105.00074"><ele>900.10516</ele><time>2026-06-18T23:34:02.000Z</time></trkpt>
        <trkpt lat="28.487619" lon="105.000762"><ele>900.1831</ele><time>2026-06-18T23:34:04.000Z</time></trkpt>
        <trkpt lat="28.487611" lon="105.000771"><ele>900.1831</ele><time>2026-06-18T23:34:06.000Z</time></trkpt>
        <trkpt lat="28.487606" lon="105.000775"><ele>900.1831</ele><time>2026-06-18T23:34:08.000Z</time></trkpt>
        <trkpt lat="28.487577" lon="105.000804"><ele>900.0994</ele><time>2026-06-18T23:34:12.000Z</time></trkpt>
        <trkpt lat="28.487562" lon="105.000822"><ele>900.017</ele><time>2026-06-18T23:34:14.000Z</time></trkpt>
        <trkpt lat="28.487548" lon="105.000842"><ele>899.9541</ele><time>2026-06-18T23:34:16.000Z</time></trkpt>
        <trkpt lat="28.487532" lon="105.000862"><ele>899.6711</ele><time>2026-06-18T23:34:18.000Z</time></trkpt>
        <trkpt lat="28.487518" lon="105.000881"><ele>899.37476</ele><time>2026-06-18T23:34:20.000Z</time></trkpt>
        <trkpt lat="28.487507" lon="105.000896"><ele>899.12146</ele><time>2026-06-18T23:34:22.000Z</time></trkpt>
        <trkpt lat="28.487499" lon="105.000913"><ele>898.8976</ele><time>2026-06-18T23:34:24.000Z</time></trkpt>
        <trkpt lat="28.487492" lon="105.000933"><ele>898.6586</ele><time>2026-06-18T23:34:26.000Z</time></trkpt>
        <trkpt lat="28.487482" lon="105.000957"><ele>898.1738</ele><time>2026-06-18T23:34:28.000Z</time></trkpt>
        <trkpt lat="28.487471" lon="105.000981"><ele>897.7899</ele><time>2026-06-18T23:34:30.000Z</time></trkpt>
        <trkpt lat="28.487459" lon="105.001001"><ele>897.6649</ele><time>2026-06-18T23:34:32.000Z</time></trkpt>
        <trkpt lat="28.487446" lon="105.001021"><ele>897.5227</ele><time>2026-06-18T23:34:34.000Z</time></trkpt>
        <trkpt lat="28.48743" lon="105.001043"><ele>897.2722</ele><time>2026-06-18T23:34:36.000Z</time></trkpt>
        <trkpt lat="28.487414" lon="105.001067"><ele>897.09357</ele><time>2026-06-18T23:34:38.000Z</time></trkpt>
        <trkpt lat="28.487398" lon="105.00109"><ele>896.9033</ele><time>2026-06-18T23:34:40.000Z</time></trkpt>
        <trkpt lat="28.487378" lon="105.001114"><ele>896.51294</ele><time>2026-06-18T23:34:42.000Z</time></trkpt>
        <trkpt lat="28.487359" lon="105.001138"><ele>896.07086</ele><time>2026-06-18T23:34:44.000Z</time></trkpt>
        <trkpt lat="28.487338" lon="105.001171"><ele>895.6879</ele><time>2026-06-18T23:34:46.000Z</time></trkpt>
        <trkpt lat="28.487322" lon="105.001202"><ele>895.1218</ele><time>2026-06-18T23:34:48.000Z</time></trkpt>
        <trkpt lat="28.487307" lon="105.001233"><ele>894.46814</ele><time>2026-06-18T23:34:50.000Z</time></trkpt>
        <trkpt lat="28.487291" lon="105.001264"><ele>894.14636</ele><time>2026-06-18T23:34:52.000Z</time></trkpt>
        <trkpt lat="28.487277" lon="105.001293"><ele>894.068</ele><time>2026-06-18T23:34:54.000Z</time></trkpt>
        <trkpt lat="28.487268" lon="105.001322"><ele>893.923</ele><time>2026-06-18T23:34:56.000Z</time></trkpt>
        <trkpt lat="28.487266" lon="105.001338"><ele>893.4957</ele><time>2026-06-18T23:34:58.000Z</time></trkpt>
        <trkpt lat="28.487262" lon="105.001349"><ele>892.8539</ele><time>2026-06-18T23:35:00.000Z</time></trkpt>
        <trkpt lat="28.487248" lon="105.001371"><ele>892.13116</ele><time>2026-06-18T23:35:02.000Z</time></trkpt>
        <trkpt lat="28.48723" lon="105.001394"><ele>891.3986</ele><time>2026-06-18T23:35:04.000Z</time></trkpt>
        <trkpt lat="28.487211" lon="105.001416"><ele>890.7298</ele><time>2026-06-18T23:35:06.000Z</time></trkpt>
        <trkpt lat="28.487196" lon="105.00143"><ele>889.93567</ele><time>2026-06-18T23:35:08.000Z</time></trkpt>
        <trkpt lat="28.487194" lon="105.001437"><ele>889.1567</ele><time>2026-06-18T23:35:10.000Z</time></trkpt>
        <trkpt lat="28.487179" lon="105.001478"><ele>888.40125</ele><time>2026-06-18T23:35:21.000Z</time></trkpt>
        <trkpt lat="28.487179" lon="105.001478"><ele>887.4334</ele><time>2026-06-18T23:35:23.000Z</time></trkpt>
        <trkpt lat="28.487177" lon="105.001481"><ele>886.7155</ele><time>2026-06-18T23:35:25.000Z</time></trkpt>
        <trkpt lat="28.487159" lon="105.001523"><ele>886.28827</ele><time>2026-06-18T23:35:29.000Z</time></trkpt>
        <trkpt lat="28.487147" lon="105.001553"><ele>885.6737</ele><time>2026-06-18T23:35:31.000Z</time></trkpt>
        <trkpt lat="28.487134" lon="105.001591"><ele>885.26385</ele><time>2026-06-18T23:35:33.000Z</time></trkpt>
        <trkpt lat="28.487127" lon="105.001626"><ele>885.21594</ele><time>2026-06-18T23:35:35.000Z</time></trkpt>
        <trkpt lat="28.487121" lon="105.001661"><ele>885.095</ele><time>2026-06-18T23:35:37.000Z</time></trkpt>
        <trkpt lat="28.48712" lon="105.001689"><ele>885.0026</ele><time>2026-06-18T23:35:39.000Z</time></trkpt>
        <trkpt lat="28.487118" lon="105.00171"><ele>884.9932</ele><time>2026-06-18T23:35:41.000Z</time></trkpt>
        <trkpt lat="28.487114" lon="105.001732"><ele>884.9267</ele><time>2026-06-18T23:35:43.000Z</time></trkpt>
        <trkpt lat="28.48711" lon="105.00176"><ele>884.80225</ele><time>2026-06-18T23:35:45.000Z</time></trkpt>
        <trkpt lat="28.48711" lon="105.001785"><ele>884.3987</ele><time>2026-06-18T23:35:47.000Z</time></trkpt>
        <trkpt lat="28.487112" lon="105.001812"><ele>883.8426</ele><time>2026-06-18T23:35:49.000Z</time></trkpt>
        <trkpt lat="28.487116" lon="105.00184"><ele>883.35693</ele><time>2026-06-18T23:35:51.000Z</time></trkpt>
        <trkpt lat="28.487122" lon="105.001867"><ele>883.06946</ele><time>2026-06-18T23:35:53.000Z</time></trkpt>
        <trkpt lat="28.487131" lon="105.001899"><ele>882.6413</ele><time>2026-06-18T23:35:55.000Z</time></trkpt>
        <trkpt lat="28.487137" lon="105.001922"><ele>881.8593</ele><time>2026-06-18T23:35:57.000Z</time></trkpt>
        <trkpt lat="28.487145" lon="105.001946"><ele>881.3854</ele><time>2026-06-18T23:35:59.000Z</time></trkpt>
        <trkpt lat="28.487156" lon="105.001975"><ele>881.2554</ele><time>2026-06-18T23:36:01.000Z</time></trkpt>
        <trkpt lat="28.487167" lon="105.002002"><ele>880.70746</ele><time>2026-06-18T23:36:03.000Z</time></trkpt>
        <trkpt lat="28.487177" lon="105.002023"><ele>879.6544</ele><time>2026-06-18T23:36:05.000Z</time></trkpt>
        <trkpt lat="28.487191" lon="105.002044"><ele>878.70184</ele><time>2026-06-18T23:36:07.000Z</time></trkpt>
        <trkpt lat="28.487213" lon="105.00207"><ele>878.07184</ele><time>2026-06-18T23:36:09.000Z</time></trkpt>
        <trkpt lat="28.487234" lon="105.002094"><ele>877.8283</ele><time>2026-06-18T23:36:11.000Z</time></trkpt>
        <trkpt lat="28.487254" lon="105.002118"><ele>877.63</ele><time>2026-06-18T23:36:13.000Z</time></trkpt>
        <trkpt lat="28.487274" lon="105.002136"><ele>877.31616</ele><time>2026-06-18T23:36:15.000Z</time></trkpt>
        <trkpt lat="28.487297" lon="105.002148"><ele>877.1379</ele><time>2026-06-18T23:36:17.000Z</time></trkpt>
        <trkpt lat="28.487323" lon="105.002159"><ele>877.0441</ele><time>2026-06-18T23:36:19.000Z</time></trkpt>
        <trkpt lat="28.487348" lon="105.002168"><ele>876.896</ele><time>2026-06-18T23:36:21.000Z</time></trkpt>
        <trkpt lat="28.487377" lon="105.002178"><ele>876.7963</ele><time>2026-06-18T23:36:23.000Z</time></trkpt>
        <trkpt lat="28.487406" lon="105.002194"><ele>876.78204</ele><time>2026-06-18T23:36:25.000Z</time></trkpt>
        <trkpt lat="28.487424" lon="105.00221"><ele>876.4631</ele><time>2026-06-18T23:36:27.000Z</time></trkpt>
        <trkpt lat="28.487438" lon="105.002227"><ele>875.8867</ele><time>2026-06-18T23:36:29.000Z</time></trkpt>
        <trkpt lat="28.487453" lon="105.002244"><ele>875.65</ele><time>2026-06-18T23:36:31.000Z</time></trkpt>
        <trkpt lat="28.487463" lon="105.00225"><ele>875.49066</ele><time>2026-06-18T23:36:33.000Z</time></trkpt>
        <trkpt lat="28.487482" lon="105.002256"><ele>875.2686</ele><time>2026-06-18T23:36:35.000Z</time></trkpt>
        <trkpt lat="28.487506" lon="105.002261"><ele>875.1154</ele><time>2026-06-18T23:36:37.000Z</time></trkpt>
        <trkpt lat="28.487532" lon="105.002266"><ele>875.0412</ele><time>2026-06-18T23:36:39.000Z</time></trkpt>
        <trkpt lat="28.487557" lon="105.00227"><ele>874.9279</ele><time>2026-06-18T23:36:41.000Z</time></trkpt>
        <trkpt lat="28.487582" lon="105.002277"><ele>874.66296</ele><time>2026-06-18T23:36:43.000Z</time></trkpt>
        <trkpt lat="28.487603" lon="105.002286"><ele>874.50323</ele><time>2026-06-18T23:36:45.000Z</time></trkpt>
        <trkpt lat="28.487626" lon="105.002299"><ele>874.50323</ele><time>2026-06-18T23:36:47.000Z</time></trkpt>
        <trkpt lat="28.487649" lon="105.002313"><ele>874.50323</ele><time>2026-06-18T23:36:49.000Z</time></trkpt>
        <trkpt lat="28.487674" lon="105.002329"><ele>874.50323</ele><time>2026-06-18T23:36:51.000Z</time></trkpt>
        <trkpt lat="28.487698" lon="105.002345"><ele>874.50323</ele><time>2026-06-18T23:36:53.000Z</time></trkpt>
        <trkpt lat="28.487717" lon="105.002363"><ele>874.5428</ele><time>2026-06-18T23:36:55.000Z</time></trkpt>
        <trkpt lat="28.487733" lon="105.002382"><ele>874.6188</ele><time>2026-06-18T23:36:57.000Z</time></trkpt>
        <trkpt lat="28.487752" lon="105.002398"><ele>874.73834</ele><time>2026-06-18T23:36:59.000Z</time></trkpt>
        <trkpt lat="28.487773" lon="105.002414"><ele>874.85406</ele><time>2026-06-18T23:37:01.000Z</time></trkpt>
        <trkpt lat="28.487792" lon="105.002426"><ele>874.91254</ele><time>2026-06-18T23:37:03.000Z</time></trkpt>
        <trkpt lat="28.487815" lon="105.002442"><ele>874.94574</ele><time>2026-06-18T23:37:05.000Z</time></trkpt>
        <trkpt lat="28.487836" lon="105.002459"><ele>875.06006</ele><time>2026-06-18T23:37:07.000Z</time></trkpt>
        <trkpt lat="28.487855" lon="105.002474"><ele>875.1944</ele><time>2026-06-18T23:37:09.000Z</time></trkpt>
        <trkpt lat="28.487874" lon="105.00249"><ele>875.5804</ele><time>2026-06-18T23:37:11.000Z</time></trkpt>
        <trkpt lat="28.487896" lon="105.00251"><ele>876.33496</ele><time>2026-06-18T23:37:13.000Z</time></trkpt>
        <trkpt lat="28.487917" lon="105.002529"><ele>877.01874</ele><time>2026-06-18T23:37:15.000Z</time></trkpt>
        <trkpt lat="28.487942" lon="105.002553"><ele>877.34015</ele><time>2026-06-18T23:37:17.000Z</time></trkpt>
        <trkpt lat="28.487966" lon="105.002578"><ele>877.3746</ele><time>2026-06-18T23:37:19.000Z</time></trkpt>
        <trkpt lat="28.487973" lon="105.002598"><ele>877.4073</ele><time>2026-06-18T23:37:21.000Z</time></trkpt>
        <trkpt lat="28.48798" lon="105.002618"><ele>877.4606</ele><time>2026-06-18T23:37:23.000Z</time></trkpt>
        <trkpt lat="28.48799" lon="105.00264"><ele>877.5355</ele><time>2026-06-18T23:37:25.000Z</time></trkpt>
        <trkpt lat="28.488009" lon="105.002654"><ele>877.8805</ele><time>2026-06-18T23:37:27.000Z</time></trkpt>
        <trkpt lat="28.488038" lon="105.002671"><ele>878.5472</ele><time>2026-06-18T23:37:29.000Z</time></trkpt>
        <trkpt lat="28.488072" lon="105.002689"><ele>879.079</ele><time>2026-06-18T23:37:31.000Z</time></trkpt>
        <trkpt lat="28.488107" lon="105.002706"><ele>879.3121</ele><time>2026-06-18T23:37:33.000Z</time></trkpt>
        <trkpt lat="28.488138" lon="105.002721"><ele>879.8593</ele><time>2026-06-18T23:37:35.000Z</time></trkpt>
        <trkpt lat="28.48816" lon="105.002732"><ele>880.6959</ele><time>2026-06-18T23:37:37.000Z</time></trkpt>
        <trkpt lat="28.488171" lon="105.002746"><ele>881.2026</ele><time>2026-06-18T23:37:39.000Z</time></trkpt>
        <trkpt lat="28.488184" lon="105.002768"><ele>881.47705</ele><time>2026-06-18T23:37:41.000Z</time></trkpt>
        <trkpt lat="28.488196" lon="105.002802"><ele>881.6537</ele><time>2026-06-18T23:37:43.000Z</time></trkpt>
        <trkpt lat="28.488211" lon="105.002839"><ele>881.85767</ele><time>2026-06-18T23:37:45.000Z</time></trkpt>
        <trkpt lat="28.488225" lon="105.002873"><ele>882.03687</ele><time>2026-06-18T23:37:47.000Z</time></trkpt>
        <trkpt lat="28.488244" lon="105.002899"><ele>882.1452</ele><time>2026-06-18T23:37:49.000Z</time></trkpt>
        <trkpt lat="28.488266" lon="105.002915"><ele>882.3069</ele><time>2026-06-18T23:37:51.000Z</time></trkpt>
        <trkpt lat="28.488282" lon="105.002917"><ele>882.65594</ele><time>2026-06-18T23:37:53.000Z</time></trkpt>
        <trkpt lat="28.488308" lon="105.002917"><ele>882.9811</ele><time>2026-06-18T23:37:55.000Z</time></trkpt>
        <trkpt lat="28.488329" lon="105.002918"><ele>883.14886</ele><time>2026-06-18T23:37:57.000Z</time></trkpt>
        <trkpt lat="28.488348" lon="105.002922"><ele>883.53485</ele><time>2026-06-18T23:37:59.000Z</time></trkpt>
        <trkpt lat="28.488367" lon="105.00293"><ele>883.8445</ele><time>2026-06-18T23:38:01.000Z</time></trkpt>
        <trkpt lat="28.48839" lon="105.002942"><ele>883.9753</ele><time>2026-06-18T23:38:03.000Z</time></trkpt>
        <trkpt lat="28.488414" lon="105.002959"><ele>884.07404</ele><time>2026-06-18T23:38:05.000Z</time></trkpt>
        <trkpt lat="28.488442" lon="105.002974"><ele>884.07404</ele><time>2026-06-18T23:38:07.000Z</time></trkpt>
        <trkpt lat="28.488467" lon="105.002989"><ele>884.07404</ele><time>2026-06-18T23:38:09.000Z</time></trkpt>
        <trkpt lat="28.488489" lon="105.003001"><ele>884.07404</ele><time>2026-06-18T23:38:11.000Z</time></trkpt>
        <trkpt lat="28.488503" lon="105.003006"><ele>883.9753</ele><time>2026-06-18T23:38:13.000Z</time></trkpt>
        <trkpt lat="28.488523" lon="105.003014"><ele>883.85486</ele><time>2026-06-18T23:38:15.000Z</time></trkpt>
        <trkpt lat="28.488551" lon="105.003025"><ele>883.6369</ele><time>2026-06-18T23:38:17.000Z</time></trkpt>
        <trkpt lat="28.488584" lon="105.003035"><ele>883.1589</ele><time>2026-06-18T23:38:19.000Z</time></trkpt>
        <trkpt lat="28.488623" lon="105.00304"><ele>882.7597</ele><time>2026-06-18T23:38:21.000Z</time></trkpt>
        <trkpt lat="28.488674" lon="105.003037"><ele>882.3834</ele><time>2026-06-18T23:38:23.000Z</time></trkpt>
        <trkpt lat="28.488712" lon="105.003033"><ele>881.8543</ele><time>2026-06-18T23:38:25.000Z</time></trkpt>
        <trkpt lat="28.488731" lon="105.003036"><ele>881.35156</ele><time>2026-06-18T23:38:27.000Z</time></trkpt>
        <trkpt lat="28.488746" lon="105.003041"><ele>880.92084</ele><time>2026-06-18T23:38:29.000Z</time></trkpt>
        <trkpt lat="28.488755" lon="105.003049"><ele>880.7197</ele><time>2026-06-18T23:38:31.000Z</time></trkpt>
        <trkpt lat="28.488769" lon="105.003066"><ele>880.58026</ele><time>2026-06-18T23:38:33.000Z</time></trkpt>
        <trkpt lat="28.488789" lon="105.003076"><ele>880.12396</ele><time>2026-06-18T23:38:35.000Z</time></trkpt>
        <trkpt lat="28.488811" lon="105.00308"><ele>879.4088</ele><time>2026-06-18T23:38:37.000Z</time></trkpt>
        <trkpt lat="28.488837" lon="105.00308"><ele>878.59735</ele><time>2026-06-18T23:38:39.000Z</time></trkpt>
        <trkpt lat="28.488862" lon="105.003077"><ele>878.0112</ele><time>2026-06-18T23:38:41.000Z</time></trkpt>
        <trkpt lat="28.488888" lon="105.00308"><ele>877.76324</ele><time>2026-06-18T23:38:43.000Z</time></trkpt>
        <trkpt lat="28.48892" lon="105.003081"><ele>877.662</ele><time>2026-06-18T23:38:45.000Z</time></trkpt>
        <trkpt lat="28.488949" lon="105.003075"><ele>877.5456</ele><time>2026-06-18T23:38:47.000Z</time></trkpt>
        <trkpt lat="28.488972" lon="105.003068"><ele>877.2466</ele><time>2026-06-18T23:38:49.000Z</time></trkpt>
        <trkpt lat="28.488998" lon="105.00306"><ele>876.70374</ele><time>2026-06-18T23:38:51.000Z</time></trkpt>
        <trkpt lat="28.489023" lon="105.003055"><ele>876.03876</ele><time>2026-06-18T23:38:53.000Z</time></trkpt>
        <trkpt lat="28.48905" lon="105.003049"><ele>875.30237</ele><time>2026-06-18T23:38:55.000Z</time></trkpt>
        <trkpt lat="28.489076" lon="105.00305"><ele>874.4565</ele><time>2026-06-18T23:38:57.000Z</time></trkpt>
        <trkpt lat="28.489104" lon="105.003056"><ele>873.8682</ele><time>2026-06-18T23:38:59.000Z</time></trkpt>
        <trkpt lat="28.489132" lon="105.003063"><ele>873.3559</ele><time>2026-06-18T23:39:01.000Z</time></trkpt>
        <trkpt lat="28.489162" lon="105.003065"><ele>872.7303</ele><time>2026-06-18T23:39:03.000Z</time></trkpt>
        <trkpt lat="28.489187" lon="105.003065"><ele>872.0579</ele><time>2026-06-18T23:39:05.000Z</time></trkpt>
        <trkpt lat="28.489212" lon="105.003063"><ele>871.22534</ele><time>2026-06-18T23:39:07.000Z</time></trkpt>
        <trkpt lat="28.489238" lon="105.003063"><ele>870.6388</ele><time>2026-06-18T23:39:09.000Z</time></trkpt>
        <trkpt lat="28.48926" lon="105.003064"><ele>870.4363</ele><time>2026-06-18T23:39:11.000Z</time></trkpt>
        <trkpt lat="28.489281" lon="105.003069"><ele>870.26984</ele><time>2026-06-18T23:39:13.000Z</time></trkpt>
        <trkpt lat="28.489302" lon="105.003073"><ele>870.1373</ele><time>2026-06-18T23:39:15.000Z</time></trkpt>
        <trkpt lat="28.489325" lon="105.003081"><ele>869.88293</ele><time>2026-06-18T23:39:17.000Z</time></trkpt>
        <trkpt lat="28.48935" lon="105.00309"><ele>869.36444</ele><time>2026-06-18T23:39:19.000Z</time></trkpt>
        <trkpt lat="28.489377" lon="105.003096"><ele>868.72955</ele><time>2026-06-18T23:39:21.000Z</time></trkpt>
        <trkpt lat="28.489408" lon="105.003103"><ele>868.0064</ele><time>2026-06-18T23:39:23.000Z</time></trkpt>
        <trkpt lat="28.489436" lon="105.003108"><ele>867.3316</ele><time>2026-06-18T23:39:25.000Z</time></trkpt>
        <trkpt lat="28.489458" lon="105.003111"><ele>866.5084</ele><time>2026-06-18T23:39:27.000Z</time></trkpt>
        <trkpt lat="28.489483" lon="105.003113"><ele>865.54504</ele><time>2026-06-18T23:39:29.000Z</time></trkpt>
        <trkpt lat="28.489507" lon="105.003115"><ele>864.7459</ele><time>2026-06-18T23:39:31.000Z</time></trkpt>
        <trkpt lat="28.48953" lon="105.003114"><ele>864.0407</ele><time>2026-06-18T23:39:33.000Z</time></trkpt>
        <trkpt lat="28.489552" lon="105.003108"><ele>863.4503</ele><time>2026-06-18T23:39:35.000Z</time></trkpt>
        <trkpt lat="28.489579" lon="105.003097"><ele>862.91956</ele><time>2026-06-18T23:39:37.000Z</time></trkpt>
        <trkpt lat="28.489606" lon="105.003083"><ele>862.47186</ele><time>2026-06-18T23:39:39.000Z</time></trkpt>
        <trkpt lat="28.489631" lon="105.003067"><ele>862.3036</ele><time>2026-06-18T23:39:41.000Z</time></trkpt>
        <trkpt lat="28.489654" lon="105.003056"><ele>862.0332</ele><time>2026-06-18T23:39:43.000Z</time></trkpt>
        <trkpt lat="28.48968" lon="105.003046"><ele>861.2795</ele><time>2026-06-18T23:39:45.000Z</time></trkpt>
        <trkpt lat="28.489706" lon="105.003038"><ele>860.5048</ele><time>2026-06-18T23:39:47.000Z</time></trkpt>
        <trkpt lat="28.48973" lon="105.003034"><ele>860.0149</ele><time>2026-06-18T23:39:49.000Z</time></trkpt>
        <trkpt lat="28.48975" lon="105.003037"><ele>859.7825</ele><time>2026-06-18T23:39:51.000Z</time></trkpt>
        <trkpt lat="28.489767" lon="105.003046"><ele>859.6977</ele><time>2026-06-18T23:39:53.000Z</time></trkpt>
        <trkpt lat="28.489785" lon="105.003057"><ele>859.5405</ele><time>2026-06-18T23:39:55.000Z</time></trkpt>
        <trkpt lat="28.489801" lon="105.003071"><ele>859.20715</ele><time>2026-06-18T23:39:57.000Z</time></trkpt>
        <trkpt lat="28.489819" lon="105.003086"><ele>858.9242</ele><time>2026-06-18T23:39:59.000Z</time></trkpt>
        <trkpt lat="28.489837" lon="105.003105"><ele>858.78815</ele><time>2026-06-18T23:40:01.000Z</time></trkpt>
        <trkpt lat="28.489856" lon="105.003122"><ele>858.6192</ele><time>2026-06-18T23:40:03.000Z</time></trkpt>
        <trkpt lat="28.489878" lon="105.003139"><ele>858.4819</ele><time>2026-06-18T23:40:05.000Z</time></trkpt>
        <trkpt lat="28.489897" lon="105.00316"><ele>858.33026</ele><time>2026-06-18T23:40:07.000Z</time></trkpt>
        <trkpt lat="28.489913" lon="105.003182"><ele>858.1196</ele><time>2026-06-18T23:40:09.000Z</time></trkpt>
        <trkpt lat="28.48992" lon="105.003207"><ele>857.8988</ele><time>2026-06-18T23:40:11.000Z</time></trkpt>
        <trkpt lat="28.489924" lon="105.003235"><ele>857.6563</ele><time>2026-06-18T23:40:13.000Z</time></trkpt>
        <trkpt lat="28.489925" lon="105.003263"><ele>857.492</ele><time>2026-06-18T23:40:15.000Z</time></trkpt>
        <trkpt lat="28.489926" lon="105.003296"><ele>857.41016</ele><time>2026-06-18T23:40:17.000Z</time></trkpt>
        <trkpt lat="28.489925" lon="105.003324"><ele>857.20807</ele><time>2026-06-18T23:40:19.000Z</time></trkpt>
        <trkpt lat="28.489921" lon="105.003349"><ele>856.8252</ele><time>2026-06-18T23:40:21.000Z</time></trkpt>
        <trkpt lat="28.489914" lon="105.003373"><ele>856.4197</ele><time>2026-06-18T23:40:23.000Z</time></trkpt>
        <trkpt lat="28.489902" lon="105.003391"><ele>856.2335</ele><time>2026-06-18T23:40:25.000Z</time></trkpt>
        <trkpt lat="28.489884" lon="105.003405"><ele>856.14996</ele><time>2026-06-18T23:40:27.000Z</time></trkpt>
        <trkpt lat="28.489865" lon="105.003421"><ele>856.0012</ele><time>2026-06-18T23:40:29.000Z</time></trkpt>
        <trkpt lat="28.489848" lon="105.003438"><ele>855.8726</ele><time>2026-06-18T23:40:31.000Z</time></trkpt>
        <trkpt lat="28.489832" lon="105.003454"><ele>855.5721</ele><time>2026-06-18T23:40:33.000Z</time></trkpt>
        <trkpt lat="28.489813" lon="105.003474"><ele>855.24023</ele><time>2026-06-18T23:40:35.000Z</time></trkpt>
        <trkpt lat="28.489788" lon="105.003501"><ele>855.1533</ele><time>2026-06-18T23:40:37.000Z</time></trkpt>
        <trkpt lat="28.489769" lon="105.003525"><ele>855.0895</ele><time>2026-06-18T23:40:39.000Z</time></trkpt>
        <trkpt lat="28.489755" lon="105.00354"><ele>854.95874</ele><time>2026-06-18T23:40:41.000Z</time></trkpt>
        <trkpt lat="28.489738" lon="105.00356"><ele>854.6749</ele><time>2026-06-18T23:40:43.000Z</time></trkpt>
        <trkpt lat="28.489721" lon="105.003584"><ele>854.286</ele><time>2026-06-18T23:40:45.000Z</time></trkpt>
        <trkpt lat="28.489705" lon="105.003615"><ele>854.2287</ele><time>2026-06-18T23:40:47.000Z</time></trkpt>
        <trkpt lat="28.48969" lon="105.003654"><ele>854.2287</ele><time>2026-06-18T23:40:49.000Z</time></trkpt>
        <trkpt lat="28.489683" lon="105.003687"><ele>854.2041</ele><time>2026-06-18T23:40:51.000Z</time></trkpt>
        <trkpt lat="28.48968" lon="105.00372"><ele>854.2041</ele><time>2026-06-18T23:40:53.000Z</time></trkpt>
        <trkpt lat="28.489679" lon="105.003751"><ele>854.2041</ele><time>2026-06-18T23:40:55.000Z</time></trkpt>
        <trkpt lat="28.48968" lon="105.003776"><ele>854.3338</ele><time>2026-06-18T23:40:57.000Z</time></trkpt>
        <trkpt lat="28.489686" lon="105.003805"><ele>854.3338</ele><time>2026-06-18T23:40:59.000Z</time></trkpt>
        <trkpt lat="28.489696" lon="105.003832"><ele>854.3338</ele><time>2026-06-18T23:41:01.000Z</time></trkpt>
        <trkpt lat="28.489711" lon="105.003857"><ele>854.35876</ele><time>2026-06-18T23:41:03.000Z</time></trkpt>
        <trkpt lat="28.489729" lon="105.003881"><ele>854.3739</ele><time>2026-06-18T23:41:05.000Z</time></trkpt>
        <trkpt lat="28.489748" lon="105.003898"><ele>854.4049</ele><time>2026-06-18T23:41:07.000Z</time></trkpt>
        <trkpt lat="28.489771" lon="105.003915"><ele>854.3739</ele><time>2026-06-18T23:41:09.000Z</time></trkpt>
        <trkpt lat="28.489788" lon="105.003933"><ele>854.3739</ele><time>2026-06-18T23:41:11.000Z</time></trkpt>
        <trkpt lat="28.489797" lon="105.00395"><ele>854.35504</ele><time>2026-06-18T23:41:13.000Z</time></trkpt>
        <trkpt lat="28.489804" lon="105.003969"><ele>854.22424</ele><time>2026-06-18T23:41:15.000Z</time></trkpt>
        <trkpt lat="28.489812" lon="105.003989"><ele>854.12067</ele><time>2026-06-18T23:41:17.000Z</time></trkpt>
        <trkpt lat="28.48982" lon="105.00401"><ele>853.9618</ele><time>2026-06-18T23:41:19.000Z</time></trkpt>
        <trkpt lat="28.489828" lon="105.004035"><ele>853.7814</ele><time>2026-06-18T23:41:21.000Z</time></trkpt>
        <trkpt lat="28.489837" lon="105.004059"><ele>853.7352</ele><time>2026-06-18T23:41:23.000Z</time></trkpt>
        <trkpt lat="28.48984" lon="105.004084"><ele>853.45636</ele><time>2026-06-18T23:41:25.000Z</time></trkpt>
        <trkpt lat="28.489839" lon="105.004108"><ele>852.81104</ele><time>2026-06-18T23:41:27.000Z</time></trkpt>
        <trkpt lat="28.489834" lon="105.004135"><ele>852.332</ele><time>2026-06-18T23:41:29.000Z</time></trkpt>
        <trkpt lat="28.489826" lon="105.004164"><ele>852.208</ele><time>2026-06-18T23:41:31.000Z</time></trkpt>
        <trkpt lat="28.489818" lon="105.004193"><ele>852.1623</ele><time>2026-06-18T23:41:33.000Z</time></trkpt>
        <trkpt lat="28.48981" lon="105.004224"><ele>851.97766</ele><time>2026-06-18T23:41:35.000Z</time></trkpt>
        <trkpt lat="28.489803" lon="105.004255"><ele>851.76776</ele><time>2026-06-18T23:41:37.000Z</time></trkpt>
        <trkpt lat="28.489797" lon="105.004286"><ele>851.76776</ele><time>2026-06-18T23:41:39.000Z</time></trkpt>
        <trkpt lat="28.489792" lon="105.004316"><ele>851.76776</ele><time>2026-06-18T23:41:41.000Z</time></trkpt>
        <trkpt lat="28.489789" lon="105.004347"><ele>851.76776</ele><time>2026-06-18T23:41:43.000Z</time></trkpt>
        <trkpt lat="28.489786" lon="105.00438"><ele>851.76776</ele><time>2026-06-18T23:41:45.000Z</time></trkpt>
        <trkpt lat="28.489787" lon="105.004414"><ele>851.82385</ele><time>2026-06-18T23:41:47.000Z</time></trkpt>
        <trkpt lat="28.489791" lon="105.004439"><ele>852.2958</ele><time>2026-06-18T23:41:49.000Z</time></trkpt>
        <trkpt lat="28.4898" lon="105.004461"><ele>852.8682</ele><time>2026-06-18T23:41:51.000Z</time></trkpt>
        <trkpt lat="28.489808" lon="105.004485"><ele>852.8682</ele><time>2026-06-18T23:41:53.000Z</time></trkpt>
        <trkpt lat="28.489816" lon="105.004505"><ele>852.8682</ele><time>2026-06-18T23:41:55.000Z</time></trkpt>
        <trkpt lat="28.489821" lon="105.004524"><ele>852.8682</ele><time>2026-06-18T23:41:57.000Z</time></trkpt>
        <trkpt lat="28.489823" lon="105.004552"><ele>852.8682</ele><time>2026-06-18T23:41:59.000Z</time></trkpt>
        <trkpt lat="28.489823" lon="105.004576"><ele>852.56946</ele><time>2026-06-18T23:42:01.000Z</time></trkpt>
        <trkpt lat="28.489821" lon="105.004594"><ele>851.6472</ele><time>2026-06-18T23:42:03.000Z</time></trkpt>
        <trkpt lat="28.489814" lon="105.004624"><ele>850.6864</ele><time>2026-06-18T23:42:05.000Z</time></trkpt>
        <trkpt lat="28.489803" lon="105.004659"><ele>849.79486</ele><time>2026-06-18T23:42:07.000Z</time></trkpt>
        <trkpt lat="28.489795" lon="105.004687"><ele>849.44714</ele><time>2026-06-18T23:42:09.000Z</time></trkpt>
        <trkpt lat="28.489788" lon="105.004708"><ele>849.44714</ele><time>2026-06-18T23:42:11.000Z</time></trkpt>
        <trkpt lat="28.489784" lon="105.004729"><ele>849.41644</ele><time>2026-06-18T23:42:13.000Z</time></trkpt>
        <trkpt lat="28.489783" lon="105.004749"><ele>849.40424</ele><time>2026-06-18T23:42:15.000Z</time></trkpt>
        <trkpt lat="28.489783" lon="105.004769"><ele>849.40424</ele><time>2026-06-18T23:42:17.000Z</time></trkpt>
        <trkpt lat="28.489793" lon="105.004805"><ele>849.4111</ele><time>2026-06-18T23:42:19.000Z</time></trkpt>
        <trkpt lat="28.489809" lon="105.004836"><ele>849.4111</ele><time>2026-06-18T23:42:21.000Z</time></trkpt>
        <trkpt lat="28.489829" lon="105.00486"><ele>849.4111</ele><time>2026-06-18T23:42:23.000Z</time></trkpt>
        <trkpt lat="28.489853" lon="105.004881"><ele>849.4111</ele><time>2026-06-18T23:42:25.000Z</time></trkpt>
        <trkpt lat="28.48988" lon="105.004899"><ele>849.3364</ele><time>2026-06-18T23:42:27.000Z</time></trkpt>
        <trkpt lat="28.489908" lon="105.004915"><ele>849.2395</ele><time>2026-06-18T23:42:29.000Z</time></trkpt>
        <trkpt lat="28.489935" lon="105.004931"><ele>848.9588</ele><time>2026-06-18T23:42:31.000Z</time></trkpt>
        <trkpt lat="28.489953" lon="105.004942"><ele>848.53467</ele><time>2026-06-18T23:42:33.000Z</time></trkpt>
        <trkpt lat="28.489965" lon="105.00495"><ele>848.1987</ele><time>2026-06-18T23:42:35.000Z</time></trkpt>
        <trkpt lat="28.489987" lon="105.004963"><ele>847.9014</ele><time>2026-06-18T23:42:37.000Z</time></trkpt>
        <trkpt lat="28.490009" lon="105.004975"><ele>847.63776</ele><time>2026-06-18T23:42:39.000Z</time></trkpt>
        <trkpt lat="28.490029" lon="105.00499"><ele>847.37146</ele><time>2026-06-18T23:42:41.000Z</time></trkpt>
        <trkpt lat="28.490042" lon="105.005001"><ele>847.0481</ele><time>2026-06-18T23:42:43.000Z</time></trkpt>
        <trkpt lat="28.490056" lon="105.005015"><ele>846.8038</ele><time>2026-06-18T23:42:45.000Z</time></trkpt>
        <trkpt lat="28.490068" lon="105.005029"><ele>846.79156</ele><time>2026-06-18T23:42:47.000Z</time></trkpt>
        <trkpt lat="28.49008" lon="105.005046"><ele>846.7668</ele><time>2026-06-18T23:42:49.000Z</time></trkpt>
        <trkpt lat="28.490092" lon="105.005065"><ele>846.70514</ele><time>2026-06-18T23:42:51.000Z</time></trkpt>
        <trkpt lat="28.490104" lon="105.005085"><ele>846.6558</ele><time>2026-06-18T23:42:53.000Z</time></trkpt>
        <trkpt lat="28.490114" lon="105.005106"><ele>846.60675</ele><time>2026-06-18T23:42:55.000Z</time></trkpt>
        <trkpt lat="28.490126" lon="105.005128"><ele>846.4777</ele><time>2026-06-18T23:42:57.000Z</time></trkpt>
        <trkpt lat="28.490139" lon="105.005151"><ele>846.38904</ele><time>2026-06-18T23:42:59.000Z</time></trkpt>
        <trkpt lat="28.490152" lon="105.005173"><ele>846.30786</ele><time>2026-06-18T23:43:01.000Z</time></trkpt>
        <trkpt lat="28.490169" lon="105.005198"><ele>846.05225</ele><time>2026-06-18T23:43:03.000Z</time></trkpt>
        <trkpt lat="28.490185" lon="105.005222"><ele>845.6297</ele><time>2026-06-18T23:43:05.000Z</time></trkpt>
        <trkpt lat="28.4902" lon="105.005245"><ele>845.22064</ele><time>2026-06-18T23:43:07.000Z</time></trkpt>
        <trkpt lat="28.490218" lon="105.005265"><ele>844.787</ele><time>2026-06-18T23:43:09.000Z</time></trkpt>
        <trkpt lat="28.490237" lon="105.005285"><ele>844.31104</ele><time>2026-06-18T23:43:11.000Z</time></trkpt>
        <trkpt lat="28.490256" lon="105.005305"><ele>843.9472</ele><time>2026-06-18T23:43:13.000Z</time></trkpt>
        <trkpt lat="28.490275" lon="105.005324"><ele>843.6418</ele><time>2026-06-18T23:43:15.000Z</time></trkpt>
        <trkpt lat="28.490295" lon="105.005341"><ele>843.4048</ele><time>2026-06-18T23:43:17.000Z</time></trkpt>
        <trkpt lat="28.490317" lon="105.005355"><ele>843.2</ele><time>2026-06-18T23:43:19.000Z</time></trkpt>
        <trkpt lat="28.490338" lon="105.005364"><ele>843.0747</ele><time>2026-06-18T23:43:21.000Z</time></trkpt>
        <trkpt lat="28.490354" lon="105.00537"><ele>843.0116</ele><time>2026-06-18T23:43:23.000Z</time></trkpt>
        <trkpt lat="28.490375" lon="105.005372"><ele>842.811</ele><time>2026-06-18T23:43:25.000Z</time></trkpt>
        <trkpt lat="28.490392" lon="105.005374"><ele>842.34216</ele><time>2026-06-18T23:43:27.000Z</time></trkpt>
        <trkpt lat="28.490404" lon="105.005379"><ele>841.6096</ele><time>2026-06-18T23:43:29.000Z</time></trkpt>
        <trkpt lat="28.490411" lon="105.005384"><ele>840.9158</ele><time>2026-06-18T23:43:31.000Z</time></trkpt>
        <trkpt lat="28.490423" lon="105.005392"><ele>840.5262</ele><time>2026-06-18T23:43:33.000Z</time></trkpt>
        <trkpt lat="28.490431" lon="105.0054"><ele>840.4164</ele><time>2026-06-18T23:43:35.000Z</time></trkpt>
        <trkpt lat="28.490436" lon="105.005403"><ele>840.4164</ele><time>2026-06-18T23:43:37.000Z</time></trkpt>
        <trkpt lat="28.490504" lon="105.005439"><ele>840.28644</ele><time>2026-06-18T23:43:54.000Z</time></trkpt>
        <trkpt lat="28.490504" lon="105.005439"><ele>840.047</ele><time>2026-06-18T23:43:56.000Z</time></trkpt>
        <trkpt lat="28.490509" lon="105.005439"><ele>839.96265</ele><time>2026-06-18T23:43:58.000Z</time></trkpt>
        <trkpt lat="28.490565" lon="105.00543"><ele>839.96265</ele><time>2026-06-18T23:44:02.000Z</time></trkpt>
        <trkpt lat="28.490689" lon="105.00541"><ele>839.96265</ele><time>2026-06-18T23:44:08.000Z</time></trkpt>
        <trkpt lat="28.490689" lon="105.00541"><ele>840.0263</ele><time>2026-06-18T23:44:10.000Z</time></trkpt>
        <trkpt lat="28.490691" lon="105.005407"><ele>840.23737</ele><time>2026-06-18T23:44:12.000Z</time></trkpt>
        <trkpt lat="28.490724" lon="105.005362"><ele>840.46014</ele><time>2026-06-18T23:44:16.000Z</time></trkpt>
        <trkpt lat="28.490742" lon="105.005332"><ele>840.3689</ele><time>2026-06-18T23:44:18.000Z</time></trkpt>
        <trkpt lat="28.490759" lon="105.0053"><ele>840.1461</ele><time>2026-06-18T23:44:20.000Z</time></trkpt>
        <trkpt lat="28.490778" lon="105.005277"><ele>840.1461</ele><time>2026-06-18T23:44:22.000Z</time></trkpt>
        <trkpt lat="28.490795" lon="105.005251"><ele>840.1461</ele><time>2026-06-18T23:44:24.000Z</time></trkpt>
        <trkpt lat="28.490804" lon="105.00523"><ele>840.1461</ele><time>2026-06-18T23:44:26.000Z</time></trkpt>
        <trkpt lat="28.490813" lon="105.005208"><ele>839.9642</ele><time>2026-06-18T23:44:28.000Z</time></trkpt>
        <trkpt lat="28.490818" lon="105.005184"><ele>839.6931</ele><time>2026-06-18T23:44:30.000Z</time></trkpt>
        <trkpt lat="28.490821" lon="105.00516"><ele>839.5213</ele><time>2026-06-18T23:44:32.000Z</time></trkpt>
        <trkpt lat="28.490827" lon="105.005136"><ele>839.33795</ele><time>2026-06-18T23:44:34.000Z</time></trkpt>
        <trkpt lat="28.490834" lon="105.005109"><ele>839.2786</ele><time>2026-06-18T23:44:36.000Z</time></trkpt>
        <trkpt lat="28.490841" lon="105.005084"><ele>839.2091</ele><time>2026-06-18T23:44:38.000Z</time></trkpt>
        <trkpt lat="28.490846" lon="105.00506"><ele>838.88806</ele><time>2026-06-18T23:44:40.000Z</time></trkpt>
        <trkpt lat="28.490845" lon="105.005038"><ele>838.50977</ele><time>2026-06-18T23:44:42.000Z</time></trkpt>
        <trkpt lat="28.490839" lon="105.005022"><ele>838.38184</ele><time>2026-06-18T23:44:44.000Z</time></trkpt>
        <trkpt lat="28.49083" lon="105.005001"><ele>838.2061</ele><time>2026-06-18T23:44:46.000Z</time></trkpt>
        <trkpt lat="28.490816" lon="105.004974"><ele>837.9901</ele><time>2026-06-18T23:44:48.000Z</time></trkpt>
        <trkpt lat="28.4908" lon="105.004947"><ele>837.8313</ele><time>2026-06-18T23:44:50.000Z</time></trkpt>
        <trkpt lat="28.490783" lon="105.004918"><ele>837.7477</ele><time>2026-06-18T23:44:52.000Z</time></trkpt>
        <trkpt lat="28.490767" lon="105.00489"><ele>837.5865</ele><time>2026-06-18T23:44:54.000Z</time></trkpt>
        <trkpt lat="28.490752" lon="105.004865"><ele>837.27924</ele><time>2026-06-18T23:44:56.000Z</time></trkpt>
        <trkpt lat="28.490735" lon="105.004838"><ele>836.9715</ele><time>2026-06-18T23:44:58.000Z</time></trkpt>
        <trkpt lat="28.490719" lon="105.004814"><ele>836.6281</ele><time>2026-06-18T23:45:00.000Z</time></trkpt>
        <trkpt lat="28.490703" lon="105.004792"><ele>836.22986</ele><time>2026-06-18T23:45:02.000Z</time></trkpt>
        <trkpt lat="28.490689" lon="105.004773"><ele>835.91925</ele><time>2026-06-18T23:45:04.000Z</time></trkpt>
        <trkpt lat="28.490673" lon="105.004751"><ele>835.8231</ele><time>2026-06-18T23:45:06.000Z</time></trkpt>
        <trkpt lat="28.490656" lon="105.004725"><ele>835.7881</ele><time>2026-06-18T23:45:08.000Z</time></trkpt>
        <trkpt lat="28.490639" lon="105.004694"><ele>835.6478</ele><time>2026-06-18T23:45:10.000Z</time></trkpt>
        <trkpt lat="28.490622" lon="105.004659"><ele>835.45844</ele><time>2026-06-18T23:45:12.000Z</time></trkpt>
        <trkpt lat="28.490605" lon="105.004625"><ele>835.2201</ele><time>2026-06-18T23:45:14.000Z</time></trkpt>
        <trkpt lat="28.490592" lon="105.004599"><ele>834.97064</ele><time>2026-06-18T23:45:16.000Z</time></trkpt>
        <trkpt lat="28.490582" lon="105.004577"><ele>834.80347</ele><time>2026-06-18T23:45:18.000Z</time></trkpt>
        <trkpt lat="28.490572" lon="105.004554"><ele>834.1918</ele><time>2026-06-18T23:45:20.000Z</time></trkpt>
        <trkpt lat="28.490563" lon="105.004529"><ele>833.91284</ele><time>2026-06-18T23:45:22.000Z</time></trkpt>
        <trkpt lat="28.490556" lon="105.004508"><ele>833.87274</ele><time>2026-06-18T23:45:24.000Z</time></trkpt>
        <trkpt lat="28.490546" lon="105.004484"><ele>833.73395</ele><time>2026-06-18T23:45:26.000Z</time></trkpt>
        <trkpt lat="28.490538" lon="105.00446"><ele>833.4948</ele><time>2026-06-18T23:45:28.000Z</time></trkpt>
        <trkpt lat="28.49053" lon="105.004436"><ele>833.27686</ele><time>2026-06-18T23:45:30.000Z</time></trkpt>
        <trkpt lat="28.490522" lon="105.004414"><ele>833.27686</ele><time>2026-06-18T23:45:32.000Z</time></trkpt>
        <trkpt lat="28.490515" lon="105.004398"><ele>833.54395</ele><time>2026-06-18T23:45:34.000Z</time></trkpt>
        <trkpt lat="28.490507" lon="105.004388"><ele>833.783</ele><time>2026-06-18T23:45:36.000Z</time></trkpt>
        <trkpt lat="28.490498" lon="105.004375"><ele>833.783</ele><time>2026-06-18T23:45:38.000Z</time></trkpt>
        <trkpt lat="28.490486" lon="105.004355"><ele>833.783</ele><time>2026-06-18T23:45:40.000Z</time></trkpt>
        <trkpt lat="28.490474" lon="105.004332"><ele>833.6163</ele><time>2026-06-18T23:45:42.000Z</time></trkpt>
        <trkpt lat="28.490464" lon="105.00431"><ele>833.3986</ele><time>2026-06-18T23:45:44.000Z</time></trkpt>
        <trkpt lat="28.490454" lon="105.004287"><ele>833.3986</ele><time>2026-06-18T23:45:46.000Z</time></trkpt>
        <trkpt lat="28.490443" lon="105.004256"><ele>833.4877</ele><time>2026-06-18T23:45:48.000Z</time></trkpt>
        <trkpt lat="28.490431" lon="105.004217"><ele>833.5192</ele><time>2026-06-18T23:45:50.000Z</time></trkpt>
        <trkpt lat="28.490424" lon="105.004186"><ele>833.4877</ele><time>2026-06-18T23:45:52.000Z</time></trkpt>
        <trkpt lat="28.490424" lon="105.004152"><ele>833.3494</ele><time>2026-06-18T23:45:54.000Z</time></trkpt>
        <trkpt lat="28.490425" lon="105.004106"><ele>833.17993</ele><time>2026-06-18T23:45:56.000Z</time></trkpt>
        <trkpt lat="28.490429" lon="105.004064"><ele>833.0704</ele><time>2026-06-18T23:45:58.000Z</time></trkpt>
        <trkpt lat="28.490432" lon="105.004038"><ele>833.03345</ele><time>2026-06-18T23:46:00.000Z</time></trkpt>
        <trkpt lat="28.490436" lon="105.004021"><ele>833.17993</ele><time>2026-06-18T23:46:02.000Z</time></trkpt>
        <trkpt lat="28.490442" lon="105.003995"><ele>833.145</ele><time>2026-06-18T23:46:04.000Z</time></trkpt>
        <trkpt lat="28.49045" lon="105.003973"><ele>832.9986</ele><time>2026-06-18T23:46:06.000Z</time></trkpt>
        <trkpt lat="28.490455" lon="105.003949"><ele>832.9342</ele><time>2026-06-18T23:46:08.000Z</time></trkpt>
        <trkpt lat="28.490455" lon="105.003925"><ele>832.85925</ele><time>2026-06-18T23:46:10.000Z</time></trkpt>
        <trkpt lat="28.490453" lon="105.003901"><ele>832.7457</ele><time>2026-06-18T23:46:12.000Z</time></trkpt>
        <trkpt lat="28.490451" lon="105.003878"><ele>832.7035</ele><time>2026-06-18T23:46:14.000Z</time></trkpt>
        <trkpt lat="28.490452" lon="105.003853"><ele>832.5717</ele><time>2026-06-18T23:46:16.000Z</time></trkpt>
        <trkpt lat="28.490452" lon="105.003823"><ele>832.2289</ele><time>2026-06-18T23:46:18.000Z</time></trkpt>
        <trkpt lat="28.490453" lon="105.00379"><ele>831.8438</ele><time>2026-06-18T23:46:20.000Z</time></trkpt>
        <trkpt lat="28.490455" lon="105.003754"><ele>831.57355</ele><time>2026-06-18T23:46:22.000Z</time></trkpt>
        <trkpt lat="28.490453" lon="105.003722"><ele>831.41724</ele><time>2026-06-18T23:46:24.000Z</time></trkpt>
        <trkpt lat="28.490449" lon="105.003695"><ele>831.41724</ele><time>2026-06-18T23:46:26.000Z</time></trkpt>
        <trkpt lat="28.490442" lon="105.003669"><ele>831.41724</ele><time>2026-06-18T23:46:28.000Z</time></trkpt>
        <trkpt lat="28.490436" lon="105.003647"><ele>831.3147</ele><time>2026-06-18T23:46:30.000Z</time></trkpt>
        <trkpt lat="28.490431" lon="105.003626"><ele>831.37427</ele><time>2026-06-18T23:46:32.000Z</time></trkpt>
        <trkpt lat="28.490427" lon="105.003603"><ele>831.33466</ele><time>2026-06-18T23:46:34.000Z</time></trkpt>
        <trkpt lat="28.490422" lon="105.003576"><ele>831.27203</ele><time>2026-06-18T23:46:36.000Z</time></trkpt>
        <trkpt lat="28.490421" lon="105.003549"><ele>831.27203</ele><time>2026-06-18T23:46:38.000Z</time></trkpt>
        <trkpt lat="28.49042" lon="105.003516"><ele>831.30414</ele><time>2026-06-18T23:46:40.000Z</time></trkpt>
        <trkpt lat="28.49042" lon="105.003484"><ele>831.30414</ele><time>2026-06-18T23:46:42.000Z</time></trkpt>
        <trkpt lat="28.490421" lon="105.003451"><ele>831.3011</ele><time>2026-06-18T23:46:44.000Z</time></trkpt>
        <trkpt lat="28.490422" lon="105.003419"><ele>831.2244</ele><time>2026-06-18T23:46:46.000Z</time></trkpt>
        <trkpt lat="28.490424" lon="105.003392"><ele>831.1548</ele><time>2026-06-18T23:46:48.000Z</time></trkpt>
        <trkpt lat="28.490424" lon="105.003363"><ele>831.03424</ele><time>2026-06-18T23:46:50.000Z</time></trkpt>
        <trkpt lat="28.490422" lon="105.003337"><ele>830.912</ele><time>2026-06-18T23:46:52.000Z</time></trkpt>
        <trkpt lat="28.490418" lon="105.003313"><ele>830.7383</ele><time>2026-06-18T23:46:54.000Z</time></trkpt>
        <trkpt lat="28.490415" lon="105.003289"><ele>830.7245</ele><time>2026-06-18T23:46:56.000Z</time></trkpt>
        <trkpt lat="28.490411" lon="105.003261"><ele>830.7245</ele><time>2026-06-18T23:46:58.000Z</time></trkpt>
        <trkpt lat="28.490407" lon="105.00323"><ele>830.7245</ele><time>2026-06-18T23:47:00.000Z</time></trkpt>
        <trkpt lat="28.490401" lon="105.003196"><ele>830.87146</ele><time>2026-06-18T23:47:02.000Z</time></trkpt>
        <trkpt lat="28.490401" lon="105.003164"><ele>830.87146</ele><time>2026-06-18T23:47:04.000Z</time></trkpt>
        <trkpt lat="28.490402" lon="105.003121"><ele>830.88684</ele><time>2026-06-18T23:47:06.000Z</time></trkpt>
        <trkpt lat="28.490401" lon="105.003082"><ele>830.88684</ele><time>2026-06-18T23:47:08.000Z</time></trkpt>
        <trkpt lat="28.490401" lon="105.003048"><ele>830.9053</ele><time>2026-06-18T23:47:10.000Z</time></trkpt>
        <trkpt lat="28.490399" lon="105.003017"><ele>831.0097</ele><time>2026-06-18T23:47:12.000Z</time></trkpt>
        <trkpt lat="28.490399" lon="105.002989"><ele>831.05634</ele><time>2026-06-18T23:47:14.000Z</time></trkpt>
        <trkpt lat="28.490402" lon="105.002961"><ele>831.1532</ele><time>2026-06-18T23:47:16.000Z</time></trkpt>
        <trkpt lat="28.490405" lon="105.002934"><ele>831.27295</ele><time>2026-06-18T23:47:18.000Z</time></trkpt>
        <trkpt lat="28.490409" lon="105.002909"><ele>831.3531</ele><time>2026-06-18T23:47:20.000Z</time></trkpt>
        <trkpt lat="28.490416" lon="105.002888"><ele>831.3531</ele><time>2026-06-18T23:47:22.000Z</time></trkpt>
        <trkpt lat="28.490427" lon="105.002868"><ele>831.3531</ele><time>2026-06-18T23:47:24.000Z</time></trkpt>
        <trkpt lat="28.490443" lon="105.002846"><ele>831.28925</ele><time>2026-06-18T23:47:26.000Z</time></trkpt>
        <trkpt lat="28.490461" lon="105.002822"><ele>831.13184</ele><time>2026-06-18T23:47:28.000Z</time></trkpt>
        <trkpt lat="28.490475" lon="105.002798"><ele>831.035</ele><time>2026-06-18T23:47:30.000Z</time></trkpt>
        <trkpt lat="28.49049" lon="105.002776"><ele>830.8578</ele><time>2026-06-18T23:47:32.000Z</time></trkpt>
        <trkpt lat="28.490507" lon="105.002752"><ele>830.6308</ele><time>2026-06-18T23:47:34.000Z</time></trkpt>
        <trkpt lat="28.490524" lon="105.002733"><ele>830.5533</ele><time>2026-06-18T23:47:36.000Z</time></trkpt>
        <trkpt lat="28.49054" lon="105.002718"><ele>830.3875</ele><time>2026-06-18T23:47:38.000Z</time></trkpt>
        <trkpt lat="28.490552" lon="105.002704"><ele>829.9555</ele><time>2026-06-18T23:47:40.000Z</time></trkpt>
        <trkpt lat="28.490567" lon="105.002684"><ele>829.4222</ele><time>2026-06-18T23:47:42.000Z</time></trkpt>
        <trkpt lat="28.490582" lon="105.002661"><ele>828.88776</ele><time>2026-06-18T23:47:44.000Z</time></trkpt>
        <trkpt lat="28.490601" lon="105.002635"><ele>828.7376</ele><time>2026-06-18T23:47:46.000Z</time></trkpt>
        <trkpt lat="28.490621" lon="105.00261"><ele>828.7376</ele><time>2026-06-18T23:47:48.000Z</time></trkpt>
        <trkpt lat="28.490636" lon="105.002588"><ele>828.7122</ele><time>2026-06-18T23:47:50.000Z</time></trkpt>
        <trkpt lat="28.490651" lon="105.002563"><ele>828.6139</ele><time>2026-06-18T23:47:52.000Z</time></trkpt>
        <trkpt lat="28.490663" lon="105.002536"><ele>828.5442</ele><time>2026-06-18T23:47:54.000Z</time></trkpt>
        <trkpt lat="28.490666" lon="105.002512"><ele>828.4703</ele><time>2026-06-18T23:47:56.000Z</time></trkpt>
        <trkpt lat="28.490666" lon="105.002488"><ele>828.4703</ele><time>2026-06-18T23:47:58.000Z</time></trkpt>
        <trkpt lat="28.490665" lon="105.002459"><ele>828.4703</ele><time>2026-06-18T23:48:00.000Z</time></trkpt>
        <trkpt lat="28.49066" lon="105.002426"><ele>828.50934</ele><time>2026-06-18T23:48:02.000Z</time></trkpt>
        <trkpt lat="28.490652" lon="105.002389"><ele>828.57904</ele><time>2026-06-18T23:48:04.000Z</time></trkpt>
        <trkpt lat="28.490641" lon="105.002358"><ele>828.57904</ele><time>2026-06-18T23:48:06.000Z</time></trkpt>
        <trkpt lat="28.49063" lon="105.002331"><ele>828.57904</ele><time>2026-06-18T23:48:08.000Z</time></trkpt>
        <trkpt lat="28.49062" lon="105.002307"><ele>828.57904</ele><time>2026-06-18T23:48:10.000Z</time></trkpt>
        <trkpt lat="28.490609" lon="105.002291"><ele>828.7578</ele><time>2026-06-18T23:48:12.000Z</time></trkpt>
        <trkpt lat="28.4906" lon="105.002276"><ele>828.7578</ele><time>2026-06-18T23:48:14.000Z</time></trkpt>
        <trkpt lat="28.490592" lon="105.002266"><ele>828.7578</ele><time>2026-06-18T23:48:16.000Z</time></trkpt>
        <trkpt lat="28.490584" lon="105.002252"><ele>828.7578</ele><time>2026-06-18T23:48:18.000Z</time></trkpt>
        <trkpt lat="28.490572" lon="105.002235"><ele>828.7578</ele><time>2026-06-18T23:48:20.000Z</time></trkpt>
        <trkpt lat="28.490558" lon="105.00221"><ele>828.58136</ele><time>2026-06-18T23:48:22.000Z</time></trkpt>
        <trkpt lat="28.490548" lon="105.002187"><ele>828.1762</ele><time>2026-06-18T23:48:24.000Z</time></trkpt>
        <trkpt lat="28.490535" lon="105.002159"><ele>827.88354</ele><time>2026-06-18T23:48:26.000Z</time></trkpt>
        <trkpt lat="28.490523" lon="105.002132"><ele>827.5719</ele><time>2026-06-18T23:48:28.000Z</time></trkpt>
        <trkpt lat="28.490511" lon="105.002107"><ele>827.43805</ele><time>2026-06-18T23:48:30.000Z</time></trkpt>
        <trkpt lat="28.490501" lon="105.002083"><ele>827.05304</ele><time>2026-06-18T23:48:32.000Z</time></trkpt>
        <trkpt lat="28.490491" lon="105.002057"><ele>826.72394</ele><time>2026-06-18T23:48:34.000Z</time></trkpt>
        <trkpt lat="28.490483" lon="105.002035"><ele>826.54956</ele><time>2026-06-18T23:48:36.000Z</time></trkpt>
        <trkpt lat="28.490478" lon="105.002016"><ele>826.1805</ele><time>2026-06-18T23:48:38.000Z</time></trkpt>
        <trkpt lat="28.490473" lon="105.002"><ele>825.9358</ele><time>2026-06-18T23:48:40.000Z</time></trkpt>
        <trkpt lat="28.490468" lon="105.001984"><ele>825.8614</ele><time>2026-06-18T23:48:42.000Z</time></trkpt>
        <trkpt lat="28.490461" lon="105.001967"><ele>825.5657</ele><time>2026-06-18T23:48:44.000Z</time></trkpt>
        <trkpt lat="28.490456" lon="105.001944"><ele>824.8654</ele><time>2026-06-18T23:48:46.000Z</time></trkpt>
        <trkpt lat="28.490448" lon="105.001913"><ele>824.36194</ele><time>2026-06-18T23:48:48.000Z</time></trkpt>
        <trkpt lat="28.490439" lon="105.001884"><ele>824.17694</ele><time>2026-06-18T23:48:50.000Z</time></trkpt>
        <trkpt lat="28.490428" lon="105.001868"><ele>823.97906</ele><time>2026-06-18T23:48:52.000Z</time></trkpt>
        <trkpt lat="28.490414" lon="105.001856"><ele>823.77026</ele><time>2026-06-18T23:48:54.000Z</time></trkpt>
        <trkpt lat="28.490396" lon="105.001843"><ele>823.5979</ele><time>2026-06-18T23:48:56.000Z</time></trkpt>
        <trkpt lat="28.490376" lon="105.001831"><ele>823.5139</ele><time>2026-06-18T23:48:58.000Z</time></trkpt>
        <trkpt lat="28.490356" lon="105.001819"><ele>822.9464</ele><time>2026-06-18T23:49:00.000Z</time></trkpt>
        <trkpt lat="28.490338" lon="105.001807"><ele>822.369</ele><time>2026-06-18T23:49:02.000Z</time></trkpt>
        <trkpt lat="28.490314" lon="105.00179"><ele>822.14685</ele><time>2026-06-18T23:49:04.000Z</time></trkpt>
        <trkpt lat="28.4903" lon="105.001781"><ele>821.951</ele><time>2026-06-18T23:49:06.000Z</time></trkpt>
        <trkpt lat="28.490283" lon="105.001772"><ele>821.67004</ele><time>2026-06-18T23:49:08.000Z</time></trkpt>
        <trkpt lat="28.490263" lon="105.00176"><ele>821.67004</ele><time>2026-06-18T23:49:10.000Z</time></trkpt>
        <trkpt lat="28.490246" lon="105.001748"><ele>821.5466</ele><time>2026-06-18T23:49:12.000Z</time></trkpt>
        <trkpt lat="28.49023" lon="105.001735"><ele>821.5466</ele><time>2026-06-18T23:49:14.000Z</time></trkpt>
        <trkpt lat="28.490216" lon="105.001722"><ele>821.5466</ele><time>2026-06-18T23:49:16.000Z</time></trkpt>
        <trkpt lat="28.490193" lon="105.001703"><ele>821.5466</ele><time>2026-06-18T23:49:18.000Z</time></trkpt>
        <trkpt lat="28.490168" lon="105.001687"><ele>821.76404</ele><time>2026-06-18T23:49:20.000Z</time></trkpt>
        <trkpt lat="28.490141" lon="105.001672"><ele>821.92505</ele><time>2026-06-18T23:49:22.000Z</time></trkpt>
        <trkpt lat="28.490121" lon="105.001664"><ele>822.2248</ele><time>2026-06-18T23:49:24.000Z</time></trkpt>
        <trkpt lat="28.490099" lon="105.001658"><ele>822.84326</ele><time>2026-06-18T23:49:26.000Z</time></trkpt>
        <trkpt lat="28.490078" lon="105.001655"><ele>823.23627</ele><time>2026-06-18T23:49:28.000Z</time></trkpt>
        <trkpt lat="28.490052" lon="105.001653"><ele>823.281</ele><time>2026-06-18T23:49:30.000Z</time></trkpt>
        <trkpt lat="28.49002" lon="105.001652"><ele>823.6147</ele><time>2026-06-18T23:49:32.000Z</time></trkpt>
        <trkpt lat="28.48999" lon="105.001649"><ele>823.9804</ele><time>2026-06-18T23:49:34.000Z</time></trkpt>
        <trkpt lat="28.489959" lon="105.001644"><ele>824.1934</ele><time>2026-06-18T23:49:36.000Z</time></trkpt>
        <trkpt lat="28.489928" lon="105.001638"><ele>824.42505</ele><time>2026-06-18T23:49:38.000Z</time></trkpt>
        <trkpt lat="28.4899" lon="105.00163"><ele>824.52673</ele><time>2026-06-18T23:49:40.000Z</time></trkpt>
        <trkpt lat="28.489872" lon="105.00162"><ele>824.6686</ele><time>2026-06-18T23:49:42.000Z</time></trkpt>
        <trkpt lat="28.489843" lon="105.00162"><ele>824.83325</ele><time>2026-06-18T23:49:44.000Z</time></trkpt>
        <trkpt lat="28.489822" lon="105.001626"><ele>825.13116</ele><time>2026-06-18T23:49:46.000Z</time></trkpt>
        <trkpt lat="28.489806" lon="105.001626"><ele>825.925</ele><time>2026-06-18T23:49:48.000Z</time></trkpt>
        <trkpt lat="28.489778" lon="105.001628"><ele>826.5163</ele><time>2026-06-18T23:49:50.000Z</time></trkpt>
        <trkpt lat="28.489757" lon="105.001626"><ele>826.95703</ele><time>2026-06-18T23:49:52.000Z</time></trkpt>
        <trkpt lat="28.489738" lon="105.001621"><ele>827.76776</ele><time>2026-06-18T23:49:54.000Z</time></trkpt>
        <trkpt lat="28.489716" lon="105.001611"><ele>828.3175</ele><time>2026-06-18T23:49:56.000Z</time></trkpt>
        <trkpt lat="28.489689" lon="105.001599"><ele>828.9745</ele><time>2026-06-18T23:49:58.000Z</time></trkpt>
        <trkpt lat="28.489659" lon="105.001583"><ele>829.97906</ele><time>2026-06-18T23:50:00.000Z</time></trkpt>
        <trkpt lat="28.489629" lon="105.001569"><ele>830.57336</ele><time>2026-06-18T23:50:02.000Z</time></trkpt>
        <trkpt lat="28.489602" lon="105.001564"><ele>831.0637</ele><time>2026-06-18T23:50:04.000Z</time></trkpt>
        <trkpt lat="28.489586" lon="105.00156"><ele>832.4159</ele><time>2026-06-18T23:50:06.000Z</time></trkpt>
        <trkpt lat="28.489568" lon="105.001558"><ele>833.7168</ele><time>2026-06-18T23:50:08.000Z</time></trkpt>
        <trkpt lat="28.489554" lon="105.001557"><ele>834.4528</ele><time>2026-06-18T23:50:10.000Z</time></trkpt>
        <trkpt lat="28.489541" lon="105.001558"><ele>835.51996</ele><time>2026-06-18T23:50:12.000Z</time></trkpt>
        <trkpt lat="28.48953" lon="105.001554"><ele>836.4848</ele><time>2026-06-18T23:50:14.000Z</time></trkpt>
        <trkpt lat="28.489519" lon="105.001548"><ele>836.9116</ele><time>2026-06-18T23:50:16.000Z</time></trkpt>
        <trkpt lat="28.489505" lon="105.001539"><ele>837.1249</ele><time>2026-06-18T23:50:18.000Z</time></trkpt>
        <trkpt lat="28.489486" lon="105.001526"><ele>837.2135</ele><time>2026-06-18T23:50:20.000Z</time></trkpt>
        <trkpt lat="28.48946" lon="105.001508"><ele>837.23944</ele><time>2026-06-18T23:50:22.000Z</time></trkpt>
        <trkpt lat="28.489432" lon="105.001488"><ele>837.2724</ele><time>2026-06-18T23:50:24.000Z</time></trkpt>
        <trkpt lat="28.489408" lon="105.001467"><ele>837.30853</ele><time>2026-06-18T23:50:26.000Z</time></trkpt>
        <trkpt lat="28.489379" lon="105.00144"><ele>837.3809</ele><time>2026-06-18T23:50:28.000Z</time></trkpt>
        <trkpt lat="28.489351" lon="105.001412"><ele>837.4384</ele><time>2026-06-18T23:50:30.000Z</time></trkpt>
        <trkpt lat="28.48932" lon="105.001382"><ele>837.5952</ele><time>2026-06-18T23:50:32.000Z</time></trkpt>
        <trkpt lat="28.489295" lon="105.001348"><ele>838.46234</ele><time>2026-06-18T23:50:34.000Z</time></trkpt>
        <trkpt lat="28.489278" lon="105.001311"><ele>839.4136</ele><time>2026-06-18T23:50:36.000Z</time></trkpt>
        <trkpt lat="28.489268" lon="105.001268"><ele>839.9916</ele><time>2026-06-18T23:50:38.000Z</time></trkpt>
        <trkpt lat="28.489265" lon="105.001231"><ele>840.68097</ele><time>2026-06-18T23:50:40.000Z</time></trkpt>
        <trkpt lat="28.489267" lon="105.001189"><ele>841.46484</ele><time>2026-06-18T23:50:42.000Z</time></trkpt>
        <trkpt lat="28.489273" lon="105.001156"><ele>842.37085</ele><time>2026-06-18T23:50:44.000Z</time></trkpt>
        <trkpt lat="28.489279" lon="105.001129"><ele>842.8894</ele><time>2026-06-18T23:50:46.000Z</time></trkpt>
        <trkpt lat="28.489286" lon="105.001105"><ele>842.948</ele><time>2026-06-18T23:50:48.000Z</time></trkpt>
        <trkpt lat="28.489295" lon="105.001077"><ele>843.19086</ele><time>2026-06-18T23:50:50.000Z</time></trkpt>
        <trkpt lat="28.489307" lon="105.001047"><ele>843.76843</ele><time>2026-06-18T23:50:52.000Z</time></trkpt>
        <trkpt lat="28.48932" lon="105.001021"><ele>844.22253</ele><time>2026-06-18T23:50:54.000Z</time></trkpt>
        <trkpt lat="28.489335" lon="105.00099"><ele>844.3453</ele><time>2026-06-18T23:50:56.000Z</time></trkpt>
        <trkpt lat="28.48935" lon="105.000966"><ele>844.38434</ele><time>2026-06-18T23:50:58.000Z</time></trkpt>
        <trkpt lat="28.489365" lon="105.000951"><ele>844.38434</ele><time>2026-06-18T23:51:00.000Z</time></trkpt>
        <trkpt lat="28.48938" lon="105.000935"><ele>844.38434</ele><time>2026-06-18T23:51:02.000Z</time></trkpt>
        <trkpt lat="28.489393" lon="105.000923"><ele>844.3453</ele><time>2026-06-18T23:51:04.000Z</time></trkpt>
        <trkpt lat="28.489408" lon="105.000906"><ele>844.24536</ele><time>2026-06-18T23:51:06.000Z</time></trkpt>
        <trkpt lat="28.489424" lon="105.000882"><ele>844.22516</ele><time>2026-06-18T23:51:08.000Z</time></trkpt>
        <trkpt lat="28.489433" lon="105.00086"><ele>843.95197</ele><time>2026-06-18T23:51:10.000Z</time></trkpt>
        <trkpt lat="28.48944" lon="105.000838"><ele>843.5229</ele><time>2026-06-18T23:51:12.000Z</time></trkpt>
        <trkpt lat="28.489449" lon="105.00081"><ele>843.115</ele><time>2026-06-18T23:51:14.000Z</time></trkpt>
        <trkpt lat="28.489458" lon="105.000786"><ele>842.80975</ele><time>2026-06-18T23:51:16.000Z</time></trkpt>
        <trkpt lat="28.489468" lon="105.00077"><ele>842.5266</ele><time>2026-06-18T23:51:18.000Z</time></trkpt>
        <trkpt lat="28.489483" lon="105.00075"><ele>842.27203</ele><time>2026-06-18T23:51:20.000Z</time></trkpt>
        <trkpt lat="28.4895" lon="105.000734"><ele>842.08325</ele><time>2026-06-18T23:51:22.000Z</time></trkpt>
        <trkpt lat="28.489519" lon="105.000717"><ele>841.95654</ele><time>2026-06-18T23:51:24.000Z</time></trkpt>
        <trkpt lat="28.489545" lon="105.000698"><ele>841.52264</ele><time>2026-06-18T23:51:26.000Z</time></trkpt>
        <trkpt lat="28.489567" lon="105.000689"><ele>840.86676</ele><time>2026-06-18T23:51:28.000Z</time></trkpt>
        <trkpt lat="28.48959" lon="105.000682"><ele>840.3637</ele><time>2026-06-18T23:51:30.000Z</time></trkpt>
        <trkpt lat="28.489614" lon="105.000672"><ele>839.98773</ele><time>2026-06-18T23:51:32.000Z</time></trkpt>
        <trkpt lat="28.489629" lon="105.000657"><ele>839.7752</ele><time>2026-06-18T23:51:34.000Z</time></trkpt>
        <trkpt lat="28.489641" lon="105.000645"><ele>839.2115</ele><time>2026-06-18T23:51:36.000Z</time></trkpt>
        <trkpt lat="28.489652" lon="105.000633"><ele>838.5705</ele><time>2026-06-18T23:51:38.000Z</time></trkpt>
        <trkpt lat="28.48966" lon="105.000621"><ele>838.34406</ele><time>2026-06-18T23:51:40.000Z</time></trkpt>
        <trkpt lat="28.489672" lon="105.000601"><ele>837.94183</ele><time>2026-06-18T23:51:42.000Z</time></trkpt>
        <trkpt lat="28.489683" lon="105.00058"><ele>837.5806</ele><time>2026-06-18T23:51:44.000Z</time></trkpt>
        <trkpt lat="28.489691" lon="105.000552"><ele>837.20544</ele><time>2026-06-18T23:51:46.000Z</time></trkpt>
        <trkpt lat="28.489696" lon="105.000528"><ele>836.3931</ele><time>2026-06-18T23:51:48.000Z</time></trkpt>
        <trkpt lat="28.4897" lon="105.000507"><ele>835.6897</ele><time>2026-06-18T23:51:50.000Z</time></trkpt>
        <trkpt lat="28.489706" lon="105.000478"><ele>835.1004</ele><time>2026-06-18T23:51:52.000Z</time></trkpt>
        <trkpt lat="28.489712" lon="105.000452"><ele>834.573</ele><time>2026-06-18T23:51:54.000Z</time></trkpt>
        <trkpt lat="28.489715" lon="105.00042"><ele>834.1768</ele><time>2026-06-18T23:51:56.000Z</time></trkpt>
        <trkpt lat="28.489718" lon="105.000396"><ele>833.62115</ele><time>2026-06-18T23:51:58.000Z</time></trkpt>
        <trkpt lat="28.489724" lon="105.000368"><ele>833.3402</ele><time>2026-06-18T23:52:00.000Z</time></trkpt>
        <trkpt lat="28.489732" lon="105.000347"><ele>833.2685</ele><time>2026-06-18T23:52:02.000Z</time></trkpt>
        <trkpt lat="28.489743" lon="105.000321"><ele>833.11237</ele><time>2026-06-18T23:52:04.000Z</time></trkpt>
        <trkpt lat="28.489754" lon="105.000295"><ele>833.0034</ele><time>2026-06-18T23:52:06.000Z</time></trkpt>
        <trkpt lat="28.489765" lon="105.00027"><ele>832.97327</ele><time>2026-06-18T23:52:08.000Z</time></trkpt>
        <trkpt lat="28.489776" lon="105.000243"><ele>832.96</ele><time>2026-06-18T23:52:10.000Z</time></trkpt>
        <trkpt lat="28.489785" lon="105.000221"><ele>832.96</ele><time>2026-06-18T23:52:12.000Z</time></trkpt>
        <trkpt lat="28.489796" lon="105.000197"><ele>832.96</ele><time>2026-06-18T23:52:14.000Z</time></trkpt>
        <trkpt lat="28.489802" lon="105.000175"><ele>832.96</ele><time>2026-06-18T23:52:16.000Z</time></trkpt>
        <trkpt lat="28.489804" lon="105.000149"><ele>832.9893</ele><time>2026-06-18T23:52:18.000Z</time></trkpt>
        <trkpt lat="28.489803" lon="105.00012"><ele>833.01447</ele><time>2026-06-18T23:52:20.000Z</time></trkpt>
        <trkpt lat="28.489797" lon="105.000091"><ele>833.01447</ele><time>2026-06-18T23:52:22.000Z</time></trkpt>
        <trkpt lat="28.489798" lon="105.000061"><ele>833.0356</ele><time>2026-06-18T23:52:24.000Z</time></trkpt>
        <trkpt lat="28.489801" lon="105.00003"><ele>833.0666</ele><time>2026-06-18T23:52:26.000Z</time></trkpt>
        <trkpt lat="28.489806" lon="105.000007"><ele>833.1227</ele><time>2026-06-18T23:52:28.000Z</time></trkpt>
        <trkpt lat="28.48981" lon="104.99999"><ele>833.1227</ele><time>2026-06-18T23:52:30.000Z</time></trkpt>
        <trkpt lat="28.489814" lon="104.999968"><ele>833.0666</ele><time>2026-06-18T23:52:32.000Z</time></trkpt>
        <trkpt lat="28.489818" lon="104.999949"><ele>833.0516</ele><time>2026-06-18T23:52:34.000Z</time></trkpt>
        <trkpt lat="28.489822" lon="104.999923"><ele>833.0516</ele><time>2026-06-18T23:52:36.000Z</time></trkpt>
        <trkpt lat="28.489825" lon="104.999895"><ele>832.98126</ele><time>2026-06-18T23:52:38.000Z</time></trkpt>
        <trkpt lat="28.489826" lon="104.999866"><ele>832.8747</ele><time>2026-06-18T23:52:40.000Z</time></trkpt>
        <trkpt lat="28.489825" lon="104.999836"><ele>832.7472</ele><time>2026-06-18T23:52:42.000Z</time></trkpt>
        <trkpt lat="28.489824" lon="104.999809"><ele>832.51874</ele><time>2026-06-18T23:52:44.000Z</time></trkpt>
        <trkpt lat="28.489822" lon="104.999777"><ele>832.51874</ele><time>2026-06-18T23:52:46.000Z</time></trkpt>
        <trkpt lat="28.489818" lon="104.999748"><ele>832.4695</ele><time>2026-06-18T23:52:48.000Z</time></trkpt>
        <trkpt lat="28.489813" lon="104.999718"><ele>832.4695</ele><time>2026-06-18T23:52:50.000Z</time></trkpt>
        <trkpt lat="28.489803" lon="104.999689"><ele>832.4695</ele><time>2026-06-18T23:52:52.000Z</time></trkpt>
        <trkpt lat="28.489786" lon="104.999671"><ele>832.5282</ele><time>2026-06-18T23:52:54.000Z</time></trkpt>
        <trkpt lat="28.489759" lon="104.999653"><ele>832.59607</ele><time>2026-06-18T23:52:56.000Z</time></trkpt>
        <trkpt lat="28.489734" lon="104.99964"><ele>832.8694</ele><time>2026-06-18T23:52:58.000Z</time></trkpt>
        <trkpt lat="28.489709" lon="104.99963"><ele>833.75525</ele><time>2026-06-18T23:53:00.000Z</time></trkpt>
        <trkpt lat="28.489688" lon="104.999619"><ele>834.75916</ele><time>2026-06-18T23:53:02.000Z</time></trkpt>
        <trkpt lat="28.489668" lon="104.999605"><ele>835.2653</ele><time>2026-06-18T23:53:04.000Z</time></trkpt>
        <trkpt lat="28.489643" lon="104.999584"><ele>835.55786</ele><time>2026-06-18T23:53:06.000Z</time></trkpt>
        <trkpt lat="28.489619" lon="104.999561"><ele>835.72034</ele><time>2026-06-18T23:53:08.000Z</time></trkpt>
        <trkpt lat="28.489593" lon="104.999542"><ele>835.87805</ele><time>2026-06-18T23:53:10.000Z</time></trkpt>
        <trkpt lat="28.489563" lon="104.999516"><ele>835.9759</ele><time>2026-06-18T23:53:12.000Z</time></trkpt>
        <trkpt lat="28.48954" lon="104.999494"><ele>835.9759</ele><time>2026-06-18T23:53:14.000Z</time></trkpt>
        <trkpt lat="28.489532" lon="104.999477"><ele>835.9759</ele><time>2026-06-18T23:53:16.000Z</time></trkpt>
        <trkpt lat="28.489533" lon="104.99947"><ele>835.9759</ele><time>2026-06-18T23:53:18.000Z</time></trkpt>
        <trkpt lat="28.489542" lon="104.999432"><ele>835.8215</ele><time>2026-06-18T23:53:22.000Z</time></trkpt>
        <trkpt lat="28.489552" lon="104.999397"><ele>835.8215</ele><time>2026-06-18T23:53:24.000Z</time></trkpt>
        <trkpt lat="28.489564" lon="104.999357"><ele>835.8215</ele><time>2026-06-18T23:53:26.000Z</time></trkpt>
        <trkpt lat="28.489576" lon="104.999314"><ele>835.8215</ele><time>2026-06-18T23:53:28.000Z</time></trkpt>
        <trkpt lat="28.489584" lon="104.999268"><ele>835.9759</ele><time>2026-06-18T23:53:30.000Z</time></trkpt>
        <trkpt lat="28.489588" lon="104.99922"><ele>836.00696</ele><time>2026-06-18T23:53:32.000Z</time></trkpt>
        <trkpt lat="28.489591" lon="104.999185"><ele>837.0671</ele><time>2026-06-18T23:53:34.000Z</time></trkpt>
        <trkpt lat="28.489595" lon="104.999147"><ele>838.8889</ele><time>2026-06-18T23:53:36.000Z</time></trkpt>
        <trkpt lat="28.489597" lon="104.999113"><ele>840.47284</ele><time>2026-06-18T23:53:38.000Z</time></trkpt>
        <trkpt lat="28.489598" lon="104.999084"><ele>842.1716</ele><time>2026-06-18T23:53:40.000Z</time></trkpt>
        <trkpt lat="28.489598" lon="104.999052"><ele>843.6953</ele><time>2026-06-18T23:53:42.000Z</time></trkpt>
        <trkpt lat="28.489593" lon="104.999026"><ele>844.2383</ele><time>2026-06-18T23:53:44.000Z</time></trkpt>
        <trkpt lat="28.489587" lon="104.999002"><ele>844.2383</ele><time>2026-06-18T23:53:46.000Z</time></trkpt>
        <trkpt lat="28.489575" lon="104.998976"><ele>844.32086</ele><time>2026-06-18T23:53:48.000Z</time></trkpt>
        <trkpt lat="28.489559" lon="104.998953"><ele>844.32086</ele><time>2026-06-18T23:53:50.000Z</time></trkpt>
        <trkpt lat="28.489538" lon="104.998935"><ele>844.32086</ele><time>2026-06-18T23:53:52.000Z</time></trkpt>
        <trkpt lat="28.489514" lon="104.998915"><ele>844.3043</ele><time>2026-06-18T23:53:54.000Z</time></trkpt>
        <trkpt lat="28.489488" lon="104.998893"><ele>844.13727</ele><time>2026-06-18T23:53:56.000Z</time></trkpt>
        <trkpt lat="28.489466" lon="104.998869"><ele>844.0387</ele><time>2026-06-18T23:53:58.000Z</time></trkpt>
        <trkpt lat="28.489455" lon="104.998845"><ele>844.0387</ele><time>2026-06-18T23:54:00.000Z</time></trkpt>
        <trkpt lat="28.489447" lon="104.998815"><ele>844.0387</ele><time>2026-06-18T23:54:02.000Z</time></trkpt>
        <trkpt lat="28.489443" lon="104.998781"><ele>844.0387</ele><time>2026-06-18T23:54:04.000Z</time></trkpt>
        <trkpt lat="28.489439" lon="104.998745"><ele>844.20575</ele><time>2026-06-18T23:54:06.000Z</time></trkpt>
        <trkpt lat="28.489435" lon="104.998717"><ele>844.40015</ele><time>2026-06-18T23:54:08.000Z</time></trkpt>
        <trkpt lat="28.489426" lon="104.99869"><ele>845.47076</ele><time>2026-06-18T23:54:10.000Z</time></trkpt>
        <trkpt lat="28.489418" lon="104.998664"><ele>846.3146</ele><time>2026-06-18T23:54:12.000Z</time></trkpt>
        <trkpt lat="28.489408" lon="104.998635"><ele>846.4878</ele><time>2026-06-18T23:54:14.000Z</time></trkpt>
        <trkpt lat="28.489397" lon="104.998606"><ele>846.5963</ele><time>2026-06-18T23:54:15.000Z</time></trkpt>
        <trkpt lat="28.489385" lon="104.998576"><ele>846.69666</ele><time>2026-06-18T23:54:17.000Z</time></trkpt>
        <trkpt lat="28.489378" lon="104.998554"><ele>846.7381</ele><time>2026-06-18T23:54:19.000Z</time></trkpt>
        <trkpt lat="28.489372" lon="104.998526"><ele>846.9664</ele><time>2026-06-18T23:54:21.000Z</time></trkpt>
        <trkpt lat="28.489366" lon="104.998498"><ele>847.2143</ele><time>2026-06-18T23:54:24.000Z</time></trkpt>
        <trkpt lat="28.489359" lon="104.998474"><ele>847.2143</ele><time>2026-06-18T23:54:26.000Z</time></trkpt>
        <trkpt lat="28.489348" lon="104.998449"><ele>847.2143</ele><time>2026-06-18T23:54:28.000Z</time></trkpt>
        <trkpt lat="28.489335" lon="104.998426"><ele>847.2143</ele><time>2026-06-18T23:54:30.000Z</time></trkpt>
        <trkpt lat="28.489322" lon="104.998401"><ele>847.2143</ele><time>2026-06-18T23:54:32.000Z</time></trkpt>
        <trkpt lat="28.48931" lon="104.998375"><ele>847.1063</ele><time>2026-06-18T23:54:34.000Z</time></trkpt>
        <trkpt lat="28.489297" lon="104.998348"><ele>847.0197</ele><time>2026-06-18T23:54:36.000Z</time></trkpt>
        <trkpt lat="28.489285" lon="104.99832"><ele>846.9608</ele><time>2026-06-18T23:54:38.000Z</time></trkpt>
        <trkpt lat="28.489277" lon="104.99829"><ele>846.9608</ele><time>2026-06-18T23:54:40.000Z</time></trkpt>
        <trkpt lat="28.489271" lon="104.998256"><ele>846.9608</ele><time>2026-06-18T23:54:42.000Z</time></trkpt>
        <trkpt lat="28.489269" lon="104.998222"><ele>846.9608</ele><time>2026-06-18T23:54:44.000Z</time></trkpt>
        <trkpt lat="28.489264" lon="104.998193"><ele>847.0197</ele><time>2026-06-18T23:54:46.000Z</time></trkpt>
        <trkpt lat="28.48926" lon="104.99818"><ele>847.13684</ele><time>2026-06-18T23:54:48.000Z</time></trkpt>
        <trkpt lat="28.489258" lon="104.998156"><ele>847.4936</ele><time>2026-06-18T23:54:50.000Z</time></trkpt>
        <trkpt lat="28.489259" lon="104.998128"><ele>847.7974</ele><time>2026-06-18T23:54:52.000Z</time></trkpt>
        <trkpt lat="28.489267" lon="104.998101"><ele>848.0065</ele><time>2026-06-18T23:54:54.000Z</time></trkpt>
        <trkpt lat="28.48928" lon="104.998067"><ele>848.2116</ele><time>2026-06-18T23:54:56.000Z</time></trkpt>
        <trkpt lat="28.489287" lon="104.998045"><ele>848.2116</ele><time>2026-06-18T23:54:58.000Z</time></trkpt>
        <trkpt lat="28.48929" lon="104.998031"><ele>848.2116</ele><time>2026-06-18T23:55:00.000Z</time></trkpt>
        <trkpt lat="28.489293" lon="104.998014"><ele>848.04346</ele><time>2026-06-18T23:55:02.000Z</time></trkpt>
        <trkpt lat="28.489296" lon="104.997993"><ele>847.8284</ele><time>2026-06-18T23:55:04.000Z</time></trkpt>
        <trkpt lat="28.4893" lon="104.997977"><ele>847.8284</ele><time>2026-06-18T23:55:06.000Z</time></trkpt>
        <trkpt lat="28.489306" lon="104.997957"><ele>847.2647</ele><time>2026-06-18T23:55:08.000Z</time></trkpt>
        <trkpt lat="28.489311" lon="104.997935"><ele>846.4805</ele><time>2026-06-18T23:55:10.000Z</time></trkpt>
        <trkpt lat="28.489316" lon="104.997914"><ele>846.2375</ele><time>2026-06-18T23:55:12.000Z</time></trkpt>
        <trkpt lat="28.489319" lon="104.997894"><ele>845.9143</ele><time>2026-06-18T23:55:14.000Z</time></trkpt>
        <trkpt lat="28.489322" lon="104.997869"><ele>845.25586</ele><time>2026-06-18T23:55:16.000Z</time></trkpt>
        <trkpt lat="28.489322" lon="104.997842"><ele>844.7177</ele><time>2026-06-18T23:55:18.000Z</time></trkpt>
        <trkpt lat="28.489321" lon="104.997822"><ele>844.445</ele><time>2026-06-18T23:55:20.000Z</time></trkpt>
        <trkpt lat="28.489321" lon="104.997807"><ele>843.7515</ele><time>2026-06-18T23:55:22.000Z</time></trkpt>
        <trkpt lat="28.489322" lon="104.997794"><ele>842.669</ele><time>2026-06-18T23:55:24.000Z</time></trkpt>
        <trkpt lat="28.489323" lon="104.997776"><ele>841.79443</ele><time>2026-06-18T23:55:26.000Z</time></trkpt>
        <trkpt lat="28.489327" lon="104.997743"><ele>841.2154</ele><time>2026-06-18T23:55:28.000Z</time></trkpt>
        <trkpt lat="28.489329" lon="104.997717"><ele>840.6606</ele><time>2026-06-18T23:55:30.000Z</time></trkpt>
        <trkpt lat="28.489329" lon="104.997697"><ele>840.0511</ele><time>2026-06-18T23:55:32.000Z</time></trkpt>
        <trkpt lat="28.489329" lon="104.997676"><ele>839.5976</ele><time>2026-06-18T23:55:34.000Z</time></trkpt>
        <trkpt lat="28.489328" lon="104.99765"><ele>839.29034</ele><time>2026-06-18T23:55:36.000Z</time></trkpt>
        <trkpt lat="28.489324" lon="104.997627"><ele>839.09344</ele><time>2026-06-18T23:55:38.000Z</time></trkpt>
        <trkpt lat="28.48932" lon="104.99761"><ele>838.6779</ele><time>2026-06-18T23:55:40.000Z</time></trkpt>
        <trkpt lat="28.489319" lon="104.997591"><ele>837.9343</ele><time>2026-06-18T23:55:42.000Z</time></trkpt>
        <trkpt lat="28.489316" lon="104.997562"><ele>837.0908</ele><time>2026-06-18T23:55:44.000Z</time></trkpt>
        <trkpt lat="28.489317" lon="104.997533"><ele>836.45953</ele><time>2026-06-18T23:55:46.000Z</time></trkpt>
        <trkpt lat="28.489319" lon="104.997501"><ele>835.7521</ele><time>2026-06-18T23:55:48.000Z</time></trkpt>
        <trkpt lat="28.489319" lon="104.997477"><ele>834.90216</ele><time>2026-06-18T23:55:50.000Z</time></trkpt>
        <trkpt lat="28.489317" lon="104.997454"><ele>834.2999</ele><time>2026-06-18T23:55:52.000Z</time></trkpt>
        <trkpt lat="28.489315" lon="104.997436"><ele>833.9292</ele><time>2026-06-18T23:55:54.000Z</time></trkpt>
        <trkpt lat="28.489313" lon="104.997409"><ele>833.62244</ele><time>2026-06-18T23:55:56.000Z</time></trkpt>
        <trkpt lat="28.489312" lon="104.997381"><ele>832.9745</ele><time>2026-06-18T23:55:58.000Z</time></trkpt>
        <trkpt lat="28.489312" lon="104.997356"><ele>831.98566</ele><time>2026-06-18T23:56:00.000Z</time></trkpt>
        <trkpt lat="28.489314" lon="104.997332"><ele>831.0266</ele><time>2026-06-18T23:56:02.000Z</time></trkpt>
        <trkpt lat="28.489317" lon="104.997305"><ele>830.33093</ele><time>2026-06-18T23:56:04.000Z</time></trkpt>
        <trkpt lat="28.48932" lon="104.997281"><ele>829.9745</ele><time>2026-06-18T23:56:06.000Z</time></trkpt>
        <trkpt lat="28.489321" lon="104.99726"><ele>829.68524</ele><time>2026-06-18T23:56:08.000Z</time></trkpt>
        <trkpt lat="28.489323" lon="104.99724"><ele>829.47754</ele><time>2026-06-18T23:56:10.000Z</time></trkpt>
        <trkpt lat="28.489325" lon="104.997218"><ele>829.39764</ele><time>2026-06-18T23:56:12.000Z</time></trkpt>
        <trkpt lat="28.489328" lon="104.997191"><ele>829.07605</ele><time>2026-06-18T23:56:14.000Z</time></trkpt>
        <trkpt lat="28.48933" lon="104.997165"><ele>828.4677</ele><time>2026-06-18T23:56:16.000Z</time></trkpt>
        <trkpt lat="28.48933" lon="104.99714"><ele>827.7328</ele><time>2026-06-18T23:56:18.000Z</time></trkpt>
        <trkpt lat="28.489329" lon="104.997119"><ele>827.0403</ele><time>2026-06-18T23:56:20.000Z</time></trkpt>
        <trkpt lat="28.489328" lon="104.997095"><ele>826.662</ele><time>2026-06-18T23:56:22.000Z</time></trkpt>
        <trkpt lat="28.489328" lon="104.99707"><ele>826.5304</ele><time>2026-06-18T23:56:24.000Z</time></trkpt>
        <trkpt lat="28.489331" lon="104.997041"><ele>826.4045</ele><time>2026-06-18T23:56:26.000Z</time></trkpt>
        <trkpt lat="28.489334" lon="104.997014"><ele>826.1075</ele><time>2026-06-18T23:56:28.000Z</time></trkpt>
        <trkpt lat="28.489337" lon="104.996986"><ele>825.707</ele><time>2026-06-18T23:56:30.000Z</time></trkpt>
        <trkpt lat="28.489338" lon="104.996956"><ele>825.41223</ele><time>2026-06-18T23:56:32.000Z</time></trkpt>
        <trkpt lat="28.489338" lon="104.99693"><ele>825.2693</ele><time>2026-06-18T23:56:34.000Z</time></trkpt>
        <trkpt lat="28.489337" lon="104.996904"><ele>825.2289</ele><time>2026-06-18T23:56:36.000Z</time></trkpt>
        <trkpt lat="28.489337" lon="104.996873"><ele>825.21643</ele><time>2026-06-18T23:56:38.000Z</time></trkpt>
        <trkpt lat="28.48934" lon="104.996841"><ele>825.208</ele><time>2026-06-18T23:56:40.000Z</time></trkpt>
        <trkpt lat="28.489346" lon="104.996812"><ele>825.20087</ele><time>2026-06-18T23:56:42.000Z</time></trkpt>
        <trkpt lat="28.489355" lon="104.996786"><ele>825.20087</ele><time>2026-06-18T23:56:44.000Z</time></trkpt>
        <trkpt lat="28.489365" lon="104.996763"><ele>825.208</ele><time>2026-06-18T23:56:46.000Z</time></trkpt>
        <trkpt lat="28.489377" lon="104.996743"><ele>825.208</ele><time>2026-06-18T23:56:48.000Z</time></trkpt>
        <trkpt lat="28.489387" lon="104.996725"><ele>825.1231</ele><time>2026-06-18T23:56:50.000Z</time></trkpt>
        <trkpt lat="28.489397" lon="104.996707"><ele>825.02167</ele><time>2026-06-18T23:56:52.000Z</time></trkpt>
        <trkpt lat="28.489407" lon="104.996689"><ele>824.9584</ele><time>2026-06-18T23:56:54.000Z</time></trkpt>
        <trkpt lat="28.489417" lon="104.996669"><ele>824.8842</ele><time>2026-06-18T23:56:56.000Z</time></trkpt>
        <trkpt lat="28.489425" lon="104.996645"><ele>824.55383</ele><time>2026-06-18T23:56:58.000Z</time></trkpt>
        <trkpt lat="28.489432" lon="104.99662"><ele>823.8962</ele><time>2026-06-18T23:57:00.000Z</time></trkpt>
        <trkpt lat="28.489437" lon="104.996597"><ele>823.2224</ele><time>2026-06-18T23:57:02.000Z</time></trkpt>
        <trkpt lat="28.489441" lon="104.996566"><ele>822.75934</ele><time>2026-06-18T23:57:04.000Z</time></trkpt>
        <trkpt lat="28.489444" lon="104.996544"><ele>822.49365</ele><time>2026-06-18T23:57:06.000Z</time></trkpt>
        <trkpt lat="28.489447" lon="104.996527"><ele>822.3474</ele><time>2026-06-18T23:57:08.000Z</time></trkpt>
        <trkpt lat="28.489452" lon="104.996507"><ele>822.26416</ele><time>2026-06-18T23:57:10.000Z</time></trkpt>
        <trkpt lat="28.489456" lon="104.996485"><ele>822.1558</ele><time>2026-06-18T23:57:12.000Z</time></trkpt>
        <trkpt lat="28.48946" lon="104.996463"><ele>822.0562</ele><time>2026-06-18T23:57:14.000Z</time></trkpt>
        <trkpt lat="28.489462" lon="104.996443"><ele>821.8616</ele><time>2026-06-18T23:57:16.000Z</time></trkpt>
        <trkpt lat="28.489465" lon="104.996421"><ele>821.65295</ele><time>2026-06-18T23:57:18.000Z</time></trkpt>
        <trkpt lat="28.489467" lon="104.996398"><ele>821.3871</ele><time>2026-06-18T23:57:20.000Z</time></trkpt>
        <trkpt lat="28.489469" lon="104.996375"><ele>820.93756</ele><time>2026-06-18T23:57:22.000Z</time></trkpt>
        <trkpt lat="28.48947" lon="104.99635"><ele>820.4803</ele><time>2026-06-18T23:57:24.000Z</time></trkpt>
        <trkpt lat="28.48947" lon="104.996329"><ele>820.24066</ele><time>2026-06-18T23:57:26.000Z</time></trkpt>
        <trkpt lat="28.489469" lon="104.996308"><ele>820.0806</ele><time>2026-06-18T23:57:28.000Z</time></trkpt>
        <trkpt lat="28.489468" lon="104.996281"><ele>819.71716</ele><time>2026-06-18T23:57:30.000Z</time></trkpt>
        <trkpt lat="28.489468" lon="104.996253"><ele>819.32697</ele><time>2026-06-18T23:57:32.000Z</time></trkpt>
        <trkpt lat="28.489467" lon="104.996228"><ele>819.1458</ele><time>2026-06-18T23:57:34.000Z</time></trkpt>
        <trkpt lat="28.489466" lon="104.996208"><ele>818.84985</ele><time>2026-06-18T23:57:36.000Z</time></trkpt>
        <trkpt lat="28.489464" lon="104.996196"><ele>818.2632</ele><time>2026-06-18T23:57:38.000Z</time></trkpt>
        <trkpt lat="28.489463" lon="104.99618"><ele>817.92444</ele><time>2026-06-18T23:57:40.000Z</time></trkpt>
        <trkpt lat="28.489467" lon="104.996164"><ele>817.8171</ele><time>2026-06-18T23:57:46.000Z</time></trkpt>
        <trkpt lat="28.489476" lon="104.996143"><ele>817.8171</ele><time>2026-06-18T23:57:51.000Z</time></trkpt>
        <trkpt lat="28.489477" lon="104.996139"><ele>817.8171</ele><time>2026-06-18T23:57:55.000Z</time></trkpt>
        <trkpt lat="28.489485" lon="104.996092"><ele>817.72406</ele><time>2026-06-18T23:57:59.000Z</time></trkpt>
        <trkpt lat="28.489489" lon="104.996065"><ele>817.5398</ele><time>2026-06-18T23:58:01.000Z</time></trkpt>
        <trkpt lat="28.489492" lon="104.996035"><ele>817.36584</ele><time>2026-06-18T23:58:03.000Z</time></trkpt>
        <trkpt lat="28.489496" lon="104.996009"><ele>817.3091</ele><time>2026-06-18T23:58:05.000Z</time></trkpt>
        <trkpt lat="28.489498" lon="104.995985"><ele>817.04315</ele><time>2026-06-18T23:58:07.000Z</time></trkpt>
        <trkpt lat="28.4895" lon="104.995959"><ele>816.57245</ele><time>2026-06-18T23:58:09.000Z</time></trkpt>
        <trkpt lat="28.489502" lon="104.995931"><ele>816.1004</ele><time>2026-06-18T23:58:11.000Z</time></trkpt>
        <trkpt lat="28.489505" lon="104.995904"><ele>815.6293</ele><time>2026-06-18T23:58:13.000Z</time></trkpt>
        <trkpt lat="28.489508" lon="104.995879"><ele>815.21185</ele><time>2026-06-18T23:58:15.000Z</time></trkpt>
        <trkpt lat="28.489512" lon="104.995851"><ele>815.02734</ele><time>2026-06-18T23:58:17.000Z</time></trkpt>
        <trkpt lat="28.489516" lon="104.995823"><ele>814.99023</ele><time>2026-06-18T23:58:19.000Z</time></trkpt>
        <trkpt lat="28.48952" lon="104.995797"><ele>814.92194</ele><time>2026-06-18T23:58:21.000Z</time></trkpt>
        <trkpt lat="28.48952" lon="104.995776"><ele>814.8202</ele><time>2026-06-18T23:58:23.000Z</time></trkpt>
        <trkpt lat="28.489519" lon="104.995755"><ele>814.63196</ele><time>2026-06-18T23:58:25.000Z</time></trkpt>
        <trkpt lat="28.489517" lon="104.995732"><ele>814.46716</ele><time>2026-06-18T23:58:27.000Z</time></trkpt>
        <trkpt lat="28.489516" lon="104.995708"><ele>814.3691</ele><time>2026-06-18T23:58:29.000Z</time></trkpt>
        <trkpt lat="28.489515" lon="104.99568"><ele>814.0328</ele><time>2026-06-18T23:58:31.000Z</time></trkpt>
        <trkpt lat="28.489515" lon="104.995648"><ele>813.2522</ele><time>2026-06-18T23:58:33.000Z</time></trkpt>
        <trkpt lat="28.489518" lon="104.995617"><ele>812.42834</ele><time>2026-06-18T23:58:35.000Z</time></trkpt>
        <trkpt lat="28.48952" lon="104.995594"><ele>812.24493</ele><time>2026-06-18T23:58:37.000Z</time></trkpt>
        <trkpt lat="28.489523" lon="104.995578"><ele>812.24493</ele><time>2026-06-18T23:58:39.000Z</time></trkpt>
        <trkpt lat="28.489526" lon="104.995572"><ele>812.24493</ele><time>2026-06-18T23:58:41.000Z</time></trkpt>
        <trkpt lat="28.489542" lon="104.995553"><ele>812.24493</ele><time>2026-06-18T23:58:45.000Z</time></trkpt>
        <trkpt lat="28.48954" lon="104.995548"><ele>812.24493</ele><time>2026-06-18T23:58:49.000Z</time></trkpt>
        <trkpt lat="28.489539" lon="104.995535"><ele>812.573</ele><time>2026-06-18T23:59:05.000Z</time></trkpt>
        <trkpt lat="28.48954" lon="104.995496"><ele>813.06616</ele><time>2026-06-18T23:59:09.000Z</time></trkpt>
        <trkpt lat="28.489543" lon="104.995485"><ele>814.08014</ele><time>2026-06-18T23:59:14.000Z</time></trkpt>
        <trkpt lat="28.489555" lon="104.995441"><ele>814.9264</ele><time>2026-06-18T23:59:18.000Z</time></trkpt>
        <trkpt lat="28.489554" lon="104.995441"><ele>815.87006</ele><time>2026-06-18T23:59:20.000Z</time></trkpt>
        <trkpt lat="28.489555" lon="104.995441"><ele>817.7127</ele><time>2026-06-18T23:59:22.000Z</time></trkpt>
        <trkpt lat="28.489535" lon="104.995377"><ele>818.76215</ele><time>2026-06-19T00:01:22.000Z</time></trkpt>
        <trkpt lat="28.489534" lon="104.995373"><ele>818.8717</ele><time>2026-06-19T00:01:24.000Z</time></trkpt>
        <trkpt lat="28.489535" lon="104.995372"><ele>818.97003</ele><time>2026-06-19T00:01:26.000Z</time></trkpt>
        <trkpt lat="28.489571" lon="104.995293"><ele>818.97003</ele><time>2026-06-19T00:01:53.000Z</time></trkpt>
        <trkpt lat="28.489557" lon="104.995242"><ele>818.97003</ele><time>2026-06-19T00:01:56.000Z</time></trkpt>
        <trkpt lat="28.489557" lon="104.995242"><ele>818.97003</ele><time>2026-06-19T00:01:58.000Z</time></trkpt>
        <trkpt lat="28.489566" lon="104.995206"><ele>818.97003</ele><time>2026-06-19T00:02:04.000Z</time></trkpt>
        <trkpt lat="28.489575" lon="104.995154"><ele>816.8989</ele><time>2026-06-19T00:02:08.000Z</time></trkpt>
        <trkpt lat="28.489576" lon="104.99513"><ele>814.74585</ele><time>2026-06-19T00:02:10.000Z</time></trkpt>
        <trkpt lat="28.489577" lon="104.995103"><ele>814.64386</ele><time>2026-06-19T00:02:12.000Z</time></trkpt>
        <trkpt lat="28.489576" lon="104.995077"><ele>814.2631</ele><time>2026-06-19T00:02:14.000Z</time></trkpt>
        <trkpt lat="28.489574" lon="104.995051"><ele>813.2638</ele><time>2026-06-19T00:02:16.000Z</time></trkpt>
        <trkpt lat="28.489572" lon="104.995024"><ele>812.18005</ele><time>2026-06-19T00:02:18.000Z</time></trkpt>
        <trkpt lat="28.489572" lon="104.995002"><ele>811.5461</ele><time>2026-06-19T00:02:20.000Z</time></trkpt>
        <trkpt lat="28.489573" lon="104.994972"><ele>811.35315</ele><time>2026-06-19T00:02:22.000Z</time></trkpt>
        <trkpt lat="28.489573" lon="104.994948"><ele>811.02203</ele><time>2026-06-19T00:02:24.000Z</time></trkpt>
        <trkpt lat="28.489572" lon="104.994925"><ele>810.48035</ele><time>2026-06-19T00:02:26.000Z</time></trkpt>
        <trkpt lat="28.48957" lon="104.99491"><ele>810.03394</ele><time>2026-06-19T00:02:28.000Z</time></trkpt>
        <trkpt lat="28.48957" lon="104.994891"><ele>809.7187</ele><time>2026-06-19T00:02:52.000Z</time></trkpt>
        <trkpt lat="28.489572" lon="104.994853"><ele>809.60236</ele><time>2026-06-19T00:02:56.000Z</time></trkpt>
        <trkpt lat="28.489572" lon="104.994853"><ele>809.5882</ele><time>2026-06-19T00:02:58.000Z</time></trkpt>
        <trkpt lat="28.489577" lon="104.994822"><ele>809.5882</ele><time>2026-06-19T00:04:04.000Z</time></trkpt>
        <trkpt lat="28.489581" lon="104.994777"><ele>809.5882</ele><time>2026-06-19T00:04:08.000Z</time></trkpt>
        <trkpt lat="28.489584" lon="104.994751"><ele>809.5882</ele><time>2026-06-19T00:04:10.000Z</time></trkpt>
        <trkpt lat="28.489584" lon="104.994735"><ele>809.5882</ele><time>2026-06-19T00:04:16.000Z</time></trkpt>
        <trkpt lat="28.489587" lon="104.994677"><ele>809.5882</ele><time>2026-06-19T00:04:20.000Z</time></trkpt>
        <trkpt lat="28.489587" lon="104.994649"><ele>809.5882</ele><time>2026-06-19T00:04:22.000Z</time></trkpt>
        <trkpt lat="28.489587" lon="104.994621"><ele>809.5882</ele><time>2026-06-19T00:04:24.000Z</time></trkpt>
        <trkpt lat="28.489586" lon="104.994595"><ele>809.5882</ele><time>2026-06-19T00:04:26.000Z</time></trkpt>
        <trkpt lat="28.489584" lon="104.994571"><ele>809.34454</ele><time>2026-06-19T00:04:28.000Z</time></trkpt>
        <trkpt lat="28.489582" lon="104.994552"><ele>808.8837</ele><time>2026-06-19T00:04:30.000Z</time></trkpt>
        <trkpt lat="28.489583" lon="104.994534"><ele>808.4599</ele><time>2026-06-19T00:04:32.000Z</time></trkpt>
        <trkpt lat="28.48959" lon="104.994486"><ele>808.19794</ele><time>2026-06-19T00:04:36.000Z</time></trkpt>
        <trkpt lat="28.489592" lon="104.99447"><ele>807.99274</ele><time>2026-06-19T00:04:38.000Z</time></trkpt>
        <trkpt lat="28.489593" lon="104.99445"><ele>807.6978</ele><time>2026-06-19T00:04:40.000Z</time></trkpt>
        <trkpt lat="28.489587" lon="104.994429"><ele>807.4102</ele><time>2026-06-19T00:04:42.000Z</time></trkpt>
        <trkpt lat="28.489571" lon="104.994409"><ele>807.0955</ele><time>2026-06-19T00:04:46.000Z</time></trkpt>
        <trkpt lat="28.489552" lon="104.994383"><ele>806.67413</ele><time>2026-06-19T00:04:50.000Z</time></trkpt>
        <trkpt lat="28.489534" lon="104.994355"><ele>806.19165</ele><time>2026-06-19T00:04:52.000Z</time></trkpt>
        <trkpt lat="28.489518" lon="104.994329"><ele>806.19165</ele><time>2026-06-19T00:04:54.000Z</time></trkpt>
        <trkpt lat="28.489506" lon="104.994303"><ele>806.19165</ele><time>2026-06-19T00:04:56.000Z</time></trkpt>
        <trkpt lat="28.489493" lon="104.994274"><ele>806.19165</ele><time>2026-06-19T00:04:58.000Z</time></trkpt>
        <trkpt lat="28.489489" lon="104.994253"><ele>806.19165</ele><time>2026-06-19T00:05:00.000Z</time></trkpt>
        <trkpt lat="28.489487" lon="104.994215"><ele>806.235</ele><time>2026-06-19T00:05:02.000Z</time></trkpt>
        <trkpt lat="28.489484" lon="104.994176"><ele>806.7993</ele><time>2026-06-19T00:05:04.000Z</time></trkpt>
        <trkpt lat="28.489483" lon="104.994147"><ele>807.1794</ele><time>2026-06-19T00:05:06.000Z</time></trkpt>
        <trkpt lat="28.489478" lon="104.994133"><ele>807.6594</ele><time>2026-06-19T00:05:08.000Z</time></trkpt>
        <trkpt lat="28.489473" lon="104.99411"><ele>808.3428</ele><time>2026-06-19T00:05:10.000Z</time></trkpt>
        <trkpt lat="28.489471" lon="104.994092"><ele>808.68854</ele><time>2026-06-19T00:05:12.000Z</time></trkpt>
        <trkpt lat="28.489468" lon="104.994072"><ele>808.8282</ele><time>2026-06-19T00:05:14.000Z</time></trkpt>
        <trkpt lat="28.489467" lon="104.994048"><ele>809.133</ele><time>2026-06-19T00:05:16.000Z</time></trkpt>
        <trkpt lat="28.489466" lon="104.994034"><ele>809.3788</ele><time>2026-06-19T00:05:18.000Z</time></trkpt>
        <trkpt lat="28.489459" lon="104.994017"><ele>809.3788</ele><time>2026-06-19T00:05:22.000Z</time></trkpt>
        <trkpt lat="28.489447" lon="104.993991"><ele>809.3788</ele><time>2026-06-19T00:05:30.000Z</time></trkpt>
        <trkpt lat="28.489445" lon="104.993979"><ele>809.3788</ele><time>2026-06-19T00:05:32.000Z</time></trkpt>
        <trkpt lat="28.489444" lon="104.993961"><ele>809.3788</ele><time>2026-06-19T00:05:36.000Z</time></trkpt>
        <trkpt lat="28.489434" lon="104.993939"><ele>809.46704</ele><time>2026-06-19T00:05:42.000Z</time></trkpt>
        <trkpt lat="28.489435" lon="104.993929"><ele>809.5852</ele><time>2026-06-19T00:05:52.000Z</time></trkpt>
        <trkpt lat="28.489446" lon="104.993841"><ele>809.2974</ele><time>2026-06-19T00:06:00.000Z</time></trkpt>
        <trkpt lat="28.489446" lon="104.993841"><ele>809.0216</ele><time>2026-06-19T00:06:02.000Z</time></trkpt>
        <trkpt lat="28.489446" lon="104.99384"><ele>808.85</ele><time>2026-06-19T00:06:04.000Z</time></trkpt>
        <trkpt lat="28.489444" lon="104.993796"><ele>808.7274</ele><time>2026-06-19T00:06:08.000Z</time></trkpt>
        <trkpt lat="28.489439" lon="104.993758"><ele>808.7187</ele><time>2026-06-19T00:06:10.000Z</time></trkpt>
        <trkpt lat="28.489431" lon="104.993721"><ele>808.7187</ele><time>2026-06-19T00:06:12.000Z</time></trkpt>
        <trkpt lat="28.489423" lon="104.993697"><ele>808.7187</ele><time>2026-06-19T00:06:14.000Z</time></trkpt>
        <trkpt lat="28.489415" lon="104.993675"><ele>808.5219</ele><time>2026-06-19T00:06:16.000Z</time></trkpt>
        <trkpt lat="28.489408" lon="104.993647"><ele>808.31635</ele><time>2026-06-19T00:06:18.000Z</time></trkpt>
        <trkpt lat="28.489402" lon="104.993616"><ele>808.31635</ele><time>2026-06-19T00:06:20.000Z</time></trkpt>
        <trkpt lat="28.4894" lon="104.993598"><ele>808.31635</ele><time>2026-06-19T00:06:22.000Z</time></trkpt>
        <trkpt lat="28.4894" lon="104.993576"><ele>808.2749</ele><time>2026-06-19T00:06:24.000Z</time></trkpt>
        <trkpt lat="28.489402" lon="104.993556"><ele>808.24664</ele><time>2026-06-19T00:06:26.000Z</time></trkpt>
        <trkpt lat="28.489403" lon="104.993537"><ele>808.23413</ele><time>2026-06-19T00:06:28.000Z</time></trkpt>
        <trkpt lat="28.489402" lon="104.993518"><ele>808.1613</ele><time>2026-06-19T00:06:30.000Z</time></trkpt>
        <trkpt lat="28.489402" lon="104.993497"><ele>808.0291</ele><time>2026-06-19T00:06:32.000Z</time></trkpt>
        <trkpt lat="28.489405" lon="104.993478"><ele>807.8356</ele><time>2026-06-19T00:06:34.000Z</time></trkpt>
        <trkpt lat="28.489409" lon="104.993451"><ele>807.447</ele><time>2026-06-19T00:06:36.000Z</time></trkpt>
        <trkpt lat="28.489413" lon="104.99343"><ele>806.9651</ele><time>2026-06-19T00:06:38.000Z</time></trkpt>
        <trkpt lat="28.489417" lon="104.993412"><ele>806.4085</ele><time>2026-06-19T00:06:40.000Z</time></trkpt>
        <trkpt lat="28.489424" lon="104.993393"><ele>805.76984</ele><time>2026-06-19T00:06:42.000Z</time></trkpt>
        <trkpt lat="28.489428" lon="104.99338"><ele>805.2068</ele><time>2026-06-19T00:06:44.000Z</time></trkpt>
        <trkpt lat="28.489432" lon="104.993364"><ele>804.7445</ele><time>2026-06-19T00:06:46.000Z</time></trkpt>
        <trkpt lat="28.489436" lon="104.993342"><ele>804.3888</ele><time>2026-06-19T00:06:48.000Z</time></trkpt>
        <trkpt lat="28.489437" lon="104.99332"><ele>804.0341</ele><time>2026-06-19T00:06:50.000Z</time></trkpt>
        <trkpt lat="28.489434" lon="104.993298"><ele>803.5055</ele><time>2026-06-19T00:06:52.000Z</time></trkpt>
        <trkpt lat="28.489433" lon="104.993276"><ele>803.14685</ele><time>2026-06-19T00:06:54.000Z</time></trkpt>
        <trkpt lat="28.489432" lon="104.993255"><ele>803.0839</ele><time>2026-06-19T00:06:56.000Z</time></trkpt>
        <trkpt lat="28.489432" lon="104.993237"><ele>803.04315</ele><time>2026-06-19T00:06:58.000Z</time></trkpt>
        <trkpt lat="28.489432" lon="104.993219"><ele>803.0157</ele><time>2026-06-19T00:07:00.000Z</time></trkpt>
        <trkpt lat="28.489431" lon="104.993191"><ele>802.87866</ele><time>2026-06-19T00:07:02.000Z</time></trkpt>
        <trkpt lat="28.489428" lon="104.99316"><ele>802.7086</ele><time>2026-06-19T00:07:04.000Z</time></trkpt>
        <trkpt lat="28.489427" lon="104.993133"><ele>802.62354</ele><time>2026-06-19T00:07:06.000Z</time></trkpt>
        <trkpt lat="28.489426" lon="104.9931"><ele>802.3519</ele><time>2026-06-19T00:07:08.000Z</time></trkpt>
        <trkpt lat="28.489425" lon="104.993072"><ele>801.98334</ele><time>2026-06-19T00:07:10.000Z</time></trkpt>
        <trkpt lat="28.489421" lon="104.993038"><ele>801.84607</ele><time>2026-06-19T00:07:12.000Z</time></trkpt>
        <trkpt lat="28.489416" lon="104.993011"><ele>801.70764</ele><time>2026-06-19T00:07:14.000Z</time></trkpt>
        <trkpt lat="28.489413" lon="104.992983"><ele>801.3442</ele><time>2026-06-19T00:07:16.000Z</time></trkpt>
        <trkpt lat="28.489413" lon="104.992959"><ele>801.09766</ele><time>2026-06-19T00:07:18.000Z</time></trkpt>
        <trkpt lat="28.489416" lon="104.992938"><ele>800.9992</ele><time>2026-06-19T00:07:20.000Z</time></trkpt>
        <trkpt lat="28.489422" lon="104.992909"><ele>800.77466</ele><time>2026-06-19T00:07:22.000Z</time></trkpt>
        <trkpt lat="28.489425" lon="104.992894"><ele>800.61505</ele><time>2026-06-19T00:07:24.000Z</time></trkpt>
        <trkpt lat="28.489429" lon="104.992885"><ele>800.5827</ele><time>2026-06-19T00:07:26.000Z</time></trkpt>
        <trkpt lat="28.489446" lon="104.992845"><ele>800.5755</ele><time>2026-06-19T00:07:30.000Z</time></trkpt>
        <trkpt lat="28.489456" lon="104.992822"><ele>800.5146</ele><time>2026-06-19T00:07:32.000Z</time></trkpt>
        <trkpt lat="28.489462" lon="104.992806"><ele>800.5146</ele><time>2026-06-19T00:07:34.000Z</time></trkpt>
        <trkpt lat="28.489469" lon="104.992786"><ele>800.39636</ele><time>2026-06-19T00:07:36.000Z</time></trkpt>
        <trkpt lat="28.489477" lon="104.992764"><ele>800.3123</ele><time>2026-06-19T00:07:38.000Z</time></trkpt>
        <trkpt lat="28.48949" lon="104.992742"><ele>800.2583</ele><time>2026-06-19T00:07:40.000Z</time></trkpt>
        <trkpt lat="28.489506" lon="104.992716"><ele>800.2583</ele><time>2026-06-19T00:07:42.000Z</time></trkpt>
        <trkpt lat="28.489519" lon="104.992695"><ele>800.254</ele><time>2026-06-19T00:07:44.000Z</time></trkpt>
        <trkpt lat="28.489531" lon="104.992672"><ele>800.1909</ele><time>2026-06-19T00:07:46.000Z</time></trkpt>
        <trkpt lat="28.489539" lon="104.992656"><ele>800.07</ele><time>2026-06-19T00:07:48.000Z</time></trkpt>
        <trkpt lat="28.48954" lon="104.99265"><ele>799.9199</ele><time>2026-06-19T00:07:50.000Z</time></trkpt>
        <trkpt lat="28.489549" lon="104.992578"><ele>799.7709</ele><time>2026-06-19T00:08:03.000Z</time></trkpt>
        <trkpt lat="28.489549" lon="104.992578"><ele>799.4153</ele><time>2026-06-19T00:08:05.000Z</time></trkpt>
        <trkpt lat="28.489549" lon="104.992574"><ele>798.7507</ele><time>2026-06-19T00:08:07.000Z</time></trkpt>
        <trkpt lat="28.489545" lon="104.992513"><ele>798.07605</ele><time>2026-06-19T00:08:13.000Z</time></trkpt>
        <trkpt lat="28.489543" lon="104.992497"><ele>797.75934</ele><time>2026-06-19T00:08:15.000Z</time></trkpt>
        <trkpt lat="28.489535" lon="104.992478"><ele>797.68414</ele><time>2026-06-19T00:08:17.000Z</time></trkpt>
        <trkpt lat="28.489536" lon="104.992457"><ele>797.68414</ele><time>2026-06-19T00:08:21.000Z</time></trkpt>
        <trkpt lat="28.489542" lon="104.992442"><ele>797.59247</ele><time>2026-06-19T00:08:25.000Z</time></trkpt>
        <trkpt lat="28.489551" lon="104.992419"><ele>797.4558</ele><time>2026-06-19T00:08:31.000Z</time></trkpt>
        <trkpt lat="28.489553" lon="104.99241"><ele>797.0595</ele><time>2026-06-19T00:08:33.000Z</time></trkpt>
        <trkpt lat="28.489556" lon="104.992394"><ele>797.0595</ele><time>2026-06-19T00:08:35.000Z</time></trkpt>
        <trkpt lat="28.48956" lon="104.992374"><ele>797.0595</ele><time>2026-06-19T00:08:37.000Z</time></trkpt>
        <trkpt lat="28.489565" lon="104.992358"><ele>797.0595</ele><time>2026-06-19T00:08:39.000Z</time></trkpt>
        <trkpt lat="28.489574" lon="104.992332"><ele>796.4503</ele><time>2026-06-19T00:08:41.000Z</time></trkpt>
        <trkpt lat="28.489581" lon="104.992311"><ele>796.00336</ele><time>2026-06-19T00:08:43.000Z</time></trkpt>
        <trkpt lat="28.489585" lon="104.992293"><ele>795.77966</ele><time>2026-06-19T00:08:45.000Z</time></trkpt>
        <trkpt lat="28.489589" lon="104.992271"><ele>795.486</ele><time>2026-06-19T00:08:47.000Z</time></trkpt>
        <trkpt lat="28.489591" lon="104.992247"><ele>795.25745</ele><time>2026-06-19T00:08:49.000Z</time></trkpt>
        <trkpt lat="28.489588" lon="104.992223"><ele>795.02423</ele><time>2026-06-19T00:08:51.000Z</time></trkpt>
        <trkpt lat="28.489584" lon="104.992203"><ele>794.5874</ele><time>2026-06-19T00:08:53.000Z</time></trkpt>
        <trkpt lat="28.489581" lon="104.992182"><ele>794.20416</ele><time>2026-06-19T00:08:55.000Z</time></trkpt>
        <trkpt lat="28.48958" lon="104.992158"><ele>793.93567</ele><time>2026-06-19T00:08:57.000Z</time></trkpt>
        <trkpt lat="28.489577" lon="104.992132"><ele>793.8222</ele><time>2026-06-19T00:08:59.000Z</time></trkpt>
        <trkpt lat="28.489572" lon="104.992104"><ele>793.5712</ele><time>2026-06-19T00:09:01.000Z</time></trkpt>
        <trkpt lat="28.489565" lon="104.992074"><ele>793.25793</ele><time>2026-06-19T00:09:03.000Z</time></trkpt>
        <trkpt lat="28.489557" lon="104.992051"><ele>793.25793</ele><time>2026-06-19T00:09:05.000Z</time></trkpt>
        <trkpt lat="28.489548" lon="104.992028"><ele>793.25793</ele><time>2026-06-19T00:09:07.000Z</time></trkpt>
        <trkpt lat="28.489539" lon="104.991996"><ele>793.25793</ele><time>2026-06-19T00:09:09.000Z</time></trkpt>
        <trkpt lat="28.489535" lon="104.991971"><ele>793.25793</ele><time>2026-06-19T00:09:11.000Z</time></trkpt>
        <trkpt lat="28.48953" lon="104.991937"><ele>793.4211</ele><time>2026-06-19T00:09:13.000Z</time></trkpt>
        <trkpt lat="28.489528" lon="104.991902"><ele>793.7369</ele><time>2026-06-19T00:09:15.000Z</time></trkpt>
        <trkpt lat="28.489525" lon="104.991871"><ele>793.83295</ele><time>2026-06-19T00:09:17.000Z</time></trkpt>
        <trkpt lat="28.489525" lon="104.991836"><ele>794.07184</ele><time>2026-06-19T00:09:19.000Z</time></trkpt>
        <trkpt lat="28.489525" lon="104.991807"><ele>794.33154</ele><time>2026-06-19T00:09:21.000Z</time></trkpt>
        <trkpt lat="28.489523" lon="104.991789"><ele>794.47034</ele><time>2026-06-19T00:09:23.000Z</time></trkpt>
        <trkpt lat="28.48952" lon="104.991764"><ele>794.8242</ele><time>2026-06-19T00:09:25.000Z</time></trkpt>
        <trkpt lat="28.489518" lon="104.991745"><ele>795.22296</ele><time>2026-06-19T00:09:27.000Z</time></trkpt>
        <trkpt lat="28.489518" lon="104.991729"><ele>795.5449</ele><time>2026-06-19T00:09:29.000Z</time></trkpt>
        <trkpt lat="28.489517" lon="104.991719"><ele>795.7445</ele><time>2026-06-19T00:09:31.000Z</time></trkpt>
        <trkpt lat="28.489508" lon="104.99169"><ele>795.8217</ele><time>2026-06-19T00:09:35.000Z</time></trkpt>
        <trkpt lat="28.4895" lon="104.99167"><ele>795.947</ele><time>2026-06-19T00:09:37.000Z</time></trkpt>
        <trkpt lat="28.489492" lon="104.99165"><ele>796.0809</ele><time>2026-06-19T00:09:39.000Z</time></trkpt>
        <trkpt lat="28.489485" lon="104.991635"><ele>796.18304</ele><time>2026-06-19T00:09:41.000Z</time></trkpt>
        <trkpt lat="28.489484" lon="104.991624"><ele>796.24457</ele><time>2026-06-19T00:09:43.000Z</time></trkpt>
        <trkpt lat="28.48948" lon="104.991555"><ele>796.3057</ele><time>2026-06-19T00:10:05.000Z</time></trkpt>
        <trkpt lat="28.48948" lon="104.991555"><ele>796.39124</ele><time>2026-06-19T00:10:07.000Z</time></trkpt>
        <trkpt lat="28.48948" lon="104.991555"><ele>796.57916</ele><time>2026-06-19T00:10:09.000Z</time></trkpt>
        <trkpt lat="28.489487" lon="104.991497"><ele>796.7503</ele><time>2026-06-19T00:10:17.000Z</time></trkpt>
        <trkpt lat="28.489489" lon="104.991479"><ele>796.7939</ele><time>2026-06-19T00:10:19.000Z</time></trkpt>
        <trkpt lat="28.489493" lon="104.991458"><ele>796.80133</ele><time>2026-06-19T00:10:21.000Z</time></trkpt>
        <trkpt lat="28.489498" lon="104.991443"><ele>796.8191</ele><time>2026-06-19T00:10:23.000Z</time></trkpt>
        <trkpt lat="28.489502" lon="104.991432"><ele>796.8191</ele><time>2026-06-19T00:10:25.000Z</time></trkpt>
        <trkpt lat="28.48951" lon="104.991415"><ele>796.8191</ele><time>2026-06-19T00:10:27.000Z</time></trkpt>
        <trkpt lat="28.489517" lon="104.9914"><ele>796.80133</ele><time>2026-06-19T00:10:29.000Z</time></trkpt>
        <trkpt lat="28.48952" lon="104.991385"><ele>796.80133</ele><time>2026-06-19T00:10:31.000Z</time></trkpt>
        <trkpt lat="28.489523" lon="104.991369"><ele>796.5581</ele><time>2026-06-19T00:10:33.000Z</time></trkpt>
        <trkpt lat="28.489527" lon="104.991348"><ele>795.9924</ele><time>2026-06-19T00:10:35.000Z</time></trkpt>
        <trkpt lat="28.489528" lon="104.991335"><ele>795.4025</ele><time>2026-06-19T00:10:37.000Z</time></trkpt>
        <trkpt lat="28.489527" lon="104.991324"><ele>794.86005</ele><time>2026-06-19T00:10:39.000Z</time></trkpt>
        <trkpt lat="28.489528" lon="104.991302"><ele>794.4367</ele><time>2026-06-19T00:10:43.000Z</time></trkpt>
        <trkpt lat="28.48953" lon="104.991281"><ele>794.4367</ele><time>2026-06-19T00:10:45.000Z</time></trkpt>
        <trkpt lat="28.489531" lon="104.991257"><ele>794.22473</ele><time>2026-06-19T00:10:47.000Z</time></trkpt>
        <trkpt lat="28.48953" lon="104.991233"><ele>794.10876</ele><time>2026-06-19T00:10:49.000Z</time></trkpt>
        <trkpt lat="28.48953" lon="104.991201"><ele>793.9375</ele><time>2026-06-19T00:10:51.000Z</time></trkpt>
        <trkpt lat="28.489531" lon="104.991177"><ele>793.78796</ele><time>2026-06-19T00:10:53.000Z</time></trkpt>
        <trkpt lat="28.489528" lon="104.991164"><ele>793.7363</ele><time>2026-06-19T00:10:55.000Z</time></trkpt>
        <trkpt lat="28.489524" lon="104.991155"><ele>793.6922</ele><time>2026-06-19T00:10:57.000Z</time></trkpt>
        <trkpt lat="28.48951" lon="104.991121"><ele>793.5372</ele><time>2026-06-19T00:11:01.000Z</time></trkpt>
        <trkpt lat="28.489503" lon="104.991103"><ele>793.5372</ele><time>2026-06-19T00:11:03.000Z</time></trkpt>
        <trkpt lat="28.4895" lon="104.991085"><ele>793.5372</ele><time>2026-06-19T00:11:05.000Z</time></trkpt>
        <trkpt lat="28.4895" lon="104.991076"><ele>793.5372</ele><time>2026-06-19T00:11:07.000Z</time></trkpt>
        <trkpt lat="28.489503" lon="104.991049"><ele>793.5372</ele><time>2026-06-19T00:11:13.000Z</time></trkpt>
        <trkpt lat="28.489506" lon="104.991033"><ele>793.62756</ele><time>2026-06-19T00:11:15.000Z</time></trkpt>
        <trkpt lat="28.489503" lon="104.991018"><ele>793.8999</ele><time>2026-06-19T00:11:17.000Z</time></trkpt>
        <trkpt lat="28.489486" lon="104.99097"><ele>794.1734</ele><time>2026-06-19T00:11:21.000Z</time></trkpt>
        <trkpt lat="28.489476" lon="104.99094"><ele>795.1173</ele><time>2026-06-19T00:11:23.000Z</time></trkpt>
        <trkpt lat="28.489464" lon="104.990905"><ele>795.95245</ele><time>2026-06-19T00:11:25.000Z</time></trkpt>
        <trkpt lat="28.489458" lon="104.990876"><ele>796.20325</ele><time>2026-06-19T00:11:27.000Z</time></trkpt>
        <trkpt lat="28.489457" lon="104.990864"><ele>796.7727</ele><time>2026-06-19T00:11:29.000Z</time></trkpt>
        <trkpt lat="28.489459" lon="104.990859"><ele>797.6083</ele><time>2026-06-19T00:11:31.000Z</time></trkpt>
        <trkpt lat="28.489468" lon="104.990829"><ele>798.6613</ele><time>2026-06-19T00:12:04.000Z</time></trkpt>
        <trkpt lat="28.48947" lon="104.99082"><ele>799.6337</ele><time>2026-06-19T00:12:06.000Z</time></trkpt>
        <trkpt lat="28.489481" lon="104.990806"><ele>800.0245</ele><time>2026-06-19T00:12:08.000Z</time></trkpt>
        <trkpt lat="28.489501" lon="104.990782"><ele>800.0245</ele><time>2026-06-19T00:12:53.000Z</time></trkpt>
        <trkpt lat="28.489527" lon="104.990752"><ele>800.0245</ele><time>2026-06-19T00:13:02.000Z</time></trkpt>
        <trkpt lat="28.489527" lon="104.990752"><ele>800.0245</ele><time>2026-06-19T00:13:04.000Z</time></trkpt>
        <trkpt lat="28.489552" lon="104.990732"><ele>800.0245</ele><time>2026-06-19T00:13:16.000Z</time></trkpt>
        <trkpt lat="28.489479" lon="104.990725"><ele>800.0245</ele><time>2026-06-19T00:13:56.000Z</time></trkpt>
        <trkpt lat="28.489479" lon="104.990725"><ele>800.0245</ele><time>2026-06-19T00:13:58.000Z</time></trkpt>
        <trkpt lat="28.48948" lon="104.990725"><ele>800.0245</ele><time>2026-06-19T00:14:00.000Z</time></trkpt>
        <trkpt lat="28.489551" lon="104.99075"><ele>800.18243</ele><time>2026-06-19T00:19:59.000Z</time></trkpt>
        <trkpt lat="28.489536" lon="104.990745"><ele>799.5962</ele><time>2026-06-19T00:20:16.000Z</time></trkpt>
        <trkpt lat="28.48955" lon="104.990687"><ele>798.20667</ele><time>2026-06-19T00:20:20.000Z</time></trkpt>
        <trkpt lat="28.489566" lon="104.990624"><ele>797.55566</ele><time>2026-06-19T00:20:24.000Z</time></trkpt>
        <trkpt lat="28.489566" lon="104.990624"><ele>797.55566</ele><time>2026-06-19T00:20:26.000Z</time></trkpt>
        <trkpt lat="28.489567" lon="104.99062"><ele>796.9167</ele><time>2026-06-19T00:20:28.000Z</time></trkpt>
        <trkpt lat="28.489593" lon="104.990547"><ele>796.4617</ele><time>2026-06-19T00:20:48.000Z</time></trkpt>
        <trkpt lat="28.489607" lon="104.990507"><ele>794.81006</ele><time>2026-06-19T00:20:51.000Z</time></trkpt>
        <trkpt lat="28.489607" lon="104.990507"><ele>794.28296</ele><time>2026-06-19T00:20:53.000Z</time></trkpt>
        <trkpt lat="28.489609" lon="104.99048"><ele>794.27386</ele><time>2026-06-19T00:20:57.000Z</time></trkpt>
        <trkpt lat="28.489613" lon="104.990456"><ele>794.15015</ele><time>2026-06-19T00:20:59.000Z</time></trkpt>
        <trkpt lat="28.489621" lon="104.990421"><ele>793.47906</ele><time>2026-06-19T00:21:01.000Z</time></trkpt>
        <trkpt lat="28.489625" lon="104.990374"><ele>792.93</ele><time>2026-06-19T00:21:03.000Z</time></trkpt>
        <trkpt lat="28.489621" lon="104.990347"><ele>792.89417</ele><time>2026-06-19T00:21:05.000Z</time></trkpt>
        <trkpt lat="28.489613" lon="104.990328"><ele>792.69617</ele><time>2026-06-19T00:21:07.000Z</time></trkpt>
        <trkpt lat="28.489606" lon="104.990312"><ele>792.3814</ele><time>2026-06-19T00:21:09.000Z</time></trkpt>
        <trkpt lat="28.489598" lon="104.990294"><ele>792.10114</ele><time>2026-06-19T00:21:11.000Z</time></trkpt>
        <trkpt lat="28.489589" lon="104.990275"><ele>791.757</ele><time>2026-06-19T00:21:13.000Z</time></trkpt>
        <trkpt lat="28.489582" lon="104.990254"><ele>791.6219</ele><time>2026-06-19T00:21:15.000Z</time></trkpt>
        <trkpt lat="28.48958" lon="104.990231"><ele>791.6219</ele><time>2026-06-19T00:21:17.000Z</time></trkpt>
        <trkpt lat="28.489581" lon="104.990204"><ele>791.6219</ele><time>2026-06-19T00:21:19.000Z</time></trkpt>
        <trkpt lat="28.489583" lon="104.990182"><ele>791.6219</ele><time>2026-06-19T00:21:21.000Z</time></trkpt>
        <trkpt lat="28.489586" lon="104.990169"><ele>791.6219</ele><time>2026-06-19T00:21:23.000Z</time></trkpt>
        <trkpt lat="28.489585" lon="104.990159"><ele>791.6574</ele><time>2026-06-19T00:21:25.000Z</time></trkpt>
        <trkpt lat="28.489578" lon="104.990115"><ele>791.7158</ele><time>2026-06-19T00:21:29.000Z</time></trkpt>
        <trkpt lat="28.489571" lon="104.990088"><ele>791.79016</ele><time>2026-06-19T00:21:31.000Z</time></trkpt>
        <trkpt lat="28.489564" lon="104.990067"><ele>791.8799</ele><time>2026-06-19T00:21:33.000Z</time></trkpt>
        <trkpt lat="28.489552" lon="104.990045"><ele>791.91614</ele><time>2026-06-19T00:21:35.000Z</time></trkpt>
        <trkpt lat="28.489539" lon="104.990019"><ele>792.2298</ele><time>2026-06-19T00:21:37.000Z</time></trkpt>
        <trkpt lat="28.489531" lon="104.989998"><ele>792.6007</ele><time>2026-06-19T00:21:39.000Z</time></trkpt>
        <trkpt lat="28.489527" lon="104.989977"><ele>793.13196</ele><time>2026-06-19T00:21:41.000Z</time></trkpt>
        <trkpt lat="28.489523" lon="104.989961"><ele>793.87286</ele><time>2026-06-19T00:21:43.000Z</time></trkpt>
        <trkpt lat="28.489521" lon="104.989939"><ele>794.66693</ele><time>2026-06-19T00:21:45.000Z</time></trkpt>
        <trkpt lat="28.48952" lon="104.989917"><ele>795.51715</ele><time>2026-06-19T00:21:47.000Z</time></trkpt>
        <trkpt lat="28.489518" lon="104.9899"><ele>796.1689</ele><time>2026-06-19T00:21:49.000Z</time></trkpt>
        <trkpt lat="28.489516" lon="104.989878"><ele>796.7337</ele><time>2026-06-19T00:21:51.000Z</time></trkpt>
        <trkpt lat="28.489515" lon="104.989849"><ele>797.1468</ele><time>2026-06-19T00:21:53.000Z</time></trkpt>
        <trkpt lat="28.489516" lon="104.989821"><ele>797.56866</ele><time>2026-06-19T00:21:55.000Z</time></trkpt>
        <trkpt lat="28.489515" lon="104.989794"><ele>797.8425</ele><time>2026-06-19T00:21:57.000Z</time></trkpt>
        <trkpt lat="28.489515" lon="104.989778"><ele>797.8751</ele><time>2026-06-19T00:21:59.000Z</time></trkpt>
        <trkpt lat="28.489515" lon="104.989761"><ele>797.8751</ele><time>2026-06-19T00:22:01.000Z</time></trkpt>
        <trkpt lat="28.489514" lon="104.989748"><ele>797.8751</ele><time>2026-06-19T00:22:03.000Z</time></trkpt>
        <trkpt lat="28.489513" lon="104.989733"><ele>797.8751</ele><time>2026-06-19T00:22:05.000Z</time></trkpt>
        <trkpt lat="28.48951" lon="104.989708"><ele>797.8425</ele><time>2026-06-19T00:22:07.000Z</time></trkpt>
        <trkpt lat="28.489508" lon="104.989681"><ele>797.73773</ele><time>2026-06-19T00:22:09.000Z</time></trkpt>
        <trkpt lat="28.489508" lon="104.989654"><ele>797.5731</ele><time>2026-06-19T00:22:11.000Z</time></trkpt>
        <trkpt lat="28.489511" lon="104.989632"><ele>797.1053</ele><time>2026-06-19T00:22:13.000Z</time></trkpt>
        <trkpt lat="28.489513" lon="104.989608"><ele>796.64966</ele><time>2026-06-19T00:22:15.000Z</time></trkpt>
        <trkpt lat="28.489514" lon="104.989585"><ele>796.44104</ele><time>2026-06-19T00:22:17.000Z</time></trkpt>
        <trkpt lat="28.489512" lon="104.98956"><ele>796.25916</ele><time>2026-06-19T00:22:19.000Z</time></trkpt>
        <trkpt lat="28.489508" lon="104.98954"><ele>796.18414</ele><time>2026-06-19T00:22:21.000Z</time></trkpt>
        <trkpt lat="28.489503" lon="104.989521"><ele>796.1448</ele><time>2026-06-19T00:22:23.000Z</time></trkpt>
        <trkpt lat="28.489497" lon="104.989501"><ele>796.0331</ele><time>2026-06-19T00:22:25.000Z</time></trkpt>
        <trkpt lat="28.489494" lon="104.989487"><ele>796.0331</ele><time>2026-06-19T00:22:27.000Z</time></trkpt>
        <trkpt lat="28.489492" lon="104.989473"><ele>796.0331</ele><time>2026-06-19T00:22:29.000Z</time></trkpt>
        <trkpt lat="28.489485" lon="104.989433"><ele>796.0393</ele><time>2026-06-19T00:22:35.000Z</time></trkpt>
        <trkpt lat="28.489481" lon="104.989417"><ele>796.0393</ele><time>2026-06-19T00:22:37.000Z</time></trkpt>
        <trkpt lat="28.489481" lon="104.989409"><ele>796.2862</ele><time>2026-06-19T00:22:39.000Z</time></trkpt>
        <trkpt lat="28.48948" lon="104.989365"><ele>796.7652</ele><time>2026-06-19T00:22:43.000Z</time></trkpt>
        <trkpt lat="28.489478" lon="104.989347"><ele>797.2897</ele><time>2026-06-19T00:22:45.000Z</time></trkpt>
        <trkpt lat="28.489471" lon="104.989332"><ele>797.73175</ele><time>2026-06-19T00:22:47.000Z</time></trkpt>
        <trkpt lat="28.489456" lon="104.989302"><ele>797.76984</ele><time>2026-06-19T00:22:51.000Z</time></trkpt>
        <trkpt lat="28.489439" lon="104.989282"><ele>797.7715</ele><time>2026-06-19T00:22:53.000Z</time></trkpt>
        <trkpt lat="28.489422" lon="104.989265"><ele>797.95435</ele><time>2026-06-19T00:22:55.000Z</time></trkpt>
        <trkpt lat="28.489408" lon="104.989257"><ele>798.1839</ele><time>2026-06-19T00:22:57.000Z</time></trkpt>
        <trkpt lat="28.489392" lon="104.989247"><ele>798.31885</ele><time>2026-06-19T00:23:01.000Z</time></trkpt>
        <trkpt lat="28.489366" lon="104.98923"><ele>798.41016</ele><time>2026-06-19T00:23:05.000Z</time></trkpt>
        <trkpt lat="28.489357" lon="104.989219"><ele>798.5456</ele><time>2026-06-19T00:23:07.000Z</time></trkpt>
        <trkpt lat="28.489343" lon="104.989201"><ele>799.06665</ele><time>2026-06-19T00:23:09.000Z</time></trkpt>
        <trkpt lat="28.489327" lon="104.989177"><ele>799.922</ele><time>2026-06-19T00:23:11.000Z</time></trkpt>
        <trkpt lat="28.489314" lon="104.989152"><ele>800.3872</ele><time>2026-06-19T00:23:13.000Z</time></trkpt>
        <trkpt lat="28.489309" lon="104.989139"><ele>800.4421</ele><time>2026-06-19T00:23:15.000Z</time></trkpt>
        <trkpt lat="28.489304" lon="104.98912"><ele>800.6336</ele><time>2026-06-19T00:23:17.000Z</time></trkpt>
        <trkpt lat="28.489301" lon="104.989103"><ele>800.91077</ele><time>2026-06-19T00:23:19.000Z</time></trkpt>
        <trkpt lat="28.489295" lon="104.989078"><ele>801.1471</ele><time>2026-06-19T00:23:23.000Z</time></trkpt>
        <trkpt lat="28.489291" lon="104.989058"><ele>801.348</ele><time>2026-06-19T00:23:25.000Z</time></trkpt>
        <trkpt lat="28.489288" lon="104.989035"><ele>801.5699</ele><time>2026-06-19T00:23:27.000Z</time></trkpt>
        <trkpt lat="28.489285" lon="104.989009"><ele>801.6524</ele><time>2026-06-19T00:23:29.000Z</time></trkpt>
        <trkpt lat="28.489282" lon="104.988978"><ele>801.6524</ele><time>2026-06-19T00:23:31.000Z</time></trkpt>
        <trkpt lat="28.489278" lon="104.988953"><ele>801.6524</ele><time>2026-06-19T00:23:33.000Z</time></trkpt>
        <trkpt lat="28.489274" lon="104.988927"><ele>801.6524</ele><time>2026-06-19T00:23:35.000Z</time></trkpt>
        <trkpt lat="28.489267" lon="104.988904"><ele>801.6524</ele><time>2026-06-19T00:23:37.000Z</time></trkpt>
        <trkpt lat="28.48926" lon="104.988884"><ele>801.5862</ele><time>2026-06-19T00:23:39.000Z</time></trkpt>
        <trkpt lat="28.489252" lon="104.988862"><ele>801.492</ele><time>2026-06-19T00:23:41.000Z</time></trkpt>
        <trkpt lat="28.489241" lon="104.988845"><ele>801.1905</ele><time>2026-06-19T00:23:43.000Z</time></trkpt>
        <trkpt lat="28.48923" lon="104.98883"><ele>800.86676</ele><time>2026-06-19T00:23:45.000Z</time></trkpt>
        <trkpt lat="28.489225" lon="104.988818"><ele>800.66693</ele><time>2026-06-19T00:23:47.000Z</time></trkpt>
        <trkpt lat="28.489225" lon="104.98881"><ele>800.44836</ele><time>2026-06-19T00:23:49.000Z</time></trkpt>
        <trkpt lat="28.489229" lon="104.988778"><ele>800.38715</ele><time>2026-06-19T00:23:53.000Z</time></trkpt>
        <trkpt lat="28.489233" lon="104.988758"><ele>800.3363</ele><time>2026-06-19T00:23:55.000Z</time></trkpt>
        <trkpt lat="28.489239" lon="104.988742"><ele>800.32446</ele><time>2026-06-19T00:23:57.000Z</time></trkpt>
        <trkpt lat="28.48924" lon="104.988732"><ele>800.2688</ele><time>2026-06-19T00:23:59.000Z</time></trkpt>
        <trkpt lat="28.489237" lon="104.988725"><ele>800.2489</ele><time>2026-06-19T00:24:03.000Z</time></trkpt>
        <trkpt lat="28.489231" lon="104.9887"><ele>800.05115</ele><time>2026-06-19T00:24:13.000Z</time></trkpt>
        <trkpt lat="28.489211" lon="104.988622"><ele>799.6931</ele><time>2026-06-19T00:24:21.000Z</time></trkpt>
        <trkpt lat="28.489211" lon="104.988622"><ele>799.15326</ele><time>2026-06-19T00:24:23.000Z</time></trkpt>
        <trkpt lat="28.489211" lon="104.98862"><ele>798.34064</ele><time>2026-06-19T00:24:25.000Z</time></trkpt>
        <trkpt lat="28.489207" lon="104.988568"><ele>797.6076</ele><time>2026-06-19T00:24:43.000Z</time></trkpt>
        <trkpt lat="28.489207" lon="104.988568"><ele>796.52625</ele><time>2026-06-19T00:24:45.000Z</time></trkpt>
        <trkpt lat="28.489206" lon="104.988567"><ele>795.66504</ele><time>2026-06-19T00:24:47.000Z</time></trkpt>
        <trkpt lat="28.489191" lon="104.988517"><ele>795.66504</ele><time>2026-06-19T00:24:55.000Z</time></trkpt>
        <trkpt lat="28.489187" lon="104.988503"><ele>795.66504</ele><time>2026-06-19T00:24:57.000Z</time></trkpt>
        <trkpt lat="28.489182" lon="104.988481"><ele>795.66504</ele><time>2026-06-19T00:24:59.000Z</time></trkpt>
        <trkpt lat="28.48918" lon="104.988467"><ele>795.66504</ele><time>2026-06-19T00:25:01.000Z</time></trkpt>
        <trkpt lat="28.489183" lon="104.988456"><ele>796.23663</ele><time>2026-06-19T00:25:03.000Z</time></trkpt>
        <trkpt lat="28.489188" lon="104.98844"><ele>797.12506</ele><time>2026-06-19T00:25:05.000Z</time></trkpt>
        <trkpt lat="28.48919" lon="104.98842"><ele>797.2258</ele><time>2026-06-19T00:25:07.000Z</time></trkpt>
        <trkpt lat="28.489191" lon="104.988405"><ele>797.2258</ele><time>2026-06-19T00:25:09.000Z</time></trkpt>
        <trkpt lat="28.489195" lon="104.988384"><ele>797.2258</ele><time>2026-06-19T00:25:11.000Z</time></trkpt>
        <trkpt lat="28.489199" lon="104.988361"><ele>797.2258</ele><time>2026-06-19T00:25:13.000Z</time></trkpt>
        <trkpt lat="28.489203" lon="104.988336"><ele>797.2258</ele><time>2026-06-19T00:25:15.000Z</time></trkpt>
        <trkpt lat="28.489207" lon="104.988311"><ele>796.6266</ele><time>2026-06-19T00:25:17.000Z</time></trkpt>
        <trkpt lat="28.489209" lon="104.988291"><ele>796.2016</ele><time>2026-06-19T00:25:19.000Z</time></trkpt>
        <trkpt lat="28.489209" lon="104.988291"><ele>796.13806</ele><time>2026-06-19T00:25:21.000Z</time></trkpt>
        <trkpt lat="28.489152" lon="104.988285"><ele>796.02856</ele><time>2026-06-19T00:25:29.000Z</time></trkpt>
        <trkpt lat="28.489152" lon="104.988285"><ele>795.9303</ele><time>2026-06-19T00:25:31.000Z</time></trkpt>
        <trkpt lat="28.489151" lon="104.988286"><ele>795.9018</ele><time>2026-06-19T00:25:33.000Z</time></trkpt>
        <trkpt lat="28.489109" lon="104.988307"><ele>795.9018</ele><time>2026-06-19T00:25:39.000Z</time></trkpt>
        <trkpt lat="28.489088" lon="104.988314"><ele>795.9018</ele><time>2026-06-19T00:25:41.000Z</time></trkpt>
        <trkpt lat="28.489066" lon="104.988316"><ele>795.9018</ele><time>2026-06-19T00:25:43.000Z</time></trkpt>
        <trkpt lat="28.48905" lon="104.988311"><ele>796.0636</ele><time>2026-06-19T00:25:45.000Z</time></trkpt>
        <trkpt lat="28.489033" lon="104.988297"><ele>796.39606</ele><time>2026-06-19T00:25:47.000Z</time></trkpt>
        <trkpt lat="28.489021" lon="104.988277"><ele>797.1561</ele><time>2026-06-19T00:25:49.000Z</time></trkpt>
        <trkpt lat="28.489014" lon="104.988252"><ele>797.766</ele><time>2026-06-19T00:25:51.000Z</time></trkpt>
        <trkpt lat="28.489015" lon="104.988231"><ele>798.4575</ele><time>2026-06-19T00:25:53.000Z</time></trkpt>
        <trkpt lat="28.489017" lon="104.98822"><ele>798.93896</ele><time>2026-06-19T00:25:57.000Z</time></trkpt>
        <trkpt lat="28.489017" lon="104.988197"><ele>799.1939</ele><time>2026-06-19T00:25:59.000Z</time></trkpt>
        <trkpt lat="28.489017" lon="104.988164"><ele>799.29755</ele><time>2026-06-19T00:26:01.000Z</time></trkpt>
        <trkpt lat="28.489014" lon="104.98814"><ele>799.29755</ele><time>2026-06-19T00:26:03.000Z</time></trkpt>
        <trkpt lat="28.489011" lon="104.988125"><ele>799.29755</ele><time>2026-06-19T00:26:05.000Z</time></trkpt>
        <trkpt lat="28.489006" lon="104.988117"><ele>799.29755</ele><time>2026-06-19T00:26:07.000Z</time></trkpt>
        <trkpt lat="28.488986" lon="104.988092"><ele>799.29755</ele><time>2026-06-19T00:26:11.000Z</time></trkpt>
        <trkpt lat="28.488982" lon="104.988084"><ele>799.27325</ele><time>2026-06-19T00:26:13.000Z</time></trkpt>
        <trkpt lat="28.488978" lon="104.988072"><ele>799.23376</ele><time>2026-06-19T00:26:15.000Z</time></trkpt>
        <trkpt lat="28.488966" lon="104.988031"><ele>799.23376</ele><time>2026-06-19T00:26:21.000Z</time></trkpt>
        <trkpt lat="28.488961" lon="104.988012"><ele>799.23376</ele><time>2026-06-19T00:26:23.000Z</time></trkpt>
        <trkpt lat="28.488957" lon="104.987992"><ele>799.23376</ele><time>2026-06-19T00:26:25.000Z</time></trkpt>
        <trkpt lat="28.488951" lon="104.987974"><ele>799.21204</ele><time>2026-06-19T00:26:27.000Z</time></trkpt>
        <trkpt lat="28.488945" lon="104.987958"><ele>799.169</ele><time>2026-06-19T00:26:29.000Z</time></trkpt>
        <trkpt lat="28.488934" lon="104.98794"><ele>799.169</ele><time>2026-06-19T00:26:31.000Z</time></trkpt>
        <trkpt lat="28.488934" lon="104.98793"><ele>799.169</ele><time>2026-06-19T00:26:33.000Z</time></trkpt>
        <trkpt lat="28.488935" lon="104.987913"><ele>799.169</ele><time>2026-06-19T00:26:52.000Z</time></trkpt>
        <trkpt lat="28.488942" lon="104.987826"><ele>799.169</ele><time>2026-06-19T00:26:58.000Z</time></trkpt>
        <trkpt lat="28.488942" lon="104.987826"><ele>799.08466</ele><time>2026-06-19T00:27:00.000Z</time></trkpt>
        <trkpt lat="28.488941" lon="104.987823"><ele>798.8974</ele><time>2026-06-19T00:27:02.000Z</time></trkpt>
        <trkpt lat="28.488938" lon="104.987785"><ele>798.6422</ele><time>2026-06-19T00:27:06.000Z</time></trkpt>
        <trkpt lat="28.488932" lon="104.987758"><ele>798.0565</ele><time>2026-06-19T00:27:08.000Z</time></trkpt>
        <trkpt lat="28.488924" lon="104.987734"><ele>797.5914</ele><time>2026-06-19T00:27:10.000Z</time></trkpt>
        <trkpt lat="28.488914" lon="104.987709"><ele>797.55005</ele><time>2026-06-19T00:27:12.000Z</time></trkpt>
        <trkpt lat="28.488901" lon="104.987682"><ele>796.9904</ele><time>2026-06-19T00:27:14.000Z</time></trkpt>
        <trkpt lat="28.48889" lon="104.98766"><ele>796.2309</ele><time>2026-06-19T00:27:16.000Z</time></trkpt>
        <trkpt lat="28.488888" lon="104.987644"><ele>795.9364</ele><time>2026-06-19T00:27:18.000Z</time></trkpt>
        <trkpt lat="28.488885" lon="104.987622"><ele>795.9364</ele><time>2026-06-19T00:27:20.000Z</time></trkpt>
        <trkpt lat="28.48888" lon="104.987605"><ele>795.82654</ele><time>2026-06-19T00:27:22.000Z</time></trkpt>
        <trkpt lat="28.488871" lon="104.987592"><ele>795.7073</ele><time>2026-06-19T00:27:24.000Z</time></trkpt>
        <trkpt lat="28.488859" lon="104.987578"><ele>795.634</ele><time>2026-06-19T00:27:26.000Z</time></trkpt>
        <trkpt lat="28.488848" lon="104.987559"><ele>795.60516</ele><time>2026-06-19T00:27:28.000Z</time></trkpt>
        <trkpt lat="28.48884" lon="104.98754"><ele>795.54803</ele><time>2026-06-19T00:27:30.000Z</time></trkpt>
        <trkpt lat="28.48883" lon="104.987521"><ele>795.60516</ele><time>2026-06-19T00:27:32.000Z</time></trkpt>
        <trkpt lat="28.488821" lon="104.987502"><ele>795.64526</ele><time>2026-06-19T00:27:34.000Z</time></trkpt>
        <trkpt lat="28.48881" lon="104.987481"><ele>795.68756</ele><time>2026-06-19T00:27:36.000Z</time></trkpt>
        <trkpt lat="28.4888" lon="104.987463"><ele>795.68756</ele><time>2026-06-19T00:27:38.000Z</time></trkpt>
        <trkpt lat="28.48879" lon="104.987447"><ele>795.68756</ele><time>2026-06-19T00:27:40.000Z</time></trkpt>
        <trkpt lat="28.488773" lon="104.987425"><ele>795.68756</ele><time>2026-06-19T00:27:42.000Z</time></trkpt>
        <trkpt lat="28.488757" lon="104.987405"><ele>795.83545</ele><time>2026-06-19T00:27:44.000Z</time></trkpt>
        <trkpt lat="28.488748" lon="104.987393"><ele>796.0156</ele><time>2026-06-19T00:27:46.000Z</time></trkpt>
        <trkpt lat="28.488746" lon="104.987384"><ele>796.0829</ele><time>2026-06-19T00:27:50.000Z</time></trkpt>
        <trkpt lat="28.488741" lon="104.987356"><ele>796.2609</ele><time>2026-06-19T00:27:54.000Z</time></trkpt>
        <trkpt lat="28.488737" lon="104.98734"><ele>796.6743</ele><time>2026-06-19T00:27:56.000Z</time></trkpt>
        <trkpt lat="28.48873" lon="104.987326"><ele>797.243</ele><time>2026-06-19T00:27:58.000Z</time></trkpt>
        <trkpt lat="28.488726" lon="104.987306"><ele>797.9224</ele><time>2026-06-19T00:28:02.000Z</time></trkpt>
        <trkpt lat="28.488732" lon="104.987293"><ele>798.41754</ele><time>2026-06-19T00:28:08.000Z</time></trkpt>
        <trkpt lat="28.488755" lon="104.987236"><ele>798.6295</ele><time>2026-06-19T00:28:19.000Z</time></trkpt>
        <trkpt lat="28.488755" lon="104.987236"><ele>798.70514</ele><time>2026-06-19T00:28:21.000Z</time></trkpt>
        <trkpt lat="28.488754" lon="104.987233"><ele>798.70514</ele><time>2026-06-19T00:28:23.000Z</time></trkpt>
        <trkpt lat="28.488732" lon="104.98719"><ele>798.70514</ele><time>2026-06-19T00:28:27.000Z</time></trkpt>
        <trkpt lat="28.488717" lon="104.987157"><ele>798.70654</ele><time>2026-06-19T00:28:29.000Z</time></trkpt>
        <trkpt lat="28.488708" lon="104.987134"><ele>798.746</ele><time>2026-06-19T00:28:31.000Z</time></trkpt>
        <trkpt lat="28.488707" lon="104.98712"><ele>798.8255</ele><time>2026-06-19T00:28:33.000Z</time></trkpt>
        <trkpt lat="28.488703" lon="104.987093"><ele>798.746</ele><time>2026-06-19T00:28:42.000Z</time></trkpt>
        <trkpt lat="28.488695" lon="104.987039"><ele>798.70654</ele><time>2026-06-19T00:28:50.000Z</time></trkpt>
        <trkpt lat="28.488695" lon="104.987039"><ele>798.66956</ele><time>2026-06-19T00:28:52.000Z</time></trkpt>
        <trkpt lat="28.488695" lon="104.987037"><ele>798.59045</ele><time>2026-06-19T00:28:54.000Z</time></trkpt>
        <trkpt lat="28.4887" lon="104.986975"><ele>798.5181</ele><time>2026-06-19T00:29:04.000Z</time></trkpt>
        <trkpt lat="28.4887" lon="104.986974"><ele>798.43365</ele><time>2026-06-19T00:29:06.000Z</time></trkpt>
        <trkpt lat="28.4887" lon="104.986973"><ele>798.3789</ele><time>2026-06-19T00:29:08.000Z</time></trkpt>
        <trkpt lat="28.488704" lon="104.986908"><ele>798.373</ele><time>2026-06-19T00:29:14.000Z</time></trkpt>
        <trkpt lat="28.488708" lon="104.986877"><ele>798.0902</ele><time>2026-06-19T00:29:16.000Z</time></trkpt>
        <trkpt lat="28.48871" lon="104.986851"><ele>797.81226</ele><time>2026-06-19T00:29:18.000Z</time></trkpt>
        <trkpt lat="28.48871" lon="104.986831"><ele>797.7904</ele><time>2026-06-19T00:29:20.000Z</time></trkpt>
        <trkpt lat="28.488714" lon="104.986815"><ele>797.2608</ele><time>2026-06-19T00:29:22.000Z</time></trkpt>
        <trkpt lat="28.488721" lon="104.986799"><ele>796.74066</ele><time>2026-06-19T00:29:24.000Z</time></trkpt>
        <trkpt lat="28.488729" lon="104.986788"><ele>796.6867</ele><time>2026-06-19T00:29:26.000Z</time></trkpt>
        <trkpt lat="28.488743" lon="104.986778"><ele>796.6444</ele><time>2026-06-19T00:29:28.000Z</time></trkpt>
        <trkpt lat="28.488742" lon="104.986775"><ele>796.6162</ele><time>2026-06-19T00:29:30.000Z</time></trkpt>
        <trkpt lat="28.488746" lon="104.986821"><ele>796.5773</ele><time>2026-06-19T00:29:40.000Z</time></trkpt>
        <trkpt lat="28.488744" lon="104.986824"><ele>796.48914</ele><time>2026-06-19T00:29:42.000Z</time></trkpt>
        <trkpt lat="28.488744" lon="104.986825"><ele>796.39197</ele><time>2026-06-19T00:29:44.000Z</time></trkpt>
        <trkpt lat="28.488729" lon="104.986762"><ele>796.39197</ele><time>2026-06-19T00:33:49.000Z</time></trkpt>
        <trkpt lat="28.488767" lon="104.986767"><ele>796.39197</ele><time>2026-06-19T00:33:51.000Z</time></trkpt>
        <trkpt lat="28.488768" lon="104.986769"><ele>796.39197</ele><time>2026-06-19T00:33:53.000Z</time></trkpt>
        <trkpt lat="28.488813" lon="104.986814"><ele>796.3483</ele><time>2026-06-19T00:35:52.000Z</time></trkpt>
        <trkpt lat="28.488824" lon="104.986833"><ele>795.9759</ele><time>2026-06-19T00:35:54.000Z</time></trkpt>
        <trkpt lat="28.488822" lon="104.986841"><ele>795.5771</ele><time>2026-06-19T00:35:56.000Z</time></trkpt>
        <trkpt lat="28.4888" lon="104.986917"><ele>795.4898</ele><time>2026-06-19T00:36:08.000Z</time></trkpt>
        <trkpt lat="28.488795" lon="104.986925"><ele>794.7706</ele><time>2026-06-19T00:36:10.000Z</time></trkpt>
        <trkpt lat="28.488796" lon="104.986928"><ele>793.8203</ele><time>2026-06-19T00:36:12.000Z</time></trkpt>
        <trkpt lat="28.488836" lon="104.987064"><ele>793.4933</ele><time>2026-06-19T00:36:38.000Z</time></trkpt>
        <trkpt lat="28.488836" lon="104.987064"><ele>792.69214</ele><time>2026-06-19T00:36:40.000Z</time></trkpt>
        <trkpt lat="28.488836" lon="104.987063"><ele>791.83685</ele><time>2026-06-19T00:36:42.000Z</time></trkpt>
        <trkpt lat="28.488887" lon="104.987126"><ele>791.7019</ele><time>2026-06-19T00:36:48.000Z</time></trkpt>
        <trkpt lat="28.488887" lon="104.987126"><ele>791.21985</ele><time>2026-06-19T00:36:50.000Z</time></trkpt>
        <trkpt lat="28.488888" lon="104.987126"><ele>790.7587</ele><time>2026-06-19T00:36:52.000Z</time></trkpt>
        <trkpt lat="28.488984" lon="104.987086"><ele>790.74005</ele><time>2026-06-19T00:37:02.000Z</time></trkpt>
        <trkpt lat="28.488984" lon="104.987086"><ele>790.4187</ele><time>2026-06-19T00:37:04.000Z</time></trkpt>
        <trkpt lat="28.488983" lon="104.987084"><ele>790.11456</ele><time>2026-06-19T00:37:06.000Z</time></trkpt>
        <trkpt lat="28.488955" lon="104.987048"><ele>790.0973</ele><time>2026-06-19T00:37:10.000Z</time></trkpt>
        <trkpt lat="28.488936" lon="104.987018"><ele>789.0591</ele><time>2026-06-19T00:37:12.000Z</time></trkpt>
        <trkpt lat="28.488921" lon="104.986985"><ele>788.0374</ele><time>2026-06-19T00:37:14.000Z</time></trkpt>
        <trkpt lat="28.488912" lon="104.986949"><ele>788.01556</ele><time>2026-06-19T00:37:16.000Z</time></trkpt>
        <trkpt lat="28.488908" lon="104.986918"><ele>787.64996</ele><time>2026-06-19T00:37:18.000Z</time></trkpt>
        <trkpt lat="28.488907" lon="104.986889"><ele>786.9464</ele><time>2026-06-19T00:37:20.000Z</time></trkpt>
        <trkpt lat="28.488903" lon="104.986865"><ele>786.2381</ele><time>2026-06-19T00:37:22.000Z</time></trkpt>
        <trkpt lat="28.488898" lon="104.986839"><ele>785.87537</ele><time>2026-06-19T00:37:24.000Z</time></trkpt>
        <trkpt lat="28.488893" lon="104.98681"><ele>785.7117</ele><time>2026-06-19T00:37:26.000Z</time></trkpt>
        <trkpt lat="28.488893" lon="104.986793"><ele>785.3116</ele><time>2026-06-19T00:37:28.000Z</time></trkpt>
        <trkpt lat="28.488895" lon="104.98677"><ele>785.0929</ele><time>2026-06-19T00:37:30.000Z</time></trkpt>
        <trkpt lat="28.488899" lon="104.986741"><ele>785.0929</ele><time>2026-06-19T00:37:32.000Z</time></trkpt>
        <trkpt lat="28.488904" lon="104.986719"><ele>785.0929</ele><time>2026-06-19T00:37:34.000Z</time></trkpt>
        <trkpt lat="28.488911" lon="104.986706"><ele>785.0929</ele><time>2026-06-19T00:37:36.000Z</time></trkpt>
        <trkpt lat="28.488922" lon="104.986667"><ele>785.0929</ele><time>2026-06-19T00:37:44.000Z</time></trkpt>
        <trkpt lat="28.488918" lon="104.986659"><ele>785.26105</ele><time>2026-06-19T00:37:46.000Z</time></trkpt>
        <trkpt lat="28.488911" lon="104.986644"><ele>785.7583</ele><time>2026-06-19T00:37:48.000Z</time></trkpt>
        <trkpt lat="28.488896" lon="104.986604"><ele>786.5581</ele><time>2026-06-19T00:37:52.000Z</time></trkpt>
        <trkpt lat="28.488889" lon="104.986576"><ele>787.0107</ele><time>2026-06-19T00:37:54.000Z</time></trkpt>
        <trkpt lat="28.488875" lon="104.986554"><ele>787.0165</ele><time>2026-06-19T00:37:56.000Z</time></trkpt>
        <trkpt lat="28.488812" lon="104.986455"><ele>787.22266</ele><time>2026-06-19T00:38:02.000Z</time></trkpt>
        <trkpt lat="28.488812" lon="104.986455"><ele>787.53455</ele><time>2026-06-19T00:38:04.000Z</time></trkpt>
        <trkpt lat="28.488814" lon="104.986452"><ele>787.7098</ele><time>2026-06-19T00:38:06.000Z</time></trkpt>
        <trkpt lat="28.488837" lon="104.986405"><ele>787.7098</ele><time>2026-06-19T00:38:10.000Z</time></trkpt>
        <trkpt lat="28.488846" lon="104.986374"><ele>787.60614</ele><time>2026-06-19T00:38:12.000Z</time></trkpt>
        <trkpt lat="28.488853" lon="104.986334"><ele>787.43085</ele><time>2026-06-19T00:38:14.000Z</time></trkpt>
        <trkpt lat="28.488853" lon="104.986303"><ele>787.43085</ele><time>2026-06-19T00:38:16.000Z</time></trkpt>
        <trkpt lat="28.488844" lon="104.986277"><ele>787.26843</ele><time>2026-06-19T00:38:18.000Z</time></trkpt>
        <trkpt lat="28.488827" lon="104.986253"><ele>787.26843</ele><time>2026-06-19T00:38:20.000Z</time></trkpt>
        <trkpt lat="28.48881" lon="104.986231"><ele>787.26843</ele><time>2026-06-19T00:38:22.000Z</time></trkpt>
        <trkpt lat="28.488793" lon="104.986215"><ele>787.06995</ele><time>2026-06-19T00:38:24.000Z</time></trkpt>
        <trkpt lat="28.488767" lon="104.986195"><ele>787.01685</ele><time>2026-06-19T00:38:26.000Z</time></trkpt>
        <trkpt lat="28.488733" lon="104.986166"><ele>786.4474</ele><time>2026-06-19T00:38:28.000Z</time></trkpt>
        <trkpt lat="28.488709" lon="104.986141"><ele>785.52637</ele><time>2026-06-19T00:38:30.000Z</time></trkpt>
        <trkpt lat="28.488695" lon="104.986119"><ele>785.2272</ele><time>2026-06-19T00:38:32.000Z</time></trkpt>
        <trkpt lat="28.488682" lon="104.986094"><ele>785.2272</ele><time>2026-06-19T00:38:34.000Z</time></trkpt>
        <trkpt lat="28.488676" lon="104.986072"><ele>785.2272</ele><time>2026-06-19T00:38:36.000Z</time></trkpt>
        <trkpt lat="28.488671" lon="104.986049"><ele>785.2272</ele><time>2026-06-19T00:38:38.000Z</time></trkpt>
        <trkpt lat="28.488669" lon="104.986026"><ele>785.2272</ele><time>2026-06-19T00:38:40.000Z</time></trkpt>
        <trkpt lat="28.488669" lon="104.986007"><ele>785.681</ele><time>2026-06-19T00:38:42.000Z</time></trkpt>
        <trkpt lat="28.488666" lon="104.985993"><ele>786.3736</ele><time>2026-06-19T00:38:44.000Z</time></trkpt>
        <trkpt lat="28.488672" lon="104.98598"><ele>787.13074</ele><time>2026-06-19T00:38:46.000Z</time></trkpt>
        <trkpt lat="28.488704" lon="104.985908"><ele>787.6292</ele><time>2026-06-19T00:38:52.000Z</time></trkpt>
        <trkpt lat="28.488704" lon="104.985908"><ele>787.86615</ele><time>2026-06-19T00:38:54.000Z</time></trkpt>
        <trkpt lat="28.488703" lon="104.985906"><ele>788.04974</ele><time>2026-06-19T00:38:56.000Z</time></trkpt>
        <trkpt lat="28.488671" lon="104.985872"><ele>788.04974</ele><time>2026-06-19T00:39:00.000Z</time></trkpt>
        <trkpt lat="28.488654" lon="104.985851"><ele>788.04974</ele><time>2026-06-19T00:39:02.000Z</time></trkpt>
        <trkpt lat="28.488636" lon="104.985829"><ele>788.04974</ele><time>2026-06-19T00:39:04.000Z</time></trkpt>
        <trkpt lat="28.488614" lon="104.985807"><ele>788.04974</ele><time>2026-06-19T00:39:06.000Z</time></trkpt>
        <trkpt lat="28.488596" lon="104.985787"><ele>788.00244</ele><time>2026-06-19T00:39:08.000Z</time></trkpt>
        <trkpt lat="28.488587" lon="104.985773"><ele>788.0081</ele><time>2026-06-19T00:39:10.000Z</time></trkpt>
        <trkpt lat="28.488583" lon="104.985758"><ele>788.0463</ele><time>2026-06-19T00:39:12.000Z</time></trkpt>
        <trkpt lat="28.488579" lon="104.985737"><ele>788.0463</ele><time>2026-06-19T00:39:14.000Z</time></trkpt>
        <trkpt lat="28.488577" lon="104.985711"><ele>788.04767</ele><time>2026-06-19T00:39:16.000Z</time></trkpt>
        <trkpt lat="28.488575" lon="104.98568"><ele>788.0698</ele><time>2026-06-19T00:39:18.000Z</time></trkpt>
        <trkpt lat="28.488578" lon="104.985647"><ele>788.23</ele><time>2026-06-19T00:39:20.000Z</time></trkpt>
        <trkpt lat="28.488582" lon="104.985619"><ele>788.4962</ele><time>2026-06-19T00:39:22.000Z</time></trkpt>
        <trkpt lat="28.488589" lon="104.985592"><ele>788.76294</ele><time>2026-06-19T00:39:24.000Z</time></trkpt>
        <trkpt lat="28.488592" lon="104.985575"><ele>788.76294</ele><time>2026-06-19T00:39:26.000Z</time></trkpt>
        <trkpt lat="28.488595" lon="104.98557"><ele>788.76294</ele><time>2026-06-19T00:39:28.000Z</time></trkpt>
        <trkpt lat="28.488604" lon="104.985556"><ele>788.76294</ele><time>2026-06-19T00:39:32.000Z</time></trkpt>
        <trkpt lat="28.488628" lon="104.985515"><ele>788.76294</ele><time>2026-06-19T00:39:37.000Z</time></trkpt>
        <trkpt lat="28.488628" lon="104.985515"><ele>788.5537</ele><time>2026-06-19T00:39:39.000Z</time></trkpt>
        <trkpt lat="28.488629" lon="104.985512"><ele>788.1603</ele><time>2026-06-19T00:39:41.000Z</time></trkpt>
        <trkpt lat="28.488633" lon="104.985468"><ele>787.70667</ele><time>2026-06-19T00:39:45.000Z</time></trkpt>
        <trkpt lat="28.488636" lon="104.985434"><ele>786.8359</ele><time>2026-06-19T00:39:47.000Z</time></trkpt>
        <trkpt lat="28.48864" lon="104.9854"><ele>786.1765</ele><time>2026-06-19T00:39:49.000Z</time></trkpt>
        <trkpt lat="28.488645" lon="104.985366"><ele>786.1699</ele><time>2026-06-19T00:39:51.000Z</time></trkpt>
        <trkpt lat="28.488646" lon="104.985336"><ele>785.63983</ele><time>2026-06-19T00:39:53.000Z</time></trkpt>
        <trkpt lat="28.48864" lon="104.98532"><ele>784.88965</ele><time>2026-06-19T00:39:55.000Z</time></trkpt>
        <trkpt lat="28.48863" lon="104.985301"><ele>783.9411</ele><time>2026-06-19T00:39:57.000Z</time></trkpt>
        <trkpt lat="28.488618" lon="104.985289"><ele>782.65186</ele><time>2026-06-19T00:39:59.000Z</time></trkpt>
        <trkpt lat="28.488606" lon="104.985275"><ele>781.5946</ele><time>2026-06-19T00:40:01.000Z</time></trkpt>
        <trkpt lat="28.488597" lon="104.985259"><ele>780.5719</ele><time>2026-06-19T00:40:03.000Z</time></trkpt>
        <trkpt lat="28.488587" lon="104.985243"><ele>779.6088</ele><time>2026-06-19T00:40:05.000Z</time></trkpt>
        <trkpt lat="28.488581" lon="104.985223"><ele>779.182</ele><time>2026-06-19T00:40:07.000Z</time></trkpt>
        <trkpt lat="28.488581" lon="104.98521"><ele>779.182</ele><time>2026-06-19T00:40:09.000Z</time></trkpt>
        <trkpt lat="28.488581" lon="104.985204"><ele>779.14996</ele><time>2026-06-19T00:40:11.000Z</time></trkpt>
        <trkpt lat="28.488585" lon="104.985124"><ele>779.14996</ele><time>2026-06-19T00:40:18.000Z</time></trkpt>
        <trkpt lat="28.488585" lon="104.985124"><ele>779.14996</ele><time>2026-06-19T00:40:20.000Z</time></trkpt>
        <trkpt lat="28.488585" lon="104.985121"><ele>779.15967</ele><time>2026-06-19T00:40:22.000Z</time></trkpt>
        <trkpt lat="28.488567" lon="104.985088"><ele>779.15967</ele><time>2026-06-19T00:40:26.000Z</time></trkpt>
        <trkpt lat="28.488551" lon="104.985059"><ele>779.15967</ele><time>2026-06-19T00:40:28.000Z</time></trkpt>
        <trkpt lat="28.48854" lon="104.985029"><ele>779.15967</ele><time>2026-06-19T00:40:30.000Z</time></trkpt>
        <trkpt lat="28.488532" lon="104.984999"><ele>779.15967</ele><time>2026-06-19T00:40:32.000Z</time></trkpt>
        <trkpt lat="28.488531" lon="104.984968"><ele>779.1252</ele><time>2026-06-19T00:40:34.000Z</time></trkpt>
        <trkpt lat="28.488531" lon="104.984939"><ele>779.1252</ele><time>2026-06-19T00:40:36.000Z</time></trkpt>
        <trkpt lat="28.488534" lon="104.984912"><ele>779.03467</ele><time>2026-06-19T00:40:38.000Z</time></trkpt>
        <trkpt lat="28.488539" lon="104.984881"><ele>778.91046</ele><time>2026-06-19T00:40:40.000Z</time></trkpt>
        <trkpt lat="28.488541" lon="104.984849"><ele>778.8262</ele><time>2026-06-19T00:40:42.000Z</time></trkpt>
        <trkpt lat="28.48854" lon="104.984822"><ele>778.7592</ele><time>2026-06-19T00:40:44.000Z</time></trkpt>
        <trkpt lat="28.488537" lon="104.984794"><ele>778.7165</ele><time>2026-06-19T00:40:46.000Z</time></trkpt>
        <trkpt lat="28.488535" lon="104.984774"><ele>778.6906</ele><time>2026-06-19T00:40:48.000Z</time></trkpt>
        <trkpt lat="28.488533" lon="104.984769"><ele>778.64545</ele><time>2026-06-19T00:40:50.000Z</time></trkpt>
        <trkpt lat="28.48852" lon="104.984751"><ele>778.3934</ele><time>2026-06-19T00:40:56.000Z</time></trkpt>
        <trkpt lat="28.488508" lon="104.984735"><ele>778.1815</ele><time>2026-06-19T00:40:58.000Z</time></trkpt>
        <trkpt lat="28.488501" lon="104.984724"><ele>778.1815</ele><time>2026-06-19T00:41:00.000Z</time></trkpt>
        <trkpt lat="28.488496" lon="104.98472"><ele>778.1815</ele><time>2026-06-19T00:41:02.000Z</time></trkpt>
        <trkpt lat="28.488484" lon="104.984707"><ele>778.1815</ele><time>2026-06-19T00:41:04.000Z</time></trkpt>
        <trkpt lat="28.488473" lon="104.984692"><ele>778.1815</ele><time>2026-06-19T00:41:06.000Z</time></trkpt>
        <trkpt lat="28.48847" lon="104.984678"><ele>778.4343</ele><time>2026-06-19T00:41:08.000Z</time></trkpt>
        <trkpt lat="28.488474" lon="104.984662"><ele>778.90704</ele><time>2026-06-19T00:41:10.000Z</time></trkpt>
        <trkpt lat="28.488481" lon="104.984639"><ele>779.418</ele><time>2026-06-19T00:41:12.000Z</time></trkpt>
        <trkpt lat="28.488488" lon="104.984615"><ele>779.86694</ele><time>2026-06-19T00:41:14.000Z</time></trkpt>
        <trkpt lat="28.488491" lon="104.984587"><ele>780.16956</ele><time>2026-06-19T00:41:16.000Z</time></trkpt>
        <trkpt lat="28.488491" lon="104.984563"><ele>780.16956</ele><time>2026-06-19T00:41:18.000Z</time></trkpt>
        <trkpt lat="28.488494" lon="104.984533"><ele>780.16956</ele><time>2026-06-19T00:41:20.000Z</time></trkpt>
        <trkpt lat="28.488498" lon="104.984495"><ele>780.16956</ele><time>2026-06-19T00:41:22.000Z</time></trkpt>
        <trkpt lat="28.488499" lon="104.984463"><ele>780.16956</ele><time>2026-06-19T00:41:24.000Z</time></trkpt>
        <trkpt lat="28.488495" lon="104.984434"><ele>779.9958</ele><time>2026-06-19T00:41:26.000Z</time></trkpt>
        <trkpt lat="28.488493" lon="104.984407"><ele>779.68335</ele><time>2026-06-19T00:41:28.000Z</time></trkpt>
        <trkpt lat="28.488492" lon="104.984384"><ele>779.6715</ele><time>2026-06-19T00:41:30.000Z</time></trkpt>
        <trkpt lat="28.488491" lon="104.984364"><ele>779.64545</ele><time>2026-06-19T00:41:32.000Z</time></trkpt>
        <trkpt lat="28.488486" lon="104.984347"><ele>779.6213</ele><time>2026-06-19T00:41:34.000Z</time></trkpt>
        <trkpt lat="28.48848" lon="104.98433"><ele>779.5081</ele><time>2026-06-19T00:41:36.000Z</time></trkpt>
        <trkpt lat="28.488475" lon="104.984311"><ele>779.5347</ele><time>2026-06-19T00:41:38.000Z</time></trkpt>
        <trkpt lat="28.488472" lon="104.984289"><ele>779.6213</ele><time>2026-06-19T00:41:40.000Z</time></trkpt>
        <trkpt lat="28.488468" lon="104.984268"><ele>779.6213</ele><time>2026-06-19T00:41:42.000Z</time></trkpt>
        <trkpt lat="28.488467" lon="104.984245"><ele>779.64453</ele><time>2026-06-19T00:41:44.000Z</time></trkpt>
        <trkpt lat="28.488471" lon="104.984224"><ele>779.5412</ele><time>2026-06-19T00:41:46.000Z</time></trkpt>
        <trkpt lat="28.488476" lon="104.984196"><ele>779.5412</ele><time>2026-06-19T00:41:48.000Z</time></trkpt>
        <trkpt lat="28.488478" lon="104.984179"><ele>779.7096</ele><time>2026-06-19T00:41:50.000Z</time></trkpt>
        <trkpt lat="28.488483" lon="104.984163"><ele>779.8572</ele><time>2026-06-19T00:41:52.000Z</time></trkpt>
        <trkpt lat="28.488485" lon="104.984142"><ele>779.9562</ele><time>2026-06-19T00:41:54.000Z</time></trkpt>
        <trkpt lat="28.488482" lon="104.984125"><ele>780.01575</ele><time>2026-06-19T00:41:56.000Z</time></trkpt>
        <trkpt lat="28.488477" lon="104.984114"><ele>780.10144</ele><time>2026-06-19T00:41:58.000Z</time></trkpt>
        <trkpt lat="28.488473" lon="104.98411"><ele>780.334</ele><time>2026-06-19T00:42:00.000Z</time></trkpt>
        <trkpt lat="28.488461" lon="104.984092"><ele>780.2673</ele><time>2026-06-19T00:42:14.000Z</time></trkpt>
        <trkpt lat="28.488443" lon="104.984063"><ele>780.2673</ele><time>2026-06-19T00:42:17.000Z</time></trkpt>
        <trkpt lat="28.488443" lon="104.984063"><ele>780.2673</ele><time>2026-06-19T00:42:19.000Z</time></trkpt>
        <trkpt lat="28.488442" lon="104.984059"><ele>780.2673</ele><time>2026-06-19T00:42:21.000Z</time></trkpt>
        <trkpt lat="28.488438" lon="104.984"><ele>779.96265</ele><time>2026-06-19T00:42:25.000Z</time></trkpt>
        <trkpt lat="28.488433" lon="104.98396"><ele>779.28766</ele><time>2026-06-19T00:42:27.000Z</time></trkpt>
        <trkpt lat="28.488429" lon="104.983913"><ele>779.1255</ele><time>2026-06-19T00:42:29.000Z</time></trkpt>
        <trkpt lat="28.488422" lon="104.983873"><ele>779.09766</ele><time>2026-06-19T00:42:31.000Z</time></trkpt>
        <trkpt lat="28.488419" lon="104.98384"><ele>779.00653</ele><time>2026-06-19T00:42:33.000Z</time></trkpt>
        <trkpt lat="28.488423" lon="104.983812"><ele>778.885</ele><time>2026-06-19T00:42:35.000Z</time></trkpt>
        <trkpt lat="28.488428" lon="104.983786"><ele>779.00653</ele><time>2026-06-19T00:42:37.000Z</time></trkpt>
        <trkpt lat="28.488431" lon="104.983764"><ele>778.885</ele><time>2026-06-19T00:42:39.000Z</time></trkpt>
        <trkpt lat="28.488429" lon="104.983747"><ele>778.8142</ele><time>2026-06-19T00:42:41.000Z</time></trkpt>
        <trkpt lat="28.488422" lon="104.983733"><ele>778.7757</ele><time>2026-06-19T00:42:43.000Z</time></trkpt>
        <trkpt lat="28.48841" lon="104.983717"><ele>778.76117</ele><time>2026-06-19T00:42:45.000Z</time></trkpt>
        <trkpt lat="28.488397" lon="104.983702"><ele>778.7427</ele><time>2026-06-19T00:42:47.000Z</time></trkpt>
        <trkpt lat="28.488386" lon="104.983686"><ele>778.15247</ele><time>2026-06-19T00:42:49.000Z</time></trkpt>
        <trkpt lat="28.488379" lon="104.983668"><ele>777.13885</ele><time>2026-06-19T00:42:51.000Z</time></trkpt>
        <trkpt lat="28.488375" lon="104.983649"><ele>776.4668</ele><time>2026-06-19T00:42:53.000Z</time></trkpt>
        <trkpt lat="28.488374" lon="104.983628"><ele>775.66156</ele><time>2026-06-19T00:42:55.000Z</time></trkpt>
        <trkpt lat="28.488374" lon="104.983605"><ele>774.82587</ele><time>2026-06-19T00:42:57.000Z</time></trkpt>
        <trkpt lat="28.48837" lon="104.983579"><ele>774.3332</ele><time>2026-06-19T00:42:59.000Z</time></trkpt>
        <trkpt lat="28.488365" lon="104.983553"><ele>773.55853</ele><time>2026-06-19T00:43:01.000Z</time></trkpt>
        <trkpt lat="28.488359" lon="104.983524"><ele>772.3712</ele><time>2026-06-19T00:43:03.000Z</time></trkpt>
        <trkpt lat="28.488353" lon="104.983496"><ele>771.64154</ele><time>2026-06-19T00:43:05.000Z</time></trkpt>
        <trkpt lat="28.488347" lon="104.983471"><ele>771.0261</ele><time>2026-06-19T00:43:07.000Z</time></trkpt>
        <trkpt lat="28.488342" lon="104.983452"><ele>769.9369</ele><time>2026-06-19T00:43:09.000Z</time></trkpt>
        <trkpt lat="28.488332" lon="104.983436"><ele>768.9692</ele><time>2026-06-19T00:43:11.000Z</time></trkpt>
        <trkpt lat="28.488317" lon="104.98342"><ele>768.38385</ele><time>2026-06-19T00:43:13.000Z</time></trkpt>
        <trkpt lat="28.488302" lon="104.9834"><ele>767.7738</ele><time>2026-06-19T00:43:15.000Z</time></trkpt>
        <trkpt lat="28.488286" lon="104.983381"><ele>766.95074</ele><time>2026-06-19T00:43:17.000Z</time></trkpt>
        <trkpt lat="28.48827" lon="104.983365"><ele>766.541</ele><time>2026-06-19T00:43:19.000Z</time></trkpt>
        <trkpt lat="28.488258" lon="104.983348"><ele>766.3878</ele><time>2026-06-19T00:43:21.000Z</time></trkpt>
        <trkpt lat="28.488247" lon="104.983332"><ele>766.1383</ele><time>2026-06-19T00:43:23.000Z</time></trkpt>
        <trkpt lat="28.48824" lon="104.983319"><ele>765.89813</ele><time>2026-06-19T00:43:25.000Z</time></trkpt>
        <trkpt lat="28.488232" lon="104.983302"><ele>765.75635</ele><time>2026-06-19T00:43:27.000Z</time></trkpt>
        <trkpt lat="28.48822" lon="104.98328"><ele>765.69464</ele><time>2026-06-19T00:43:29.000Z</time></trkpt>
        <trkpt lat="28.488209" lon="104.983255"><ele>765.6023</ele><time>2026-06-19T00:43:31.000Z</time></trkpt>
        <trkpt lat="28.488201" lon="104.983236"><ele>765.55524</ele><time>2026-06-19T00:43:33.000Z</time></trkpt>
        <trkpt lat="28.488193" lon="104.983217"><ele>765.4846</ele><time>2026-06-19T00:43:35.000Z</time></trkpt>
        <trkpt lat="28.488188" lon="104.983202"><ele>765.3123</ele><time>2026-06-19T00:43:37.000Z</time></trkpt>
        <trkpt lat="28.488185" lon="104.983188"><ele>764.7809</ele><time>2026-06-19T00:43:39.000Z</time></trkpt>
        <trkpt lat="28.488179" lon="104.983185"><ele>764.2886</ele><time>2026-06-19T00:43:41.000Z</time></trkpt>
        <trkpt lat="28.488131" lon="104.983162"><ele>763.92737</ele><time>2026-06-19T00:43:55.000Z</time></trkpt>
        <trkpt lat="28.488131" lon="104.983162"><ele>763.5334</ele><time>2026-06-19T00:43:57.000Z</time></trkpt>
        <trkpt lat="28.488129" lon="104.983159"><ele>763.3367</ele><time>2026-06-19T00:43:59.000Z</time></trkpt>
        <trkpt lat="28.488086" lon="104.983099"><ele>763.0027</ele><time>2026-06-19T00:44:05.000Z</time></trkpt>
        <trkpt lat="28.488074" lon="104.983081"><ele>762.55005</ele><time>2026-06-19T00:44:07.000Z</time></trkpt>
        <trkpt lat="28.488067" lon="104.983066"><ele>762.36426</ele><time>2026-06-19T00:44:09.000Z</time></trkpt>
        <trkpt lat="28.488059" lon="104.983053"><ele>762.2443</ele><time>2026-06-19T00:44:13.000Z</time></trkpt>
        <trkpt lat="28.488021" lon="104.983002"><ele>762.2443</ele><time>2026-06-19T00:45:51.000Z</time></trkpt>
        <trkpt lat="28.487996" lon="104.982968"><ele>762.2443</ele><time>2026-06-19T00:45:53.000Z</time></trkpt>
        <trkpt lat="28.487994" lon="104.982968"><ele>762.2443</ele><time>2026-06-19T00:45:55.000Z</time></trkpt>
        <trkpt lat="28.487931" lon="104.982966"><ele>762.2443</ele><time>2026-06-19T00:46:05.000Z</time></trkpt>
        <trkpt lat="28.487907" lon="104.982968"><ele>762.2443</ele><time>2026-06-19T00:46:09.000Z</time></trkpt>
        <trkpt lat="28.487906" lon="104.982966"><ele>762.2443</ele><time>2026-06-19T00:46:11.000Z</time></trkpt>
        <trkpt lat="28.487864" lon="104.982915"><ele>762.2443</ele><time>2026-06-19T00:46:19.000Z</time></trkpt>
        <trkpt lat="28.487858" lon="104.98291"><ele>761.876</ele><time>2026-06-19T00:46:21.000Z</time></trkpt>
        <trkpt lat="28.487853" lon="104.982903"><ele>761.2233</ele><time>2026-06-19T00:46:23.000Z</time></trkpt>
        <trkpt lat="28.48782" lon="104.982863"><ele>760.83575</ele><time>2026-06-19T00:46:31.000Z</time></trkpt>
        <trkpt lat="28.487807" lon="104.982854"><ele>760.7972</ele><time>2026-06-19T00:46:33.000Z</time></trkpt>
        <trkpt lat="28.487795" lon="104.982852"><ele>760.7972</ele><time>2026-06-19T00:46:35.000Z</time></trkpt>
        <trkpt lat="28.487765" lon="104.982846"><ele>760.7972</ele><time>2026-06-19T00:46:39.000Z</time></trkpt>
        <trkpt lat="28.487746" lon="104.982874"><ele>760.7972</ele><time>2026-06-19T00:46:43.000Z</time></trkpt>
        <trkpt lat="28.487741" lon="104.982883"><ele>760.833</ele><time>2026-06-19T00:46:44.000Z</time></trkpt>
        <trkpt lat="28.487723" lon="104.982897"><ele>760.8398</ele><time>2026-06-19T00:46:48.000Z</time></trkpt>
        <trkpt lat="28.487697" lon="104.982904"><ele>761.2419</ele><time>2026-06-19T00:46:54.000Z</time></trkpt>
        <trkpt lat="28.487697" lon="104.982908"><ele>762.12695</ele><time>2026-06-19T00:46:56.000Z</time></trkpt>
        <trkpt lat="28.4877" lon="104.982843"><ele>762.362</ele><time>2026-06-19T00:47:11.000Z</time></trkpt>
        <trkpt lat="28.4877" lon="104.982843"><ele>762.3621</ele><time>2026-06-19T00:47:13.000Z</time></trkpt>
        <trkpt lat="28.487697" lon="104.982843"><ele>762.3634</ele><time>2026-06-19T00:47:15.000Z</time></trkpt>
        <trkpt lat="28.487597" lon="104.982847"><ele>762.76227</ele><time>2026-06-19T00:47:20.000Z</time></trkpt>
        <trkpt lat="28.487597" lon="104.982847"><ele>762.9165</ele><time>2026-06-19T00:47:22.000Z</time></trkpt>
        <trkpt lat="28.487594" lon="104.982846"><ele>762.9312</ele><time>2026-06-19T00:47:24.000Z</time></trkpt>
        <trkpt lat="28.487545" lon="104.982824"><ele>762.9312</ele><time>2026-06-19T00:47:28.000Z</time></trkpt>
        <trkpt lat="28.487517" lon="104.98281"><ele>762.9312</ele><time>2026-06-19T00:47:30.000Z</time></trkpt>
        <trkpt lat="28.48749" lon="104.982795"><ele>762.9312</ele><time>2026-06-19T00:47:32.000Z</time></trkpt>
        <trkpt lat="28.487466" lon="104.982782"><ele>762.9312</ele><time>2026-06-19T00:47:34.000Z</time></trkpt>
        <trkpt lat="28.487444" lon="104.982768"><ele>763.08875</ele><time>2026-06-19T00:47:36.000Z</time></trkpt>
        <trkpt lat="28.487425" lon="104.982749"><ele>763.8561</ele><time>2026-06-19T00:47:38.000Z</time></trkpt>
        <trkpt lat="28.487405" lon="104.982724"><ele>764.3877</ele><time>2026-06-19T00:47:40.000Z</time></trkpt>
        <trkpt lat="28.487387" lon="104.982699"><ele>764.3877</ele><time>2026-06-19T00:47:42.000Z</time></trkpt>
        <trkpt lat="28.487371" lon="104.982682"><ele>764.3877</ele><time>2026-06-19T00:47:44.000Z</time></trkpt>
        <trkpt lat="28.487355" lon="104.982665"><ele>764.3877</ele><time>2026-06-19T00:47:46.000Z</time></trkpt>
        <trkpt lat="28.487339" lon="104.982656"><ele>764.3877</ele><time>2026-06-19T00:47:48.000Z</time></trkpt>
        <trkpt lat="28.487329" lon="104.982651"><ele>763.81647</ele><time>2026-06-19T00:47:50.000Z</time></trkpt>
        <trkpt lat="28.487304" lon="104.982636"><ele>762.7824</ele><time>2026-06-19T00:47:54.000Z</time></trkpt>
        <trkpt lat="28.487289" lon="104.982631"><ele>761.8035</ele><time>2026-06-19T00:48:02.000Z</time></trkpt>
        <trkpt lat="28.487255" lon="104.982618"><ele>761.09406</ele><time>2026-06-19T00:48:08.000Z</time></trkpt>
        <trkpt lat="28.487255" lon="104.982618"><ele>760.60583</ele><time>2026-06-19T00:48:10.000Z</time></trkpt>
        <trkpt lat="28.487234" lon="104.982597"><ele>760.0297</ele><time>2026-06-19T00:48:16.000Z</time></trkpt>
        <trkpt lat="28.48722" lon="104.982583"><ele>758.6245</ele><time>2026-06-19T00:48:18.000Z</time></trkpt>
        <trkpt lat="28.487204" lon="104.982568"><ele>757.0642</ele><time>2026-06-19T00:48:20.000Z</time></trkpt>
        <trkpt lat="28.48719" lon="104.982553"><ele>756.535</ele><time>2026-06-19T00:48:22.000Z</time></trkpt>
        <trkpt lat="28.487176" lon="104.982537"><ele>756.4713</ele><time>2026-06-19T00:48:24.000Z</time></trkpt>
        <trkpt lat="28.487168" lon="104.982539"><ele>756.12115</ele><time>2026-06-19T00:48:26.000Z</time></trkpt>
        <trkpt lat="28.48729" lon="104.98251"><ele>755.7328</ele><time>2026-06-19T00:48:45.000Z</time></trkpt>
        <trkpt lat="28.48729" lon="104.98251"><ele>755.34375</ele><time>2026-06-19T00:48:47.000Z</time></trkpt>
        <trkpt lat="28.487276" lon="104.982469"><ele>754.8864</ele><time>2026-06-19T00:48:51.000Z</time></trkpt>
        <trkpt lat="28.487275" lon="104.982466"><ele>754.57025</ele><time>2026-06-19T00:48:55.000Z</time></trkpt>
        <trkpt lat="28.487274" lon="104.982457"><ele>754.3976</ele><time>2026-06-19T00:48:57.000Z</time></trkpt>
        <trkpt lat="28.487266" lon="104.982424"><ele>754.3976</ele><time>2026-06-19T00:49:05.000Z</time></trkpt>
        <trkpt lat="28.487264" lon="104.982423"><ele>754.3976</ele><time>2026-06-19T00:49:07.000Z</time></trkpt>
        <trkpt lat="28.487256" lon="104.982413"><ele>754.3976</ele><time>2026-06-19T00:49:11.000Z</time></trkpt>
        <trkpt lat="28.487236" lon="104.982388"><ele>754.3976</ele><time>2026-06-19T00:49:21.000Z</time></trkpt>
        <trkpt lat="28.487236" lon="104.982386"><ele>756.02985</ele><time>2026-06-19T00:49:23.000Z</time></trkpt>
        <trkpt lat="28.487247" lon="104.982481"><ele>758.1738</ele><time>2026-06-19T00:49:35.000Z</time></trkpt>
        <trkpt lat="28.48725" lon="104.982506"><ele>759.18225</ele><time>2026-06-19T00:49:38.000Z</time></trkpt>
        <trkpt lat="28.48725" lon="104.982506"><ele>761.2253</ele><time>2026-06-19T00:49:40.000Z</time></trkpt>
        <trkpt lat="28.48721" lon="104.982523"><ele>761.2253</ele><time>2026-06-19T00:50:00.000Z</time></trkpt>
        <trkpt lat="28.48716" lon="104.982544"><ele>761.2253</ele><time>2026-06-19T00:50:13.000Z</time></trkpt>
        <trkpt lat="28.487216" lon="104.982583"><ele>761.2253</ele><time>2026-06-19T00:50:02.000Z</time></trkpt>
        <trkpt lat="28.487108" lon="104.982508"><ele>761.2253</ele><time>2026-06-19T00:50:19.000Z</time></trkpt>
        <trkpt lat="28.487117" lon="104.982486"><ele>759.05774</ele><time>2026-06-19T00:51:20.000Z</time></trkpt>
        <trkpt lat="28.487127" lon="104.982518"><ele>754.9574</ele><time>2026-06-19T00:51:33.000Z</time></trkpt>
        <trkpt lat="28.487198" lon="104.982537"><ele>754.4648</ele><time>2026-06-19T00:51:39.000Z</time></trkpt>
        <trkpt lat="28.487198" lon="104.982537"><ele>754.3814</ele><time>2026-06-19T00:51:41.000Z</time></trkpt>
        <trkpt lat="28.4872" lon="104.982536"><ele>754.37286</ele><time>2026-06-19T00:51:43.000Z</time></trkpt>
        <trkpt lat="28.487246" lon="104.982516"><ele>754.33997</ele><time>2026-06-19T00:51:49.000Z</time></trkpt>
        <trkpt lat="28.487253" lon="104.98251"><ele>754.33997</ele><time>2026-06-19T00:51:51.000Z</time></trkpt>
        <trkpt lat="28.487257" lon="104.982512"><ele>753.6973</ele><time>2026-06-19T00:51:53.000Z</time></trkpt>
        <trkpt lat="28.487289" lon="104.982532"><ele>752.70087</ele><time>2026-06-19T00:52:13.000Z</time></trkpt>
        <trkpt lat="28.4873" lon="104.982514"><ele>752.285</ele><time>2026-06-19T00:52:25.000Z</time></trkpt>
        <trkpt lat="28.487309" lon="104.982498"><ele>752.285</ele><time>2026-06-19T00:52:29.000Z</time></trkpt>
        <trkpt lat="28.487246" lon="104.982502"><ele>751.92316</ele><time>2026-06-19T00:53:01.000Z</time></trkpt>
        <trkpt lat="28.487243" lon="104.982502"><ele>751.1399</ele><time>2026-06-19T00:53:03.000Z</time></trkpt>
        <trkpt lat="28.487242" lon="104.982502"><ele>750.6883</ele><time>2026-06-19T00:53:05.000Z</time></trkpt>
        <trkpt lat="28.487159" lon="104.982509"><ele>750.6883</ele><time>2026-06-19T00:57:11.000Z</time></trkpt>
        <trkpt lat="28.487152" lon="104.982511"><ele>750.6883</ele><time>2026-06-19T00:57:14.000Z</time></trkpt>
        <trkpt lat="28.487145" lon="104.982509"><ele>750.6883</ele><time>2026-06-19T00:57:16.000Z</time></trkpt>
        <trkpt lat="28.486214" lon="104.982241"><ele>750.6883</ele><time>2026-06-19T01:00:31.000Z</time></trkpt>
        <trkpt lat="28.486214" lon="104.982241"><ele>752.7685</ele><time>2026-06-19T01:00:33.000Z</time></trkpt>
        <trkpt lat="28.48634" lon="104.982278"><ele>754.79846</ele><time>2026-06-19T01:00:44.000Z</time></trkpt>
        <trkpt lat="28.487118" lon="104.982507"><ele>754.79846</ele><time>2026-06-19T01:00:48.000Z</time></trkpt>
        <trkpt lat="28.487118" lon="104.982507"><ele>754.79846</ele><time>2026-06-19T01:00:50.000Z</time></trkpt>
        <trkpt lat="28.487118" lon="104.982507"><ele>754.79846</ele><time>2026-06-19T01:00:52.000Z</time></trkpt>
        <trkpt lat="28.487018" lon="104.982468"><ele>754.9182</ele><time>2026-06-19T01:02:09.000Z</time></trkpt>
        <trkpt lat="28.487018" lon="104.982468"><ele>755.72687</ele><time>2026-06-19T01:02:11.000Z</time></trkpt>
        <trkpt lat="28.487016" lon="104.982468"><ele>756.424</ele><time>2026-06-19T01:02:13.000Z</time></trkpt>
        <trkpt lat="28.486945" lon="104.982497"><ele>756.424</ele><time>2026-06-19T01:02:18.000Z</time></trkpt>
        <trkpt lat="28.486944" lon="104.982497"><ele>756.27234</ele><time>2026-06-19T01:02:20.000Z</time></trkpt>
        <trkpt lat="28.48694" lon="104.982495"><ele>756.12665</ele><time>2026-06-19T01:02:22.000Z</time></trkpt>
        <trkpt lat="28.486857" lon="104.982478"><ele>756.12665</ele><time>2026-06-19T01:02:28.000Z</time></trkpt>
        <trkpt lat="28.486832" lon="104.982477"><ele>756.12665</ele><time>2026-06-19T01:02:30.000Z</time></trkpt>
        <trkpt lat="28.486816" lon="104.982473"><ele>756.12665</ele><time>2026-06-19T01:02:32.000Z</time></trkpt>
        <trkpt lat="28.486797" lon="104.982457"><ele>756.12665</ele><time>2026-06-19T01:02:36.000Z</time></trkpt>
        <trkpt lat="28.486777" lon="104.982445"><ele>756.126</ele><time>2026-06-19T01:02:38.000Z</time></trkpt>
        <trkpt lat="28.486751" lon="104.982439"><ele>755.9313</ele><time>2026-06-19T01:02:40.000Z</time></trkpt>
        <trkpt lat="28.486721" lon="104.982436"><ele>755.506</ele><time>2026-06-19T01:02:42.000Z</time></trkpt>
        <trkpt lat="28.486694" lon="104.982434"><ele>755.1853</ele><time>2026-06-19T01:02:44.000Z</time></trkpt>
        <trkpt lat="28.486685" lon="104.982423"><ele>755.03845</ele><time>2026-06-19T01:02:46.000Z</time></trkpt>
        <trkpt lat="28.486667" lon="104.982399"><ele>755.03845</ele><time>2026-06-19T01:02:52.000Z</time></trkpt>
        <trkpt lat="28.486656" lon="104.982383"><ele>755.00494</ele><time>2026-06-19T01:02:54.000Z</time></trkpt>
        <trkpt lat="28.486643" lon="104.982361"><ele>754.9494</ele><time>2026-06-19T01:02:56.000Z</time></trkpt>
        <trkpt lat="28.486626" lon="104.982343"><ele>754.89954</ele><time>2026-06-19T01:02:58.000Z</time></trkpt>
        <trkpt lat="28.486607" lon="104.98233"><ele>754.8366</ele><time>2026-06-19T01:03:00.000Z</time></trkpt>
        <trkpt lat="28.4866" lon="104.982334"><ele>754.8196</ele><time>2026-06-19T01:03:02.000Z</time></trkpt>
        <trkpt lat="28.486572" lon="104.982357"><ele>754.71075</ele><time>2026-06-19T01:03:08.000Z</time></trkpt>
        <trkpt lat="28.486554" lon="104.982372"><ele>754.4545</ele><time>2026-06-19T01:03:10.000Z</time></trkpt>
        <trkpt lat="28.486532" lon="104.982386"><ele>754.0842</ele><time>2026-06-19T01:03:12.000Z</time></trkpt>
        <trkpt lat="28.486504" lon="104.9824"><ele>753.86145</ele><time>2026-06-19T01:03:14.000Z</time></trkpt>
        <trkpt lat="28.486484" lon="104.982415"><ele>753.7702</ele><time>2026-06-19T01:03:16.000Z</time></trkpt>
        <trkpt lat="28.486467" lon="104.982429"><ele>753.7702</ele><time>2026-06-19T01:03:18.000Z</time></trkpt>
        <trkpt lat="28.486456" lon="104.982441"><ele>753.7702</ele><time>2026-06-19T01:03:20.000Z</time></trkpt>
        <trkpt lat="28.486438" lon="104.982452"><ele>753.7702</ele><time>2026-06-19T01:03:22.000Z</time></trkpt>
        <trkpt lat="28.486418" lon="104.982459"><ele>753.7702</ele><time>2026-06-19T01:03:24.000Z</time></trkpt>
        <trkpt lat="28.486401" lon="104.982457"><ele>753.8524</ele><time>2026-06-19T01:03:26.000Z</time></trkpt>
        <trkpt lat="28.486384" lon="104.982452"><ele>753.9609</ele><time>2026-06-19T01:03:28.000Z</time></trkpt>
        <trkpt lat="28.486367" lon="104.982448"><ele>754.0467</ele><time>2026-06-19T01:03:30.000Z</time></trkpt>
        <trkpt lat="28.486352" lon="104.982444"><ele>754.23517</ele><time>2026-06-19T01:03:32.000Z</time></trkpt>
        <trkpt lat="28.486335" lon="104.98244"><ele>754.42163</ele><time>2026-06-19T01:03:34.000Z</time></trkpt>
        <trkpt lat="28.486318" lon="104.982436"><ele>754.42163</ele><time>2026-06-19T01:03:36.000Z</time></trkpt>
        <trkpt lat="28.486307" lon="104.982436"><ele>754.42163</ele><time>2026-06-19T01:03:38.000Z</time></trkpt>
        <trkpt lat="28.486278" lon="104.982433"><ele>754.42163</ele><time>2026-06-19T01:03:44.000Z</time></trkpt>
        <trkpt lat="28.486264" lon="104.982431"><ele>754.42163</ele><time>2026-06-19T01:03:46.000Z</time></trkpt>
        <trkpt lat="28.486256" lon="104.982423"><ele>754.26086</ele><time>2026-06-19T01:03:48.000Z</time></trkpt>
        <trkpt lat="28.486245" lon="104.982407"><ele>753.78906</ele><time>2026-06-19T01:03:52.000Z</time></trkpt>
        <trkpt lat="28.486241" lon="104.982395"><ele>752.877</ele><time>2026-06-19T01:03:56.000Z</time></trkpt>
        <trkpt lat="28.486237" lon="104.982389"><ele>752.03516</ele><time>2026-06-19T01:03:58.000Z</time></trkpt>
        <trkpt lat="28.486217" lon="104.982369"><ele>751.5417</ele><time>2026-06-19T01:04:02.000Z</time></trkpt>
        <trkpt lat="28.486208" lon="104.982366"><ele>751.154</ele><time>2026-06-19T01:04:04.000Z</time></trkpt>
        <trkpt lat="28.486196" lon="104.982366"><ele>750.9406</ele><time>2026-06-19T01:04:06.000Z</time></trkpt>
        <trkpt lat="28.48618" lon="104.982369"><ele>750.6957</ele><time>2026-06-19T01:04:08.000Z</time></trkpt>
        <trkpt lat="28.486167" lon="104.982372"><ele>750.34485</ele><time>2026-06-19T01:04:10.000Z</time></trkpt>
        <trkpt lat="28.486153" lon="104.98237"><ele>750.1852</ele><time>2026-06-19T01:04:12.000Z</time></trkpt>
        <trkpt lat="28.486137" lon="104.982363"><ele>750.1044</ele><time>2026-06-19T01:04:14.000Z</time></trkpt>
        <trkpt lat="28.486124" lon="104.982349"><ele>750.00653</ele><time>2026-06-19T01:04:16.000Z</time></trkpt>
        <trkpt lat="28.486113" lon="104.982331"><ele>749.919</ele><time>2026-06-19T01:04:18.000Z</time></trkpt>
        <trkpt lat="28.486104" lon="104.982315"><ele>749.7712</ele><time>2026-06-19T01:04:20.000Z</time></trkpt>
        <trkpt lat="28.486104" lon="104.98231"><ele>749.5611</ele><time>2026-06-19T01:04:22.000Z</time></trkpt>
        <trkpt lat="28.486099" lon="104.982285"><ele>749.2968</ele><time>2026-06-19T01:04:26.000Z</time></trkpt>
        <trkpt lat="28.486098" lon="104.982262"><ele>749.0014</ele><time>2026-06-19T01:04:28.000Z</time></trkpt>
        <trkpt lat="28.486095" lon="104.982237"><ele>748.64417</ele><time>2026-06-19T01:04:30.000Z</time></trkpt>
        <trkpt lat="28.486089" lon="104.982203"><ele>748.1786</ele><time>2026-06-19T01:04:32.000Z</time></trkpt>
        <trkpt lat="28.486083" lon="104.982172"><ele>747.62024</ele><time>2026-06-19T01:04:34.000Z</time></trkpt>
        <trkpt lat="28.486075" lon="104.982144"><ele>747.3075</ele><time>2026-06-19T01:04:36.000Z</time></trkpt>
        <trkpt lat="28.486067" lon="104.982123"><ele>747.3075</ele><time>2026-06-19T01:04:38.000Z</time></trkpt>
        <trkpt lat="28.486061" lon="104.982113"><ele>747.3075</ele><time>2026-06-19T01:04:40.000Z</time></trkpt>
        <trkpt lat="28.486023" lon="104.982046"><ele>747.3075</ele><time>2026-06-19T01:05:16.000Z</time></trkpt>
        <trkpt lat="28.486043" lon="104.982076"><ele>747.3075</ele><time>2026-06-19T01:05:13.000Z</time></trkpt>
        <trkpt lat="28.485992" lon="104.982"><ele>747.3819</ele><time>2026-06-19T01:05:21.000Z</time></trkpt>
        <trkpt lat="28.485991" lon="104.981997"><ele>747.5232</ele><time>2026-06-19T01:05:25.000Z</time></trkpt>
        <trkpt lat="28.485984" lon="104.981983"><ele>747.648</ele><time>2026-06-19T01:05:27.000Z</time></trkpt>
        <trkpt lat="28.485949" lon="104.98193"><ele>747.6938</ele><time>2026-06-19T01:05:31.000Z</time></trkpt>
        <trkpt lat="28.485932" lon="104.981909"><ele>747.9938</ele><time>2026-06-19T01:05:33.000Z</time></trkpt>
        <trkpt lat="28.485914" lon="104.981885"><ele>748.2864</ele><time>2026-06-19T01:05:35.000Z</time></trkpt>
        <trkpt lat="28.485899" lon="104.98186"><ele>748.33484</ele><time>2026-06-19T01:05:37.000Z</time></trkpt>
        <trkpt lat="28.485887" lon="104.981838"><ele>748.6543</ele><time>2026-06-19T01:05:39.000Z</time></trkpt>
        <trkpt lat="28.485872" lon="104.981814"><ele>749.0642</ele><time>2026-06-19T01:05:41.000Z</time></trkpt>
        <trkpt lat="28.48586" lon="104.981793"><ele>749.0946</ele><time>2026-06-19T01:05:43.000Z</time></trkpt>
        <trkpt lat="28.485851" lon="104.981772"><ele>749.10754</ele><time>2026-06-19T01:05:45.000Z</time></trkpt>
        <trkpt lat="28.485841" lon="104.981751"><ele>749.14886</ele><time>2026-06-19T01:05:47.000Z</time></trkpt>
        <trkpt lat="28.485829" lon="104.981729"><ele>749.14886</ele><time>2026-06-19T01:05:49.000Z</time></trkpt>
        <trkpt lat="28.485816" lon="104.981709"><ele>749.14886</ele><time>2026-06-19T01:05:51.000Z</time></trkpt>
        <trkpt lat="28.485804" lon="104.981692"><ele>749.091</ele><time>2026-06-19T01:05:53.000Z</time></trkpt>
        <trkpt lat="28.485794" lon="104.981675"><ele>749.0497</ele><time>2026-06-19T01:05:55.000Z</time></trkpt>
        <trkpt lat="28.48578" lon="104.981654"><ele>749.0025</ele><time>2026-06-19T01:05:57.000Z</time></trkpt>
        <trkpt lat="28.485765" lon="104.981635"><ele>748.9694</ele><time>2026-06-19T01:05:59.000Z</time></trkpt>
        <trkpt lat="28.485754" lon="104.98162"><ele>748.9079</ele><time>2026-06-19T01:06:01.000Z</time></trkpt>
        <trkpt lat="28.485745" lon="104.981601"><ele>748.72644</ele><time>2026-06-19T01:06:03.000Z</time></trkpt>
        <trkpt lat="28.485735" lon="104.981571"><ele>748.43164</ele><time>2026-06-19T01:06:05.000Z</time></trkpt>
        <trkpt lat="28.485726" lon="104.981541"><ele>748.146</ele><time>2026-06-19T01:06:07.000Z</time></trkpt>
        <trkpt lat="28.485718" lon="104.981515"><ele>747.8693</ele><time>2026-06-19T01:06:09.000Z</time></trkpt>
        <trkpt lat="28.485711" lon="104.981495"><ele>747.5729</ele><time>2026-06-19T01:06:11.000Z</time></trkpt>
        <trkpt lat="28.485704" lon="104.981475"><ele>747.2884</ele><time>2026-06-19T01:06:13.000Z</time></trkpt>
        <trkpt lat="28.485696" lon="104.981449"><ele>747.1047</ele><time>2026-06-19T01:06:15.000Z</time></trkpt>
        <trkpt lat="28.485688" lon="104.981418"><ele>746.92786</ele><time>2026-06-19T01:06:17.000Z</time></trkpt>
        <trkpt lat="28.485679" lon="104.981392"><ele>746.7314</ele><time>2026-06-19T01:06:19.000Z</time></trkpt>
        <trkpt lat="28.485671" lon="104.981367"><ele>746.5317</ele><time>2026-06-19T01:06:21.000Z</time></trkpt>
        <trkpt lat="28.485661" lon="104.981342"><ele>746.24255</ele><time>2026-06-19T01:06:23.000Z</time></trkpt>
        <trkpt lat="28.485653" lon="104.981317"><ele>745.952</ele><time>2026-06-19T01:06:25.000Z</time></trkpt>
        <trkpt lat="28.485647" lon="104.981295"><ele>745.69135</ele><time>2026-06-19T01:06:27.000Z</time></trkpt>
        <trkpt lat="28.485643" lon="104.981275"><ele>745.33105</ele><time>2026-06-19T01:06:29.000Z</time></trkpt>
        <trkpt lat="28.485638" lon="104.981252"><ele>744.89984</ele><time>2026-06-19T01:06:31.000Z</time></trkpt>
        <trkpt lat="28.485634" lon="104.98123"><ele>744.56</ele><time>2026-06-19T01:06:33.000Z</time></trkpt>
        <trkpt lat="28.485634" lon="104.981207"><ele>744.2357</ele><time>2026-06-19T01:06:35.000Z</time></trkpt>
        <trkpt lat="28.485637" lon="104.981185"><ele>743.79987</ele><time>2026-06-19T01:06:37.000Z</time></trkpt>
        <trkpt lat="28.48564" lon="104.981163"><ele>743.24884</ele><time>2026-06-19T01:06:39.000Z</time></trkpt>
        <trkpt lat="28.485641" lon="104.981137"><ele>742.6383</ele><time>2026-06-19T01:06:41.000Z</time></trkpt>
        <trkpt lat="28.485641" lon="104.981109"><ele>741.9685</ele><time>2026-06-19T01:06:43.000Z</time></trkpt>
        <trkpt lat="28.485639" lon="104.981086"><ele>741.34955</ele><time>2026-06-19T01:06:45.000Z</time></trkpt>
        <trkpt lat="28.485636" lon="104.981062"><ele>740.8323</ele><time>2026-06-19T01:06:47.000Z</time></trkpt>
        <trkpt lat="28.485631" lon="104.981035"><ele>740.3689</ele><time>2026-06-19T01:06:49.000Z</time></trkpt>
        <trkpt lat="28.485624" lon="104.981009"><ele>739.9841</ele><time>2026-06-19T01:06:51.000Z</time></trkpt>
        <trkpt lat="28.485615" lon="104.980986"><ele>739.5915</ele><time>2026-06-19T01:06:53.000Z</time></trkpt>
        <trkpt lat="28.485608" lon="104.980964"><ele>739.07513</ele><time>2026-06-19T01:06:55.000Z</time></trkpt>
        <trkpt lat="28.485601" lon="104.98094"><ele>738.6206</ele><time>2026-06-19T01:06:57.000Z</time></trkpt>
        <trkpt lat="28.485592" lon="104.980915"><ele>738.3773</ele><time>2026-06-19T01:06:59.000Z</time></trkpt>
        <trkpt lat="28.485583" lon="104.98089"><ele>738.09283</ele><time>2026-06-19T01:07:01.000Z</time></trkpt>
        <trkpt lat="28.485572" lon="104.980868"><ele>737.9082</ele><time>2026-06-19T01:07:03.000Z</time></trkpt>
        <trkpt lat="28.485562" lon="104.980851"><ele>737.9082</ele><time>2026-06-19T01:07:05.000Z</time></trkpt>
        <trkpt lat="28.48555" lon="104.980836"><ele>737.9082</ele><time>2026-06-19T01:07:07.000Z</time></trkpt>
        <trkpt lat="28.485534" lon="104.980818"><ele>737.9082</ele><time>2026-06-19T01:07:09.000Z</time></trkpt>
        <trkpt lat="28.485516" lon="104.980797"><ele>737.9082</ele><time>2026-06-19T01:07:11.000Z</time></trkpt>
        <trkpt lat="28.485497" lon="104.980773"><ele>737.991</ele><time>2026-06-19T01:07:13.000Z</time></trkpt>
        <trkpt lat="28.48548" lon="104.980746"><ele>737.991</ele><time>2026-06-19T01:07:15.000Z</time></trkpt>
        <trkpt lat="28.485463" lon="104.98072"><ele>737.991</ele><time>2026-06-19T01:07:17.000Z</time></trkpt>
        <trkpt lat="28.485446" lon="104.980706"><ele>737.991</ele><time>2026-06-19T01:07:19.000Z</time></trkpt>
        <trkpt lat="28.485432" lon="104.980701"><ele>737.991</ele><time>2026-06-19T01:07:21.000Z</time></trkpt>
        <trkpt lat="28.485413" lon="104.980701"><ele>737.68945</ele><time>2026-06-19T01:07:23.000Z</time></trkpt>
        <trkpt lat="28.485393" lon="104.980706"><ele>736.90356</ele><time>2026-06-19T01:07:25.000Z</time></trkpt>
        <trkpt lat="28.485369" lon="104.980714"><ele>736.08655</ele><time>2026-06-19T01:07:27.000Z</time></trkpt>
        <trkpt lat="28.485345" lon="104.980724"><ele>735.4192</ele><time>2026-06-19T01:07:29.000Z</time></trkpt>
        <trkpt lat="28.485325" lon="104.98073"><ele>734.9862</ele><time>2026-06-19T01:07:31.000Z</time></trkpt>
        <trkpt lat="28.485301" lon="104.980736"><ele>734.5115</ele><time>2026-06-19T01:07:33.000Z</time></trkpt>
        <trkpt lat="28.485276" lon="104.980741"><ele>733.844</ele><time>2026-06-19T01:07:35.000Z</time></trkpt>
        <trkpt lat="28.48525" lon="104.980748"><ele>733.14905</ele><time>2026-06-19T01:07:37.000Z</time></trkpt>
        <trkpt lat="28.485227" lon="104.980754"><ele>732.48773</ele><time>2026-06-19T01:07:39.000Z</time></trkpt>
        <trkpt lat="28.485211" lon="104.980759"><ele>731.8213</ele><time>2026-06-19T01:07:41.000Z</time></trkpt>
        <trkpt lat="28.485192" lon="104.980769"><ele>731.17487</ele><time>2026-06-19T01:07:43.000Z</time></trkpt>
        <trkpt lat="28.485175" lon="104.980781"><ele>730.5574</ele><time>2026-06-19T01:07:45.000Z</time></trkpt>
        <trkpt lat="28.48516" lon="104.980799"><ele>729.93176</ele><time>2026-06-19T01:07:47.000Z</time></trkpt>
        <trkpt lat="28.485148" lon="104.980815"><ele>729.345</ele><time>2026-06-19T01:07:49.000Z</time></trkpt>
        <trkpt lat="28.485131" lon="104.980835"><ele>728.84094</ele><time>2026-06-19T01:07:51.000Z</time></trkpt>
        <trkpt lat="28.485116" lon="104.980848"><ele>728.2997</ele><time>2026-06-19T01:07:53.000Z</time></trkpt>
        <trkpt lat="28.485101" lon="104.980861"><ele>727.7528</ele><time>2026-06-19T01:07:55.000Z</time></trkpt>
        <trkpt lat="28.485088" lon="104.980876"><ele>727.2612</ele><time>2026-06-19T01:07:57.000Z</time></trkpt>
        <trkpt lat="28.485073" lon="104.980893"><ele>726.854</ele><time>2026-06-19T01:07:59.000Z</time></trkpt>
        <trkpt lat="28.485058" lon="104.980911"><ele>726.5649</ele><time>2026-06-19T01:08:01.000Z</time></trkpt>
        <trkpt lat="28.485044" lon="104.980928"><ele>726.30945</ele><time>2026-06-19T01:08:03.000Z</time></trkpt>
        <trkpt lat="28.48503" lon="104.980947"><ele>726.0301</ele><time>2026-06-19T01:08:05.000Z</time></trkpt>
        <trkpt lat="28.485016" lon="104.980966"><ele>725.74133</ele><time>2026-06-19T01:08:07.000Z</time></trkpt>
        <trkpt lat="28.485" lon="104.980986"><ele>725.4973</ele><time>2026-06-19T01:08:09.000Z</time></trkpt>
        <trkpt lat="28.484986" lon="104.981004"><ele>725.3808</ele><time>2026-06-19T01:08:11.000Z</time></trkpt>
        <trkpt lat="28.484975" lon="104.981027"><ele>725.35785</ele><time>2026-06-19T01:08:13.000Z</time></trkpt>
        <trkpt lat="28.484965" lon="104.981053"><ele>725.2792</ele><time>2026-06-19T01:08:15.000Z</time></trkpt>
        <trkpt lat="28.484958" lon="104.981081"><ele>725.1591</ele><time>2026-06-19T01:08:17.000Z</time></trkpt>
        <trkpt lat="28.484955" lon="104.981104"><ele>725.0357</ele><time>2026-06-19T01:08:19.000Z</time></trkpt>
        <trkpt lat="28.484955" lon="104.98113"><ele>724.91077</ele><time>2026-06-19T01:08:21.000Z</time></trkpt>
        <trkpt lat="28.484957" lon="104.981151"><ele>724.80994</ele><time>2026-06-19T01:08:23.000Z</time></trkpt>
        <trkpt lat="28.484959" lon="104.981171"><ele>724.80994</ele><time>2026-06-19T01:08:25.000Z</time></trkpt>
        <trkpt lat="28.484955" lon="104.981183"><ele>724.80994</ele><time>2026-06-19T01:08:27.000Z</time></trkpt>
        <trkpt lat="28.484944" lon="104.981221"><ele>724.80994</ele><time>2026-06-19T01:08:31.000Z</time></trkpt>
        <trkpt lat="28.484938" lon="104.981238"><ele>724.80994</ele><time>2026-06-19T01:08:33.000Z</time></trkpt>
        <trkpt lat="28.484927" lon="104.981261"><ele>724.8887</ele><time>2026-06-19T01:08:35.000Z</time></trkpt>
        <trkpt lat="28.484919" lon="104.981281"><ele>725.08466</ele><time>2026-06-19T01:08:37.000Z</time></trkpt>
        <trkpt lat="28.484911" lon="104.981308"><ele>725.31287</ele><time>2026-06-19T01:08:39.000Z</time></trkpt>
        <trkpt lat="28.484907" lon="104.981335"><ele>725.46906</ele><time>2026-06-19T01:08:41.000Z</time></trkpt>
        <trkpt lat="28.484906" lon="104.981359"><ele>725.58575</ele><time>2026-06-19T01:08:43.000Z</time></trkpt>
        <trkpt lat="28.484908" lon="104.981383"><ele>725.8303</ele><time>2026-06-19T01:08:45.000Z</time></trkpt>
        <trkpt lat="28.484914" lon="104.981408"><ele>726.09216</ele><time>2026-06-19T01:08:47.000Z</time></trkpt>
        <trkpt lat="28.484924" lon="104.981436"><ele>726.3134</ele><time>2026-06-19T01:08:49.000Z</time></trkpt>
        <trkpt lat="28.484938" lon="104.981459"><ele>726.4496</ele><time>2026-06-19T01:08:51.000Z</time></trkpt>
        <trkpt lat="28.484953" lon="104.981487"><ele>726.6228</ele><time>2026-06-19T01:08:53.000Z</time></trkpt>
        <trkpt lat="28.484957" lon="104.981512"><ele>726.9526</ele><time>2026-06-19T01:08:55.000Z</time></trkpt>
        <trkpt lat="28.484953" lon="104.981534"><ele>727.305</ele><time>2026-06-19T01:08:57.000Z</time></trkpt>
        <trkpt lat="28.484944" lon="104.981563"><ele>727.746</ele><time>2026-06-19T01:08:59.000Z</time></trkpt>
        <trkpt lat="28.484934" lon="104.981591"><ele>728.298</ele><time>2026-06-19T01:09:01.000Z</time></trkpt>
        <trkpt lat="28.484924" lon="104.981612"><ele>728.8672</ele><time>2026-06-19T01:09:03.000Z</time></trkpt>
        <trkpt lat="28.484913" lon="104.981638"><ele>729.21985</ele><time>2026-06-19T01:09:05.000Z</time></trkpt>
        <trkpt lat="28.484899" lon="104.981667"><ele>729.21985</ele><time>2026-06-19T01:09:07.000Z</time></trkpt>
        <trkpt lat="28.484884" lon="104.981696"><ele>729.21985</ele><time>2026-06-19T01:09:09.000Z</time></trkpt>
        <trkpt lat="28.48487" lon="104.981724"><ele>729.21985</ele><time>2026-06-19T01:09:11.000Z</time></trkpt>
        <trkpt lat="28.484858" lon="104.981748"><ele>729.21985</ele><time>2026-06-19T01:09:13.000Z</time></trkpt>
        <trkpt lat="28.484847" lon="104.981779"><ele>729.0415</ele><time>2026-06-19T01:09:15.000Z</time></trkpt>
        <trkpt lat="28.48484" lon="104.981811"><ele>728.5777</ele><time>2026-06-19T01:09:17.000Z</time></trkpt>
        <trkpt lat="28.484835" lon="104.981842"><ele>728.1049</ele><time>2026-06-19T01:09:19.000Z</time></trkpt>
        <trkpt lat="28.484831" lon="104.981869"><ele>727.6657</ele><time>2026-06-19T01:09:21.000Z</time></trkpt>
        <trkpt lat="28.484827" lon="104.981895"><ele>727.23895</ele><time>2026-06-19T01:09:23.000Z</time></trkpt>
        <trkpt lat="28.484823" lon="104.981919"><ele>726.8083</ele><time>2026-06-19T01:09:25.000Z</time></trkpt>
        <trkpt lat="28.48482" lon="104.981941"><ele>726.48236</ele><time>2026-06-19T01:09:27.000Z</time></trkpt>
        <trkpt lat="28.484818" lon="104.981963"><ele>726.3476</ele><time>2026-06-19T01:09:29.000Z</time></trkpt>
        <trkpt lat="28.484815" lon="104.981991"><ele>726.2962</ele><time>2026-06-19T01:09:31.000Z</time></trkpt>
        <trkpt lat="28.48481" lon="104.982017"><ele>726.16986</ele><time>2026-06-19T01:09:33.000Z</time></trkpt>
        <trkpt lat="28.484806" lon="104.982043"><ele>726.0404</ele><time>2026-06-19T01:09:35.000Z</time></trkpt>
        <trkpt lat="28.484805" lon="104.982068"><ele>725.939</ele><time>2026-06-19T01:09:37.000Z</time></trkpt>
        <trkpt lat="28.484804" lon="104.982095"><ele>725.7646</ele><time>2026-06-19T01:09:39.000Z</time></trkpt>
        <trkpt lat="28.484802" lon="104.982123"><ele>725.5996</ele><time>2026-06-19T01:09:41.000Z</time></trkpt>
        <trkpt lat="28.484799" lon="104.98215"><ele>725.4229</ele><time>2026-06-19T01:09:43.000Z</time></trkpt>
        <trkpt lat="28.484796" lon="104.98218"><ele>725.12213</ele><time>2026-06-19T01:09:45.000Z</time></trkpt>
        <trkpt lat="28.484794" lon="104.982206"><ele>724.74945</ele><time>2026-06-19T01:09:47.000Z</time></trkpt>
        <trkpt lat="28.484792" lon="104.982232"><ele>724.26117</ele><time>2026-06-19T01:09:49.000Z</time></trkpt>
        <trkpt lat="28.48479" lon="104.982258"><ele>723.9019</ele><time>2026-06-19T01:09:51.000Z</time></trkpt>
        <trkpt lat="28.484787" lon="104.982284"><ele>723.677</ele><time>2026-06-19T01:09:53.000Z</time></trkpt>
        <trkpt lat="28.484783" lon="104.982311"><ele>723.26276</ele><time>2026-06-19T01:09:55.000Z</time></trkpt>
        <trkpt lat="28.484778" lon="104.982338"><ele>722.75244</ele><time>2026-06-19T01:09:57.000Z</time></trkpt>
        <trkpt lat="28.484772" lon="104.982365"><ele>722.3296</ele><time>2026-06-19T01:09:59.000Z</time></trkpt>
        <trkpt lat="28.484765" lon="104.982393"><ele>721.9176</ele><time>2026-06-19T01:10:01.000Z</time></trkpt>
        <trkpt lat="28.484759" lon="104.982421"><ele>721.5388</ele><time>2026-06-19T01:10:03.000Z</time></trkpt>
        <trkpt lat="28.484754" lon="104.982446"><ele>721.39044</ele><time>2026-06-19T01:10:05.000Z</time></trkpt>
        <trkpt lat="28.484751" lon="104.982472"><ele>721.3292</ele><time>2026-06-19T01:10:07.000Z</time></trkpt>
        <trkpt lat="28.484749" lon="104.982501"><ele>721.13635</ele><time>2026-06-19T01:10:09.000Z</time></trkpt>
        <trkpt lat="28.484746" lon="104.98253"><ele>720.82306</ele><time>2026-06-19T01:10:11.000Z</time></trkpt>
        <trkpt lat="28.484743" lon="104.982558"><ele>720.4365</ele><time>2026-06-19T01:10:13.000Z</time></trkpt>
        <trkpt lat="28.484741" lon="104.982586"><ele>719.9421</ele><time>2026-06-19T01:10:15.000Z</time></trkpt>
        <trkpt lat="28.484741" lon="104.982611"><ele>719.5193</ele><time>2026-06-19T01:10:17.000Z</time></trkpt>
        <trkpt lat="28.48474" lon="104.982636"><ele>719.2504</ele><time>2026-06-19T01:10:19.000Z</time></trkpt>
        <trkpt lat="28.484738" lon="104.982662"><ele>719.13104</ele><time>2026-06-19T01:10:21.000Z</time></trkpt>
        <trkpt lat="28.484736" lon="104.982688"><ele>718.97455</ele><time>2026-06-19T01:10:23.000Z</time></trkpt>
        <trkpt lat="28.484733" lon="104.982713"><ele>718.6992</ele><time>2026-06-19T01:10:25.000Z</time></trkpt>
        <trkpt lat="28.48473" lon="104.982736"><ele>718.57477</ele><time>2026-06-19T01:10:27.000Z</time></trkpt>
        <trkpt lat="28.484726" lon="104.982762"><ele>718.56305</ele><time>2026-06-19T01:10:29.000Z</time></trkpt>
        <trkpt lat="28.48472" lon="104.982788"><ele>718.5325</ele><time>2026-06-19T01:10:31.000Z</time></trkpt>
        <trkpt lat="28.484714" lon="104.982814"><ele>718.4975</ele><time>2026-06-19T01:10:33.000Z</time></trkpt>
        <trkpt lat="28.484709" lon="104.982838"><ele>718.48035</ele><time>2026-06-19T01:10:35.000Z</time></trkpt>
        <trkpt lat="28.484704" lon="104.982863"><ele>718.4576</ele><time>2026-06-19T01:10:37.000Z</time></trkpt>
        <trkpt lat="28.484701" lon="104.982886"><ele>718.40094</ele><time>2026-06-19T01:10:39.000Z</time></trkpt>
        <trkpt lat="28.484697" lon="104.982907"><ele>718.39557</ele><time>2026-06-19T01:10:41.000Z</time></trkpt>
        <trkpt lat="28.484693" lon="104.982933"><ele>718.39557</ele><time>2026-06-19T01:10:43.000Z</time></trkpt>
        <trkpt lat="28.484686" lon="104.982961"><ele>718.39557</ele><time>2026-06-19T01:10:45.000Z</time></trkpt>
        <trkpt lat="28.484679" lon="104.982988"><ele>718.39557</ele><time>2026-06-19T01:10:47.000Z</time></trkpt>
        <trkpt lat="28.484672" lon="104.983016"><ele>718.39557</ele><time>2026-06-19T01:10:49.000Z</time></trkpt>
        <trkpt lat="28.484666" lon="104.983041"><ele>718.5136</ele><time>2026-06-19T01:10:51.000Z</time></trkpt>
        <trkpt lat="28.484658" lon="104.983067"><ele>718.67834</ele><time>2026-06-19T01:10:53.000Z</time></trkpt>
        <trkpt lat="28.484649" lon="104.983095"><ele>718.86633</ele><time>2026-06-19T01:10:55.000Z</time></trkpt>
        <trkpt lat="28.484641" lon="104.983124"><ele>718.9881</ele><time>2026-06-19T01:10:57.000Z</time></trkpt>
        <trkpt lat="28.484636" lon="104.98315"><ele>719.04315</ele><time>2026-06-19T01:10:59.000Z</time></trkpt>
        <trkpt lat="28.484633" lon="104.983175"><ele>719.1955</ele><time>2026-06-19T01:11:01.000Z</time></trkpt>
        <trkpt lat="28.48463" lon="104.983201"><ele>719.3255</ele><time>2026-06-19T01:11:03.000Z</time></trkpt>
        <trkpt lat="28.484627" lon="104.983227"><ele>719.463</ele><time>2026-06-19T01:11:05.000Z</time></trkpt>
        <trkpt lat="28.484624" lon="104.983255"><ele>719.463</ele><time>2026-06-19T01:11:07.000Z</time></trkpt>
        <trkpt lat="28.484619" lon="104.983282"><ele>719.463</ele><time>2026-06-19T01:11:09.000Z</time></trkpt>
        <trkpt lat="28.484613" lon="104.983309"><ele>719.463</ele><time>2026-06-19T01:11:11.000Z</time></trkpt>
        <trkpt lat="28.484607" lon="104.983339"><ele>719.463</ele><time>2026-06-19T01:11:13.000Z</time></trkpt>
        <trkpt lat="28.484602" lon="104.983365"><ele>719.3563</ele><time>2026-06-19T01:11:15.000Z</time></trkpt>
        <trkpt lat="28.484596" lon="104.983391"><ele>718.928</ele><time>2026-06-19T01:11:17.000Z</time></trkpt>
        <trkpt lat="28.48459" lon="104.983416"><ele>718.6095</ele><time>2026-06-19T01:11:19.000Z</time></trkpt>
        <trkpt lat="28.484586" lon="104.983441"><ele>718.4774</ele><time>2026-06-19T01:11:21.000Z</time></trkpt>
        <trkpt lat="28.484582" lon="104.983464"><ele>718.26154</ele><time>2026-06-19T01:11:23.000Z</time></trkpt>
        <trkpt lat="28.484579" lon="104.983489"><ele>717.9826</ele><time>2026-06-19T01:11:25.000Z</time></trkpt>
        <trkpt lat="28.484578" lon="104.983513"><ele>717.8453</ele><time>2026-06-19T01:11:27.000Z</time></trkpt>
        <trkpt lat="28.484575" lon="104.983537"><ele>717.7481</ele><time>2026-06-19T01:11:29.000Z</time></trkpt>
        <trkpt lat="28.484571" lon="104.983561"><ele>717.746</ele><time>2026-06-19T01:11:31.000Z</time></trkpt>
        <trkpt lat="28.484566" lon="104.983587"><ele>717.746</ele><time>2026-06-19T01:11:33.000Z</time></trkpt>
        <trkpt lat="28.484562" lon="104.983614"><ele>717.746</ele><time>2026-06-19T01:11:35.000Z</time></trkpt>
        <trkpt lat="28.484558" lon="104.98364"><ele>717.746</ele><time>2026-06-19T01:11:37.000Z</time></trkpt>
        <trkpt lat="28.484552" lon="104.983665"><ele>717.746</ele><time>2026-06-19T01:11:39.000Z</time></trkpt>
        <trkpt lat="28.484544" lon="104.98369"><ele>717.94696</ele><time>2026-06-19T01:11:41.000Z</time></trkpt>
        <trkpt lat="28.484533" lon="104.983718"><ele>718.3059</ele><time>2026-06-19T01:11:43.000Z</time></trkpt>
        <trkpt lat="28.484523" lon="104.983747"><ele>718.7044</ele><time>2026-06-19T01:11:45.000Z</time></trkpt>
        <trkpt lat="28.484516" lon="104.983772"><ele>719.1113</ele><time>2026-06-19T01:11:47.000Z</time></trkpt>
        <trkpt lat="28.484508" lon="104.983799"><ele>719.4218</ele><time>2026-06-19T01:11:49.000Z</time></trkpt>
        <trkpt lat="28.4845" lon="104.983826"><ele>719.54626</ele><time>2026-06-19T01:11:51.000Z</time></trkpt>
        <trkpt lat="28.484493" lon="104.98385"><ele>719.6262</ele><time>2026-06-19T01:11:53.000Z</time></trkpt>
        <trkpt lat="28.484485" lon="104.983876"><ele>719.7298</ele><time>2026-06-19T01:11:55.000Z</time></trkpt>
        <trkpt lat="28.484482" lon="104.983898"><ele>719.8321</ele><time>2026-06-19T01:11:57.000Z</time></trkpt>
        <trkpt lat="28.484482" lon="104.983921"><ele>719.9431</ele><time>2026-06-19T01:11:59.000Z</time></trkpt>
        <trkpt lat="28.484482" lon="104.983942"><ele>720.1675</ele><time>2026-06-19T01:12:01.000Z</time></trkpt>
        <trkpt lat="28.484483" lon="104.983967"><ele>720.4641</ele><time>2026-06-19T01:12:03.000Z</time></trkpt>
        <trkpt lat="28.484483" lon="104.983993"><ele>720.63184</ele><time>2026-06-19T01:12:05.000Z</time></trkpt>
        <trkpt lat="28.484482" lon="104.984019"><ele>720.7017</ele><time>2026-06-19T01:12:07.000Z</time></trkpt>
        <trkpt lat="28.484479" lon="104.984045"><ele>720.7388</ele><time>2026-06-19T01:12:09.000Z</time></trkpt>
        <trkpt lat="28.484476" lon="104.984071"><ele>720.7388</ele><time>2026-06-19T01:12:11.000Z</time></trkpt>
        <trkpt lat="28.484474" lon="104.984099"><ele>720.7388</ele><time>2026-06-19T01:12:13.000Z</time></trkpt>
        <trkpt lat="28.484472" lon="104.984128"><ele>720.7388</ele><time>2026-06-19T01:12:15.000Z</time></trkpt>
        <trkpt lat="28.48447" lon="104.984156"><ele>720.7388</ele><time>2026-06-19T01:12:17.000Z</time></trkpt>
        <trkpt lat="28.484468" lon="104.984183"><ele>720.7388</ele><time>2026-06-19T01:12:19.000Z</time></trkpt>
        <trkpt lat="28.484466" lon="104.984211"><ele>720.72394</ele><time>2026-06-19T01:12:21.000Z</time></trkpt>
        <trkpt lat="28.484466" lon="104.984237"><ele>720.6792</ele><time>2026-06-19T01:12:23.000Z</time></trkpt>
        <trkpt lat="28.484465" lon="104.984261"><ele>720.6224</ele><time>2026-06-19T01:12:25.000Z</time></trkpt>
        <trkpt lat="28.484463" lon="104.98429"><ele>720.6087</ele><time>2026-06-19T01:12:27.000Z</time></trkpt>
        <trkpt lat="28.484457" lon="104.984317"><ele>720.59033</ele><time>2026-06-19T01:12:29.000Z</time></trkpt>
        <trkpt lat="28.484453" lon="104.984345"><ele>720.59033</ele><time>2026-06-19T01:12:31.000Z</time></trkpt>
        <trkpt lat="28.48445" lon="104.984373"><ele>720.6087</ele><time>2026-06-19T01:12:33.000Z</time></trkpt>
        <trkpt lat="28.484448" lon="104.984401"><ele>720.6224</ele><time>2026-06-19T01:12:35.000Z</time></trkpt>
        <trkpt lat="28.484445" lon="104.984426"><ele>720.6224</ele><time>2026-06-19T01:12:37.000Z</time></trkpt>
        <trkpt lat="28.484444" lon="104.984454"><ele>720.6224</ele><time>2026-06-19T01:12:39.000Z</time></trkpt>
        <trkpt lat="28.484444" lon="104.984479"><ele>720.56696</ele><time>2026-06-19T01:12:41.000Z</time></trkpt>
        <trkpt lat="28.484447" lon="104.984507"><ele>720.5107</ele><time>2026-06-19T01:12:43.000Z</time></trkpt>
        <trkpt lat="28.484451" lon="104.984532"><ele>720.4679</ele><time>2026-06-19T01:12:45.000Z</time></trkpt>
        <trkpt lat="28.484454" lon="104.984553"><ele>720.4679</ele><time>2026-06-19T01:12:47.000Z</time></trkpt>
        <trkpt lat="28.484453" lon="104.984579"><ele>720.3902</ele><time>2026-06-19T01:12:49.000Z</time></trkpt>
        <trkpt lat="28.48445" lon="104.984609"><ele>720.1247</ele><time>2026-06-19T01:12:51.000Z</time></trkpt>
        <trkpt lat="28.484444" lon="104.984639"><ele>719.95087</ele><time>2026-06-19T01:12:53.000Z</time></trkpt>
        <trkpt lat="28.484435" lon="104.984668"><ele>719.88275</ele><time>2026-06-19T01:12:55.000Z</time></trkpt>
        <trkpt lat="28.484426" lon="104.984695"><ele>719.7403</ele><time>2026-06-19T01:12:57.000Z</time></trkpt>
        <trkpt lat="28.484418" lon="104.984723"><ele>719.5337</ele><time>2026-06-19T01:12:59.000Z</time></trkpt>
        <trkpt lat="28.484416" lon="104.984743"><ele>719.3448</ele><time>2026-06-19T01:13:01.000Z</time></trkpt>
        <trkpt lat="28.484421" lon="104.984764"><ele>719.2274</ele><time>2026-06-19T01:13:03.000Z</time></trkpt>
        <trkpt lat="28.484429" lon="104.984784"><ele>719.0985</ele><time>2026-06-19T01:13:05.000Z</time></trkpt>
        <trkpt lat="28.484436" lon="104.984807"><ele>718.9465</ele><time>2026-06-19T01:13:07.000Z</time></trkpt>
        <trkpt lat="28.484442" lon="104.984832"><ele>718.82355</ele><time>2026-06-19T01:13:09.000Z</time></trkpt>
        <trkpt lat="28.484445" lon="104.984859"><ele>718.5725</ele><time>2026-06-19T01:13:11.000Z</time></trkpt>
        <trkpt lat="28.484444" lon="104.984883"><ele>718.2679</ele><time>2026-06-19T01:13:13.000Z</time></trkpt>
        <trkpt lat="28.484439" lon="104.984906"><ele>718.10657</ele><time>2026-06-19T01:13:15.000Z</time></trkpt>
        <trkpt lat="28.484433" lon="104.984929"><ele>718.04663</ele><time>2026-06-19T01:13:17.000Z</time></trkpt>
        <trkpt lat="28.484427" lon="104.984956"><ele>718.04663</ele><time>2026-06-19T01:13:19.000Z</time></trkpt>
        <trkpt lat="28.484421" lon="104.984984"><ele>718.04535</ele><time>2026-06-19T01:13:21.000Z</time></trkpt>
        <trkpt lat="28.484415" lon="104.985015"><ele>718.02374</ele><time>2026-06-19T01:13:23.000Z</time></trkpt>
        <trkpt lat="28.484407" lon="104.985044"><ele>717.9901</ele><time>2026-06-19T01:13:25.000Z</time></trkpt>
        <trkpt lat="28.484399" lon="104.98507"><ele>717.94464</ele><time>2026-06-19T01:13:27.000Z</time></trkpt>
        <trkpt lat="28.484391" lon="104.985098"><ele>717.9363</ele><time>2026-06-19T01:13:29.000Z</time></trkpt>
        <trkpt lat="28.484384" lon="104.985128"><ele>717.89233</ele><time>2026-06-19T01:13:31.000Z</time></trkpt>
        <trkpt lat="28.484379" lon="104.985158"><ele>717.6887</ele><time>2026-06-19T01:13:33.000Z</time></trkpt>
        <trkpt lat="28.484376" lon="104.985188"><ele>717.50397</ele><time>2026-06-19T01:13:35.000Z</time></trkpt>
        <trkpt lat="28.484376" lon="104.985212"><ele>717.29175</ele><time>2026-06-19T01:13:37.000Z</time></trkpt>
        <trkpt lat="28.484376" lon="104.985238"><ele>716.9997</ele><time>2026-06-19T01:13:39.000Z</time></trkpt>
        <trkpt lat="28.484376" lon="104.985265"><ele>716.67236</ele><time>2026-06-19T01:13:41.000Z</time></trkpt>
        <trkpt lat="28.484376" lon="104.985292"><ele>716.36127</ele><time>2026-06-19T01:13:43.000Z</time></trkpt>
        <trkpt lat="28.484374" lon="104.985315"><ele>716.0452</ele><time>2026-06-19T01:13:45.000Z</time></trkpt>
        <trkpt lat="28.484373" lon="104.985338"><ele>715.84406</ele><time>2026-06-19T01:13:47.000Z</time></trkpt>
        <trkpt lat="28.484372" lon="104.985361"><ele>715.77313</ele><time>2026-06-19T01:13:49.000Z</time></trkpt>
        <trkpt lat="28.484369" lon="104.985383"><ele>715.77313</ele><time>2026-06-19T01:13:51.000Z</time></trkpt>
        <trkpt lat="28.484364" lon="104.985403"><ele>715.77313</ele><time>2026-06-19T01:13:53.000Z</time></trkpt>
        <trkpt lat="28.484359" lon="104.985426"><ele>715.77313</ele><time>2026-06-19T01:13:55.000Z</time></trkpt>
        <trkpt lat="28.484356" lon="104.985445"><ele>715.77313</ele><time>2026-06-19T01:13:57.000Z</time></trkpt>
        <trkpt lat="28.484351" lon="104.985468"><ele>715.82605</ele><time>2026-06-19T01:13:59.000Z</time></trkpt>
        <trkpt lat="28.484344" lon="104.985492"><ele>716.0671</ele><time>2026-06-19T01:14:01.000Z</time></trkpt>
        <trkpt lat="28.484336" lon="104.985518"><ele>716.2753</ele><time>2026-06-19T01:14:03.000Z</time></trkpt>
        <trkpt lat="28.484329" lon="104.985541"><ele>716.3492</ele><time>2026-06-19T01:14:05.000Z</time></trkpt>
        <trkpt lat="28.484325" lon="104.985564"><ele>716.4002</ele><time>2026-06-19T01:14:07.000Z</time></trkpt>
        <trkpt lat="28.484321" lon="104.985588"><ele>716.5431</ele><time>2026-06-19T01:14:09.000Z</time></trkpt>
        <trkpt lat="28.484318" lon="104.985612"><ele>716.73315</ele><time>2026-06-19T01:14:11.000Z</time></trkpt>
        <trkpt lat="28.484316" lon="104.985639"><ele>716.83954</ele><time>2026-06-19T01:14:13.000Z</time></trkpt>
        <trkpt lat="28.484316" lon="104.985664"><ele>716.89716</ele><time>2026-06-19T01:14:15.000Z</time></trkpt>
        <trkpt lat="28.484314" lon="104.98569"><ele>716.92786</ele><time>2026-06-19T01:14:17.000Z</time></trkpt>
        <trkpt lat="28.484312" lon="104.985717"><ele>716.9414</ele><time>2026-06-19T01:14:19.000Z</time></trkpt>
        <trkpt lat="28.484309" lon="104.985738"><ele>716.9762</ele><time>2026-06-19T01:14:21.000Z</time></trkpt>
        <trkpt lat="28.484306" lon="104.985759"><ele>717.0257</ele><time>2026-06-19T01:14:23.000Z</time></trkpt>
        <trkpt lat="28.4843" lon="104.985786"><ele>717.0792</ele><time>2026-06-19T01:14:25.000Z</time></trkpt>
        <trkpt lat="28.484296" lon="104.985815"><ele>717.219</ele><time>2026-06-19T01:14:27.000Z</time></trkpt>
        <trkpt lat="28.484291" lon="104.985843"><ele>717.34753</ele><time>2026-06-19T01:14:29.000Z</time></trkpt>
        <trkpt lat="28.484285" lon="104.985872"><ele>717.34753</ele><time>2026-06-19T01:14:31.000Z</time></trkpt>
        <trkpt lat="28.48428" lon="104.985902"><ele>717.34753</ele><time>2026-06-19T01:14:33.000Z</time></trkpt>
        <trkpt lat="28.484277" lon="104.98593"><ele>717.34753</ele><time>2026-06-19T01:14:35.000Z</time></trkpt>
        <trkpt lat="28.484274" lon="104.985959"><ele>717.34753</ele><time>2026-06-19T01:14:37.000Z</time></trkpt>
        <trkpt lat="28.484268" lon="104.985988"><ele>717.2863</ele><time>2026-06-19T01:14:39.000Z</time></trkpt>
        <trkpt lat="28.484263" lon="104.986013"><ele>717.1905</ele><time>2026-06-19T01:14:41.000Z</time></trkpt>
        <trkpt lat="28.484257" lon="104.986043"><ele>717.12305</ele><time>2026-06-19T01:14:43.000Z</time></trkpt>
        <trkpt lat="28.484253" lon="104.986071"><ele>717.03845</ele><time>2026-06-19T01:14:45.000Z</time></trkpt>
        <trkpt lat="28.484249" lon="104.986098"><ele>716.9204</ele><time>2026-06-19T01:14:47.000Z</time></trkpt>
        <trkpt lat="28.484244" lon="104.986129"><ele>716.6797</ele><time>2026-06-19T01:14:49.000Z</time></trkpt>
        <trkpt lat="28.484239" lon="104.986162"><ele>716.3084</ele><time>2026-06-19T01:14:51.000Z</time></trkpt>
        <trkpt lat="28.484236" lon="104.986191"><ele>715.9502</ele><time>2026-06-19T01:14:53.000Z</time></trkpt>
        <trkpt lat="28.484233" lon="104.986217"><ele>715.66943</ele><time>2026-06-19T01:14:55.000Z</time></trkpt>
        <trkpt lat="28.484231" lon="104.98624"><ele>715.47833</ele><time>2026-06-19T01:14:57.000Z</time></trkpt>
        <trkpt lat="28.484228" lon="104.986259"><ele>715.32855</ele><time>2026-06-19T01:14:59.000Z</time></trkpt>
        <trkpt lat="28.484226" lon="104.986282"><ele>715.055</ele><time>2026-06-19T01:15:01.000Z</time></trkpt>
        <trkpt lat="28.484224" lon="104.986309"><ele>714.639</ele><time>2026-06-19T01:15:03.000Z</time></trkpt>
        <trkpt lat="28.484221" lon="104.986337"><ele>714.2087</ele><time>2026-06-19T01:15:05.000Z</time></trkpt>
        <trkpt lat="28.484218" lon="104.986361"><ele>713.83496</ele><time>2026-06-19T01:15:07.000Z</time></trkpt>
        <trkpt lat="28.484213" lon="104.986384"><ele>713.468</ele><time>2026-06-19T01:15:09.000Z</time></trkpt>
        <trkpt lat="28.484205" lon="104.986412"><ele>712.9812</ele><time>2026-06-19T01:15:11.000Z</time></trkpt>
        <trkpt lat="28.484197" lon="104.986443"><ele>712.37476</ele><time>2026-06-19T01:15:13.000Z</time></trkpt>
        <trkpt lat="28.484191" lon="104.986477"><ele>711.7822</ele><time>2026-06-19T01:15:15.000Z</time></trkpt>
        <trkpt lat="28.484188" lon="104.986502"><ele>711.25385</ele><time>2026-06-19T01:15:17.000Z</time></trkpt>
        <trkpt lat="28.484185" lon="104.986521"><ele>710.82434</ele><time>2026-06-19T01:15:19.000Z</time></trkpt>
        <trkpt lat="28.484181" lon="104.986537"><ele>710.31537</ele><time>2026-06-19T01:15:21.000Z</time></trkpt>
        <trkpt lat="28.484174" lon="104.98656"><ele>709.8485</ele><time>2026-06-19T01:15:23.000Z</time></trkpt>
        <trkpt lat="28.484166" lon="104.986586"><ele>709.3612</ele><time>2026-06-19T01:15:25.000Z</time></trkpt>
        <trkpt lat="28.484159" lon="104.986611"><ele>708.75525</ele><time>2026-06-19T01:15:27.000Z</time></trkpt>
        <trkpt lat="28.48415" lon="104.986642"><ele>708.27985</ele><time>2026-06-19T01:15:29.000Z</time></trkpt>
        <trkpt lat="28.484139" lon="104.986674"><ele>707.8576</ele><time>2026-06-19T01:15:31.000Z</time></trkpt>
        <trkpt lat="28.484129" lon="104.986704"><ele>707.3359</ele><time>2026-06-19T01:15:33.000Z</time></trkpt>
        <trkpt lat="28.484118" lon="104.98673"><ele>706.6867</ele><time>2026-06-19T01:15:35.000Z</time></trkpt>
        <trkpt lat="28.484107" lon="104.986751"><ele>706.16547</ele><time>2026-06-19T01:15:37.000Z</time></trkpt>
        <trkpt lat="28.484095" lon="104.98677"><ele>705.7966</ele><time>2026-06-19T01:15:39.000Z</time></trkpt>
        <trkpt lat="28.484076" lon="104.986796"><ele>705.36304</ele><time>2026-06-19T01:15:41.000Z</time></trkpt>
        <trkpt lat="28.484059" lon="104.986822"><ele>705.0348</ele><time>2026-06-19T01:15:43.000Z</time></trkpt>
        <trkpt lat="28.484048" lon="104.986846"><ele>704.83527</ele><time>2026-06-19T01:15:45.000Z</time></trkpt>
        <trkpt lat="28.484041" lon="104.986868"><ele>704.74115</ele><time>2026-06-19T01:15:47.000Z</time></trkpt>
        <trkpt lat="28.484034" lon="104.986897"><ele>704.74115</ele><time>2026-06-19T01:15:49.000Z</time></trkpt>
        <trkpt lat="28.484027" lon="104.986926"><ele>704.74115</ele><time>2026-06-19T01:15:51.000Z</time></trkpt>
        <trkpt lat="28.48402" lon="104.986954"><ele>704.74115</ele><time>2026-06-19T01:15:53.000Z</time></trkpt>
        <trkpt lat="28.484011" lon="104.986976"><ele>704.74115</ele><time>2026-06-19T01:15:55.000Z</time></trkpt>
        <trkpt lat="28.484" lon="104.987003"><ele>704.76227</ele><time>2026-06-19T01:15:57.000Z</time></trkpt>
        <trkpt lat="28.483992" lon="104.987022"><ele>704.8649</ele><time>2026-06-19T01:15:59.000Z</time></trkpt>
        <trkpt lat="28.483983" lon="104.987049"><ele>705.137</ele><time>2026-06-19T01:16:01.000Z</time></trkpt>
        <trkpt lat="28.483973" lon="104.987074"><ele>705.4027</ele><time>2026-06-19T01:16:03.000Z</time></trkpt>
        <trkpt lat="28.483962" lon="104.987095"><ele>705.6151</ele><time>2026-06-19T01:16:05.000Z</time></trkpt>
        <trkpt lat="28.483949" lon="104.987121"><ele>705.6418</ele><time>2026-06-19T01:16:07.000Z</time></trkpt>
        <trkpt lat="28.483938" lon="104.987141"><ele>705.6418</ele><time>2026-06-19T01:16:09.000Z</time></trkpt>
        <trkpt lat="28.483925" lon="104.987162"><ele>705.6418</ele><time>2026-06-19T01:16:11.000Z</time></trkpt>
        <trkpt lat="28.483911" lon="104.987181"><ele>705.6418</ele><time>2026-06-19T01:16:13.000Z</time></trkpt>
        <trkpt lat="28.483898" lon="104.987205"><ele>705.6418</ele><time>2026-06-19T01:16:15.000Z</time></trkpt>
        <trkpt lat="28.483881" lon="104.987236"><ele>705.34644</ele><time>2026-06-19T01:16:17.000Z</time></trkpt>
        <trkpt lat="28.483866" lon="104.987265"><ele>704.89294</ele><time>2026-06-19T01:16:19.000Z</time></trkpt>
        <trkpt lat="28.483853" lon="104.987289"><ele>704.3763</ele><time>2026-06-19T01:16:21.000Z</time></trkpt>
        <trkpt lat="28.483839" lon="104.987314"><ele>703.81757</ele><time>2026-06-19T01:16:23.000Z</time></trkpt>
        <trkpt lat="28.483823" lon="104.987342"><ele>703.3119</ele><time>2026-06-19T01:16:25.000Z</time></trkpt>
        <trkpt lat="28.483807" lon="104.987367"><ele>702.8473</ele><time>2026-06-19T01:16:27.000Z</time></trkpt>
        <trkpt lat="28.483793" lon="104.987385"><ele>702.37665</ele><time>2026-06-19T01:16:29.000Z</time></trkpt>
        <trkpt lat="28.483777" lon="104.987402"><ele>702.0112</ele><time>2026-06-19T01:16:31.000Z</time></trkpt>
        <trkpt lat="28.483752" lon="104.98742"><ele>701.76636</ele><time>2026-06-19T01:16:33.000Z</time></trkpt>
        <trkpt lat="28.483727" lon="104.987435"><ele>701.60486</ele><time>2026-06-19T01:16:35.000Z</time></trkpt>
        <trkpt lat="28.483704" lon="104.987445"><ele>701.36005</ele><time>2026-06-19T01:16:37.000Z</time></trkpt>
        <trkpt lat="28.48368" lon="104.987455"><ele>700.99493</ele><time>2026-06-19T01:16:39.000Z</time></trkpt>
        <trkpt lat="28.483658" lon="104.987464"><ele>700.5308</ele><time>2026-06-19T01:16:41.000Z</time></trkpt>
        <trkpt lat="28.483636" lon="104.987473"><ele>700.00146</ele><time>2026-06-19T01:16:43.000Z</time></trkpt>
        <trkpt lat="28.483613" lon="104.987475"><ele>699.4323</ele><time>2026-06-19T01:16:45.000Z</time></trkpt>
        <trkpt lat="28.483586" lon="104.987472"><ele>698.8182</ele><time>2026-06-19T01:16:47.000Z</time></trkpt>
        <trkpt lat="28.483558" lon="104.987464"><ele>698.1958</ele><time>2026-06-19T01:16:49.000Z</time></trkpt>
        <trkpt lat="28.483529" lon="104.987456"><ele>697.4851</ele><time>2026-06-19T01:16:51.000Z</time></trkpt>
        <trkpt lat="28.483505" lon="104.987451"><ele>696.7186</ele><time>2026-06-19T01:16:53.000Z</time></trkpt>
        <trkpt lat="28.483483" lon="104.987446"><ele>695.88025</ele><time>2026-06-19T01:16:55.000Z</time></trkpt>
        <trkpt lat="28.483463" lon="104.987443"><ele>695.10547</ele><time>2026-06-19T01:16:57.000Z</time></trkpt>
        <trkpt lat="28.483446" lon="104.987443"><ele>694.37067</ele><time>2026-06-19T01:16:59.000Z</time></trkpt>
        <trkpt lat="28.483425" lon="104.987443"><ele>693.5201</ele><time>2026-06-19T01:17:01.000Z</time></trkpt>
        <trkpt lat="28.483406" lon="104.987443"><ele>692.83813</ele><time>2026-06-19T01:17:03.000Z</time></trkpt>
        <trkpt lat="28.483387" lon="104.987439"><ele>692.2587</ele><time>2026-06-19T01:17:05.000Z</time></trkpt>
        <trkpt lat="28.483368" lon="104.98743"><ele>691.64996</ele><time>2026-06-19T01:17:07.000Z</time></trkpt>
        <trkpt lat="28.483352" lon="104.987415"><ele>691.13416</ele><time>2026-06-19T01:17:09.000Z</time></trkpt>
        <trkpt lat="28.483333" lon="104.987395"><ele>690.8336</ele><time>2026-06-19T01:17:11.000Z</time></trkpt>
        <trkpt lat="28.483316" lon="104.987373"><ele>690.64453</ele><time>2026-06-19T01:17:13.000Z</time></trkpt>
        <trkpt lat="28.483301" lon="104.987351"><ele>690.40765</ele><time>2026-06-19T01:17:15.000Z</time></trkpt>
        <trkpt lat="28.483288" lon="104.98733"><ele>690.20764</ele><time>2026-06-19T01:17:17.000Z</time></trkpt>
        <trkpt lat="28.483275" lon="104.987307"><ele>689.9138</ele><time>2026-06-19T01:17:19.000Z</time></trkpt>
        <trkpt lat="28.483263" lon="104.987283"><ele>689.53406</ele><time>2026-06-19T01:17:21.000Z</time></trkpt>
        <trkpt lat="28.483251" lon="104.987259"><ele>689.1601</ele><time>2026-06-19T01:17:23.000Z</time></trkpt>
        <trkpt lat="28.48324" lon="104.987233"><ele>688.82336</ele><time>2026-06-19T01:17:25.000Z</time></trkpt>
        <trkpt lat="28.483227" lon="104.987208"><ele>688.5846</ele><time>2026-06-19T01:17:27.000Z</time></trkpt>
        <trkpt lat="28.483214" lon="104.987184"><ele>688.4314</ele><time>2026-06-19T01:17:29.000Z</time></trkpt>
        <trkpt lat="28.483202" lon="104.987162"><ele>688.2641</ele><time>2026-06-19T01:17:31.000Z</time></trkpt>
        <trkpt lat="28.48319" lon="104.987143"><ele>688.07556</ele><time>2026-06-19T01:17:33.000Z</time></trkpt>
        <trkpt lat="28.48318" lon="104.987123"><ele>687.885</ele><time>2026-06-19T01:17:35.000Z</time></trkpt>
        <trkpt lat="28.483177" lon="104.987123"><ele>687.676</ele><time>2026-06-19T01:17:37.000Z</time></trkpt>
        <trkpt lat="28.483211" lon="104.987116"><ele>687.3617</ele><time>2026-06-19T01:17:45.000Z</time></trkpt>
        <trkpt lat="28.483211" lon="104.987116"><ele>687.2065</ele><time>2026-06-19T01:17:47.000Z</time></trkpt>
        <trkpt lat="28.483194" lon="104.987075"><ele>687.1109</ele><time>2026-06-19T01:17:51.000Z</time></trkpt>
        <trkpt lat="28.483194" lon="104.987075"><ele>687.0508</ele><time>2026-06-19T01:17:53.000Z</time></trkpt>
        <trkpt lat="28.483192" lon="104.987072"><ele>687.023</ele><time>2026-06-19T01:17:55.000Z</time></trkpt>
        <trkpt lat="28.483171" lon="104.987039"><ele>687.0086</ele><time>2026-06-19T01:17:59.000Z</time></trkpt>
        <trkpt lat="28.483155" lon="104.987015"><ele>686.9287</ele><time>2026-06-19T01:18:01.000Z</time></trkpt>
        <trkpt lat="28.483139" lon="104.986993"><ele>686.87213</ele><time>2026-06-19T01:18:03.000Z</time></trkpt>
        <trkpt lat="28.483128" lon="104.986976"><ele>686.87213</ele><time>2026-06-19T01:18:05.000Z</time></trkpt>
        <trkpt lat="28.483123" lon="104.986967"><ele>686.87213</ele><time>2026-06-19T01:18:07.000Z</time></trkpt>
        <trkpt lat="28.483123" lon="104.986964"><ele>686.6178</ele><time>2026-06-19T01:18:09.000Z</time></trkpt>
        <trkpt lat="28.483118" lon="104.986931"><ele>686.3481</ele><time>2026-06-19T01:18:35.000Z</time></trkpt>
        <trkpt lat="28.483111" lon="104.986914"><ele>686.1309</ele><time>2026-06-19T01:18:37.000Z</time></trkpt>
        <trkpt lat="28.483108" lon="104.986906"><ele>685.9754</ele><time>2026-06-19T01:18:38.000Z</time></trkpt>
        <trkpt lat="28.48309" lon="104.986864"><ele>685.8003</ele><time>2026-06-19T01:18:46.000Z</time></trkpt>
        <trkpt lat="28.48309" lon="104.986864"><ele>685.6265</ele><time>2026-06-19T01:18:48.000Z</time></trkpt>
        <trkpt lat="28.483089" lon="104.986862"><ele>685.3252</ele><time>2026-06-19T01:18:50.000Z</time></trkpt>
        <trkpt lat="28.483073" lon="104.986827"><ele>684.8408</ele><time>2026-06-19T01:18:54.000Z</time></trkpt>
        <trkpt lat="28.483064" lon="104.986802"><ele>684.55945</ele><time>2026-06-19T01:18:56.000Z</time></trkpt>
        <trkpt lat="28.483057" lon="104.986781"><ele>684.53595</ele><time>2026-06-19T01:18:58.000Z</time></trkpt>
        <trkpt lat="28.483054" lon="104.986766"><ele>684.5306</ele><time>2026-06-19T01:19:00.000Z</time></trkpt>
        <trkpt lat="28.483052" lon="104.986755"><ele>684.3161</ele><time>2026-06-19T01:19:02.000Z</time></trkpt>
        <trkpt lat="28.483051" lon="104.986747"><ele>683.9118</ele><time>2026-06-19T01:19:04.000Z</time></trkpt>
        <trkpt lat="28.483046" lon="104.986732"><ele>683.58215</ele><time>2026-06-19T01:19:06.000Z</time></trkpt>
        <trkpt lat="28.483041" lon="104.986712"><ele>683.4071</ele><time>2026-06-19T01:19:08.000Z</time></trkpt>
        <trkpt lat="28.483035" lon="104.98669"><ele>683.35785</ele><time>2026-06-19T01:19:10.000Z</time></trkpt>
        <trkpt lat="28.483029" lon="104.986666"><ele>683.3401</ele><time>2026-06-19T01:19:12.000Z</time></trkpt>
        <trkpt lat="28.483023" lon="104.986642"><ele>683.3309</ele><time>2026-06-19T01:19:14.000Z</time></trkpt>
        <trkpt lat="28.483016" lon="104.986614"><ele>683.2999</ele><time>2026-06-19T01:19:16.000Z</time></trkpt>
        <trkpt lat="28.48301" lon="104.986589"><ele>683.1998</ele><time>2026-06-19T01:19:18.000Z</time></trkpt>
        <trkpt lat="28.483004" lon="104.986563"><ele>683.045</ele><time>2026-06-19T01:19:20.000Z</time></trkpt>
        <trkpt lat="28.482998" lon="104.986534"><ele>682.9015</ele><time>2026-06-19T01:19:22.000Z</time></trkpt>
        <trkpt lat="28.482993" lon="104.98651"><ele>682.8185</ele><time>2026-06-19T01:19:24.000Z</time></trkpt>
        <trkpt lat="28.48299" lon="104.986484"><ele>682.78046</ele><time>2026-06-19T01:19:26.000Z</time></trkpt>
        <trkpt lat="28.482988" lon="104.986458"><ele>682.7028</ele><time>2026-06-19T01:19:28.000Z</time></trkpt>
        <trkpt lat="28.482985" lon="104.98643"><ele>682.61304</ele><time>2026-06-19T01:19:30.000Z</time></trkpt>
        <trkpt lat="28.482982" lon="104.986407"><ele>682.515</ele><time>2026-06-19T01:19:32.000Z</time></trkpt>
        <trkpt lat="28.482978" lon="104.986381"><ele>682.2136</ele><time>2026-06-19T01:19:34.000Z</time></trkpt>
        <trkpt lat="28.482972" lon="104.986354"><ele>681.7045</ele><time>2026-06-19T01:19:36.000Z</time></trkpt>
        <trkpt lat="28.482968" lon="104.986325"><ele>681.2182</ele><time>2026-06-19T01:19:38.000Z</time></trkpt>
        <trkpt lat="28.482964" lon="104.986295"><ele>680.7732</ele><time>2026-06-19T01:19:40.000Z</time></trkpt>
        <trkpt lat="28.482962" lon="104.986266"><ele>680.3128</ele><time>2026-06-19T01:19:42.000Z</time></trkpt>
        <trkpt lat="28.482963" lon="104.986237"><ele>679.93976</ele><time>2026-06-19T01:19:44.000Z</time></trkpt>
        <trkpt lat="28.482964" lon="104.986212"><ele>679.8777</ele><time>2026-06-19T01:19:46.000Z</time></trkpt>
        <trkpt lat="28.482963" lon="104.986187"><ele>679.8777</ele><time>2026-06-19T01:19:48.000Z</time></trkpt>
        <trkpt lat="28.482961" lon="104.986163"><ele>679.8777</ele><time>2026-06-19T01:19:50.000Z</time></trkpt>
        <trkpt lat="28.482959" lon="104.986135"><ele>679.8777</ele><time>2026-06-19T01:19:52.000Z</time></trkpt>
        <trkpt lat="28.482955" lon="104.986104"><ele>679.8777</ele><time>2026-06-19T01:19:54.000Z</time></trkpt>
        <trkpt lat="28.482949" lon="104.986072"><ele>680.0523</ele><time>2026-06-19T01:19:56.000Z</time></trkpt>
        <trkpt lat="28.482943" lon="104.986046"><ele>680.2411</ele><time>2026-06-19T01:19:58.000Z</time></trkpt>
        <trkpt lat="28.482936" lon="104.986024"><ele>680.35504</ele><time>2026-06-19T01:20:00.000Z</time></trkpt>
        <trkpt lat="28.482929" lon="104.985996"><ele>680.3701</ele><time>2026-06-19T01:20:02.000Z</time></trkpt>
        <trkpt lat="28.482923" lon="104.985967"><ele>680.4645</ele><time>2026-06-19T01:20:04.000Z</time></trkpt>
        <trkpt lat="28.482914" lon="104.985937"><ele>680.6646</ele><time>2026-06-19T01:20:06.000Z</time></trkpt>
        <trkpt lat="28.482908" lon="104.985909"><ele>680.8422</ele><time>2026-06-19T01:20:08.000Z</time></trkpt>
        <trkpt lat="28.482904" lon="104.985887"><ele>680.9968</ele><time>2026-06-19T01:20:10.000Z</time></trkpt>
        <trkpt lat="28.482899" lon="104.985868"><ele>681.12463</ele><time>2026-06-19T01:20:12.000Z</time></trkpt>
        <trkpt lat="28.482894" lon="104.98585"><ele>681.2036</ele><time>2026-06-19T01:20:14.000Z</time></trkpt>
        <trkpt lat="28.482888" lon="104.985832"><ele>681.4101</ele><time>2026-06-19T01:20:16.000Z</time></trkpt>
        <trkpt lat="28.482882" lon="104.985815"><ele>681.7059</ele><time>2026-06-19T01:20:18.000Z</time></trkpt>
        <trkpt lat="28.482873" lon="104.985794"><ele>681.89276</ele><time>2026-06-19T01:20:20.000Z</time></trkpt>
        <trkpt lat="28.482865" lon="104.985777"><ele>682.1038</ele><time>2026-06-19T01:20:21.000Z</time></trkpt>
        <trkpt lat="28.482853" lon="104.985755"><ele>682.46564</ele><time>2026-06-19T01:20:23.000Z</time></trkpt>
        <trkpt lat="28.48284" lon="104.985735"><ele>682.8423</ele><time>2026-06-19T01:20:25.000Z</time></trkpt>
        <trkpt lat="28.482832" lon="104.985715"><ele>683.1009</ele><time>2026-06-19T01:20:27.000Z</time></trkpt>
        <trkpt lat="28.482824" lon="104.985691"><ele>683.35046</ele><time>2026-06-19T01:20:29.000Z</time></trkpt>
        <trkpt lat="28.482815" lon="104.985666"><ele>683.715</ele><time>2026-06-19T01:20:31.000Z</time></trkpt>
        <trkpt lat="28.482805" lon="104.985642"><ele>684.21686</ele><time>2026-06-19T01:20:33.000Z</time></trkpt>
        <trkpt lat="28.482795" lon="104.985622"><ele>684.8311</ele><time>2026-06-19T01:20:35.000Z</time></trkpt>
        <trkpt lat="28.482785" lon="104.985606"><ele>685.3393</ele><time>2026-06-19T01:20:37.000Z</time></trkpt>
        <trkpt lat="28.482774" lon="104.985587"><ele>685.68427</ele><time>2026-06-19T01:20:40.000Z</time></trkpt>
        <trkpt lat="28.482764" lon="104.985565"><ele>686.0587</ele><time>2026-06-19T01:20:42.000Z</time></trkpt>
        <trkpt lat="28.482754" lon="104.985543"><ele>686.4587</ele><time>2026-06-19T01:20:44.000Z</time></trkpt>
        <trkpt lat="28.482746" lon="104.985521"><ele>686.76794</ele><time>2026-06-19T01:20:46.000Z</time></trkpt>
        <trkpt lat="28.482738" lon="104.985499"><ele>687.02216</ele><time>2026-06-19T01:20:48.000Z</time></trkpt>
        <trkpt lat="28.482732" lon="104.985479"><ele>687.0345</ele><time>2026-06-19T01:20:50.000Z</time></trkpt>
        <trkpt lat="28.482724" lon="104.985457"><ele>687.0345</ele><time>2026-06-19T01:20:52.000Z</time></trkpt>
        <trkpt lat="28.482719" lon="104.985436"><ele>687.0345</ele><time>2026-06-19T01:20:54.000Z</time></trkpt>
        <trkpt lat="28.482712" lon="104.985415"><ele>687.0345</ele><time>2026-06-19T01:20:56.000Z</time></trkpt>
        <trkpt lat="28.482705" lon="104.985398"><ele>687.0345</ele><time>2026-06-19T01:20:58.000Z</time></trkpt>
        <trkpt lat="28.482691" lon="104.985376"><ele>686.76666</ele><time>2026-06-19T01:21:00.000Z</time></trkpt>
        <trkpt lat="28.482675" lon="104.985356"><ele>686.3344</ele><time>2026-06-19T01:21:02.000Z</time></trkpt>
        <trkpt lat="28.482657" lon="104.985333"><ele>685.968</ele><time>2026-06-19T01:21:04.000Z</time></trkpt>
        <trkpt lat="28.482637" lon="104.985311"><ele>685.61127</ele><time>2026-06-19T01:21:06.000Z</time></trkpt>
        <trkpt lat="28.482617" lon="104.98529"><ele>685.0554</ele><time>2026-06-19T01:21:08.000Z</time></trkpt>
        <trkpt lat="28.4826" lon="104.98527"><ele>684.52924</ele><time>2026-06-19T01:21:10.000Z</time></trkpt>
        <trkpt lat="28.482584" lon="104.985248"><ele>683.92737</ele><time>2026-06-19T01:21:12.000Z</time></trkpt>
        <trkpt lat="28.48257" lon="104.985225"><ele>683.2611</ele><time>2026-06-19T01:21:14.000Z</time></trkpt>
        <trkpt lat="28.482555" lon="104.985204"><ele>682.7741</ele><time>2026-06-19T01:21:16.000Z</time></trkpt>
        <trkpt lat="28.482542" lon="104.985191"><ele>682.3596</ele><time>2026-06-19T01:21:18.000Z</time></trkpt>
        <trkpt lat="28.482529" lon="104.985181"><ele>681.93274</ele><time>2026-06-19T01:21:20.000Z</time></trkpt>
        <trkpt lat="28.482514" lon="104.985172"><ele>681.4106</ele><time>2026-06-19T01:21:22.000Z</time></trkpt>
        <trkpt lat="28.482497" lon="104.985162"><ele>680.71106</ele><time>2026-06-19T01:21:24.000Z</time></trkpt>
        <trkpt lat="28.48248" lon="104.985154"><ele>680.10803</ele><time>2026-06-19T01:21:26.000Z</time></trkpt>
        <trkpt lat="28.482463" lon="104.985141"><ele>679.68646</ele><time>2026-06-19T01:21:28.000Z</time></trkpt>
        <trkpt lat="28.482454" lon="104.985124"><ele>679.352</ele><time>2026-06-19T01:21:30.000Z</time></trkpt>
        <trkpt lat="28.482443" lon="104.985095"><ele>679.0887</ele><time>2026-06-19T01:21:32.000Z</time></trkpt>
        <trkpt lat="28.482431" lon="104.985058"><ele>678.80066</ele><time>2026-06-19T01:21:34.000Z</time></trkpt>
        <trkpt lat="28.482419" lon="104.985022"><ele>678.38544</ele><time>2026-06-19T01:21:36.000Z</time></trkpt>
        <trkpt lat="28.48241" lon="104.984996"><ele>677.92285</ele><time>2026-06-19T01:21:38.000Z</time></trkpt>
        <trkpt lat="28.482404" lon="104.984978"><ele>677.59534</ele><time>2026-06-19T01:21:40.000Z</time></trkpt>
        <trkpt lat="28.482398" lon="104.984958"><ele>677.59534</ele><time>2026-06-19T01:21:42.000Z</time></trkpt>
        <trkpt lat="28.482387" lon="104.984947"><ele>677.5846</ele><time>2026-06-19T01:21:44.000Z</time></trkpt>
        <trkpt lat="28.482356" lon="104.984916"><ele>677.57513</ele><time>2026-06-19T01:21:50.000Z</time></trkpt>
        <trkpt lat="28.482356" lon="104.984916"><ele>677.57495</ele><time>2026-06-19T01:21:52.000Z</time></trkpt>
        <trkpt lat="28.482356" lon="104.984913"><ele>677.57495</ele><time>2026-06-19T01:21:54.000Z</time></trkpt>
        <trkpt lat="28.482345" lon="104.984865"><ele>677.66797</ele><time>2026-06-19T01:22:00.000Z</time></trkpt>
        <trkpt lat="28.482345" lon="104.984865"><ele>677.67395</ele><time>2026-06-19T01:22:02.000Z</time></trkpt>
        <trkpt lat="28.482344" lon="104.984861"><ele>677.6835</ele><time>2026-06-19T01:22:08.000Z</time></trkpt>
        <trkpt lat="28.482311" lon="104.984744"><ele>677.69934</ele><time>2026-06-19T01:22:16.000Z</time></trkpt>
        <trkpt lat="28.482311" lon="104.984744"><ele>677.93774</ele><time>2026-06-19T01:22:18.000Z</time></trkpt>
        <trkpt lat="28.48231" lon="104.984741"><ele>678.18463</ele><time>2026-06-19T01:22:20.000Z</time></trkpt>
        <trkpt lat="28.482289" lon="104.984659"><ele>678.2244</ele><time>2026-06-19T01:22:26.000Z</time></trkpt>
        <trkpt lat="28.48228" lon="104.984624"><ele>678.2244</ele><time>2026-06-19T01:22:28.000Z</time></trkpt>
        <trkpt lat="28.482269" lon="104.984587"><ele>678.2244</ele><time>2026-06-19T01:22:30.000Z</time></trkpt>
        <trkpt lat="28.482258" lon="104.984551"><ele>678.2244</ele><time>2026-06-19T01:22:32.000Z</time></trkpt>
        <trkpt lat="28.482248" lon="104.984522"><ele>678.2244</ele><time>2026-06-19T01:22:34.000Z</time></trkpt>
        <trkpt lat="28.482236" lon="104.984496"><ele>678.1892</ele><time>2026-06-19T01:22:36.000Z</time></trkpt>
        <trkpt lat="28.482226" lon="104.984472"><ele>677.9359</ele><time>2026-06-19T01:22:38.000Z</time></trkpt>
        <trkpt lat="28.482216" lon="104.98445"><ele>677.61975</ele><time>2026-06-19T01:22:40.000Z</time></trkpt>
        <trkpt lat="28.482211" lon="104.98443"><ele>677.4047</ele><time>2026-06-19T01:22:42.000Z</time></trkpt>
        <trkpt lat="28.482206" lon="104.984414"><ele>677.2906</ele><time>2026-06-19T01:22:44.000Z</time></trkpt>
        <trkpt lat="28.482196" lon="104.98439"><ele>677.09546</ele><time>2026-06-19T01:22:46.000Z</time></trkpt>
        <trkpt lat="28.482187" lon="104.98437"><ele>676.68207</ele><time>2026-06-19T01:22:48.000Z</time></trkpt>
        <trkpt lat="28.482177" lon="104.984356"><ele>676.26324</ele><time>2026-06-19T01:22:50.000Z</time></trkpt>
        <trkpt lat="28.482163" lon="104.984341"><ele>675.90326</ele><time>2026-06-19T01:22:52.000Z</time></trkpt>
        <trkpt lat="28.482151" lon="104.984322"><ele>675.5591</ele><time>2026-06-19T01:22:54.000Z</time></trkpt>
        <trkpt lat="28.482141" lon="104.984299"><ele>675.1382</ele><time>2026-06-19T01:22:56.000Z</time></trkpt>
        <trkpt lat="28.482133" lon="104.984274"><ele>674.7459</ele><time>2026-06-19T01:22:58.000Z</time></trkpt>
        <trkpt lat="28.482127" lon="104.984243"><ele>674.25616</ele><time>2026-06-19T01:23:00.000Z</time></trkpt>
        <trkpt lat="28.48212" lon="104.98421"><ele>673.5276</ele><time>2026-06-19T01:23:02.000Z</time></trkpt>
        <trkpt lat="28.48211" lon="104.984176"><ele>672.8149</ele><time>2026-06-19T01:23:04.000Z</time></trkpt>
        <trkpt lat="28.482097" lon="104.984143"><ele>672.1455</ele><time>2026-06-19T01:23:06.000Z</time></trkpt>
        <trkpt lat="28.482084" lon="104.984114"><ele>671.507</ele><time>2026-06-19T01:23:08.000Z</time></trkpt>
        <trkpt lat="28.482071" lon="104.984086"><ele>670.85974</ele><time>2026-06-19T01:23:10.000Z</time></trkpt>
        <trkpt lat="28.482056" lon="104.984058"><ele>670.25305</ele><time>2026-06-19T01:23:12.000Z</time></trkpt>
        <trkpt lat="28.482042" lon="104.98403"><ele>669.8325</ele><time>2026-06-19T01:23:14.000Z</time></trkpt>
        <trkpt lat="28.48203" lon="104.984004"><ele>669.3959</ele><time>2026-06-19T01:23:16.000Z</time></trkpt>
        <trkpt lat="28.482022" lon="104.983978"><ele>668.8715</ele><time>2026-06-19T01:23:18.000Z</time></trkpt>
        <trkpt lat="28.482019" lon="104.983955"><ele>668.22784</ele><time>2026-06-19T01:23:20.000Z</time></trkpt>
        <trkpt lat="28.482016" lon="104.983935"><ele>667.37354</ele><time>2026-06-19T01:23:22.000Z</time></trkpt>
        <trkpt lat="28.48201" lon="104.983916"><ele>666.4747</ele><time>2026-06-19T01:23:24.000Z</time></trkpt>
        <trkpt lat="28.482003" lon="104.983895"><ele>665.8011</ele><time>2026-06-19T01:23:26.000Z</time></trkpt>
        <trkpt lat="28.481994" lon="104.983872"><ele>665.41956</ele><time>2026-06-19T01:23:28.000Z</time></trkpt>
        <trkpt lat="28.481985" lon="104.98385"><ele>665.15015</ele><time>2026-06-19T01:23:30.000Z</time></trkpt>
        <trkpt lat="28.481974" lon="104.983826"><ele>664.8766</ele><time>2026-06-19T01:23:32.000Z</time></trkpt>
        <trkpt lat="28.481962" lon="104.983801"><ele>664.5635</ele><time>2026-06-19T01:23:34.000Z</time></trkpt>
        <trkpt lat="28.481949" lon="104.983777"><ele>664.3683</ele><time>2026-06-19T01:23:36.000Z</time></trkpt>
        <trkpt lat="28.481936" lon="104.983758"><ele>664.32367</ele><time>2026-06-19T01:23:38.000Z</time></trkpt>
        <trkpt lat="28.481923" lon="104.983744"><ele>664.1525</ele><time>2026-06-19T01:23:40.000Z</time></trkpt>
        <trkpt lat="28.481907" lon="104.983726"><ele>663.68414</ele><time>2026-06-19T01:23:42.000Z</time></trkpt>
        <trkpt lat="28.481891" lon="104.983708"><ele>663.09296</ele><time>2026-06-19T01:23:44.000Z</time></trkpt>
        <trkpt lat="28.481877" lon="104.983689"><ele>662.6181</ele><time>2026-06-19T01:23:46.000Z</time></trkpt>
        <trkpt lat="28.481866" lon="104.98367"><ele>662.215</ele><time>2026-06-19T01:23:48.000Z</time></trkpt>
        <trkpt lat="28.481857" lon="104.983651"><ele>661.7272</ele><time>2026-06-19T01:23:50.000Z</time></trkpt>
        <trkpt lat="28.481847" lon="104.983623"><ele>661.1056</ele><time>2026-06-19T01:23:52.000Z</time></trkpt>
        <trkpt lat="28.481839" lon="104.983594"><ele>660.4448</ele><time>2026-06-19T01:23:54.000Z</time></trkpt>
        <trkpt lat="28.481828" lon="104.983565"><ele>659.88403</ele><time>2026-06-19T01:23:56.000Z</time></trkpt>
        <trkpt lat="28.481817" lon="104.983539"><ele>659.461</ele><time>2026-06-19T01:23:58.000Z</time></trkpt>
        <trkpt lat="28.481806" lon="104.983514"><ele>659.134</ele><time>2026-06-19T01:24:00.000Z</time></trkpt>
        <trkpt lat="28.481794" lon="104.983496"><ele>658.85693</ele><time>2026-06-19T01:24:02.000Z</time></trkpt>
        <trkpt lat="28.481784" lon="104.983476"><ele>658.52496</ele><time>2026-06-19T01:24:04.000Z</time></trkpt>
        <trkpt lat="28.481773" lon="104.983454"><ele>658.0828</ele><time>2026-06-19T01:24:06.000Z</time></trkpt>
        <trkpt lat="28.481763" lon="104.98343"><ele>657.63434</ele><time>2026-06-19T01:24:08.000Z</time></trkpt>
        <trkpt lat="28.481751" lon="104.983411"><ele>657.25507</ele><time>2026-06-19T01:24:10.000Z</time></trkpt>
        <trkpt lat="28.48174" lon="104.983396"><ele>657.02234</ele><time>2026-06-19T01:24:12.000Z</time></trkpt>
        <trkpt lat="28.481728" lon="104.983379"><ele>656.8258</ele><time>2026-06-19T01:24:14.000Z</time></trkpt>
        <trkpt lat="28.481716" lon="104.98336"><ele>656.6237</ele><time>2026-06-19T01:24:16.000Z</time></trkpt>
        <trkpt lat="28.481703" lon="104.98334"><ele>656.4629</ele><time>2026-06-19T01:24:18.000Z</time></trkpt>
        <trkpt lat="28.481689" lon="104.98332"><ele>656.2812</ele><time>2026-06-19T01:24:20.000Z</time></trkpt>
        <trkpt lat="28.481678" lon="104.9833"><ele>655.97485</ele><time>2026-06-19T01:24:22.000Z</time></trkpt>
        <trkpt lat="28.481667" lon="104.983274"><ele>655.64264</ele><time>2026-06-19T01:24:24.000Z</time></trkpt>
        <trkpt lat="28.481655" lon="104.983237"><ele>655.4884</ele><time>2026-06-19T01:24:26.000Z</time></trkpt>
        <trkpt lat="28.481647" lon="104.983203"><ele>655.41846</ele><time>2026-06-19T01:24:28.000Z</time></trkpt>
        <trkpt lat="28.481639" lon="104.98317"><ele>655.38135</ele><time>2026-06-19T01:24:30.000Z</time></trkpt>
        <trkpt lat="28.481632" lon="104.983143"><ele>655.3128</ele><time>2026-06-19T01:24:32.000Z</time></trkpt>
        <trkpt lat="28.481623" lon="104.983117"><ele>655.2445</ele><time>2026-06-19T01:24:34.000Z</time></trkpt>
        <trkpt lat="28.481617" lon="104.983095"><ele>655.2445</ele><time>2026-06-19T01:24:36.000Z</time></trkpt>
        <trkpt lat="28.481611" lon="104.983071"><ele>655.2388</ele><time>2026-06-19T01:24:38.000Z</time></trkpt>
        <trkpt lat="28.481608" lon="104.983049"><ele>655.2388</ele><time>2026-06-19T01:24:40.000Z</time></trkpt>
        <trkpt lat="28.481607" lon="104.983025"><ele>655.2132</ele><time>2026-06-19T01:24:42.000Z</time></trkpt>
        <trkpt lat="28.481606" lon="104.983001"><ele>655.1796</ele><time>2026-06-19T01:24:44.000Z</time></trkpt>
        <trkpt lat="28.481605" lon="104.982974"><ele>655.12354</ele><time>2026-06-19T01:24:46.000Z</time></trkpt>
        <trkpt lat="28.481606" lon="104.982949"><ele>655.04443</ele><time>2026-06-19T01:24:48.000Z</time></trkpt>
        <trkpt lat="28.481606" lon="104.982924"><ele>654.85486</ele><time>2026-06-19T01:24:50.000Z</time></trkpt>
        <trkpt lat="28.481605" lon="104.982897"><ele>654.60144</ele><time>2026-06-19T01:24:52.000Z</time></trkpt>
        <trkpt lat="28.481604" lon="104.982862"><ele>654.41693</ele><time>2026-06-19T01:24:54.000Z</time></trkpt>
        <trkpt lat="28.481604" lon="104.982829"><ele>654.2204</ele><time>2026-06-19T01:24:56.000Z</time></trkpt>
        <trkpt lat="28.481602" lon="104.982798"><ele>654.01794</ele><time>2026-06-19T01:24:58.000Z</time></trkpt>
        <trkpt lat="28.481603" lon="104.982766"><ele>653.89844</ele><time>2026-06-19T01:25:00.000Z</time></trkpt>
        <trkpt lat="28.481605" lon="104.982739"><ele>653.85156</ele><time>2026-06-19T01:25:02.000Z</time></trkpt>
        <trkpt lat="28.481609" lon="104.982713"><ele>653.82074</ele><time>2026-06-19T01:25:04.000Z</time></trkpt>
        <trkpt lat="28.481614" lon="104.982686"><ele>653.82074</ele><time>2026-06-19T01:25:06.000Z</time></trkpt>
        <trkpt lat="28.481621" lon="104.982662"><ele>653.82074</ele><time>2026-06-19T01:25:08.000Z</time></trkpt>
        <trkpt lat="28.481628" lon="104.982639"><ele>653.82074</ele><time>2026-06-19T01:25:10.000Z</time></trkpt>
        <trkpt lat="28.481635" lon="104.982615"><ele>653.82074</ele><time>2026-06-19T01:25:12.000Z</time></trkpt>
        <trkpt lat="28.481642" lon="104.982594"><ele>653.89624</ele><time>2026-06-19T01:25:14.000Z</time></trkpt>
        <trkpt lat="28.481651" lon="104.982568"><ele>654.1197</ele><time>2026-06-19T01:25:16.000Z</time></trkpt>
        <trkpt lat="28.481658" lon="104.982546"><ele>654.22235</ele><time>2026-06-19T01:25:18.000Z</time></trkpt>
        <trkpt lat="28.481667" lon="104.982524"><ele>654.2676</ele><time>2026-06-19T01:25:20.000Z</time></trkpt>
        <trkpt lat="28.481674" lon="104.9825"><ele>654.28827</ele><time>2026-06-19T01:25:22.000Z</time></trkpt>
        <trkpt lat="28.481679" lon="104.982476"><ele>654.3136</ele><time>2026-06-19T01:25:24.000Z</time></trkpt>
        <trkpt lat="28.48168" lon="104.98245"><ele>654.3598</ele><time>2026-06-19T01:25:26.000Z</time></trkpt>
        <trkpt lat="28.48168" lon="104.982421"><ele>654.40454</ele><time>2026-06-19T01:25:28.000Z</time></trkpt>
        <trkpt lat="28.481681" lon="104.982395"><ele>654.4189</ele><time>2026-06-19T01:25:30.000Z</time></trkpt>
        <trkpt lat="28.481683" lon="104.982368"><ele>654.41925</ele><time>2026-06-19T01:25:32.000Z</time></trkpt>
        <trkpt lat="28.481685" lon="104.982342"><ele>654.45276</ele><time>2026-06-19T01:25:34.000Z</time></trkpt>
        <trkpt lat="28.481686" lon="104.982311"><ele>654.48157</ele><time>2026-06-19T01:25:36.000Z</time></trkpt>
        <trkpt lat="28.481685" lon="104.982281"><ele>654.5017</ele><time>2026-06-19T01:25:38.000Z</time></trkpt>
        <trkpt lat="28.481681" lon="104.98225"><ele>654.51715</ele><time>2026-06-19T01:25:40.000Z</time></trkpt>
        <trkpt lat="28.481676" lon="104.982216"><ele>654.5017</ele><time>2026-06-19T01:25:42.000Z</time></trkpt>
        <trkpt lat="28.481674" lon="104.982185"><ele>654.4891</ele><time>2026-06-19T01:25:44.000Z</time></trkpt>
        <trkpt lat="28.481674" lon="104.982158"><ele>654.4561</ele><time>2026-06-19T01:25:46.000Z</time></trkpt>
        <trkpt lat="28.481674" lon="104.982132"><ele>654.44</ele><time>2026-06-19T01:25:48.000Z</time></trkpt>
        <trkpt lat="28.481678" lon="104.982113"><ele>654.4226</ele><time>2026-06-19T01:25:50.000Z</time></trkpt>
        <trkpt lat="28.481682" lon="104.982097"><ele>654.4057</ele><time>2026-06-19T01:25:52.000Z</time></trkpt>
        <trkpt lat="28.481688" lon="104.982082"><ele>654.27844</ele><time>2026-06-19T01:25:54.000Z</time></trkpt>
        <trkpt lat="28.481696" lon="104.982065"><ele>654.0366</ele><time>2026-06-19T01:25:56.000Z</time></trkpt>
        <trkpt lat="28.481706" lon="104.982043"><ele>653.85895</ele><time>2026-06-19T01:25:58.000Z</time></trkpt>
        <trkpt lat="28.48171" lon="104.982024"><ele>653.6385</ele><time>2026-06-19T01:26:00.000Z</time></trkpt>
        <trkpt lat="28.481715" lon="104.981999"><ele>653.31775</ele><time>2026-06-19T01:26:02.000Z</time></trkpt>
        <trkpt lat="28.481721" lon="104.981974"><ele>653.2493</ele><time>2026-06-19T01:26:04.000Z</time></trkpt>
        <trkpt lat="28.481724" lon="104.98195"><ele>653.2493</ele><time>2026-06-19T01:26:06.000Z</time></trkpt>
        <trkpt lat="28.481724" lon="104.981924"><ele>653.2493</ele><time>2026-06-19T01:26:08.000Z</time></trkpt>
        <trkpt lat="28.481722" lon="104.981893"><ele>653.2493</ele><time>2026-06-19T01:26:10.000Z</time></trkpt>
        <trkpt lat="28.48172" lon="104.981856"><ele>653.2493</ele><time>2026-06-19T01:26:12.000Z</time></trkpt>
        <trkpt lat="28.48172" lon="104.981828"><ele>653.3551</ele><time>2026-06-19T01:26:14.000Z</time></trkpt>
        <trkpt lat="28.481721" lon="104.981803"><ele>653.3551</ele><time>2026-06-19T01:26:16.000Z</time></trkpt>
        <trkpt lat="28.481721" lon="104.981781"><ele>653.3551</ele><time>2026-06-19T01:26:18.000Z</time></trkpt>
        <trkpt lat="28.481719" lon="104.981757"><ele>653.3551</ele><time>2026-06-19T01:26:20.000Z</time></trkpt>
        <trkpt lat="28.481715" lon="104.98173"><ele>653.3551</ele><time>2026-06-19T01:26:22.000Z</time></trkpt>
        <trkpt lat="28.481712" lon="104.981704"><ele>653.3482</ele><time>2026-06-19T01:26:24.000Z</time></trkpt>
        <trkpt lat="28.481709" lon="104.981671"><ele>653.31226</ele><time>2026-06-19T01:26:26.000Z</time></trkpt>
        <trkpt lat="28.481703" lon="104.98164"><ele>653.31226</ele><time>2026-06-19T01:26:28.000Z</time></trkpt>
        <trkpt lat="28.481695" lon="104.981617"><ele>653.31226</ele><time>2026-06-19T01:26:30.000Z</time></trkpt>
        <trkpt lat="28.481685" lon="104.98159"><ele>653.2938</ele><time>2026-06-19T01:26:32.000Z</time></trkpt>
        <trkpt lat="28.481676" lon="104.981561"><ele>653.2691</ele><time>2026-06-19T01:26:34.000Z</time></trkpt>
        <trkpt lat="28.481666" lon="104.981529"><ele>653.21423</ele><time>2026-06-19T01:26:36.000Z</time></trkpt>
        <trkpt lat="28.481661" lon="104.981503"><ele>653.21423</ele><time>2026-06-19T01:26:38.000Z</time></trkpt>
        <trkpt lat="28.48166" lon="104.981477"><ele>653.1619</ele><time>2026-06-19T01:26:40.000Z</time></trkpt>
        <trkpt lat="28.481661" lon="104.98145"><ele>652.98535</ele><time>2026-06-19T01:26:42.000Z</time></trkpt>
        <trkpt lat="28.481664" lon="104.981424"><ele>652.59607</ele><time>2026-06-19T01:26:44.000Z</time></trkpt>
        <trkpt lat="28.481668" lon="104.9814"><ele>652.2852</ele><time>2026-06-19T01:26:46.000Z</time></trkpt>
        <trkpt lat="28.481674" lon="104.981376"><ele>652.00806</ele><time>2026-06-19T01:26:48.000Z</time></trkpt>
        <trkpt lat="28.481676" lon="104.981352"><ele>651.89105</ele><time>2026-06-19T01:26:50.000Z</time></trkpt>
        <trkpt lat="28.481677" lon="104.981319"><ele>651.89105</ele><time>2026-06-19T01:26:52.000Z</time></trkpt>
        <trkpt lat="28.481674" lon="104.981288"><ele>651.89105</ele><time>2026-06-19T01:26:54.000Z</time></trkpt>
        <trkpt lat="28.481669" lon="104.981268"><ele>651.89105</ele><time>2026-06-19T01:26:56.000Z</time></trkpt>
        <trkpt lat="28.481664" lon="104.981241"><ele>651.89105</ele><time>2026-06-19T01:26:58.000Z</time></trkpt>
        <trkpt lat="28.48166" lon="104.981217"><ele>652.00104</ele><time>2026-06-19T01:27:00.000Z</time></trkpt>
        <trkpt lat="28.481656" lon="104.981192"><ele>652.0281</ele><time>2026-06-19T01:27:02.000Z</time></trkpt>
        <trkpt lat="28.481653" lon="104.981159"><ele>652.0281</ele><time>2026-06-19T01:27:04.000Z</time></trkpt>
        <trkpt lat="28.481649" lon="104.981128"><ele>652.0281</ele><time>2026-06-19T01:27:06.000Z</time></trkpt>
        <trkpt lat="28.481648" lon="104.9811"><ele>652.0281</ele><time>2026-06-19T01:27:08.000Z</time></trkpt>
        <trkpt lat="28.481646" lon="104.981073"><ele>652.0281</ele><time>2026-06-19T01:27:10.000Z</time></trkpt>
        <trkpt lat="28.481647" lon="104.981047"><ele>652.0281</ele><time>2026-06-19T01:27:12.000Z</time></trkpt>
        <trkpt lat="28.481646" lon="104.981022"><ele>652.0281</ele><time>2026-06-19T01:27:14.000Z</time></trkpt>
        <trkpt lat="28.48164" lon="104.981002"><ele>652.0281</ele><time>2026-06-19T01:27:16.000Z</time></trkpt>
        <trkpt lat="28.481631" lon="104.980983"><ele>652.0281</ele><time>2026-06-19T01:27:18.000Z</time></trkpt>
        <trkpt lat="28.481616" lon="104.980957"><ele>652.10986</ele><time>2026-06-19T01:27:20.000Z</time></trkpt>
        <trkpt lat="28.481601" lon="104.980935"><ele>652.39514</ele><time>2026-06-19T01:27:22.000Z</time></trkpt>
        <trkpt lat="28.481583" lon="104.980919"><ele>652.7022</ele><time>2026-06-19T01:27:24.000Z</time></trkpt>
        <trkpt lat="28.481563" lon="104.980907"><ele>653.00555</ele><time>2026-06-19T01:27:26.000Z</time></trkpt>
        <trkpt lat="28.481539" lon="104.980899"><ele>653.218</ele><time>2026-06-19T01:27:28.000Z</time></trkpt>
        <trkpt lat="28.481511" lon="104.98089"><ele>653.43414</ele><time>2026-06-19T01:27:30.000Z</time></trkpt>
        <trkpt lat="28.481486" lon="104.980876"><ele>653.7107</ele><time>2026-06-19T01:27:32.000Z</time></trkpt>
        <trkpt lat="28.481465" lon="104.98086"><ele>653.79663</ele><time>2026-06-19T01:27:34.000Z</time></trkpt>
        <trkpt lat="28.481444" lon="104.98085"><ele>653.79663</ele><time>2026-06-19T01:27:36.000Z</time></trkpt>
        <trkpt lat="28.48142" lon="104.980842"><ele>653.79663</ele><time>2026-06-19T01:27:38.000Z</time></trkpt>
        <trkpt lat="28.481397" lon="104.980831"><ele>653.79663</ele><time>2026-06-19T01:27:40.000Z</time></trkpt>
        <trkpt lat="28.481377" lon="104.980816"><ele>653.79663</ele><time>2026-06-19T01:27:42.000Z</time></trkpt>
        <trkpt lat="28.481358" lon="104.980797"><ele>653.698</ele><time>2026-06-19T01:27:44.000Z</time></trkpt>
        <trkpt lat="28.481337" lon="104.980778"><ele>653.5953</ele><time>2026-06-19T01:27:46.000Z</time></trkpt>
        <trkpt lat="28.481318" lon="104.98076"><ele>653.4331</ele><time>2026-06-19T01:27:48.000Z</time></trkpt>
        <trkpt lat="28.481299" lon="104.980739"><ele>653.2985</ele><time>2026-06-19T01:27:50.000Z</time></trkpt>
        <trkpt lat="28.481285" lon="104.980717"><ele>653.13074</ele><time>2026-06-19T01:27:52.000Z</time></trkpt>
        <trkpt lat="28.481269" lon="104.980694"><ele>652.9017</ele><time>2026-06-19T01:27:54.000Z</time></trkpt>
        <trkpt lat="28.481253" lon="104.980674"><ele>652.79626</ele><time>2026-06-19T01:27:56.000Z</time></trkpt>
        <trkpt lat="28.481234" lon="104.980653"><ele>652.7668</ele><time>2026-06-19T01:27:58.000Z</time></trkpt>
        <trkpt lat="28.481214" lon="104.980634"><ele>652.76526</ele><time>2026-06-19T01:28:00.000Z</time></trkpt>
        <trkpt lat="28.481201" lon="104.980618"><ele>652.7369</ele><time>2026-06-19T01:28:02.000Z</time></trkpt>
        <trkpt lat="28.481184" lon="104.980599"><ele>652.711</ele><time>2026-06-19T01:28:04.000Z</time></trkpt>
        <trkpt lat="28.481168" lon="104.98058"><ele>652.67737</ele><time>2026-06-19T01:28:06.000Z</time></trkpt>
        <trkpt lat="28.481152" lon="104.980558"><ele>652.6091</ele><time>2026-06-19T01:28:08.000Z</time></trkpt>
        <trkpt lat="28.481143" lon="104.980533"><ele>652.5922</ele><time>2026-06-19T01:28:10.000Z</time></trkpt>
        <trkpt lat="28.481138" lon="104.980501"><ele>652.5677</ele><time>2026-06-19T01:28:12.000Z</time></trkpt>
        <trkpt lat="28.481136" lon="104.980464"><ele>652.389</ele><time>2026-06-19T01:28:14.000Z</time></trkpt>
        <trkpt lat="28.481132" lon="104.980426"><ele>652.1998</ele><time>2026-06-19T01:28:16.000Z</time></trkpt>
        <trkpt lat="28.481131" lon="104.980394"><ele>651.99243</ele><time>2026-06-19T01:28:18.000Z</time></trkpt>
        <trkpt lat="28.481129" lon="104.980362"><ele>651.5961</ele><time>2026-06-19T01:28:20.000Z</time></trkpt>
        <trkpt lat="28.48113" lon="104.980334"><ele>651.05493</ele><time>2026-06-19T01:28:22.000Z</time></trkpt>
        <trkpt lat="28.481131" lon="104.9803"><ele>650.7547</ele><time>2026-06-19T01:28:24.000Z</time></trkpt>
        <trkpt lat="28.481136" lon="104.980268"><ele>650.5999</ele><time>2026-06-19T01:28:26.000Z</time></trkpt>
        <trkpt lat="28.481141" lon="104.980237"><ele>650.3797</ele><time>2026-06-19T01:28:28.000Z</time></trkpt>
        <trkpt lat="28.481145" lon="104.980206"><ele>650.3797</ele><time>2026-06-19T01:28:30.000Z</time></trkpt>
        <trkpt lat="28.481145" lon="104.980176"><ele>650.3797</ele><time>2026-06-19T01:28:32.000Z</time></trkpt>
        <trkpt lat="28.481146" lon="104.980151"><ele>650.3797</ele><time>2026-06-19T01:28:34.000Z</time></trkpt>
        <trkpt lat="28.481146" lon="104.980128"><ele>650.3797</ele><time>2026-06-19T01:28:36.000Z</time></trkpt>
        <trkpt lat="28.481147" lon="104.980104"><ele>650.4022</ele><time>2026-06-19T01:28:38.000Z</time></trkpt>
        <trkpt lat="28.481147" lon="104.980086"><ele>650.65765</ele><time>2026-06-19T01:28:40.000Z</time></trkpt>
        <trkpt lat="28.481148" lon="104.980066"><ele>650.8766</ele><time>2026-06-19T01:28:42.000Z</time></trkpt>
        <trkpt lat="28.48115" lon="104.980038"><ele>650.94867</ele><time>2026-06-19T01:28:44.000Z</time></trkpt>
        <trkpt lat="28.48115" lon="104.980009"><ele>650.969</ele><time>2026-06-19T01:28:46.000Z</time></trkpt>
        <trkpt lat="28.48115" lon="104.979979"><ele>650.979</ele><time>2026-06-19T01:28:48.000Z</time></trkpt>
        <trkpt lat="28.481151" lon="104.97995"><ele>650.99915</ele><time>2026-06-19T01:28:50.000Z</time></trkpt>
        <trkpt lat="28.481153" lon="104.979917"><ele>651.0538</ele><time>2026-06-19T01:28:52.000Z</time></trkpt>
        <trkpt lat="28.481154" lon="104.979885"><ele>651.11725</ele><time>2026-06-19T01:28:54.000Z</time></trkpt>
        <trkpt lat="28.481154" lon="104.979854"><ele>651.238</ele><time>2026-06-19T01:28:56.000Z</time></trkpt>
        <trkpt lat="28.481151" lon="104.979824"><ele>651.36694</ele><time>2026-06-19T01:28:58.000Z</time></trkpt>
        <trkpt lat="28.481147" lon="104.9798"><ele>651.4372</ele><time>2026-06-19T01:29:00.000Z</time></trkpt>
        <trkpt lat="28.481143" lon="104.979781"><ele>651.4819</ele><time>2026-06-19T01:29:02.000Z</time></trkpt>
        <trkpt lat="28.481137" lon="104.979759"><ele>651.5329</ele><time>2026-06-19T01:29:04.000Z</time></trkpt>
        <trkpt lat="28.481128" lon="104.979735"><ele>651.7653</ele><time>2026-06-19T01:29:06.000Z</time></trkpt>
        <trkpt lat="28.481114" lon="104.979711"><ele>652.0489</ele><time>2026-06-19T01:29:08.000Z</time></trkpt>
        <trkpt lat="28.481099" lon="104.979694"><ele>652.1565</ele><time>2026-06-19T01:29:10.000Z</time></trkpt>
        <trkpt lat="28.481082" lon="104.979677"><ele>652.20544</ele><time>2026-06-19T01:29:12.000Z</time></trkpt>
        <trkpt lat="28.481065" lon="104.97966"><ele>652.20544</ele><time>2026-06-19T01:29:14.000Z</time></trkpt>
        <trkpt lat="28.481052" lon="104.979646"><ele>652.2219</ele><time>2026-06-19T01:29:16.000Z</time></trkpt>
        <trkpt lat="28.481042" lon="104.979634"><ele>652.24066</ele><time>2026-06-19T01:29:18.000Z</time></trkpt>
        <trkpt lat="28.481034" lon="104.979622"><ele>652.24066</ele><time>2026-06-19T01:29:20.000Z</time></trkpt>
        <trkpt lat="28.481022" lon="104.979604"><ele>652.24066</ele><time>2026-06-19T01:29:22.000Z</time></trkpt>
        <trkpt lat="28.481008" lon="104.979588"><ele>652.2244</ele><time>2026-06-19T01:29:24.000Z</time></trkpt>
        <trkpt lat="28.480993" lon="104.979574"><ele>652.2244</ele><time>2026-06-19T01:29:26.000Z</time></trkpt>
        <trkpt lat="28.480982" lon="104.979561"><ele>652.2057</ele><time>2026-06-19T01:29:28.000Z</time></trkpt>
        <trkpt lat="28.480973" lon="104.979541"><ele>652.1812</ele><time>2026-06-19T01:29:30.000Z</time></trkpt>
        <trkpt lat="28.480963" lon="104.979512"><ele>652.14496</ele><time>2026-06-19T01:29:32.000Z</time></trkpt>
        <trkpt lat="28.480949" lon="104.979476"><ele>652.0775</ele><time>2026-06-19T01:29:34.000Z</time></trkpt>
        <trkpt lat="28.480937" lon="104.979447"><ele>651.97314</ele><time>2026-06-19T01:29:36.000Z</time></trkpt>
        <trkpt lat="28.480928" lon="104.979429"><ele>651.9054</ele><time>2026-06-19T01:29:38.000Z</time></trkpt>
        <trkpt lat="28.480916" lon="104.979405"><ele>651.8549</ele><time>2026-06-19T01:29:40.000Z</time></trkpt>
        <trkpt lat="28.480902" lon="104.979383"><ele>651.7442</ele><time>2026-06-19T01:29:42.000Z</time></trkpt>
        <trkpt lat="28.480888" lon="104.979361"><ele>651.7425</ele><time>2026-06-19T01:29:44.000Z</time></trkpt>
        <trkpt lat="28.480876" lon="104.979335"><ele>651.7425</ele><time>2026-06-19T01:29:46.000Z</time></trkpt>
        <trkpt lat="28.480867" lon="104.979309"><ele>651.7425</ele><time>2026-06-19T01:29:48.000Z</time></trkpt>
        <trkpt lat="28.480857" lon="104.979281"><ele>651.7425</ele><time>2026-06-19T01:29:50.000Z</time></trkpt>
        <trkpt lat="28.480847" lon="104.979256"><ele>651.7425</ele><time>2026-06-19T01:29:52.000Z</time></trkpt>
        <trkpt lat="28.480836" lon="104.979237"><ele>651.84705</ele><time>2026-06-19T01:29:54.000Z</time></trkpt>
        <trkpt lat="28.480823" lon="104.979218"><ele>651.90826</ele><time>2026-06-19T01:29:56.000Z</time></trkpt>
        <trkpt lat="28.480805" lon="104.979199"><ele>651.9545</ele><time>2026-06-19T01:29:58.000Z</time></trkpt>
        <trkpt lat="28.48078" lon="104.979186"><ele>651.9545</ele><time>2026-06-19T01:30:00.000Z</time></trkpt>
        <trkpt lat="28.480752" lon="104.979175"><ele>651.9545</ele><time>2026-06-19T01:30:02.000Z</time></trkpt>
        <trkpt lat="28.480725" lon="104.979165"><ele>651.9545</ele><time>2026-06-19T01:30:04.000Z</time></trkpt>
        <trkpt lat="28.4807" lon="104.979152"><ele>651.9545</ele><time>2026-06-19T01:30:06.000Z</time></trkpt>
        <trkpt lat="28.480676" lon="104.979136"><ele>651.83496</ele><time>2026-06-19T01:30:08.000Z</time></trkpt>
        <trkpt lat="28.480652" lon="104.979119"><ele>651.5685</ele><time>2026-06-19T01:30:10.000Z</time></trkpt>
        <trkpt lat="28.480629" lon="104.979095"><ele>651.41846</ele><time>2026-06-19T01:30:12.000Z</time></trkpt>
        <trkpt lat="28.48061" lon="104.979071"><ele>651.41846</ele><time>2026-06-19T01:30:14.000Z</time></trkpt>
        <trkpt lat="28.48059" lon="104.979043"><ele>651.41846</ele><time>2026-06-19T01:30:16.000Z</time></trkpt>
        <trkpt lat="28.480573" lon="104.979014"><ele>651.41846</ele><time>2026-06-19T01:30:18.000Z</time></trkpt>
        <trkpt lat="28.480561" lon="104.978993"><ele>651.41846</ele><time>2026-06-19T01:30:20.000Z</time></trkpt>
        <trkpt lat="28.480549" lon="104.978977"><ele>651.46375</ele><time>2026-06-19T01:30:22.000Z</time></trkpt>
        <trkpt lat="28.480538" lon="104.978959"><ele>651.53064</ele><time>2026-06-19T01:30:24.000Z</time></trkpt>
        <trkpt lat="28.480521" lon="104.978937"><ele>651.607</ele><time>2026-06-19T01:30:26.000Z</time></trkpt>
        <trkpt lat="28.480503" lon="104.978918"><ele>651.72797</ele><time>2026-06-19T01:30:28.000Z</time></trkpt>
        <trkpt lat="28.480481" lon="104.978911"><ele>652.00964</ele><time>2026-06-19T01:30:30.000Z</time></trkpt>
        <trkpt lat="28.480455" lon="104.978901"><ele>652.3824</ele><time>2026-06-19T01:30:32.000Z</time></trkpt>
        <trkpt lat="28.480427" lon="104.97889"><ele>652.6727</ele><time>2026-06-19T01:30:34.000Z</time></trkpt>
        <trkpt lat="28.480406" lon="104.978878"><ele>652.8399</ele><time>2026-06-19T01:30:36.000Z</time></trkpt>
        <trkpt lat="28.48039" lon="104.978859"><ele>652.9329</ele><time>2026-06-19T01:30:38.000Z</time></trkpt>
        <trkpt lat="28.48037" lon="104.978834"><ele>652.98096</ele><time>2026-06-19T01:30:40.000Z</time></trkpt>
        <trkpt lat="28.480349" lon="104.978813"><ele>652.9876</ele><time>2026-06-19T01:30:42.000Z</time></trkpt>
        <trkpt lat="28.48033" lon="104.978797"><ele>652.9876</ele><time>2026-06-19T01:30:44.000Z</time></trkpt>
        <trkpt lat="28.480309" lon="104.978784"><ele>652.9876</ele><time>2026-06-19T01:30:46.000Z</time></trkpt>
        <trkpt lat="28.480283" lon="104.978767"><ele>652.98096</ele><time>2026-06-19T01:30:48.000Z</time></trkpt>
        <trkpt lat="28.480259" lon="104.978748"><ele>652.97186</ele><time>2026-06-19T01:30:50.000Z</time></trkpt>
        <trkpt lat="28.480238" lon="104.978729"><ele>652.97186</ele><time>2026-06-19T01:30:52.000Z</time></trkpt>
        <trkpt lat="28.480213" lon="104.978713"><ele>652.7958</ele><time>2026-06-19T01:30:54.000Z</time></trkpt>
        <trkpt lat="28.480189" lon="104.9787"><ele>652.55316</ele><time>2026-06-19T01:30:56.000Z</time></trkpt>
        <trkpt lat="28.480168" lon="104.978687"><ele>652.40265</ele><time>2026-06-19T01:30:58.000Z</time></trkpt>
        <trkpt lat="28.480149" lon="104.978671"><ele>652.22064</ele><time>2026-06-19T01:31:00.000Z</time></trkpt>
        <trkpt lat="28.480133" lon="104.978654"><ele>652.0425</ele><time>2026-06-19T01:31:02.000Z</time></trkpt>
        <trkpt lat="28.480115" lon="104.978636"><ele>651.7831</ele><time>2026-06-19T01:31:04.000Z</time></trkpt>
        <trkpt lat="28.4801" lon="104.978621"><ele>651.4038</ele><time>2026-06-19T01:31:06.000Z</time></trkpt>
        <trkpt lat="28.48009" lon="104.978611"><ele>650.93805</ele><time>2026-06-19T01:31:08.000Z</time></trkpt>
        <trkpt lat="28.48009" lon="104.978611"><ele>650.3498</ele><time>2026-06-19T01:31:10.000Z</time></trkpt>
        <trkpt lat="28.480053" lon="104.978648"><ele>649.8736</ele><time>2026-06-19T01:31:24.000Z</time></trkpt>
        <trkpt lat="28.480053" lon="104.97865"><ele>649.5415</ele><time>2026-06-19T01:31:26.000Z</time></trkpt>
        <trkpt lat="28.480049" lon="104.978553"><ele>649.3663</ele><time>2026-06-19T01:31:38.000Z</time></trkpt>
        <trkpt lat="28.480049" lon="104.978553"><ele>649.21985</ele><time>2026-06-19T01:31:40.000Z</time></trkpt>
        <trkpt lat="28.480049" lon="104.978553"><ele>648.93384</ele><time>2026-06-19T01:31:42.000Z</time></trkpt>
        <trkpt lat="28.480092" lon="104.978607"><ele>648.78217</ele><time>2026-06-19T01:31:58.000Z</time></trkpt>
        <trkpt lat="28.480097" lon="104.978612"><ele>648.58167</ele><time>2026-06-19T01:32:00.000Z</time></trkpt>
        <trkpt lat="28.4801" lon="104.978612"><ele>648.3916</ele><time>2026-06-19T01:32:02.000Z</time></trkpt>
        <trkpt lat="28.480013" lon="104.978624"><ele>648.37537</ele><time>2026-06-19T01:33:19.000Z</time></trkpt>
        <trkpt lat="28.480004" lon="104.978599"><ele>648.2064</ele><time>2026-06-19T01:33:21.000Z</time></trkpt>
        <trkpt lat="28.479986" lon="104.978597"><ele>648.02515</ele><time>2026-06-19T01:33:23.000Z</time></trkpt>
        <trkpt lat="28.479927" lon="104.978587"><ele>647.96265</ele><time>2026-06-19T01:33:32.000Z</time></trkpt>
        <trkpt lat="28.479903" lon="104.978579"><ele>647.79333</ele><time>2026-06-19T01:33:34.000Z</time></trkpt>
        <trkpt lat="28.479872" lon="104.978566"><ele>647.5937</ele><time>2026-06-19T01:33:36.000Z</time></trkpt>
        <trkpt lat="28.479845" lon="104.978552"><ele>647.40466</ele><time>2026-06-19T01:33:38.000Z</time></trkpt>
        <trkpt lat="28.479819" lon="104.978536"><ele>646.7126</ele><time>2026-06-19T01:33:40.000Z</time></trkpt>
        <trkpt lat="28.479799" lon="104.978522"><ele>645.73816</ele><time>2026-06-19T01:33:42.000Z</time></trkpt>
        <trkpt lat="28.47978" lon="104.978507"><ele>644.9277</ele><time>2026-06-19T01:33:44.000Z</time></trkpt>
        <trkpt lat="28.479757" lon="104.978489"><ele>644.1499</ele><time>2026-06-19T01:33:46.000Z</time></trkpt>
        <trkpt lat="28.479736" lon="104.978474"><ele>643.5069</ele><time>2026-06-19T01:33:48.000Z</time></trkpt>
        <trkpt lat="28.479712" lon="104.978457"><ele>642.9407</ele><time>2026-06-19T01:33:50.000Z</time></trkpt>
        <trkpt lat="28.479691" lon="104.978443"><ele>642.13135</ele><time>2026-06-19T01:33:52.000Z</time></trkpt>
        <trkpt lat="28.479666" lon="104.978427"><ele>640.99744</ele><time>2026-06-19T01:33:54.000Z</time></trkpt>
        <trkpt lat="28.479641" lon="104.978412"><ele>639.69305</ele><time>2026-06-19T01:33:56.000Z</time></trkpt>
        <trkpt lat="28.47962" lon="104.978403"><ele>638.281</ele><time>2026-06-19T01:33:58.000Z</time></trkpt>
        <trkpt lat="28.479599" lon="104.978397"><ele>636.91345</ele><time>2026-06-19T01:34:00.000Z</time></trkpt>
        <trkpt lat="28.479578" lon="104.978389"><ele>635.6801</ele><time>2026-06-19T01:34:02.000Z</time></trkpt>
        <trkpt lat="28.479561" lon="104.978381"><ele>634.44116</ele><time>2026-06-19T01:34:04.000Z</time></trkpt>
        <trkpt lat="28.479538" lon="104.978366"><ele>633.364</ele><time>2026-06-19T01:34:06.000Z</time></trkpt>
        <trkpt lat="28.479513" lon="104.978348"><ele>632.61664</ele><time>2026-06-19T01:34:08.000Z</time></trkpt>
        <trkpt lat="28.479486" lon="104.97833"><ele>631.94653</ele><time>2026-06-19T01:34:10.000Z</time></trkpt>
        <trkpt lat="28.479461" lon="104.97831"><ele>631.3701</ele><time>2026-06-19T01:34:12.000Z</time></trkpt>
        <trkpt lat="28.47944" lon="104.978294"><ele>630.9333</ele><time>2026-06-19T01:34:14.000Z</time></trkpt>
        <trkpt lat="28.479419" lon="104.978275"><ele>630.4604</ele><time>2026-06-19T01:34:16.000Z</time></trkpt>
        <trkpt lat="28.479401" lon="104.978261"><ele>629.8826</ele><time>2026-06-19T01:34:18.000Z</time></trkpt>
        <trkpt lat="28.47938" lon="104.978246"><ele>629.4027</ele><time>2026-06-19T01:34:20.000Z</time></trkpt>
        <trkpt lat="28.47936" lon="104.978232"><ele>629.1684</ele><time>2026-06-19T01:34:22.000Z</time></trkpt>
        <trkpt lat="28.479341" lon="104.978219"><ele>629.0534</ele><time>2026-06-19T01:34:24.000Z</time></trkpt>
        <trkpt lat="28.479323" lon="104.978206"><ele>628.81934</ele><time>2026-06-19T01:34:26.000Z</time></trkpt>
        <trkpt lat="28.4793" lon="104.978188"><ele>628.3569</ele><time>2026-06-19T01:34:28.000Z</time></trkpt>
        <trkpt lat="28.479274" lon="104.978167"><ele>627.82825</ele><time>2026-06-19T01:34:30.000Z</time></trkpt>
        <trkpt lat="28.479247" lon="104.978146"><ele>627.432</ele><time>2026-06-19T01:34:32.000Z</time></trkpt>
        <trkpt lat="28.479221" lon="104.978125"><ele>627.2114</ele><time>2026-06-19T01:34:34.000Z</time></trkpt>
        <trkpt lat="28.479197" lon="104.978105"><ele>627.00256</ele><time>2026-06-19T01:34:36.000Z</time></trkpt>
        <trkpt lat="28.479174" lon="104.978085"><ele>626.7179</ele><time>2026-06-19T01:34:38.000Z</time></trkpt>
        <trkpt lat="28.479152" lon="104.978065"><ele>626.40344</ele><time>2026-06-19T01:34:40.000Z</time></trkpt>
        <trkpt lat="28.479131" lon="104.978047"><ele>625.98474</ele><time>2026-06-19T01:34:42.000Z</time></trkpt>
        <trkpt lat="28.479116" lon="104.978035"><ele>625.43884</ele><time>2026-06-19T01:34:44.000Z</time></trkpt>
        <trkpt lat="28.479103" lon="104.978028"><ele>625.0769</ele><time>2026-06-19T01:34:46.000Z</time></trkpt>
        <trkpt lat="28.479092" lon="104.97802"><ele>624.947</ele><time>2026-06-19T01:34:48.000Z</time></trkpt>
        <trkpt lat="28.479079" lon="104.978012"><ele>624.947</ele><time>2026-06-19T01:34:50.000Z</time></trkpt>
        <trkpt lat="28.479067" lon="104.978004"><ele>624.947</ele><time>2026-06-19T01:34:52.000Z</time></trkpt>
        <trkpt lat="28.479049" lon="104.977991"><ele>624.89545</ele><time>2026-06-19T01:34:54.000Z</time></trkpt>
        <trkpt lat="28.479028" lon="104.977976"><ele>624.89545</ele><time>2026-06-19T01:34:56.000Z</time></trkpt>
        <trkpt lat="28.479004" lon="104.97796"><ele>624.9278</ele><time>2026-06-19T01:34:58.000Z</time></trkpt>
        <trkpt lat="28.478982" lon="104.977943"><ele>624.97687</ele><time>2026-06-19T01:35:00.000Z</time></trkpt>
        <trkpt lat="28.47896" lon="104.977924"><ele>624.97687</ele><time>2026-06-19T01:35:02.000Z</time></trkpt>
        <trkpt lat="28.478937" lon="104.977906"><ele>624.97687</ele><time>2026-06-19T01:35:04.000Z</time></trkpt>
        <trkpt lat="28.478914" lon="104.977889"><ele>624.9253</ele><time>2026-06-19T01:35:06.000Z</time></trkpt>
        <trkpt lat="28.478892" lon="104.97787"><ele>624.9071</ele><time>2026-06-19T01:35:08.000Z</time></trkpt>
        <trkpt lat="28.478873" lon="104.97785"><ele>624.7974</ele><time>2026-06-19T01:35:10.000Z</time></trkpt>
        <trkpt lat="28.47886" lon="104.977832"><ele>624.6386</ele><time>2026-06-19T01:35:12.000Z</time></trkpt>
        <trkpt lat="28.478848" lon="104.977811"><ele>624.52936</ele><time>2026-06-19T01:35:14.000Z</time></trkpt>
        <trkpt lat="28.478843" lon="104.977797"><ele>624.4792</ele><time>2026-06-19T01:35:16.000Z</time></trkpt>
        <trkpt lat="28.47884" lon="104.977782"><ele>624.4368</ele><time>2026-06-19T01:35:18.000Z</time></trkpt>
        <trkpt lat="28.478834" lon="104.977763"><ele>624.4082</ele><time>2026-06-19T01:35:20.000Z</time></trkpt>
        <trkpt lat="28.478827" lon="104.977746"><ele>624.3571</ele><time>2026-06-19T01:35:22.000Z</time></trkpt>
        <trkpt lat="28.478816" lon="104.977731"><ele>624.27795</ele><time>2026-06-19T01:35:24.000Z</time></trkpt>
        <trkpt lat="28.478808" lon="104.977718"><ele>624.20026</ele><time>2026-06-19T01:35:26.000Z</time></trkpt>
        <trkpt lat="28.478803" lon="104.977701"><ele>624.1677</ele><time>2026-06-19T01:35:28.000Z</time></trkpt>
        <trkpt lat="28.478797" lon="104.977669"><ele>624.1307</ele><time>2026-06-19T01:35:30.000Z</time></trkpt>
        <trkpt lat="28.47879" lon="104.977625"><ele>624.1006</ele><time>2026-06-19T01:35:32.000Z</time></trkpt>
        <trkpt lat="28.47878" lon="104.977582"><ele>624.0037</ele><time>2026-06-19T01:35:34.000Z</time></trkpt>
        <trkpt lat="28.478767" lon="104.977546"><ele>623.739</ele><time>2026-06-19T01:35:36.000Z</time></trkpt>
        <trkpt lat="28.478756" lon="104.977517"><ele>623.32355</ele><time>2026-06-19T01:35:38.000Z</time></trkpt>
        <trkpt lat="28.478738" lon="104.977477"><ele>622.7899</ele><time>2026-06-19T01:35:40.000Z</time></trkpt>
        <trkpt lat="28.478722" lon="104.977446"><ele>622.06934</ele><time>2026-06-19T01:35:42.000Z</time></trkpt>
        <trkpt lat="28.478707" lon="104.977422"><ele>621.2605</ele><time>2026-06-19T01:35:44.000Z</time></trkpt>
        <trkpt lat="28.478693" lon="104.977404"><ele>620.5246</ele><time>2026-06-19T01:35:46.000Z</time></trkpt>
        <trkpt lat="28.478683" lon="104.977398"><ele>619.7664</ele><time>2026-06-19T01:35:48.000Z</time></trkpt>
        <trkpt lat="28.478651" lon="104.97738"><ele>618.9043</ele><time>2026-06-19T01:35:55.000Z</time></trkpt>
        <trkpt lat="28.478651" lon="104.97738"><ele>617.9893</ele><time>2026-06-19T01:35:57.000Z</time></trkpt>
        <trkpt lat="28.47865" lon="104.977358"><ele>617.257</ele><time>2026-06-19T01:36:01.000Z</time></trkpt>
        <trkpt lat="28.478643" lon="104.977328"><ele>616.7421</ele><time>2026-06-19T01:36:03.000Z</time></trkpt>
        <trkpt lat="28.47863" lon="104.977293"><ele>615.7488</ele><time>2026-06-19T01:36:05.000Z</time></trkpt>
        <trkpt lat="28.478614" lon="104.977261"><ele>614.9891</ele><time>2026-06-19T01:36:07.000Z</time></trkpt>
        <trkpt lat="28.478597" lon="104.977232"><ele>614.9612</ele><time>2026-06-19T01:36:09.000Z</time></trkpt>
        <trkpt lat="28.478577" lon="104.977205"><ele>614.7739</ele><time>2026-06-19T01:36:11.000Z</time></trkpt>
        <trkpt lat="28.478558" lon="104.977184"><ele>614.37225</ele><time>2026-06-19T01:36:13.000Z</time></trkpt>
        <trkpt lat="28.478542" lon="104.977162"><ele>613.9232</ele><time>2026-06-19T01:36:15.000Z</time></trkpt>
        <trkpt lat="28.478525" lon="104.977135"><ele>613.46643</ele><time>2026-06-19T01:36:17.000Z</time></trkpt>
        <trkpt lat="28.47851" lon="104.977109"><ele>612.866</ele><time>2026-06-19T01:36:19.000Z</time></trkpt>
        <trkpt lat="28.478497" lon="104.977085"><ele>612.25024</ele><time>2026-06-19T01:36:21.000Z</time></trkpt>
        <trkpt lat="28.478482" lon="104.977058"><ele>611.6602</ele><time>2026-06-19T01:36:23.000Z</time></trkpt>
        <trkpt lat="28.478469" lon="104.977034"><ele>610.98444</ele><time>2026-06-19T01:36:25.000Z</time></trkpt>
        <trkpt lat="28.478455" lon="104.977009"><ele>610.4284</ele><time>2026-06-19T01:36:27.000Z</time></trkpt>
        <trkpt lat="28.478443" lon="104.976988"><ele>610.14526</ele><time>2026-06-19T01:36:29.000Z</time></trkpt>
        <trkpt lat="28.478433" lon="104.976967"><ele>610.05426</ele><time>2026-06-19T01:36:31.000Z</time></trkpt>
        <trkpt lat="28.478425" lon="104.976949"><ele>609.97107</ele><time>2026-06-19T01:36:33.000Z</time></trkpt>
        <trkpt lat="28.478416" lon="104.976929"><ele>609.8724</ele><time>2026-06-19T01:36:35.000Z</time></trkpt>
        <trkpt lat="28.478406" lon="104.976908"><ele>609.76245</ele><time>2026-06-19T01:36:37.000Z</time></trkpt>
        <trkpt lat="28.478393" lon="104.976884"><ele>609.56903</ele><time>2026-06-19T01:36:39.000Z</time></trkpt>
        <trkpt lat="28.478381" lon="104.976862"><ele>609.3978</ele><time>2026-06-19T01:36:41.000Z</time></trkpt>
        <trkpt lat="28.478368" lon="104.97684"><ele>609.339</ele><time>2026-06-19T01:36:43.000Z</time></trkpt>
        <trkpt lat="28.478354" lon="104.976818"><ele>609.2193</ele><time>2026-06-19T01:36:45.000Z</time></trkpt>
        <trkpt lat="28.47834" lon="104.976796"><ele>609.05853</ele><time>2026-06-19T01:36:47.000Z</time></trkpt>
        <trkpt lat="28.478325" lon="104.976772"><ele>608.8169</ele><time>2026-06-19T01:36:49.000Z</time></trkpt>
        <trkpt lat="28.478315" lon="104.97675"><ele>608.4008</ele><time>2026-06-19T01:36:51.000Z</time></trkpt>
        <trkpt lat="28.478307" lon="104.976727"><ele>608.0615</ele><time>2026-06-19T01:36:53.000Z</time></trkpt>
        <trkpt lat="28.478298" lon="104.976702"><ele>608.00037</ele><time>2026-06-19T01:36:55.000Z</time></trkpt>
        <trkpt lat="28.47829" lon="104.976675"><ele>608.00037</ele><time>2026-06-19T01:36:57.000Z</time></trkpt>
        <trkpt lat="28.478281" lon="104.976648"><ele>608.00037</ele><time>2026-06-19T01:36:59.000Z</time></trkpt>
        <trkpt lat="28.478272" lon="104.976621"><ele>608.00037</ele><time>2026-06-19T01:37:01.000Z</time></trkpt>
        <trkpt lat="28.478261" lon="104.976595"><ele>608.00037</ele><time>2026-06-19T01:37:03.000Z</time></trkpt>
        <trkpt lat="28.478251" lon="104.976567"><ele>608.1732</ele><time>2026-06-19T01:37:05.000Z</time></trkpt>
        <trkpt lat="28.478241" lon="104.976541"><ele>608.3467</ele><time>2026-06-19T01:37:07.000Z</time></trkpt>
        <trkpt lat="28.478234" lon="104.976518"><ele>608.56226</ele><time>2026-06-19T01:37:09.000Z</time></trkpt>
        <trkpt lat="28.478226" lon="104.976491"><ele>608.8461</ele><time>2026-06-19T01:37:11.000Z</time></trkpt>
        <trkpt lat="28.478222" lon="104.976465"><ele>609.0091</ele><time>2026-06-19T01:37:13.000Z</time></trkpt>
        <trkpt lat="28.478224" lon="104.976446"><ele>609.14825</ele><time>2026-06-19T01:37:15.000Z</time></trkpt>
        <trkpt lat="28.478228" lon="104.976431"><ele>609.4076</ele><time>2026-06-19T01:37:17.000Z</time></trkpt>
        <trkpt lat="28.478232" lon="104.976417"><ele>609.6165</ele><time>2026-06-19T01:37:19.000Z</time></trkpt>
        <trkpt lat="28.478237" lon="104.976401"><ele>609.6784</ele><time>2026-06-19T01:37:21.000Z</time></trkpt>
        <trkpt lat="28.47824" lon="104.976381"><ele>609.6921</ele><time>2026-06-19T01:37:23.000Z</time></trkpt>
        <trkpt lat="28.478241" lon="104.976357"><ele>609.7389</ele><time>2026-06-19T01:37:25.000Z</time></trkpt>
        <trkpt lat="28.47824" lon="104.976332"><ele>609.9388</ele><time>2026-06-19T01:37:27.000Z</time></trkpt>
        <trkpt lat="28.478237" lon="104.976303"><ele>610.2295</ele><time>2026-06-19T01:37:29.000Z</time></trkpt>
        <trkpt lat="28.478235" lon="104.976283"><ele>610.3648</ele><time>2026-06-19T01:37:31.000Z</time></trkpt>
        <trkpt lat="28.478233" lon="104.976273"><ele>610.4129</ele><time>2026-06-19T01:37:33.000Z</time></trkpt>
        <trkpt lat="28.478232" lon="104.976273"><ele>610.4777</ele><time>2026-06-19T01:37:35.000Z</time></trkpt>
        <trkpt lat="28.478159" lon="104.976254"><ele>610.5224</ele><time>2026-06-19T01:39:22.000Z</time></trkpt>
        <trkpt lat="28.478151" lon="104.976219"><ele>610.7009</ele><time>2026-06-19T01:39:24.000Z</time></trkpt>
        <trkpt lat="28.478142" lon="104.976209"><ele>610.91394</ele><time>2026-06-19T01:39:25.000Z</time></trkpt>
        <trkpt lat="28.478113" lon="104.976182"><ele>611.0166</ele><time>2026-06-19T01:39:33.000Z</time></trkpt>
        <trkpt lat="28.478094" lon="104.976163"><ele>611.30115</ele><time>2026-06-19T01:39:35.000Z</time></trkpt>
        <trkpt lat="28.478073" lon="104.97614"><ele>611.63416</ele><time>2026-06-19T01:39:37.000Z</time></trkpt>
        <trkpt lat="28.478052" lon="104.976119"><ele>611.72955</ele><time>2026-06-19T01:39:39.000Z</time></trkpt>
        <trkpt lat="28.478032" lon="104.976103"><ele>611.92566</ele><time>2026-06-19T01:39:41.000Z</time></trkpt>
        <trkpt lat="28.478011" lon="104.976091"><ele>612.30493</ele><time>2026-06-19T01:39:43.000Z</time></trkpt>
        <trkpt lat="28.477992" lon="104.976087"><ele>612.6903</ele><time>2026-06-19T01:39:45.000Z</time></trkpt>
        <trkpt lat="28.477971" lon="104.976087"><ele>613.0535</ele><time>2026-06-19T01:39:47.000Z</time></trkpt>
        <trkpt lat="28.477948" lon="104.976092"><ele>613.45355</ele><time>2026-06-19T01:39:49.000Z</time></trkpt>
        <trkpt lat="28.477924" lon="104.9761"><ele>613.87573</ele><time>2026-06-19T01:39:51.000Z</time></trkpt>
        <trkpt lat="28.477901" lon="104.976111"><ele>614.37915</ele><time>2026-06-19T01:39:53.000Z</time></trkpt>
        <trkpt lat="28.477879" lon="104.976121"><ele>614.92804</ele><time>2026-06-19T01:39:55.000Z</time></trkpt>
        <trkpt lat="28.47786" lon="104.97613"><ele>615.4031</ele><time>2026-06-19T01:39:57.000Z</time></trkpt>
        <trkpt lat="28.477844" lon="104.976132"><ele>615.7854</ele><time>2026-06-19T01:39:59.000Z</time></trkpt>
        <trkpt lat="28.477825" lon="104.976134"><ele>615.9412</ele><time>2026-06-19T01:40:01.000Z</time></trkpt>
        <trkpt lat="28.477805" lon="104.976134"><ele>616.0058</ele><time>2026-06-19T01:40:03.000Z</time></trkpt>
        <trkpt lat="28.477783" lon="104.976138"><ele>616.0058</ele><time>2026-06-19T01:40:05.000Z</time></trkpt>
        <trkpt lat="28.477761" lon="104.976142"><ele>616.0058</ele><time>2026-06-19T01:40:07.000Z</time></trkpt>
        <trkpt lat="28.477738" lon="104.976146"><ele>616.0058</ele><time>2026-06-19T01:40:09.000Z</time></trkpt>
        <trkpt lat="28.477712" lon="104.97615"><ele>616.0058</ele><time>2026-06-19T01:40:11.000Z</time></trkpt>
        <trkpt lat="28.477691" lon="104.976154"><ele>615.93164</ele><time>2026-06-19T01:40:13.000Z</time></trkpt>
        <trkpt lat="28.47767" lon="104.976156"><ele>615.88245</ele><time>2026-06-19T01:40:15.000Z</time></trkpt>
        <trkpt lat="28.477648" lon="104.976158"><ele>615.7995</ele><time>2026-06-19T01:40:17.000Z</time></trkpt>
        <trkpt lat="28.477627" lon="104.976159"><ele>615.66077</ele><time>2026-06-19T01:40:19.000Z</time></trkpt>
        <trkpt lat="28.477605" lon="104.976159"><ele>615.4844</ele><time>2026-06-19T01:40:21.000Z</time></trkpt>
        <trkpt lat="28.477582" lon="104.976158"><ele>615.2306</ele><time>2026-06-19T01:40:23.000Z</time></trkpt>
        <trkpt lat="28.477558" lon="104.976155"><ele>614.9265</ele><time>2026-06-19T01:40:25.000Z</time></trkpt>
        <trkpt lat="28.477535" lon="104.976154"><ele>614.5616</ele><time>2026-06-19T01:40:27.000Z</time></trkpt>
        <trkpt lat="28.477513" lon="104.976154"><ele>614.207</ele><time>2026-06-19T01:40:29.000Z</time></trkpt>
        <trkpt lat="28.477491" lon="104.976158"><ele>614.0095</ele><time>2026-06-19T01:40:31.000Z</time></trkpt>
        <trkpt lat="28.477469" lon="104.97616"><ele>613.93365</ele><time>2026-06-19T01:40:33.000Z</time></trkpt>
        <trkpt lat="28.477447" lon="104.976161"><ele>613.69916</ele><time>2026-06-19T01:40:35.000Z</time></trkpt>
        <trkpt lat="28.477424" lon="104.976161"><ele>613.4387</ele><time>2026-06-19T01:40:37.000Z</time></trkpt>
        <trkpt lat="28.477402" lon="104.976158"><ele>613.3129</ele><time>2026-06-19T01:40:39.000Z</time></trkpt>
        <trkpt lat="28.47738" lon="104.976156"><ele>613.1714</ele><time>2026-06-19T01:40:41.000Z</time></trkpt>
        <trkpt lat="28.477359" lon="104.976152"><ele>612.91986</ele><time>2026-06-19T01:40:43.000Z</time></trkpt>
        <trkpt lat="28.477338" lon="104.976149"><ele>612.38055</ele><time>2026-06-19T01:40:45.000Z</time></trkpt>
        <trkpt lat="28.477317" lon="104.976146"><ele>611.85876</ele><time>2026-06-19T01:40:47.000Z</time></trkpt>
        <trkpt lat="28.477295" lon="104.976137"><ele>611.6315</ele><time>2026-06-19T01:40:49.000Z</time></trkpt>
        <trkpt lat="28.477274" lon="104.976125"><ele>611.4832</ele><time>2026-06-19T01:40:51.000Z</time></trkpt>
        <trkpt lat="28.477253" lon="104.976112"><ele>611.21063</ele><time>2026-06-19T01:40:53.000Z</time></trkpt>
        <trkpt lat="28.47723" lon="104.976098"><ele>610.93756</ele><time>2026-06-19T01:40:55.000Z</time></trkpt>
        <trkpt lat="28.477208" lon="104.976083"><ele>610.77936</ele><time>2026-06-19T01:40:57.000Z</time></trkpt>
        <trkpt lat="28.477186" lon="104.97607"><ele>610.6602</ele><time>2026-06-19T01:40:59.000Z</time></trkpt>
        <trkpt lat="28.477163" lon="104.976062"><ele>610.4538</ele><time>2026-06-19T01:41:01.000Z</time></trkpt>
        <trkpt lat="28.47714" lon="104.976058"><ele>610.2979</ele><time>2026-06-19T01:41:03.000Z</time></trkpt>
        <trkpt lat="28.477119" lon="104.976053"><ele>610.17993</ele><time>2026-06-19T01:41:05.000Z</time></trkpt>
        <trkpt lat="28.477097" lon="104.976046"><ele>610.01556</ele><time>2026-06-19T01:41:07.000Z</time></trkpt>
        <trkpt lat="28.477074" lon="104.976042"><ele>609.89435</ele><time>2026-06-19T01:41:09.000Z</time></trkpt>
        <trkpt lat="28.477051" lon="104.976035"><ele>609.7949</ele><time>2026-06-19T01:41:11.000Z</time></trkpt>
        <trkpt lat="28.477032" lon="104.976023"><ele>609.7141</ele><time>2026-06-19T01:41:13.000Z</time></trkpt>
        <trkpt lat="28.477012" lon="104.976009"><ele>609.6607</ele><time>2026-06-19T01:41:15.000Z</time></trkpt>
        <trkpt lat="28.476993" lon="104.975995"><ele>609.6144</ele><time>2026-06-19T01:41:17.000Z</time></trkpt>
        <trkpt lat="28.476973" lon="104.975982"><ele>609.6144</ele><time>2026-06-19T01:41:19.000Z</time></trkpt>
        <trkpt lat="28.476951" lon="104.975969"><ele>609.6144</ele><time>2026-06-19T01:41:21.000Z</time></trkpt>
        <trkpt lat="28.476929" lon="104.975956"><ele>609.6144</ele><time>2026-06-19T01:41:23.000Z</time></trkpt>
        <trkpt lat="28.476908" lon="104.975946"><ele>609.6585</ele><time>2026-06-19T01:41:25.000Z</time></trkpt>
        <trkpt lat="28.476885" lon="104.975941"><ele>609.6585</ele><time>2026-06-19T01:41:27.000Z</time></trkpt>
        <trkpt lat="28.476864" lon="104.975938"><ele>609.92285</ele><time>2026-06-19T01:41:29.000Z</time></trkpt>
        <trkpt lat="28.476843" lon="104.975938"><ele>610.30054</ele><time>2026-06-19T01:41:31.000Z</time></trkpt>
        <trkpt lat="28.476824" lon="104.975941"><ele>610.54254</ele><time>2026-06-19T01:41:33.000Z</time></trkpt>
        <trkpt lat="28.476802" lon="104.975947"><ele>610.54675</ele><time>2026-06-19T01:41:35.000Z</time></trkpt>
        <trkpt lat="28.476778" lon="104.975958"><ele>610.56616</ele><time>2026-06-19T01:41:37.000Z</time></trkpt>
        <trkpt lat="28.476756" lon="104.975971"><ele>610.56616</ele><time>2026-06-19T01:41:39.000Z</time></trkpt>
        <trkpt lat="28.476736" lon="104.975981"><ele>610.56616</ele><time>2026-06-19T01:41:41.000Z</time></trkpt>
        <trkpt lat="28.476713" lon="104.975992"><ele>610.5297</ele><time>2026-06-19T01:41:43.000Z</time></trkpt>
        <trkpt lat="28.476687" lon="104.976003"><ele>610.50604</ele><time>2026-06-19T01:41:45.000Z</time></trkpt>
        <trkpt lat="28.476659" lon="104.97601"><ele>610.31055</ele><time>2026-06-19T01:41:47.000Z</time></trkpt>
        <trkpt lat="28.476633" lon="104.976018"><ele>609.9531</ele><time>2026-06-19T01:41:49.000Z</time></trkpt>
        <trkpt lat="28.476609" lon="104.976023"><ele>609.64453</ele><time>2026-06-19T01:41:51.000Z</time></trkpt>
        <trkpt lat="28.476587" lon="104.976028"><ele>609.3183</ele><time>2026-06-19T01:41:53.000Z</time></trkpt>
        <trkpt lat="28.476566" lon="104.976031"><ele>608.945</ele><time>2026-06-19T01:41:55.000Z</time></trkpt>
        <trkpt lat="28.476544" lon="104.976038"><ele>608.4334</ele><time>2026-06-19T01:41:57.000Z</time></trkpt>
        <trkpt lat="28.476524" lon="104.976045"><ele>607.9004</ele><time>2026-06-19T01:41:59.000Z</time></trkpt>
        <trkpt lat="28.476502" lon="104.976055"><ele>607.47095</ele><time>2026-06-19T01:42:01.000Z</time></trkpt>
        <trkpt lat="28.476483" lon="104.976063"><ele>607.0787</ele><time>2026-06-19T01:42:03.000Z</time></trkpt>
        <trkpt lat="28.476459" lon="104.97607"><ele>606.6799</ele><time>2026-06-19T01:42:05.000Z</time></trkpt>
        <trkpt lat="28.476432" lon="104.976079"><ele>606.3156</ele><time>2026-06-19T01:42:07.000Z</time></trkpt>
        <trkpt lat="28.476403" lon="104.976088"><ele>605.954</ele><time>2026-06-19T01:42:09.000Z</time></trkpt>
        <trkpt lat="28.476375" lon="104.976096"><ele>605.5659</ele><time>2026-06-19T01:42:11.000Z</time></trkpt>
        <trkpt lat="28.476346" lon="104.976103"><ele>605.21844</ele><time>2026-06-19T01:42:13.000Z</time></trkpt>
        <trkpt lat="28.476316" lon="104.976108"><ele>604.8864</ele><time>2026-06-19T01:42:15.000Z</time></trkpt>
        <trkpt lat="28.476288" lon="104.97611"><ele>604.56903</ele><time>2026-06-19T01:42:17.000Z</time></trkpt>
        <trkpt lat="28.476265" lon="104.976106"><ele>604.25085</ele><time>2026-06-19T01:42:19.000Z</time></trkpt>
        <trkpt lat="28.476249" lon="104.976102"><ele>603.97864</ele><time>2026-06-19T01:42:21.000Z</time></trkpt>
        <trkpt lat="28.476236" lon="104.976096"><ele>603.6011</ele><time>2026-06-19T01:42:23.000Z</time></trkpt>
        <trkpt lat="28.476219" lon="104.976088"><ele>602.96234</ele><time>2026-06-19T01:42:25.000Z</time></trkpt>
        <trkpt lat="28.476196" lon="104.976078"><ele>602.2504</ele><time>2026-06-19T01:42:27.000Z</time></trkpt>
        <trkpt lat="28.476173" lon="104.976069"><ele>601.68964</ele><time>2026-06-19T01:42:29.000Z</time></trkpt>
        <trkpt lat="28.476149" lon="104.976062"><ele>601.3302</ele><time>2026-06-19T01:42:31.000Z</time></trkpt>
        <trkpt lat="28.476123" lon="104.976053"><ele>600.97076</ele><time>2026-06-19T01:42:33.000Z</time></trkpt>
        <trkpt lat="28.476097" lon="104.97604"><ele>600.5454</ele><time>2026-06-19T01:42:35.000Z</time></trkpt>
        <trkpt lat="28.476074" lon="104.97603"><ele>600.1514</ele><time>2026-06-19T01:42:37.000Z</time></trkpt>
        <trkpt lat="28.476052" lon="104.97602"><ele>599.78705</ele><time>2026-06-19T01:42:39.000Z</time></trkpt>
        <trkpt lat="28.476033" lon="104.97601"><ele>599.4679</ele><time>2026-06-19T01:42:41.000Z</time></trkpt>
        <trkpt lat="28.476016" lon="104.976"><ele>599.1547</ele><time>2026-06-19T01:42:43.000Z</time></trkpt>
        <trkpt lat="28.476" lon="104.975989"><ele>598.8125</ele><time>2026-06-19T01:42:45.000Z</time></trkpt>
        <trkpt lat="28.475984" lon="104.975978"><ele>598.5054</ele><time>2026-06-19T01:42:47.000Z</time></trkpt>
        <trkpt lat="28.475968" lon="104.975966"><ele>598.26044</ele><time>2026-06-19T01:42:49.000Z</time></trkpt>
        <trkpt lat="28.47595" lon="104.975955"><ele>598.08136</ele><time>2026-06-19T01:42:51.000Z</time></trkpt>
        <trkpt lat="28.475924" lon="104.975942"><ele>597.9224</ele><time>2026-06-19T01:42:53.000Z</time></trkpt>
        <trkpt lat="28.475895" lon="104.975927"><ele>597.7236</ele><time>2026-06-19T01:42:55.000Z</time></trkpt>
        <trkpt lat="28.475869" lon="104.97591"><ele>597.4399</ele><time>2026-06-19T01:42:57.000Z</time></trkpt>
        <trkpt lat="28.475847" lon="104.975894"><ele>597.17834</ele><time>2026-06-19T01:42:59.000Z</time></trkpt>
        <trkpt lat="28.475827" lon="104.97588"><ele>597.08704</ele><time>2026-06-19T01:43:01.000Z</time></trkpt>
        <trkpt lat="28.475812" lon="104.975869"><ele>596.9311</ele><time>2026-06-19T01:43:03.000Z</time></trkpt>
        <trkpt lat="28.475799" lon="104.975853"><ele>596.4913</ele><time>2026-06-19T01:43:05.000Z</time></trkpt>
        <trkpt lat="28.475786" lon="104.975834"><ele>596.00616</ele><time>2026-06-19T01:43:07.000Z</time></trkpt>
        <trkpt lat="28.475775" lon="104.975809"><ele>595.795</ele><time>2026-06-19T01:43:09.000Z</time></trkpt>
        <trkpt lat="28.475763" lon="104.975781"><ele>595.6086</ele><time>2026-06-19T01:43:11.000Z</time></trkpt>
        <trkpt lat="28.475754" lon="104.975758"><ele>595.43097</ele><time>2026-06-19T01:43:13.000Z</time></trkpt>
        <trkpt lat="28.475747" lon="104.975733"><ele>595.43097</ele><time>2026-06-19T01:43:15.000Z</time></trkpt>
        <trkpt lat="28.475737" lon="104.975718"><ele>595.43097</ele><time>2026-06-19T01:43:17.000Z</time></trkpt>
        <trkpt lat="28.475724" lon="104.975692"><ele>595.43097</ele><time>2026-06-19T01:43:27.000Z</time></trkpt>
        <trkpt lat="28.475709" lon="104.975654"><ele>595.43097</ele><time>2026-06-19T01:43:29.000Z</time></trkpt>
        <trkpt lat="28.475699" lon="104.975618"><ele>595.5223</ele><time>2026-06-19T01:43:31.000Z</time></trkpt>
        <trkpt lat="28.47569" lon="104.975592"><ele>595.5223</ele><time>2026-06-19T01:43:33.000Z</time></trkpt>
        <trkpt lat="28.475681" lon="104.975564"><ele>595.5223</ele><time>2026-06-19T01:43:35.000Z</time></trkpt>
        <trkpt lat="28.475669" lon="104.975543"><ele>595.5223</ele><time>2026-06-19T01:43:37.000Z</time></trkpt>
        <trkpt lat="28.475658" lon="104.975525"><ele>595.5138</ele><time>2026-06-19T01:43:39.000Z</time></trkpt>
        <trkpt lat="28.475642" lon="104.975502"><ele>595.4822</ele><time>2026-06-19T01:43:41.000Z</time></trkpt>
        <trkpt lat="28.475628" lon="104.975482"><ele>595.3051</ele><time>2026-06-19T01:43:43.000Z</time></trkpt>
        <trkpt lat="28.475617" lon="104.975462"><ele>595.2303</ele><time>2026-06-19T01:43:45.000Z</time></trkpt>
        <trkpt lat="28.475612" lon="104.975447"><ele>595.18896</ele><time>2026-06-19T01:43:47.000Z</time></trkpt>
        <trkpt lat="28.4756" lon="104.9754"><ele>595.01587</ele><time>2026-06-19T01:43:51.000Z</time></trkpt>
        <trkpt lat="28.475595" lon="104.975375"><ele>594.6251</ele><time>2026-06-19T01:43:53.000Z</time></trkpt>
        <trkpt lat="28.475589" lon="104.975352"><ele>594.0593</ele><time>2026-06-19T01:43:55.000Z</time></trkpt>
        <trkpt lat="28.475583" lon="104.975331"><ele>593.5048</ele><time>2026-06-19T01:43:57.000Z</time></trkpt>
        <trkpt lat="28.475576" lon="104.975305"><ele>592.81085</ele><time>2026-06-19T01:43:59.000Z</time></trkpt>
        <trkpt lat="28.475572" lon="104.975277"><ele>592.1007</ele><time>2026-06-19T01:44:01.000Z</time></trkpt>
        <trkpt lat="28.475567" lon="104.975251"><ele>591.69775</ele><time>2026-06-19T01:44:03.000Z</time></trkpt>
        <trkpt lat="28.475565" lon="104.975226"><ele>591.3306</ele><time>2026-06-19T01:44:05.000Z</time></trkpt>
        <trkpt lat="28.475556" lon="104.975208"><ele>590.98346</ele><time>2026-06-19T01:44:07.000Z</time></trkpt>
        <trkpt lat="28.475599" lon="104.975313"><ele>590.5868</ele><time>2026-06-19T01:44:17.000Z</time></trkpt>
        <trkpt lat="28.475599" lon="104.97534"><ele>590.1606</ele><time>2026-06-19T01:44:19.000Z</time></trkpt>
        <trkpt lat="28.47559" lon="104.975359"><ele>590.0711</ele><time>2026-06-19T01:44:21.000Z</time></trkpt>
        <trkpt lat="28.475576" lon="104.975371"><ele>590.04236</ele><time>2026-06-19T01:44:23.000Z</time></trkpt>
        <trkpt lat="28.475555" lon="104.975381"><ele>589.9445</ele><time>2026-06-19T01:44:25.000Z</time></trkpt>
        <trkpt lat="28.475528" lon="104.975387"><ele>589.8577</ele><time>2026-06-19T01:44:27.000Z</time></trkpt>
        <trkpt lat="28.475506" lon="104.975386"><ele>589.7206</ele><time>2026-06-19T01:44:29.000Z</time></trkpt>
        <trkpt lat="28.475483" lon="104.975382"><ele>589.6075</ele><time>2026-06-19T01:44:31.000Z</time></trkpt>
        <trkpt lat="28.475463" lon="104.975375"><ele>589.6075</ele><time>2026-06-19T01:44:33.000Z</time></trkpt>
        <trkpt lat="28.475443" lon="104.975365"><ele>589.6075</ele><time>2026-06-19T01:44:35.000Z</time></trkpt>
        <trkpt lat="28.475426" lon="104.975359"><ele>589.39996</ele><time>2026-06-19T01:44:37.000Z</time></trkpt>
        <trkpt lat="28.475406" lon="104.975355"><ele>589.0312</ele><time>2026-06-19T01:44:39.000Z</time></trkpt>
        <trkpt lat="28.475387" lon="104.975355"><ele>588.6402</ele><time>2026-06-19T01:44:41.000Z</time></trkpt>
        <trkpt lat="28.475368" lon="104.975356"><ele>588.224</ele><time>2026-06-19T01:44:43.000Z</time></trkpt>
        <trkpt lat="28.475347" lon="104.975355"><ele>587.8245</ele><time>2026-06-19T01:44:45.000Z</time></trkpt>
        <trkpt lat="28.475329" lon="104.975353"><ele>587.50256</ele><time>2026-06-19T01:44:47.000Z</time></trkpt>
        <trkpt lat="28.475312" lon="104.975347"><ele>587.3137</ele><time>2026-06-19T01:44:49.000Z</time></trkpt>
        <trkpt lat="28.475296" lon="104.975339"><ele>587.1887</ele><time>2026-06-19T01:44:51.000Z</time></trkpt>
        <trkpt lat="28.475283" lon="104.975333"><ele>587.0497</ele><time>2026-06-19T01:44:53.000Z</time></trkpt>
        <trkpt lat="28.475248" lon="104.975314"><ele>586.91724</ele><time>2026-06-19T01:44:57.000Z</time></trkpt>
        <trkpt lat="28.475221" lon="104.975303"><ele>586.79126</ele><time>2026-06-19T01:44:59.000Z</time></trkpt>
        <trkpt lat="28.475194" lon="104.975294"><ele>586.6229</ele><time>2026-06-19T01:45:01.000Z</time></trkpt>
        <trkpt lat="28.475166" lon="104.975287"><ele>586.3752</ele><time>2026-06-19T01:45:03.000Z</time></trkpt>
        <trkpt lat="28.475143" lon="104.975285"><ele>585.8506</ele><time>2026-06-19T01:45:05.000Z</time></trkpt>
        <trkpt lat="28.475121" lon="104.975283"><ele>585.12585</ele><time>2026-06-19T01:45:07.000Z</time></trkpt>
        <trkpt lat="28.475098" lon="104.975281"><ele>584.5816</ele><time>2026-06-19T01:45:09.000Z</time></trkpt>
        <trkpt lat="28.475078" lon="104.97528"><ele>584.142</ele><time>2026-06-19T01:45:11.000Z</time></trkpt>
        <trkpt lat="28.475055" lon="104.975277"><ele>583.65247</ele><time>2026-06-19T01:45:13.000Z</time></trkpt>
        <trkpt lat="28.475039" lon="104.975275"><ele>583.23816</ele><time>2026-06-19T01:45:15.000Z</time></trkpt>
        <trkpt lat="28.47502" lon="104.975275"><ele>582.8673</ele><time>2026-06-19T01:45:17.000Z</time></trkpt>
        <trkpt lat="28.475007" lon="104.975282"><ele>582.6515</ele><time>2026-06-19T01:45:19.000Z</time></trkpt>
        <trkpt lat="28.474997" lon="104.975295"><ele>582.38226</ele><time>2026-06-19T01:45:21.000Z</time></trkpt>
        <trkpt lat="28.474976" lon="104.975319"><ele>581.7888</ele><time>2026-06-19T01:45:25.000Z</time></trkpt>
        <trkpt lat="28.474962" lon="104.97533"><ele>581.1217</ele><time>2026-06-19T01:45:27.000Z</time></trkpt>
        <trkpt lat="28.474944" lon="104.975345"><ele>580.6408</ele><time>2026-06-19T01:45:29.000Z</time></trkpt>
        <trkpt lat="28.474927" lon="104.975356"><ele>580.45764</ele><time>2026-06-19T01:45:31.000Z</time></trkpt>
        <trkpt lat="28.474908" lon="104.975364"><ele>580.36273</ele><time>2026-06-19T01:45:33.000Z</time></trkpt>
        <trkpt lat="28.474889" lon="104.975368"><ele>580.29083</ele><time>2026-06-19T01:45:35.000Z</time></trkpt>
        <trkpt lat="28.474868" lon="104.975372"><ele>580.27094</ele><time>2026-06-19T01:45:37.000Z</time></trkpt>
        <trkpt lat="28.474846" lon="104.975374"><ele>580.21094</ele><time>2026-06-19T01:45:39.000Z</time></trkpt>
        <trkpt lat="28.474823" lon="104.975377"><ele>580.01733</ele><time>2026-06-19T01:45:41.000Z</time></trkpt>
        <trkpt lat="28.474803" lon="104.975383"><ele>579.6742</ele><time>2026-06-19T01:45:43.000Z</time></trkpt>
        <trkpt lat="28.474783" lon="104.975388"><ele>579.34863</ele><time>2026-06-19T01:45:45.000Z</time></trkpt>
        <trkpt lat="28.474761" lon="104.975395"><ele>579.1509</ele><time>2026-06-19T01:45:47.000Z</time></trkpt>
        <trkpt lat="28.474738" lon="104.975405"><ele>578.8903</ele><time>2026-06-19T01:45:49.000Z</time></trkpt>
        <trkpt lat="28.474719" lon="104.975419"><ele>578.4485</ele><time>2026-06-19T01:45:51.000Z</time></trkpt>
        <trkpt lat="28.474701" lon="104.975434"><ele>578.07074</ele><time>2026-06-19T01:45:53.000Z</time></trkpt>
        <trkpt lat="28.47468" lon="104.975449"><ele>577.88367</ele><time>2026-06-19T01:45:55.000Z</time></trkpt>
        <trkpt lat="28.474656" lon="104.975464"><ele>577.6961</ele><time>2026-06-19T01:45:57.000Z</time></trkpt>
        <trkpt lat="28.474631" lon="104.975477"><ele>577.41644</ele><time>2026-06-19T01:45:59.000Z</time></trkpt>
        <trkpt lat="28.474612" lon="104.975486"><ele>577.07605</ele><time>2026-06-19T01:46:01.000Z</time></trkpt>
        <trkpt lat="28.474593" lon="104.975497"><ele>576.7297</ele><time>2026-06-19T01:46:03.000Z</time></trkpt>
        <trkpt lat="28.474572" lon="104.975513"><ele>576.4705</ele><time>2026-06-19T01:46:05.000Z</time></trkpt>
        <trkpt lat="28.474554" lon="104.975531"><ele>576.0553</ele><time>2026-06-19T01:46:07.000Z</time></trkpt>
        <trkpt lat="28.474536" lon="104.975548"><ele>575.5179</ele><time>2026-06-19T01:46:09.000Z</time></trkpt>
        <trkpt lat="28.474518" lon="104.975562"><ele>575.07404</ele><time>2026-06-19T01:46:11.000Z</time></trkpt>
        <trkpt lat="28.474498" lon="104.97557"><ele>574.69653</ele><time>2026-06-19T01:46:13.000Z</time></trkpt>
        <trkpt lat="28.474476" lon="104.975577"><ele>574.4315</ele><time>2026-06-19T01:46:15.000Z</time></trkpt>
        <trkpt lat="28.474454" lon="104.975581"><ele>574.2007</ele><time>2026-06-19T01:46:17.000Z</time></trkpt>
        <trkpt lat="28.474429" lon="104.975584"><ele>574.04346</ele><time>2026-06-19T01:46:19.000Z</time></trkpt>
        <trkpt lat="28.474404" lon="104.975586"><ele>573.8331</ele><time>2026-06-19T01:46:21.000Z</time></trkpt>
        <trkpt lat="28.474383" lon="104.975586"><ele>573.40643</ele><time>2026-06-19T01:46:23.000Z</time></trkpt>
        <trkpt lat="28.474364" lon="104.975584"><ele>572.92566</ele><time>2026-06-19T01:46:25.000Z</time></trkpt>
        <trkpt lat="28.47435" lon="104.975587"><ele>572.59985</ele><time>2026-06-19T01:46:27.000Z</time></trkpt>
        <trkpt lat="28.474327" lon="104.975595"><ele>572.17615</ele><time>2026-06-19T01:46:31.000Z</time></trkpt>
        <trkpt lat="28.474312" lon="104.975599"><ele>571.4453</ele><time>2026-06-19T01:46:33.000Z</time></trkpt>
        <trkpt lat="28.474293" lon="104.975602"><ele>570.7457</ele><time>2026-06-19T01:46:35.000Z</time></trkpt>
        <trkpt lat="28.47427" lon="104.975604"><ele>570.14386</ele><time>2026-06-19T01:46:37.000Z</time></trkpt>
        <trkpt lat="28.474247" lon="104.975606"><ele>569.50006</ele><time>2026-06-19T01:46:39.000Z</time></trkpt>
        <trkpt lat="28.474225" lon="104.975606"><ele>568.9822</ele><time>2026-06-19T01:46:41.000Z</time></trkpt>
        <trkpt lat="28.474204" lon="104.975603"><ele>568.69794</ele><time>2026-06-19T01:46:43.000Z</time></trkpt>
        <trkpt lat="28.474186" lon="104.9756"><ele>568.4105</ele><time>2026-06-19T01:46:45.000Z</time></trkpt>
        <trkpt lat="28.47417" lon="104.975598"><ele>568.1803</ele><time>2026-06-19T01:46:47.000Z</time></trkpt>
        <trkpt lat="28.474153" lon="104.975594"><ele>567.8907</ele><time>2026-06-19T01:46:49.000Z</time></trkpt>
        <trkpt lat="28.474135" lon="104.975585"><ele>567.2516</ele><time>2026-06-19T01:46:51.000Z</time></trkpt>
        <trkpt lat="28.474122" lon="104.975574"><ele>566.6404</ele><time>2026-06-19T01:46:53.000Z</time></trkpt>
        <trkpt lat="28.474109" lon="104.97556"><ele>566.183</ele><time>2026-06-19T01:46:55.000Z</time></trkpt>
        <trkpt lat="28.474097" lon="104.975543"><ele>565.7121</ele><time>2026-06-19T01:46:57.000Z</time></trkpt>
        <trkpt lat="28.474083" lon="104.975519"><ele>565.23566</ele><time>2026-06-19T01:46:59.000Z</time></trkpt>
        <trkpt lat="28.474067" lon="104.97549"><ele>564.73895</ele><time>2026-06-19T01:47:01.000Z</time></trkpt>
        <trkpt lat="28.474052" lon="104.975465"><ele>564.1703</ele><time>2026-06-19T01:47:03.000Z</time></trkpt>
        <trkpt lat="28.474036" lon="104.975438"><ele>563.46106</ele><time>2026-06-19T01:47:05.000Z</time></trkpt>
        <trkpt lat="28.474021" lon="104.975413"><ele>562.76495</ele><time>2026-06-19T01:47:07.000Z</time></trkpt>
        <trkpt lat="28.474005" lon="104.975389"><ele>562.2262</ele><time>2026-06-19T01:47:09.000Z</time></trkpt>
        <trkpt lat="28.473992" lon="104.975366"><ele>561.806</ele><time>2026-06-19T01:47:11.000Z</time></trkpt>
        <trkpt lat="28.473982" lon="104.975345"><ele>561.50305</ele><time>2026-06-19T01:47:13.000Z</time></trkpt>
        <trkpt lat="28.473974" lon="104.97533"><ele>561.05365</ele><time>2026-06-19T01:47:15.000Z</time></trkpt>
        <trkpt lat="28.473964" lon="104.975312"><ele>560.4196</ele><time>2026-06-19T01:47:17.000Z</time></trkpt>
        <trkpt lat="28.473954" lon="104.975292"><ele>559.76605</ele><time>2026-06-19T01:47:19.000Z</time></trkpt>
        <trkpt lat="28.473942" lon="104.975266"><ele>559.07367</ele><time>2026-06-19T01:47:21.000Z</time></trkpt>
        <trkpt lat="28.473929" lon="104.975244"><ele>558.4184</ele><time>2026-06-19T01:47:23.000Z</time></trkpt>
        <trkpt lat="28.473914" lon="104.975222"><ele>557.8533</ele><time>2026-06-19T01:47:25.000Z</time></trkpt>
        <trkpt lat="28.473901" lon="104.975204"><ele>557.43066</ele><time>2026-06-19T01:47:27.000Z</time></trkpt>
        <trkpt lat="28.473888" lon="104.975189"><ele>557.0467</ele><time>2026-06-19T01:47:29.000Z</time></trkpt>
        <trkpt lat="28.473876" lon="104.975176"><ele>556.58057</ele><time>2026-06-19T01:47:31.000Z</time></trkpt>
        <trkpt lat="28.473862" lon="104.975162"><ele>556.1445</ele><time>2026-06-19T01:47:33.000Z</time></trkpt>
        <trkpt lat="28.473849" lon="104.975148"><ele>555.77313</ele><time>2026-06-19T01:47:35.000Z</time></trkpt>
        <trkpt lat="28.473837" lon="104.975134"><ele>555.27673</ele><time>2026-06-19T01:47:37.000Z</time></trkpt>
        <trkpt lat="28.47383" lon="104.975117"><ele>554.7434</ele><time>2026-06-19T01:47:39.000Z</time></trkpt>
        <trkpt lat="28.473821" lon="104.975092"><ele>554.32776</ele><time>2026-06-19T01:47:41.000Z</time></trkpt>
        <trkpt lat="28.47381" lon="104.975066"><ele>553.9403</ele><time>2026-06-19T01:47:43.000Z</time></trkpt>
        <trkpt lat="28.473797" lon="104.975042"><ele>553.56903</ele><time>2026-06-19T01:47:45.000Z</time></trkpt>
        <trkpt lat="28.473781" lon="104.975021"><ele>553.24023</ele><time>2026-06-19T01:47:47.000Z</time></trkpt>
        <trkpt lat="28.473763" lon="104.975005"><ele>553.0344</ele><time>2026-06-19T01:47:49.000Z</time></trkpt>
        <trkpt lat="28.473744" lon="104.974991"><ele>552.8594</ele><time>2026-06-19T01:47:51.000Z</time></trkpt>
        <trkpt lat="28.473724" lon="104.974978"><ele>552.7157</ele><time>2026-06-19T01:47:53.000Z</time></trkpt>
        <trkpt lat="28.473706" lon="104.974965"><ele>552.62164</ele><time>2026-06-19T01:47:55.000Z</time></trkpt>
        <trkpt lat="28.47369" lon="104.974955"><ele>552.52167</ele><time>2026-06-19T01:47:57.000Z</time></trkpt>
        <trkpt lat="28.473674" lon="104.974945"><ele>552.4647</ele><time>2026-06-19T01:47:59.000Z</time></trkpt>
        <trkpt lat="28.473657" lon="104.974935"><ele>552.41925</ele><time>2026-06-19T01:48:01.000Z</time></trkpt>
        <trkpt lat="28.473641" lon="104.974922"><ele>552.18945</ele><time>2026-06-19T01:48:03.000Z</time></trkpt>
        <trkpt lat="28.473626" lon="104.974905"><ele>551.7769</ele><time>2026-06-19T01:48:05.000Z</time></trkpt>
        <trkpt lat="28.473607" lon="104.974885"><ele>551.4366</ele><time>2026-06-19T01:48:07.000Z</time></trkpt>
        <trkpt lat="28.473588" lon="104.974863"><ele>551.218</ele><time>2026-06-19T01:48:09.000Z</time></trkpt>
        <trkpt lat="28.473572" lon="104.974844"><ele>551.0944</ele><time>2026-06-19T01:48:11.000Z</time></trkpt>
        <trkpt lat="28.473556" lon="104.974826"><ele>550.94324</ele><time>2026-06-19T01:48:13.000Z</time></trkpt>
        <trkpt lat="28.473538" lon="104.974811"><ele>550.7672</ele><time>2026-06-19T01:48:15.000Z</time></trkpt>
        <trkpt lat="28.473519" lon="104.974797"><ele>550.59247</ele><time>2026-06-19T01:48:17.000Z</time></trkpt>
        <trkpt lat="28.473501" lon="104.974785"><ele>550.4848</ele><time>2026-06-19T01:48:19.000Z</time></trkpt>
        <trkpt lat="28.473482" lon="104.974775"><ele>550.4365</ele><time>2026-06-19T01:48:21.000Z</time></trkpt>
        <trkpt lat="28.473464" lon="104.974765"><ele>550.39105</ele><time>2026-06-19T01:48:23.000Z</time></trkpt>
        <trkpt lat="28.473446" lon="104.974755"><ele>550.3042</ele><time>2026-06-19T01:48:25.000Z</time></trkpt>
        <trkpt lat="28.473427" lon="104.974742"><ele>550.07117</ele><time>2026-06-19T01:48:27.000Z</time></trkpt>
        <trkpt lat="28.473409" lon="104.974728"><ele>549.8284</ele><time>2026-06-19T01:48:29.000Z</time></trkpt>
        <trkpt lat="28.473391" lon="104.974714"><ele>549.69666</ele><time>2026-06-19T01:48:31.000Z</time></trkpt>
        <trkpt lat="28.473371" lon="104.9747"><ele>549.6096</ele><time>2026-06-19T01:48:33.000Z</time></trkpt>
        <trkpt lat="28.473352" lon="104.974682"><ele>549.5471</ele><time>2026-06-19T01:48:35.000Z</time></trkpt>
        <trkpt lat="28.473332" lon="104.974665"><ele>549.52686</ele><time>2026-06-19T01:48:37.000Z</time></trkpt>
        <trkpt lat="28.473313" lon="104.974649"><ele>549.34735</ele><time>2026-06-19T01:48:39.000Z</time></trkpt>
        <trkpt lat="28.473296" lon="104.974637"><ele>548.9805</ele><time>2026-06-19T01:48:41.000Z</time></trkpt>
        <trkpt lat="28.473277" lon="104.974629"><ele>548.61914</ele><time>2026-06-19T01:48:43.000Z</time></trkpt>
        <trkpt lat="28.473256" lon="104.974621"><ele>548.28406</ele><time>2026-06-19T01:48:45.000Z</time></trkpt>
        <trkpt lat="28.473235" lon="104.974615"><ele>548.1103</ele><time>2026-06-19T01:48:47.000Z</time></trkpt>
        <trkpt lat="28.473215" lon="104.974612"><ele>547.89185</ele><time>2026-06-19T01:48:49.000Z</time></trkpt>
        <trkpt lat="28.473191" lon="104.974609"><ele>547.42554</ele><time>2026-06-19T01:48:51.000Z</time></trkpt>
        <trkpt lat="28.473168" lon="104.974607"><ele>546.918</ele><time>2026-06-19T01:48:53.000Z</time></trkpt>
        <trkpt lat="28.473144" lon="104.974603"><ele>546.4245</ele><time>2026-06-19T01:48:55.000Z</time></trkpt>
        <trkpt lat="28.473122" lon="104.9746"><ele>546.1403</ele><time>2026-06-19T01:48:57.000Z</time></trkpt>
        <trkpt lat="28.473096" lon="104.974596"><ele>545.8653</ele><time>2026-06-19T01:48:59.000Z</time></trkpt>
        <trkpt lat="28.473071" lon="104.97459"><ele>545.54584</ele><time>2026-06-19T01:49:01.000Z</time></trkpt>
        <trkpt lat="28.473047" lon="104.974586"><ele>545.4103</ele><time>2026-06-19T01:49:03.000Z</time></trkpt>
        <trkpt lat="28.473024" lon="104.974583"><ele>545.12683</ele><time>2026-06-19T01:49:05.000Z</time></trkpt>
        <trkpt lat="28.473002" lon="104.974582"><ele>544.8043</ele><time>2026-06-19T01:49:07.000Z</time></trkpt>
        <trkpt lat="28.472984" lon="104.974582"><ele>544.68964</ele><time>2026-06-19T01:49:09.000Z</time></trkpt>
        <trkpt lat="28.472968" lon="104.974583"><ele>544.63794</ele><time>2026-06-19T01:49:11.000Z</time></trkpt>
        <trkpt lat="28.47295" lon="104.974585"><ele>544.4501</ele><time>2026-06-19T01:49:13.000Z</time></trkpt>
        <trkpt lat="28.472927" lon="104.97459"><ele>544.0774</ele><time>2026-06-19T01:49:15.000Z</time></trkpt>
        <trkpt lat="28.472902" lon="104.974595"><ele>543.7836</ele><time>2026-06-19T01:49:17.000Z</time></trkpt>
        <trkpt lat="28.472879" lon="104.974593"><ele>543.68604</ele><time>2026-06-19T01:49:19.000Z</time></trkpt>
        <trkpt lat="28.47286" lon="104.974591"><ele>543.6083</ele><time>2026-06-19T01:49:21.000Z</time></trkpt>
        <trkpt lat="28.472846" lon="104.974589"><ele>543.4928</ele><time>2026-06-19T01:49:23.000Z</time></trkpt>
        <trkpt lat="28.47283" lon="104.97459"><ele>543.3785</ele><time>2026-06-19T01:49:25.000Z</time></trkpt>
        <trkpt lat="28.472812" lon="104.974592"><ele>543.25256</ele><time>2026-06-19T01:49:27.000Z</time></trkpt>
        <trkpt lat="28.472792" lon="104.974596"><ele>543.1605</ele><time>2026-06-19T01:49:29.000Z</time></trkpt>
        <trkpt lat="28.472771" lon="104.974601"><ele>543.0669</ele><time>2026-06-19T01:49:31.000Z</time></trkpt>
        <trkpt lat="28.472751" lon="104.974608"><ele>543.00494</ele><time>2026-06-19T01:49:33.000Z</time></trkpt>
        <trkpt lat="28.472728" lon="104.974615"><ele>543.00494</ele><time>2026-06-19T01:49:35.000Z</time></trkpt>
        <trkpt lat="28.472701" lon="104.974623"><ele>542.9415</ele><time>2026-06-19T01:49:37.000Z</time></trkpt>
        <trkpt lat="28.472673" lon="104.974634"><ele>542.8847</ele><time>2026-06-19T01:49:39.000Z</time></trkpt>
        <trkpt lat="28.472647" lon="104.974645"><ele>542.7872</ele><time>2026-06-19T01:49:41.000Z</time></trkpt>
        <trkpt lat="28.472622" lon="104.974654"><ele>542.66693</ele><time>2026-06-19T01:49:43.000Z</time></trkpt>
        <trkpt lat="28.4726" lon="104.974659"><ele>542.633</ele><time>2026-06-19T01:49:45.000Z</time></trkpt>
        <trkpt lat="28.472582" lon="104.974657"><ele>542.4603</ele><time>2026-06-19T01:49:47.000Z</time></trkpt>
        <trkpt lat="28.472567" lon="104.974651"><ele>542.24005</ele><time>2026-06-19T01:49:49.000Z</time></trkpt>
        <trkpt lat="28.472549" lon="104.974646"><ele>542.07336</ele><time>2026-06-19T01:49:51.000Z</time></trkpt>
        <trkpt lat="28.472529" lon="104.974642"><ele>541.93335</ele><time>2026-06-19T01:49:53.000Z</time></trkpt>
        <trkpt lat="28.472509" lon="104.974643"><ele>541.8253</ele><time>2026-06-19T01:49:55.000Z</time></trkpt>
        <trkpt lat="28.472491" lon="104.974638"><ele>541.7836</ele><time>2026-06-19T01:49:57.000Z</time></trkpt>
        <trkpt lat="28.472469" lon="104.974629"><ele>541.71246</ele><time>2026-06-19T01:49:59.000Z</time></trkpt>
        <trkpt lat="28.472442" lon="104.974622"><ele>541.66455</ele><time>2026-06-19T01:50:01.000Z</time></trkpt>
        <trkpt lat="28.47242" lon="104.97463"><ele>541.63495</ele><time>2026-06-19T01:50:03.000Z</time></trkpt>
        <trkpt lat="28.472392" lon="104.974641"><ele>541.59283</ele><time>2026-06-19T01:50:05.000Z</time></trkpt>
        <trkpt lat="28.472377" lon="104.974647"><ele>541.4737</ele><time>2026-06-19T01:50:07.000Z</time></trkpt>
        <trkpt lat="28.472377" lon="104.974584"><ele>541.37585</ele><time>2026-06-19T01:50:27.000Z</time></trkpt>
        <trkpt lat="28.472254" lon="104.974525"><ele>541.37195</ele><time>2026-06-19T01:50:39.000Z</time></trkpt>
        <trkpt lat="28.472254" lon="104.974525"><ele>541.3691</ele><time>2026-06-19T01:50:41.000Z</time></trkpt>
        <trkpt lat="28.472251" lon="104.974523"><ele>541.3623</ele><time>2026-06-19T01:50:43.000Z</time></trkpt>
        <trkpt lat="28.472204" lon="104.974499"><ele>541.2932</ele><time>2026-06-19T01:50:47.000Z</time></trkpt>
        <trkpt lat="28.47217" lon="104.974486"><ele>540.5813</ele><time>2026-06-19T01:50:49.000Z</time></trkpt>
        <trkpt lat="28.472135" lon="104.974476"><ele>539.86523</ele><time>2026-06-19T01:50:51.000Z</time></trkpt>
        <trkpt lat="28.472104" lon="104.974466"><ele>539.7895</ele><time>2026-06-19T01:50:53.000Z</time></trkpt>
        <trkpt lat="28.472082" lon="104.974459"><ele>539.779</ele><time>2026-06-19T01:50:55.000Z</time></trkpt>
        <trkpt lat="28.472064" lon="104.974451"><ele>539.7178</ele><time>2026-06-19T01:50:57.000Z</time></trkpt>
        <trkpt lat="28.472052" lon="104.974439"><ele>539.6346</ele><time>2026-06-19T01:50:59.000Z</time></trkpt>
        <trkpt lat="28.472029" lon="104.974409"><ele>539.411</ele><time>2026-06-19T01:51:03.000Z</time></trkpt>
        <trkpt lat="28.472017" lon="104.974394"><ele>539.06683</ele><time>2026-06-19T01:51:05.000Z</time></trkpt>
        <trkpt lat="28.472004" lon="104.974377"><ele>538.83685</ele><time>2026-06-19T01:51:07.000Z</time></trkpt>
        <trkpt lat="28.471994" lon="104.97436"><ele>538.53375</ele><time>2026-06-19T01:51:09.000Z</time></trkpt>
        <trkpt lat="28.471982" lon="104.97435"><ele>538.1501</ele><time>2026-06-19T01:51:11.000Z</time></trkpt>
        <trkpt lat="28.471956" lon="104.974339"><ele>537.9072</ele><time>2026-06-19T01:51:15.000Z</time></trkpt>
        <trkpt lat="28.471943" lon="104.974336"><ele>537.7875</ele><time>2026-06-19T01:51:17.000Z</time></trkpt>
        <trkpt lat="28.471925" lon="104.974334"><ele>537.7083</ele><time>2026-06-19T01:51:19.000Z</time></trkpt>
        <trkpt lat="28.471882" lon="104.974324"><ele>537.613</ele><time>2026-06-19T01:51:23.000Z</time></trkpt>
        <trkpt lat="28.471865" lon="104.974322"><ele>537.41644</ele><time>2026-06-19T01:51:25.000Z</time></trkpt>
        <trkpt lat="28.471851" lon="104.974314"><ele>537.2808</ele><time>2026-06-19T01:51:27.000Z</time></trkpt>
        <trkpt lat="28.471824" lon="104.974289"><ele>537.21967</ele><time>2026-06-19T01:51:31.000Z</time></trkpt>
        <trkpt lat="28.471818" lon="104.974272"><ele>536.9762</ele><time>2026-06-19T01:51:33.000Z</time></trkpt>
        <trkpt lat="28.471814" lon="104.974247"><ele>536.7521</ele><time>2026-06-19T01:51:35.000Z</time></trkpt>
        <trkpt lat="28.471814" lon="104.974217"><ele>536.6951</ele><time>2026-06-19T01:51:37.000Z</time></trkpt>
        <trkpt lat="28.471807" lon="104.974186"><ele>536.65967</ele><time>2026-06-19T01:51:39.000Z</time></trkpt>
        <trkpt lat="28.471798" lon="104.97417"><ele>536.52893</ele><time>2026-06-19T01:51:41.000Z</time></trkpt>
        <trkpt lat="28.471785" lon="104.974154"><ele>536.371</ele><time>2026-06-19T01:51:43.000Z</time></trkpt>
        <trkpt lat="28.471769" lon="104.974139"><ele>536.2231</ele><time>2026-06-19T01:51:45.000Z</time></trkpt>
        <trkpt lat="28.471753" lon="104.974127"><ele>536.1092</ele><time>2026-06-19T01:51:47.000Z</time></trkpt>
        <trkpt lat="28.471737" lon="104.974117"><ele>535.98553</ele><time>2026-06-19T01:51:49.000Z</time></trkpt>
        <trkpt lat="28.471717" lon="104.974105"><ele>535.86536</ele><time>2026-06-19T01:51:51.000Z</time></trkpt>
        <trkpt lat="28.471704" lon="104.974096"><ele>535.6639</ele><time>2026-06-19T01:51:53.000Z</time></trkpt>
        <trkpt lat="28.471687" lon="104.974086"><ele>535.35876</ele><time>2026-06-19T01:51:55.000Z</time></trkpt>
        <trkpt lat="28.471668" lon="104.974073"><ele>535.13</ele><time>2026-06-19T01:51:57.000Z</time></trkpt>
        <trkpt lat="28.471651" lon="104.974057"><ele>535.0022</ele><time>2026-06-19T01:51:59.000Z</time></trkpt>
        <trkpt lat="28.471634" lon="104.974044"><ele>534.91815</ele><time>2026-06-19T01:52:01.000Z</time></trkpt>
        <trkpt lat="28.471613" lon="104.974034"><ele>534.77094</ele><time>2026-06-19T01:52:03.000Z</time></trkpt>
        <trkpt lat="28.471588" lon="104.974026"><ele>534.57294</ele><time>2026-06-19T01:52:05.000Z</time></trkpt>
        <trkpt lat="28.471562" lon="104.974021"><ele>534.2578</ele><time>2026-06-19T01:52:07.000Z</time></trkpt>
        <trkpt lat="28.471536" lon="104.974017"><ele>533.9344</ele><time>2026-06-19T01:52:09.000Z</time></trkpt>
        <trkpt lat="28.471517" lon="104.974014"><ele>533.6364</ele><time>2026-06-19T01:52:11.000Z</time></trkpt>
        <trkpt lat="28.4715" lon="104.974014"><ele>533.43</ele><time>2026-06-19T01:52:13.000Z</time></trkpt>
        <trkpt lat="28.471459" lon="104.974014"><ele>533.0574</ele><time>2026-06-19T01:52:17.000Z</time></trkpt>
        <trkpt lat="28.47144" lon="104.974014"><ele>532.3719</ele><time>2026-06-19T01:52:19.000Z</time></trkpt>
        <trkpt lat="28.47142" lon="104.974012"><ele>531.8196</ele><time>2026-06-19T01:52:21.000Z</time></trkpt>
        <trkpt lat="28.471408" lon="104.974005"><ele>531.30536</ele><time>2026-06-19T01:52:23.000Z</time></trkpt>
        <trkpt lat="28.471378" lon="104.973986"><ele>530.3548</ele><time>2026-06-19T01:52:27.000Z</time></trkpt>
        <trkpt lat="28.471364" lon="104.973983"><ele>529.503</ele><time>2026-06-19T01:52:29.000Z</time></trkpt>
        <trkpt lat="28.471348" lon="104.973981"><ele>528.79614</ele><time>2026-06-19T01:52:31.000Z</time></trkpt>
        <trkpt lat="28.471327" lon="104.973981"><ele>527.9057</ele><time>2026-06-19T01:52:33.000Z</time></trkpt>
        <trkpt lat="28.471306" lon="104.973981"><ele>527.119</ele><time>2026-06-19T01:52:35.000Z</time></trkpt>
        <trkpt lat="28.471286" lon="104.973979"><ele>526.3365</ele><time>2026-06-19T01:52:37.000Z</time></trkpt>
        <trkpt lat="28.471267" lon="104.973974"><ele>525.7538</ele><time>2026-06-19T01:52:39.000Z</time></trkpt>
        <trkpt lat="28.47125" lon="104.973969"><ele>525.2971</ele><time>2026-06-19T01:52:41.000Z</time></trkpt>
        <trkpt lat="28.471237" lon="104.973965"><ele>524.8264</ele><time>2026-06-19T01:52:43.000Z</time></trkpt>
        <trkpt lat="28.471217" lon="104.973959"><ele>524.4603</ele><time>2026-06-19T01:52:47.000Z</time></trkpt>
        <trkpt lat="28.471184" lon="104.973949"><ele>524.14343</ele><time>2026-06-19T01:52:51.000Z</time></trkpt>
        <trkpt lat="28.471165" lon="104.973949"><ele>523.7757</ele><time>2026-06-19T01:52:53.000Z</time></trkpt>
        <trkpt lat="28.471148" lon="104.973948"><ele>523.3684</ele><time>2026-06-19T01:52:55.000Z</time></trkpt>
        <trkpt lat="28.471127" lon="104.973949"><ele>522.9326</ele><time>2026-06-19T01:52:57.000Z</time></trkpt>
        <trkpt lat="28.471113" lon="104.973948"><ele>522.44415</ele><time>2026-06-19T01:52:59.000Z</time></trkpt>
        <trkpt lat="28.471058" lon="104.973937"><ele>522.0273</ele><time>2026-06-19T01:53:23.000Z</time></trkpt>
        <trkpt lat="28.471027" lon="104.973931"><ele>521.762</ele><time>2026-06-19T01:53:27.000Z</time></trkpt>
        <trkpt lat="28.471027" lon="104.973931"><ele>521.49963</ele><time>2026-06-19T01:53:29.000Z</time></trkpt>
        <trkpt lat="28.470991" lon="104.973953"><ele>521.23126</ele><time>2026-06-19T01:53:35.000Z</time></trkpt>
        <trkpt lat="28.470956" lon="104.973915"><ele>520.2946</ele><time>2026-06-19T01:53:39.000Z</time></trkpt>
        <trkpt lat="28.470942" lon="104.973902"><ele>519.4562</ele><time>2026-06-19T01:53:41.000Z</time></trkpt>
        <trkpt lat="28.470921" lon="104.973886"><ele>519.3565</ele><time>2026-06-19T01:53:43.000Z</time></trkpt>
        <trkpt lat="28.470895" lon="104.973873"><ele>518.9128</ele><time>2026-06-19T01:53:45.000Z</time></trkpt>
        <trkpt lat="28.470871" lon="104.973865"><ele>518.0008</ele><time>2026-06-19T01:53:47.000Z</time></trkpt>
        <trkpt lat="28.470853" lon="104.973863"><ele>517.128</ele><time>2026-06-19T01:53:49.000Z</time></trkpt>
        <trkpt lat="28.470846" lon="104.973872"><ele>516.4455</ele><time>2026-06-19T01:53:51.000Z</time></trkpt>
        <trkpt lat="28.470818" lon="104.973891"><ele>515.82733</ele><time>2026-06-19T01:53:55.000Z</time></trkpt>
        <trkpt lat="28.470807" lon="104.973892"><ele>515.44525</ele><time>2026-06-19T01:53:57.000Z</time></trkpt>
        <trkpt lat="28.470788" lon="104.973891"><ele>515.1493</ele><time>2026-06-19T01:53:59.000Z</time></trkpt>
        <trkpt lat="28.470769" lon="104.973889"><ele>514.702</ele><time>2026-06-19T01:54:01.000Z</time></trkpt>
        <trkpt lat="28.470748" lon="104.973887"><ele>514.1313</ele><time>2026-06-19T01:54:03.000Z</time></trkpt>
        <trkpt lat="28.47073" lon="104.973884"><ele>513.752</ele><time>2026-06-19T01:54:05.000Z</time></trkpt>
        <trkpt lat="28.470711" lon="104.97388"><ele>513.62024</ele><time>2026-06-19T01:54:07.000Z</time></trkpt>
        <trkpt lat="28.470692" lon="104.97388"><ele>513.45087</ele><time>2026-06-19T01:54:09.000Z</time></trkpt>
        <trkpt lat="28.470675" lon="104.973884"><ele>513.1238</ele><time>2026-06-19T01:54:11.000Z</time></trkpt>
        <trkpt lat="28.470662" lon="104.973881"><ele>512.7422</ele><time>2026-06-19T01:54:13.000Z</time></trkpt>
        <trkpt lat="28.470639" lon="104.973879"><ele>512.5222</ele><time>2026-06-19T01:54:17.000Z</time></trkpt>
        <trkpt lat="28.470625" lon="104.973874"><ele>512.3873</ele><time>2026-06-19T01:54:19.000Z</time></trkpt>
        <trkpt lat="28.470611" lon="104.973866"><ele>512.26337</ele><time>2026-06-19T01:54:21.000Z</time></trkpt>
        <trkpt lat="28.470594" lon="104.973857"><ele>512.19916</ele><time>2026-06-19T01:54:23.000Z</time></trkpt>
        <trkpt lat="28.470575" lon="104.973849"><ele>511.9471</ele><time>2026-06-19T01:54:25.000Z</time></trkpt>
        <trkpt lat="28.470551" lon="104.973844"><ele>511.75037</ele><time>2026-06-19T01:54:27.000Z</time></trkpt>
        <trkpt lat="28.470526" lon="104.973841"><ele>511.6868</ele><time>2026-06-19T01:54:29.000Z</time></trkpt>
        <trkpt lat="28.470507" lon="104.97384"><ele>511.61313</ele><time>2026-06-19T01:54:31.000Z</time></trkpt>
        <trkpt lat="28.470491" lon="104.973839"><ele>511.5807</ele><time>2026-06-19T01:54:33.000Z</time></trkpt>
        <trkpt lat="28.470472" lon="104.973837"><ele>511.53894</ele><time>2026-06-19T01:54:35.000Z</time></trkpt>
        <trkpt lat="28.470453" lon="104.973837"><ele>511.45535</ele><time>2026-06-19T01:54:37.000Z</time></trkpt>
        <trkpt lat="28.470428" lon="104.973835"><ele>511.15048</ele><time>2026-06-19T01:54:39.000Z</time></trkpt>
        <trkpt lat="28.470405" lon="104.97383"><ele>510.85355</ele><time>2026-06-19T01:54:41.000Z</time></trkpt>
        <trkpt lat="28.470383" lon="104.973825"><ele>510.6627</ele><time>2026-06-19T01:54:43.000Z</time></trkpt>
        <trkpt lat="28.470365" lon="104.973815"><ele>510.34686</ele><time>2026-06-19T01:54:45.000Z</time></trkpt>
        <trkpt lat="28.470351" lon="104.973799"><ele>510.00943</ele><time>2026-06-19T01:54:47.000Z</time></trkpt>
        <trkpt lat="28.470335" lon="104.97378"><ele>509.64734</ele><time>2026-06-19T01:54:49.000Z</time></trkpt>
        <trkpt lat="28.470319" lon="104.973763"><ele>509.30066</ele><time>2026-06-19T01:54:51.000Z</time></trkpt>
        <trkpt lat="28.470302" lon="104.973752"><ele>508.97156</ele><time>2026-06-19T01:54:53.000Z</time></trkpt>
        <trkpt lat="28.470287" lon="104.973744"><ele>508.58508</ele><time>2026-06-19T01:54:55.000Z</time></trkpt>
        <trkpt lat="28.470273" lon="104.973735"><ele>508.1596</ele><time>2026-06-19T01:54:57.000Z</time></trkpt>
        <trkpt lat="28.470256" lon="104.973722"><ele>507.76785</ele><time>2026-06-19T01:54:59.000Z</time></trkpt>
        <trkpt lat="28.470241" lon="104.973712"><ele>507.50034</ele><time>2026-06-19T01:55:01.000Z</time></trkpt>
        <trkpt lat="28.470223" lon="104.973701"><ele>507.30215</ele><time>2026-06-19T01:55:03.000Z</time></trkpt>
        <trkpt lat="28.470203" lon="104.973688"><ele>507.0385</ele><time>2026-06-19T01:55:05.000Z</time></trkpt>
        <trkpt lat="28.470186" lon="104.973674"><ele>506.8107</ele><time>2026-06-19T01:55:07.000Z</time></trkpt>
        <trkpt lat="28.470166" lon="104.973658"><ele>506.62277</ele><time>2026-06-19T01:55:09.000Z</time></trkpt>
        <trkpt lat="28.470147" lon="104.973645"><ele>506.4381</ele><time>2026-06-19T01:55:11.000Z</time></trkpt>
        <trkpt lat="28.470133" lon="104.973633"><ele>506.23935</ele><time>2026-06-19T01:55:13.000Z</time></trkpt>
        <trkpt lat="28.470119" lon="104.973619"><ele>505.92368</ele><time>2026-06-19T01:55:15.000Z</time></trkpt>
        <trkpt lat="28.470109" lon="104.973606"><ele>505.68207</ele><time>2026-06-19T01:55:17.000Z</time></trkpt>
        <trkpt lat="28.470099" lon="104.973594"><ele>505.5944</ele><time>2026-06-19T01:55:19.000Z</time></trkpt>
        <trkpt lat="28.470087" lon="104.973582"><ele>505.4792</ele><time>2026-06-19T01:55:21.000Z</time></trkpt>
        <trkpt lat="28.470078" lon="104.973571"><ele>505.2481</ele><time>2026-06-19T01:55:23.000Z</time></trkpt>
        <trkpt lat="28.470075" lon="104.973565"><ele>505.0403</ele><time>2026-06-19T01:55:25.000Z</time></trkpt>
        <trkpt lat="28.470064" lon="104.973546"><ele>504.97324</ele><time>2026-06-19T01:55:27.000Z</time></trkpt>
        <trkpt lat="28.470049" lon="104.973521"><ele>504.9572</ele><time>2026-06-19T01:55:29.000Z</time></trkpt>
        <trkpt lat="28.470036" lon="104.973496"><ele>504.9376</ele><time>2026-06-19T01:55:31.000Z</time></trkpt>
        <trkpt lat="28.470021" lon="104.973474"><ele>504.92737</ele><time>2026-06-19T01:55:33.000Z</time></trkpt>
        <trkpt lat="28.470003" lon="104.973457"><ele>504.82465</ele><time>2026-06-19T01:55:35.000Z</time></trkpt>
        <trkpt lat="28.469986" lon="104.97344"><ele>504.71054</ele><time>2026-06-19T01:55:37.000Z</time></trkpt>
        <trkpt lat="28.469968" lon="104.97342"><ele>504.71765</ele><time>2026-06-19T01:55:39.000Z</time></trkpt>
        <trkpt lat="28.469953" lon="104.973402"><ele>504.64594</ele><time>2026-06-19T01:55:41.000Z</time></trkpt>
        <trkpt lat="28.469941" lon="104.973382"><ele>504.50797</ele><time>2026-06-19T01:55:43.000Z</time></trkpt>
        <trkpt lat="28.469926" lon="104.97336"><ele>504.42825</ele><time>2026-06-19T01:55:45.000Z</time></trkpt>
        <trkpt lat="28.469913" lon="104.973339"><ele>504.41223</ele><time>2026-06-19T01:55:47.000Z</time></trkpt>
        <trkpt lat="28.469901" lon="104.973329"><ele>504.3753</ele><time>2026-06-19T01:55:49.000Z</time></trkpt>
        <trkpt lat="28.469887" lon="104.97332"><ele>504.23877</ele><time>2026-06-19T01:55:51.000Z</time></trkpt>
        <trkpt lat="28.469871" lon="104.973308"><ele>504.12036</ele><time>2026-06-19T01:55:53.000Z</time></trkpt>
        <trkpt lat="28.469855" lon="104.973301"><ele>504.10098</ele><time>2026-06-19T01:55:55.000Z</time></trkpt>
        <trkpt lat="28.469834" lon="104.973296"><ele>504.07373</ele><time>2026-06-19T01:55:57.000Z</time></trkpt>
        <trkpt lat="28.469807" lon="104.973291"><ele>503.8863</ele><time>2026-06-19T01:55:59.000Z</time></trkpt>
        <trkpt lat="28.46978" lon="104.973285"><ele>503.54517</ele><time>2026-06-19T01:56:01.000Z</time></trkpt>
        <trkpt lat="28.46976" lon="104.973273"><ele>503.2069</ele><time>2026-06-19T01:56:03.000Z</time></trkpt>
        <trkpt lat="28.469745" lon="104.973261"><ele>502.88574</ele><time>2026-06-19T01:56:05.000Z</time></trkpt>
        <trkpt lat="28.46973" lon="104.973245"><ele>502.58585</ele><time>2026-06-19T01:56:07.000Z</time></trkpt>
        <trkpt lat="28.469726" lon="104.973232"><ele>502.23242</ele><time>2026-06-19T01:56:09.000Z</time></trkpt>
        <trkpt lat="28.46972" lon="104.973209"><ele>501.84106</ele><time>2026-06-19T01:56:11.000Z</time></trkpt>
        <trkpt lat="28.469715" lon="104.973187"><ele>501.46872</ele><time>2026-06-19T01:56:13.000Z</time></trkpt>
        <trkpt lat="28.469708" lon="104.973162"><ele>501.0794</ele><time>2026-06-19T01:56:15.000Z</time></trkpt>
        <trkpt lat="28.4697" lon="104.973135"><ele>500.71512</ele><time>2026-06-19T01:56:17.000Z</time></trkpt>
        <trkpt lat="28.469691" lon="104.973106"><ele>500.31</ele><time>2026-06-19T01:56:19.000Z</time></trkpt>
        <trkpt lat="28.469683" lon="104.973068"><ele>499.99908</ele><time>2026-06-19T01:56:21.000Z</time></trkpt>
        <trkpt lat="28.469679" lon="104.973029"><ele>499.883</ele><time>2026-06-19T01:56:23.000Z</time></trkpt>
        <trkpt lat="28.469673" lon="104.972992"><ele>499.883</ele><time>2026-06-19T01:56:25.000Z</time></trkpt>
        <trkpt lat="28.469664" lon="104.972963"><ele>499.883</ele><time>2026-06-19T01:56:27.000Z</time></trkpt>
        <trkpt lat="28.469656" lon="104.972941"><ele>499.883</ele><time>2026-06-19T01:56:29.000Z</time></trkpt>
        <trkpt lat="28.469647" lon="104.972921"><ele>499.883</ele><time>2026-06-19T01:56:31.000Z</time></trkpt>
        <trkpt lat="28.469638" lon="104.9729"><ele>499.89835</ele><time>2026-06-19T01:56:33.000Z</time></trkpt>
        <trkpt lat="28.469628" lon="104.97288"><ele>500.0358</ele><time>2026-06-19T01:56:35.000Z</time></trkpt>
        <trkpt lat="28.469616" lon="104.972855"><ele>500.24368</ele><time>2026-06-19T01:56:37.000Z</time></trkpt>
        <trkpt lat="28.469602" lon="104.972832"><ele>500.52957</ele><time>2026-06-19T01:56:39.000Z</time></trkpt>
        <trkpt lat="28.469584" lon="104.97281"><ele>500.82782</ele><time>2026-06-19T01:56:41.000Z</time></trkpt>
        <trkpt lat="28.469562" lon="104.972782"><ele>501.00565</ele><time>2026-06-19T01:56:43.000Z</time></trkpt>
        <trkpt lat="28.469543" lon="104.972755"><ele>501.04752</ele><time>2026-06-19T01:56:45.000Z</time></trkpt>
        <trkpt lat="28.469529" lon="104.97273"><ele>501.20602</ele><time>2026-06-19T01:56:47.000Z</time></trkpt>
        <trkpt lat="28.469516" lon="104.972703"><ele>501.38846</ele><time>2026-06-19T01:56:49.000Z</time></trkpt>
        <trkpt lat="28.469504" lon="104.972676"><ele>501.55267</ele><time>2026-06-19T01:56:51.000Z</time></trkpt>
        <trkpt lat="28.469492" lon="104.972652"><ele>501.6861</ele><time>2026-06-19T01:56:53.000Z</time></trkpt>
        <trkpt lat="28.469482" lon="104.972629"><ele>501.6861</ele><time>2026-06-19T01:56:55.000Z</time></trkpt>
        <trkpt lat="28.469475" lon="104.97261"><ele>501.6861</ele><time>2026-06-19T01:56:57.000Z</time></trkpt>
        <trkpt lat="28.469465" lon="104.972586"><ele>501.6861</ele><time>2026-06-19T01:56:59.000Z</time></trkpt>
        <trkpt lat="28.469453" lon="104.972566"><ele>501.6861</ele><time>2026-06-19T01:57:01.000Z</time></trkpt>
        <trkpt lat="28.469441" lon="104.972557"><ele>501.59808</ele><time>2026-06-19T01:57:03.000Z</time></trkpt>
        <trkpt lat="28.469425" lon="104.972546"><ele>501.40344</ele><time>2026-06-19T01:57:05.000Z</time></trkpt>
        <trkpt lat="28.469406" lon="104.972539"><ele>501.27176</ele><time>2026-06-19T01:57:07.000Z</time></trkpt>
        <trkpt lat="28.46939" lon="104.972538"><ele>501.00098</ele><time>2026-06-19T01:57:09.000Z</time></trkpt>
        <trkpt lat="28.469371" lon="104.972541"><ele>500.51706</ele><time>2026-06-19T01:57:11.000Z</time></trkpt>
        <trkpt lat="28.469352" lon="104.972545"><ele>500.15942</ele><time>2026-06-19T01:57:13.000Z</time></trkpt>
        <trkpt lat="28.469333" lon="104.972547"><ele>499.9011</ele><time>2026-06-19T01:57:15.000Z</time></trkpt>
        <trkpt lat="28.469312" lon="104.972549"><ele>499.55215</ele><time>2026-06-19T01:57:17.000Z</time></trkpt>
        <trkpt lat="28.469289" lon="104.972548"><ele>499.26144</ele><time>2026-06-19T01:57:19.000Z</time></trkpt>
        <trkpt lat="28.469261" lon="104.972544"><ele>499.14404</ele><time>2026-06-19T01:57:21.000Z</time></trkpt>
        <trkpt lat="28.469231" lon="104.972535"><ele>498.84137</ele><time>2026-06-19T01:57:23.000Z</time></trkpt>
        <trkpt lat="28.469205" lon="104.972521"><ele>498.29916</ele><time>2026-06-19T01:57:25.000Z</time></trkpt>
        <trkpt lat="28.469178" lon="104.972504"><ele>497.84006</ele><time>2026-06-19T01:57:27.000Z</time></trkpt>
        <trkpt lat="28.469158" lon="104.972485"><ele>497.5025</ele><time>2026-06-19T01:57:29.000Z</time></trkpt>
        <trkpt lat="28.46914" lon="104.972467"><ele>497.21967</ele><time>2026-06-19T01:57:31.000Z</time></trkpt>
        <trkpt lat="28.469123" lon="104.972451"><ele>496.9447</ele><time>2026-06-19T01:57:33.000Z</time></trkpt>
        <trkpt lat="28.469106" lon="104.972442"><ele>496.49503</ele><time>2026-06-19T01:57:35.000Z</time></trkpt>
        <trkpt lat="28.469087" lon="104.972435"><ele>495.94028</ele><time>2026-06-19T01:57:37.000Z</time></trkpt>
        <trkpt lat="28.469064" lon="104.972428"><ele>495.63165</ele><time>2026-06-19T01:57:39.000Z</time></trkpt>
        <trkpt lat="28.469044" lon="104.972421"><ele>495.46582</ele><time>2026-06-19T01:57:41.000Z</time></trkpt>
        <trkpt lat="28.469024" lon="104.972413"><ele>495.2606</ele><time>2026-06-19T01:57:43.000Z</time></trkpt>
        <trkpt lat="28.469004" lon="104.972403"><ele>495.00507</ele><time>2026-06-19T01:57:45.000Z</time></trkpt>
        <trkpt lat="28.468985" lon="104.97239"><ele>494.54358</ele><time>2026-06-19T01:57:47.000Z</time></trkpt>
        <trkpt lat="28.468968" lon="104.972381"><ele>494.16226</ele><time>2026-06-19T01:57:49.000Z</time></trkpt>
        <trkpt lat="28.468952" lon="104.972375"><ele>494.02203</ele><time>2026-06-19T01:57:51.000Z</time></trkpt>
        <trkpt lat="28.468933" lon="104.972367"><ele>493.77927</ele><time>2026-06-19T01:57:53.000Z</time></trkpt>
        <trkpt lat="28.468911" lon="104.972357"><ele>493.55682</ele><time>2026-06-19T01:57:55.000Z</time></trkpt>
        <trkpt lat="28.468886" lon="104.972348"><ele>493.38742</ele><time>2026-06-19T01:57:57.000Z</time></trkpt>
        <trkpt lat="28.468864" lon="104.972341"><ele>493.24323</ele><time>2026-06-19T01:57:59.000Z</time></trkpt>
        <trkpt lat="28.468844" lon="104.972334"><ele>493.21533</ele><time>2026-06-19T01:58:01.000Z</time></trkpt>
        <trkpt lat="28.468824" lon="104.972326"><ele>492.90195</ele><time>2026-06-19T01:58:03.000Z</time></trkpt>
        <trkpt lat="28.468804" lon="104.972316"><ele>492.59863</ele><time>2026-06-19T01:58:05.000Z</time></trkpt>
        <trkpt lat="28.468786" lon="104.972302"><ele>492.3839</ele><time>2026-06-19T01:58:07.000Z</time></trkpt>
        <trkpt lat="28.46877" lon="104.972285"><ele>491.97095</ele><time>2026-06-19T01:58:09.000Z</time></trkpt>
        <trkpt lat="28.468754" lon="104.972263"><ele>491.76205</ele><time>2026-06-19T01:58:11.000Z</time></trkpt>
        <trkpt lat="28.46874" lon="104.972243"><ele>491.6149</ele><time>2026-06-19T01:58:13.000Z</time></trkpt>
        <trkpt lat="28.468726" lon="104.972225"><ele>491.27716</ele><time>2026-06-19T01:58:15.000Z</time></trkpt>
        <trkpt lat="28.468711" lon="104.972211"><ele>491.01797</ele><time>2026-06-19T01:58:17.000Z</time></trkpt>
        <trkpt lat="28.468694" lon="104.972201"><ele>490.89725</ele><time>2026-06-19T01:58:19.000Z</time></trkpt>
        <trkpt lat="28.468672" lon="104.972188"><ele>490.68558</ele><time>2026-06-19T01:58:21.000Z</time></trkpt>
        <trkpt lat="28.468651" lon="104.972179"><ele>490.48605</ele><time>2026-06-19T01:58:23.000Z</time></trkpt>
        <trkpt lat="28.468624" lon="104.97217"><ele>490.2328</ele><time>2026-06-19T01:58:25.000Z</time></trkpt>
        <trkpt lat="28.4686" lon="104.972162"><ele>489.94754</ele><time>2026-06-19T01:58:27.000Z</time></trkpt>
        <trkpt lat="28.468578" lon="104.972158"><ele>489.6133</ele><time>2026-06-19T01:58:29.000Z</time></trkpt>
        <trkpt lat="28.468557" lon="104.972154"><ele>488.91577</ele><time>2026-06-19T01:58:31.000Z</time></trkpt>
        <trkpt lat="28.46854" lon="104.972149"><ele>488.21326</ele><time>2026-06-19T01:58:33.000Z</time></trkpt>
        <trkpt lat="28.468523" lon="104.972142"><ele>487.7095</ele><time>2026-06-19T01:58:35.000Z</time></trkpt>
        <trkpt lat="28.468505" lon="104.97213"><ele>487.28784</ele><time>2026-06-19T01:58:37.000Z</time></trkpt>
        <trkpt lat="28.468486" lon="104.972115"><ele>487.28784</ele><time>2026-06-19T01:58:39.000Z</time></trkpt>
        <trkpt lat="28.468464" lon="104.9721"><ele>487.23724</ele><time>2026-06-19T01:58:41.000Z</time></trkpt>
        <trkpt lat="28.468443" lon="104.972083"><ele>487.21243</ele><time>2026-06-19T01:58:43.000Z</time></trkpt>
        <trkpt lat="28.468426" lon="104.972067"><ele>487.21243</ele><time>2026-06-19T01:58:45.000Z</time></trkpt>
        <trkpt lat="28.468412" lon="104.972052"><ele>487.21243</ele><time>2026-06-19T01:58:47.000Z</time></trkpt>
        <trkpt lat="28.468398" lon="104.972038"><ele>487.34225</ele><time>2026-06-19T01:58:49.000Z</time></trkpt>
        <trkpt lat="28.468382" lon="104.972026"><ele>487.34225</ele><time>2026-06-19T01:58:51.000Z</time></trkpt>
        <trkpt lat="28.468364" lon="104.972015"><ele>487.34225</ele><time>2026-06-19T01:58:53.000Z</time></trkpt>
        <trkpt lat="28.468348" lon="104.972002"><ele>487.34225</ele><time>2026-06-19T01:58:55.000Z</time></trkpt>
        <trkpt lat="28.468334" lon="104.971985"><ele>487.34225</ele><time>2026-06-19T01:58:57.000Z</time></trkpt>
        <trkpt lat="28.468325" lon="104.971964"><ele>487.30185</ele><time>2026-06-19T01:58:59.000Z</time></trkpt>
        <trkpt lat="28.468315" lon="104.971937"><ele>487.2317</ele><time>2026-06-19T01:59:01.000Z</time></trkpt>
        <trkpt lat="28.468307" lon="104.971913"><ele>487.03326</ele><time>2026-06-19T01:59:03.000Z</time></trkpt>
        <trkpt lat="28.468301" lon="104.971889"><ele>486.52524</ele><time>2026-06-19T01:59:05.000Z</time></trkpt>
        <trkpt lat="28.468293" lon="104.971865"><ele>485.88132</ele><time>2026-06-19T01:59:07.000Z</time></trkpt>
        <trkpt lat="28.468283" lon="104.971842"><ele>485.39557</ele><time>2026-06-19T01:59:09.000Z</time></trkpt>
        <trkpt lat="28.46827" lon="104.971821"><ele>485.23065</ele><time>2026-06-19T01:59:11.000Z</time></trkpt>
        <trkpt lat="28.468255" lon="104.971797"><ele>485.22095</ele><time>2026-06-19T01:59:13.000Z</time></trkpt>
        <trkpt lat="28.468244" lon="104.971773"><ele>485.22095</ele><time>2026-06-19T01:59:15.000Z</time></trkpt>
        <trkpt lat="28.468235" lon="104.971749"><ele>485.22095</ele><time>2026-06-19T01:59:17.000Z</time></trkpt>
        <trkpt lat="28.468224" lon="104.971721"><ele>485.22095</ele><time>2026-06-19T01:59:19.000Z</time></trkpt>
        <trkpt lat="28.468212" lon="104.971698"><ele>485.2621</ele><time>2026-06-19T01:59:21.000Z</time></trkpt>
        <trkpt lat="28.468197" lon="104.97167"><ele>485.36526</ele><time>2026-06-19T01:59:23.000Z</time></trkpt>
        <trkpt lat="28.46818" lon="104.971641"><ele>485.71094</ele><time>2026-06-19T01:59:25.000Z</time></trkpt>
        <trkpt lat="28.468171" lon="104.971613"><ele>486.14417</ele><time>2026-06-19T01:59:27.000Z</time></trkpt>
        <trkpt lat="28.468168" lon="104.971586"><ele>486.3988</ele><time>2026-06-19T01:59:29.000Z</time></trkpt>
        <trkpt lat="28.468166" lon="104.971555"><ele>486.49716</ele><time>2026-06-19T01:59:31.000Z</time></trkpt>
        <trkpt lat="28.468165" lon="104.971528"><ele>486.5924</ele><time>2026-06-19T01:59:33.000Z</time></trkpt>
        <trkpt lat="28.468164" lon="104.971498"><ele>486.60358</ele><time>2026-06-19T01:59:35.000Z</time></trkpt>
        <trkpt lat="28.468164" lon="104.971472"><ele>486.76376</ele><time>2026-06-19T01:59:37.000Z</time></trkpt>
        <trkpt lat="28.468162" lon="104.971447"><ele>486.81586</ele><time>2026-06-19T01:59:39.000Z</time></trkpt>
        <trkpt lat="28.468158" lon="104.97142"><ele>486.81586</ele><time>2026-06-19T01:59:41.000Z</time></trkpt>
        <trkpt lat="28.468154" lon="104.971388"><ele>486.715</ele><time>2026-06-19T01:59:43.000Z</time></trkpt>
        <trkpt lat="28.468152" lon="104.971353"><ele>486.63242</ele><time>2026-06-19T01:59:45.000Z</time></trkpt>
        <trkpt lat="28.468151" lon="104.971327"><ele>486.58054</ele><time>2026-06-19T01:59:47.000Z</time></trkpt>
        <trkpt lat="28.468147" lon="104.971297"><ele>486.58054</ele><time>2026-06-19T01:59:49.000Z</time></trkpt>
        <trkpt lat="28.468138" lon="104.971271"><ele>486.5517</ele><time>2026-06-19T01:59:51.000Z</time></trkpt>
        <trkpt lat="28.468124" lon="104.971242"><ele>486.5077</ele><time>2026-06-19T01:59:53.000Z</time></trkpt>
        <trkpt lat="28.468117" lon="104.971219"><ele>486.25967</ele><time>2026-06-19T01:59:55.000Z</time></trkpt>
        <trkpt lat="28.468115" lon="104.971199"><ele>485.94846</ele><time>2026-06-19T01:59:57.000Z</time></trkpt>
        <trkpt lat="28.468116" lon="104.971184"><ele>485.5339</ele><time>2026-06-19T01:59:59.000Z</time></trkpt>
        <trkpt lat="28.468119" lon="104.971167"><ele>484.96384</ele><time>2026-06-19T02:00:01.000Z</time></trkpt>
        <trkpt lat="28.468124" lon="104.971146"><ele>484.38367</ele><time>2026-06-19T02:00:03.000Z</time></trkpt>
        <trkpt lat="28.468129" lon="104.971124"><ele>483.63647</ele><time>2026-06-19T02:00:05.000Z</time></trkpt>
        <trkpt lat="28.468134" lon="104.9711"><ele>482.82294</ele><time>2026-06-19T02:00:07.000Z</time></trkpt>
        <trkpt lat="28.468138" lon="104.971076"><ele>482.20975</ele><time>2026-06-19T02:00:09.000Z</time></trkpt>
        <trkpt lat="28.468139" lon="104.971052"><ele>481.6329</ele><time>2026-06-19T02:00:11.000Z</time></trkpt>
        <trkpt lat="28.468137" lon="104.971027"><ele>481.12958</ele><time>2026-06-19T02:00:13.000Z</time></trkpt>
        <trkpt lat="28.468129" lon="104.971"><ele>481.01086</ele><time>2026-06-19T02:00:15.000Z</time></trkpt>
        <trkpt lat="28.468119" lon="104.970973"><ele>481.01086</ele><time>2026-06-19T02:00:17.000Z</time></trkpt>
        <trkpt lat="28.468108" lon="104.970949"><ele>480.9592</ele><time>2026-06-19T02:00:19.000Z</time></trkpt>
        <trkpt lat="28.4681" lon="104.970922"><ele>480.87936</ele><time>2026-06-19T02:00:21.000Z</time></trkpt>
        <trkpt lat="28.468099" lon="104.970896"><ele>480.81708</ele><time>2026-06-19T02:00:23.000Z</time></trkpt>
        <trkpt lat="28.468101" lon="104.970872"><ele>480.79648</ele><time>2026-06-19T02:00:25.000Z</time></trkpt>
        <trkpt lat="28.468102" lon="104.970848"><ele>480.78836</ele><time>2026-06-19T02:00:27.000Z</time></trkpt>
        <trkpt lat="28.468099" lon="104.970823"><ele>480.3982</ele><time>2026-06-19T02:00:29.000Z</time></trkpt>
        <trkpt lat="28.468095" lon="104.9708"><ele>479.9106</ele><time>2026-06-19T02:00:31.000Z</time></trkpt>
        <trkpt lat="28.468092" lon="104.970776"><ele>479.65805</ele><time>2026-06-19T02:00:33.000Z</time></trkpt>
        <trkpt lat="28.468087" lon="104.970756"><ele>479.42868</ele><time>2026-06-19T02:00:35.000Z</time></trkpt>
        <trkpt lat="28.468082" lon="104.970738"><ele>479.30832</ele><time>2026-06-19T02:00:37.000Z</time></trkpt>
        <trkpt lat="28.468075" lon="104.97072"><ele>479.28592</ele><time>2026-06-19T02:00:39.000Z</time></trkpt>
        <trkpt lat="28.468067" lon="104.970696"><ele>479.10764</ele><time>2026-06-19T02:00:41.000Z</time></trkpt>
        <trkpt lat="28.468063" lon="104.970668"><ele>478.79007</ele><time>2026-06-19T02:00:43.000Z</time></trkpt>
        <trkpt lat="28.468057" lon="104.970638"><ele>478.63773</ele><time>2026-06-19T02:00:45.000Z</time></trkpt>
        <trkpt lat="28.468051" lon="104.970607"><ele>478.35587</ele><time>2026-06-19T02:00:47.000Z</time></trkpt>
        <trkpt lat="28.468045" lon="104.970576"><ele>477.82074</ele><time>2026-06-19T02:00:49.000Z</time></trkpt>
        <trkpt lat="28.468038" lon="104.97055"><ele>477.31064</ele><time>2026-06-19T02:00:51.000Z</time></trkpt>
        <trkpt lat="28.46803" lon="104.97052"><ele>476.9732</ele><time>2026-06-19T02:00:53.000Z</time></trkpt>
        <trkpt lat="28.468021" lon="104.970496"><ele>476.87048</ele><time>2026-06-19T02:00:55.000Z</time></trkpt>
        <trkpt lat="28.468013" lon="104.970468"><ele>476.8542</ele><time>2026-06-19T02:00:57.000Z</time></trkpt>
        <trkpt lat="28.468007" lon="104.970441"><ele>476.81717</ele><time>2026-06-19T02:00:59.000Z</time></trkpt>
        <trkpt lat="28.468004" lon="104.970412"><ele>476.77087</ele><time>2026-06-19T02:01:01.000Z</time></trkpt>
        <trkpt lat="28.468005" lon="104.970384"><ele>476.6596</ele><time>2026-06-19T02:01:03.000Z</time></trkpt>
        <trkpt lat="28.468009" lon="104.97035"><ele>476.55774</ele><time>2026-06-19T02:01:05.000Z</time></trkpt>
        <trkpt lat="28.468015" lon="104.970315"><ele>476.5538</ele><time>2026-06-19T02:01:07.000Z</time></trkpt>
        <trkpt lat="28.468022" lon="104.970283"><ele>476.4782</ele><time>2026-06-19T02:01:09.000Z</time></trkpt>
        <trkpt lat="28.468026" lon="104.970255"><ele>476.38025</ele><time>2026-06-19T02:01:11.000Z</time></trkpt>
        <trkpt lat="28.468029" lon="104.970223"><ele>476.29977</ele><time>2026-06-19T02:01:13.000Z</time></trkpt>
        <trkpt lat="28.46803" lon="104.970191"><ele>476.1982</ele><time>2026-06-19T02:01:15.000Z</time></trkpt>
        <trkpt lat="28.468032" lon="104.970169"><ele>476.10324</ele><time>2026-06-19T02:01:17.000Z</time></trkpt>
        <trkpt lat="28.468029" lon="104.970148"><ele>476.02676</ele><time>2026-06-19T02:01:19.000Z</time></trkpt>
        <trkpt lat="28.468026" lon="104.970136"><ele>475.96356</ele><time>2026-06-19T02:01:21.000Z</time></trkpt>
        <trkpt lat="28.468024" lon="104.970124"><ele>475.90915</ele><time>2026-06-19T02:01:23.000Z</time></trkpt>
        <trkpt lat="28.468023" lon="104.970102"><ele>475.79987</ele><time>2026-06-19T02:01:25.000Z</time></trkpt>
        <trkpt lat="28.468026" lon="104.970077"><ele>475.65656</ele><time>2026-06-19T02:01:27.000Z</time></trkpt>
        <trkpt lat="28.46803" lon="104.970049"><ele>475.5883</ele><time>2026-06-19T02:01:29.000Z</time></trkpt>
        <trkpt lat="28.468036" lon="104.970018"><ele>475.27603</ele><time>2026-06-19T02:01:31.000Z</time></trkpt>
        <trkpt lat="28.46804" lon="104.969997"><ele>474.71936</ele><time>2026-06-19T02:01:33.000Z</time></trkpt>
        <trkpt lat="28.468046" lon="104.969964"><ele>474.46768</ele><time>2026-06-19T02:01:35.000Z</time></trkpt>
        <trkpt lat="28.468046" lon="104.969925"><ele>474.38596</ele><time>2026-06-19T02:01:37.000Z</time></trkpt>
        <trkpt lat="28.468044" lon="104.969886"><ele>474.03198</ele><time>2026-06-19T02:01:39.000Z</time></trkpt>
        <trkpt lat="28.46804" lon="104.969847"><ele>473.48572</ele><time>2026-06-19T02:01:41.000Z</time></trkpt>
        <trkpt lat="28.468035" lon="104.96981"><ele>473.08206</ele><time>2026-06-19T02:01:43.000Z</time></trkpt>
        <trkpt lat="28.468033" lon="104.969778"><ele>472.91867</ele><time>2026-06-19T02:01:45.000Z</time></trkpt>
        <trkpt lat="28.468035" lon="104.969751"><ele>472.8902</ele><time>2026-06-19T02:01:47.000Z</time></trkpt>
        <trkpt lat="28.468036" lon="104.969722"><ele>472.86737</ele><time>2026-06-19T02:01:49.000Z</time></trkpt>
        <trkpt lat="28.468034" lon="104.969697"><ele>472.86737</ele><time>2026-06-19T02:01:51.000Z</time></trkpt>
        <trkpt lat="28.46803" lon="104.969678"><ele>472.86737</ele><time>2026-06-19T02:01:53.000Z</time></trkpt>
        <trkpt lat="28.468026" lon="104.96966"><ele>472.78436</ele><time>2026-06-19T02:01:55.000Z</time></trkpt>
        <trkpt lat="28.468024" lon="104.969635"><ele>472.6831</ele><time>2026-06-19T02:01:57.000Z</time></trkpt>
        <trkpt lat="28.468026" lon="104.969608"><ele>472.58612</ele><time>2026-06-19T02:01:59.000Z</time></trkpt>
        <trkpt lat="28.468033" lon="104.969575"><ele>472.47678</ele><time>2026-06-19T02:02:01.000Z</time></trkpt>
        <trkpt lat="28.468041" lon="104.96954"><ele>472.4112</ele><time>2026-06-19T02:02:03.000Z</time></trkpt>
        <trkpt lat="28.468045" lon="104.969512"><ele>472.395</ele><time>2026-06-19T02:02:05.000Z</time></trkpt>
        <trkpt lat="28.468046" lon="104.969489"><ele>472.34625</ele><time>2026-06-19T02:02:07.000Z</time></trkpt>
        <trkpt lat="28.468046" lon="104.969451"><ele>472.24927</ele><time>2026-06-19T02:02:09.000Z</time></trkpt>
        <trkpt lat="28.468038" lon="104.969427"><ele>472.23782</ele><time>2026-06-19T02:02:11.000Z</time></trkpt>
        <trkpt lat="28.46803" lon="104.969415"><ele>472.213</ele><time>2026-06-19T02:02:13.000Z</time></trkpt>
        <trkpt lat="28.46802" lon="104.969399"><ele>472.11893</ele><time>2026-06-19T02:02:15.000Z</time></trkpt>
        <trkpt lat="28.468004" lon="104.969367"><ele>472.00757</ele><time>2026-06-19T02:02:17.000Z</time></trkpt>
        <trkpt lat="28.467997" lon="104.969341"><ele>471.89792</ele><time>2026-06-19T02:02:19.000Z</time></trkpt>
        <trkpt lat="28.467999" lon="104.969312"><ele>471.5447</ele><time>2026-06-19T02:02:21.000Z</time></trkpt>
        <trkpt lat="28.468007" lon="104.969278"><ele>470.97134</ele><time>2026-06-19T02:02:23.000Z</time></trkpt>
        <trkpt lat="28.468021" lon="104.969244"><ele>470.43643</ele><time>2026-06-19T02:02:25.000Z</time></trkpt>
        <trkpt lat="28.468032" lon="104.969207"><ele>470.15744</ele><time>2026-06-19T02:02:27.000Z</time></trkpt>
        <trkpt lat="28.468033" lon="104.96918"><ele>470.0661</ele><time>2026-06-19T02:02:29.000Z</time></trkpt>
        <trkpt lat="28.468035" lon="104.96916"><ele>469.9899</ele><time>2026-06-19T02:02:31.000Z</time></trkpt>
        <trkpt lat="28.468035" lon="104.969137"><ele>469.80133</ele><time>2026-06-19T02:02:33.000Z</time></trkpt>
        <trkpt lat="28.468025" lon="104.969124"><ele>469.56555</ele><time>2026-06-19T02:02:35.000Z</time></trkpt>
        <trkpt lat="28.468015" lon="104.969097"><ele>469.37405</ele><time>2026-06-19T02:02:37.000Z</time></trkpt>
        <trkpt lat="28.468013" lon="104.969078"><ele>469.23273</ele><time>2026-06-19T02:02:39.000Z</time></trkpt>
        <trkpt lat="28.468012" lon="104.969052"><ele>469.10016</ele><time>2026-06-19T02:02:41.000Z</time></trkpt>
        <trkpt lat="28.468014" lon="104.969028"><ele>468.88828</ele><time>2026-06-19T02:02:43.000Z</time></trkpt>
        <trkpt lat="28.468016" lon="104.968999"><ele>468.69757</ele><time>2026-06-19T02:02:45.000Z</time></trkpt>
        <trkpt lat="28.468021" lon="104.96897"><ele>468.59747</ele><time>2026-06-19T02:02:47.000Z</time></trkpt>
        <trkpt lat="28.468027" lon="104.968942"><ele>468.48077</ele><time>2026-06-19T02:02:49.000Z</time></trkpt>
        <trkpt lat="28.468033" lon="104.968913"><ele>468.21872</ele><time>2026-06-19T02:02:51.000Z</time></trkpt>
        <trkpt lat="28.468037" lon="104.968885"><ele>467.8763</ele><time>2026-06-19T02:02:53.000Z</time></trkpt>
        <trkpt lat="28.468041" lon="104.96886"><ele>467.60123</ele><time>2026-06-19T02:02:55.000Z</time></trkpt>
        <trkpt lat="28.468045" lon="104.968836"><ele>467.47455</ele><time>2026-06-19T02:02:57.000Z</time></trkpt>
        <trkpt lat="28.468048" lon="104.968812"><ele>467.24677</ele><time>2026-06-19T02:02:59.000Z</time></trkpt>
        <trkpt lat="28.468051" lon="104.968787"><ele>466.73538</ele><time>2026-06-19T02:03:01.000Z</time></trkpt>
        <trkpt lat="28.468054" lon="104.968764"><ele>466.12827</ele><time>2026-06-19T02:03:03.000Z</time></trkpt>
        <trkpt lat="28.468055" lon="104.968741"><ele>465.7389</ele><time>2026-06-19T02:03:05.000Z</time></trkpt>
        <trkpt lat="28.468059" lon="104.968716"><ele>465.52298</ele><time>2026-06-19T02:03:07.000Z</time></trkpt>
        <trkpt lat="28.468061" lon="104.968692"><ele>465.22583</ele><time>2026-06-19T02:03:09.000Z</time></trkpt>
        <trkpt lat="28.468062" lon="104.968668"><ele>464.8581</ele><time>2026-06-19T02:03:11.000Z</time></trkpt>
        <trkpt lat="28.468065" lon="104.968641"><ele>464.67056</ele><time>2026-06-19T02:03:13.000Z</time></trkpt>
        <trkpt lat="28.468068" lon="104.968612"><ele>464.57526</ele><time>2026-06-19T02:03:15.000Z</time></trkpt>
        <trkpt lat="28.468069" lon="104.968581"><ele>464.42914</ele><time>2026-06-19T02:03:17.000Z</time></trkpt>
        <trkpt lat="28.468069" lon="104.968553"><ele>464.36206</ele><time>2026-06-19T02:03:19.000Z</time></trkpt>
        <trkpt lat="28.46807" lon="104.968521"><ele>464.23926</ele><time>2026-06-19T02:03:21.000Z</time></trkpt>
        <trkpt lat="28.468067" lon="104.968495"><ele>463.7724</ele><time>2026-06-19T02:03:23.000Z</time></trkpt>
        <trkpt lat="28.46806" lon="104.968464"><ele>463.3192</ele><time>2026-06-19T02:03:25.000Z</time></trkpt>
        <trkpt lat="28.468054" lon="104.968436"><ele>463.15613</ele><time>2026-06-19T02:03:27.000Z</time></trkpt>
        <trkpt lat="28.468049" lon="104.968403"><ele>463.03787</ele><time>2026-06-19T02:03:29.000Z</time></trkpt>
        <trkpt lat="28.468048" lon="104.968374"><ele>462.91653</ele><time>2026-06-19T02:03:31.000Z</time></trkpt>
        <trkpt lat="28.46805" lon="104.968341"><ele>462.91653</ele><time>2026-06-19T02:03:33.000Z</time></trkpt>
        <trkpt lat="28.468054" lon="104.968307"><ele>462.91653</ele><time>2026-06-19T02:03:35.000Z</time></trkpt>
        <trkpt lat="28.468053" lon="104.968281"><ele>462.91653</ele><time>2026-06-19T02:03:37.000Z</time></trkpt>
        <trkpt lat="28.468052" lon="104.968261"><ele>463.03787</ele><time>2026-06-19T02:03:39.000Z</time></trkpt>
        <trkpt lat="28.46805" lon="104.968238"><ele>463.11218</ele><time>2026-06-19T02:03:41.000Z</time></trkpt>
        <trkpt lat="28.468051" lon="104.968215"><ele>463.18085</ele><time>2026-06-19T02:03:43.000Z</time></trkpt>
        <trkpt lat="28.468055" lon="104.968194"><ele>463.18085</ele><time>2026-06-19T02:03:45.000Z</time></trkpt>
        <trkpt lat="28.468062" lon="104.968163"><ele>463.18085</ele><time>2026-06-19T02:03:47.000Z</time></trkpt>
        <trkpt lat="28.468069" lon="104.968132"><ele>463.18085</ele><time>2026-06-19T02:03:49.000Z</time></trkpt>
        <trkpt lat="28.468078" lon="104.9681"><ele>463.18085</ele><time>2026-06-19T02:03:51.000Z</time></trkpt>
        <trkpt lat="28.468088" lon="104.968075"><ele>463.18085</ele><time>2026-06-19T02:03:53.000Z</time></trkpt>
        <trkpt lat="28.468097" lon="104.968041"><ele>463.18945</ele><time>2026-06-19T02:03:55.000Z</time></trkpt>
        <trkpt lat="28.468097" lon="104.968016"><ele>463.30185</ele><time>2026-06-19T02:03:57.000Z</time></trkpt>
        <trkpt lat="28.468093" lon="104.967995"><ele>463.30185</ele><time>2026-06-19T02:03:59.000Z</time></trkpt>
        <trkpt lat="28.468086" lon="104.967968"><ele>463.32248</ele><time>2026-06-19T02:04:01.000Z</time></trkpt>
        <trkpt lat="28.468074" lon="104.967944"><ele>463.66083</ele><time>2026-06-19T02:04:03.000Z</time></trkpt>
        <trkpt lat="28.468062" lon="104.967918"><ele>464.26886</ele><time>2026-06-19T02:04:05.000Z</time></trkpt>
        <trkpt lat="28.468054" lon="104.967895"><ele>464.446</ele><time>2026-06-19T02:04:07.000Z</time></trkpt>
        <trkpt lat="28.468044" lon="104.96787"><ele>464.446</ele><time>2026-06-19T02:04:09.000Z</time></trkpt>
        <trkpt lat="28.468038" lon="104.967854"><ele>464.446</ele><time>2026-06-19T02:04:11.000Z</time></trkpt>
        <trkpt lat="28.468037" lon="104.967828"><ele>464.446</ele><time>2026-06-19T02:04:13.000Z</time></trkpt>
        <trkpt lat="28.468041" lon="104.967802"><ele>464.446</ele><time>2026-06-19T02:04:15.000Z</time></trkpt>
        <trkpt lat="28.468045" lon="104.967776"><ele>463.8992</ele><time>2026-06-19T02:04:17.000Z</time></trkpt>
        <trkpt lat="28.468049" lon="104.967746"><ele>463.2015</ele><time>2026-06-19T02:04:19.000Z</time></trkpt>
        <trkpt lat="28.468053" lon="104.967714"><ele>462.75256</ele><time>2026-06-19T02:04:21.000Z</time></trkpt>
        <trkpt lat="28.468055" lon="104.967684"><ele>462.5605</ele><time>2026-06-19T02:04:23.000Z</time></trkpt>
        <trkpt lat="28.468056" lon="104.967655"><ele>462.42764</ele><time>2026-06-19T02:04:25.000Z</time></trkpt>
        <trkpt lat="28.468059" lon="104.967627"><ele>462.25537</ele><time>2026-06-19T02:04:27.000Z</time></trkpt>
        <trkpt lat="28.468064" lon="104.967611"><ele>462.14764</ele><time>2026-06-19T02:04:29.000Z</time></trkpt>
        <trkpt lat="28.468072" lon="104.967599"><ele>462.09708</ele><time>2026-06-19T02:04:31.000Z</time></trkpt>
        <trkpt lat="28.468083" lon="104.967575"><ele>462.00278</ele><time>2026-06-19T02:04:33.000Z</time></trkpt>
        <trkpt lat="28.468088" lon="104.967556"><ele>462.00278</ele><time>2026-06-19T02:04:35.000Z</time></trkpt>
        <trkpt lat="28.468091" lon="104.967537"><ele>462.00278</ele><time>2026-06-19T02:04:37.000Z</time></trkpt>
        <trkpt lat="28.468094" lon="104.967511"><ele>462.06107</ele><time>2026-06-19T02:04:39.000Z</time></trkpt>
        <trkpt lat="28.468093" lon="104.967482"><ele>462.0418</ele><time>2026-06-19T02:04:41.000Z</time></trkpt>
        <trkpt lat="28.468086" lon="104.967459"><ele>462.0418</ele><time>2026-06-19T02:04:43.000Z</time></trkpt>
        <trkpt lat="28.468077" lon="104.967439"><ele>461.9804</ele><time>2026-06-19T02:04:45.000Z</time></trkpt>
        <trkpt lat="28.468068" lon="104.967417"><ele>461.9804</ele><time>2026-06-19T02:04:47.000Z</time></trkpt>
        <trkpt lat="28.468058" lon="104.967387"><ele>461.9804</ele><time>2026-06-19T02:04:49.000Z</time></trkpt>
        <trkpt lat="28.46805" lon="104.967348"><ele>461.9804</ele><time>2026-06-19T02:04:51.000Z</time></trkpt>
        <trkpt lat="28.468046" lon="104.96732"><ele>461.9804</ele><time>2026-06-19T02:04:53.000Z</time></trkpt>
        <trkpt lat="28.468048" lon="104.967301"><ele>461.67093</ele><time>2026-06-19T02:04:55.000Z</time></trkpt>
        <trkpt lat="28.468052" lon="104.967273"><ele>461.29315</ele><time>2026-06-19T02:04:57.000Z</time></trkpt>
        <trkpt lat="28.46806" lon="104.967247"><ele>461.09338</ele><time>2026-06-19T02:04:59.000Z</time></trkpt>
        <trkpt lat="28.468069" lon="104.967221"><ele>460.8767</ele><time>2026-06-19T02:05:01.000Z</time></trkpt>
        <trkpt lat="28.468078" lon="104.967196"><ele>460.86313</ele><time>2026-06-19T02:05:03.000Z</time></trkpt>
        <trkpt lat="28.468081" lon="104.967176"><ele>460.86313</ele><time>2026-06-19T02:05:05.000Z</time></trkpt>
        <trkpt lat="28.468085" lon="104.967163"><ele>460.86313</ele><time>2026-06-19T02:05:07.000Z</time></trkpt>
        <trkpt lat="28.468095" lon="104.967153"><ele>460.86313</ele><time>2026-06-19T02:05:31.000Z</time></trkpt>
        <trkpt lat="28.468097" lon="104.967154"><ele>460.86313</ele><time>2026-06-19T02:05:37.000Z</time></trkpt>
        <trkpt lat="28.468051" lon="104.96711"><ele>460.8951</ele><time>2026-06-19T02:06:07.000Z</time></trkpt>
        <trkpt lat="28.468051" lon="104.96711"><ele>460.89563</ele><time>2026-06-19T02:06:09.000Z</time></trkpt>
        <trkpt lat="28.468051" lon="104.967108"><ele>460.89563</ele><time>2026-06-19T02:06:11.000Z</time></trkpt>
        <trkpt lat="28.468045" lon="104.967027"><ele>460.89563</ele><time>2026-06-19T02:06:22.000Z</time></trkpt>
        <trkpt lat="28.468045" lon="104.967001"><ele>460.89563</ele><time>2026-06-19T02:06:24.000Z</time></trkpt>
        <trkpt lat="28.468044" lon="104.966972"><ele>460.81644</ele><time>2026-06-19T02:06:26.000Z</time></trkpt>
        <trkpt lat="28.468043" lon="104.966938"><ele>460.77625</ele><time>2026-06-19T02:06:28.000Z</time></trkpt>
        <trkpt lat="28.46804" lon="104.966907"><ele>460.16638</ele><time>2026-06-19T02:06:30.000Z</time></trkpt>
        <trkpt lat="28.468036" lon="104.966879"><ele>459.56747</ele><time>2026-06-19T02:06:32.000Z</time></trkpt>
        <trkpt lat="28.468034" lon="104.966851"><ele>459.5244</ele><time>2026-06-19T02:06:34.000Z</time></trkpt>
        <trkpt lat="28.468029" lon="104.966825"><ele>459.5244</ele><time>2026-06-19T02:06:36.000Z</time></trkpt>
        <trkpt lat="28.468023" lon="104.966799"><ele>459.5244</ele><time>2026-06-19T02:06:38.000Z</time></trkpt>
        <trkpt lat="28.468014" lon="104.966781"><ele>459.4911</ele><time>2026-06-19T02:06:40.000Z</time></trkpt>
        <trkpt lat="28.468005" lon="104.966765"><ele>459.46088</ele><time>2026-06-19T02:06:42.000Z</time></trkpt>
        <trkpt lat="28.467993" lon="104.966751"><ele>459.44788</ele><time>2026-06-19T02:06:44.000Z</time></trkpt>
        <trkpt lat="28.467979" lon="104.966735"><ele>459.43256</ele><time>2026-06-19T02:06:46.000Z</time></trkpt>
        <trkpt lat="28.467964" lon="104.966722"><ele>459.36685</ele><time>2026-06-19T02:06:48.000Z</time></trkpt>
        <trkpt lat="28.467954" lon="104.966711"><ele>459.0737</ele><time>2026-06-19T02:06:50.000Z</time></trkpt>
        <trkpt lat="28.467936" lon="104.966693"><ele>458.64417</ele><time>2026-06-19T02:06:54.000Z</time></trkpt>
        <trkpt lat="28.467929" lon="104.966683"><ele>458.18515</ele><time>2026-06-19T02:06:56.000Z</time></trkpt>
        <trkpt lat="28.467925" lon="104.966669"><ele>457.59863</ele><time>2026-06-19T02:06:58.000Z</time></trkpt>
        <trkpt lat="28.467911" lon="104.966627"><ele>456.8613</ele><time>2026-06-19T02:07:02.000Z</time></trkpt>
        <trkpt lat="28.467903" lon="104.966601"><ele>455.71146</ele><time>2026-06-19T02:07:04.000Z</time></trkpt>
        <trkpt lat="28.467894" lon="104.966564"><ele>454.70163</ele><time>2026-06-19T02:07:06.000Z</time></trkpt>
        <trkpt lat="28.467888" lon="104.966529"><ele>454.2578</ele><time>2026-06-19T02:07:08.000Z</time></trkpt>
        <trkpt lat="28.46789" lon="104.966498"><ele>453.61237</ele><time>2026-06-19T02:07:10.000Z</time></trkpt>
        <trkpt lat="28.467895" lon="104.96646"><ele>452.86972</ele><time>2026-06-19T02:07:12.000Z</time></trkpt>
        <trkpt lat="28.467897" lon="104.966422"><ele>452.33682</ele><time>2026-06-19T02:07:14.000Z</time></trkpt>
        <trkpt lat="28.467896" lon="104.966386"><ele>452.1403</ele><time>2026-06-19T02:07:16.000Z</time></trkpt>
        <trkpt lat="28.467894" lon="104.966356"><ele>452.1403</ele><time>2026-06-19T02:07:18.000Z</time></trkpt>
        <trkpt lat="28.467893" lon="104.966327"><ele>452.1403</ele><time>2026-06-19T02:07:20.000Z</time></trkpt>
        <trkpt lat="28.467891" lon="104.966299"><ele>452.1403</ele><time>2026-06-19T02:07:22.000Z</time></trkpt>
        <trkpt lat="28.467885" lon="104.966273"><ele>452.1403</ele><time>2026-06-19T02:07:24.000Z</time></trkpt>
        <trkpt lat="28.467876" lon="104.96625"><ele>452.47144</ele><time>2026-06-19T02:07:26.000Z</time></trkpt>
        <trkpt lat="28.467866" lon="104.966225"><ele>452.76508</ele><time>2026-06-19T02:07:28.000Z</time></trkpt>
        <trkpt lat="28.467859" lon="104.966201"><ele>452.8061</ele><time>2026-06-19T02:07:30.000Z</time></trkpt>
        <trkpt lat="28.467858" lon="104.966182"><ele>452.8061</ele><time>2026-06-19T02:07:32.000Z</time></trkpt>
        <trkpt lat="28.467856" lon="104.966162"><ele>452.8061</ele><time>2026-06-19T02:07:34.000Z</time></trkpt>
        <trkpt lat="28.467857" lon="104.966144"><ele>452.8061</ele><time>2026-06-19T02:07:36.000Z</time></trkpt>
        <trkpt lat="28.467855" lon="104.966112"><ele>452.76508</ele><time>2026-06-19T02:07:40.000Z</time></trkpt>
        <trkpt lat="28.467853" lon="104.966088"><ele>452.5488</ele><time>2026-06-19T02:07:42.000Z</time></trkpt>
        <trkpt lat="28.46785" lon="104.966064"><ele>452.11667</ele><time>2026-06-19T02:07:44.000Z</time></trkpt>
        <trkpt lat="28.467847" lon="104.966036"><ele>451.85175</ele><time>2026-06-19T02:07:46.000Z</time></trkpt>
        <trkpt lat="28.467843" lon="104.966009"><ele>451.79788</ele><time>2026-06-19T02:07:48.000Z</time></trkpt>
        <trkpt lat="28.467839" lon="104.965981"><ele>451.67996</ele><time>2026-06-19T02:07:50.000Z</time></trkpt>
        <trkpt lat="28.467833" lon="104.96595"><ele>451.59357</ele><time>2026-06-19T02:07:52.000Z</time></trkpt>
        <trkpt lat="28.467828" lon="104.96592"><ele>451.31506</ele><time>2026-06-19T02:07:54.000Z</time></trkpt>
        <trkpt lat="28.467822" lon="104.965893"><ele>451.03848</ele><time>2026-06-19T02:07:56.000Z</time></trkpt>
        <trkpt lat="28.467818" lon="104.965866"><ele>450.94644</ele><time>2026-06-19T02:07:58.000Z</time></trkpt>
        <trkpt lat="28.467818" lon="104.965844"><ele>450.7128</ele><time>2026-06-19T02:08:00.000Z</time></trkpt>
        <trkpt lat="28.46782" lon="104.965821"><ele>450.53122</ele><time>2026-06-19T02:08:02.000Z</time></trkpt>
        <trkpt lat="28.467824" lon="104.965797"><ele>450.41083</ele><time>2026-06-19T02:08:04.000Z</time></trkpt>
        <trkpt lat="28.467829" lon="104.965772"><ele>450.35425</ele><time>2026-06-19T02:08:06.000Z</time></trkpt>
        <trkpt lat="28.467835" lon="104.965745"><ele>450.35425</ele><time>2026-06-19T02:08:08.000Z</time></trkpt>
        <trkpt lat="28.467836" lon="104.965727"><ele>450.35425</ele><time>2026-06-19T02:08:10.000Z</time></trkpt>
        <trkpt lat="28.467835" lon="104.965715"><ele>450.35425</ele><time>2026-06-19T02:08:12.000Z</time></trkpt>
        <trkpt lat="28.467829" lon="104.965697"><ele>450.47464</ele><time>2026-06-19T02:08:14.000Z</time></trkpt>
        <trkpt lat="28.467821" lon="104.96568"><ele>450.48785</ele><time>2026-06-19T02:08:16.000Z</time></trkpt>
        <trkpt lat="28.467808" lon="104.965654"><ele>450.75806</ele><time>2026-06-19T02:08:18.000Z</time></trkpt>
        <trkpt lat="28.467793" lon="104.965624"><ele>450.97446</ele><time>2026-06-19T02:08:20.000Z</time></trkpt>
        <trkpt lat="28.467784" lon="104.965595"><ele>451.04373</ele><time>2026-06-19T02:08:22.000Z</time></trkpt>
        <trkpt lat="28.467786" lon="104.96557"><ele>451.1266</ele><time>2026-06-19T02:08:24.000Z</time></trkpt>
        <trkpt lat="28.467792" lon="104.96555"><ele>451.22607</ele><time>2026-06-19T02:08:26.000Z</time></trkpt>
        <trkpt lat="28.467803" lon="104.965525"><ele>451.27316</ele><time>2026-06-19T02:08:28.000Z</time></trkpt>
        <trkpt lat="28.467816" lon="104.965497"><ele>451.29446</ele><time>2026-06-19T02:08:30.000Z</time></trkpt>
        <trkpt lat="28.467835" lon="104.965474"><ele>451.30087</ele><time>2026-06-19T02:08:32.000Z</time></trkpt>
        <trkpt lat="28.467856" lon="104.965457"><ele>451.30087</ele><time>2026-06-19T02:08:34.000Z</time></trkpt>
        <trkpt lat="28.467882" lon="104.96544"><ele>451.30087</ele><time>2026-06-19T02:08:36.000Z</time></trkpt>
        <trkpt lat="28.467909" lon="104.96542"><ele>451.2862</ele><time>2026-06-19T02:08:38.000Z</time></trkpt>
        <trkpt lat="28.46793" lon="104.965398"><ele>451.2862</ele><time>2026-06-19T02:08:40.000Z</time></trkpt>
        <trkpt lat="28.467953" lon="104.965374"><ele>450.95477</ele><time>2026-06-19T02:08:42.000Z</time></trkpt>
        <trkpt lat="28.467978" lon="104.965349"><ele>450.49796</ele><time>2026-06-19T02:08:44.000Z</time></trkpt>
        <trkpt lat="28.467996" lon="104.965327"><ele>450.05408</ele><time>2026-06-19T02:08:46.000Z</time></trkpt>
        <trkpt lat="28.468008" lon="104.965302"><ele>449.6938</ele><time>2026-06-19T02:08:48.000Z</time></trkpt>
        <trkpt lat="28.468012" lon="104.965277"><ele>449.6938</ele><time>2026-06-19T02:08:50.000Z</time></trkpt>
        <trkpt lat="28.468015" lon="104.965248"><ele>449.60114</ele><time>2026-06-19T02:08:52.000Z</time></trkpt>
        <trkpt lat="28.468017" lon="104.965212"><ele>449.53992</ele><time>2026-06-19T02:08:54.000Z</time></trkpt>
        <trkpt lat="28.468017" lon="104.965191"><ele>449.46863</ele><time>2026-06-19T02:08:56.000Z</time></trkpt>
        <trkpt lat="28.468019" lon="104.965166"><ele>449.37598</ele><time>2026-06-19T02:08:58.000Z</time></trkpt>
        <trkpt lat="28.468024" lon="104.965145"><ele>449.33548</ele><time>2026-06-19T02:09:00.000Z</time></trkpt>
        <trkpt lat="28.468031" lon="104.965122"><ele>449.26062</ele><time>2026-06-19T02:09:02.000Z</time></trkpt>
        <trkpt lat="28.46804" lon="104.965108"><ele>449.13806</ele><time>2026-06-19T02:09:04.000Z</time></trkpt>
        <trkpt lat="28.468053" lon="104.965092"><ele>448.9137</ele><time>2026-06-19T02:09:06.000Z</time></trkpt>
        <trkpt lat="28.468071" lon="104.965072"><ele>448.49185</ele><time>2026-06-19T02:09:08.000Z</time></trkpt>
        <trkpt lat="28.46809" lon="104.965051"><ele>448.16025</ele><time>2026-06-19T02:09:10.000Z</time></trkpt>
        <trkpt lat="28.468103" lon="104.965029"><ele>448.02704</ele><time>2026-06-19T02:09:12.000Z</time></trkpt>
        <trkpt lat="28.468116" lon="104.965005"><ele>447.80496</ele><time>2026-06-19T02:09:14.000Z</time></trkpt>
        <trkpt lat="28.468125" lon="104.964979"><ele>447.26486</ele><time>2026-06-19T02:09:16.000Z</time></trkpt>
        <trkpt lat="28.468128" lon="104.964956"><ele>446.85303</ele><time>2026-06-19T02:09:18.000Z</time></trkpt>
        <trkpt lat="28.468135" lon="104.964932"><ele>446.76178</ele><time>2026-06-19T02:09:20.000Z</time></trkpt>
        <trkpt lat="28.468142" lon="104.964903"><ele>446.65735</ele><time>2026-06-19T02:09:22.000Z</time></trkpt>
        <trkpt lat="28.468146" lon="104.964881"><ele>446.2294</ele><time>2026-06-19T02:09:24.000Z</time></trkpt>
        <trkpt lat="28.468152" lon="104.964859"><ele>445.70822</ele><time>2026-06-19T02:09:26.000Z</time></trkpt>
        <trkpt lat="28.468159" lon="104.964845"><ele>445.53387</ele><time>2026-06-19T02:09:28.000Z</time></trkpt>
        <trkpt lat="28.468171" lon="104.964826"><ele>445.17365</ele><time>2026-06-19T02:09:30.000Z</time></trkpt>
        <trkpt lat="28.468187" lon="104.9648"><ele>444.40436</ele><time>2026-06-19T02:09:32.000Z</time></trkpt>
        <trkpt lat="28.468201" lon="104.96478"><ele>443.9401</ele><time>2026-06-19T02:09:34.000Z</time></trkpt>
        <trkpt lat="28.468212" lon="104.964767"><ele>443.75397</ele><time>2026-06-19T02:09:36.000Z</time></trkpt>
        <trkpt lat="28.468224" lon="104.964755"><ele>443.52225</ele><time>2026-06-19T02:09:38.000Z</time></trkpt>
        <trkpt lat="28.468245" lon="104.964735"><ele>443.35083</ele><time>2026-06-19T02:09:40.000Z</time></trkpt>
        <trkpt lat="28.468266" lon="104.964715"><ele>443.17505</ele><time>2026-06-19T02:09:42.000Z</time></trkpt>
        <trkpt lat="28.468284" lon="104.964695"><ele>443.06348</ele><time>2026-06-19T02:09:44.000Z</time></trkpt>
        <trkpt lat="28.4683" lon="104.964678"><ele>443.06348</ele><time>2026-06-19T02:09:46.000Z</time></trkpt>
        <trkpt lat="28.468317" lon="104.964662"><ele>443.06348</ele><time>2026-06-19T02:09:48.000Z</time></trkpt>
        <trkpt lat="28.468334" lon="104.964648"><ele>443.04553</ele><time>2026-06-19T02:09:50.000Z</time></trkpt>
        <trkpt lat="28.46835" lon="104.964627"><ele>443.03842</ele><time>2026-06-19T02:09:52.000Z</time></trkpt>
        <trkpt lat="28.468361" lon="104.964599"><ele>443.03842</ele><time>2026-06-19T02:09:54.000Z</time></trkpt>
        <trkpt lat="28.468366" lon="104.96457"><ele>443.03842</ele><time>2026-06-19T02:09:56.000Z</time></trkpt>
        <trkpt lat="28.468369" lon="104.964545"><ele>443.03842</ele><time>2026-06-19T02:09:58.000Z</time></trkpt>
        <trkpt lat="28.468372" lon="104.964519"><ele>443.03842</ele><time>2026-06-19T02:10:00.000Z</time></trkpt>
        <trkpt lat="28.468374" lon="104.964492"><ele>443.0178</ele><time>2026-06-19T02:10:02.000Z</time></trkpt>
        <trkpt lat="28.468379" lon="104.964471"><ele>443.0178</ele><time>2026-06-19T02:10:04.000Z</time></trkpt>
        <trkpt lat="28.468385" lon="104.964447"><ele>442.96567</ele><time>2026-06-19T02:10:06.000Z</time></trkpt>
        <trkpt lat="28.468396" lon="104.96442"><ele>442.87686</ele><time>2026-06-19T02:10:08.000Z</time></trkpt>
        <trkpt lat="28.468416" lon="104.964387"><ele>442.69992</ele><time>2026-06-19T02:10:10.000Z</time></trkpt>
        <trkpt lat="28.468438" lon="104.964362"><ele>442.2964</ele><time>2026-06-19T02:10:12.000Z</time></trkpt>
        <trkpt lat="28.46846" lon="104.96434"><ele>441.90656</ele><time>2026-06-19T02:10:14.000Z</time></trkpt>
        <trkpt lat="28.468477" lon="104.964318"><ele>441.90656</ele><time>2026-06-19T02:10:16.000Z</time></trkpt>
        <trkpt lat="28.468486" lon="104.964299"><ele>441.90656</ele><time>2026-06-19T02:10:18.000Z</time></trkpt>
        <trkpt lat="28.468492" lon="104.964279"><ele>441.90656</ele><time>2026-06-19T02:10:20.000Z</time></trkpt>
        <trkpt lat="28.4685" lon="104.964256"><ele>441.90656</ele><time>2026-06-19T02:10:22.000Z</time></trkpt>
        <trkpt lat="28.468507" lon="104.964245"><ele>442.00803</ele><time>2026-06-19T02:10:24.000Z</time></trkpt>
        <trkpt lat="28.468517" lon="104.964235"><ele>442.2532</ele><time>2026-06-19T02:10:26.000Z</time></trkpt>
        <trkpt lat="28.468533" lon="104.964215"><ele>442.36758</ele><time>2026-06-19T02:10:30.000Z</time></trkpt>
        <trkpt lat="28.468538" lon="104.964206"><ele>442.36758</ele><time>2026-06-19T02:10:32.000Z</time></trkpt>
        <trkpt lat="28.468542" lon="104.964182"><ele>442.36758</ele><time>2026-06-19T02:10:34.000Z</time></trkpt>
        <trkpt lat="28.468544" lon="104.964146"><ele>442.36758</ele><time>2026-06-19T02:10:36.000Z</time></trkpt>
        <trkpt lat="28.468552" lon="104.964114"><ele>442.36758</ele><time>2026-06-19T02:10:38.000Z</time></trkpt>
        <trkpt lat="28.468564" lon="104.964093"><ele>442.32416</ele><time>2026-06-19T02:10:40.000Z</time></trkpt>
        <trkpt lat="28.468589" lon="104.964069"><ele>442.1884</ele><time>2026-06-19T02:10:42.000Z</time></trkpt>
        <trkpt lat="28.468611" lon="104.964056"><ele>442.1236</ele><time>2026-06-19T02:10:44.000Z</time></trkpt>
        <trkpt lat="28.468634" lon="104.964046"><ele>441.93777</ele><time>2026-06-19T02:10:46.000Z</time></trkpt>
        <trkpt lat="28.468652" lon="104.964041"><ele>441.68094</ele><time>2026-06-19T02:10:48.000Z</time></trkpt>
        <trkpt lat="28.468662" lon="104.964035"><ele>441.48694</ele><time>2026-06-19T02:10:50.000Z</time></trkpt>
        <trkpt lat="28.468694" lon="104.964016"><ele>441.48694</ele><time>2026-06-19T02:11:00.000Z</time></trkpt>
        <trkpt lat="28.46861" lon="104.963853"><ele>441.24722</ele><time>2026-06-19T02:11:25.000Z</time></trkpt>
        <trkpt lat="28.468623" lon="104.963819"><ele>441.03787</ele><time>2026-06-19T02:11:31.000Z</time></trkpt>
        <trkpt lat="28.46862" lon="104.963823"><ele>440.85953</ele><time>2026-06-19T02:11:37.000Z</time></trkpt>
        <trkpt lat="28.468702" lon="104.963749"><ele>440.85953</ele><time>2026-06-19T02:17:57.000Z</time></trkpt>
        <trkpt lat="28.468739" lon="104.963733"><ele>440.65662</ele><time>2026-06-19T02:17:59.000Z</time></trkpt>
        <trkpt lat="28.468751" lon="104.963729"><ele>440.43546</ele><time>2026-06-19T02:18:01.000Z</time></trkpt>
        <trkpt lat="28.468752" lon="104.963728"><ele>440.2336</ele><time>2026-06-19T02:18:03.000Z</time></trkpt>
        <trkpt lat="28.468779" lon="104.963685"><ele>440.0118</ele><time>2026-06-19T02:18:11.000Z</time></trkpt>
        <trkpt lat="28.468792" lon="104.963657"><ele>439.81744</ele><time>2026-06-19T02:18:13.000Z</time></trkpt>
        <trkpt lat="28.468803" lon="104.963626"><ele>439.75656</ele><time>2026-06-19T02:18:15.000Z</time></trkpt>
        <trkpt lat="28.468809" lon="104.963596"><ele>439.7178</ele><time>2026-06-19T02:18:17.000Z</time></trkpt>
        <trkpt lat="28.468812" lon="104.963558"><ele>439.68896</ele><time>2026-06-19T02:18:19.000Z</time></trkpt>
        <trkpt lat="28.468814" lon="104.963521"><ele>439.63425</ele><time>2026-06-19T02:18:21.000Z</time></trkpt>
        <trkpt lat="28.468815" lon="104.963484"><ele>439.5608</ele><time>2026-06-19T02:18:23.000Z</time></trkpt>
        <trkpt lat="28.468818" lon="104.963457"><ele>439.39435</ele><time>2026-06-19T02:18:25.000Z</time></trkpt>
        <trkpt lat="28.468825" lon="104.963427"><ele>439.0012</ele><time>2026-06-19T02:18:27.000Z</time></trkpt>
        <trkpt lat="28.468829" lon="104.963405"><ele>438.69608</ele><time>2026-06-19T02:18:29.000Z</time></trkpt>
        <trkpt lat="28.468831" lon="104.963387"><ele>438.5383</ele><time>2026-06-19T02:18:31.000Z</time></trkpt>
        <trkpt lat="28.468834" lon="104.963367"><ele>438.2303</ele><time>2026-06-19T02:18:33.000Z</time></trkpt>
        <trkpt lat="28.468835" lon="104.963361"><ele>437.97705</ele><time>2026-06-19T02:18:35.000Z</time></trkpt>
        <trkpt lat="28.468851" lon="104.963291"><ele>437.79865</ele><time>2026-06-19T02:18:41.000Z</time></trkpt>
        <trkpt lat="28.468851" lon="104.963291"><ele>437.56415</ele><time>2026-06-19T02:18:43.000Z</time></trkpt>
        <trkpt lat="28.468851" lon="104.963289"><ele>437.39746</ele><time>2026-06-19T02:18:45.000Z</time></trkpt>
        <trkpt lat="28.468853" lon="104.963238"><ele>437.26572</ele><time>2026-06-19T02:18:49.000Z</time></trkpt>
        <trkpt lat="28.468849" lon="104.963205"><ele>436.92087</ele><time>2026-06-19T02:18:51.000Z</time></trkpt>
        <trkpt lat="28.468838" lon="104.963176"><ele>436.5872</ele><time>2026-06-19T02:18:53.000Z</time></trkpt>
        <trkpt lat="28.468819" lon="104.963147"><ele>436.56345</ele><time>2026-06-19T02:18:55.000Z</time></trkpt>
        <trkpt lat="28.468799" lon="104.963125"><ele>436.44476</ele><time>2026-06-19T02:18:57.000Z</time></trkpt>
        <trkpt lat="28.468779" lon="104.963106"><ele>436.44476</ele><time>2026-06-19T02:18:59.000Z</time></trkpt>
        <trkpt lat="28.468757" lon="104.963082"><ele>436.38104</ele><time>2026-06-19T02:19:01.000Z</time></trkpt>
        <trkpt lat="28.468733" lon="104.963058"><ele>436.38104</ele><time>2026-06-19T02:19:03.000Z</time></trkpt>
        <trkpt lat="28.468712" lon="104.963034"><ele>436.44476</ele><time>2026-06-19T02:19:05.000Z</time></trkpt>
        <trkpt lat="28.468687" lon="104.963007"><ele>436.52927</ele><time>2026-06-19T02:19:07.000Z</time></trkpt>
        <trkpt lat="28.468667" lon="104.962985"><ele>436.52927</ele><time>2026-06-19T02:19:09.000Z</time></trkpt>
        <trkpt lat="28.468651" lon="104.962965"><ele>436.58722</ele><time>2026-06-19T02:19:11.000Z</time></trkpt>
        <trkpt lat="28.46864" lon="104.962946"><ele>436.63376</ele><time>2026-06-19T02:19:13.000Z</time></trkpt>
        <trkpt lat="28.468638" lon="104.962934"><ele>436.6633</ele><time>2026-06-19T02:19:15.000Z</time></trkpt>
        <trkpt lat="28.46864" lon="104.962916"><ele>436.6879</ele><time>2026-06-19T02:19:17.000Z</time></trkpt>
        <trkpt lat="28.468641" lon="104.962899"><ele>436.70395</ele><time>2026-06-19T02:19:19.000Z</time></trkpt>
        <trkpt lat="28.468645" lon="104.962876"><ele>436.9182</ele><time>2026-06-19T02:19:21.000Z</time></trkpt>
        <trkpt lat="28.468647" lon="104.962858"><ele>437.14514</ele><time>2026-06-19T02:19:23.000Z</time></trkpt>
        <trkpt lat="28.46865" lon="104.96284"><ele>437.25632</ele><time>2026-06-19T02:19:25.000Z</time></trkpt>
        <trkpt lat="28.468653" lon="104.96282"><ele>437.39648</ele><time>2026-06-19T02:19:27.000Z</time></trkpt>
        <trkpt lat="28.468661" lon="104.962802"><ele>437.64362</ele><time>2026-06-19T02:19:29.000Z</time></trkpt>
        <trkpt lat="28.468676" lon="104.962778"><ele>438.0906</ele><time>2026-06-19T02:19:31.000Z</time></trkpt>
        <trkpt lat="28.468688" lon="104.962761"><ele>438.40848</ele><time>2026-06-19T02:19:33.000Z</time></trkpt>
        <trkpt lat="28.468697" lon="104.962746"><ele>438.51074</ele><time>2026-06-19T02:19:35.000Z</time></trkpt>
        <trkpt lat="28.468706" lon="104.962724"><ele>438.5521</ele><time>2026-06-19T02:19:37.000Z</time></trkpt>
        <trkpt lat="28.468709" lon="104.9627"><ele>438.6568</ele><time>2026-06-19T02:19:39.000Z</time></trkpt>
        <trkpt lat="28.468708" lon="104.962685"><ele>438.923</ele><time>2026-06-19T02:19:41.000Z</time></trkpt>
        <trkpt lat="28.46871" lon="104.96267"><ele>439.2238</ele><time>2026-06-19T02:19:43.000Z</time></trkpt>
        <trkpt lat="28.468715" lon="104.962646"><ele>439.36636</ele><time>2026-06-19T02:19:45.000Z</time></trkpt>
        <trkpt lat="28.468728" lon="104.962621"><ele>439.54913</ele><time>2026-06-19T02:19:47.000Z</time></trkpt>
        <trkpt lat="28.468742" lon="104.962605"><ele>439.78952</ele><time>2026-06-19T02:19:49.000Z</time></trkpt>
        <trkpt lat="28.468759" lon="104.962593"><ele>439.97662</ele><time>2026-06-19T02:19:51.000Z</time></trkpt>
        <trkpt lat="28.468779" lon="104.962583"><ele>440.2527</ele><time>2026-06-19T02:19:53.000Z</time></trkpt>
        <trkpt lat="28.468801" lon="104.962576"><ele>440.5628</ele><time>2026-06-19T02:19:55.000Z</time></trkpt>
        <trkpt lat="28.468803" lon="104.96258"><ele>441.01593</ele><time>2026-06-19T02:19:57.000Z</time></trkpt>
      </trkseg>
  </trk>
</gpx>